<?xml version='1.0' encoding='UTF-8'?><gpx version="1.1" creator="JPX - https://github.com/jenetics/jpx" xmlns="http://www.topografix.com/GPX/1/1"><trk><trkseg><trkpt lat="49.133905913755925" lon="2.5075917023432326"><ele>77.0</ele><time>2026-04-28T12:38:13.406Z</time></trkpt><trkpt lat="49.1340246933581" lon="2.5074226614584507"><ele>77.0</ele><time>2026-04-28T12:38:15.464Z</time></trkpt><trkpt lat="49.13398873603738" lon="2.507265927529141"><ele>77.0</ele><time>2026-04-28T12:38:17.684Z</time></trkpt><trkpt lat="49.134052536807275" lon="2.507163043511541"><ele>77.0</ele><time>2026-04-28T12:38:19.684Z</time></trkpt><trkpt lat="49.134104602264095" lon="2.5070441504261476"><ele>77.5</ele><time>2026-04-28T12:38:21.997Z</time></trkpt><trkpt lat="49.13414440413352" lon="2.5069432318581186"><ele>78.0</ele><time>2026-04-28T12:38:23.997Z</time></trkpt><trkpt lat="49.134176879763864" lon="2.5068590748104382"><ele>78.5</ele><time>2026-04-28T12:38:25.997Z</time></trkpt><trkpt lat="49.134228420137234" lon="2.5067459529049607"><ele>79.0</ele><time>2026-04-28T12:38:28.998Z</time></trkpt><trkpt lat="49.134312927470596" lon="2.5067541757756886"><ele>79.5</ele><time>2026-04-28T12:38:31.998Z</time></trkpt><trkpt lat="49.134383532072206" lon="2.5067926638124356"><ele>80.0</ele><time>2026-04-28T12:38:33.998Z</time></trkpt><trkpt lat="49.13445311470832" lon="2.5068389380659064"><ele>80.0</ele><time>2026-04-28T12:38:35.998Z</time></trkpt><trkpt lat="49.134519644271336" lon="2.5068933248260223"><ele>80.0</ele><time>2026-04-28T12:38:37.998Z</time></trkpt><trkpt lat="49.13459101539113" lon="2.506932804326334"><ele>80.0</ele><time>2026-04-28T12:38:39.999Z</time></trkpt><trkpt lat="49.13467190882294" lon="2.506963565333911"><ele>80.0</ele><time>2026-04-28T12:38:41.999Z</time></trkpt><trkpt lat="49.13475109029385" lon="2.5070028163258504"><ele>80.0</ele><time>2026-04-28T12:38:43.999Z</time></trkpt><trkpt lat="49.13483838894264" lon="2.507031307836773"><ele>80.0</ele><time>2026-04-28T12:38:45.999Z</time></trkpt><trkpt lat="49.13492210271319" lon="2.507071171953944"><ele>79.0</ele><time>2026-04-28T12:38:47.999Z</time></trkpt><trkpt lat="49.13500790866084" lon="2.507085598866237"><ele>78.0</ele><time>2026-04-28T12:38:49.999Z</time></trkpt><trkpt lat="49.13510003382922" lon="2.5070871370593917"><ele>77.0</ele><time>2026-04-28T12:38:51.999Z</time></trkpt><trkpt lat="49.135191837495164" lon="2.5071043084206948"><ele>76.0</ele><time>2026-04-28T12:38:53.999Z</time></trkpt><trkpt lat="49.13528062714219" lon="2.507132558876301"><ele>75.0</ele><time>2026-04-28T12:38:55.999Z</time></trkpt><trkpt lat="49.135369447935666" lon="2.5071553124027215"><ele>75.0</ele><time>2026-04-28T12:38:57.999Z</time></trkpt><trkpt lat="49.13546484180624" lon="2.507177168958966"><ele>75.0</ele><time>2026-04-28T12:38:59.999Z</time></trkpt><trkpt lat="49.13556321597016" lon="2.507191464728078"><ele>75.0</ele><time>2026-04-28T12:39:01.999Z</time></trkpt><trkpt lat="49.13566989172396" lon="2.5072198500186014"><ele>75.0</ele><time>2026-04-28T12:39:03.999Z</time></trkpt><trkpt lat="49.135776090178204" lon="2.50723831767485"><ele>75.0</ele><time>2026-04-28T12:39:05.999Z</time></trkpt><trkpt lat="49.13588903595528" lon="2.5072512356634027"><ele>75.0</ele><time>2026-04-28T12:39:07.998Z</time></trkpt><trkpt lat="49.135983271680054" lon="2.507182003809276"><ele>75.0</ele><time>2026-04-28T12:39:09.998Z</time></trkpt><trkpt lat="49.13606746906076" lon="2.5071252382690976"><ele>75.0</ele><time>2026-04-28T12:39:11.998Z</time></trkpt><trkpt lat="49.136159000380175" lon="2.5071461587340798"><ele>75.0</ele><time>2026-04-28T12:39:13.998Z</time></trkpt><trkpt lat="49.13623966966296" lon="2.5071612384064097"><ele>75.0</ele><time>2026-04-28T12:39:15.998Z</time></trkpt><trkpt lat="49.13633086611718" lon="2.5071484553295775"><ele>75.0</ele><time>2026-04-28T12:39:17.998Z</time></trkpt><trkpt lat="49.13641543802051" lon="2.5071329918265133"><ele>75.0</ele><time>2026-04-28T12:39:19.998Z</time></trkpt><trkpt lat="49.13648951593298" lon="2.507127317298214"><ele>75.0</ele><time>2026-04-28T12:39:21.998Z</time></trkpt><trkpt lat="49.13657557377199" lon="2.5071138607044734"><ele>75.0</ele><time>2026-04-28T12:39:23.998Z</time></trkpt><trkpt lat="49.1366414846252" lon="2.5070857178669033"><ele>75.0</ele><time>2026-04-28T12:39:25.998Z</time></trkpt><trkpt lat="49.13671428117132" lon="2.5070673048069825"><ele>75.0</ele><time>2026-04-28T12:39:27.998Z</time></trkpt><trkpt lat="49.13679778591037" lon="2.5070505488217845"><ele>75.83333333333333</ele><time>2026-04-28T12:39:29.998Z</time></trkpt><trkpt lat="49.136873853371306" lon="2.5070217323630604"><ele>76.66666666666667</ele><time>2026-04-28T12:39:31.998Z</time></trkpt><trkpt lat="49.13695357832066" lon="2.507003279744293"><ele>77.5</ele><time>2026-04-28T12:39:33.998Z</time></trkpt><trkpt lat="49.137042005731075" lon="2.506982732058529"><ele>78.33333333333334</ele><time>2026-04-28T12:39:35.998Z</time></trkpt><trkpt lat="49.13713194134469" lon="2.5069764660955447"><ele>79.16666666666667</ele><time>2026-04-28T12:39:37.998Z</time></trkpt><trkpt lat="49.137219791806565" lon="2.5069615415739803"><ele>80.0</ele><time>2026-04-28T12:39:39.998Z</time></trkpt><trkpt lat="49.137317368058504" lon="2.506959747469071"><ele>80.0</ele><time>2026-04-28T12:39:41.998Z</time></trkpt><trkpt lat="49.13741411470677" lon="2.5069504167003624"><ele>80.0</ele><time>2026-04-28T12:39:43.998Z</time></trkpt><trkpt lat="49.13750738351686" lon="2.507035005748028"><ele>80.0</ele><time>2026-04-28T12:39:45.997Z</time></trkpt><trkpt lat="49.13758283957033" lon="2.507138985653133"><ele>80.0</ele><time>2026-04-28T12:39:47.997Z</time></trkpt><trkpt lat="49.13766736256496" lon="2.5072289102138976"><ele>80.0</ele><time>2026-04-28T12:39:49.997Z</time></trkpt><trkpt lat="49.13775866615122" lon="2.5072913314359293"><ele>80.0</ele><time>2026-04-28T12:39:51.997Z</time></trkpt><trkpt lat="49.13784542286643" lon="2.5073863189285746"><ele>80.0</ele><time>2026-04-28T12:39:53.997Z</time></trkpt><trkpt lat="49.13792300608717" lon="2.5074479244518644"><ele>80.0</ele><time>2026-04-28T12:39:55.997Z</time></trkpt><trkpt lat="49.137993146576626" lon="2.5074325392677164"><ele>80.0</ele><time>2026-04-28T12:39:57.997Z</time></trkpt><trkpt lat="49.13809680286393" lon="2.5074718558006097"><ele>80.0</ele><time>2026-04-28T12:39:59.997Z</time></trkpt><trkpt lat="49.138188130972736" lon="2.507474677452396"><ele>79.0</ele><time>2026-04-28T12:40:01.997Z</time></trkpt><trkpt lat="49.13828450696434" lon="2.5074353034826307"><ele>78.0</ele><time>2026-04-28T12:40:03.997Z</time></trkpt><trkpt lat="49.13834659278395" lon="2.5075425483585305"><ele>77.0</ele><time>2026-04-28T12:40:05.997Z</time></trkpt><trkpt lat="49.1384145647681" lon="2.5075566835074445"><ele>76.0</ele><time>2026-04-28T12:40:07.997Z</time></trkpt><trkpt lat="49.138499089088654" lon="2.5074805974207113"><ele>75.0</ele><time>2026-04-28T12:40:09.997Z</time></trkpt><trkpt lat="49.13855765979854" lon="2.5074058197790148"><ele>74.0</ele><time>2026-04-28T12:40:11.997Z</time></trkpt><trkpt lat="49.138632659896736" lon="2.5073021506100397"><ele>74.0</ele><time>2026-04-28T12:40:13.997Z</time></trkpt><trkpt lat="49.138713537071666" lon="2.507186297557183"><ele>74.0</ele><time>2026-04-28T12:40:15.997Z</time></trkpt><trkpt lat="49.1388157180092" lon="2.5071566027698973"><ele>74.0</ele><time>2026-04-28T12:40:17.996Z</time></trkpt><trkpt lat="49.13889639149088" lon="2.5070697962483504"><ele>74.0</ele><time>2026-04-28T12:40:19.996Z</time></trkpt><trkpt lat="49.138937698566686" lon="2.506916901824579"><ele>74.0</ele><time>2026-04-28T12:40:21.996Z</time></trkpt><trkpt lat="49.13901607190089" lon="2.5067937077408966"><ele>73.8</ele><time>2026-04-28T12:40:23.996Z</time></trkpt><trkpt lat="49.13906503839315" lon="2.5066428484701135"><ele>73.60000000000001</ele><time>2026-04-28T12:40:25.996Z</time></trkpt><trkpt lat="49.1391222342755" lon="2.50649766428214"><ele>73.4</ele><time>2026-04-28T12:40:28Z</time></trkpt><trkpt lat="49.13919596240708" lon="2.5063824129852303"><ele>73.2</ele><time>2026-04-28T12:40:30Z</time></trkpt><trkpt lat="49.139233974309526" lon="2.506263102812967"><ele>73.0</ele><time>2026-04-28T12:40:32Z</time></trkpt><trkpt lat="49.139303874470556" lon="2.5061831717231864"><ele>73.0</ele><time>2026-04-28T12:40:34Z</time></trkpt><trkpt lat="49.139385220091775" lon="2.5061330083281135"><ele>73.0</ele><time>2026-04-28T12:40:36Z</time></trkpt><trkpt lat="49.139451898759695" lon="2.5060799982054567"><ele>73.0</ele><time>2026-04-28T12:40:38Z</time></trkpt><trkpt lat="49.13952570975784" lon="2.506128605924309"><ele>73.0</ele><time>2026-04-28T12:40:40Z</time></trkpt><trkpt lat="49.1396155746631" lon="2.5061735330581936"><ele>73.0</ele><time>2026-04-28T12:40:42Z</time></trkpt><trkpt lat="49.13968729038011" lon="2.506240982574546"><ele>73.0</ele><time>2026-04-28T12:40:44Z</time></trkpt><trkpt lat="49.139752361114624" lon="2.5063100744516773"><ele>73.0</ele><time>2026-04-28T12:40:45.999Z</time></trkpt><trkpt lat="49.139840542280226" lon="2.506292034925511"><ele>73.0</ele><time>2026-04-28T12:40:47.999Z</time></trkpt><trkpt lat="49.13991440364381" lon="2.5063597032043745"><ele>73.0</ele><time>2026-04-28T12:40:49.999Z</time></trkpt><trkpt lat="49.139994064605375" lon="2.5064252001381435"><ele>73.0</ele><time>2026-04-28T12:40:51.999Z</time></trkpt><trkpt lat="49.14006112067387" lon="2.506495640054994"><ele>73.0</ele><time>2026-04-28T12:40:53.999Z</time></trkpt><trkpt lat="49.14013335056733" lon="2.5065775945690847"><ele>73.0</ele><time>2026-04-28T12:40:55.999Z</time></trkpt><trkpt lat="49.14020558697166" lon="2.50667601235325"><ele>72.83333333333333</ele><time>2026-04-28T12:40:57.999Z</time></trkpt><trkpt lat="49.14026423453291" lon="2.5067799808839455"><ele>72.66666666666666</ele><time>2026-04-28T12:40:59.999Z</time></trkpt><trkpt lat="49.1403012036049" lon="2.5068864029335485"><ele>72.5</ele><time>2026-04-28T12:41:01.999Z</time></trkpt><trkpt lat="49.14038779015144" lon="2.5069376878826315"><ele>72.33333333333333</ele><time>2026-04-28T12:41:03.999Z</time></trkpt><trkpt lat="49.14045677585832" lon="2.506972854619782"><ele>72.16666666666667</ele><time>2026-04-28T12:41:05.999Z</time></trkpt><trkpt lat="49.140514822865875" lon="2.5070175217900212"><ele>72.0</ele><time>2026-04-28T12:41:07.999Z</time></trkpt><trkpt lat="49.14057235943939" lon="2.507097350817674"><ele>71.57142857142858</ele><time>2026-04-28T12:41:09.999Z</time></trkpt><trkpt lat="49.14063954659622" lon="2.507130365926242"><ele>71.14285714285714</ele><time>2026-04-28T12:41:11.999Z</time></trkpt><trkpt lat="49.1407103355888" lon="2.507107983178965"><ele>70.71428571428572</ele><time>2026-04-28T12:41:13.999Z</time></trkpt><trkpt lat="49.1407814095468" lon="2.5071088077387045"><ele>70.28571428571429</ele><time>2026-04-28T12:41:15.999Z</time></trkpt><trkpt lat="49.14084521435916" lon="2.5071187995526225"><ele>69.85714285714286</ele><time>2026-04-28T12:41:17.998Z</time></trkpt><trkpt lat="49.140911391193306" lon="2.5071269893877477"><ele>69.42857142857143</ele><time>2026-04-28T12:41:19.998Z</time></trkpt><trkpt lat="49.1409859863548" lon="2.5071164828159436"><ele>69.0</ele><time>2026-04-28T12:41:21.998Z</time></trkpt><trkpt lat="49.1410505854797" lon="2.5071240440493385"><ele>69.0</ele><time>2026-04-28T12:41:23.998Z</time></trkpt><trkpt lat="49.14111433274272" lon="2.5071171261335183"><ele>69.0</ele><time>2026-04-28T12:41:25.998Z</time></trkpt><trkpt lat="49.14119932764224" lon="2.507112072385226"><ele>69.0</ele><time>2026-04-28T12:41:28.998Z</time></trkpt><trkpt lat="49.14126827964329" lon="2.5071186332695476"><ele>69.0</ele><time>2026-04-28T12:41:30.998Z</time></trkpt><trkpt lat="49.14133624467921" lon="2.5071159103772365"><ele>69.0</ele><time>2026-04-28T12:41:32.998Z</time></trkpt><trkpt lat="49.141414336976325" lon="2.507076989176997"><ele>69.0</ele><time>2026-04-28T12:41:35.998Z</time></trkpt><trkpt lat="49.14143937579207" lon="2.506958155278693"><ele>69.83333333333333</ele><time>2026-04-28T12:41:38.998Z</time></trkpt><trkpt lat="49.141456432051534" lon="2.5068451129447595"><ele>70.66666666666667</ele><time>2026-04-28T12:41:41.998Z</time></trkpt><trkpt lat="49.14147153112149" lon="2.506734544532042"><ele>71.5</ele><time>2026-04-28T12:41:44.998Z</time></trkpt><trkpt lat="49.14150183754755" lon="2.5066143846750455"><ele>72.33333333333334</ele><time>2026-04-28T12:41:47.998Z</time></trkpt><trkpt lat="49.14152782838928" lon="2.5064940407850784"><ele>73.16666666666667</ele><time>2026-04-28T12:41:50.997Z</time></trkpt><trkpt lat="49.141546631624465" lon="2.5063776917988747"><ele>74.0</ele><time>2026-04-28T12:41:53.997Z</time></trkpt><trkpt lat="49.14156199692889" lon="2.506247311793079"><ele>74.16666666666667</ele><time>2026-04-28T12:41:57.997Z</time></trkpt><trkpt lat="49.141587236677765" lon="2.506120704504679"><ele>74.33333333333334</ele><time>2026-04-28T12:42:01.997Z</time></trkpt><trkpt lat="49.141600014863116" lon="2.5060252287220357"><ele>74.5</ele><time>2026-04-28T12:42:04.997Z</time></trkpt><trkpt lat="49.141616387325165" lon="2.505905569632465"><ele>74.66666666666667</ele><time>2026-04-28T12:42:08.997Z</time></trkpt><trkpt lat="49.14162802944555" lon="2.5057813982649195"><ele>74.83333333333333</ele><time>2026-04-28T12:42:12.997Z</time></trkpt><trkpt lat="49.14165471646862" lon="2.505669781631792"><ele>75.0</ele><time>2026-04-28T12:42:16.997Z</time></trkpt><trkpt lat="49.14167619557211" lon="2.5055352284052788"><ele>75.0</ele><time>2026-04-28T12:42:20.997Z</time></trkpt><trkpt lat="49.14169868257791" lon="2.50542754987266"><ele>75.0</ele><time>2026-04-28T12:42:23.996Z</time></trkpt><trkpt lat="49.14172230310125" lon="2.505310914025373"><ele>75.0</ele><time>2026-04-28T12:42:26.996Z</time></trkpt><trkpt lat="49.14173408613777" lon="2.505187492664665"><ele>75.0</ele><time>2026-04-28T12:42:29.996Z</time></trkpt><trkpt lat="49.141750597336085" lon="2.5050746887270434"><ele>75.0</ele><time>2026-04-28T12:42:33Z</time></trkpt><trkpt lat="49.141760815383265" lon="2.504969773839116"><ele>75.0</ele><time>2026-04-28T12:42:36Z</time></trkpt><trkpt lat="49.14178197007957" lon="2.50485206892308"><ele>75.14285714285714</ele><time>2026-04-28T12:42:39Z</time></trkpt><trkpt lat="49.141797330824645" lon="2.5047236229451153"><ele>75.28571428571428</ele><time>2026-04-28T12:42:42Z</time></trkpt><trkpt lat="49.14182085975055" lon="2.5046133699324797"><ele>75.42857142857142</ele><time>2026-04-28T12:42:45Z</time></trkpt><trkpt lat="49.141889613191175" lon="2.5045785464481365"><ele>75.57142857142857</ele><time>2026-04-28T12:43:03.999Z</time></trkpt><trkpt lat="49.1419570069968" lon="2.504567459606017"><ele>75.71428571428572</ele><time>2026-04-28T12:43:07.999Z</time></trkpt><trkpt lat="49.14203454057544" lon="2.504576029182749"><ele>75.85714285714285</ele><time>2026-04-28T12:43:11.999Z</time></trkpt><trkpt lat="49.142104234416166" lon="2.504571404059695"><ele>76.0</ele><time>2026-04-28T12:43:14.999Z</time></trkpt><trkpt lat="49.142173531334336" lon="2.5045612172117986"><ele>76.0</ele><time>2026-04-28T12:43:17.999Z</time></trkpt><trkpt lat="49.1422535038561" lon="2.5045594397658983"><ele>76.0</ele><time>2026-04-28T12:43:20.998Z</time></trkpt><trkpt lat="49.14231763462899" lon="2.504561311063317"><ele>76.0</ele><time>2026-04-28T12:43:23.998Z</time></trkpt><trkpt lat="49.1423807502359" lon="2.5045467024789576"><ele>76.0</ele><time>2026-04-28T12:43:26.998Z</time></trkpt><trkpt lat="49.14244846376452" lon="2.504536407920123"><ele>76.0</ele><time>2026-04-28T12:43:29.998Z</time></trkpt><trkpt lat="49.14253882432234" lon="2.504538148683047"><ele>76.0</ele><time>2026-04-28T12:43:32.998Z</time></trkpt><trkpt lat="49.14262590556109" lon="2.5045265949595215"><ele>76.33333333333333</ele><time>2026-04-28T12:43:35.998Z</time></trkpt><trkpt lat="49.142702438824614" lon="2.5045301909710687"><ele>76.66666666666666</ele><time>2026-04-28T12:43:38.998Z</time></trkpt><trkpt lat="49.14278015897767" lon="2.5045296107812107"><ele>77.0</ele><time>2026-04-28T12:43:41.998Z</time></trkpt><trkpt lat="49.14285880531111" lon="2.504526138405402"><ele>77.33333333333333</ele><time>2026-04-28T12:43:44.998Z</time></trkpt><trkpt lat="49.14293690661701" lon="2.504524276736664"><ele>77.66666666666667</ele><time>2026-04-28T12:43:47.998Z</time></trkpt><trkpt lat="49.14300416099911" lon="2.5045298417974444"><ele>78.0</ele><time>2026-04-28T12:43:49.998Z</time></trkpt><trkpt lat="49.14307670790299" lon="2.504532665615434"><ele>78.0</ele><time>2026-04-28T12:43:52.997Z</time></trkpt><trkpt lat="49.14314179668812" lon="2.5045422306755194"><ele>78.0</ele><time>2026-04-28T12:43:54.997Z</time></trkpt><trkpt lat="49.14320999458408" lon="2.504535510743248"><ele>78.0</ele><time>2026-04-28T12:43:56.997Z</time></trkpt><trkpt lat="49.143276081904446" lon="2.504526252740396"><ele>78.0</ele><time>2026-04-28T12:43:58.997Z</time></trkpt><trkpt lat="49.143339761805" lon="2.504528891886766"><ele>78.0</ele><time>2026-04-28T12:44:00.997Z</time></trkpt><trkpt lat="49.14341736927085" lon="2.5045007951391822"><ele>78.0</ele><time>2026-04-28T12:44:03.997Z</time></trkpt><trkpt lat="49.14347839535602" lon="2.5045338869204286"><ele>78.0</ele><time>2026-04-28T12:44:05.997Z</time></trkpt><trkpt lat="49.14355101509339" lon="2.504529705435225"><ele>78.16666666666667</ele><time>2026-04-28T12:44:07.997Z</time></trkpt><trkpt lat="49.14362108559916" lon="2.5045280670968078"><ele>78.33333333333333</ele><time>2026-04-28T12:44:09.997Z</time></trkpt><trkpt lat="49.14369457381754" lon="2.504525652917197"><ele>78.5</ele><time>2026-04-28T12:44:11.997Z</time></trkpt><trkpt lat="49.143771241504695" lon="2.5045273725798745"><ele>78.66666666666666</ele><time>2026-04-28T12:44:13.997Z</time></trkpt><trkpt lat="49.14384274454204" lon="2.504510982160303"><ele>78.83333333333333</ele><time>2026-04-28T12:44:15.997Z</time></trkpt><trkpt lat="49.14392521167869" lon="2.504508794276424"><ele>79.0</ele><time>2026-04-28T12:44:17.997Z</time></trkpt><trkpt lat="49.14400023719577" lon="2.504511842675924"><ele>78.57142857142858</ele><time>2026-04-28T12:44:19.997Z</time></trkpt><trkpt lat="49.1440687203625" lon="2.5044693456019753"><ele>78.14285714285714</ele><time>2026-04-28T12:44:21.997Z</time></trkpt><trkpt lat="49.1441282996886" lon="2.504511570461826"><ele>77.71428571428572</ele><time>2026-04-28T12:44:24.996Z</time></trkpt><trkpt lat="49.144207401554596" lon="2.504505769252675"><ele>77.28571428571429</ele><time>2026-04-28T12:44:26.996Z</time></trkpt><trkpt lat="49.14427135694713" lon="2.504501043978756"><ele>76.85714285714286</ele><time>2026-04-28T12:44:28.996Z</time></trkpt><trkpt lat="49.14435478320249" lon="2.5044923212480703"><ele>76.42857142857143</ele><time>2026-04-28T12:44:30.996Z</time></trkpt><trkpt lat="49.144434808027526" lon="2.504487081115477"><ele>76.0</ele><time>2026-04-28T12:44:32.996Z</time></trkpt><trkpt lat="49.14452133022667" lon="2.504486762501918"><ele>76.0</ele><time>2026-04-28T12:44:34.996Z</time></trkpt><trkpt lat="49.144602640082184" lon="2.5044872784993553"><ele>76.0</ele><time>2026-04-28T12:44:36.996Z</time></trkpt><trkpt lat="49.14468440377391" lon="2.5044876658055437"><ele>76.0</ele><time>2026-04-28T12:44:39Z</time></trkpt><trkpt lat="49.14477417118091" lon="2.504480172361998"><ele>76.0</ele><time>2026-04-28T12:44:41Z</time></trkpt><trkpt lat="49.14486255430012" lon="2.504482177259734"><ele>76.0</ele><time>2026-04-28T12:44:43Z</time></trkpt><trkpt lat="49.14495138286458" lon="2.5044743379075385"><ele>76.0</ele><time>2026-04-28T12:44:45Z</time></trkpt><trkpt lat="49.145039470272195" lon="2.5044742778667444"><ele>75.5</ele><time>2026-04-28T12:44:47Z</time></trkpt><trkpt lat="49.14511751334189" lon="2.504476972635435"><ele>75.0</ele><time>2026-04-28T12:44:49Z</time></trkpt><trkpt lat="49.145200411178884" lon="2.504473750460467"><ele>74.5</ele><time>2026-04-28T12:44:51Z</time></trkpt><trkpt lat="49.14527888815228" lon="2.5044717432151438"><ele>74.0</ele><time>2026-04-28T12:44:53Z</time></trkpt><trkpt lat="49.14535358381213" lon="2.504467673277928"><ele>73.5</ele><time>2026-04-28T12:44:54.999Z</time></trkpt><trkpt lat="49.14542818101999" lon="2.5044582297947566"><ele>73.0</ele><time>2026-04-28T12:44:56.999Z</time></trkpt><trkpt lat="49.14549259826134" lon="2.5044376897424567"><ele>73.0</ele><time>2026-04-28T12:44:58.999Z</time></trkpt><trkpt lat="49.145516085255124" lon="2.504308267308026"><ele>73.0</ele><time>2026-04-28T12:45:00.999Z</time></trkpt><trkpt lat="49.14552964705245" lon="2.504188115684618"><ele>73.0</ele><time>2026-04-28T12:45:02.999Z</time></trkpt><trkpt lat="49.145552555546324" lon="2.5040717924577036"><ele>73.0</ele><time>2026-04-28T12:45:04.999Z</time></trkpt><trkpt lat="49.14557142084695" lon="2.5039472331044474"><ele>73.0</ele><time>2026-04-28T12:45:06.999Z</time></trkpt><trkpt lat="49.14559127627239" lon="2.503847640126862"><ele>73.0</ele><time>2026-04-28T12:45:08.999Z</time></trkpt><trkpt lat="49.14561334188319" lon="2.5037218784504054"><ele>73.16666666666666</ele><time>2026-04-28T12:45:10.999Z</time></trkpt><trkpt lat="49.14562867531117" lon="2.5036209681230246"><ele>73.33333333333333</ele><time>2026-04-28T12:45:12.999Z</time></trkpt><trkpt lat="49.14565312796389" lon="2.5035061342828278"><ele>73.5</ele><time>2026-04-28T12:45:15Z</time></trkpt><trkpt lat="49.14566624096839" lon="2.5033669608252067"><ele>73.66666666666667</ele><time>2026-04-28T12:45:17Z</time></trkpt><trkpt lat="49.145686752715484" lon="2.50322056315063"><ele>73.83333333333334</ele><time>2026-04-28T12:45:19Z</time></trkpt><trkpt lat="49.145707460237055" lon="2.5030763975318835"><ele>74.0</ele><time>2026-04-28T12:45:21Z</time></trkpt><trkpt lat="49.14572413027669" lon="2.502933051517215"><ele>72.8</ele><time>2026-04-28T12:45:23Z</time></trkpt><trkpt lat="49.14574564912961" lon="2.502784410846254"><ele>71.60000000000001</ele><time>2026-04-28T12:45:24.999Z</time></trkpt><trkpt lat="49.145766579966576" lon="2.5026392280548198"><ele>70.4</ele><time>2026-04-28T12:45:26.999Z</time></trkpt><trkpt lat="49.145788592915096" lon="2.5024833521167866"><ele>69.2</ele><time>2026-04-28T12:45:28.999Z</time></trkpt><trkpt lat="49.14581176895393" lon="2.5023302928613207"><ele>68.0</ele><time>2026-04-28T12:45:30.999Z</time></trkpt><trkpt lat="49.14583421671474" lon="2.502185490676601"><ele>68.0</ele><time>2026-04-28T12:45:32.999Z</time></trkpt><trkpt lat="49.14589406096469" lon="2.502142099146896"><ele>68.0</ele><time>2026-04-28T12:45:34.999Z</time></trkpt><trkpt lat="49.145977837551065" lon="2.5022004696436286"><ele>68.0</ele><time>2026-04-28T12:45:37.999Z</time></trkpt><trkpt lat="49.14604686502119" lon="2.5022343145024304"><ele>68.0</ele><time>2026-04-28T12:45:39.999Z</time></trkpt><trkpt lat="49.14612049768158" lon="2.502296782425736"><ele>68.0</ele><time>2026-04-28T12:45:41.999Z</time></trkpt><trkpt lat="49.14620118150028" lon="2.502382100659048"><ele>68.0</ele><time>2026-04-28T12:45:43.999Z</time></trkpt><trkpt lat="49.146292858339926" lon="2.502455805477928"><ele>68.0</ele><time>2026-04-28T12:45:45.999Z</time></trkpt><trkpt lat="49.14638203946282" lon="2.502525954613561"><ele>68.0</ele><time>2026-04-28T12:45:47.999Z</time></trkpt><trkpt lat="49.14647296366186" lon="2.5026058037522403"><ele>68.0</ele><time>2026-04-28T12:45:49.999Z</time></trkpt><trkpt lat="49.14658286959959" lon="2.502700288231437"><ele>68.0</ele><time>2026-04-28T12:45:51.999Z</time></trkpt><trkpt lat="49.146678633772915" lon="2.5027851529266547"><ele>68.0</ele><time>2026-04-28T12:45:53.999Z</time></trkpt><trkpt lat="49.14678243242339" lon="2.502868813132285"><ele>66.8</ele><time>2026-04-28T12:45:55.998Z</time></trkpt><trkpt lat="49.14688282662257" lon="2.5029549509453988"><ele>65.6</ele><time>2026-04-28T12:45:57.998Z</time></trkpt><trkpt lat="49.14697695914074" lon="2.503047055232946"><ele>64.4</ele><time>2026-04-28T12:45:59.998Z</time></trkpt><trkpt lat="49.14706745417916" lon="2.50312526384674"><ele>63.2</ele><time>2026-04-28T12:46:01.998Z</time></trkpt><trkpt lat="49.14715407190243" lon="2.5032074134262885"><ele>62.0</ele><time>2026-04-28T12:46:03.998Z</time></trkpt><trkpt lat="49.147240011630146" lon="2.503282996775654"><ele>62.0</ele><time>2026-04-28T12:46:05.998Z</time></trkpt><trkpt lat="49.147328835055696" lon="2.5033498174291644"><ele>62.0</ele><time>2026-04-28T12:46:07.998Z</time></trkpt><trkpt lat="49.14740749546517" lon="2.503432683598875"><ele>62.0</ele><time>2026-04-28T12:46:09.998Z</time></trkpt><trkpt lat="49.14748760125627" lon="2.5035029810771654"><ele>62.0</ele><time>2026-04-28T12:46:11.998Z</time></trkpt><trkpt lat="49.147566797311455" lon="2.5035667509238326"><ele>62.0</ele><time>2026-04-28T12:46:13.998Z</time></trkpt><trkpt lat="49.1476408741354" lon="2.5036258921676167"><ele>62.16666666666667</ele><time>2026-04-28T12:46:15.998Z</time></trkpt><trkpt lat="49.14771113593823" lon="2.5036829028853576"><ele>62.333333333333336</ele><time>2026-04-28T12:46:17.998Z</time></trkpt><trkpt lat="49.147778482058115" lon="2.503744870379165"><ele>62.5</ele><time>2026-04-28T12:46:19.998Z</time></trkpt><trkpt lat="49.14784492117436" lon="2.5038032310487632"><ele>62.66666666666667</ele><time>2026-04-28T12:46:21.998Z</time></trkpt><trkpt lat="49.14791542018329" lon="2.503858619261089"><ele>62.833333333333336</ele><time>2026-04-28T12:46:23.998Z</time></trkpt><trkpt lat="49.147988390453236" lon="2.503929486707417"><ele>63.0</ele><time>2026-04-28T12:46:25.998Z</time></trkpt><trkpt lat="49.14807010099754" lon="2.5040020750755247"><ele>63.0</ele><time>2026-04-28T12:46:27.997Z</time></trkpt><trkpt lat="49.148155997862105" lon="2.504068527522757"><ele>63.0</ele><time>2026-04-28T12:46:29.997Z</time></trkpt><trkpt lat="49.148239508764696" lon="2.5041336270696783"><ele>63.0</ele><time>2026-04-28T12:46:31.997Z</time></trkpt><trkpt lat="49.14832411679057" lon="2.504203755633448"><ele>63.0</ele><time>2026-04-28T12:46:33.997Z</time></trkpt><trkpt lat="49.14840525315239" lon="2.504268004772323"><ele>63.0</ele><time>2026-04-28T12:46:35.997Z</time></trkpt><trkpt lat="49.14848538615481" lon="2.5043284979901244"><ele>63.714285714285715</ele><time>2026-04-28T12:46:37.997Z</time></trkpt><trkpt lat="49.148560848768234" lon="2.5043670512272644"><ele>64.42857142857143</ele><time>2026-04-28T12:46:39.997Z</time></trkpt><trkpt lat="49.14860450975956" lon="2.5042868731809875"><ele>65.14285714285714</ele><time>2026-04-28T12:46:41.997Z</time></trkpt><trkpt lat="49.14865951207715" lon="2.504214717695213"><ele>65.85714285714286</ele><time>2026-04-28T12:46:44.001Z</time></trkpt><trkpt lat="49.14871924189825" lon="2.5041684857713076"><ele>66.57142857142857</ele><time>2026-04-28T12:46:46Z</time></trkpt><trkpt lat="49.14879536298163" lon="2.504140473962528"><ele>67.28571428571428</ele><time>2026-04-28T12:46:48.001Z</time></trkpt><trkpt lat="49.14885622782338" lon="2.5040951517578067"><ele>68.0</ele><time>2026-04-28T12:46:50.001Z</time></trkpt><trkpt lat="49.14894997505002" lon="2.5040469824417335"><ele>68.0</ele><time>2026-04-28T12:46:53.001Z</time></trkpt><trkpt lat="49.14903647847232" lon="2.5039881402294553"><ele>68.0</ele><time>2026-04-28T12:46:56.001Z</time></trkpt><trkpt lat="49.14912285273435" lon="2.503950033967216"><ele>68.0</ele><time>2026-04-28T12:46:59Z</time></trkpt><trkpt lat="49.14921020276093" lon="2.5038808966106187"><ele>68.0</ele><time>2026-04-28T12:47:02Z</time></trkpt><trkpt lat="49.149283909649625" lon="2.503845221806599"><ele>68.0</ele><time>2026-04-28T12:47:04Z</time></trkpt><trkpt lat="49.1493527165142" lon="2.503801806493066"><ele>68.0</ele><time>2026-04-28T12:47:06Z</time></trkpt><trkpt lat="49.149434574676086" lon="2.5037521838956778"><ele>68.28571428571428</ele><time>2026-04-28T12:47:08Z</time></trkpt><trkpt lat="49.149511833992435" lon="2.503702986288007"><ele>68.57142857142857</ele><time>2026-04-28T12:47:10Z</time></trkpt><trkpt lat="49.149583761086255" lon="2.5036535852300865"><ele>68.85714285714286</ele><time>2026-04-28T12:47:12Z</time></trkpt><trkpt lat="49.14965595141726" lon="2.5036158282009593"><ele>69.14285714285714</ele><time>2026-04-28T12:47:14Z</time></trkpt><trkpt lat="49.149724485587456" lon="2.503574284904533"><ele>69.42857142857143</ele><time>2026-04-28T12:47:16Z</time></trkpt><trkpt lat="49.14978804992642" lon="2.50354575548429"><ele>69.71428571428571</ele><time>2026-04-28T12:47:18Z</time></trkpt><trkpt lat="49.14984672363006" lon="2.503507716090208"><ele>70.0</ele><time>2026-04-28T12:47:20Z</time></trkpt><trkpt lat="49.14990573300945" lon="2.503464471992091"><ele>70.0</ele><time>2026-04-28T12:47:22Z</time></trkpt><trkpt lat="49.14997856268495" lon="2.5034221980847815"><ele>70.0</ele><time>2026-04-28T12:47:24Z</time></trkpt><trkpt lat="49.150053878304334" lon="2.503386530282897"><ele>70.0</ele><time>2026-04-28T12:47:26Z</time></trkpt><trkpt lat="49.15012372912869" lon="2.5033369756576582"><ele>70.0</ele><time>2026-04-28T12:47:28Z</time></trkpt><trkpt lat="49.150195495012646" lon="2.503288519614863"><ele>70.0</ele><time>2026-04-28T12:47:29.999Z</time></trkpt><trkpt lat="49.150257177551836" lon="2.5032493463845875"><ele>70.0</ele><time>2026-04-28T12:47:31.999Z</time></trkpt><trkpt lat="49.15033829912243" lon="2.5032060393654607"><ele>70.0</ele><time>2026-04-28T12:47:33.999Z</time></trkpt><trkpt lat="49.150411452410154" lon="2.5031771346035563"><ele>70.0</ele><time>2026-04-28T12:47:35.999Z</time></trkpt><trkpt lat="49.15048244789033" lon="2.503119380038766"><ele>70.0</ele><time>2026-04-28T12:47:37.999Z</time></trkpt><trkpt lat="49.15055254403659" lon="2.5030779604464426"><ele>70.0</ele><time>2026-04-28T12:47:39.999Z</time></trkpt><trkpt lat="49.150614242354266" lon="2.503036261577298"><ele>70.0</ele><time>2026-04-28T12:47:41.999Z</time></trkpt><trkpt lat="49.150697203549996" lon="2.5029934602587427"><ele>70.0</ele><time>2026-04-28T12:47:43.999Z</time></trkpt><trkpt lat="49.15077851938361" lon="2.5029550364767035"><ele>69.83333333333333</ele><time>2026-04-28T12:47:45.999Z</time></trkpt><trkpt lat="49.150858945082874" lon="2.502901578882472"><ele>69.66666666666666</ele><time>2026-04-28T12:47:47.999Z</time></trkpt><trkpt lat="49.150941340307604" lon="2.5028559158259"><ele>69.5</ele><time>2026-04-28T12:47:49.999Z</time></trkpt><trkpt lat="49.15101449554635" lon="2.502816326717703"><ele>69.33333333333333</ele><time>2026-04-28T12:47:51.999Z</time></trkpt><trkpt lat="49.15109847535234" lon="2.5027575857889137"><ele>69.16666666666667</ele><time>2026-04-28T12:47:53.999Z</time></trkpt><trkpt lat="49.15118237884273" lon="2.502706385954798"><ele>69.0</ele><time>2026-04-28T12:47:55.999Z</time></trkpt><trkpt lat="49.15126195271472" lon="2.50266072280818"><ele>69.0</ele><time>2026-04-28T12:47:57.999Z</time></trkpt><trkpt lat="49.15135054347351" lon="2.5026125474345515"><ele>69.0</ele><time>2026-04-28T12:47:59.999Z</time></trkpt><trkpt lat="49.15143220412003" lon="2.5025666474167196"><ele>69.0</ele><time>2026-04-28T12:48:01.998Z</time></trkpt><trkpt lat="49.15151245402745" lon="2.5025055186815206"><ele>69.0</ele><time>2026-04-28T12:48:03.998Z</time></trkpt><trkpt lat="49.15160051344779" lon="2.5024428370240934"><ele>69.0</ele><time>2026-04-28T12:48:05.998Z</time></trkpt><trkpt lat="49.151691827183164" lon="2.502402144033219"><ele>68.4</ele><time>2026-04-28T12:48:07.998Z</time></trkpt><trkpt lat="49.1517863102123" lon="2.5023447408101385"><ele>67.80000000000001</ele><time>2026-04-28T12:48:09.998Z</time></trkpt><trkpt lat="49.15188369886333" lon="2.5022739793645186"><ele>67.19999999999999</ele><time>2026-04-28T12:48:11.998Z</time></trkpt><trkpt lat="49.15199561292452" lon="2.502216004952339"><ele>66.6</ele><time>2026-04-28T12:48:13.998Z</time></trkpt><trkpt lat="49.15208053522405" lon="2.502153877500817"><ele>66.0</ele><time>2026-04-28T12:48:15.998Z</time></trkpt><trkpt lat="49.15216401527965" lon="2.502106778258097"><ele>66.0</ele><time>2026-04-28T12:48:17.998Z</time></trkpt><trkpt lat="49.152253387628875" lon="2.502056724160669"><ele>66.0</ele><time>2026-04-28T12:48:19.998Z</time></trkpt><trkpt lat="49.152336966081506" lon="2.501998756449706"><ele>66.0</ele><time>2026-04-28T12:48:21.998Z</time></trkpt><trkpt lat="49.15242902568013" lon="2.501945321091958"><ele>66.0</ele><time>2026-04-28T12:48:23.998Z</time></trkpt><trkpt lat="49.15253439050156" lon="2.5018860416460242"><ele>66.0</ele><time>2026-04-28T12:48:25.998Z</time></trkpt><trkpt lat="49.15262932314509" lon="2.5018365191241183"><ele>66.2</ele><time>2026-04-28T12:48:27.998Z</time></trkpt><trkpt lat="49.152721948855046" lon="2.5017704220365666"><ele>66.39999999999999</ele><time>2026-04-28T12:48:29.998Z</time></trkpt><trkpt lat="49.15281421602706" lon="2.5017241303910995"><ele>66.6</ele><time>2026-04-28T12:48:31.998Z</time></trkpt><trkpt lat="49.152899114658105" lon="2.501669229246535"><ele>66.8</ele><time>2026-04-28T12:48:33.997Z</time></trkpt><trkpt lat="49.152984553879854" lon="2.50162631510762"><ele>67.0</ele><time>2026-04-28T12:48:35.997Z</time></trkpt><trkpt lat="49.15306639542748" lon="2.5015680554537427"><ele>67.0</ele><time>2026-04-28T12:48:37.997Z</time></trkpt><trkpt lat="49.15313158941233" lon="2.5015144928204873"><ele>67.0</ele><time>2026-04-28T12:48:39.997Z</time></trkpt><trkpt lat="49.15320616491614" lon="2.5014852034346418"><ele>67.0</ele><time>2026-04-28T12:48:41.997Z</time></trkpt><trkpt lat="49.15327837504003" lon="2.501445870589566"><ele>67.0</ele><time>2026-04-28T12:48:43.997Z</time></trkpt><trkpt lat="49.15334643568468" lon="2.5014014931276765"><ele>67.0</ele><time>2026-04-28T12:48:45.997Z</time></trkpt><trkpt lat="49.15342363420163" lon="2.501357146547283"><ele>67.0</ele><time>2026-04-28T12:48:47.997Z</time></trkpt><trkpt lat="49.15349921776615" lon="2.5013149485829986"><ele>67.0</ele><time>2026-04-28T12:48:50.001Z</time></trkpt><trkpt lat="49.153574541736255" lon="2.5012621330494857"><ele>67.0</ele><time>2026-04-28T12:48:52Z</time></trkpt><trkpt lat="49.153652886490576" lon="2.5012060211321048"><ele>67.0</ele><time>2026-04-28T12:48:54.001Z</time></trkpt><trkpt lat="49.153730714110566" lon="2.501167679750375"><ele>67.0</ele><time>2026-04-28T12:48:56Z</time></trkpt><trkpt lat="49.15380677770439" lon="2.501129871353056"><ele>67.0</ele><time>2026-04-28T12:48:58Z</time></trkpt><trkpt lat="49.15387328463345" lon="2.501081927552404"><ele>67.0</ele><time>2026-04-28T12:49:00Z</time></trkpt><trkpt lat="49.15394052732664" lon="2.5010385295631172"><ele>67.0</ele><time>2026-04-28T12:49:02Z</time></trkpt><trkpt lat="49.15401623200231" lon="2.500991405263098"><ele>67.0</ele><time>2026-04-28T12:49:04Z</time></trkpt><trkpt lat="49.15408829522737" lon="2.500959125670591"><ele>67.0</ele><time>2026-04-28T12:49:06Z</time></trkpt><trkpt lat="49.15416576803998" lon="2.5009140120197695"><ele>67.0</ele><time>2026-04-28T12:49:08Z</time></trkpt><trkpt lat="49.15424385097842" lon="2.5008756848322573"><ele>67.0</ele><time>2026-04-28T12:49:10Z</time></trkpt><trkpt lat="49.15431483387866" lon="2.500814359534824"><ele>67.0</ele><time>2026-04-28T12:49:12Z</time></trkpt><trkpt lat="49.154396702159474" lon="2.5007648285880104"><ele>67.0</ele><time>2026-04-28T12:49:14Z</time></trkpt><trkpt lat="49.15447744960821" lon="2.5007176868448977"><ele>67.0</ele><time>2026-04-28T12:49:16Z</time></trkpt><trkpt lat="49.154555758015626" lon="2.5006855233455334"><ele>67.0</ele><time>2026-04-28T12:49:18Z</time></trkpt><trkpt lat="49.15463573956993" lon="2.5006396648845253"><ele>67.0</ele><time>2026-04-28T12:49:20Z</time></trkpt><trkpt lat="49.15472062994046" lon="2.5005957395802327"><ele>67.0</ele><time>2026-04-28T12:49:22Z</time></trkpt><trkpt lat="49.1547980555678" lon="2.500543927363527"><ele>67.0</ele><time>2026-04-28T12:49:24Z</time></trkpt><trkpt lat="49.15488795826686" lon="2.500498555621313"><ele>66.8</ele><time>2026-04-28T12:49:26Z</time></trkpt><trkpt lat="49.154972178001984" lon="2.5004458528894737"><ele>66.6</ele><time>2026-04-28T12:49:28Z</time></trkpt><trkpt lat="49.15505384836716" lon="2.500384910146247"><ele>66.39999999999999</ele><time>2026-04-28T12:49:30Z</time></trkpt><trkpt lat="49.15514680145563" lon="2.500334160841754"><ele>66.2</ele><time>2026-04-28T12:49:32Z</time></trkpt><trkpt lat="49.15523076079467" lon="2.500272475934921"><ele>66.0</ele><time>2026-04-28T12:49:33.999Z</time></trkpt><trkpt lat="49.155306990895774" lon="2.5002247093739958"><ele>66.0</ele><time>2026-04-28T12:49:35.999Z</time></trkpt><trkpt lat="49.15539214350548" lon="2.500171059363022"><ele>66.0</ele><time>2026-04-28T12:49:37.999Z</time></trkpt><trkpt lat="49.15547519744695" lon="2.5001210537240706"><ele>66.0</ele><time>2026-04-28T12:49:39.999Z</time></trkpt><trkpt lat="49.15556876483814" lon="2.500066370933895"><ele>66.0</ele><time>2026-04-28T12:49:41.999Z</time></trkpt><trkpt lat="49.15567442107987" lon="2.500006686352674"><ele>66.0</ele><time>2026-04-28T12:49:43.999Z</time></trkpt><trkpt lat="49.15578361039198" lon="2.4999407703040277"><ele>66.0</ele><time>2026-04-28T12:49:45.999Z</time></trkpt><trkpt lat="49.15588466153971" lon="2.4998748347579576"><ele>66.0</ele><time>2026-04-28T12:49:47.999Z</time></trkpt><trkpt lat="49.15599250592715" lon="2.4998112416250113"><ele>66.0</ele><time>2026-04-28T12:49:49.999Z</time></trkpt><trkpt lat="49.156099669088825" lon="2.49975430592488"><ele>66.0</ele><time>2026-04-28T12:49:51.999Z</time></trkpt><trkpt lat="49.15616795717635" lon="2.499703071674486"><ele>66.0</ele><time>2026-04-28T12:49:53.999Z</time></trkpt><trkpt lat="49.15624260611541" lon="2.499704100133031"><ele>66.0</ele><time>2026-04-28T12:51:27Z</time></trkpt><trkpt lat="49.156305142875446" lon="2.4997564315132554"><ele>66.0</ele><time>2026-04-28T12:51:30Z</time></trkpt><trkpt lat="49.156375475256475" lon="2.499819357228771"><ele>66.0</ele><time>2026-04-28T12:51:32Z</time></trkpt><trkpt lat="49.1564740260206" lon="2.4999109380391062"><ele>66.0</ele><time>2026-04-28T12:51:34Z</time></trkpt><trkpt lat="49.15653181834603" lon="2.499960111063958"><ele>66.0</ele><time>2026-04-28T12:51:35Z</time></trkpt><trkpt lat="49.15658769047395" lon="2.5000323967468145"><ele>66.0</ele><time>2026-04-28T12:51:36Z</time></trkpt><trkpt lat="49.15666541288802" lon="2.500087597138907"><ele>65.0</ele><time>2026-04-28T12:51:37Z</time></trkpt><trkpt lat="49.15674603676366" lon="2.5001605964398737"><ele>63.99999999999999</ele><time>2026-04-28T12:51:38Z</time></trkpt><trkpt lat="49.156830708507876" lon="2.5002371339846494"><ele>62.99999999999999</ele><time>2026-04-28T12:51:38.999Z</time></trkpt><trkpt lat="49.15692466189276" lon="2.50031774451009"><ele>62.0</ele><time>2026-04-28T12:51:39.999Z</time></trkpt><trkpt lat="49.15701887894451" lon="2.5004078931889007"><ele>61.0</ele><time>2026-04-28T12:51:40.999Z</time></trkpt><trkpt lat="49.15711533580185" lon="2.5004975118387667"><ele>60.75</ele><time>2026-04-28T12:51:41.999Z</time></trkpt><trkpt lat="49.157218908685856" lon="2.500588467191344"><ele>60.5</ele><time>2026-04-28T12:51:42.999Z</time></trkpt><trkpt lat="49.15731674614202" lon="2.5006821902400937"><ele>60.25</ele><time>2026-04-28T12:51:43.999Z</time></trkpt><trkpt lat="49.15741132065289" lon="2.5007723018656427"><ele>60.0</ele><time>2026-04-28T12:51:44.999Z</time></trkpt><trkpt lat="49.157501626239" lon="2.5008541334687147"><ele>57.8</ele><time>2026-04-28T12:51:45.999Z</time></trkpt><trkpt lat="49.15758886167625" lon="2.5009354905802534"><ele>55.6</ele><time>2026-04-28T12:51:46.999Z</time></trkpt><trkpt lat="49.15767376969857" lon="2.501022121859955"><ele>53.400000000000006</ele><time>2026-04-28T12:51:47.999Z</time></trkpt><trkpt lat="49.15775549167694" lon="2.501096974806488"><ele>51.2</ele><time>2026-04-28T12:51:48.999Z</time></trkpt><trkpt lat="49.15783383096164" lon="2.5011687053403278"><ele>49.0</ele><time>2026-04-28T12:51:49.999Z</time></trkpt><trkpt lat="49.15790898954259" lon="2.5012372159157494"><ele>48.99999999999999</ele><time>2026-04-28T12:51:50.999Z</time></trkpt><trkpt lat="49.15797494151598" lon="2.501297700829601"><ele>49.0</ele><time>2026-04-28T12:51:51.999Z</time></trkpt><trkpt lat="49.15804045484929" lon="2.501358354531852"><ele>49.0</ele><time>2026-04-28T12:51:52.999Z</time></trkpt><trkpt lat="49.15809939905461" lon="2.501412444677841"><ele>49.0</ele><time>2026-04-28T12:51:53.999Z</time></trkpt><trkpt lat="49.15815781845158" lon="2.5014630223657575"><ele>48.99999999999999</ele><time>2026-04-28T12:51:54.999Z</time></trkpt><trkpt lat="49.15824669185586" lon="2.5015484195271345"><ele>49.0</ele><time>2026-04-28T12:51:56.999Z</time></trkpt><trkpt lat="49.15831885996379" lon="2.501600486834618"><ele>49.49999999999999</ele><time>2026-04-28T12:51:58.999Z</time></trkpt><trkpt lat="49.15834643174211" lon="2.5014601752446843"><ele>50.0</ele><time>2026-04-28T12:52:01.999Z</time></trkpt><trkpt lat="49.15834580242192" lon="2.501339990043781"><ele>50.5</ele><time>2026-04-28T12:52:03.999Z</time></trkpt><trkpt lat="49.15833812688393" lon="2.5012173868843317"><ele>51.0</ele><time>2026-04-28T12:52:05.999Z</time></trkpt><trkpt lat="49.158345418842494" lon="2.501088356304107"><ele>51.49999999999999</ele><time>2026-04-28T12:52:07.999Z</time></trkpt><trkpt lat="49.15834636689245" lon="2.5009516933298794"><ele>52.0</ele><time>2026-04-28T12:52:09.999Z</time></trkpt><trkpt lat="49.15834727612747" lon="2.500805086109721"><ele>52.0</ele><time>2026-04-28T12:52:11.998Z</time></trkpt><trkpt lat="49.15834606463147" lon="2.5006631666934482"><ele>52.0</ele><time>2026-04-28T12:52:13.998Z</time></trkpt><trkpt lat="49.15834344949409" lon="2.500518806958026"><ele>52.0</ele><time>2026-04-28T12:52:15.998Z</time></trkpt><trkpt lat="49.15833846595349" lon="2.5003782785679927"><ele>52.0</ele><time>2026-04-28T12:52:17.998Z</time></trkpt><trkpt lat="49.15833774267488" lon="2.500239933324914"><ele>52.0</ele><time>2026-04-28T12:52:19.998Z</time></trkpt><trkpt lat="49.15834047830863" lon="2.500103568318265"><ele>52.400000000000006</ele><time>2026-04-28T12:52:21.998Z</time></trkpt><trkpt lat="49.15834459468359" lon="2.499987770646172"><ele>52.800000000000004</ele><time>2026-04-28T12:52:23.998Z</time></trkpt><trkpt lat="49.15834179069873" lon="2.499842980552901"><ele>53.2</ele><time>2026-04-28T12:52:25.998Z</time></trkpt><trkpt lat="49.15835321510276" lon="2.499701156027789"><ele>53.6</ele><time>2026-04-28T12:52:27.998Z</time></trkpt><trkpt lat="49.15835341040765" lon="2.4995541165477273"><ele>54.0</ele><time>2026-04-28T12:52:29.998Z</time></trkpt><trkpt lat="49.15835361684837" lon="2.4993986925217504"><ele>54.0</ele><time>2026-04-28T12:52:31.998Z</time></trkpt><trkpt lat="49.158338008755564" lon="2.499234838349777"><ele>54.00000000000001</ele><time>2026-04-28T12:52:33.998Z</time></trkpt><trkpt lat="49.15834575033097" lon="2.4990744009240395"><ele>54.00000000000001</ele><time>2026-04-28T12:52:35.998Z</time></trkpt><trkpt lat="49.15834337608485" lon="2.498908476848595"><ele>54.0</ele><time>2026-04-28T12:52:37.998Z</time></trkpt><trkpt lat="49.158340451993745" lon="2.4987536913582713"><ele>54.0</ele><time>2026-04-28T12:52:39.998Z</time></trkpt><trkpt lat="49.158342760031466" lon="2.49859854274141"><ele>54.0</ele><time>2026-04-28T12:52:41.998Z</time></trkpt><trkpt lat="49.15834804084635" lon="2.4984560721910536"><ele>54.0</ele><time>2026-04-28T12:52:43.997Z</time></trkpt><trkpt lat="49.15835434778209" lon="2.4983162793878475"><ele>54.0</ele><time>2026-04-28T12:52:45.997Z</time></trkpt><trkpt lat="49.158364584660816" lon="2.498182371883645"><ele>54.0</ele><time>2026-04-28T12:52:47.997Z</time></trkpt><trkpt lat="49.158368911063924" lon="2.4980513435947493"><ele>54.0</ele><time>2026-04-28T12:52:49.997Z</time></trkpt><trkpt lat="49.158382602348034" lon="2.4979184728276835"><ele>54.0</ele><time>2026-04-28T12:52:51.997Z</time></trkpt><trkpt lat="49.1583939383915" lon="2.4977855997505922"><ele>54.333333333333336</ele><time>2026-04-28T12:52:53.997Z</time></trkpt><trkpt lat="49.15840914089904" lon="2.4976639008123356"><ele>54.66666666666667</ele><time>2026-04-28T12:52:55.997Z</time></trkpt><trkpt lat="49.158416848963554" lon="2.4975295787385643"><ele>55.0</ele><time>2026-04-28T12:52:57.997Z</time></trkpt><trkpt lat="49.15842359265224" lon="2.4974001526944827"><ele>55.333333333333336</ele><time>2026-04-28T12:52:59.997Z</time></trkpt><trkpt lat="49.158435047164275" lon="2.497283218907162"><ele>55.66666666666667</ele><time>2026-04-28T12:53:02Z</time></trkpt><trkpt lat="49.15844455011577" lon="2.497146173383466"><ele>56.0</ele><time>2026-04-28T12:53:04Z</time></trkpt><trkpt lat="49.1584558200822" lon="2.497022857918596"><ele>56.599999999999994</ele><time>2026-04-28T12:53:06Z</time></trkpt><trkpt lat="49.158482695971315" lon="2.4968870971314483"><ele>57.199999999999996</ele><time>2026-04-28T12:53:08Z</time></trkpt><trkpt lat="49.158486886772586" lon="2.4967572439340358"><ele>57.800000000000004</ele><time>2026-04-28T12:53:10Z</time></trkpt><trkpt lat="49.15849242991249" lon="2.49661780691699"><ele>58.400000000000006</ele><time>2026-04-28T12:53:12Z</time></trkpt><trkpt lat="49.15850273346692" lon="2.4964734568288662"><ele>59.0</ele><time>2026-04-28T12:53:14Z</time></trkpt><trkpt lat="49.15851310521542" lon="2.496326802798656"><ele>58.800000000000004</ele><time>2026-04-28T12:53:16Z</time></trkpt><trkpt lat="49.158539740681995" lon="2.496178500519483"><ele>58.60000000000001</ele><time>2026-04-28T12:53:18Z</time></trkpt><trkpt lat="49.15855221629902" lon="2.4960033199070217"><ele>58.4</ele><time>2026-04-28T12:53:20Z</time></trkpt><trkpt lat="49.158563592252015" lon="2.495826958572524"><ele>58.2</ele><time>2026-04-28T12:53:22Z</time></trkpt><trkpt lat="49.15855739935636" lon="2.4956486638555173"><ele>58.0</ele><time>2026-04-28T12:53:24Z</time></trkpt><trkpt lat="49.15857881508717" lon="2.4955538649743194"><ele>57.4</ele><time>2026-04-28T12:53:25Z</time></trkpt><trkpt lat="49.15858272440226" lon="2.4953792854098604"><ele>56.8</ele><time>2026-04-28T12:53:27Z</time></trkpt><trkpt lat="49.15857942549887" lon="2.4952110142085697"><ele>56.2</ele><time>2026-04-28T12:53:29Z</time></trkpt><trkpt lat="49.158573081109054" lon="2.495061318733993"><ele>55.6</ele><time>2026-04-28T12:53:31Z</time></trkpt><trkpt lat="49.15856318026904" lon="2.4949200928467095"><ele>55.0</ele><time>2026-04-28T12:53:33Z</time></trkpt><trkpt lat="49.15851838876558" lon="2.4947881977315074"><ele>55.0</ele><time>2026-04-28T12:53:35Z</time></trkpt><trkpt lat="49.15853721567983" lon="2.4946207651029253"><ele>55.0</ele><time>2026-04-28T12:53:37Z</time></trkpt><trkpt lat="49.158519612086515" lon="2.494456340394471"><ele>55.0</ele><time>2026-04-28T12:53:39Z</time></trkpt><trkpt lat="49.15850118531873" lon="2.494287635233308"><ele>55.0</ele><time>2026-04-28T12:53:40.999Z</time></trkpt><trkpt lat="49.158483294969535" lon="2.4941238412238933"><ele>55.0</ele><time>2026-04-28T12:53:42.999Z</time></trkpt><trkpt lat="49.158463550696226" lon="2.493943073723268"><ele>55.0</ele><time>2026-04-28T12:53:44.999Z</time></trkpt><trkpt lat="49.15844421719545" lon="2.4937660671307706"><ele>55.0</ele><time>2026-04-28T12:53:46.999Z</time></trkpt><trkpt lat="49.158425340992025" lon="2.493593247338235"><ele>55.0</ele><time>2026-04-28T12:53:48.999Z</time></trkpt><trkpt lat="49.158387044507286" lon="2.493424192825313"><ele>55.0</ele><time>2026-04-28T12:53:50.999Z</time></trkpt><trkpt lat="49.1583698512463" lon="2.4932646905482616"><ele>55.25</ele><time>2026-04-28T12:53:52.999Z</time></trkpt><trkpt lat="49.15836255758715" lon="2.4930988402039578"><ele>55.5</ele><time>2026-04-28T12:53:54.999Z</time></trkpt><trkpt lat="49.15834200439564" lon="2.4929805322480956"><ele>55.75</ele><time>2026-04-28T12:53:56.999Z</time></trkpt><trkpt lat="49.15831668061502" lon="2.4928715429369204"><ele>56.0</ele><time>2026-04-28T12:53:57.999Z</time></trkpt><trkpt lat="49.15828567886526" lon="2.4925799343806903"><ele>56.0</ele><time>2026-04-28T12:54:00.999Z</time></trkpt><trkpt lat="49.15827364658875" lon="2.492409480110636"><ele>55.99999999999999</ele><time>2026-04-28T12:54:02.999Z</time></trkpt><trkpt lat="49.15825759631244" lon="2.492279714494462"><ele>55.99999999999999</ele><time>2026-04-28T12:54:04.999Z</time></trkpt><trkpt lat="49.15825445538291" lon="2.492148674552414"><ele>56.0</ele><time>2026-04-28T12:54:06.999Z</time></trkpt><trkpt lat="49.158243408586905" lon="2.4920169665379492"><ele>56.0</ele><time>2026-04-28T12:54:08.999Z</time></trkpt><trkpt lat="49.15822795387383" lon="2.491890119223997"><ele>56.16666666666667</ele><time>2026-04-28T12:54:10.999Z</time></trkpt><trkpt lat="49.15821310388092" lon="2.491762176987458"><ele>56.333333333333336</ele><time>2026-04-28T12:54:12.998Z</time></trkpt><trkpt lat="49.15820391480405" lon="2.4916402506476527"><ele>56.5</ele><time>2026-04-28T12:54:14.998Z</time></trkpt><trkpt lat="49.15819059261039" lon="2.4915258464966765"><ele>56.66666666666667</ele><time>2026-04-28T12:54:16.998Z</time></trkpt><trkpt lat="49.15818217739036" lon="2.491406234884398"><ele>56.833333333333336</ele><time>2026-04-28T12:54:18.998Z</time></trkpt><trkpt lat="49.15817554927557" lon="2.4912734580173104"><ele>57.0</ele><time>2026-04-28T12:54:20.998Z</time></trkpt><trkpt lat="49.15815980424267" lon="2.4911244740600154"><ele>55.6</ele><time>2026-04-28T12:54:22.998Z</time></trkpt><trkpt lat="49.158146545754754" lon="2.4909670427957535"><ele>54.2</ele><time>2026-04-28T12:54:24.998Z</time></trkpt><trkpt lat="49.158128785170376" lon="2.490805978969816"><ele>52.8</ele><time>2026-04-28T12:54:26.998Z</time></trkpt><trkpt lat="49.15812133627912" lon="2.4906382090436905"><ele>51.4</ele><time>2026-04-28T12:54:28.998Z</time></trkpt><trkpt lat="49.1581062827315" lon="2.490474810712318"><ele>50.0</ele><time>2026-04-28T12:54:30.998Z</time></trkpt><trkpt lat="49.15809067863796" lon="2.4903118988266852"><ele>50.0</ele><time>2026-04-28T12:54:32.998Z</time></trkpt><trkpt lat="49.158076873795025" lon="2.4901520264473294"><ele>50.0</ele><time>2026-04-28T12:54:34.998Z</time></trkpt><trkpt lat="49.1580760148102" lon="2.4899848593057747"><ele>50.0</ele><time>2026-04-28T12:54:36.998Z</time></trkpt><trkpt lat="49.158104836088604" lon="2.489816765956478"><ele>50.0</ele><time>2026-04-28T12:54:38.998Z</time></trkpt><trkpt lat="49.158170909963395" lon="2.4896591576100318"><ele>51.333333333333336</ele><time>2026-04-28T12:54:40.998Z</time></trkpt><trkpt lat="49.15826229116155" lon="2.4895276456183555"><ele>52.66666666666667</ele><time>2026-04-28T12:54:42.998Z</time></trkpt><trkpt lat="49.158309701896805" lon="2.489464161518795"><ele>54.0</ele><time>2026-04-28T12:54:43.998Z</time></trkpt><trkpt lat="49.15835525966418" lon="2.489397283054023"><ele>55.33333333333333</ele><time>2026-04-28T12:54:44.998Z</time></trkpt><trkpt lat="49.15840098613926" lon="2.4893301577988955"><ele>56.666666666666664</ele><time>2026-04-28T12:54:45.997Z</time></trkpt><trkpt lat="49.15849011974369" lon="2.489199488525247"><ele>58.0</ele><time>2026-04-28T12:54:47.997Z</time></trkpt><trkpt lat="49.15857615702242" lon="2.4890676083681935"><ele>58.0</ele><time>2026-04-28T12:54:49.997Z</time></trkpt><trkpt lat="49.158666402504274" lon="2.488939512608977"><ele>58.0</ele><time>2026-04-28T12:54:51.997Z</time></trkpt><trkpt lat="49.158748492612844" lon="2.488802485957164"><ele>58.0</ele><time>2026-04-28T12:54:53.997Z</time></trkpt><trkpt lat="49.15883349906376" lon="2.4886730346679866"><ele>58.0</ele><time>2026-04-28T12:54:55.997Z</time></trkpt><trkpt lat="49.158922383140194" lon="2.488541842816065"><ele>57.25</ele><time>2026-04-28T12:54:57.997Z</time></trkpt><trkpt lat="49.15900832322033" lon="2.4884101500917324"><ele>56.5</ele><time>2026-04-28T12:54:59.997Z</time></trkpt><trkpt lat="49.15909395587567" lon="2.488277884442379"><ele>55.75</ele><time>2026-04-28T12:55:01.997Z</time></trkpt><trkpt lat="49.15918059531926" lon="2.488143698158593"><ele>55.0</ele><time>2026-04-28T12:55:03.997Z</time></trkpt><trkpt lat="49.15926698132608" lon="2.488015990086859"><ele>56.0</ele><time>2026-04-28T12:55:06Z</time></trkpt><trkpt lat="49.159357255357676" lon="2.487904787074108"><ele>57.0</ele><time>2026-04-28T12:55:08Z</time></trkpt><trkpt lat="49.159436464579215" lon="2.487764496265774"><ele>58.0</ele><time>2026-04-28T12:55:10Z</time></trkpt><trkpt lat="49.15950382335513" lon="2.487617614065943"><ele>59.0</ele><time>2026-04-28T12:55:12Z</time></trkpt><trkpt lat="49.159576051423116" lon="2.4874846164281874"><ele>59.0</ele><time>2026-04-28T12:55:14Z</time></trkpt><trkpt lat="49.159651260916476" lon="2.487352488895241"><ele>59.00000000000001</ele><time>2026-04-28T12:55:16Z</time></trkpt><trkpt lat="49.159715688987674" lon="2.4872187805702968"><ele>59.00000000000001</ele><time>2026-04-28T12:55:18Z</time></trkpt><trkpt lat="49.159764815017844" lon="2.487097884695838"><ele>59.0</ele><time>2026-04-28T12:55:20Z</time></trkpt><trkpt lat="49.15980511162996" lon="2.4870114584790106"><ele>59.0</ele><time>2026-04-28T12:55:22Z</time></trkpt><trkpt lat="49.15987267269431" lon="2.4869386259547728"><ele>60.00000000000001</ele><time>2026-04-28T12:55:25Z</time></trkpt><trkpt lat="49.15992710399082" lon="2.486874867709242"><ele>61.0</ele><time>2026-04-28T12:55:27Z</time></trkpt><trkpt lat="49.15998011379024" lon="2.4867980461333117"><ele>62.0</ele><time>2026-04-28T12:55:29Z</time></trkpt><trkpt lat="49.16003176731921" lon="2.486703107911828"><ele>63.0</ele><time>2026-04-28T12:55:31Z</time></trkpt><trkpt lat="49.16008640256787" lon="2.4866030964365713"><ele>64.0</ele><time>2026-04-28T12:55:33Z</time></trkpt><trkpt lat="49.16014810088327" lon="2.486510787459555"><ele>65.0</ele><time>2026-04-28T12:55:35Z</time></trkpt><trkpt lat="49.16020905739544" lon="2.4864039395782034"><ele>65.0</ele><time>2026-04-28T12:55:37Z</time></trkpt><trkpt lat="49.16026588536183" lon="2.4862992618767294"><ele>65.0</ele><time>2026-04-28T12:55:39Z</time></trkpt><trkpt lat="49.16032813774913" lon="2.486200206789969"><ele>65.0</ele><time>2026-04-28T12:55:40.999Z</time></trkpt><trkpt lat="49.160385712265565" lon="2.4860997031029037"><ele>65.0</ele><time>2026-04-28T12:55:42.999Z</time></trkpt><trkpt lat="49.1604439861017" lon="2.486002709977617"><ele>65.0</ele><time>2026-04-28T12:55:44.999Z</time></trkpt><trkpt lat="49.16049914624992" lon="2.485906533434328"><ele>65.0</ele><time>2026-04-28T12:55:46.999Z</time></trkpt><trkpt lat="49.16055382089252" lon="2.4858051656217297"><ele>65.33333333333334</ele><time>2026-04-28T12:55:48.999Z</time></trkpt><trkpt lat="49.16061161957014" lon="2.4857139226306177"><ele>65.66666666666667</ele><time>2026-04-28T12:55:50.999Z</time></trkpt><trkpt lat="49.160666131141674" lon="2.4856158927368246"><ele>66.0</ele><time>2026-04-28T12:55:52.999Z</time></trkpt><trkpt lat="49.16072587902744" lon="2.4855238763162726"><ele>66.33333333333333</ele><time>2026-04-28T12:55:54.999Z</time></trkpt><trkpt lat="49.16077971207349" lon="2.485423540349012"><ele>66.66666666666666</ele><time>2026-04-28T12:55:56.999Z</time></trkpt><trkpt lat="49.16083549084092" lon="2.4853303587350544"><ele>67.0</ele><time>2026-04-28T12:55:58.999Z</time></trkpt><trkpt lat="49.16088998701468" lon="2.4852328962778842"><ele>67.33333333333333</ele><time>2026-04-28T12:56:00.999Z</time></trkpt><trkpt lat="49.16094414162684" lon="2.485135147870032"><ele>67.66666666666666</ele><time>2026-04-28T12:56:02.999Z</time></trkpt><trkpt lat="49.161000420739455" lon="2.485030957268393"><ele>68.0</ele><time>2026-04-28T12:56:04.999Z</time></trkpt><trkpt lat="49.1610623655943" lon="2.484926820996197"><ele>68.33333333333333</ele><time>2026-04-28T12:56:06.999Z</time></trkpt><trkpt lat="49.16112499295522" lon="2.4848207865808916"><ele>68.66666666666667</ele><time>2026-04-28T12:56:08.999Z</time></trkpt><trkpt lat="49.16118651737768" lon="2.484717730582572"><ele>69.0</ele><time>2026-04-28T12:56:10.999Z</time></trkpt><trkpt lat="49.16124666744593" lon="2.4846117793122664"><ele>69.4</ele><time>2026-04-28T12:56:12.999Z</time></trkpt><trkpt lat="49.161304584924764" lon="2.4845058049667617"><ele>69.80000000000001</ele><time>2026-04-28T12:56:14.998Z</time></trkpt><trkpt lat="49.1613503978197" lon="2.4843871140791207"><ele>70.19999999999999</ele><time>2026-04-28T12:56:16.998Z</time></trkpt><trkpt lat="49.16141062957354" lon="2.4842842049808733"><ele>70.6</ele><time>2026-04-28T12:56:18.998Z</time></trkpt><trkpt lat="49.16147218217285" lon="2.4841757160766926"><ele>71.0</ele><time>2026-04-28T12:56:20.998Z</time></trkpt><trkpt lat="49.16152836247196" lon="2.484066675650285"><ele>71.2</ele><time>2026-04-28T12:56:22.998Z</time></trkpt><trkpt lat="49.16158996082013" lon="2.483953388046109"><ele>71.39999999999999</ele><time>2026-04-28T12:56:24.998Z</time></trkpt><trkpt lat="49.161656354637984" lon="2.4838426830607214"><ele>71.6</ele><time>2026-04-28T12:56:26.998Z</time></trkpt><trkpt lat="49.1617213569488" lon="2.4837326959655033"><ele>71.8</ele><time>2026-04-28T12:56:28.998Z</time></trkpt><trkpt lat="49.16178374454982" lon="2.4836239660324706"><ele>72.0</ele><time>2026-04-28T12:56:30.998Z</time></trkpt><trkpt lat="49.16185055599913" lon="2.4835112449369823"><ele>72.0</ele><time>2026-04-28T12:56:32.998Z</time></trkpt><trkpt lat="49.16191847654268" lon="2.4833938883179374"><ele>72.0</ele><time>2026-04-28T12:56:34.998Z</time></trkpt><trkpt lat="49.16198335720292" lon="2.483274179430856"><ele>72.0</ele><time>2026-04-28T12:56:36.998Z</time></trkpt><trkpt lat="49.162049956324225" lon="2.4831640283856307"><ele>72.0</ele><time>2026-04-28T12:56:38.998Z</time></trkpt><trkpt lat="49.162117439106595" lon="2.483049869317072"><ele>72.0</ele><time>2026-04-28T12:56:40.998Z</time></trkpt><trkpt lat="49.16218688217842" lon="2.482932444515765"><ele>72.0</ele><time>2026-04-28T12:56:42.998Z</time></trkpt><trkpt lat="49.162259413170254" lon="2.4828271411959584"><ele>72.0</ele><time>2026-04-28T12:56:44.998Z</time></trkpt><trkpt lat="49.162323448071845" lon="2.4827091013629827"><ele>72.0</ele><time>2026-04-28T12:56:46.997Z</time></trkpt><trkpt lat="49.16239480963907" lon="2.4826026883492913"><ele>72.0</ele><time>2026-04-28T12:56:48.997Z</time></trkpt><trkpt lat="49.162462488768455" lon="2.4824962536339825"><ele>72.0</ele><time>2026-04-28T12:56:50.997Z</time></trkpt><trkpt lat="49.16252835649625" lon="2.4823809500402056"><ele>72.2</ele><time>2026-04-28T12:56:52.997Z</time></trkpt><trkpt lat="49.1625973132952" lon="2.482268242956813"><ele>72.4</ele><time>2026-04-28T12:56:54.997Z</time></trkpt><trkpt lat="49.16266564005809" lon="2.4821533515821645"><ele>72.6</ele><time>2026-04-28T12:56:56.997Z</time></trkpt><trkpt lat="49.16272942034822" lon="2.482037956827559"><ele>72.8</ele><time>2026-04-28T12:56:58.997Z</time></trkpt><trkpt lat="49.16279607898574" lon="2.4819233307402238"><ele>73.0</ele><time>2026-04-28T12:57:00.997Z</time></trkpt><trkpt lat="49.16286285146864" lon="2.481807276617363"><ele>73.0</ele><time>2026-04-28T12:57:02.997Z</time></trkpt><trkpt lat="49.162931688825466" lon="2.4816926598769693"><ele>73.0</ele><time>2026-04-28T12:57:04.997Z</time></trkpt><trkpt lat="49.162996097525316" lon="2.481581287694008"><ele>73.0</ele><time>2026-04-28T12:57:06.997Z</time></trkpt><trkpt lat="49.163051582106704" lon="2.4814622326188758"><ele>73.0</ele><time>2026-04-28T12:57:08.997Z</time></trkpt><trkpt lat="49.16311332667685" lon="2.4813481434214992"><ele>73.0</ele><time>2026-04-28T12:57:11Z</time></trkpt><trkpt lat="49.1631778307422" lon="2.4812374921529288"><ele>72.6</ele><time>2026-04-28T12:57:13Z</time></trkpt><trkpt lat="49.163242164423764" lon="2.481125989729365"><ele>72.19999999999999</ele><time>2026-04-28T12:57:15Z</time></trkpt><trkpt lat="49.16330684470006" lon="2.4810196122142045"><ele>71.8</ele><time>2026-04-28T12:57:17Z</time></trkpt><trkpt lat="49.163366645308194" lon="2.480900945803005"><ele>71.39999999999999</ele><time>2026-04-28T12:57:19Z</time></trkpt><trkpt lat="49.16343333813527" lon="2.4807900011193667"><ele>71.0</ele><time>2026-04-28T12:57:21Z</time></trkpt><trkpt lat="49.16349691443599" lon="2.480679652475989"><ele>71.0</ele><time>2026-04-28T12:57:23Z</time></trkpt><trkpt lat="49.16356518475142" lon="2.4805688157338794"><ele>71.0</ele><time>2026-04-28T12:57:25Z</time></trkpt><trkpt lat="49.163632980796464" lon="2.4804535017235256"><ele>71.0</ele><time>2026-04-28T12:57:27Z</time></trkpt><trkpt lat="49.163700588925515" lon="2.480342261010031"><ele>71.0</ele><time>2026-04-28T12:57:29Z</time></trkpt><trkpt lat="49.163768551151826" lon="2.4802365600431857"><ele>71.0</ele><time>2026-04-28T12:57:31Z</time></trkpt><trkpt lat="49.16383461580063" lon="2.480130376690355"><ele>71.2</ele><time>2026-04-28T12:57:33Z</time></trkpt><trkpt lat="49.16389987181579" lon="2.4800186197500094"><ele>71.39999999999999</ele><time>2026-04-28T12:57:35Z</time></trkpt><trkpt lat="49.16396590970225" lon="2.47990687562163"><ele>71.6</ele><time>2026-04-28T12:57:37Z</time></trkpt><trkpt lat="49.16403098333234" lon="2.4797941213724384"><ele>71.8</ele><time>2026-04-28T12:57:39Z</time></trkpt><trkpt lat="49.16409580443719" lon="2.479679757608639"><ele>72.0</ele><time>2026-04-28T12:57:41Z</time></trkpt><trkpt lat="49.16416277329152" lon="2.4795663545992563"><ele>71.4</ele><time>2026-04-28T12:57:43Z</time></trkpt><trkpt lat="49.164228291154686" lon="2.4794533561083067"><ele>70.80000000000001</ele><time>2026-04-28T12:57:45Z</time></trkpt><trkpt lat="49.16428949939909" lon="2.479338519917703"><ele>70.2</ele><time>2026-04-28T12:57:47Z</time></trkpt><trkpt lat="49.16435361396663" lon="2.4792279063199403"><ele>69.60000000000001</ele><time>2026-04-28T12:57:48.999Z</time></trkpt><trkpt lat="49.16441674307895" lon="2.479116893355803"><ele>69.0</ele><time>2026-04-28T12:57:50.999Z</time></trkpt><trkpt lat="49.16448230297008" lon="2.4790029686068262"><ele>69.0</ele><time>2026-04-28T12:57:52.999Z</time></trkpt><trkpt lat="49.16455237870514" lon="2.478888646796659"><ele>69.0</ele><time>2026-04-28T12:57:54.999Z</time></trkpt><trkpt lat="49.16461980181102" lon="2.478768200011499"><ele>69.0</ele><time>2026-04-28T12:57:56.999Z</time></trkpt><trkpt lat="49.16468403383854" lon="2.478647595360941"><ele>69.0</ele><time>2026-04-28T12:57:58.999Z</time></trkpt><trkpt lat="49.164750350338444" lon="2.478530140843736"><ele>69.0</ele><time>2026-04-28T12:58:00.999Z</time></trkpt><trkpt lat="49.16481823300182" lon="2.4784211271516874"><ele>69.60000000000001</ele><time>2026-04-28T12:58:02.999Z</time></trkpt><trkpt lat="49.16488791532815" lon="2.478309366052351"><ele>70.2</ele><time>2026-04-28T12:58:04.999Z</time></trkpt><trkpt lat="49.16495672093087" lon="2.478195858939439"><ele>70.80000000000001</ele><time>2026-04-28T12:58:06.999Z</time></trkpt><trkpt lat="49.165023563519" lon="2.4780795522619825"><ele>71.4</ele><time>2026-04-28T12:58:08.999Z</time></trkpt><trkpt lat="49.16509156581793" lon="2.477959642116911"><ele>72.0</ele><time>2026-04-28T12:58:10.999Z</time></trkpt><trkpt lat="49.16515972324591" lon="2.4778429562376316"><ele>72.0</ele><time>2026-04-28T12:58:12.999Z</time></trkpt><trkpt lat="49.16522721975337" lon="2.477725175488814"><ele>72.0</ele><time>2026-04-28T12:58:14.999Z</time></trkpt><trkpt lat="49.165295007484666" lon="2.4776083648098317"><ele>72.0</ele><time>2026-04-28T12:58:16.999Z</time></trkpt><trkpt lat="49.16536375411063" lon="2.477489491147118"><ele>72.0</ele><time>2026-04-28T12:58:18.999Z</time></trkpt><trkpt lat="49.165433045524026" lon="2.4773721660736276"><ele>72.0</ele><time>2026-04-28T12:58:20.999Z</time></trkpt><trkpt lat="49.165501020287486" lon="2.4772553979244787"><ele>72.0</ele><time>2026-04-28T12:58:22.998Z</time></trkpt><trkpt lat="49.16556636100866" lon="2.4771294468277145"><ele>72.0</ele><time>2026-04-28T12:58:24.998Z</time></trkpt><trkpt lat="49.16563595249089" lon="2.477002178119136"><ele>72.0</ele><time>2026-04-28T12:58:26.998Z</time></trkpt><trkpt lat="49.16570927396505" lon="2.4768785534823454"><ele>72.0</ele><time>2026-04-28T12:58:28.998Z</time></trkpt><trkpt lat="49.16578186311891" lon="2.4767466462891785"><ele>72.0</ele><time>2026-04-28T12:58:30.998Z</time></trkpt><trkpt lat="49.165851989005695" lon="2.476614664137875"><ele>71.8</ele><time>2026-04-28T12:58:32.998Z</time></trkpt><trkpt lat="49.16591570979815" lon="2.4764854721658534"><ele>71.6</ele><time>2026-04-28T12:58:34.998Z</time></trkpt><trkpt lat="49.16599292823718" lon="2.4763644547108234"><ele>71.39999999999999</ele><time>2026-04-28T12:58:36.998Z</time></trkpt><trkpt lat="49.16606972059588" lon="2.476242620471499"><ele>71.2</ele><time>2026-04-28T12:58:38.998Z</time></trkpt><trkpt lat="49.166143394592396" lon="2.4761157765054023"><ele>71.0</ele><time>2026-04-28T12:58:40.998Z</time></trkpt><trkpt lat="49.16621945654378" lon="2.475993515734384"><ele>71.0</ele><time>2026-04-28T12:58:42.998Z</time></trkpt><trkpt lat="49.16629124355366" lon="2.4758640133720147"><ele>71.0</ele><time>2026-04-28T12:58:44.998Z</time></trkpt><trkpt lat="49.1663651292928" lon="2.4757380729064034"><ele>71.0</ele><time>2026-04-28T12:58:46.998Z</time></trkpt><trkpt lat="49.16643616280692" lon="2.4756171755845195"><ele>71.0</ele><time>2026-04-28T12:58:48.998Z</time></trkpt><trkpt lat="49.16651012818837" lon="2.475498204994542"><ele>71.0</ele><time>2026-04-28T12:58:50.998Z</time></trkpt><trkpt lat="49.166586244244726" lon="2.4753724849742875"><ele>70.25</ele><time>2026-04-28T12:58:52.998Z</time></trkpt><trkpt lat="49.16666002218268" lon="2.475236890824578"><ele>69.5</ele><time>2026-04-28T12:58:54.997Z</time></trkpt><trkpt lat="49.1667344644181" lon="2.4751018442991244"><ele>68.75</ele><time>2026-04-28T12:58:56.997Z</time></trkpt><trkpt lat="49.166809707269316" lon="2.474967964718318"><ele>68.0</ele><time>2026-04-28T12:58:58.997Z</time></trkpt><trkpt lat="49.16689260457205" lon="2.4748363993704494"><ele>68.0</ele><time>2026-04-28T12:59:00.997Z</time></trkpt><trkpt lat="49.16697067047817" lon="2.4747023580429808"><ele>68.0</ele><time>2026-04-28T12:59:02.997Z</time></trkpt><trkpt lat="49.1670473376276" lon="2.4745657763156816"><ele>68.0</ele><time>2026-04-28T12:59:04.997Z</time></trkpt><trkpt lat="49.16712018818569" lon="2.4744308784208293"><ele>68.0</ele><time>2026-04-28T12:59:06.997Z</time></trkpt><trkpt lat="49.167195935881914" lon="2.4742999615505634"><ele>68.5</ele><time>2026-04-28T12:59:08.997Z</time></trkpt><trkpt lat="49.16726539451466" lon="2.474174673787309"><ele>69.0</ele><time>2026-04-28T12:59:10.997Z</time></trkpt><trkpt lat="49.16732834184523" lon="2.474034475151553"><ele>69.5</ele><time>2026-04-28T12:59:12.997Z</time></trkpt><trkpt lat="49.167413449459275" lon="2.473912619161433"><ele>70.0</ele><time>2026-04-28T12:59:14.997Z</time></trkpt><trkpt lat="49.16749117007441" lon="2.4737796331630877"><ele>71.0</ele><time>2026-04-28T12:59:17Z</time></trkpt><trkpt lat="49.16756735845627" lon="2.47365278782657"><ele>72.0</ele><time>2026-04-28T12:59:19Z</time></trkpt><trkpt lat="49.16764303702061" lon="2.4735419483687955"><ele>73.0</ele><time>2026-04-28T12:59:21Z</time></trkpt><trkpt lat="49.167720925988746" lon="2.473424062179561"><ele>74.0</ele><time>2026-04-28T12:59:23Z</time></trkpt><trkpt lat="49.16778400040944" lon="2.4732869888605085"><ele>75.0</ele><time>2026-04-28T12:59:25Z</time></trkpt><trkpt lat="49.16785595764779" lon="2.4731714432304663"><ele>75.0</ele><time>2026-04-28T12:59:27Z</time></trkpt><trkpt lat="49.16791970762474" lon="2.473057319143545"><ele>75.0</ele><time>2026-04-28T12:59:29Z</time></trkpt><trkpt lat="49.16798031270382" lon="2.4729522630647933"><ele>75.0</ele><time>2026-04-28T12:59:31Z</time></trkpt><trkpt lat="49.168039433791364" lon="2.4728702665183926"><ele>75.0</ele><time>2026-04-28T12:59:33Z</time></trkpt><trkpt lat="49.16808746207249" lon="2.4728008416652294"><ele>75.0</ele><time>2026-04-28T12:59:35Z</time></trkpt><trkpt lat="49.16812059567566" lon="2.472704558724503"><ele>75.0</ele><time>2026-04-28T12:59:37Z</time></trkpt><trkpt lat="49.16818498779347" lon="2.4726205237607948"><ele>75.0</ele><time>2026-04-28T12:59:40Z</time></trkpt><trkpt lat="49.168276092145284" lon="2.472557602211806"><ele>75.0</ele><time>2026-04-28T12:59:43Z</time></trkpt><trkpt lat="49.16831859806926" lon="2.472481836367305"><ele>75.0</ele><time>2026-04-28T12:59:45Z</time></trkpt><trkpt lat="49.16836299038616" lon="2.472402708061242"><ele>75.0</ele><time>2026-04-28T12:59:47Z</time></trkpt><trkpt lat="49.16842226979915" lon="2.4722994302528436"><ele>75.0</ele><time>2026-04-28T12:59:50Z</time></trkpt><trkpt lat="49.168501611730306" lon="2.472198898377267"><ele>75.0</ele><time>2026-04-28T12:59:53Z</time></trkpt><trkpt lat="49.168567005877335" lon="2.472148247860971"><ele>74.99999999999999</ele><time>2026-04-28T12:59:55Z</time></trkpt><trkpt lat="49.16863520427215" lon="2.472112209870195"><ele>75.0</ele><time>2026-04-28T12:59:57Z</time></trkpt><trkpt lat="49.16869260788233" lon="2.4720720748690224"><ele>75.0</ele><time>2026-04-28T12:59:59Z</time></trkpt><trkpt lat="49.16874821751783" lon="2.472019919722969"><ele>75.0</ele><time>2026-04-28T13:00:01.999Z</time></trkpt><trkpt lat="49.168806820338325" lon="2.4719630014659026"><ele>75.0</ele><time>2026-04-28T13:00:05.999Z</time></trkpt><trkpt lat="49.16887265326724" lon="2.47191593591566"><ele>74.99999999999999</ele><time>2026-04-28T13:00:10.999Z</time></trkpt><trkpt lat="49.16894246694251" lon="2.4718872176617785"><ele>75.0</ele><time>2026-04-28T13:00:14.999Z</time></trkpt><trkpt lat="49.169015976115986" lon="2.471854556596376"><ele>74.66666666666667</ele><time>2026-04-28T13:00:18.999Z</time></trkpt><trkpt lat="49.16910230863327" lon="2.471864543701443"><ele>74.33333333333333</ele><time>2026-04-28T13:00:21.999Z</time></trkpt><trkpt lat="49.16918925123738" lon="2.4718531924695015"><ele>74.0</ele><time>2026-04-28T13:00:24.999Z</time></trkpt><trkpt lat="49.16925324816375" lon="2.4718487700244474"><ele>73.66666666666666</ele><time>2026-04-28T13:00:26.999Z</time></trkpt><trkpt lat="49.16932881240892" lon="2.471856884454714"><ele>73.33333333333333</ele><time>2026-04-28T13:00:29.999Z</time></trkpt><trkpt lat="49.1694024281835" lon="2.4718158452876624"><ele>73.0</ele><time>2026-04-28T13:00:31.999Z</time></trkpt><trkpt lat="49.16946758938624" lon="2.471804892618187"><ele>73.0</ele><time>2026-04-28T13:00:33.998Z</time></trkpt><trkpt lat="49.169540258688336" lon="2.4717937614087897"><ele>73.0</ele><time>2026-04-28T13:00:35.998Z</time></trkpt><trkpt lat="49.16961504992753" lon="2.471785632715501"><ele>73.0</ele><time>2026-04-28T13:00:37.998Z</time></trkpt><trkpt lat="49.16969829478537" lon="2.471767094490367"><ele>73.0</ele><time>2026-04-28T13:00:39.998Z</time></trkpt><trkpt lat="49.16978648583527" lon="2.471753244345595"><ele>73.0</ele><time>2026-04-28T13:00:41.998Z</time></trkpt><trkpt lat="49.16987991711076" lon="2.4717472609296802"><ele>73.0</ele><time>2026-04-28T13:00:43.998Z</time></trkpt><trkpt lat="49.16997532825522" lon="2.4717379503637513"><ele>72.8</ele><time>2026-04-28T13:00:45.998Z</time></trkpt><trkpt lat="49.17007431476593" lon="2.47171522532033"><ele>72.6</ele><time>2026-04-28T13:00:47.998Z</time></trkpt><trkpt lat="49.170180518243136" lon="2.471720497801023"><ele>72.4</ele><time>2026-04-28T13:00:49.998Z</time></trkpt><trkpt lat="49.170290120935" lon="2.471687222837088"><ele>72.2</ele><time>2026-04-28T13:00:51.998Z</time></trkpt><trkpt lat="49.170403621658394" lon="2.471681116934678"><ele>72.0</ele><time>2026-04-28T13:00:53.998Z</time></trkpt><trkpt lat="49.170526039282834" lon="2.4716577154070514"><ele>72.0</ele><time>2026-04-28T13:00:55.998Z</time></trkpt><trkpt lat="49.17064244667245" lon="2.4716474338920857"><ele>72.0</ele><time>2026-04-28T13:00:57.998Z</time></trkpt><trkpt lat="49.170755948129575" lon="2.4716326866272134"><ele>72.0</ele><time>2026-04-28T13:00:59.998Z</time></trkpt><trkpt lat="49.170868212011165" lon="2.4716153893110997"><ele>72.0</ele><time>2026-04-28T13:01:01.998Z</time></trkpt><trkpt lat="49.17097359201427" lon="2.4715957267459574"><ele>72.0</ele><time>2026-04-28T13:01:03.998Z</time></trkpt><trkpt lat="49.17107733594166" lon="2.4715848761504473"><ele>71.6</ele><time>2026-04-28T13:01:05.998Z</time></trkpt><trkpt lat="49.17118284881968" lon="2.4715718360249435"><ele>71.2</ele><time>2026-04-28T13:01:07.997Z</time></trkpt><trkpt lat="49.17128610434697" lon="2.471557563047137"><ele>70.8</ele><time>2026-04-28T13:01:09.997Z</time></trkpt><trkpt lat="49.17138828416316" lon="2.4715417087418254"><ele>70.4</ele><time>2026-04-28T13:01:11.997Z</time></trkpt><trkpt lat="49.17148563377522" lon="2.4715240936171736"><ele>70.0</ele><time>2026-04-28T13:01:13.997Z</time></trkpt><trkpt lat="49.17158281103769" lon="2.4715014494466665"><ele>70.0</ele><time>2026-04-28T13:01:15.997Z</time></trkpt><trkpt lat="49.17167737230621" lon="2.47150670193847"><ele>70.0</ele><time>2026-04-28T13:01:17.997Z</time></trkpt><trkpt lat="49.1717721142501" lon="2.4714783602813934"><ele>70.0</ele><time>2026-04-28T13:01:19.997Z</time></trkpt><trkpt lat="49.17186992557305" lon="2.47146666017085"><ele>70.0</ele><time>2026-04-28T13:01:22Z</time></trkpt><trkpt lat="49.171968846167736" lon="2.471459019117042"><ele>70.0</ele><time>2026-04-28T13:01:24Z</time></trkpt><trkpt lat="49.17206394458434" lon="2.471440193820242"><ele>70.0</ele><time>2026-04-28T13:01:26.001Z</time></trkpt><trkpt lat="49.1721600058828" lon="2.4714295474084493"><ele>70.0</ele><time>2026-04-28T13:01:28Z</time></trkpt><trkpt lat="49.17224688634798" lon="2.4714093016440626"><ele>70.0</ele><time>2026-04-28T13:01:30Z</time></trkpt><trkpt lat="49.17233450353788" lon="2.4713851509868454"><ele>70.0</ele><time>2026-04-28T13:01:32Z</time></trkpt><trkpt lat="49.17242131223634" lon="2.47139257902254"><ele>70.0</ele><time>2026-04-28T13:01:34Z</time></trkpt><trkpt lat="49.17250810719715" lon="2.47137918650234"><ele>70.0</ele><time>2026-04-28T13:01:36Z</time></trkpt><trkpt lat="49.172596970921965" lon="2.4713642446096658"><ele>70.33333333333333</ele><time>2026-04-28T13:01:38Z</time></trkpt><trkpt lat="49.17268033478342" lon="2.471358911424525"><ele>70.66666666666666</ele><time>2026-04-28T13:01:40Z</time></trkpt><trkpt lat="49.17277279217414" lon="2.4713403590933902"><ele>71.0</ele><time>2026-04-28T13:01:42Z</time></trkpt><trkpt lat="49.17284691774813" lon="2.471333372872303"><ele>71.33333333333333</ele><time>2026-04-28T13:01:44Z</time></trkpt><trkpt lat="49.17293532089299" lon="2.4713235867090155"><ele>71.66666666666667</ele><time>2026-04-28T13:01:46Z</time></trkpt><trkpt lat="49.1730271675298" lon="2.4713204076969166"><ele>72.0</ele><time>2026-04-28T13:01:48Z</time></trkpt><trkpt lat="49.17311992965344" lon="2.471315844196197"><ele>71.8</ele><time>2026-04-28T13:01:50Z</time></trkpt><trkpt lat="49.17321472479593" lon="2.471302829249635"><ele>71.6</ele><time>2026-04-28T13:01:52Z</time></trkpt><trkpt lat="49.17331115455831" lon="2.471289242401661"><ele>71.39999999999999</ele><time>2026-04-28T13:01:54Z</time></trkpt><trkpt lat="49.17340388267363" lon="2.471276515432856"><ele>71.2</ele><time>2026-04-28T13:01:56Z</time></trkpt><trkpt lat="49.173492916838754" lon="2.47124299815829"><ele>71.0</ele><time>2026-04-28T13:01:58Z</time></trkpt><trkpt lat="49.173583796675835" lon="2.471236722643182"><ele>71.0</ele><time>2026-04-28T13:02:00Z</time></trkpt><trkpt lat="49.17366949160583" lon="2.47121957909486"><ele>71.0</ele><time>2026-04-28T13:02:02Z</time></trkpt><trkpt lat="49.1737529759343" lon="2.471228680266201"><ele>71.0</ele><time>2026-04-28T13:02:04Z</time></trkpt><trkpt lat="49.17384957974819" lon="2.471195971498327"><ele>71.0</ele><time>2026-04-28T13:02:05.999Z</time></trkpt><trkpt lat="49.17394048247611" lon="2.4711840095953566"><ele>71.0</ele><time>2026-04-28T13:02:07.999Z</time></trkpt><trkpt lat="49.17403210777603" lon="2.471167057330554"><ele>70.8</ele><time>2026-04-28T13:02:09.999Z</time></trkpt><trkpt lat="49.17412951256759" lon="2.4711784055458534"><ele>70.6</ele><time>2026-04-28T13:02:11.999Z</time></trkpt><trkpt lat="49.17421771016351" lon="2.4711437273223478"><ele>70.4</ele><time>2026-04-28T13:02:13.999Z</time></trkpt><trkpt lat="49.174312007970215" lon="2.471146830564247"><ele>70.2</ele><time>2026-04-28T13:02:15.999Z</time></trkpt><trkpt lat="49.174402875235465" lon="2.4711245100712103"><ele>70.0</ele><time>2026-04-28T13:02:17.999Z</time></trkpt><trkpt lat="49.1745044064903" lon="2.471112357155716"><ele>70.0</ele><time>2026-04-28T13:02:19.999Z</time></trkpt><trkpt lat="49.174604421889846" lon="2.471105206094061"><ele>70.0</ele><time>2026-04-28T13:02:21.999Z</time></trkpt><trkpt lat="49.17470285347859" lon="2.471095415188537"><ele>70.0</ele><time>2026-04-28T13:02:23.999Z</time></trkpt><trkpt lat="49.17480071331435" lon="2.4710778410267524"><ele>70.0</ele><time>2026-04-28T13:02:25.999Z</time></trkpt><trkpt lat="49.1748998914665" lon="2.4710626178311665"><ele>70.0</ele><time>2026-04-28T13:02:27.999Z</time></trkpt><trkpt lat="49.174998228577174" lon="2.471053270365396"><ele>69.6</ele><time>2026-04-28T13:02:29.999Z</time></trkpt><trkpt lat="49.17509908619454" lon="2.4710312103760184"><ele>69.2</ele><time>2026-04-28T13:02:31.999Z</time></trkpt><trkpt lat="49.175203042126476" lon="2.471014718025638"><ele>68.8</ele><time>2026-04-28T13:02:33.999Z</time></trkpt><trkpt lat="49.175309075438165" lon="2.4710027000867067"><ele>68.4</ele><time>2026-04-28T13:02:35.999Z</time></trkpt><trkpt lat="49.17541476501406" lon="2.4709872178731396"><ele>68.0</ele><time>2026-04-28T13:02:37.998Z</time></trkpt><trkpt lat="49.17552677189204" lon="2.4709739071188577"><ele>68.0</ele><time>2026-04-28T13:02:39.998Z</time></trkpt><trkpt lat="49.17563667611408" lon="2.4709748409449044"><ele>68.0</ele><time>2026-04-28T13:02:41.998Z</time></trkpt><trkpt lat="49.175735756043345" lon="2.47094855540358"><ele>68.0</ele><time>2026-04-28T13:02:43.998Z</time></trkpt><trkpt lat="49.17580350662743" lon="2.4709357639121317"><ele>68.0</ele><time>2026-04-28T13:02:44.998Z</time></trkpt><trkpt lat="49.17591061286793" lon="2.470936027141821"><ele>68.0</ele><time>2026-04-28T13:02:46.998Z</time></trkpt><trkpt lat="49.17601971225329" lon="2.4708992221511203"><ele>68.0</ele><time>2026-04-28T13:02:48.998Z</time></trkpt><trkpt lat="49.17612723376881" lon="2.4708901363581917"><ele>68.0</ele><time>2026-04-28T13:02:50.998Z</time></trkpt><trkpt lat="49.17619203495145" lon="2.4708769364169556"><ele>68.0</ele><time>2026-04-28T13:02:51.998Z</time></trkpt><trkpt lat="49.17630571768662" lon="2.4708642257329925"><ele>68.0</ele><time>2026-04-28T13:02:53.998Z</time></trkpt><trkpt lat="49.176422193069875" lon="2.4708469906150374"><ele>68.0</ele><time>2026-04-28T13:02:55.998Z</time></trkpt><trkpt lat="49.176541818048484" lon="2.470832476127545"><ele>68.0</ele><time>2026-04-28T13:02:57.998Z</time></trkpt><trkpt lat="49.17665882740427" lon="2.4708143124242374"><ele>68.0</ele><time>2026-04-28T13:02:59.998Z</time></trkpt><trkpt lat="49.17678052740214" lon="2.4707959399572617"><ele>68.0</ele><time>2026-04-28T13:03:01.998Z</time></trkpt><trkpt lat="49.17690818253919" lon="2.4707795374826733"><ele>68.0</ele><time>2026-04-28T13:03:03.998Z</time></trkpt><trkpt lat="49.17703004650087" lon="2.470764783622652"><ele>68.0</ele><time>2026-04-28T13:03:05.998Z</time></trkpt><trkpt lat="49.177152394944805" lon="2.470747377230232"><ele>68.0</ele><time>2026-04-28T13:03:07.998Z</time></trkpt><trkpt lat="49.17721549763224" lon="2.470740849102847"><ele>68.0</ele><time>2026-04-28T13:03:08.998Z</time></trkpt><trkpt lat="49.177339307583004" lon="2.4707289224563844"><ele>68.0</ele><time>2026-04-28T13:03:10.998Z</time></trkpt><trkpt lat="49.1774591015955" lon="2.4706973694618024"><ele>68.0</ele><time>2026-04-28T13:03:12.997Z</time></trkpt><trkpt lat="49.17752222272446" lon="2.470694748238273"><ele>68.33333333333334</ele><time>2026-04-28T13:03:13.997Z</time></trkpt><trkpt lat="49.17758479929627" lon="2.4706838130267994"><ele>68.66666666666667</ele><time>2026-04-28T13:03:14.997Z</time></trkpt><trkpt lat="49.177703325317175" lon="2.47066307203481"><ele>69.0</ele><time>2026-04-28T13:03:16.997Z</time></trkpt><trkpt lat="49.17781961591108" lon="2.4706553954787056"><ele>69.33333333333333</ele><time>2026-04-28T13:03:18.997Z</time></trkpt><trkpt lat="49.17788540808326" lon="2.470643866314023"><ele>69.66666666666666</ele><time>2026-04-28T13:03:19.997Z</time></trkpt><trkpt lat="49.17795054893495" lon="2.4706303953678015"><ele>70.0</ele><time>2026-04-28T13:03:20.997Z</time></trkpt><trkpt lat="49.178073921763904" lon="2.4706112847703965"><ele>70.0</ele><time>2026-04-28T13:03:22.997Z</time></trkpt><trkpt lat="49.17814160862596" lon="2.4705968885745015"><ele>70.0</ele><time>2026-04-28T13:03:23.997Z</time></trkpt><trkpt lat="49.17826845623618" lon="2.4705844070842606"><ele>70.0</ele><time>2026-04-28T13:03:25.997Z</time></trkpt><trkpt lat="49.178332309917636" lon="2.4705722901554443"><ele>70.0</ele><time>2026-04-28T13:03:27Z</time></trkpt><trkpt lat="49.17839798531001" lon="2.4705574909954495"><ele>70.0</ele><time>2026-04-28T13:03:28Z</time></trkpt><trkpt lat="49.178461767560805" lon="2.4705650037596216"><ele>70.0</ele><time>2026-04-28T13:03:29Z</time></trkpt><trkpt lat="49.178529971092985" lon="2.470559077594979"><ele>70.0</ele><time>2026-04-28T13:03:30Z</time></trkpt><trkpt lat="49.178593239108366" lon="2.4705476553470236"><ele>70.0</ele><time>2026-04-28T13:03:31.001Z</time></trkpt><trkpt lat="49.17865680699525" lon="2.470546763900539"><ele>70.0</ele><time>2026-04-28T13:03:32Z</time></trkpt><trkpt lat="49.17872197869207" lon="2.470536443910533"><ele>70.0</ele><time>2026-04-28T13:03:33Z</time></trkpt><trkpt lat="49.17884940538015" lon="2.4705118850758843"><ele>70.0</ele><time>2026-04-28T13:03:35Z</time></trkpt><trkpt lat="49.17891826976753" lon="2.470508888090102"><ele>70.0</ele><time>2026-04-28T13:03:36Z</time></trkpt><trkpt lat="49.17898537783175" lon="2.4704935086435564"><ele>69.71428571428571</ele><time>2026-04-28T13:03:37.001Z</time></trkpt><trkpt lat="49.17905333470628" lon="2.4704872707284506"><ele>69.42857142857143</ele><time>2026-04-28T13:03:38Z</time></trkpt><trkpt lat="49.179120066226375" lon="2.4704770248918337"><ele>69.14285714285714</ele><time>2026-04-28T13:03:39Z</time></trkpt><trkpt lat="49.17918663476801" lon="2.470471421949415"><ele>68.85714285714286</ele><time>2026-04-28T13:03:40.001Z</time></trkpt><trkpt lat="49.1792581889835" lon="2.4704577330250936"><ele>68.57142857142857</ele><time>2026-04-28T13:03:41Z</time></trkpt><trkpt lat="49.179328449770495" lon="2.470452154790041"><ele>68.28571428571428</ele><time>2026-04-28T13:03:42Z</time></trkpt><trkpt lat="49.179398309663135" lon="2.470439631904673"><ele>68.0</ele><time>2026-04-28T13:03:43Z</time></trkpt><trkpt lat="49.17947145573074" lon="2.47042670449129"><ele>67.99999999999999</ele><time>2026-04-28T13:03:44Z</time></trkpt><trkpt lat="49.179543543110825" lon="2.4704121902965746"><ele>68.0</ele><time>2026-04-28T13:03:45Z</time></trkpt><trkpt lat="49.17961317749219" lon="2.470408704138416"><ele>68.0</ele><time>2026-04-28T13:03:46Z</time></trkpt><trkpt lat="49.17968796089179" lon="2.4704013876567217"><ele>68.0</ele><time>2026-04-28T13:03:47Z</time></trkpt><trkpt lat="49.179757900353685" lon="2.470385751277005"><ele>68.0</ele><time>2026-04-28T13:03:48Z</time></trkpt><trkpt lat="49.179830950060925" lon="2.4703734647690827"><ele>67.99999999999999</ele><time>2026-04-28T13:03:49Z</time></trkpt><trkpt lat="49.179900505458974" lon="2.470362252012385"><ele>68.0</ele><time>2026-04-28T13:03:50Z</time></trkpt><trkpt lat="49.17997535099252" lon="2.470352540700177"><ele>67.66666666666667</ele><time>2026-04-28T13:03:51Z</time></trkpt><trkpt lat="49.18005197365092" lon="2.470343009819207"><ele>67.33333333333334</ele><time>2026-04-28T13:03:52Z</time></trkpt><trkpt lat="49.18012216886201" lon="2.4703274844588567"><ele>67.0</ele><time>2026-04-28T13:03:53Z</time></trkpt><trkpt lat="49.18020015846996" lon="2.470323591485561"><ele>66.66666666666667</ele><time>2026-04-28T13:03:54Z</time></trkpt><trkpt lat="49.180275588757716" lon="2.470304761274404"><ele>66.33333333333333</ele><time>2026-04-28T13:03:55Z</time></trkpt><trkpt lat="49.18035153646785" lon="2.470294041422842"><ele>66.0</ele><time>2026-04-28T13:03:56Z</time></trkpt><trkpt lat="49.1804284111679" lon="2.470284674412667"><ele>66.0</ele><time>2026-04-28T13:03:57Z</time></trkpt><trkpt lat="49.180505875732784" lon="2.4702759946176243"><ele>66.0</ele><time>2026-04-28T13:03:58Z</time></trkpt><trkpt lat="49.180585475423975" lon="2.4702655853041837"><ele>66.0</ele><time>2026-04-28T13:03:59Z</time></trkpt><trkpt lat="49.18065854078892" lon="2.470255969051587"><ele>66.0</ele><time>2026-04-28T13:04:00Z</time></trkpt><trkpt lat="49.180737269993564" lon="2.470240756381517"><ele>66.0</ele><time>2026-04-28T13:04:01Z</time></trkpt><trkpt lat="49.18081215869963" lon="2.470223890101908"><ele>66.0</ele><time>2026-04-28T13:04:02Z</time></trkpt><trkpt lat="49.18089308579529" lon="2.4702159056045283"><ele>65.83333333333333</ele><time>2026-04-28T13:04:03Z</time></trkpt><trkpt lat="49.18096964483465" lon="2.470201294726174"><ele>65.66666666666667</ele><time>2026-04-28T13:04:04Z</time></trkpt><trkpt lat="49.18104711592137" lon="2.470185099711419"><ele>65.5</ele><time>2026-04-28T13:04:05Z</time></trkpt><trkpt lat="49.18112903862866" lon="2.4701755737161584"><ele>65.33333333333334</ele><time>2026-04-28T13:04:06Z</time></trkpt><trkpt lat="49.181204539617745" lon="2.4701628606906167"><ele>65.16666666666667</ele><time>2026-04-28T13:04:07Z</time></trkpt><trkpt lat="49.181282102565035" lon="2.4701510556621464"><ele>65.0</ele><time>2026-04-28T13:04:08Z</time></trkpt><trkpt lat="49.18136303434589" lon="2.4701356894304394"><ele>65.0</ele><time>2026-04-28T13:04:09Z</time></trkpt><trkpt lat="49.18143985595527" lon="2.4701156533093984"><ele>65.0</ele><time>2026-04-28T13:04:10Z</time></trkpt><trkpt lat="49.18151399419912" lon="2.4700986660826714"><ele>65.0</ele><time>2026-04-28T13:04:11Z</time></trkpt><trkpt lat="49.18158789669972" lon="2.4700794849949648"><ele>65.0</ele><time>2026-04-28T13:04:12Z</time></trkpt><trkpt lat="49.181663691344866" lon="2.4700610456389898"><ele>65.0</ele><time>2026-04-28T13:04:12.999Z</time></trkpt><trkpt lat="49.181741097560476" lon="2.4700493325021693"><ele>65.0</ele><time>2026-04-28T13:04:13.999Z</time></trkpt><trkpt lat="49.18181659158152" lon="2.4700357682568015"><ele>65.14285714285715</ele><time>2026-04-28T13:04:14.999Z</time></trkpt><trkpt lat="49.18189035898398" lon="2.4700201882308073"><ele>65.28571428571429</ele><time>2026-04-28T13:04:15.999Z</time></trkpt><trkpt lat="49.18196488731844" lon="2.4700021412390143"><ele>65.42857142857143</ele><time>2026-04-28T13:04:16.999Z</time></trkpt><trkpt lat="49.182041263211815" lon="2.469988307482779"><ele>65.57142857142858</ele><time>2026-04-28T13:04:17.999Z</time></trkpt><trkpt lat="49.1821123672253" lon="2.4699742016861572"><ele>65.71428571428572</ele><time>2026-04-28T13:04:18.999Z</time></trkpt><trkpt lat="49.1821870147153" lon="2.469956925569979"><ele>65.85714285714286</ele><time>2026-04-28T13:04:19.999Z</time></trkpt><trkpt lat="49.182256380761636" lon="2.4699386116856354"><ele>66.0</ele><time>2026-04-28T13:04:20.999Z</time></trkpt><trkpt lat="49.18232567066525" lon="2.4699152600804175"><ele>65.85714285714286</ele><time>2026-04-28T13:04:21.999Z</time></trkpt><trkpt lat="49.18239692943529" lon="2.469898864047646"><ele>65.71428571428572</ele><time>2026-04-28T13:04:22.999Z</time></trkpt><trkpt lat="49.18246642696863" lon="2.4698842943904222"><ele>65.57142857142858</ele><time>2026-04-28T13:04:23.999Z</time></trkpt><trkpt lat="49.18253763442574" lon="2.4698695619637805"><ele>65.42857142857143</ele><time>2026-04-28T13:04:24.999Z</time></trkpt><trkpt lat="49.18261018164362" lon="2.4698555318697344"><ele>65.28571428571429</ele><time>2026-04-28T13:04:25.999Z</time></trkpt><trkpt lat="49.182682401613114" lon="2.469841440101086"><ele>65.14285714285715</ele><time>2026-04-28T13:04:26.999Z</time></trkpt><trkpt lat="49.182751456117295" lon="2.4698254450605757"><ele>65.0</ele><time>2026-04-28T13:04:27.999Z</time></trkpt><trkpt lat="49.18282176638925" lon="2.469806387787811"><ele>65.00000000000001</ele><time>2026-04-28T13:04:28.999Z</time></trkpt><trkpt lat="49.18288966317954" lon="2.4697900683186287"><ele>65.0</ele><time>2026-04-28T13:04:29.999Z</time></trkpt><trkpt lat="49.18295616884616" lon="2.469772328854125"><ele>65.0</ele><time>2026-04-28T13:04:30.999Z</time></trkpt><trkpt lat="49.18302454007957" lon="2.4697605013860713"><ele>65.0</ele><time>2026-04-28T13:04:31.999Z</time></trkpt><trkpt lat="49.1830945163766" lon="2.469740989841643"><ele>65.0</ele><time>2026-04-28T13:04:32.999Z</time></trkpt><trkpt lat="49.18316463899199" lon="2.4697245443483267"><ele>65.00000000000001</ele><time>2026-04-28T13:04:33.999Z</time></trkpt><trkpt lat="49.18323304452275" lon="2.469704700610437"><ele>65.0</ele><time>2026-04-28T13:04:34.999Z</time></trkpt><trkpt lat="49.18330400430819" lon="2.469694686164672"><ele>65.14285714285715</ele><time>2026-04-28T13:04:35.999Z</time></trkpt><trkpt lat="49.1833725973117" lon="2.4696784743107782"><ele>65.28571428571429</ele><time>2026-04-28T13:04:36.999Z</time></trkpt><trkpt lat="49.18343969601825" lon="2.4696601892142684"><ele>65.42857142857143</ele><time>2026-04-28T13:04:37.999Z</time></trkpt><trkpt lat="49.18350855801236" lon="2.469645089069126"><ele>65.57142857142858</ele><time>2026-04-28T13:04:38.999Z</time></trkpt><trkpt lat="49.18357796198483" lon="2.469630938704055"><ele>65.71428571428572</ele><time>2026-04-28T13:04:39.999Z</time></trkpt><trkpt lat="49.183646154812635" lon="2.469611117697368"><ele>65.85714285714286</ele><time>2026-04-28T13:04:40.999Z</time></trkpt><trkpt lat="49.18371544956483" lon="2.4695978701130796"><ele>66.0</ele><time>2026-04-28T13:04:41.999Z</time></trkpt><trkpt lat="49.183784514321395" lon="2.4695834314924197"><ele>66.0</ele><time>2026-04-28T13:04:42.999Z</time></trkpt><trkpt lat="49.18385333403713" lon="2.469568404885653"><ele>66.0</ele><time>2026-04-28T13:04:43.999Z</time></trkpt><trkpt lat="49.1839214904708" lon="2.469551408890404"><ele>66.0</ele><time>2026-04-28T13:04:44.999Z</time></trkpt><trkpt lat="49.183991491084534" lon="2.469533796035622"><ele>66.0</ele><time>2026-04-28T13:04:45.998Z</time></trkpt><trkpt lat="49.18405993227723" lon="2.4695146467704987"><ele>66.0</ele><time>2026-04-28T13:04:46.998Z</time></trkpt><trkpt lat="49.18412543521731" lon="2.4694908991987115"><ele>66.0</ele><time>2026-04-28T13:04:47.998Z</time></trkpt><trkpt lat="49.18419540586278" lon="2.469495655161219"><ele>66.0</ele><time>2026-04-28T13:04:48.998Z</time></trkpt><trkpt lat="49.184263487821575" lon="2.4694792534624512"><ele>66.14285714285714</ele><time>2026-04-28T13:04:49.998Z</time></trkpt><trkpt lat="49.18432658422736" lon="2.469419192095305"><ele>66.28571428571429</ele><time>2026-04-28T13:04:50.998Z</time></trkpt><trkpt lat="49.18439562164741" lon="2.4694089690498497"><ele>66.42857142857143</ele><time>2026-04-28T13:04:51.998Z</time></trkpt><trkpt lat="49.184464726259016" lon="2.469397971224675"><ele>66.57142857142857</ele><time>2026-04-28T13:04:52.998Z</time></trkpt><trkpt lat="49.18452786349055" lon="2.4693788237590484"><ele>66.71428571428571</ele><time>2026-04-28T13:04:53.998Z</time></trkpt><trkpt lat="49.184592649732465" lon="2.469361121473556"><ele>66.85714285714286</ele><time>2026-04-28T13:04:54.998Z</time></trkpt><trkpt lat="49.184664370621704" lon="2.4693540020370626"><ele>67.0</ele><time>2026-04-28T13:04:55.998Z</time></trkpt><trkpt lat="49.18473199562781" lon="2.4693382035824243"><ele>67.0</ele><time>2026-04-28T13:04:56.998Z</time></trkpt><trkpt lat="49.18479495163596" lon="2.469321840969614"><ele>67.0</ele><time>2026-04-28T13:04:57.998Z</time></trkpt><trkpt lat="49.18486023091295" lon="2.4693108408502353"><ele>67.0</ele><time>2026-04-28T13:04:58.998Z</time></trkpt><trkpt lat="49.1849232628571" lon="2.4692956384976608"><ele>67.0</ele><time>2026-04-28T13:04:59.998Z</time></trkpt><trkpt lat="49.184986624977164" lon="2.469279669968412"><ele>67.0</ele><time>2026-04-28T13:05:00.998Z</time></trkpt><trkpt lat="49.18505148001147" lon="2.469270769155481"><ele>67.0</ele><time>2026-04-28T13:05:01.998Z</time></trkpt><trkpt lat="49.185167873112896" lon="2.4692284021423885"><ele>67.0</ele><time>2026-04-28T13:05:03.998Z</time></trkpt><trkpt lat="49.18528498328311" lon="2.4691988662496995"><ele>66.6</ele><time>2026-04-28T13:05:05.998Z</time></trkpt><trkpt lat="49.185400303591145" lon="2.4691571590786734"><ele>66.2</ele><time>2026-04-28T13:05:07.998Z</time></trkpt><trkpt lat="49.18550597849881" lon="2.469101602937105"><ele>65.8</ele><time>2026-04-28T13:05:09.998Z</time></trkpt><trkpt lat="49.18557237821192" lon="2.4691635224951303"><ele>65.4</ele><time>2026-04-28T13:05:10.998Z</time></trkpt><trkpt lat="49.18568692044997" lon="2.4691380087958374"><ele>65.0</ele><time>2026-04-28T13:05:12.998Z</time></trkpt><trkpt lat="49.1858080250983" lon="2.4691132304210206"><ele>65.0</ele><time>2026-04-28T13:05:14.998Z</time></trkpt><trkpt lat="49.18592752824778" lon="2.469079738738739"><ele>65.0</ele><time>2026-04-28T13:05:16.998Z</time></trkpt><trkpt lat="49.18604871428169" lon="2.46905078560624"><ele>65.0</ele><time>2026-04-28T13:05:18.997Z</time></trkpt><trkpt lat="49.1861735747716" lon="2.4690213605220714"><ele>65.0</ele><time>2026-04-28T13:05:20.997Z</time></trkpt><trkpt lat="49.18629321869381" lon="2.4689942024591374"><ele>65.0</ele><time>2026-04-28T13:05:22.997Z</time></trkpt><trkpt lat="49.1863568113197" lon="2.4689794472774445"><ele>65.0</ele><time>2026-04-28T13:05:23.997Z</time></trkpt><trkpt lat="49.18648113335398" lon="2.4689565071632766"><ele>65.0</ele><time>2026-04-28T13:05:25.997Z</time></trkpt><trkpt lat="49.18654439179802" lon="2.4689429289317975"><ele>65.0</ele><time>2026-04-28T13:05:26.997Z</time></trkpt><trkpt lat="49.186607189985644" lon="2.4689251267989523"><ele>65.0</ele><time>2026-04-28T13:05:27.997Z</time></trkpt><trkpt lat="49.18672142700892" lon="2.4688968873584516"><ele>65.0</ele><time>2026-04-28T13:05:29.997Z</time></trkpt><trkpt lat="49.1867859947511" lon="2.468883011329758"><ele>65.0</ele><time>2026-04-28T13:05:30.997Z</time></trkpt><trkpt lat="49.18691423062315" lon="2.4688462024753903"><ele>65.0</ele><time>2026-04-28T13:05:33.001Z</time></trkpt><trkpt lat="49.1869780846213" lon="2.4688341950474744"><ele>65.0</ele><time>2026-04-28T13:05:34.001Z</time></trkpt><trkpt lat="49.18710189571579" lon="2.4688043104564135"><ele>65.0</ele><time>2026-04-28T13:05:36.001Z</time></trkpt><trkpt lat="49.18722356175792" lon="2.4687674335754806"><ele>65.0</ele><time>2026-04-28T13:05:38.001Z</time></trkpt><trkpt lat="49.18733867741403" lon="2.4688528707874453"><ele>63.8</ele><time>2026-04-28T13:05:40.001Z</time></trkpt><trkpt lat="49.1874369571497" lon="2.468882199443124"><ele>62.6</ele><time>2026-04-28T13:05:42.001Z</time></trkpt><trkpt lat="49.18749578799491" lon="2.468734520228822"><ele>61.400000000000006</ele><time>2026-04-28T13:05:44.001Z</time></trkpt><trkpt lat="49.1874718552978" lon="2.468580125341893"><ele>60.2</ele><time>2026-04-28T13:05:46.001Z</time></trkpt><trkpt lat="49.187480711376146" lon="2.4684511419698105"><ele>59.0</ele><time>2026-04-28T13:05:48Z</time></trkpt><trkpt lat="49.18753890949669" lon="2.46833304901671"><ele>59.00000000000001</ele><time>2026-04-28T13:05:50Z</time></trkpt><trkpt lat="49.18757521290634" lon="2.468217616956781"><ele>59.0</ele><time>2026-04-28T13:05:52Z</time></trkpt><trkpt lat="49.18761830018317" lon="2.468105244545681"><ele>59.0</ele><time>2026-04-28T13:05:54Z</time></trkpt><trkpt lat="49.187645278017655" lon="2.4679878825858976"><ele>59.0</ele><time>2026-04-28T13:05:56Z</time></trkpt><trkpt lat="49.18769840020671" lon="2.467898558691123"><ele>59.00000000000001</ele><time>2026-04-28T13:05:58Z</time></trkpt><trkpt lat="49.187762920970094" lon="2.467880114268171"><ele>59.0</ele><time>2026-04-28T13:06:00Z</time></trkpt><trkpt lat="49.187795380637404" lon="2.4677196964939743"><ele>59.16666666666667</ele><time>2026-04-28T13:06:05Z</time></trkpt><trkpt lat="49.18778608967309" lon="2.4676069432398196"><ele>59.333333333333336</ele><time>2026-04-28T13:06:07Z</time></trkpt><trkpt lat="49.18776581232751" lon="2.46749672220225"><ele>59.5</ele><time>2026-04-28T13:06:09Z</time></trkpt><trkpt lat="49.18774275686609" lon="2.4673714002496694"><ele>59.66666666666667</ele><time>2026-04-28T13:06:11Z</time></trkpt><trkpt lat="49.18771889440493" lon="2.4672416917732805"><ele>59.833333333333336</ele><time>2026-04-28T13:06:13Z</time></trkpt><trkpt lat="49.18769443946719" lon="2.4671087627629906"><ele>60.0</ele><time>2026-04-28T13:06:15Z</time></trkpt><trkpt lat="49.18766910019117" lon="2.4669710266757012"><ele>60.0</ele><time>2026-04-28T13:06:16.999Z</time></trkpt><trkpt lat="49.18764344202796" lon="2.4668278484131796"><ele>60.0</ele><time>2026-04-28T13:06:18.999Z</time></trkpt><trkpt lat="49.18761762499504" lon="2.466679539479067"><ele>60.0</ele><time>2026-04-28T13:06:20.999Z</time></trkpt><trkpt lat="49.18757639231436" lon="2.4665274706797042"><ele>60.0</ele><time>2026-04-28T13:06:22.999Z</time></trkpt><trkpt lat="49.187549413867394" lon="2.4663676347432193"><ele>60.0</ele><time>2026-04-28T13:06:24.999Z</time></trkpt><trkpt lat="49.18751833239821" lon="2.4662065806972686"><ele>60.0</ele><time>2026-04-28T13:06:26.999Z</time></trkpt><trkpt lat="49.187488716367355" lon="2.4660342220018463"><ele>60.0</ele><time>2026-04-28T13:06:28.999Z</time></trkpt><trkpt lat="49.18745543517262" lon="2.4658630925646436"><ele>60.0</ele><time>2026-04-28T13:06:30.999Z</time></trkpt><trkpt lat="49.187437824058044" lon="2.4656841695647174"><ele>60.0</ele><time>2026-04-28T13:06:32.999Z</time></trkpt><trkpt lat="49.18738422349019" lon="2.4655172417138123"><ele>60.25</ele><time>2026-04-28T13:06:34.999Z</time></trkpt><trkpt lat="49.187359202072635" lon="2.465339067998006"><ele>60.5</ele><time>2026-04-28T13:06:36.999Z</time></trkpt><trkpt lat="49.187315317033374" lon="2.4651690311701326"><ele>60.75</ele><time>2026-04-28T13:06:38.999Z</time></trkpt><trkpt lat="49.18725602341255" lon="2.465007418995749"><ele>61.0</ele><time>2026-04-28T13:06:40.999Z</time></trkpt><trkpt lat="49.18721175696491" lon="2.4648299590994456"><ele>60.99999999999999</ele><time>2026-04-28T13:06:42.999Z</time></trkpt><trkpt lat="49.18718867453258" lon="2.464740260077305"><ele>61.0</ele><time>2026-04-28T13:06:43.999Z</time></trkpt><trkpt lat="49.18716687782556" lon="2.4646473222971848"><ele>60.99999999999999</ele><time>2026-04-28T13:06:44.999Z</time></trkpt><trkpt lat="49.187144660688965" lon="2.464554135837253"><ele>60.99999999999999</ele><time>2026-04-28T13:06:45.999Z</time></trkpt><trkpt lat="49.18712404464797" lon="2.464460873273227"><ele>61.0</ele><time>2026-04-28T13:06:46.999Z</time></trkpt><trkpt lat="49.187096166181234" lon="2.464368419280987"><ele>60.99999999999999</ele><time>2026-04-28T13:06:47.999Z</time></trkpt><trkpt lat="49.18707186873133" lon="2.4642773340925523"><ele>60.99999999999999</ele><time>2026-04-28T13:06:48.998Z</time></trkpt><trkpt lat="49.187044365579226" lon="2.4641841877141255"><ele>60.99999999999999</ele><time>2026-04-28T13:06:49.998Z</time></trkpt><trkpt lat="49.18701876414754" lon="2.464091987704623"><ele>61.0</ele><time>2026-04-28T13:06:50.998Z</time></trkpt><trkpt lat="49.18701056416048" lon="2.4639867157210245"><ele>60.99999999999999</ele><time>2026-04-28T13:06:51.998Z</time></trkpt><trkpt lat="49.18699123109785" lon="2.463892024380415"><ele>60.99999999999999</ele><time>2026-04-28T13:06:52.998Z</time></trkpt><trkpt lat="49.18697296542835" lon="2.46379468935112"><ele>61.0</ele><time>2026-04-28T13:06:53.998Z</time></trkpt><trkpt lat="49.186959112547925" lon="2.463698843360276"><ele>60.99999999999999</ele><time>2026-04-28T13:06:54.998Z</time></trkpt><trkpt lat="49.18694748143976" lon="2.463604064915039"><ele>60.99999999999999</ele><time>2026-04-28T13:06:55.998Z</time></trkpt><trkpt lat="49.18693604992736" lon="2.4635079904907142"><ele>60.8</ele><time>2026-04-28T13:06:56.998Z</time></trkpt><trkpt lat="49.18692425971845" lon="2.4634078024147845"><ele>60.599999999999994</ele><time>2026-04-28T13:06:57.998Z</time></trkpt><trkpt lat="49.18690302942007" lon="2.4632273965220413"><ele>60.4</ele><time>2026-04-28T13:06:59.998Z</time></trkpt><trkpt lat="49.18688979763054" lon="2.4631240887898307"><ele>60.2</ele><time>2026-04-28T13:07:00.998Z</time></trkpt><trkpt lat="49.18675157404759" lon="2.4630818040985587"><ele>60.0</ele><time>2026-04-28T13:07:01.998Z</time></trkpt><trkpt lat="49.186729188161024" lon="2.462986178390201"><ele>59.8</ele><time>2026-04-28T13:07:02.998Z</time></trkpt><trkpt lat="49.186697074160804" lon="2.462814194228366"><ele>59.6</ele><time>2026-04-28T13:07:04.998Z</time></trkpt><trkpt lat="49.18666015836765" lon="2.4626487606420406"><ele>59.400000000000006</ele><time>2026-04-28T13:07:06.998Z</time></trkpt><trkpt lat="49.18662794805969" lon="2.4624901210571415"><ele>59.2</ele><time>2026-04-28T13:07:08.998Z</time></trkpt><trkpt lat="49.186600492342365" lon="2.462340896091755"><ele>59.0</ele><time>2026-04-28T13:07:10.998Z</time></trkpt><trkpt lat="49.186580095530374" lon="2.46219424523598"><ele>58.800000000000004</ele><time>2026-04-28T13:07:12.998Z</time></trkpt><trkpt lat="49.1865550935491" lon="2.4620609406968206"><ele>58.60000000000001</ele><time>2026-04-28T13:07:14.998Z</time></trkpt><trkpt lat="49.1865739278549" lon="2.461940143870225"><ele>58.4</ele><time>2026-04-28T13:07:16.998Z</time></trkpt><trkpt lat="49.18663744105183" lon="2.461918306482694"><ele>58.2</ele><time>2026-04-28T13:07:18.998Z</time></trkpt><trkpt lat="49.186507002528785" lon="2.461785840313502"><ele>58.0</ele><time>2026-04-28T13:07:20.998Z</time></trkpt><trkpt lat="49.18667832104989" lon="2.461602782962416"><ele>57.99999999999999</ele><time>2026-04-28T13:07:22.997Z</time></trkpt><trkpt lat="49.18676627625943" lon="2.46154771067162"><ele>58.0</ele><time>2026-04-28T13:07:24.997Z</time></trkpt><trkpt lat="49.18682828044563" lon="2.4614621510283734"><ele>58.0</ele><time>2026-04-28T13:07:26.997Z</time></trkpt><trkpt lat="49.18687485611239" lon="2.4613613090600244"><ele>58.0</ele><time>2026-04-28T13:07:29.997Z</time></trkpt><trkpt lat="49.186929691598785" lon="2.4614152691564395"><ele>57.99999999999999</ele><time>2026-04-28T13:07:31.997Z</time></trkpt><trkpt lat="49.18700795332179" lon="2.46147731008416"><ele>58.0</ele><time>2026-04-28T13:07:33.997Z</time></trkpt><trkpt lat="49.18709533860842" lon="2.461519235390271"><ele>58.0</ele><time>2026-04-28T13:07:35.997Z</time></trkpt><trkpt lat="49.187183295198224" lon="2.4615671975623306"><ele>58.0</ele><time>2026-04-28T13:07:38Z</time></trkpt><trkpt lat="49.18728985080016" lon="2.461591714195919"><ele>58.0</ele><time>2026-04-28T13:07:40Z</time></trkpt><trkpt lat="49.18738542901001" lon="2.4616637045191867"><ele>58.0</ele><time>2026-04-28T13:07:42Z</time></trkpt><trkpt lat="49.18747391286631" lon="2.4617543401534356"><ele>58.0</ele><time>2026-04-28T13:07:44Z</time></trkpt><trkpt lat="49.18756662800763" lon="2.461812039722286"><ele>58.2</ele><time>2026-04-28T13:07:46Z</time></trkpt><trkpt lat="49.187662382071956" lon="2.461861602251623"><ele>58.4</ele><time>2026-04-28T13:07:48Z</time></trkpt><trkpt lat="49.187753817029744" lon="2.4619143847872307"><ele>58.60000000000001</ele><time>2026-04-28T13:07:50Z</time></trkpt><trkpt lat="49.18783981000439" lon="2.46198111251878"><ele>58.800000000000004</ele><time>2026-04-28T13:07:52Z</time></trkpt><trkpt lat="49.187921952663594" lon="2.462032433918547"><ele>59.0</ele><time>2026-04-28T13:07:54Z</time></trkpt><trkpt lat="49.18799939113914" lon="2.461939495009494"><ele>59.0</ele><time>2026-04-28T13:07:55Z</time></trkpt><trkpt lat="49.18808863062551" lon="2.461997835318794"><ele>59.00000000000001</ele><time>2026-04-28T13:07:57Z</time></trkpt><trkpt lat="49.18818584903112" lon="2.462061391753681"><ele>59.00000000000001</ele><time>2026-04-28T13:07:59Z</time></trkpt><trkpt lat="49.18828073370136" lon="2.462123422456552"><ele>59.0</ele><time>2026-04-28T13:08:01Z</time></trkpt><trkpt lat="49.18837690768931" lon="2.462186295931344"><ele>59.0</ele><time>2026-04-28T13:08:03Z</time></trkpt><trkpt lat="49.18848126440404" lon="2.4622545190872094"><ele>58.6</ele><time>2026-04-28T13:08:05Z</time></trkpt><trkpt lat="49.18858981134873" lon="2.4623254830470467"><ele>58.2</ele><time>2026-04-28T13:08:07Z</time></trkpt><trkpt lat="49.18868618845084" lon="2.4623856801451294"><ele>57.800000000000004</ele><time>2026-04-28T13:08:09Z</time></trkpt><trkpt lat="49.188792003842686" lon="2.4624526731478196"><ele>57.400000000000006</ele><time>2026-04-28T13:08:11Z</time></trkpt><trkpt lat="49.18888232178025" lon="2.462509762195766"><ele>57.0</ele><time>2026-04-28T13:08:13Z</time></trkpt><trkpt lat="49.18897301378701" lon="2.462566865864291"><ele>56.8</ele><time>2026-04-28T13:08:15Z</time></trkpt><trkpt lat="49.18906418829913" lon="2.4626242733265253"><ele>56.6</ele><time>2026-04-28T13:08:17Z</time></trkpt><trkpt lat="49.18915763256034" lon="2.4626831100132773"><ele>56.39999999999999</ele><time>2026-04-28T13:08:18.999Z</time></trkpt><trkpt lat="49.189249754524816" lon="2.4627411140205053"><ele>56.199999999999996</ele><time>2026-04-28T13:08:20.999Z</time></trkpt><trkpt lat="49.18933946031085" lon="2.4627975968259053"><ele>56.0</ele><time>2026-04-28T13:08:22.999Z</time></trkpt><trkpt lat="49.189424932569665" lon="2.4628529962028862"><ele>56.00000000000001</ele><time>2026-04-28T13:08:24.999Z</time></trkpt><trkpt lat="49.18950245282725" lon="2.4629029774783677"><ele>56.0</ele><time>2026-04-28T13:08:26.999Z</time></trkpt><trkpt lat="49.189582171509926" lon="2.4629543762536676"><ele>56.0</ele><time>2026-04-28T13:08:28.999Z</time></trkpt><trkpt lat="49.189665513872924" lon="2.463008111398458"><ele>56.0</ele><time>2026-04-28T13:08:30.999Z</time></trkpt><trkpt lat="49.1897420202782" lon="2.4630574390337094"><ele>56.00000000000001</ele><time>2026-04-28T13:08:32.999Z</time></trkpt><trkpt lat="49.18981200525562" lon="2.463032539692707"><ele>56.0</ele><time>2026-04-28T13:08:35.999Z</time></trkpt><trkpt lat="49.1899009069621" lon="2.4630912347077465"><ele>56.0</ele><time>2026-04-28T13:08:37.999Z</time></trkpt><trkpt lat="49.18999463526463" lon="2.4631577907120144"><ele>55.99999999999999</ele><time>2026-04-28T13:08:39.999Z</time></trkpt><trkpt lat="49.19008754706012" lon="2.463210132123034"><ele>55.99999999999999</ele><time>2026-04-28T13:08:41.999Z</time></trkpt><trkpt lat="49.190184230314316" lon="2.4632741143015515"><ele>56.0</ele><time>2026-04-28T13:08:43.999Z</time></trkpt><trkpt lat="49.190278572301466" lon="2.4633354628637525"><ele>56.0</ele><time>2026-04-28T13:08:45.999Z</time></trkpt><trkpt lat="49.19037631058142" lon="2.4633963740471065"><ele>56.0</ele><time>2026-04-28T13:08:47.999Z</time></trkpt><trkpt lat="49.190473731302575" lon="2.4634533503115597"><ele>55.99999999999999</ele><time>2026-04-28T13:08:49.999Z</time></trkpt><trkpt lat="49.19056855917079" lon="2.4635155992368016"><ele>55.99999999999999</ele><time>2026-04-28T13:08:51.998Z</time></trkpt><trkpt lat="49.19066315444045" lon="2.4635706338469117"><ele>56.0</ele><time>2026-04-28T13:08:53.998Z</time></trkpt><trkpt lat="49.19075610193654" lon="2.463638619214416"><ele>56.0</ele><time>2026-04-28T13:08:55.998Z</time></trkpt><trkpt lat="49.19085617674227" lon="2.4637011032276916"><ele>55.8</ele><time>2026-04-28T13:08:57.998Z</time></trkpt><trkpt lat="49.19095671926537" lon="2.4637640102782883"><ele>55.599999999999994</ele><time>2026-04-28T13:08:59.998Z</time></trkpt><trkpt lat="49.19105753826143" lon="2.463828907670815"><ele>55.4</ele><time>2026-04-28T13:09:01.998Z</time></trkpt><trkpt lat="49.19115960843283" lon="2.4638921959034707"><ele>55.2</ele><time>2026-04-28T13:09:03.998Z</time></trkpt><trkpt lat="49.19126085470799" lon="2.4639606813687958"><ele>55.0</ele><time>2026-04-28T13:09:05.998Z</time></trkpt><trkpt lat="49.19136223312605" lon="2.4640211634849853"><ele>55.4</ele><time>2026-04-28T13:09:07.998Z</time></trkpt><trkpt lat="49.191466750195715" lon="2.4640852087498346"><ele>55.8</ele><time>2026-04-28T13:09:09.998Z</time></trkpt><trkpt lat="49.19156613813889" lon="2.4641587222194903"><ele>56.2</ele><time>2026-04-28T13:09:11.998Z</time></trkpt><trkpt lat="49.191668906173135" lon="2.464224077619956"><ele>56.6</ele><time>2026-04-28T13:09:13.998Z</time></trkpt><trkpt lat="49.19177499364179" lon="2.4642900414645807"><ele>57.0</ele><time>2026-04-28T13:09:15.998Z</time></trkpt><trkpt lat="49.191880739866946" lon="2.4643528847219773"><ele>57.0</ele><time>2026-04-28T13:09:17.998Z</time></trkpt><trkpt lat="49.191983128603695" lon="2.4644221726350923"><ele>57.0</ele><time>2026-04-28T13:09:19.998Z</time></trkpt><trkpt lat="49.19208550196157" lon="2.4644872372568183"><ele>57.0</ele><time>2026-04-28T13:09:21.998Z</time></trkpt><trkpt lat="49.19218823717271" lon="2.46455334363001"><ele>57.0</ele><time>2026-04-28T13:09:23.997Z</time></trkpt><trkpt lat="49.192294115081836" lon="2.4646242931995523"><ele>56.75</ele><time>2026-04-28T13:09:25.997Z</time></trkpt><trkpt lat="49.19239988767673" lon="2.4646928777719634"><ele>56.5</ele><time>2026-04-28T13:09:27.997Z</time></trkpt><trkpt lat="49.19250629632179" lon="2.4647550356596866"><ele>56.25</ele><time>2026-04-28T13:09:29.997Z</time></trkpt><trkpt lat="49.19261342691263" lon="2.464825053101829"><ele>56.0</ele><time>2026-04-28T13:09:31.997Z</time></trkpt><trkpt lat="49.192721680225254" lon="2.464884638446074"><ele>56.0</ele><time>2026-04-28T13:09:33.997Z</time></trkpt><trkpt lat="49.19282755552884" lon="2.4649480987347645"><ele>55.99999999999999</ele><time>2026-04-28T13:09:35.997Z</time></trkpt><trkpt lat="49.19293084493172" lon="2.465003998783716"><ele>55.99999999999999</ele><time>2026-04-28T13:09:37.997Z</time></trkpt><trkpt lat="49.193026407106245" lon="2.4650449444951175"><ele>56.0</ele><time>2026-04-28T13:09:39.997Z</time></trkpt><trkpt lat="49.19307914408162" lon="2.4651652330205653"><ele>56.0</ele><time>2026-04-28T13:09:41.997Z</time></trkpt><trkpt lat="49.19311715049102" lon="2.465268944669887"><ele>55.66666666666667</ele><time>2026-04-28T13:09:44Z</time></trkpt><trkpt lat="49.19317857489375" lon="2.465330923618013"><ele>55.333333333333336</ele><time>2026-04-28T13:09:46Z</time></trkpt><trkpt lat="49.19323560035859" lon="2.465373356218521"><ele>55.0</ele><time>2026-04-28T13:09:48Z</time></trkpt><trkpt lat="49.193293410956436" lon="2.4652827904026022"><ele>54.66666666666667</ele><time>2026-04-28T13:09:50Z</time></trkpt><trkpt lat="49.19339126242739" lon="2.4652883562620107"><ele>54.333333333333336</ele><time>2026-04-28T13:09:52Z</time></trkpt><trkpt lat="49.19348819098508" lon="2.4653684922943087"><ele>54.0</ele><time>2026-04-28T13:09:54Z</time></trkpt><trkpt lat="49.19359575072547" lon="2.4654333689627776"><ele>54.2</ele><time>2026-04-28T13:09:56Z</time></trkpt><trkpt lat="49.19371148359266" lon="2.465492040170321"><ele>54.400000000000006</ele><time>2026-04-28T13:09:58Z</time></trkpt><trkpt lat="49.19381337915506" lon="2.465517470529543"><ele>54.6</ele><time>2026-04-28T13:10:00Z</time></trkpt><trkpt lat="49.193908465876014" lon="2.465586196559227"><ele>54.8</ele><time>2026-04-28T13:10:02Z</time></trkpt><trkpt lat="49.19399342702388" lon="2.46564924822689"><ele>55.0</ele><time>2026-04-28T13:10:04Z</time></trkpt><trkpt lat="49.194067722343135" lon="2.465700617817791"><ele>54.8</ele><time>2026-04-28T13:10:06Z</time></trkpt><trkpt lat="49.19414572641968" lon="2.4658058997125347"><ele>54.6</ele><time>2026-04-28T13:10:08Z</time></trkpt><trkpt lat="49.194177458762304" lon="2.4659666734205534"><ele>54.400000000000006</ele><time>2026-04-28T13:10:10Z</time></trkpt><trkpt lat="49.194163282707414" lon="2.4661270408145084"><ele>54.2</ele><time>2026-04-28T13:10:12Z</time></trkpt><trkpt lat="49.19417040644674" lon="2.4662790062426496"><ele>54.0</ele><time>2026-04-28T13:10:14Z</time></trkpt><trkpt lat="49.194180307537046" lon="2.46642858594823"><ele>54.0</ele><time>2026-04-28T13:10:16Z</time></trkpt><trkpt lat="49.19417906935144" lon="2.4665263234455876"><ele>54.0</ele><time>2026-04-28T13:10:18Z</time></trkpt><trkpt lat="49.19418529139609" lon="2.466649981743996"><ele>54.0</ele><time>2026-04-28T13:10:21Z</time></trkpt><trkpt lat="49.19418920784973" lon="2.46678207339063"><ele>54.0</ele><time>2026-04-28T13:10:23.999Z</time></trkpt><trkpt lat="49.19419440806404" lon="2.466897167671783"><ele>54.0</ele><time>2026-04-28T13:10:25.999Z</time></trkpt><trkpt lat="49.194202846334704" lon="2.467013020039314"><ele>54.0</ele><time>2026-04-28T13:10:27.999Z</time></trkpt><trkpt lat="49.19421169933907" lon="2.467136998795495"><ele>54.5</ele><time>2026-04-28T13:10:29.999Z</time></trkpt><trkpt lat="49.19421535481856" lon="2.4672625858727875"><ele>55.0</ele><time>2026-04-28T13:10:31.999Z</time></trkpt><trkpt lat="49.19421925757487" lon="2.4673899765092115"><ele>55.5</ele><time>2026-04-28T13:10:33.999Z</time></trkpt><trkpt lat="49.19422652540669" lon="2.46751284249064"><ele>56.0</ele><time>2026-04-28T13:10:35.999Z</time></trkpt><trkpt lat="49.19423205887169" lon="2.4676386552618297"><ele>56.5</ele><time>2026-04-28T13:10:37.999Z</time></trkpt><trkpt lat="49.19423301753282" lon="2.467768454525382"><ele>57.0</ele><time>2026-04-28T13:10:39.999Z</time></trkpt><trkpt lat="49.19423653423995" lon="2.4678965318107338"><ele>57.0</ele><time>2026-04-28T13:10:41.999Z</time></trkpt><trkpt lat="49.1942403558858" lon="2.468027081742285"><ele>57.0</ele><time>2026-04-28T13:10:43.999Z</time></trkpt><trkpt lat="49.194247917859414" lon="2.4681565482680448"><ele>57.0</ele><time>2026-04-28T13:10:45.999Z</time></trkpt><trkpt lat="49.1942522438573" lon="2.468285475966856"><ele>57.0</ele><time>2026-04-28T13:10:47.999Z</time></trkpt><trkpt lat="49.19425645977436" lon="2.468406842822742"><ele>57.0</ele><time>2026-04-28T13:10:49.999Z</time></trkpt><trkpt lat="49.194264587438525" lon="2.4685277285603036"><ele>57.0</ele><time>2026-04-28T13:10:51.999Z</time></trkpt><trkpt lat="49.19427546008934" lon="2.4686609651701468"><ele>56.8</ele><time>2026-04-28T13:10:53.999Z</time></trkpt><trkpt lat="49.19428217252526" lon="2.468799067752501"><ele>56.6</ele><time>2026-04-28T13:10:55.998Z</time></trkpt><trkpt lat="49.19428474733996" lon="2.4689398359962036"><ele>56.39999999999999</ele><time>2026-04-28T13:10:57.998Z</time></trkpt><trkpt lat="49.19428871258515" lon="2.4690807193879327"><ele>56.199999999999996</ele><time>2026-04-28T13:10:59.998Z</time></trkpt><trkpt lat="49.194295218795936" lon="2.4692205608035427"><ele>56.0</ele><time>2026-04-28T13:11:01.998Z</time></trkpt><trkpt lat="49.19430124411827" lon="2.4693674205594953"><ele>56.0</ele><time>2026-04-28T13:11:03.998Z</time></trkpt><trkpt lat="49.194306833609325" lon="2.469516643410447"><ele>55.99999999999999</ele><time>2026-04-28T13:11:05.998Z</time></trkpt><trkpt lat="49.19431455760704" lon="2.4696707118325554"><ele>55.99999999999999</ele><time>2026-04-28T13:11:07.998Z</time></trkpt><trkpt lat="49.19432164931645" lon="2.4698345108639814"><ele>56.0</ele><time>2026-04-28T13:11:09.998Z</time></trkpt><trkpt lat="49.19432975112896" lon="2.469996439205997"><ele>56.0</ele><time>2026-04-28T13:11:11.998Z</time></trkpt><trkpt lat="49.19433661120077" lon="2.4701683814472366"><ele>56.0</ele><time>2026-04-28T13:11:13.998Z</time></trkpt><trkpt lat="49.194346062910824" lon="2.4703479180641756"><ele>55.99999999999999</ele><time>2026-04-28T13:11:15.998Z</time></trkpt><trkpt lat="49.19435384533879" lon="2.470519779743837"><ele>55.99999999999999</ele><time>2026-04-28T13:11:17.998Z</time></trkpt><trkpt lat="49.1943609220215" lon="2.4706858079372207"><ele>56.0</ele><time>2026-04-28T13:11:19.998Z</time></trkpt><trkpt lat="49.194365708061206" lon="2.47083557085496"><ele>56.0</ele><time>2026-04-28T13:11:21.998Z</time></trkpt><trkpt lat="49.19437453704273" lon="2.4709749060584563"><ele>56.0</ele><time>2026-04-28T13:11:23.998Z</time></trkpt><trkpt lat="49.194373679884976" lon="2.4711156112716957"><ele>55.99999999999999</ele><time>2026-04-28T13:11:25.998Z</time></trkpt><trkpt lat="49.194376543902315" lon="2.471263889637596"><ele>55.99999999999999</ele><time>2026-04-28T13:11:27.997Z</time></trkpt><trkpt lat="49.19432774886922" lon="2.4713565990126045"><ele>56.0</ele><time>2026-04-28T13:11:28.997Z</time></trkpt><trkpt lat="49.19433272322876" lon="2.471517734759748"><ele>56.0</ele><time>2026-04-28T13:11:30.997Z</time></trkpt><trkpt lat="49.19433758871204" lon="2.471687667324468"><ele>56.0</ele><time>2026-04-28T13:11:32.997Z</time></trkpt><trkpt lat="49.19434255204801" lon="2.4718610178918334"><ele>56.0</ele><time>2026-04-28T13:11:34.997Z</time></trkpt><trkpt lat="49.19434835600922" lon="2.472039172300391"><ele>56.0</ele><time>2026-04-28T13:11:36.997Z</time></trkpt><trkpt lat="49.194354451592375" lon="2.4722143767658467"><ele>56.0</ele><time>2026-04-28T13:11:38.997Z</time></trkpt><trkpt lat="49.194360111619" lon="2.472377062226509"><ele>56.00000000000001</ele><time>2026-04-28T13:11:40.997Z</time></trkpt><trkpt lat="49.19436531580203" lon="2.4725266450741143"><ele>56.0</ele><time>2026-04-28T13:11:42.997Z</time></trkpt><trkpt lat="49.19436920448651" lon="2.4726726366383946"><ele>56.0</ele><time>2026-04-28T13:11:44.997Z</time></trkpt><trkpt lat="49.194372098366784" lon="2.472784476841321"><ele>56.0</ele><time>2026-04-28T13:11:46.997Z</time></trkpt><trkpt lat="49.19437507674412" lon="2.472902516332422"><ele>56.00000000000001</ele><time>2026-04-28T13:11:50Z</time></trkpt><trkpt lat="49.19437882842998" lon="2.473059881312704"><ele>56.0</ele><time>2026-04-28T13:11:52Z</time></trkpt><trkpt lat="49.19438354781016" lon="2.473173446573139"><ele>56.0</ele><time>2026-04-28T13:11:53Z</time></trkpt><trkpt lat="49.19439054931153" lon="2.4733419298163772"><ele>55.99999999999999</ele><time>2026-04-28T13:11:55Z</time></trkpt><trkpt lat="49.194397164360076" lon="2.4735281664131"><ele>55.99999999999999</ele><time>2026-04-28T13:11:57Z</time></trkpt><trkpt lat="49.194400244197496" lon="2.473624961185824"><ele>56.0</ele><time>2026-04-28T13:11:58Z</time></trkpt><trkpt lat="49.19440628288662" lon="2.4738177312205254"><ele>56.0</ele><time>2026-04-28T13:12:00Z</time></trkpt><trkpt lat="49.194412319674484" lon="2.4740105641717105"><ele>56.16666666666667</ele><time>2026-04-28T13:12:02Z</time></trkpt><trkpt lat="49.19446524528094" lon="2.474105602251086"><ele>56.333333333333336</ele><time>2026-04-28T13:12:03Z</time></trkpt><trkpt lat="49.19447017289631" lon="2.4742061963903152"><ele>56.5</ele><time>2026-04-28T13:12:04Z</time></trkpt><trkpt lat="49.19447431112255" lon="2.474302437595243"><ele>56.66666666666667</ele><time>2026-04-28T13:12:05Z</time></trkpt><trkpt lat="49.19448976391429" lon="2.474490072092412"><ele>56.833333333333336</ele><time>2026-04-28T13:12:07Z</time></trkpt><trkpt lat="49.19448890491648" lon="2.4746350494660936"><ele>57.0</ele><time>2026-04-28T13:12:09Z</time></trkpt><trkpt lat="49.194431943569626" lon="2.474713283800611"><ele>57.0</ele><time>2026-04-28T13:12:10Z</time></trkpt><trkpt lat="49.194438216527644" lon="2.474860623560254"><ele>57.0</ele><time>2026-04-28T13:12:12Z</time></trkpt><trkpt lat="49.19444532443302" lon="2.475018555872857"><ele>57.0</ele><time>2026-04-28T13:12:14Z</time></trkpt><trkpt lat="49.19445029525428" lon="2.475165984115247"><ele>57.0</ele><time>2026-04-28T13:12:16Z</time></trkpt><trkpt lat="49.194454799577095" lon="2.4753223357688583"><ele>57.0</ele><time>2026-04-28T13:12:18Z</time></trkpt><trkpt lat="49.19445936702458" lon="2.475486015336384"><ele>56.400000000000006</ele><time>2026-04-28T13:12:20Z</time></trkpt><trkpt lat="49.19446390828065" lon="2.47564875594282"><ele>55.800000000000004</ele><time>2026-04-28T13:12:22Z</time></trkpt><trkpt lat="49.19446706547965" lon="2.4757936073601896"><ele>55.2</ele><time>2026-04-28T13:12:24Z</time></trkpt><trkpt lat="49.19446640141089" lon="2.475940983572278"><ele>54.6</ele><time>2026-04-28T13:12:26Z</time></trkpt><trkpt lat="49.19446250258734" lon="2.4760953377305244"><ele>54.0</ele><time>2026-04-28T13:12:27.999Z</time></trkpt><trkpt lat="49.194456634658096" lon="2.4762556591345493"><ele>53.800000000000004</ele><time>2026-04-28T13:12:29.999Z</time></trkpt><trkpt lat="49.19444986066009" lon="2.4764191540956095"><ele>53.60000000000001</ele><time>2026-04-28T13:12:31.999Z</time></trkpt><trkpt lat="49.19444540139547" lon="2.476587073842539"><ele>53.4</ele><time>2026-04-28T13:12:33.999Z</time></trkpt><trkpt lat="49.194442519789455" lon="2.4767534045662405"><ele>53.2</ele><time>2026-04-28T13:12:35.999Z</time></trkpt><trkpt lat="49.194439915911715" lon="2.4769037042617414"><ele>53.0</ele><time>2026-04-28T13:12:37.999Z</time></trkpt><trkpt lat="49.19443806003767" lon="2.477062927199458"><ele>53.0</ele><time>2026-04-28T13:12:39.999Z</time></trkpt><trkpt lat="49.19443670963772" lon="2.4772183266556027"><ele>53.0</ele><time>2026-04-28T13:12:41.999Z</time></trkpt><trkpt lat="49.1943943297466" lon="2.477334703930268"><ele>53.0</ele><time>2026-04-28T13:12:44.999Z</time></trkpt><trkpt lat="49.194203877023966" lon="2.4773513415343316"><ele>53.0</ele><time>2026-04-28T13:12:47.999Z</time></trkpt><trkpt lat="49.19411222039666" lon="2.4772889268159752"><ele>53.0</ele><time>2026-04-28T13:12:49.999Z</time></trkpt><trkpt lat="49.194022057229446" lon="2.4772613041002534"><ele>53.0</ele><time>2026-04-28T13:12:51.999Z</time></trkpt><trkpt lat="49.19393123743542" lon="2.4772368512451126"><ele>53.0</ele><time>2026-04-28T13:12:53.999Z</time></trkpt><trkpt lat="49.19384730635383" lon="2.477215936615154"><ele>53.0</ele><time>2026-04-28T13:12:55.999Z</time></trkpt><trkpt lat="49.19375641626694" lon="2.4771916819617927"><ele>53.0</ele><time>2026-04-28T13:12:57.999Z</time></trkpt><trkpt lat="49.193678314158156" lon="2.4772636696375905"><ele>53.2</ele><time>2026-04-28T13:12:59.998Z</time></trkpt><trkpt lat="49.193579857460605" lon="2.477283093763973"><ele>53.4</ele><time>2026-04-28T13:13:01.998Z</time></trkpt><trkpt lat="49.193487497372146" lon="2.4773282791904796"><ele>53.60000000000001</ele><time>2026-04-28T13:13:03.998Z</time></trkpt><trkpt lat="49.193434819701366" lon="2.4774512988113724"><ele>53.800000000000004</ele><time>2026-04-28T13:13:05.998Z</time></trkpt><trkpt lat="49.193419684901464" lon="2.4776238036218445"><ele>54.0</ele><time>2026-04-28T13:13:07.998Z</time></trkpt><trkpt lat="49.19341987041523" lon="2.4777838126248763"><ele>54.2</ele><time>2026-04-28T13:13:09.998Z</time></trkpt><trkpt lat="49.19341886860988" lon="2.4779499624742742"><ele>54.400000000000006</ele><time>2026-04-28T13:13:11.998Z</time></trkpt><trkpt lat="49.193418451210164" lon="2.4781000400667055"><ele>54.6</ele><time>2026-04-28T13:13:13.998Z</time></trkpt><trkpt lat="49.193417493566315" lon="2.478254350909629"><ele>54.8</ele><time>2026-04-28T13:13:15.998Z</time></trkpt><trkpt lat="49.19342337012574" lon="2.478414118435828"><ele>55.0</ele><time>2026-04-28T13:13:17.998Z</time></trkpt><trkpt lat="49.1934223240595" lon="2.4785707692042487"><ele>55.0</ele><time>2026-04-28T13:13:19.998Z</time></trkpt><trkpt lat="49.19342550031394" lon="2.4787306926109864"><ele>55.0</ele><time>2026-04-28T13:13:21.998Z</time></trkpt><trkpt lat="49.19342702521496" lon="2.478895211485392"><ele>55.0</ele><time>2026-04-28T13:13:23.998Z</time></trkpt><trkpt lat="49.193432188412224" lon="2.4790608183599474"><ele>55.0</ele><time>2026-04-28T13:13:25.998Z</time></trkpt><trkpt lat="49.19343672764639" lon="2.4792246471677184"><ele>55.0</ele><time>2026-04-28T13:13:27.998Z</time></trkpt><trkpt lat="49.193447828863846" lon="2.4793856285177935"><ele>55.2</ele><time>2026-04-28T13:13:29.998Z</time></trkpt><trkpt lat="49.19345858752385" lon="2.4795480814891864"><ele>55.4</ele><time>2026-04-28T13:13:31.997Z</time></trkpt><trkpt lat="49.19348753343306" lon="2.479703486046681"><ele>55.599999999999994</ele><time>2026-04-28T13:13:33.997Z</time></trkpt><trkpt lat="49.193487662243484" lon="2.479873813785423"><ele>55.8</ele><time>2026-04-28T13:13:35.997Z</time></trkpt><trkpt lat="49.193487977610246" lon="2.480038566552204"><ele>56.0</ele><time>2026-04-28T13:13:37.997Z</time></trkpt><trkpt lat="49.193493871772944" lon="2.4801896021517895"><ele>55.57142857142857</ele><time>2026-04-28T13:13:39.997Z</time></trkpt><trkpt lat="49.19349814058817" lon="2.4803254531428505"><ele>55.14285714285714</ele><time>2026-04-28T13:13:41.997Z</time></trkpt><trkpt lat="49.19350656826992" lon="2.480426473432271"><ele>54.714285714285715</ele><time>2026-04-28T13:13:43.997Z</time></trkpt><trkpt lat="49.193589836199756" lon="2.4804858703891983"><ele>54.285714285714285</ele><time>2026-04-28T13:13:46.997Z</time></trkpt><trkpt lat="49.19364809281605" lon="2.480439886415926"><ele>53.857142857142854</ele><time>2026-04-28T13:13:48.997Z</time></trkpt><trkpt lat="49.19361689347016" lon="2.4803549668953"><ele>53.42857142857143</ele><time>2026-04-28T13:13:52.997Z</time></trkpt><trkpt lat="49.19359181705154" lon="2.480457121767745"><ele>53.0</ele><time>2026-04-28T13:15:31.998Z</time></trkpt><trkpt lat="49.19357038733579" lon="2.480571433767156"><ele>52.599999999999994</ele><time>2026-04-28T13:15:34.998Z</time></trkpt><trkpt lat="49.19344587090514" lon="2.4805803157264696"><ele>52.199999999999996</ele><time>2026-04-28T13:15:35.998Z</time></trkpt><trkpt lat="49.19343010366035" lon="2.480711768521728"><ele>51.8</ele><time>2026-04-28T13:15:38.997Z</time></trkpt><trkpt lat="49.19341080506286" lon="2.4808509113683885"><ele>51.4</ele><time>2026-04-28T13:15:41.997Z</time></trkpt><trkpt lat="49.19338977007185" lon="2.480964759362038"><ele>51.0</ele><time>2026-04-28T13:15:43.997Z</time></trkpt><trkpt lat="49.193366938825456" lon="2.481078805246076"><ele>51.0</ele><time>2026-04-28T13:15:45.997Z</time></trkpt><trkpt lat="49.193330539673966" lon="2.481216471076305"><ele>51.0</ele><time>2026-04-28T13:15:47.997Z</time></trkpt><trkpt lat="49.19328768264769" lon="2.4813496383674747"><ele>51.0</ele><time>2026-04-28T13:15:49.997Z</time></trkpt><trkpt lat="49.19323757092794" lon="2.481481014621704"><ele>51.0</ele><time>2026-04-28T13:15:51.997Z</time></trkpt><trkpt lat="49.19318168372022" lon="2.4816138542044324"><ele>51.0</ele><time>2026-04-28T13:15:53.997Z</time></trkpt><trkpt lat="49.19311956587761" lon="2.481744574443428"><ele>50.199999999999996</ele><time>2026-04-28T13:15:55.997Z</time></trkpt><trkpt lat="49.193053689423245" lon="2.4818698833141606"><ele>49.4</ele><time>2026-04-28T13:15:57.997Z</time></trkpt><trkpt lat="49.19298000890277" lon="2.4819883617225544"><ele>48.6</ele><time>2026-04-28T13:15:59.997Z</time></trkpt><trkpt lat="49.192911458140536" lon="2.482081390921686"><ele>47.8</ele><time>2026-04-28T13:16:02Z</time></trkpt><trkpt lat="49.19282841812771" lon="2.4821717357773765"><ele>47.0</ele><time>2026-04-28T13:16:04Z</time></trkpt><trkpt lat="49.19273704059789" lon="2.482257213909087"><ele>47.400000000000006</ele><time>2026-04-28T13:16:06Z</time></trkpt><trkpt lat="49.19263759797955" lon="2.482333929502149"><ele>47.800000000000004</ele><time>2026-04-28T13:16:08Z</time></trkpt><trkpt lat="49.19253533610027" lon="2.4824136300147512"><ele>48.2</ele><time>2026-04-28T13:16:10Z</time></trkpt><trkpt lat="49.192436704414966" lon="2.482489687543096"><ele>48.6</ele><time>2026-04-28T13:16:12Z</time></trkpt><trkpt lat="49.19233581970136" lon="2.482557815524956"><ele>49.0</ele><time>2026-04-28T13:16:14Z</time></trkpt><trkpt lat="49.19224026178464" lon="2.4826223463208534"><ele>48.99999999999999</ele><time>2026-04-28T13:16:16Z</time></trkpt><trkpt lat="49.192151894191916" lon="2.4826820214876575"><ele>49.0</ele><time>2026-04-28T13:16:18Z</time></trkpt><trkpt lat="49.192072590248564" lon="2.4827343948631198"><ele>49.0</ele><time>2026-04-28T13:16:20Z</time></trkpt><trkpt lat="49.1919939463229" lon="2.482785901072287"><ele>49.0</ele><time>2026-04-28T13:16:22Z</time></trkpt><trkpt lat="49.19191131737981" lon="2.482840296854145"><ele>48.99999999999999</ele><time>2026-04-28T13:16:24Z</time></trkpt><trkpt lat="49.191830662577026" lon="2.482897236231511"><ele>49.0</ele><time>2026-04-28T13:16:26Z</time></trkpt><trkpt lat="49.1917538943001" lon="2.4829534691672257"><ele>48.83333333333333</ele><time>2026-04-28T13:16:28Z</time></trkpt><trkpt lat="49.19167727815512" lon="2.4830176639538046"><ele>48.666666666666664</ele><time>2026-04-28T13:16:30Z</time></trkpt><trkpt lat="49.19160419912398" lon="2.483111569491701"><ele>48.5</ele><time>2026-04-28T13:16:32Z</time></trkpt><trkpt lat="49.19157412062569" lon="2.483231860086133"><ele>48.33333333333333</ele><time>2026-04-28T13:16:34Z</time></trkpt><trkpt lat="49.19155014435097" lon="2.483338512675441"><ele>48.166666666666664</ele><time>2026-04-28T13:16:35.999Z</time></trkpt><trkpt lat="49.19152683303542" lon="2.4834600632840487"><ele>48.0</ele><time>2026-04-28T13:16:37.999Z</time></trkpt><trkpt lat="49.19151012988212" lon="2.483570216029325"><ele>48.0</ele><time>2026-04-28T13:16:39.999Z</time></trkpt><trkpt lat="49.19150828231493" lon="2.4836996407763827"><ele>48.0</ele><time>2026-04-28T13:16:41.999Z</time></trkpt><trkpt lat="49.19152896881374" lon="2.4838293393481803"><ele>48.0</ele><time>2026-04-28T13:16:43.999Z</time></trkpt><trkpt lat="49.19147952740138" lon="2.4839488084833903"><ele>48.0</ele><time>2026-04-28T13:16:45.999Z</time></trkpt><trkpt lat="49.191409687243706" lon="2.4840122047329403"><ele>48.0</ele><time>2026-04-28T13:16:47.999Z</time></trkpt><trkpt lat="49.19138469842592" lon="2.4841318736670757"><ele>48.0</ele><time>2026-04-28T13:16:49.999Z</time></trkpt><trkpt lat="49.19132713149817" lon="2.4842302278908757"><ele>48.0</ele><time>2026-04-28T13:16:52.999Z</time></trkpt><trkpt lat="49.19136592207613" lon="2.4843249380251344"><ele>48.0</ele><time>2026-04-28T13:16:53.999Z</time></trkpt><trkpt lat="49.19142100521029" lon="2.4843919157937595"><ele>48.0</ele><time>2026-04-28T13:16:55.999Z</time></trkpt><trkpt lat="49.19150207011225" lon="2.4844359630644015"><ele>48.0</ele><time>2026-04-28T13:16:57.999Z</time></trkpt><trkpt lat="49.19156893661473" lon="2.4845115214769584"><ele>48.0</ele><time>2026-04-28T13:16:59.999Z</time></trkpt><trkpt lat="49.19164559521167" lon="2.484581728772617"><ele>48.0</ele><time>2026-04-28T13:17:01.999Z</time></trkpt><trkpt lat="49.19171221420061" lon="2.4846444491158626"><ele>47.666666666666664</ele><time>2026-04-28T13:17:03.999Z</time></trkpt><trkpt lat="49.191739693529584" lon="2.484746917424788"><ele>47.333333333333336</ele><time>2026-04-28T13:17:05.999Z</time></trkpt><trkpt lat="49.191705043066975" lon="2.4848693614424735"><ele>47.0</ele><time>2026-04-28T13:17:08.998Z</time></trkpt><trkpt lat="49.191678386504236" lon="2.4849911551533266"><ele>46.66666666666667</ele><time>2026-04-28T13:17:11.998Z</time></trkpt><trkpt lat="49.19164962389041" lon="2.485104364344816"><ele>46.333333333333336</ele><time>2026-04-28T13:17:14.998Z</time></trkpt><trkpt lat="49.191634999712576" lon="2.4852221428056582"><ele>46.0</ele><time>2026-04-28T13:17:17.998Z</time></trkpt><trkpt lat="49.191642929406726" lon="2.485323526198547"><ele>45.66666666666667</ele><time>2026-04-28T13:22:46Z</time></trkpt><trkpt lat="49.19165029837492" lon="2.485441273261799"><ele>45.333333333333336</ele><time>2026-04-28T13:23:32.998Z</time></trkpt><trkpt lat="49.191505729820115" lon="2.4851289086845125"><ele>45.0</ele><time>2026-04-28T13:23:34.998Z</time></trkpt><trkpt lat="49.191452875792514" lon="2.4858818920016605"><ele>45.714285714285715</ele><time>2026-04-28T13:23:47.998Z</time></trkpt><trkpt lat="49.19139399714478" lon="2.4859226038991458"><ele>46.42857142857143</ele><time>2026-04-28T13:23:49.998Z</time></trkpt><trkpt lat="49.191334987011345" lon="2.4859759920406583"><ele>47.142857142857146</ele><time>2026-04-28T13:23:51.998Z</time></trkpt><trkpt lat="49.191268496563815" lon="2.4859968894473874"><ele>47.85714285714286</ele><time>2026-04-28T13:23:53.998Z</time></trkpt><trkpt lat="49.19119903625753" lon="2.4860706411995164"><ele>48.57142857142857</ele><time>2026-04-28T13:23:56.998Z</time></trkpt><trkpt lat="49.19115425903843" lon="2.486161023400699"><ele>49.28571428571429</ele><time>2026-04-28T13:23:58.997Z</time></trkpt><trkpt lat="49.191106278789036" lon="2.4862324306142973"><ele>50.0</ele><time>2026-04-28T13:24:00.997Z</time></trkpt><trkpt lat="49.19106579352122" lon="2.4863095034611966"><ele>50.66666666666667</ele><time>2026-04-28T13:24:02.997Z</time></trkpt><trkpt lat="49.19100875512251" lon="2.486401107520681"><ele>51.333333333333336</ele><time>2026-04-28T13:24:05.997Z</time></trkpt><trkpt lat="49.190946202022" lon="2.4864952298264624"><ele>52.0</ele><time>2026-04-28T13:24:07.997Z</time></trkpt><trkpt lat="49.19089615657501" lon="2.4865757685684327"><ele>52.66666666666667</ele><time>2026-04-28T13:24:09.997Z</time></trkpt><trkpt lat="49.190830311428996" lon="2.4866821859319015"><ele>53.333333333333336</ele><time>2026-04-28T13:24:12.997Z</time></trkpt><trkpt lat="49.190768533326725" lon="2.4867758845239303"><ele>54.0</ele><time>2026-04-28T13:24:14.997Z</time></trkpt><trkpt lat="49.190712931829914" lon="2.486859088237361"><ele>54.666666666666664</ele><time>2026-04-28T13:24:16.997Z</time></trkpt><trkpt lat="49.19066474886916" lon="2.486941201758714"><ele>55.33333333333333</ele><time>2026-04-28T13:24:18.997Z</time></trkpt><trkpt lat="49.19057129980267" lon="2.4868432271736234"><ele>56.0</ele><time>2026-04-28T13:24:19.997Z</time></trkpt><trkpt lat="49.19048683905405" lon="2.4869112814557126"><ele>56.666666666666664</ele><time>2026-04-28T13:24:22.997Z</time></trkpt><trkpt lat="49.190425544864084" lon="2.486975643850072"><ele>57.33333333333333</ele><time>2026-04-28T13:24:25Z</time></trkpt><trkpt lat="49.19036896090988" lon="2.48691680748611"><ele>58.0</ele><time>2026-04-28T13:24:27Z</time></trkpt><trkpt lat="49.19039109838469" lon="2.486794708040775"><ele>58.0</ele><time>2026-04-28T13:24:28Z</time></trkpt><trkpt lat="49.19046088255778" lon="2.4873762225181975"><ele>58.0</ele><time>2026-04-28T13:24:30Z</time></trkpt><trkpt lat="49.19048286504331" lon="2.487481162152212"><ele>58.0</ele><time>2026-04-28T13:24:32Z</time></trkpt><trkpt lat="49.190518251987285" lon="2.487660915174471"><ele>58.0</ele><time>2026-04-28T13:24:33Z</time></trkpt><trkpt lat="49.19048892215355" lon="2.4878142221068407"><ele>58.0</ele><time>2026-04-28T13:24:35Z</time></trkpt><trkpt lat="49.19045755609208" lon="2.4879272024291383"><ele>58.0</ele><time>2026-04-28T13:24:36Z</time></trkpt><trkpt lat="49.19040420159854" lon="2.4880574289915973"><ele>58.0</ele><time>2026-04-28T13:24:38Z</time></trkpt><trkpt lat="49.19035987515519" lon="2.4881585945542235"><ele>57.666666666666664</ele><time>2026-04-28T13:24:40Z</time></trkpt><trkpt lat="49.19031663211318" lon="2.488257288268154"><ele>57.33333333333333</ele><time>2026-04-28T13:24:42Z</time></trkpt><trkpt lat="49.190271646885314" lon="2.4883528363407277"><ele>57.0</ele><time>2026-04-28T13:24:44Z</time></trkpt><trkpt lat="49.190222196285745" lon="2.4884577296424815"><ele>56.66666666666667</ele><time>2026-04-28T13:24:46Z</time></trkpt><trkpt lat="49.190170872183586" lon="2.4885657688116187"><ele>56.333333333333336</ele><time>2026-04-28T13:24:48Z</time></trkpt><trkpt lat="49.1901184902759" lon="2.4886760339216374"><ele>56.0</ele><time>2026-04-28T13:24:50Z</time></trkpt><trkpt lat="49.19004854198705" lon="2.488823278053239"><ele>55.333333333333336</ele><time>2026-04-28T13:24:52Z</time></trkpt><trkpt lat="49.19000957292665" lon="2.4889037011510426"><ele>54.66666666666667</ele><time>2026-04-28T13:24:53Z</time></trkpt><trkpt lat="49.18996979670212" lon="2.4889929000721556"><ele>54.0</ele><time>2026-04-28T13:24:54Z</time></trkpt><trkpt lat="49.18993421595998" lon="2.489072688956728"><ele>53.33333333333333</ele><time>2026-04-28T13:24:55Z</time></trkpt><trkpt lat="49.18988755065948" lon="2.489177335014121"><ele>52.666666666666664</ele><time>2026-04-28T13:24:55.999Z</time></trkpt><trkpt lat="49.18983672270563" lon="2.4892952705035443"><ele>52.0</ele><time>2026-04-28T13:24:56.999Z</time></trkpt><trkpt lat="49.189789211126275" lon="2.489407227900278"><ele>52.0</ele><time>2026-04-28T13:24:57.999Z</time></trkpt><trkpt lat="49.18974820335028" lon="2.4895119066314213"><ele>52.0</ele><time>2026-04-28T13:24:58.999Z</time></trkpt><trkpt lat="49.18971025886276" lon="2.4896162575835965"><ele>52.0</ele><time>2026-04-28T13:24:59.999Z</time></trkpt><trkpt lat="49.18967326213228" lon="2.4897230899207896"><ele>52.0</ele><time>2026-04-28T13:25:00.999Z</time></trkpt><trkpt lat="49.18961982485315" lon="2.489911105801732"><ele>52.0</ele><time>2026-04-28T13:25:02.999Z</time></trkpt><trkpt lat="49.18960082135931" lon="2.4900471402289353"><ele>52.42857142857142</ele><time>2026-04-28T13:25:04.999Z</time></trkpt><trkpt lat="49.18960211222202" lon="2.490173843219964"><ele>52.85714285714286</ele><time>2026-04-28T13:25:07.999Z</time></trkpt><trkpt lat="49.1896201675264" lon="2.490277241442124"><ele>53.285714285714285</ele><time>2026-04-28T13:25:11.999Z</time></trkpt><trkpt lat="49.18964363530496" lon="2.490374801251588"><ele>53.71428571428571</ele><time>2026-04-28T13:25:16.999Z</time></trkpt><trkpt lat="49.189666236005664" lon="2.4904782953212092"><ele>54.14285714285714</ele><time>2026-04-28T13:25:21.999Z</time></trkpt><trkpt lat="49.18969990057441" lon="2.490583765953255"><ele>54.57142857142857</ele><time>2026-04-28T13:25:26.999Z</time></trkpt><trkpt lat="49.189725150513034" lon="2.490673690252913"><ele>55.0</ele><time>2026-04-28T13:25:28.999Z</time></trkpt><trkpt lat="49.18974734429759" lon="2.4908043819888133"><ele>55.166666666666664</ele><time>2026-04-28T13:25:31.998Z</time></trkpt><trkpt lat="49.189803189698765" lon="2.490967434007062"><ele>55.33333333333333</ele><time>2026-04-28T13:25:33.998Z</time></trkpt><trkpt lat="49.18982221944766" lon="2.4910679194489176"><ele>55.5</ele><time>2026-04-28T13:25:35.998Z</time></trkpt><trkpt lat="49.18983875002757" lon="2.4912383533912945"><ele>55.66666666666667</ele><time>2026-04-28T13:25:36.998Z</time></trkpt><trkpt lat="49.18984738256878" lon="2.4913409575408036"><ele>55.833333333333336</ele><time>2026-04-28T13:25:38.998Z</time></trkpt><trkpt lat="49.189856161109375" lon="2.4914614361013454"><ele>56.0</ele><time>2026-04-28T13:25:40.998Z</time></trkpt><trkpt lat="49.18986528206107" lon="2.4915857127935124"><ele>56.333333333333336</ele><time>2026-04-28T13:25:43.998Z</time></trkpt><trkpt lat="49.18987237429585" lon="2.491682347139971"><ele>56.66666666666667</ele><time>2026-04-28T13:25:45.998Z</time></trkpt><trkpt lat="49.18988206689843" lon="2.491806405331346"><ele>57.0</ele><time>2026-04-28T13:25:48.998Z</time></trkpt><trkpt lat="49.18989396374893" lon="2.4919426093815855"><ele>57.33333333333333</ele><time>2026-04-28T13:25:51.998Z</time></trkpt><trkpt lat="49.189905328361895" lon="2.492072720038932"><ele>57.666666666666664</ele><time>2026-04-28T13:25:54.998Z</time></trkpt><trkpt lat="49.18991554006407" lon="2.4921896312346132"><ele>58.0</ele><time>2026-04-28T13:25:56.998Z</time></trkpt><trkpt lat="49.18992492915517" lon="2.492297124470239"><ele>57.99999999999999</ele><time>2026-04-28T13:25:58.998Z</time></trkpt><trkpt lat="49.189935511271855" lon="2.4924182765349765"><ele>58.0</ele><time>2026-04-28T13:26:00.998Z</time></trkpt><trkpt lat="49.18994551418045" lon="2.4925327971978994"><ele>58.0</ele><time>2026-04-28T13:26:02.998Z</time></trkpt><trkpt lat="49.189955750536136" lon="2.4926499906130863"><ele>58.0</ele><time>2026-04-28T13:26:04.997Z</time></trkpt><trkpt lat="49.18996599231798" lon="2.4927672461476584"><ele>57.99999999999999</ele><time>2026-04-28T13:26:06.997Z</time></trkpt><trkpt lat="49.18997556147986" lon="2.492875204878963"><ele>58.0</ele><time>2026-04-28T13:26:08.997Z</time></trkpt><trkpt lat="49.18998785880371" lon="2.4930032142174694"><ele>58.0</ele><time>2026-04-28T13:26:10.997Z</time></trkpt><trkpt lat="49.18999920885353" lon="2.493118276661943"><ele>58.0</ele><time>2026-04-28T13:26:12.997Z</time></trkpt><trkpt lat="49.19001198161135" lon="2.4932417466889567"><ele>58.0</ele><time>2026-04-28T13:26:14.997Z</time></trkpt><trkpt lat="49.189425776069314" lon="2.493513075365571"><ele>58.166666666666664</ele><time>2026-04-28T13:26:16.997Z</time></trkpt><trkpt lat="49.18946218964306" lon="2.493629974494819"><ele>58.33333333333333</ele><time>2026-04-28T13:26:18.997Z</time></trkpt><trkpt lat="49.189507084502644" lon="2.4937424273559823"><ele>58.5</ele><time>2026-04-28T13:26:20.997Z</time></trkpt><trkpt lat="49.189521262229306" lon="2.4938591869962328"><ele>58.66666666666667</ele><time>2026-04-28T13:26:22.997Z</time></trkpt><trkpt lat="49.189536203406085" lon="2.493988599894416"><ele>58.833333333333336</ele><time>2026-04-28T13:26:24.997Z</time></trkpt><trkpt lat="49.189547285231775" lon="2.4941223925210627"><ele>59.0</ele><time>2026-04-28T13:26:26.997Z</time></trkpt><trkpt lat="49.18954821412146" lon="2.4942701983132625"><ele>59.2</ele><time>2026-04-28T13:26:28.997Z</time></trkpt><trkpt lat="49.189535559115086" lon="2.4944256403012353"><ele>59.400000000000006</ele><time>2026-04-28T13:26:31Z</time></trkpt><trkpt lat="49.18952567255408" lon="2.4945792437404157"><ele>59.6</ele><time>2026-04-28T13:26:33Z</time></trkpt><trkpt lat="49.18952164617506" lon="2.4947317792399573"><ele>59.8</ele><time>2026-04-28T13:26:35Z</time></trkpt><trkpt lat="49.18950935562919" lon="2.494871535058989"><ele>60.0</ele><time>2026-04-28T13:26:37Z</time></trkpt><trkpt lat="49.18949261936343" lon="2.495018766160945"><ele>60.0</ele><time>2026-04-28T13:26:39Z</time></trkpt><trkpt lat="49.18948028563238" lon="2.495171519511892"><ele>60.0</ele><time>2026-04-28T13:26:41Z</time></trkpt><trkpt lat="49.18947140100705" lon="2.495332422408277"><ele>60.0</ele><time>2026-04-28T13:26:43Z</time></trkpt><trkpt lat="49.18945805141425" lon="2.4954857170157063"><ele>60.0</ele><time>2026-04-28T13:26:45Z</time></trkpt><trkpt lat="49.18945000650862" lon="2.495638636274593"><ele>60.0</ele><time>2026-04-28T13:26:47Z</time></trkpt><trkpt lat="49.18944043577056" lon="2.4958030205588813"><ele>60.0</ele><time>2026-04-28T13:26:49Z</time></trkpt><trkpt lat="49.18943400233941" lon="2.495958775848645"><ele>60.0</ele><time>2026-04-28T13:26:51Z</time></trkpt><trkpt lat="49.189422135016684" lon="2.4961266186392863"><ele>60.0</ele><time>2026-04-28T13:26:53Z</time></trkpt><trkpt lat="49.18941541277561" lon="2.4962753979030663"><ele>60.0</ele><time>2026-04-28T13:26:55Z</time></trkpt><trkpt lat="49.18940765557957" lon="2.496447995653517"><ele>60.0</ele><time>2026-04-28T13:26:57Z</time></trkpt><trkpt lat="49.18939707028244" lon="2.4966114772720656"><ele>60.2</ele><time>2026-04-28T13:26:59Z</time></trkpt><trkpt lat="49.18938765687116" lon="2.4967759244199823"><ele>60.4</ele><time>2026-04-28T13:27:01Z</time></trkpt><trkpt lat="49.18938058282602" lon="2.4969354046380166"><ele>60.599999999999994</ele><time>2026-04-28T13:27:03Z</time></trkpt><trkpt lat="49.189380554456356" lon="2.4970874131192162"><ele>60.8</ele><time>2026-04-28T13:27:05Z</time></trkpt><trkpt lat="49.18937133868622" lon="2.4972478956421664"><ele>61.0</ele><time>2026-04-28T13:27:07Z</time></trkpt><trkpt lat="49.189363360314495" lon="2.497413810954897"><ele>61.199999999999996</ele><time>2026-04-28T13:27:08.999Z</time></trkpt><trkpt lat="49.18935876439789" lon="2.497573772023909"><ele>61.39999999999999</ele><time>2026-04-28T13:27:10.999Z</time></trkpt><trkpt lat="49.18938044131274" lon="2.4977400035609643"><ele>61.6</ele><time>2026-04-28T13:27:12.999Z</time></trkpt><trkpt lat="49.18941028923698" lon="2.49788350363313"><ele>61.8</ele><time>2026-04-28T13:27:14.999Z</time></trkpt><trkpt lat="49.189444227948435" lon="2.49802635399999"><ele>62.0</ele><time>2026-04-28T13:27:16.999Z</time></trkpt><trkpt lat="49.18948085161371" lon="2.498174579683172"><ele>62.0</ele><time>2026-04-28T13:27:18.999Z</time></trkpt><trkpt lat="49.18951906233672" lon="2.4983278333833563"><ele>62.0</ele><time>2026-04-28T13:27:20.999Z</time></trkpt><trkpt lat="49.18955273708573" lon="2.498487629701816"><ele>62.0</ele><time>2026-04-28T13:27:22.999Z</time></trkpt><trkpt lat="49.18958414198953" lon="2.498650065143291"><ele>62.0</ele><time>2026-04-28T13:27:24.999Z</time></trkpt><trkpt lat="49.18961317103884" lon="2.498813092224945"><ele>62.0</ele><time>2026-04-28T13:27:26.999Z</time></trkpt><trkpt lat="49.18965066684172" lon="2.4989703568180417"><ele>61.8</ele><time>2026-04-28T13:27:28.999Z</time></trkpt><trkpt lat="49.189680689339724" lon="2.499114284822385"><ele>61.6</ele><time>2026-04-28T13:27:30.999Z</time></trkpt><trkpt lat="49.18971404265415" lon="2.4992834282169016"><ele>61.39999999999999</ele><time>2026-04-28T13:27:32.999Z</time></trkpt><trkpt lat="49.18974902946422" lon="2.4994317591195667"><ele>61.199999999999996</ele><time>2026-04-28T13:27:34.999Z</time></trkpt><trkpt lat="49.189779625628624" lon="2.4995872288451517"><ele>61.0</ele><time>2026-04-28T13:27:36.999Z</time></trkpt><trkpt lat="49.18980465393882" lon="2.499735488472057"><ele>61.4</ele><time>2026-04-28T13:27:38.999Z</time></trkpt><trkpt lat="49.189842353658584" lon="2.49988028403558"><ele>61.8</ele><time>2026-04-28T13:27:40.999Z</time></trkpt><trkpt lat="49.189879354932984" lon="2.5000126333535166"><ele>62.199999999999996</ele><time>2026-04-28T13:27:42.999Z</time></trkpt><trkpt lat="49.189906587222936" lon="2.500153426505787"><ele>62.599999999999994</ele><time>2026-04-28T13:27:44.998Z</time></trkpt><trkpt lat="49.18993444300746" lon="2.5003039920922605"><ele>63.0</ele><time>2026-04-28T13:27:46.998Z</time></trkpt><trkpt lat="49.18996509568422" lon="2.500451474115667"><ele>63.2</ele><time>2026-04-28T13:27:48.998Z</time></trkpt><trkpt lat="49.18999993950423" lon="2.5006002662358293"><ele>63.4</ele><time>2026-04-28T13:27:50.998Z</time></trkpt><trkpt lat="49.190023631606806" lon="2.5007469459948646"><ele>63.60000000000001</ele><time>2026-04-28T13:27:52.998Z</time></trkpt><trkpt lat="49.19005569272088" lon="2.500897952008102"><ele>63.800000000000004</ele><time>2026-04-28T13:27:54.998Z</time></trkpt><trkpt lat="49.190096581862385" lon="2.5010465917226354"><ele>64.0</ele><time>2026-04-28T13:27:56.998Z</time></trkpt><trkpt lat="49.1901173828737" lon="2.5011984835601875"><ele>64.0</ele><time>2026-04-28T13:27:58.998Z</time></trkpt><trkpt lat="49.1901599145192" lon="2.501348633299526"><ele>64.0</ele><time>2026-04-28T13:28:00.998Z</time></trkpt><trkpt lat="49.19019251718081" lon="2.501517913956797"><ele>64.0</ele><time>2026-04-28T13:28:02.998Z</time></trkpt><trkpt lat="49.19022248704068" lon="2.5016708146635778"><ele>64.0</ele><time>2026-04-28T13:28:04.998Z</time></trkpt><trkpt lat="49.19026915017504" lon="2.501813430774456"><ele>64.0</ele><time>2026-04-28T13:28:06.998Z</time></trkpt><trkpt lat="49.19029573038435" lon="2.50197706912138"><ele>63.6</ele><time>2026-04-28T13:28:08.998Z</time></trkpt><trkpt lat="49.19033245306839" lon="2.502136548746418"><ele>63.2</ele><time>2026-04-28T13:28:10.998Z</time></trkpt><trkpt lat="49.190376832690085" lon="2.5022791610451827"><ele>62.800000000000004</ele><time>2026-04-28T13:28:12.998Z</time></trkpt><trkpt lat="49.19040984468054" lon="2.502443493748792"><ele>62.400000000000006</ele><time>2026-04-28T13:28:14.998Z</time></trkpt><trkpt lat="49.19043571723574" lon="2.5025898209033106"><ele>62.0</ele><time>2026-04-28T13:28:16.998Z</time></trkpt><trkpt lat="49.19045900115712" lon="2.5027494419564484"><ele>62.0</ele><time>2026-04-28T13:28:18.997Z</time></trkpt><trkpt lat="49.19048577610471" lon="2.5028692863698945"><ele>62.0</ele><time>2026-04-28T13:28:20.997Z</time></trkpt><trkpt lat="49.19051676320649" lon="2.5030103897365485"><ele>62.0</ele><time>2026-04-28T13:28:22.997Z</time></trkpt><trkpt lat="49.19055497189668" lon="2.50318303885908"><ele>62.0</ele><time>2026-04-28T13:28:24.997Z</time></trkpt><trkpt lat="49.1905922084865" lon="2.5033514790011853"><ele>62.0</ele><time>2026-04-28T13:28:26.997Z</time></trkpt><trkpt lat="49.190667388111756" lon="2.5035011198204224"><ele>61.6</ele><time>2026-04-28T13:28:28.997Z</time></trkpt><trkpt lat="49.190735766898555" lon="2.5036633158170822"><ele>61.2</ele><time>2026-04-28T13:28:30.997Z</time></trkpt><trkpt lat="49.19077920892269" lon="2.503820926324152"><ele>60.8</ele><time>2026-04-28T13:28:32.997Z</time></trkpt><trkpt lat="49.190833033333405" lon="2.5039098576939764"><ele>60.4</ele><time>2026-04-28T13:28:33.997Z</time></trkpt><trkpt lat="49.19087124691112" lon="2.5039965220817106"><ele>60.0</ele><time>2026-04-28T13:28:34.997Z</time></trkpt><trkpt lat="49.190909038545556" lon="2.504083190183306"><ele>60.0</ele><time>2026-04-28T13:28:35.997Z</time></trkpt><trkpt lat="49.190939955662245" lon="2.504170346171207"><ele>60.0</ele><time>2026-04-28T13:28:37Z</time></trkpt><trkpt lat="49.19100902315112" lon="2.5043348351808468"><ele>60.0</ele><time>2026-04-28T13:28:39Z</time></trkpt><trkpt lat="49.19104144017071" lon="2.504427707426988"><ele>60.0</ele><time>2026-04-28T13:28:40Z</time></trkpt><trkpt lat="49.191087974827845" lon="2.5045207225811565"><ele>60.0</ele><time>2026-04-28T13:28:41Z</time></trkpt><trkpt lat="49.191124105240654" lon="2.504604608953452"><ele>60.0</ele><time>2026-04-28T13:28:42Z</time></trkpt><trkpt lat="49.191160624464985" lon="2.5046838137122234"><ele>60.166666666666664</ele><time>2026-04-28T13:28:43Z</time></trkpt><trkpt lat="49.19119642497298" lon="2.504774234169547"><ele>60.33333333333333</ele><time>2026-04-28T13:28:44Z</time></trkpt><trkpt lat="49.19124055895874" lon="2.5048634634907914"><ele>60.5</ele><time>2026-04-28T13:28:45Z</time></trkpt><trkpt lat="49.19127653247604" lon="2.5049494454499186"><ele>60.666666666666664</ele><time>2026-04-28T13:28:46Z</time></trkpt><trkpt lat="49.19134441399433" lon="2.505110135027417"><ele>60.83333333333333</ele><time>2026-04-28T13:28:48Z</time></trkpt><trkpt lat="49.191384364315645" lon="2.505195976881034"><ele>61.0</ele><time>2026-04-28T13:28:49Z</time></trkpt><trkpt lat="49.19145734587196" lon="2.505368414582218"><ele>60.57142857142856</ele><time>2026-04-28T13:28:51Z</time></trkpt><trkpt lat="49.191495883951454" lon="2.505458788189293"><ele>60.14285714285714</ele><time>2026-04-28T13:28:52Z</time></trkpt><trkpt lat="49.19153263377783" lon="2.505549871330671"><ele>59.714285714285715</ele><time>2026-04-28T13:28:53Z</time></trkpt><trkpt lat="49.19157154496781" lon="2.5056391967755336"><ele>59.285714285714285</ele><time>2026-04-28T13:28:54Z</time></trkpt><trkpt lat="49.19160809316027" lon="2.505739809853845"><ele>58.85714285714286</ele><time>2026-04-28T13:28:55Z</time></trkpt><trkpt lat="49.19164682283483" lon="2.505820042818844"><ele>58.42857142857144</ele><time>2026-04-28T13:28:56Z</time></trkpt><trkpt lat="49.191681411195866" lon="2.50591525991002"><ele>58.00000000000001</ele><time>2026-04-28T13:28:57Z</time></trkpt><trkpt lat="49.19171364914447" lon="2.5060143338336305"><ele>58.0</ele><time>2026-04-28T13:28:58Z</time></trkpt><trkpt lat="49.19173959182361" lon="2.5061083258050285"><ele>58.0</ele><time>2026-04-28T13:28:59Z</time></trkpt><trkpt lat="49.191811724095736" lon="2.5062660953603944"><ele>58.0</ele><time>2026-04-28T13:29:01Z</time></trkpt><trkpt lat="49.1918850691795" lon="2.5064024152546223"><ele>58.0</ele><time>2026-04-28T13:29:03Z</time></trkpt><trkpt lat="49.191945121278295" lon="2.5065413660326206"><ele>58.0</ele><time>2026-04-28T13:29:05Z</time></trkpt><trkpt lat="49.19200398163066" lon="2.506677476066519"><ele>57.666666666666664</ele><time>2026-04-28T13:29:07Z</time></trkpt><trkpt lat="49.192076508115335" lon="2.506758793253275"><ele>57.33333333333333</ele><time>2026-04-28T13:29:09Z</time></trkpt><trkpt lat="49.192102472143404" lon="2.506868878438038"><ele>57.0</ele><time>2026-04-28T13:29:11Z</time></trkpt><trkpt lat="49.19208280190422" lon="2.506977323136197"><ele>56.66666666666667</ele><time>2026-04-28T13:29:13Z</time></trkpt><trkpt lat="49.19205746134311" lon="2.5070730802287726"><ele>56.333333333333336</ele><time>2026-04-28T13:29:15Z</time></trkpt><trkpt lat="49.192045526077735" lon="2.5071897124228166"><ele>56.0</ele><time>2026-04-28T13:29:16.999Z</time></trkpt><trkpt lat="49.19203371599407" lon="2.507305123088959"><ele>55.0</ele><time>2026-04-28T13:29:18.999Z</time></trkpt><trkpt lat="49.192243532223564" lon="2.507506214001317"><ele>54.0</ele><time>2026-04-28T13:29:22.999Z</time></trkpt><trkpt lat="49.19230075145732" lon="2.5075942256382873"><ele>53.0</ele><time>2026-04-28T13:29:24.999Z</time></trkpt><trkpt lat="49.19235521889476" lon="2.5076939396457503"><ele>52.0</ele><time>2026-04-28T13:29:26.999Z</time></trkpt><trkpt lat="49.19241215231049" lon="2.507788730618743"><ele>51.49999999999999</ele><time>2026-04-28T13:29:28.999Z</time></trkpt><trkpt lat="49.19247839384455" lon="2.5078701954606486"><ele>51.0</ele><time>2026-04-28T13:29:30.999Z</time></trkpt><trkpt lat="49.19254263590045" lon="2.5079485157201447"><ele>50.5</ele><time>2026-04-28T13:29:32.999Z</time></trkpt><trkpt lat="49.19260450973178" lon="2.5080240053211686"><ele>50.0</ele><time>2026-04-28T13:29:34.999Z</time></trkpt><trkpt lat="49.192672253500085" lon="2.5080858602191363"><ele>49.49999999999999</ele><time>2026-04-28T13:29:36.999Z</time></trkpt><trkpt lat="49.19271717107437" lon="2.508166563157793"><ele>49.0</ele><time>2026-04-28T13:29:38.999Z</time></trkpt><trkpt lat="49.19277000894627" lon="2.5082410375226947"><ele>48.99999999999999</ele><time>2026-04-28T13:29:40.999Z</time></trkpt><trkpt lat="49.19284945797267" lon="2.5082767083129656"><ele>49.0</ele><time>2026-04-28T13:29:42.999Z</time></trkpt><trkpt lat="49.19289582388499" lon="2.5083482165954645"><ele>49.0</ele><time>2026-04-28T13:29:44.999Z</time></trkpt><trkpt lat="49.19296117790237" lon="2.5084226451292153"><ele>49.0</ele><time>2026-04-28T13:29:46.999Z</time></trkpt><trkpt lat="49.193021672261125" lon="2.5085036351338132"><ele>48.99999999999999</ele><time>2026-04-28T13:29:48.999Z</time></trkpt><trkpt lat="49.19308351124486" lon="2.5085771851797647"><ele>49.0</ele><time>2026-04-28T13:29:50.998Z</time></trkpt><trkpt lat="49.19313312961571" lon="2.50864988955181"><ele>48.83333333333333</ele><time>2026-04-28T13:29:52.998Z</time></trkpt><trkpt lat="49.19318055906384" lon="2.5087234023481444"><ele>48.666666666666664</ele><time>2026-04-28T13:29:54.998Z</time></trkpt><trkpt lat="49.193250515727485" lon="2.508809371210206"><ele>48.5</ele><time>2026-04-28T13:29:57.998Z</time></trkpt><trkpt lat="49.19332444870939" lon="2.5088843373593686"><ele>48.33333333333333</ele><time>2026-04-28T13:29:59.998Z</time></trkpt><trkpt lat="49.19339532429508" lon="2.508958889258911"><ele>48.166666666666664</ele><time>2026-04-28T13:30:01.998Z</time></trkpt><trkpt lat="49.193457996163865" lon="2.5090529008831464"><ele>48.0</ele><time>2026-04-28T13:30:03.998Z</time></trkpt><trkpt lat="49.19351435110764" lon="2.509158275326919"><ele>48.333333333333336</ele><time>2026-04-28T13:30:05.998Z</time></trkpt><trkpt lat="49.1935604073155" lon="2.5092690972429375"><ele>48.66666666666667</ele><time>2026-04-28T13:30:07.998Z</time></trkpt><trkpt lat="49.19360777587032" lon="2.509384246334594"><ele>49.0</ele><time>2026-04-28T13:30:09.998Z</time></trkpt><trkpt lat="49.19366102135245" lon="2.5094943253501167"><ele>49.333333333333336</ele><time>2026-04-28T13:30:11.998Z</time></trkpt><trkpt lat="49.193698275206444" lon="2.5096293700199066"><ele>49.66666666666667</ele><time>2026-04-28T13:30:13.998Z</time></trkpt><trkpt lat="49.19372730721048" lon="2.50975873151601"><ele>50.0</ele><time>2026-04-28T13:30:15.998Z</time></trkpt><trkpt lat="49.19376663710674" lon="2.5098879752125147"><ele>50.00000000000001</ele><time>2026-04-28T13:30:17.998Z</time></trkpt><trkpt lat="49.193774960120294" lon="2.5100256420861613"><ele>50.0</ele><time>2026-04-28T13:30:19.998Z</time></trkpt><trkpt lat="49.19375095976033" lon="2.509902305881994"><ele>50.0</ele><time>2026-04-28T13:30:28.997Z</time></trkpt><trkpt lat="49.19373168291341" lon="2.5097888052828403"><ele>50.0</ele><time>2026-04-28T13:30:30.997Z</time></trkpt><trkpt lat="49.19370402770117" lon="2.5096693352756905"><ele>50.00000000000001</ele><time>2026-04-28T13:30:32.997Z</time></trkpt><trkpt lat="49.193670294711104" lon="2.5095528144316432"><ele>50.0</ele><time>2026-04-28T13:30:34.997Z</time></trkpt><trkpt lat="49.19362767253104" lon="2.509439800056268"><ele>50.00000000000001</ele><time>2026-04-28T13:30:36.997Z</time></trkpt><trkpt lat="49.193584588394444" lon="2.509330218973514"><ele>50.0</ele><time>2026-04-28T13:30:38.997Z</time></trkpt><trkpt lat="49.193540605253254" lon="2.509229505353911"><ele>50.0</ele><time>2026-04-28T13:30:40.997Z</time></trkpt><trkpt lat="49.19358598934983" lon="2.509316174193765"><ele>50.0</ele><time>2026-04-28T13:30:49Z</time></trkpt><trkpt lat="49.19365036009826" lon="2.50939134417414"><ele>50.00000000000001</ele><time>2026-04-28T13:30:53Z</time></trkpt><trkpt lat="49.193671536658954" lon="2.509535389481079"><ele>50.0</ele><time>2026-04-28T13:31:00Z</time></trkpt><trkpt lat="49.193708523145986" lon="2.5096723244104178"><ele>50.16666666666667</ele><time>2026-04-28T13:31:03Z</time></trkpt><trkpt lat="49.193731047903505" lon="2.5097739424500944"><ele>50.333333333333336</ele><time>2026-04-28T13:31:05Z</time></trkpt><trkpt lat="49.193754569398024" lon="2.50989745358598"><ele>50.5</ele><time>2026-04-28T13:31:07Z</time></trkpt><trkpt lat="49.193771785654" lon="2.509998047250482"><ele>50.66666666666667</ele><time>2026-04-28T13:31:09Z</time></trkpt><trkpt lat="49.19378566131129" lon="2.5101335886797784"><ele>50.833333333333336</ele><time>2026-04-28T13:31:12Z</time></trkpt><trkpt lat="49.19378946545795" lon="2.510265359617736"><ele>51.0</ele><time>2026-04-28T13:31:15Z</time></trkpt><trkpt lat="49.19378946545788" lon="2.510394531900023"><ele>50.8</ele><time>2026-04-28T13:31:16.999Z</time></trkpt><trkpt lat="49.19378802880474" lon="2.5105150729262666"><ele>50.599999999999994</ele><time>2026-04-28T13:31:18.999Z</time></trkpt><trkpt lat="49.19378596545752" lon="2.510656544213533"><ele>50.4</ele><time>2026-04-28T13:31:20.999Z</time></trkpt><trkpt lat="49.19378596545816" lon="2.510784652075294"><ele>50.2</ele><time>2026-04-28T13:31:22.999Z</time></trkpt><trkpt lat="49.19378632674513" lon="2.510926723150614"><ele>50.0</ele><time>2026-04-28T13:31:24.999Z</time></trkpt><trkpt lat="49.194179288167454" lon="2.5109735099207184"><ele>50.0</ele><time>2026-04-28T13:31:25.999Z</time></trkpt><trkpt lat="49.19419620348304" lon="2.511101113697113"><ele>50.0</ele><time>2026-04-28T13:31:27.999Z</time></trkpt><trkpt lat="49.19421294062669" lon="2.5112323753381816"><ele>50.0</ele><time>2026-04-28T13:31:29.999Z</time></trkpt><trkpt lat="49.194233286923925" lon="2.5113694621668157"><ele>50.0</ele><time>2026-04-28T13:31:31.999Z</time></trkpt><trkpt lat="49.19425453096581" lon="2.511510414443964"><ele>50.0</ele><time>2026-04-28T13:31:33.999Z</time></trkpt><trkpt lat="49.19426834022788" lon="2.511656595572098"><ele>50.0</ele><time>2026-04-28T13:31:35.999Z</time></trkpt><trkpt lat="49.194269206594406" lon="2.511808459637892"><ele>50.0</ele><time>2026-04-28T13:31:37.999Z</time></trkpt><trkpt lat="49.19427460270017" lon="2.511963967345375"><ele>50.0</ele><time>2026-04-28T13:31:39.999Z</time></trkpt><trkpt lat="49.194272756433165" lon="2.5121184506141594"><ele>50.0</ele><time>2026-04-28T13:31:41.999Z</time></trkpt><trkpt lat="49.19426797823876" lon="2.5122763459821313"><ele>50.0</ele><time>2026-04-28T13:31:43.999Z</time></trkpt><trkpt lat="49.19426101154885" lon="2.5124306027911967"><ele>50.0</ele><time>2026-04-28T13:31:45.999Z</time></trkpt><trkpt lat="49.19425361574211" lon="2.512584909237219"><ele>50.0</ele><time>2026-04-28T13:31:47.999Z</time></trkpt><trkpt lat="49.1942505771413" lon="2.5127407363537064"><ele>50.0</ele><time>2026-04-28T13:31:49.999Z</time></trkpt><trkpt lat="49.194241368597595" lon="2.5128987782787005"><ele>50.0</ele><time>2026-04-28T13:31:51.998Z</time></trkpt><trkpt lat="49.194240216464785" lon="2.5130621324946105"><ele>50.0</ele><time>2026-04-28T13:31:53.998Z</time></trkpt><trkpt lat="49.194240721740684" lon="2.513219572110801"><ele>50.0</ele><time>2026-04-28T13:31:55.998Z</time></trkpt><trkpt lat="49.19424514686258" lon="2.5133742928015637"><ele>50.0</ele><time>2026-04-28T13:31:57.998Z</time></trkpt><trkpt lat="49.19423475622752" lon="2.51353262500229"><ele>50.0</ele><time>2026-04-28T13:31:59.998Z</time></trkpt><trkpt lat="49.194220440248316" lon="2.51369525740686"><ele>50.0</ele><time>2026-04-28T13:32:01.998Z</time></trkpt><trkpt lat="49.19420161859839" lon="2.5138687523062724"><ele>50.0</ele><time>2026-04-28T13:32:03.998Z</time></trkpt><trkpt lat="49.194165536166736" lon="2.5140346744742255"><ele>49.75</ele><time>2026-04-28T13:32:05.998Z</time></trkpt><trkpt lat="49.19414694348861" lon="2.5142086791797755"><ele>49.5</ele><time>2026-04-28T13:32:07.998Z</time></trkpt><trkpt lat="49.19412531600077" lon="2.51439252966325"><ele>49.25</ele><time>2026-04-28T13:32:09.998Z</time></trkpt><trkpt lat="49.194095007745176" lon="2.5145700709952568"><ele>49.0</ele><time>2026-04-28T13:32:11.998Z</time></trkpt><trkpt lat="49.194055125453666" lon="2.514740148410871"><ele>49.0</ele><time>2026-04-28T13:32:13.998Z</time></trkpt><trkpt lat="49.19401728676257" lon="2.5149174342814935"><ele>49.0</ele><time>2026-04-28T13:32:15.998Z</time></trkpt><trkpt lat="49.193974395417975" lon="2.514988718491482"><ele>49.0</ele><time>2026-04-28T13:32:16.998Z</time></trkpt><trkpt lat="49.19391744186049" lon="2.5150337548378667"><ele>49.0</ele><time>2026-04-28T13:32:17.998Z</time></trkpt><trkpt lat="49.19380465277371" lon="2.515070598552184"><ele>49.0</ele><time>2026-04-28T13:32:19.998Z</time></trkpt><trkpt lat="49.19370110740017" lon="2.5151071711763024"><ele>49.2</ele><time>2026-04-28T13:32:21.998Z</time></trkpt><trkpt lat="49.193622098211236" lon="2.5152135586797577"><ele>49.400000000000006</ele><time>2026-04-28T13:32:23.998Z</time></trkpt><trkpt lat="49.19357675019605" lon="2.5153482312789004"><ele>49.6</ele><time>2026-04-28T13:32:25.997Z</time></trkpt><trkpt lat="49.193545989790636" lon="2.515484382028706"><ele>49.8</ele><time>2026-04-28T13:32:27.997Z</time></trkpt><trkpt lat="49.193507652497004" lon="2.515626688703877"><ele>50.0</ele><time>2026-04-28T13:32:29.997Z</time></trkpt><trkpt lat="49.19346830050863" lon="2.5157682988648498"><ele>49.6</ele><time>2026-04-28T13:32:31.997Z</time></trkpt><trkpt lat="49.19343204725094" lon="2.5159123028108086"><ele>49.2</ele><time>2026-04-28T13:32:33.997Z</time></trkpt><trkpt lat="49.193383181025446" lon="2.5160581517110936"><ele>48.8</ele><time>2026-04-28T13:32:35.997Z</time></trkpt><trkpt lat="49.193337882625244" lon="2.5162114685384096"><ele>48.4</ele><time>2026-04-28T13:32:37.997Z</time></trkpt><trkpt lat="49.19329327415709" lon="2.516365726379331"><ele>48.0</ele><time>2026-04-28T13:32:39.997Z</time></trkpt><trkpt lat="49.19324904677374" lon="2.516518944582801"><ele>48.0</ele><time>2026-04-28T13:32:41.997Z</time></trkpt><trkpt lat="49.19320455038521" lon="2.516671148317272"><ele>48.0</ele><time>2026-04-28T13:32:43.997Z</time></trkpt><trkpt lat="49.19317281537046" lon="2.516825600589573"><ele>48.0</ele><time>2026-04-28T13:32:45.997Z</time></trkpt><trkpt lat="49.193118671510824" lon="2.5169360411557427"><ele>48.0</ele><time>2026-04-28T13:32:46.997Z</time></trkpt><trkpt lat="49.19307041634323" lon="2.5170267840009903"><ele>48.0</ele><time>2026-04-28T13:32:48Z</time></trkpt><trkpt lat="49.19300175468408" lon="2.5171670952798335"><ele>48.4</ele><time>2026-04-28T13:32:49Z</time></trkpt><trkpt lat="49.19301745796738" lon="2.5172674080865964"><ele>48.8</ele><time>2026-04-28T13:32:52Z</time></trkpt><trkpt lat="49.19298033890781" lon="2.5173945745393045"><ele>49.2</ele><time>2026-04-28T13:32:54Z</time></trkpt><trkpt lat="49.19294638710255" lon="2.5175369581418527"><ele>49.6</ele><time>2026-04-28T13:32:56Z</time></trkpt><trkpt lat="49.19291795939157" lon="2.517687024781747"><ele>50.0</ele><time>2026-04-28T13:32:58Z</time></trkpt><trkpt lat="49.192885992221875" lon="2.5178348963819106"><ele>49.8</ele><time>2026-04-28T13:33:00Z</time></trkpt><trkpt lat="49.19285524756392" lon="2.5179872667799166"><ele>49.6</ele><time>2026-04-28T13:33:02Z</time></trkpt><trkpt lat="49.19282785936323" lon="2.5181321112831148"><ele>49.400000000000006</ele><time>2026-04-28T13:33:04Z</time></trkpt><trkpt lat="49.19279896509298" lon="2.5182843476359014"><ele>49.2</ele><time>2026-04-28T13:33:06Z</time></trkpt><trkpt lat="49.19277491314642" lon="2.5184338381967737"><ele>49.0</ele><time>2026-04-28T13:33:08Z</time></trkpt><trkpt lat="49.192746568443006" lon="2.5185796085953878"><ele>49.0</ele><time>2026-04-28T13:33:10Z</time></trkpt><trkpt lat="49.19271454338817" lon="2.518727846798682"><ele>49.0</ele><time>2026-04-28T13:33:12Z</time></trkpt><trkpt lat="49.192687529637915" lon="2.5188821936484933"><ele>49.0</ele><time>2026-04-28T13:33:14Z</time></trkpt><trkpt lat="49.192658775169924" lon="2.5190361185942893"><ele>49.0</ele><time>2026-04-28T13:33:16Z</time></trkpt><trkpt lat="49.19263324836773" lon="2.5191907641652116"><ele>49.0</ele><time>2026-04-28T13:33:18Z</time></trkpt><trkpt lat="49.19260921738226" lon="2.519350107973391"><ele>49.0</ele><time>2026-04-28T13:33:20Z</time></trkpt><trkpt lat="49.19257621733796" lon="2.5195057275002957"><ele>49.0</ele><time>2026-04-28T13:33:22Z</time></trkpt><trkpt lat="49.192540629259206" lon="2.519663741828476"><ele>49.0</ele><time>2026-04-28T13:33:23.999Z</time></trkpt><trkpt lat="49.19250361278065" lon="2.519823189542311"><ele>49.0</ele><time>2026-04-28T13:33:25.999Z</time></trkpt><trkpt lat="49.192476838901044" lon="2.5199855818824926"><ele>49.0</ele><time>2026-04-28T13:33:27.999Z</time></trkpt><trkpt lat="49.19245221393754" lon="2.520146652272685"><ele>48.800000000000004</ele><time>2026-04-28T13:33:29.999Z</time></trkpt><trkpt lat="49.19243284269191" lon="2.5203012361092947"><ele>48.6</ele><time>2026-04-28T13:33:31.999Z</time></trkpt><trkpt lat="49.19242240661922" lon="2.5204571287881676"><ele>48.4</ele><time>2026-04-28T13:33:33.999Z</time></trkpt><trkpt lat="49.19240471520433" lon="2.520607228146378"><ele>48.2</ele><time>2026-04-28T13:33:35.999Z</time></trkpt><trkpt lat="49.19238702378856" lon="2.520761028851951"><ele>48.0</ele><time>2026-04-28T13:33:37.999Z</time></trkpt><trkpt lat="49.19237003909529" lon="2.5209096026008275"><ele>48.0</ele><time>2026-04-28T13:33:39.999Z</time></trkpt><trkpt lat="49.19235660056022" lon="2.521058193193065"><ele>48.0</ele><time>2026-04-28T13:33:41.999Z</time></trkpt><trkpt lat="49.192340617133986" lon="2.521222201603461"><ele>48.0</ele><time>2026-04-28T13:33:43.999Z</time></trkpt><trkpt lat="49.192324081792016" lon="2.5213873828038826"><ele>48.0</ele><time>2026-04-28T13:33:45.999Z</time></trkpt><trkpt lat="49.192304695580624" lon="2.521563830306445"><ele>48.0</ele><time>2026-04-28T13:33:47.999Z</time></trkpt><trkpt lat="49.19228651599938" lon="2.52173964746145"><ele>48.0</ele><time>2026-04-28T13:33:49.999Z</time></trkpt><trkpt lat="49.19226852300885" lon="2.5219170088792824"><ele>48.0</ele><time>2026-04-28T13:33:51.999Z</time></trkpt><trkpt lat="49.19226301513559" lon="2.5221016825334224"><ele>48.0</ele><time>2026-04-28T13:33:53.999Z</time></trkpt><trkpt lat="49.19227174909356" lon="2.522279042214975"><ele>48.0</ele><time>2026-04-28T13:33:55.999Z</time></trkpt><trkpt lat="49.192284721042284" lon="2.5224543303622093"><ele>48.2</ele><time>2026-04-28T13:33:57.999Z</time></trkpt><trkpt lat="49.19230587211485" lon="2.5226254998911233"><ele>48.4</ele><time>2026-04-28T13:33:59.998Z</time></trkpt><trkpt lat="49.1923245542963" lon="2.522780142088421"><ele>48.6</ele><time>2026-04-28T13:34:01.998Z</time></trkpt><trkpt lat="49.192346806956735" lon="2.52293400907859"><ele>48.800000000000004</ele><time>2026-04-28T13:34:03.998Z</time></trkpt><trkpt lat="49.19236701571268" lon="2.5230745926258833"><ele>49.0</ele><time>2026-04-28T13:34:05.998Z</time></trkpt><trkpt lat="49.19238335184038" lon="2.5232039855441735"><ele>48.49999999999999</ele><time>2026-04-28T13:34:07.998Z</time></trkpt><trkpt lat="49.192394598391424" lon="2.5233287217670637"><ele>48.0</ele><time>2026-04-28T13:34:09.998Z</time></trkpt><trkpt lat="49.19240724517336" lon="2.52345100089984"><ele>47.5</ele><time>2026-04-28T13:34:11.998Z</time></trkpt><trkpt lat="49.19242522123929" lon="2.523577578183055"><ele>47.0</ele><time>2026-04-28T13:34:13.998Z</time></trkpt><trkpt lat="49.19244279030513" lon="2.5237072989311966"><ele>46.5</ele><time>2026-04-28T13:34:15.998Z</time></trkpt><trkpt lat="49.19245859915115" lon="2.5238415926773086"><ele>46.0</ele><time>2026-04-28T13:34:17.998Z</time></trkpt><trkpt lat="49.192474987945076" lon="2.5239787022525118"><ele>46.0</ele><time>2026-04-28T13:34:19.998Z</time></trkpt><trkpt lat="49.19249279695053" lon="2.5241223647144677"><ele>46.0</ele><time>2026-04-28T13:34:21.998Z</time></trkpt><trkpt lat="49.19251279197405" lon="2.524272306124484"><ele>46.0</ele><time>2026-04-28T13:34:23.998Z</time></trkpt><trkpt lat="49.19252748457164" lon="2.5244268895055515"><ele>46.0</ele><time>2026-04-28T13:34:25.998Z</time></trkpt><trkpt lat="49.19254387671273" lon="2.5245797863280424"><ele>46.0</ele><time>2026-04-28T13:34:27.998Z</time></trkpt><trkpt lat="49.19256355751173" lon="2.5247447609032685"><ele>46.199999999999996</ele><time>2026-04-28T13:34:29.998Z</time></trkpt><trkpt lat="49.1925829776008" lon="2.5249103671075606"><ele>46.4</ele><time>2026-04-28T13:34:31.998Z</time></trkpt><trkpt lat="49.19260800593509" lon="2.5250683608290667"><ele>46.6</ele><time>2026-04-28T13:34:33.997Z</time></trkpt><trkpt lat="49.192623893913876" lon="2.5252271453759585"><ele>46.8</ele><time>2026-04-28T13:34:35.997Z</time></trkpt><trkpt lat="49.19264359533834" lon="2.5253819745395916"><ele>47.0</ele><time>2026-04-28T13:34:37.997Z</time></trkpt><trkpt lat="49.19266490096491" lon="2.525535565239339"><ele>47.400000000000006</ele><time>2026-04-28T13:34:39.997Z</time></trkpt><trkpt lat="49.192675554946554" lon="2.5256862261528896"><ele>47.800000000000004</ele><time>2026-04-28T13:34:41.997Z</time></trkpt><trkpt lat="49.19269321689048" lon="2.525833267238066"><ele>48.2</ele><time>2026-04-28T13:34:43.997Z</time></trkpt><trkpt lat="49.192710761570375" lon="2.5259803002946826"><ele>48.6</ele><time>2026-04-28T13:34:45.997Z</time></trkpt><trkpt lat="49.19273227168216" lon="2.526129366376929"><ele>49.0</ele><time>2026-04-28T13:34:47.997Z</time></trkpt><trkpt lat="49.192749803578096" lon="2.5262715182258986"><ele>49.400000000000006</ele><time>2026-04-28T13:34:49.997Z</time></trkpt><trkpt lat="49.19276758831583" lon="2.5264146373953835"><ele>49.8</ele><time>2026-04-28T13:34:51.997Z</time></trkpt><trkpt lat="49.192784240162084" lon="2.526553005023455"><ele>50.2</ele><time>2026-04-28T13:34:54Z</time></trkpt><trkpt lat="49.19280518474126" lon="2.5266851763344507"><ele>50.599999999999994</ele><time>2026-04-28T13:34:56Z</time></trkpt><trkpt lat="49.19281894096179" lon="2.5268206157273547"><ele>51.0</ele><time>2026-04-28T13:34:58Z</time></trkpt><trkpt lat="49.19283369581523" lon="2.526949784063751"><ele>51.333333333333336</ele><time>2026-04-28T13:35:00Z</time></trkpt><trkpt lat="49.1928517844016" lon="2.527078767863438"><ele>51.66666666666667</ele><time>2026-04-28T13:35:02Z</time></trkpt><trkpt lat="49.19286857313874" lon="2.5272118221152704"><ele>52.0</ele><time>2026-04-28T13:35:04Z</time></trkpt><trkpt lat="49.19288339338252" lon="2.527346284938247"><ele>52.333333333333336</ele><time>2026-04-28T13:35:06Z</time></trkpt><trkpt lat="49.19289863623545" lon="2.5274828476261564"><ele>52.66666666666667</ele><time>2026-04-28T13:35:08Z</time></trkpt><trkpt lat="49.19291566611419" lon="2.5276223579040513"><ele>53.0</ele><time>2026-04-28T13:35:10Z</time></trkpt><trkpt lat="49.19293090818015" lon="2.5277687276114684"><ele>52.8</ele><time>2026-04-28T13:35:12Z</time></trkpt><trkpt lat="49.19294583938723" lon="2.5279111480449132"><ele>52.599999999999994</ele><time>2026-04-28T13:35:14Z</time></trkpt><trkpt lat="49.192962990018536" lon="2.528055056880414"><ele>52.400000000000006</ele><time>2026-04-28T13:35:16Z</time></trkpt><trkpt lat="49.19298124279385" lon="2.5281938525616714"><ele>52.2</ele><time>2026-04-28T13:35:18Z</time></trkpt><trkpt lat="49.192994674503126" lon="2.5283356748065757"><ele>52.0</ele><time>2026-04-28T13:35:20Z</time></trkpt><trkpt lat="49.19301456250908" lon="2.528477808911848"><ele>52.0</ele><time>2026-04-28T13:35:22Z</time></trkpt><trkpt lat="49.19303075407747" lon="2.52862117497737"><ele>52.0</ele><time>2026-04-28T13:35:24Z</time></trkpt><trkpt lat="49.193051289403485" lon="2.528765309878046"><ele>52.0</ele><time>2026-04-28T13:35:26Z</time></trkpt><trkpt lat="49.19306863167005" lon="2.528909516782141"><ele>52.0</ele><time>2026-04-28T13:35:28Z</time></trkpt><trkpt lat="49.19308836152166" lon="2.529048275287731"><ele>52.0</ele><time>2026-04-28T13:35:29.999Z</time></trkpt><trkpt lat="49.193106317897055" lon="2.529187833611049"><ele>51.99999999999999</ele><time>2026-04-28T13:35:31.999Z</time></trkpt><trkpt lat="49.193131561575456" lon="2.5293242623168317"><ele>52.0</ele><time>2026-04-28T13:35:33.999Z</time></trkpt><trkpt lat="49.19315605736469" lon="2.5294542238996427"><ele>52.0</ele><time>2026-04-28T13:35:35.999Z</time></trkpt><trkpt lat="49.19318181890584" lon="2.529580466759415"><ele>52.0</ele><time>2026-04-28T13:35:37.999Z</time></trkpt><trkpt lat="49.19320582684324" lon="2.529709841734124"><ele>51.99999999999999</ele><time>2026-04-28T13:35:39.999Z</time></trkpt><trkpt lat="49.193232925474476" lon="2.529838835554672"><ele>52.0</ele><time>2026-04-28T13:35:41.999Z</time></trkpt><trkpt lat="49.19326052525989" lon="2.52996438270321"><ele>51.99999999999999</ele><time>2026-04-28T13:35:43.999Z</time></trkpt><trkpt lat="49.1932871311691" lon="2.5300879689493025"><ele>52.0</ele><time>2026-04-28T13:35:45.999Z</time></trkpt><trkpt lat="49.1933131574739" lon="2.5302149122196727"><ele>52.0</ele><time>2026-04-28T13:35:47.999Z</time></trkpt><trkpt lat="49.19334032711182" lon="2.5303481871984284"><ele>52.0</ele><time>2026-04-28T13:35:49.999Z</time></trkpt><trkpt lat="49.19336890341215" lon="2.5304817262044637"><ele>51.99999999999999</ele><time>2026-04-28T13:35:51.999Z</time></trkpt><trkpt lat="49.19339937055789" lon="2.53061552266026"><ele>52.0</ele><time>2026-04-28T13:35:53.999Z</time></trkpt><trkpt lat="49.19343049829657" lon="2.5307450224923436"><ele>52.0</ele><time>2026-04-28T13:35:55.999Z</time></trkpt><trkpt lat="49.19346070587548" lon="2.5308729854714693"><ele>52.0</ele><time>2026-04-28T13:35:57.999Z</time></trkpt><trkpt lat="49.193490986688204" lon="2.5310019944446633"><ele>52.0</ele><time>2026-04-28T13:35:59.999Z</time></trkpt><trkpt lat="49.19351622613612" lon="2.5311384435437647"><ele>52.0</ele><time>2026-04-28T13:36:01.999Z</time></trkpt><trkpt lat="49.19354938903174" lon="2.531271689486193"><ele>52.0</ele><time>2026-04-28T13:36:03.998Z</time></trkpt><trkpt lat="49.19358477891628" lon="2.531404451047653"><ele>52.400000000000006</ele><time>2026-04-28T13:36:05.998Z</time></trkpt><trkpt lat="49.19361758837416" lon="2.531543102274033"><ele>52.800000000000004</ele><time>2026-04-28T13:36:07.998Z</time></trkpt><trkpt lat="49.193657240255654" lon="2.5316790716470843"><ele>53.2</ele><time>2026-04-28T13:36:09.998Z</time></trkpt><trkpt lat="49.19370133076028" lon="2.531812778664426"><ele>53.6</ele><time>2026-04-28T13:36:11.998Z</time></trkpt><trkpt lat="49.19374667228913" lon="2.531950946574361"><ele>54.0</ele><time>2026-04-28T13:36:13.998Z</time></trkpt><trkpt lat="49.193797691943175" lon="2.532096955168195"><ele>54.0</ele><time>2026-04-28T13:36:15.998Z</time></trkpt><trkpt lat="49.193849686531834" lon="2.5322414332419134"><ele>54.00000000000001</ele><time>2026-04-28T13:36:17.998Z</time></trkpt><trkpt lat="49.193901820738475" lon="2.532378244161966"><ele>54.00000000000001</ele><time>2026-04-28T13:36:19.998Z</time></trkpt><trkpt lat="49.19395489380434" lon="2.5325264361082302"><ele>54.0</ele><time>2026-04-28T13:36:21.998Z</time></trkpt><trkpt lat="49.194010621671644" lon="2.532680876952007"><ele>54.0</ele><time>2026-04-28T13:36:23.998Z</time></trkpt><trkpt lat="49.19405970668347" lon="2.5328359144500068"><ele>53.75</ele><time>2026-04-28T13:36:25.998Z</time></trkpt><trkpt lat="49.194112392705776" lon="2.5329855332612823"><ele>53.5</ele><time>2026-04-28T13:36:27.998Z</time></trkpt><trkpt lat="49.194164129838775" lon="2.533137239047632"><ele>53.25</ele><time>2026-04-28T13:36:29.998Z</time></trkpt><trkpt lat="49.19420378710458" lon="2.533302900550582"><ele>53.0</ele><time>2026-04-28T13:36:31.998Z</time></trkpt><trkpt lat="49.19423134999556" lon="2.5334860947467828"><ele>53.0</ele><time>2026-04-28T13:36:33.998Z</time></trkpt><trkpt lat="49.19424794332581" lon="2.5336549367372436"><ele>53.0</ele><time>2026-04-28T13:36:35.998Z</time></trkpt><trkpt lat="49.194240149691566" lon="2.5338230213953086"><ele>53.0</ele><time>2026-04-28T13:36:37.997Z</time></trkpt><trkpt lat="49.194229568477645" lon="2.5339861659696203"><ele>53.0</ele><time>2026-04-28T13:36:39.997Z</time></trkpt><trkpt lat="49.19422704993633" lon="2.534143949137436"><ele>53.0</ele><time>2026-04-28T13:36:41.997Z</time></trkpt><trkpt lat="49.194218025512185" lon="2.534301937491701"><ele>53.0</ele><time>2026-04-28T13:36:43.997Z</time></trkpt><trkpt lat="49.19421497688832" lon="2.534459252859284"><ele>53.0</ele><time>2026-04-28T13:36:45.997Z</time></trkpt><trkpt lat="49.194210450736435" lon="2.5346226465352055"><ele>53.0</ele><time>2026-04-28T13:36:47.997Z</time></trkpt><trkpt lat="49.194199013541144" lon="2.534774376931861"><ele>53.0</ele><time>2026-04-28T13:36:49.997Z</time></trkpt><trkpt lat="49.19418969763779" lon="2.5349289333405665"><ele>53.0</ele><time>2026-04-28T13:36:51.997Z</time></trkpt><trkpt lat="49.19417652857717" lon="2.5350782767321998"><ele>53.4</ele><time>2026-04-28T13:36:53.997Z</time></trkpt><trkpt lat="49.19416685019612" lon="2.535234054464392"><ele>53.8</ele><time>2026-04-28T13:36:55.997Z</time></trkpt><trkpt lat="49.19416340459179" lon="2.535391353331845"><ele>54.2</ele><time>2026-04-28T13:36:57.997Z</time></trkpt><trkpt lat="49.19416049340066" lon="2.5355393126861525"><ele>54.6</ele><time>2026-04-28T13:37:00Z</time></trkpt><trkpt lat="49.19416355628566" lon="2.5356798095563766"><ele>55.0</ele><time>2026-04-28T13:37:02Z</time></trkpt><trkpt lat="49.194167860915364" lon="2.5358204967564824"><ele>55.0</ele><time>2026-04-28T13:37:04Z</time></trkpt><trkpt lat="49.19417175280982" lon="2.5359550737793013"><ele>55.0</ele><time>2026-04-28T13:37:06Z</time></trkpt><trkpt lat="49.194175079721425" lon="2.5360882256422412"><ele>55.0</ele><time>2026-04-28T13:37:08Z</time></trkpt><trkpt lat="49.19417886396698" lon="2.536229605522301"><ele>55.0</ele><time>2026-04-28T13:37:10Z</time></trkpt><trkpt lat="49.19417157692919" lon="2.5363699653388423"><ele>55.0</ele><time>2026-04-28T13:37:12Z</time></trkpt><trkpt lat="49.194127005816654" lon="2.5365056765175966"><ele>55.0</ele><time>2026-04-28T13:37:14Z</time></trkpt><trkpt lat="49.19406625948544" lon="2.5366257422322445"><ele>55.0</ele><time>2026-04-28T13:37:16Z</time></trkpt><trkpt lat="49.19400072197929" lon="2.5367385757953524"><ele>55.0</ele><time>2026-04-28T13:37:18Z</time></trkpt><trkpt lat="49.193918785533675" lon="2.5368518489422334"><ele>55.0</ele><time>2026-04-28T13:37:20Z</time></trkpt><trkpt lat="49.19385101274435" lon="2.5369518902622916"><ele>55.0</ele><time>2026-04-28T13:37:22Z</time></trkpt><trkpt lat="49.19378190150368" lon="2.537019949276177"><ele>55.2</ele><time>2026-04-28T13:37:24Z</time></trkpt><trkpt lat="49.19372508910121" lon="2.537122372939951"><ele>55.4</ele><time>2026-04-28T13:37:26Z</time></trkpt><trkpt lat="49.193720168128" lon="2.537265889033302"><ele>55.599999999999994</ele><time>2026-04-28T13:37:28Z</time></trkpt><trkpt lat="49.193734299886565" lon="2.5374070995008706"><ele>55.8</ele><time>2026-04-28T13:37:30Z</time></trkpt><trkpt lat="49.193756554826564" lon="2.5375542061506193"><ele>56.0</ele><time>2026-04-28T13:37:32Z</time></trkpt><trkpt lat="49.193777586160486" lon="2.5377019242457526"><ele>56.0</ele><time>2026-04-28T13:37:34Z</time></trkpt><trkpt lat="49.19375925131491" lon="2.5378407281149733"><ele>55.99999999999999</ele><time>2026-04-28T13:37:36Z</time></trkpt><trkpt lat="49.19374274680519" lon="2.5379974380582633"><ele>55.99999999999999</ele><time>2026-04-28T13:37:37.999Z</time></trkpt><trkpt lat="49.19372115160664" lon="2.538154622367954"><ele>56.0</ele><time>2026-04-28T13:37:39.999Z</time></trkpt><trkpt lat="49.1937288334054" lon="2.538321377857703"><ele>56.0</ele><time>2026-04-28T13:37:41.999Z</time></trkpt><trkpt lat="49.19375669108873" lon="2.5385000911605733"><ele>55.833333333333336</ele><time>2026-04-28T13:37:43.999Z</time></trkpt><trkpt lat="49.193774205035375" lon="2.538592757882027"><ele>55.66666666666667</ele><time>2026-04-28T13:37:44.999Z</time></trkpt><trkpt lat="49.193787627524" lon="2.538687897119877"><ele>55.5</ele><time>2026-04-28T13:37:45.999Z</time></trkpt><trkpt lat="49.19381180808368" lon="2.5388814887792495"><ele>55.33333333333333</ele><time>2026-04-28T13:37:47.999Z</time></trkpt><trkpt lat="49.19381556961807" lon="2.5389940904735586"><ele>55.166666666666664</ele><time>2026-04-28T13:37:48.999Z</time></trkpt><trkpt lat="49.193852267567664" lon="2.5390968602513198"><ele>55.0</ele><time>2026-04-28T13:37:49.999Z</time></trkpt><trkpt lat="49.19386826013798" lon="2.5392056837487362"><ele>54.666666666666664</ele><time>2026-04-28T13:37:50.999Z</time></trkpt><trkpt lat="49.19389595548222" lon="2.539300505717216"><ele>54.33333333333333</ele><time>2026-04-28T13:37:51.999Z</time></trkpt><trkpt lat="49.19392569413809" lon="2.539415357934854"><ele>54.0</ele><time>2026-04-28T13:37:52.999Z</time></trkpt><trkpt lat="49.19395912382597" lon="2.539534587120493"><ele>53.66666666666667</ele><time>2026-04-28T13:37:53.999Z</time></trkpt><trkpt lat="49.19398784611242" lon="2.5396531897338455"><ele>53.333333333333336</ele><time>2026-04-28T13:37:54.999Z</time></trkpt><trkpt lat="49.19400722836103" lon="2.539786146600371"><ele>53.0</ele><time>2026-04-28T13:37:55.999Z</time></trkpt><trkpt lat="49.19403009386954" lon="2.5398993486632673"><ele>52.50000000000001</ele><time>2026-04-28T13:37:56.999Z</time></trkpt><trkpt lat="49.19406446070346" lon="2.540021390244984"><ele>52.0</ele><time>2026-04-28T13:37:57.999Z</time></trkpt><trkpt lat="49.194094524182105" lon="2.540144418539366"><ele>51.5</ele><time>2026-04-28T13:37:58.999Z</time></trkpt><trkpt lat="49.19410281013554" lon="2.540266060489344"><ele>51.0</ele><time>2026-04-28T13:37:59.999Z</time></trkpt><trkpt lat="49.1941371436776" lon="2.540377255369138"><ele>50.50000000000001</ele><time>2026-04-28T13:38:00.999Z</time></trkpt><trkpt lat="49.19416199719928" lon="2.54049358066073"><ele>50.0</ele><time>2026-04-28T13:38:01.999Z</time></trkpt><trkpt lat="49.19417875527434" lon="2.540609454942631"><ele>50.00000000000001</ele><time>2026-04-28T13:38:02.999Z</time></trkpt><trkpt lat="49.194198205121474" lon="2.5407358174732164"><ele>50.0</ele><time>2026-04-28T13:38:03.999Z</time></trkpt><trkpt lat="49.19422464366461" lon="2.540855709375532"><ele>50.0</ele><time>2026-04-28T13:38:04.999Z</time></trkpt><trkpt lat="49.194244846766956" lon="2.5409737673882193"><ele>50.0</ele><time>2026-04-28T13:38:05.999Z</time></trkpt><trkpt lat="49.19427122205707" lon="2.5410909371509893"><ele>50.00000000000001</ele><time>2026-04-28T13:38:06.999Z</time></trkpt><trkpt lat="49.1942937694241" lon="2.5412005328374816"><ele>50.0</ele><time>2026-04-28T13:38:07.999Z</time></trkpt><trkpt lat="49.19431548156943" lon="2.541305868198246"><ele>50.0</ele><time>2026-04-28T13:38:08.999Z</time></trkpt><trkpt lat="49.19433800718003" lon="2.541405608524604"><ele>50.0</ele><time>2026-04-28T13:38:09.999Z</time></trkpt><trkpt lat="49.194382178412816" lon="2.5415740909441107"><ele>50.0</ele><time>2026-04-28T13:38:11.998Z</time></trkpt><trkpt lat="49.1944421172356" lon="2.541725898847811"><ele>50.0</ele><time>2026-04-28T13:38:13.998Z</time></trkpt><trkpt lat="49.19452469562156" lon="2.5418387419810493"><ele>50.0</ele><time>2026-04-28T13:38:15.998Z</time></trkpt><trkpt lat="49.19459496627236" lon="2.5419194427800256"><ele>50.00000000000001</ele><time>2026-04-28T13:38:17.998Z</time></trkpt><trkpt lat="49.194671275170954" lon="2.542000248886468"><ele>50.0</ele><time>2026-04-28T13:38:19.998Z</time></trkpt><trkpt lat="49.19474653127536" lon="2.5420813202081525"><ele>50.0</ele><time>2026-04-28T13:38:21.998Z</time></trkpt><trkpt lat="49.19480866521729" lon="2.542152128935498"><ele>50.0</ele><time>2026-04-28T13:38:23.998Z</time></trkpt><trkpt lat="49.19487287408272" lon="2.5422127378385473"><ele>50.00000000000001</ele><time>2026-04-28T13:38:25.998Z</time></trkpt><trkpt lat="49.19493206508429" lon="2.5422868356988557"><ele>50.0</ele><time>2026-04-28T13:38:27.998Z</time></trkpt><trkpt lat="49.19499115582572" lon="2.5423637127634895"><ele>50.833333333333336</ele><time>2026-04-28T13:38:29.998Z</time></trkpt><trkpt lat="49.19505158088576" lon="2.542435490328075"><ele>51.66666666666667</ele><time>2026-04-28T13:38:31.998Z</time></trkpt><trkpt lat="49.19511323766121" lon="2.5425151062330684"><ele>52.5</ele><time>2026-04-28T13:38:33.998Z</time></trkpt><trkpt lat="49.195169778796036" lon="2.5426003262780994"><ele>53.33333333333333</ele><time>2026-04-28T13:38:35.998Z</time></trkpt><trkpt lat="49.195190254351516" lon="2.5427174442414255"><ele>54.166666666666664</ele><time>2026-04-28T13:38:37.998Z</time></trkpt><trkpt lat="49.19521352458378" lon="2.5428377196085945"><ele>55.0</ele><time>2026-04-28T13:38:39.998Z</time></trkpt><trkpt lat="49.19521819089518" lon="2.542961499660383"><ele>55.166666666666664</ele><time>2026-04-28T13:38:41.998Z</time></trkpt><trkpt lat="49.19522265811841" lon="2.5430789902422952"><ele>55.33333333333333</ele><time>2026-04-28T13:38:43.997Z</time></trkpt><trkpt lat="49.195226371374346" lon="2.5431977249948576"><ele>55.5</ele><time>2026-04-28T13:38:45.997Z</time></trkpt><trkpt lat="49.19523036429474" lon="2.5433211240962494"><ele>55.66666666666667</ele><time>2026-04-28T13:38:47.997Z</time></trkpt><trkpt lat="49.195234675491236" lon="2.5434508339870177"><ele>55.833333333333336</ele><time>2026-04-28T13:38:49.997Z</time></trkpt><trkpt lat="49.195225156824" lon="2.5435785994708824"><ele>56.0</ele><time>2026-04-28T13:38:51.997Z</time></trkpt><trkpt lat="49.19524358433092" lon="2.5437058992099035"><ele>56.0</ele><time>2026-04-28T13:38:53.997Z</time></trkpt><trkpt lat="49.1952467339366" lon="2.5438389596038067"><ele>55.99999999999999</ele><time>2026-04-28T13:38:55.997Z</time></trkpt><trkpt lat="49.19524966743263" lon="2.5439723470387823"><ele>55.99999999999999</ele><time>2026-04-28T13:38:57.997Z</time></trkpt><trkpt lat="49.19525631735809" lon="2.5441118841517394"><ele>56.0</ele><time>2026-04-28T13:38:59.997Z</time></trkpt><trkpt lat="49.1952573841106" lon="2.544253647560435"><ele>56.0</ele><time>2026-04-28T13:39:01.997Z</time></trkpt><trkpt lat="49.195263017335165" lon="2.544397505583176"><ele>56.0</ele><time>2026-04-28T13:39:03.997Z</time></trkpt><trkpt lat="49.19526775182284" lon="2.544542582485111"><ele>55.99999999999999</ele><time>2026-04-28T13:39:06Z</time></trkpt><trkpt lat="49.1952752707277" lon="2.544682402845616"><ele>55.99999999999999</ele><time>2026-04-28T13:39:08Z</time></trkpt><trkpt lat="49.195279805200876" lon="2.5448233802604765"><ele>56.0</ele><time>2026-04-28T13:39:10Z</time></trkpt><trkpt lat="49.19528454381733" lon="2.5449583668064806"><ele>56.0</ele><time>2026-04-28T13:39:12Z</time></trkpt><trkpt lat="49.195290801936125" lon="2.5451086420870643"><ele>55.8</ele><time>2026-04-28T13:39:14Z</time></trkpt><trkpt lat="49.19529374168871" lon="2.545248836186419"><ele>55.599999999999994</ele><time>2026-04-28T13:39:16Z</time></trkpt><trkpt lat="49.19529667139337" lon="2.545413737729304"><ele>55.4</ele><time>2026-04-28T13:39:18Z</time></trkpt><trkpt lat="49.19530029955417" lon="2.545575882015588"><ele>55.2</ele><time>2026-04-28T13:39:20Z</time></trkpt><trkpt lat="49.19530247690548" lon="2.5457342548178175"><ele>55.0</ele><time>2026-04-28T13:39:22Z</time></trkpt><trkpt lat="49.19530255791023" lon="2.545883001053366"><ele>55.0</ele><time>2026-04-28T13:39:24Z</time></trkpt><trkpt lat="49.19530801116841" lon="2.546050584079564"><ele>55.0</ele><time>2026-04-28T13:39:26Z</time></trkpt><trkpt lat="49.19531245925686" lon="2.5462028696180115"><ele>55.0</ele><time>2026-04-28T13:39:28Z</time></trkpt><trkpt lat="49.19530958273285" lon="2.5463521273837286"><ele>55.0</ele><time>2026-04-28T13:39:30Z</time></trkpt><trkpt lat="49.19532548513501" lon="2.546508707575428"><ele>55.0</ele><time>2026-04-28T13:39:32Z</time></trkpt><trkpt lat="49.19531833758692" lon="2.5466591347053678"><ele>55.5</ele><time>2026-04-28T13:39:34Z</time></trkpt><trkpt lat="49.19532203104679" lon="2.546788985961059"><ele>56.0</ele><time>2026-04-28T13:39:36Z</time></trkpt><trkpt lat="49.19532559633812" lon="2.5469143315259752"><ele>56.5</ele><time>2026-04-28T13:39:38Z</time></trkpt><trkpt lat="49.195331575405156" lon="2.5470932635687085"><ele>57.0</ele><time>2026-04-28T13:39:40Z</time></trkpt><trkpt lat="49.195351273653344" lon="2.5473999509502283"><ele>57.0</ele><time>2026-04-28T13:39:43.999Z</time></trkpt><trkpt lat="49.195347668565006" lon="2.547551752313898"><ele>57.0</ele><time>2026-04-28T13:39:45.999Z</time></trkpt><trkpt lat="49.19535340673565" lon="2.5477152306569555"><ele>57.0</ele><time>2026-04-28T13:39:47.999Z</time></trkpt><trkpt lat="49.195359769637584" lon="2.5478757154984373"><ele>57.0</ele><time>2026-04-28T13:39:49.999Z</time></trkpt><trkpt lat="49.19536629576068" lon="2.5480269786403698"><ele>57.0</ele><time>2026-04-28T13:39:51.999Z</time></trkpt><trkpt lat="49.19538914420428" lon="2.548181871355904"><ele>56.8</ele><time>2026-04-28T13:39:53.999Z</time></trkpt><trkpt lat="49.19538544650695" lon="2.5483615789188594"><ele>56.6</ele><time>2026-04-28T13:39:55.999Z</time></trkpt><trkpt lat="49.19539738046302" lon="2.548526129323386"><ele>56.39999999999999</ele><time>2026-04-28T13:39:57.999Z</time></trkpt><trkpt lat="49.195402718344205" lon="2.548696988724414"><ele>56.199999999999996</ele><time>2026-04-28T13:39:59.999Z</time></trkpt><trkpt lat="49.19540525767245" lon="2.548867290868115"><ele>56.0</ele><time>2026-04-28T13:40:01.999Z</time></trkpt><trkpt lat="49.195406917438476" lon="2.5490051524307376"><ele>56.0</ele><time>2026-04-28T13:40:03.999Z</time></trkpt><trkpt lat="49.195417989153725" lon="2.5491586555405856"><ele>55.99999999999999</ele><time>2026-04-28T13:40:05.999Z</time></trkpt><trkpt lat="49.19542612232821" lon="2.549306124681057"><ele>55.99999999999999</ele><time>2026-04-28T13:40:07.999Z</time></trkpt><trkpt lat="49.195435160056704" lon="2.549456995608826"><ele>56.0</ele><time>2026-04-28T13:40:09.999Z</time></trkpt><trkpt lat="49.19544514908469" lon="2.549603659606981"><ele>56.0</ele><time>2026-04-28T13:40:11.999Z</time></trkpt><trkpt lat="49.19545186747861" lon="2.5497531404386073"><ele>56.0</ele><time>2026-04-28T13:40:13.999Z</time></trkpt><trkpt lat="49.19546157804724" lon="2.5498976988357276"><ele>55.99999999999999</ele><time>2026-04-28T13:40:15.999Z</time></trkpt><trkpt lat="49.19547327798041" lon="2.550047711927833"><ele>55.99999999999999</ele><time>2026-04-28T13:40:17.998Z</time></trkpt><trkpt lat="49.1954824213286" lon="2.550201217560405"><ele>56.0</ele><time>2026-04-28T13:40:19.998Z</time></trkpt><trkpt lat="49.19549349698178" lon="2.550350192391022"><ele>56.0</ele><time>2026-04-28T13:40:21.998Z</time></trkpt><trkpt lat="49.19550591601875" lon="2.5505059684694795"><ele>56.0</ele><time>2026-04-28T13:40:23.998Z</time></trkpt><trkpt lat="49.195520987441895" lon="2.5506570580561876"><ele>55.99999999999999</ele><time>2026-04-28T13:40:25.998Z</time></trkpt><trkpt lat="49.195530479608806" lon="2.550807497299668"><ele>55.99999999999999</ele><time>2026-04-28T13:40:27.998Z</time></trkpt><trkpt lat="49.19554246308009" lon="2.550968436428436"><ele>56.0</ele><time>2026-04-28T13:40:29.998Z</time></trkpt><trkpt lat="49.195562565086405" lon="2.5511223563285275"><ele>56.0</ele><time>2026-04-28T13:40:31.998Z</time></trkpt><trkpt lat="49.19557928586744" lon="2.5512815714082353"><ele>56.0</ele><time>2026-04-28T13:40:33.998Z</time></trkpt><trkpt lat="49.19560948080188" lon="2.551451845878027"><ele>56.0</ele><time>2026-04-28T13:40:35.998Z</time></trkpt><trkpt lat="49.195632344041435" lon="2.551633591402594"><ele>56.0</ele><time>2026-04-28T13:40:37.998Z</time></trkpt><trkpt lat="49.19566132587411" lon="2.55181412066336"><ele>56.0</ele><time>2026-04-28T13:40:39.998Z</time></trkpt><trkpt lat="49.195696925372125" lon="2.551997280219331"><ele>55.57142857142857</ele><time>2026-04-28T13:40:41.998Z</time></trkpt><trkpt lat="49.195719959935865" lon="2.5520874903359854"><ele>55.14285714285714</ele><time>2026-04-28T13:40:42.998Z</time></trkpt><trkpt lat="49.195745167267695" lon="2.552181362156763"><ele>54.714285714285715</ele><time>2026-04-28T13:40:43.998Z</time></trkpt><trkpt lat="49.19577067733076" lon="2.5522753434007046"><ele>54.285714285714285</ele><time>2026-04-28T13:40:44.998Z</time></trkpt><trkpt lat="49.19579857132504" lon="2.5523750561911127"><ele>53.857142857142854</ele><time>2026-04-28T13:40:45.998Z</time></trkpt><trkpt lat="49.19583712025051" lon="2.55247168285611"><ele>53.42857142857143</ele><time>2026-04-28T13:40:46.998Z</time></trkpt><trkpt lat="49.195877121501425" lon="2.5525647925795076"><ele>53.0</ele><time>2026-04-28T13:40:47.998Z</time></trkpt><trkpt lat="49.19590482686871" lon="2.552670640829599"><ele>53.00000000000001</ele><time>2026-04-28T13:40:48.998Z</time></trkpt><trkpt lat="49.19593025056779" lon="2.5527816526693288"><ele>53.0</ele><time>2026-04-28T13:40:49.998Z</time></trkpt><trkpt lat="49.19596120337836" lon="2.552895309760939"><ele>53.0</ele><time>2026-04-28T13:40:50.997Z</time></trkpt><trkpt lat="49.19598765991589" lon="2.553014502397293"><ele>53.0</ele><time>2026-04-28T13:40:51.997Z</time></trkpt><trkpt lat="49.196014447113896" lon="2.553127677660292"><ele>53.00000000000001</ele><time>2026-04-28T13:40:52.997Z</time></trkpt><trkpt lat="49.1960390026382" lon="2.5532470074045768"><ele>53.0</ele><time>2026-04-28T13:40:53.997Z</time></trkpt><trkpt lat="49.1960572124436" lon="2.553376388665237"><ele>52.833333333333336</ele><time>2026-04-28T13:40:54.997Z</time></trkpt><trkpt lat="49.19606411900311" lon="2.5535078053636724"><ele>52.66666666666667</ele><time>2026-04-28T13:40:55.997Z</time></trkpt><trkpt lat="49.19606213797712" lon="2.5536340915303004"><ele>52.5</ele><time>2026-04-28T13:40:56.997Z</time></trkpt><trkpt lat="49.19605050208294" lon="2.5537601085424946"><ele>52.33333333333333</ele><time>2026-04-28T13:40:57.997Z</time></trkpt><trkpt lat="49.19603543507721" lon="2.5538837473886584"><ele>52.166666666666664</ele><time>2026-04-28T13:40:58.997Z</time></trkpt><trkpt lat="49.196023387717844" lon="2.5540017847863727"><ele>52.0</ele><time>2026-04-28T13:40:59.997Z</time></trkpt><trkpt lat="49.19601306789381" lon="2.5541156832975003"><ele>51.857142857142854</ele><time>2026-04-28T13:41:00.997Z</time></trkpt><trkpt lat="49.196002513871306" lon="2.5542284920027347"><ele>51.714285714285715</ele><time>2026-04-28T13:41:01.997Z</time></trkpt><trkpt lat="49.19598727847569" lon="2.554334984383418"><ele>51.57142857142857</ele><time>2026-04-28T13:41:02.997Z</time></trkpt><trkpt lat="49.19597679572273" lon="2.554442820474323"><ele>51.42857142857143</ele><time>2026-04-28T13:41:03.997Z</time></trkpt><trkpt lat="49.19596223921243" lon="2.5545468992011466"><ele>51.28571428571429</ele><time>2026-04-28T13:41:04.997Z</time></trkpt><trkpt lat="49.19595449704973" lon="2.5546495827446076"><ele>51.142857142857146</ele><time>2026-04-28T13:41:05.997Z</time></trkpt><trkpt lat="49.19593953937889" lon="2.554751209669349"><ele>51.0</ele><time>2026-04-28T13:41:06.997Z</time></trkpt><trkpt lat="49.1959217229946" lon="2.554848186263678"><ele>51.0</ele><time>2026-04-28T13:41:07.997Z</time></trkpt><trkpt lat="49.19589741429075" lon="2.5550284503022818"><ele>51.0</ele><time>2026-04-28T13:41:09.997Z</time></trkpt><trkpt lat="49.19587870241898" lon="2.555207951730984"><ele>51.0</ele><time>2026-04-28T13:41:12Z</time></trkpt><trkpt lat="49.19586057846243" lon="2.555388291621848"><ele>51.0</ele><time>2026-04-28T13:41:14Z</time></trkpt><trkpt lat="49.19584885421774" lon="2.555559043865714"><ele>50.4</ele><time>2026-04-28T13:41:16Z</time></trkpt><trkpt lat="49.19582702663218" lon="2.5557188149185586"><ele>49.8</ele><time>2026-04-28T13:41:18Z</time></trkpt><trkpt lat="49.19580701266911" lon="2.555875631548972"><ele>49.199999999999996</ele><time>2026-04-28T13:41:20Z</time></trkpt><trkpt lat="49.19579309975126" lon="2.5560316916882053"><ele>48.599999999999994</ele><time>2026-04-28T13:41:22Z</time></trkpt><trkpt lat="49.19576930398691" lon="2.5561828697745796"><ele>48.0</ele><time>2026-04-28T13:41:24Z</time></trkpt><trkpt lat="49.19574203535375" lon="2.556330858076324"><ele>47.8</ele><time>2026-04-28T13:41:26Z</time></trkpt><trkpt lat="49.19572878576609" lon="2.5564900543707036"><ele>47.599999999999994</ele><time>2026-04-28T13:41:28Z</time></trkpt><trkpt lat="49.19570792019155" lon="2.556648355837169"><ele>47.400000000000006</ele><time>2026-04-28T13:41:30Z</time></trkpt><trkpt lat="49.19568126560619" lon="2.5568069996618465"><ele>47.2</ele><time>2026-04-28T13:41:32Z</time></trkpt><trkpt lat="49.19566147136837" lon="2.556961153743831"><ele>47.0</ele><time>2026-04-28T13:41:34Z</time></trkpt><trkpt lat="49.19564184374538" lon="2.557120503123372"><ele>48.2</ele><time>2026-04-28T13:41:36Z</time></trkpt><trkpt lat="49.19561762521203" lon="2.557286391988694"><ele>49.400000000000006</ele><time>2026-04-28T13:41:38Z</time></trkpt><trkpt lat="49.1956015737153" lon="2.5574471029195975"><ele>50.599999999999994</ele><time>2026-04-28T13:41:40Z</time></trkpt><trkpt lat="49.19559050327293" lon="2.5576131290148827"><ele>51.8</ele><time>2026-04-28T13:41:42Z</time></trkpt><trkpt lat="49.195588065183834" lon="2.55777383204026"><ele>53.0</ele><time>2026-04-28T13:41:44Z</time></trkpt><trkpt lat="49.19559264082471" lon="2.5579334455887652"><ele>53.0</ele><time>2026-04-28T13:41:46Z</time></trkpt><trkpt lat="49.195597359720026" lon="2.5580915613462265"><ele>53.0</ele><time>2026-04-28T13:41:47.999Z</time></trkpt><trkpt lat="49.19560359480993" lon="2.5582449911719065"><ele>53.0</ele><time>2026-04-28T13:41:49.999Z</time></trkpt><trkpt lat="49.195608690856865" lon="2.5583974254506066"><ele>53.0</ele><time>2026-04-28T13:41:51.999Z</time></trkpt><trkpt lat="49.1956115774038" lon="2.558547031609151"><ele>53.0</ele><time>2026-04-28T13:41:53.999Z</time></trkpt><trkpt lat="49.19561908240754" lon="2.5586940672078784"><ele>53.0</ele><time>2026-04-28T13:41:55.999Z</time></trkpt><trkpt lat="49.195627381799106" lon="2.558838757839505"><ele>53.0</ele><time>2026-04-28T13:41:57.999Z</time></trkpt><trkpt lat="49.195635224423384" lon="2.55898447200084"><ele>53.0</ele><time>2026-04-28T13:41:59.999Z</time></trkpt><trkpt lat="49.19564151713621" lon="2.5591340312880804"><ele>53.0</ele><time>2026-04-28T13:42:01.999Z</time></trkpt><trkpt lat="49.195646178803734" lon="2.5592856092944083"><ele>53.0</ele><time>2026-04-28T13:42:03.999Z</time></trkpt><trkpt lat="49.19564834163086" lon="2.5594418109196386"><ele>53.0</ele><time>2026-04-28T13:42:05.999Z</time></trkpt><trkpt lat="49.19565665895625" lon="2.559594595483228"><ele>53.0</ele><time>2026-04-28T13:42:07.999Z</time></trkpt><trkpt lat="49.195660706570244" lon="2.559745398197686"><ele>53.0</ele><time>2026-04-28T13:42:09.999Z</time></trkpt><trkpt lat="49.19566914792616" lon="2.5598967367533354"><ele>53.0</ele><time>2026-04-28T13:42:11.999Z</time></trkpt><trkpt lat="49.19567893033364" lon="2.5600423323155805"><ele>53.0</ele><time>2026-04-28T13:42:13.999Z</time></trkpt><trkpt lat="49.195684204932974" lon="2.5601879390810125"><ele>53.0</ele><time>2026-04-28T13:42:15.999Z</time></trkpt><trkpt lat="49.19568789787709" lon="2.560339721679999"><ele>53.0</ele><time>2026-04-28T13:42:17.999Z</time></trkpt><trkpt lat="49.19569317581594" lon="2.5604892716448373"><ele>53.0</ele><time>2026-04-28T13:42:19.998Z</time></trkpt><trkpt lat="49.19569637769115" lon="2.5606505907018615"><ele>53.0</ele><time>2026-04-28T13:42:21.998Z</time></trkpt><trkpt lat="49.19570141349351" lon="2.560817832629296"><ele>53.0</ele><time>2026-04-28T13:42:23.998Z</time></trkpt><trkpt lat="49.19570312056797" lon="2.560992744150543"><ele>53.2</ele><time>2026-04-28T13:42:25.998Z</time></trkpt><trkpt lat="49.195712646564644" lon="2.5611593790408334"><ele>53.4</ele><time>2026-04-28T13:42:27.998Z</time></trkpt><trkpt lat="49.19573478295149" lon="2.5613371818436916"><ele>53.60000000000001</ele><time>2026-04-28T13:42:29.998Z</time></trkpt><trkpt lat="49.19577840900267" lon="2.5614799040557683"><ele>53.800000000000004</ele><time>2026-04-28T13:42:31.998Z</time></trkpt><trkpt lat="49.1958211064466" lon="2.5616326509633955"><ele>54.0</ele><time>2026-04-28T13:42:33.998Z</time></trkpt><trkpt lat="49.195876392182264" lon="2.5617705777962985"><ele>54.0</ele><time>2026-04-28T13:42:35.998Z</time></trkpt><trkpt lat="49.1959238736517" lon="2.56192060403559"><ele>54.00000000000001</ele><time>2026-04-28T13:42:37.998Z</time></trkpt><trkpt lat="49.195971697921735" lon="2.5620801939087876"><ele>54.00000000000001</ele><time>2026-04-28T13:42:39.998Z</time></trkpt><trkpt lat="49.196017343811064" lon="2.5622237040055977"><ele>54.0</ele><time>2026-04-28T13:42:41.998Z</time></trkpt><trkpt lat="49.19606323668897" lon="2.562366005780187"><ele>54.0</ele><time>2026-04-28T13:42:43.998Z</time></trkpt><trkpt lat="49.196103213232256" lon="2.5625053902485946"><ele>54.0</ele><time>2026-04-28T13:42:45.998Z</time></trkpt><trkpt lat="49.196138086306746" lon="2.562634340232592"><ele>54.00000000000001</ele><time>2026-04-28T13:42:47.998Z</time></trkpt><trkpt lat="49.19617627661995" lon="2.562763203872658"><ele>54.00000000000001</ele><time>2026-04-28T13:42:49.998Z</time></trkpt><trkpt lat="49.19621215564309" lon="2.5628878632596117"><ele>54.0</ele><time>2026-04-28T13:42:51.998Z</time></trkpt><trkpt lat="49.196233780981224" lon="2.5630287527310367"><ele>54.0</ele><time>2026-04-28T13:42:53.997Z</time></trkpt><trkpt lat="49.19627454151246" lon="2.563166257963386"><ele>54.400000000000006</ele><time>2026-04-28T13:42:55.997Z</time></trkpt><trkpt lat="49.1963089235985" lon="2.5633104460568097"><ele>54.800000000000004</ele><time>2026-04-28T13:42:57.997Z</time></trkpt><trkpt lat="49.19633945675869" lon="2.563454833462555"><ele>55.199999999999996</ele><time>2026-04-28T13:42:59.997Z</time></trkpt><trkpt lat="49.19637424579358" lon="2.563598710914518"><ele>55.599999999999994</ele><time>2026-04-28T13:43:01.997Z</time></trkpt><trkpt lat="49.196409114786135" lon="2.563751848228665"><ele>56.0</ele><time>2026-04-28T13:43:03.997Z</time></trkpt><trkpt lat="49.196442682303115" lon="2.5639043043136733"><ele>56.0</ele><time>2026-04-28T13:43:05.997Z</time></trkpt><trkpt lat="49.19647664196934" lon="2.5640597209012586"><ele>55.99999999999999</ele><time>2026-04-28T13:43:07.997Z</time></trkpt><trkpt lat="49.19650265194947" lon="2.564220805972819"><ele>55.99999999999999</ele><time>2026-04-28T13:43:09.997Z</time></trkpt><trkpt lat="49.196524211303284" lon="2.564380156062983"><ele>56.0</ele><time>2026-04-28T13:43:11.997Z</time></trkpt><trkpt lat="49.19654520656932" lon="2.5645364115384406"><ele>56.0</ele><time>2026-04-28T13:43:13.997Z</time></trkpt><trkpt lat="49.19655626426412" lon="2.5646948002298826"><ele>55.4</ele><time>2026-04-28T13:43:16Z</time></trkpt><trkpt lat="49.19656090404831" lon="2.564854695842252"><ele>54.8</ele><time>2026-04-28T13:43:18Z</time></trkpt><trkpt lat="49.19655516174591" lon="2.565015964771951"><ele>54.199999999999996</ele><time>2026-04-28T13:43:20Z</time></trkpt><trkpt lat="49.1965235713771" lon="2.565182405965107"><ele>53.599999999999994</ele><time>2026-04-28T13:43:22Z</time></trkpt><trkpt lat="49.19648300851797" lon="2.5653270028530764"><ele>53.0</ele><time>2026-04-28T13:43:24Z</time></trkpt><trkpt lat="49.1964416947507" lon="2.565474644132249"><ele>52.8</ele><time>2026-04-28T13:43:26Z</time></trkpt><trkpt lat="49.19640241206762" lon="2.565629107927746"><ele>52.599999999999994</ele><time>2026-04-28T13:43:28Z</time></trkpt><trkpt lat="49.196363291404786" lon="2.565783989713124"><ele>52.400000000000006</ele><time>2026-04-28T13:43:30Z</time></trkpt><trkpt lat="49.19631836833978" lon="2.565928208540337"><ele>52.2</ele><time>2026-04-28T13:43:32Z</time></trkpt><trkpt lat="49.196267298828054" lon="2.5660795270027728"><ele>52.0</ele><time>2026-04-28T13:43:34Z</time></trkpt><trkpt lat="49.196222313169535" lon="2.5662170140702156"><ele>52.0</ele><time>2026-04-28T13:43:36Z</time></trkpt><trkpt lat="49.19618894149252" lon="2.566366564540457"><ele>52.0</ele><time>2026-04-28T13:43:38Z</time></trkpt><trkpt lat="49.19614513736047" lon="2.566517777715117"><ele>52.0</ele><time>2026-04-28T13:43:40Z</time></trkpt><trkpt lat="49.19610244130879" lon="2.5666759518958173"><ele>52.0</ele><time>2026-04-28T13:43:42Z</time></trkpt><trkpt lat="49.19605545187776" lon="2.56683586674938"><ele>52.0</ele><time>2026-04-28T13:43:44Z</time></trkpt><trkpt lat="49.19601568580924" lon="2.5669906424719438"><ele>52.0</ele><time>2026-04-28T13:43:46Z</time></trkpt><trkpt lat="49.19598480527296" lon="2.567144053136271"><ele>52.0</ele><time>2026-04-28T13:43:48Z</time></trkpt><trkpt lat="49.195963486065416" lon="2.5673000485129016"><ele>52.0</ele><time>2026-04-28T13:43:50Z</time></trkpt><trkpt lat="49.19597599284317" lon="2.567456806308567"><ele>52.0</ele><time>2026-04-28T13:43:51.999Z</time></trkpt><trkpt lat="49.19600678699013" lon="2.567610444047749"><ele>52.0</ele><time>2026-04-28T13:43:53.999Z</time></trkpt><trkpt lat="49.19604284307123" lon="2.567762565312618"><ele>52.400000000000006</ele><time>2026-04-28T13:43:55.999Z</time></trkpt><trkpt lat="49.19607982682349" lon="2.5679094811813696"><ele>52.800000000000004</ele><time>2026-04-28T13:43:57.999Z</time></trkpt><trkpt lat="49.19611161596213" lon="2.568055559295509"><ele>53.2</ele><time>2026-04-28T13:43:59.999Z</time></trkpt><trkpt lat="49.19614774468305" lon="2.568193833826159"><ele>53.6</ele><time>2026-04-28T13:44:01.999Z</time></trkpt><trkpt lat="49.19618538689159" lon="2.568332786180072"><ele>54.0</ele><time>2026-04-28T13:44:03.999Z</time></trkpt><trkpt lat="49.19621835693874" lon="2.568472222326786"><ele>54.0</ele><time>2026-04-28T13:44:05.999Z</time></trkpt><trkpt lat="49.19625452333835" lon="2.5686156723912075"><ele>54.00000000000001</ele><time>2026-04-28T13:44:07.999Z</time></trkpt><trkpt lat="49.196293055656994" lon="2.5687590590282623"><ele>54.00000000000001</ele><time>2026-04-28T13:44:09.999Z</time></trkpt><trkpt lat="49.196331846599975" lon="2.5688998205975584"><ele>54.0</ele><time>2026-04-28T13:44:11.999Z</time></trkpt><trkpt lat="49.19636609383548" lon="2.569043545044519"><ele>54.0</ele><time>2026-04-28T13:44:13.999Z</time></trkpt><trkpt lat="49.19639383223733" lon="2.5691878976136593"><ele>54.0</ele><time>2026-04-28T13:44:15.999Z</time></trkpt><trkpt lat="49.196422870308595" lon="2.5693347243705116"><ele>54.00000000000001</ele><time>2026-04-28T13:44:17.999Z</time></trkpt><trkpt lat="49.19647424184951" lon="2.5694655206832833"><ele>54.00000000000001</ele><time>2026-04-28T13:44:19.999Z</time></trkpt><trkpt lat="49.19651239101446" lon="2.5696342001609067"><ele>54.0</ele><time>2026-04-28T13:44:21.999Z</time></trkpt><trkpt lat="49.19645141879831" lon="2.5698077640828823"><ele>54.0</ele><time>2026-04-28T13:44:23.998Z</time></trkpt><trkpt lat="49.19644028719356" lon="2.569967911339095"><ele>53.6</ele><time>2026-04-28T13:44:25.998Z</time></trkpt><trkpt lat="49.196433378661" lon="2.5701266247480836"><ele>53.2</ele><time>2026-04-28T13:44:27.998Z</time></trkpt><trkpt lat="49.19641948196298" lon="2.5702762250782034"><ele>52.800000000000004</ele><time>2026-04-28T13:44:29.998Z</time></trkpt><trkpt lat="49.19640778212522" lon="2.57042568839817"><ele>52.400000000000006</ele><time>2026-04-28T13:44:31.998Z</time></trkpt><trkpt lat="49.196406742484704" lon="2.5705762905299614"><ele>52.0</ele><time>2026-04-28T13:44:33.998Z</time></trkpt><trkpt lat="49.196418102986144" lon="2.570727389212796"><ele>52.0</ele><time>2026-04-28T13:44:35.998Z</time></trkpt><trkpt lat="49.19642921740717" lon="2.5708802606380523"><ele>52.0</ele><time>2026-04-28T13:44:37.998Z</time></trkpt><trkpt lat="49.196432450656005" lon="2.5710384889423987"><ele>52.0</ele><time>2026-04-28T13:44:39.998Z</time></trkpt><trkpt lat="49.19641978913882" lon="2.571200201368281"><ele>52.0</ele><time>2026-04-28T13:44:41.998Z</time></trkpt><trkpt lat="49.1964022868786" lon="2.571356724623951"><ele>52.0</ele><time>2026-04-28T13:44:43.998Z</time></trkpt><trkpt lat="49.19638199353132" lon="2.5715068620207497"><ele>52.0</ele><time>2026-04-28T13:44:45.998Z</time></trkpt><trkpt lat="49.19635863022329" lon="2.5716514196344074"><ele>52.0</ele><time>2026-04-28T13:44:47.998Z</time></trkpt><trkpt lat="49.19634317373395" lon="2.571795059012451"><ele>52.0</ele><time>2026-04-28T13:44:49.998Z</time></trkpt><trkpt lat="49.1963356770879" lon="2.5719428528994293"><ele>52.0</ele><time>2026-04-28T13:44:51.998Z</time></trkpt><trkpt lat="49.19632226228275" lon="2.5720887756649016"><ele>52.0</ele><time>2026-04-28T13:44:53.998Z</time></trkpt><trkpt lat="49.196297440615105" lon="2.572227025390187"><ele>52.2</ele><time>2026-04-28T13:44:55.998Z</time></trkpt><trkpt lat="49.19627985124076" lon="2.572366858221802"><ele>52.400000000000006</ele><time>2026-04-28T13:44:57.997Z</time></trkpt><trkpt lat="49.19626578353534" lon="2.572504933195093"><ele>52.599999999999994</ele><time>2026-04-28T13:44:59.997Z</time></trkpt><trkpt lat="49.196249873638244" lon="2.5726450699397945"><ele>52.8</ele><time>2026-04-28T13:45:01.997Z</time></trkpt><trkpt lat="49.19623030279196" lon="2.5727868320709937"><ele>53.0</ele><time>2026-04-28T13:45:03.997Z</time></trkpt><trkpt lat="49.19621057748847" lon="2.5729328527767588"><ele>53.0</ele><time>2026-04-28T13:45:05.997Z</time></trkpt><trkpt lat="49.196193618871135" lon="2.573078757081983"><ele>53.0</ele><time>2026-04-28T13:45:07.997Z</time></trkpt><trkpt lat="49.196177931010425" lon="2.5732250585622487"><ele>53.0</ele><time>2026-04-28T13:45:09.997Z</time></trkpt><trkpt lat="49.19615956087823" lon="2.5733733777567047"><ele>53.0</ele><time>2026-04-28T13:45:11.997Z</time></trkpt><trkpt lat="49.19613942391493" lon="2.5735188966417417"><ele>53.0</ele><time>2026-04-28T13:45:13.997Z</time></trkpt><trkpt lat="49.196121954614675" lon="2.573665655317291"><ele>53.0</ele><time>2026-04-28T13:45:15.997Z</time></trkpt><trkpt lat="49.19610627700989" lon="2.573810419000767"><ele>53.0</ele><time>2026-04-28T13:45:17.997Z</time></trkpt><trkpt lat="49.19608729161083" lon="2.5739480353219517"><ele>53.0</ele><time>2026-04-28T13:45:19.997Z</time></trkpt><trkpt lat="49.19606827886848" lon="2.5740867927383047"><ele>53.0</ele><time>2026-04-28T13:45:22Z</time></trkpt><trkpt lat="49.19605020115184" lon="2.5742249759076987"><ele>53.0</ele><time>2026-04-28T13:45:24Z</time></trkpt><trkpt lat="49.1960331782879" lon="2.574365588146896"><ele>53.0</ele><time>2026-04-28T13:45:26Z</time></trkpt><trkpt lat="49.19601989420386" lon="2.5745050050917784"><ele>53.0</ele><time>2026-04-28T13:45:28Z</time></trkpt><trkpt lat="49.19599821399528" lon="2.5746459737572005"><ele>53.0</ele><time>2026-04-28T13:45:30Z</time></trkpt><trkpt lat="49.19597985423029" lon="2.574787599905396"><ele>53.0</ele><time>2026-04-28T13:45:32Z</time></trkpt><trkpt lat="49.1959590725888" lon="2.574927617554928"><ele>53.0</ele><time>2026-04-28T13:45:34Z</time></trkpt><trkpt lat="49.19593294561466" lon="2.5750657973883144"><ele>52.8</ele><time>2026-04-28T13:45:36Z</time></trkpt><trkpt lat="49.19590682814233" lon="2.5752033636801204"><ele>52.599999999999994</ele><time>2026-04-28T13:45:38Z</time></trkpt><trkpt lat="49.19588222661978" lon="2.5753434386182397"><ele>52.400000000000006</ele><time>2026-04-28T13:45:40Z</time></trkpt><trkpt lat="49.19584767097057" lon="2.575479666433001"><ele>52.2</ele><time>2026-04-28T13:45:42Z</time></trkpt><trkpt lat="49.19581388030791" lon="2.5756205127866703"><ele>52.0</ele><time>2026-04-28T13:45:44Z</time></trkpt><trkpt lat="49.195788588609965" lon="2.5757681508070966"><ele>52.400000000000006</ele><time>2026-04-28T13:45:46Z</time></trkpt><trkpt lat="49.195759915715215" lon="2.5759154761439294"><ele>52.800000000000004</ele><time>2026-04-28T13:45:48Z</time></trkpt><trkpt lat="49.19573047650985" lon="2.5760666952693496"><ele>53.2</ele><time>2026-04-28T13:45:50Z</time></trkpt><trkpt lat="49.1957052999407" lon="2.5762194711837894"><ele>53.6</ele><time>2026-04-28T13:45:52Z</time></trkpt><trkpt lat="49.19567702175287" lon="2.5763699034260013"><ele>54.0</ele><time>2026-04-28T13:45:54Z</time></trkpt><trkpt lat="49.1956414033288" lon="2.5765219813483897"><ele>54.166666666666664</ele><time>2026-04-28T13:45:56Z</time></trkpt><trkpt lat="49.19563471541513" lon="2.576670588111323"><ele>54.33333333333333</ele><time>2026-04-28T13:45:57.999Z</time></trkpt><trkpt lat="49.195617477480106" lon="2.576821746624902"><ele>54.5</ele><time>2026-04-28T13:45:59.999Z</time></trkpt><trkpt lat="49.195583542829894" lon="2.5769434029559246"><ele>54.666666666666664</ele><time>2026-04-28T13:46:01.999Z</time></trkpt><trkpt lat="49.19560506092931" lon="2.5770410840374467"><ele>54.83333333333333</ele><time>2026-04-28T13:46:04.999Z</time></trkpt><trkpt lat="49.19566914540005" lon="2.5770967434126697"><ele>55.0</ele><time>2026-04-28T13:46:06.999Z</time></trkpt><trkpt lat="49.195744198390855" lon="2.577154848362847"><ele>55.0</ele><time>2026-04-28T13:46:08.999Z</time></trkpt><trkpt lat="49.1958231265349" lon="2.577206378012797"><ele>55.0</ele><time>2026-04-28T13:46:10.999Z</time></trkpt><trkpt lat="49.19590643170819" lon="2.577263031558419"><ele>55.0</ele><time>2026-04-28T13:46:12.999Z</time></trkpt><trkpt lat="49.19598800790774" lon="2.5773310252224855"><ele>55.0</ele><time>2026-04-28T13:46:14.999Z</time></trkpt><trkpt lat="49.196072082158985" lon="2.577391178672194"><ele>55.0</ele><time>2026-04-28T13:46:16.999Z</time></trkpt><trkpt lat="49.19615227611886" lon="2.5774430985868664"><ele>55.0</ele><time>2026-04-28T13:46:18.999Z</time></trkpt><trkpt lat="49.19622656405689" lon="2.577479342060589"><ele>55.0</ele><time>2026-04-28T13:46:20.999Z</time></trkpt><trkpt lat="49.19631377236759" lon="2.5775324446727423"><ele>55.0</ele><time>2026-04-28T13:46:22.999Z</time></trkpt><trkpt lat="49.19640730923428" lon="2.5775979391095922"><ele>55.0</ele><time>2026-04-28T13:46:24.999Z</time></trkpt><trkpt lat="49.196495314107146" lon="2.577658396736845"><ele>55.0</ele><time>2026-04-28T13:46:26.999Z</time></trkpt><trkpt lat="49.196592665680456" lon="2.5777132378073193"><ele>55.0</ele><time>2026-04-28T13:46:28.998Z</time></trkpt><trkpt lat="49.19667333676208" lon="2.577764008175832"><ele>55.0</ele><time>2026-04-28T13:46:30.998Z</time></trkpt><trkpt lat="49.19675857063547" lon="2.5778214521624006"><ele>55.0</ele><time>2026-04-28T13:46:32.998Z</time></trkpt><trkpt lat="49.19684761269614" lon="2.5778807021759036"><ele>55.0</ele><time>2026-04-28T13:46:34.998Z</time></trkpt><trkpt lat="49.196929529924006" lon="2.577940296479846"><ele>55.0</ele><time>2026-04-28T13:46:36.998Z</time></trkpt><trkpt lat="49.197017110682935" lon="2.577995297589832"><ele>55.0</ele><time>2026-04-28T13:46:38.998Z</time></trkpt><trkpt lat="49.19710212314022" lon="2.5780500826424584"><ele>55.0</ele><time>2026-04-28T13:46:40.998Z</time></trkpt><trkpt lat="49.197187299450064" lon="2.578101475941083"><ele>55.0</ele><time>2026-04-28T13:46:42.998Z</time></trkpt><trkpt lat="49.197277523044605" lon="2.5781613224903532"><ele>55.0</ele><time>2026-04-28T13:46:44.998Z</time></trkpt><trkpt lat="49.197347814127916" lon="2.5782792901204212"><ele>55.0</ele><time>2026-04-28T13:46:46.998Z</time></trkpt><trkpt lat="49.197440272563625" lon="2.578340279558895"><ele>55.2</ele><time>2026-04-28T13:46:48.998Z</time></trkpt><trkpt lat="49.19752765416678" lon="2.5783979201459455"><ele>55.4</ele><time>2026-04-28T13:46:50.998Z</time></trkpt><trkpt lat="49.197613351442975" lon="2.578454449573795"><ele>55.599999999999994</ele><time>2026-04-28T13:46:52.998Z</time></trkpt><trkpt lat="49.19770273682214" lon="2.578513081214337"><ele>55.8</ele><time>2026-04-28T13:46:54.998Z</time></trkpt><trkpt lat="49.19778435825801" lon="2.578567478495672"><ele>56.0</ele><time>2026-04-28T13:46:56.998Z</time></trkpt><trkpt lat="49.197865936579774" lon="2.578621847004248"><ele>56.0</ele><time>2026-04-28T13:46:58.998Z</time></trkpt><trkpt lat="49.19794838476559" lon="2.5786767953073055"><ele>55.99999999999999</ele><time>2026-04-28T13:47:00.998Z</time></trkpt><trkpt lat="49.19802331407502" lon="2.5787270604833386"><ele>55.99999999999999</ele><time>2026-04-28T13:47:02.997Z</time></trkpt><trkpt lat="49.19810856699499" lon="2.5787844565303066"><ele>56.0</ele><time>2026-04-28T13:47:04.997Z</time></trkpt><trkpt lat="49.19818946286045" lon="2.5788389194151775"><ele>56.0</ele><time>2026-04-28T13:47:06.997Z</time></trkpt><trkpt lat="49.19828095291464" lon="2.5789005146876667"><ele>56.333333333333336</ele><time>2026-04-28T13:47:08.997Z</time></trkpt><trkpt lat="49.19836448140966" lon="2.5789567499412014"><ele>56.66666666666667</ele><time>2026-04-28T13:47:10.997Z</time></trkpt><trkpt lat="49.19844373182326" lon="2.579010105004355"><ele>57.0</ele><time>2026-04-28T13:47:12.997Z</time></trkpt><trkpt lat="49.19851697707078" lon="2.579059417048124"><ele>57.33333333333333</ele><time>2026-04-28T13:47:14.997Z</time></trkpt><trkpt lat="49.19858422137355" lon="2.579104688941105"><ele>57.666666666666664</ele><time>2026-04-28T13:47:16.997Z</time></trkpt><trkpt lat="49.198658832778264" lon="2.579154920775222"><ele>58.0</ele><time>2026-04-28T13:47:18.997Z</time></trkpt><trkpt lat="49.19873274218203" lon="2.5792046799473303"><ele>57.99999999999999</ele><time>2026-04-28T13:47:20.997Z</time></trkpt><trkpt lat="49.19880790843749" lon="2.579255285466078"><ele>58.0</ele><time>2026-04-28T13:47:22.997Z</time></trkpt><trkpt lat="49.1988991322198" lon="2.579317706209485"><ele>58.0</ele><time>2026-04-28T13:47:24.997Z</time></trkpt><trkpt lat="49.19897653251218" lon="2.579370649308815"><ele>58.0</ele><time>2026-04-28T13:47:29Z</time></trkpt><trkpt lat="49.199046593558045" lon="2.5794191822537966"><ele>57.99999999999999</ele><time>2026-04-28T13:47:31Z</time></trkpt><trkpt lat="49.19911588845295" lon="2.579467415746932"><ele>58.0</ele><time>2026-04-28T13:47:33Z</time></trkpt><trkpt lat="49.199183290177764" lon="2.5795143313934297"><ele>58.49999999999999</ele><time>2026-04-28T13:47:35Z</time></trkpt><trkpt lat="49.19924380273658" lon="2.5795564527188453"><ele>59.0</ele><time>2026-04-28T13:47:37Z</time></trkpt><trkpt lat="49.19931315554458" lon="2.579606454468454"><ele>59.5</ele><time>2026-04-28T13:47:39Z</time></trkpt><trkpt lat="49.19938493111228" lon="2.5796577356310677"><ele>60.0</ele><time>2026-04-28T13:47:41Z</time></trkpt><trkpt lat="49.19946194572507" lon="2.5797127599571397"><ele>60.49999999999999</ele><time>2026-04-28T13:47:43Z</time></trkpt><trkpt lat="49.1995435579743" lon="2.5797711830194294"><ele>61.0</ele><time>2026-04-28T13:47:45Z</time></trkpt><trkpt lat="49.19962072509297" lon="2.579827541034838"><ele>60.99999999999999</ele><time>2026-04-28T13:47:47Z</time></trkpt><trkpt lat="49.19969741969113" lon="2.5798835538977136"><ele>61.0</ele><time>2026-04-28T13:47:49Z</time></trkpt><trkpt lat="49.19977171091768" lon="2.579937811258391"><ele>61.0</ele><time>2026-04-28T13:47:51Z</time></trkpt><trkpt lat="49.19983422437525" lon="2.5799847573004024"><ele>61.0</ele><time>2026-04-28T13:47:53Z</time></trkpt><trkpt lat="49.19974710721665" lon="2.580008511714593"><ele>60.99999999999999</ele><time>2026-04-28T13:48:03.999Z</time></trkpt><trkpt lat="49.19970343489235" lon="2.5801102769068103"><ele>61.0</ele><time>2026-04-28T13:48:06.999Z</time></trkpt><trkpt lat="49.19959390545382" lon="2.580076785247507"><ele>60.99999999999999</ele><time>2026-04-28T13:48:11.999Z</time></trkpt><trkpt lat="49.19952974393137" lon="2.580032701018239"><ele>61.0</ele><time>2026-04-28T13:48:15.999Z</time></trkpt><trkpt lat="49.1994407316898" lon="2.580206477534518"><ele>61.0</ele><time>2026-04-28T13:48:17.999Z</time></trkpt><trkpt lat="49.199411783969175" lon="2.5803004773324387"><ele>61.0</ele><time>2026-04-28T13:48:20.999Z</time></trkpt><trkpt lat="49.199382887066044" lon="2.5803943125002466"><ele>60.99999999999999</ele><time>2026-04-28T13:48:24.999Z</time></trkpt><trkpt lat="49.199349328063626" lon="2.580501959029709"><ele>61.0</ele><time>2026-04-28T13:48:28.999Z</time></trkpt><trkpt lat="49.199325901671905" lon="2.5806077877751425"><ele>60.83333333333333</ele><time>2026-04-28T13:48:33.998Z</time></trkpt><trkpt lat="49.19928793166037" lon="2.580689828192189"><ele>60.666666666666664</ele><time>2026-04-28T13:48:37.998Z</time></trkpt><trkpt lat="49.19925449299221" lon="2.5807899806848664"><ele>60.5</ele><time>2026-04-28T13:48:42.998Z</time></trkpt><trkpt lat="49.199225123338444" lon="2.580877946144699"><ele>60.33333333333333</ele><time>2026-04-28T13:48:46.998Z</time></trkpt><trkpt lat="49.19918984662987" lon="2.5809836036625713"><ele>60.166666666666664</ele><time>2026-04-28T13:48:50.998Z</time></trkpt><trkpt lat="49.199307463080785" lon="2.5811202437760583"><ele>60.0</ele><time>2026-04-28T13:48:58.998Z</time></trkpt><trkpt lat="49.199373099682845" lon="2.5811695252577582"><ele>59.666666666666664</ele><time>2026-04-28T13:49:03.997Z</time></trkpt><trkpt lat="49.199435756870415" lon="2.581219151988451"><ele>59.33333333333333</ele><time>2026-04-28T13:59:23.998Z</time></trkpt><trkpt lat="49.199502399087635" lon="2.5812877042398825"><ele>59.0</ele><time>2026-04-28T13:59:26.998Z</time></trkpt><trkpt lat="49.19957232123281" lon="2.5813269069472558"><ele>58.666666666666664</ele><time>2026-04-28T13:59:29.997Z</time></trkpt><trkpt lat="49.199639971190734" lon="2.581396308604606"><ele>58.33333333333333</ele><time>2026-04-28T13:59:33.997Z</time></trkpt><trkpt lat="49.199714583034506" lon="2.581419921214804"><ele>58.0</ele><time>2026-04-28T13:59:37.997Z</time></trkpt><trkpt lat="49.199765532223026" lon="2.581506199898372"><ele>57.99999999999999</ele><time>2026-04-28T13:59:40.997Z</time></trkpt><trkpt lat="49.19983089741495" lon="2.581548940060106"><ele>58.0</ele><time>2026-04-28T13:59:43.997Z</time></trkpt><trkpt lat="49.19990299710133" lon="2.5816002556205957"><ele>58.0</ele><time>2026-04-28T13:59:46.997Z</time></trkpt><trkpt lat="49.199966221943285" lon="2.5816718649817147"><ele>58.0</ele><time>2026-04-28T13:59:49.997Z</time></trkpt><trkpt lat="49.20004583187198" lon="2.581716757862431"><ele>57.99999999999999</ele><time>2026-04-28T13:59:52.997Z</time></trkpt><trkpt lat="49.20010547064727" lon="2.5817874280300908"><ele>58.0</ele><time>2026-04-28T13:59:55.997Z</time></trkpt><trkpt lat="49.20016747026779" lon="2.5818089999519245"><ele>58.14285714285715</ele><time>2026-04-28T13:59:58.997Z</time></trkpt><trkpt lat="49.20023483077285" lon="2.581874332763261"><ele>58.28571428571429</ele><time>2026-04-28T14:00:02Z</time></trkpt><trkpt lat="49.2003095200427" lon="2.581918614088148"><ele>58.42857142857143</ele><time>2026-04-28T14:00:05Z</time></trkpt><trkpt lat="49.200372370376016" lon="2.5819672317885356"><ele>58.57142857142858</ele><time>2026-04-28T14:00:08Z</time></trkpt><trkpt lat="49.200431410302215" lon="2.5820120609791557"><ele>58.71428571428572</ele><time>2026-04-28T14:00:16Z</time></trkpt><trkpt lat="49.2004977965208" lon="2.582052092968675"><ele>58.857142857142854</ele><time>2026-04-28T14:00:20Z</time></trkpt><trkpt lat="49.20055715137444" lon="2.5821345005561134"><ele>59.0</ele><time>2026-04-28T14:00:24Z</time></trkpt><trkpt lat="49.200628520359516" lon="2.5821619892538634"><ele>58.66666666666667</ele><time>2026-04-28T14:00:27.999Z</time></trkpt><trkpt lat="49.200689433365426" lon="2.582242371583233"><ele>58.333333333333336</ele><time>2026-04-28T14:00:31.999Z</time></trkpt><trkpt lat="49.20076564282342" lon="2.5822434168384243"><ele>58.0</ele><time>2026-04-28T14:00:35.999Z</time></trkpt><trkpt lat="49.20076636269641" lon="2.5824129202805657"><ele>57.66666666666667</ele><time>2026-04-28T14:00:40.999Z</time></trkpt><trkpt lat="49.20069987591073" lon="2.582488289715266"><ele>57.333333333333336</ele><time>2026-04-28T14:00:43.999Z</time></trkpt><trkpt lat="49.20063275422086" lon="2.582412587009754"><ele>57.0</ele><time>2026-04-28T14:00:47.999Z</time></trkpt><trkpt lat="49.200588690921485" lon="2.582487379552124"><ele>57.0</ele><time>2026-04-28T14:00:49.999Z</time></trkpt><trkpt lat="49.2005216143564" lon="2.5825471311888646"><ele>57.0</ele><time>2026-04-28T14:00:52.999Z</time></trkpt><trkpt lat="49.200588306546706" lon="2.5826628255322293"><ele>57.0</ele><time>2026-04-28T14:00:53.999Z</time></trkpt><trkpt lat="49.20066820896001" lon="2.582653970622747"><ele>57.0</ele><time>2026-04-28T14:00:56.999Z</time></trkpt><trkpt lat="49.20068156784343" lon="2.58254345528777"><ele>57.0</ele><time>2026-04-28T14:00:58.999Z</time></trkpt><trkpt lat="49.200752131626906" lon="2.582497139672203"><ele>57.0</ele><time>2026-04-28T14:01:01.999Z</time></trkpt><trkpt lat="49.20083406061404" lon="2.5825698377256234"><ele>56.833333333333336</ele><time>2026-04-28T14:01:04.998Z</time></trkpt><trkpt lat="49.200898605828876" lon="2.582585033460783"><ele>56.66666666666667</ele><time>2026-04-28T14:01:06.998Z</time></trkpt><trkpt lat="49.20095664046231" lon="2.5826471339578965"><ele>56.5</ele><time>2026-04-28T14:01:08.998Z</time></trkpt><trkpt lat="49.20103088283654" lon="2.582684191463314"><ele>56.333333333333336</ele><time>2026-04-28T14:01:10.998Z</time></trkpt><trkpt lat="49.20109353827804" lon="2.582759237095429"><ele>56.16666666666667</ele><time>2026-04-28T14:01:12.998Z</time></trkpt><trkpt lat="49.201154614273726" lon="2.5828207778728642"><ele>56.0</ele><time>2026-04-28T14:01:14.998Z</time></trkpt><trkpt lat="49.20113661469071" lon="2.5829576078471517"><ele>55.714285714285715</ele><time>2026-04-28T14:01:16.998Z</time></trkpt><trkpt lat="49.20109031662744" lon="2.583067125708311"><ele>55.42857142857143</ele><time>2026-04-28T14:01:18.998Z</time></trkpt><trkpt lat="49.20104981580861" lon="2.583142606504283"><ele>55.14285714285714</ele><time>2026-04-28T14:01:20.998Z</time></trkpt><trkpt lat="49.20099374839664" lon="2.5832043910236075"><ele>54.85714285714286</ele><time>2026-04-28T14:01:23.998Z</time></trkpt><trkpt lat="49.20093129640489" lon="2.583224647719386"><ele>54.57142857142857</ele><time>2026-04-28T14:01:27.998Z</time></trkpt><trkpt lat="49.200990435319504" lon="2.5831886158537283"><ele>54.285714285714285</ele><time>2026-04-28T14:01:36.997Z</time></trkpt><trkpt lat="49.20104911097309" lon="2.583140750713028"><ele>54.0</ele><time>2026-04-28T14:01:41.997Z</time></trkpt><trkpt lat="49.201084577160735" lon="2.583059038232866"><ele>54.0</ele><time>2026-04-28T14:01:46.997Z</time></trkpt><trkpt lat="49.2010433989133" lon="2.583136026982942"><ele>54.0</ele><time>2026-04-28T14:01:58.997Z</time></trkpt><trkpt lat="49.200981710188024" lon="2.5832132469454665"><ele>54.0</ele><time>2026-04-28T14:02:03.997Z</time></trkpt><trkpt lat="49.20089214711432" lon="2.583288098623386"><ele>54.0</ele><time>2026-04-28T14:02:13Z</time></trkpt><trkpt lat="49.20084556635591" lon="2.583383416587782"><ele>54.0</ele><time>2026-04-28T14:02:14Z</time></trkpt><trkpt lat="49.200790426674345" lon="2.5833245432093244"><ele>54.0</ele><time>2026-04-28T14:02:17Z</time></trkpt><trkpt lat="49.20060873250622" lon="2.583468002275916"><ele>53.75</ele><time>2026-04-28T14:02:18Z</time></trkpt><trkpt lat="49.20055856714227" lon="2.583597544293297"><ele>53.5</ele><time>2026-04-28T14:02:22Z</time></trkpt><trkpt lat="49.2005241063616" lon="2.5836865320598834"><ele>53.25</ele><time>2026-04-28T14:02:24Z</time></trkpt><trkpt lat="49.200488461303436" lon="2.5837785778314126"><ele>53.0</ele><time>2026-04-28T14:02:26Z</time></trkpt><trkpt lat="49.20078022511492" lon="2.584175406474203"><ele>53.00000000000001</ele><time>2026-04-28T14:02:28Z</time></trkpt><trkpt lat="49.20074396988934" lon="2.5842754173757694"><ele>53.0</ele><time>2026-04-28T14:02:30Z</time></trkpt><trkpt lat="49.20067995870103" lon="2.5843529538534"><ele>53.0</ele><time>2026-04-28T14:02:32Z</time></trkpt><trkpt lat="49.200645447514546" lon="2.5844584113434266"><ele>53.0</ele><time>2026-04-28T14:02:34Z</time></trkpt><trkpt lat="49.200605731798234" lon="2.584548521378258"><ele>53.00000000000001</ele><time>2026-04-28T14:02:35.999Z</time></trkpt><trkpt lat="49.20056618169202" lon="2.5846416060365365"><ele>53.0</ele><time>2026-04-28T14:02:37.999Z</time></trkpt><trkpt lat="49.20052102293034" lon="2.58473032562903"><ele>53.0</ele><time>2026-04-28T14:02:39.999Z</time></trkpt><trkpt lat="49.20048304030903" lon="2.584830514122434"><ele>53.0</ele><time>2026-04-28T14:02:41.999Z</time></trkpt><trkpt lat="49.200446403437006" lon="2.584920340102623"><ele>53.0</ele><time>2026-04-28T14:02:43.999Z</time></trkpt><trkpt lat="49.20040507947573" lon="2.585019191262556"><ele>53.0</ele><time>2026-04-28T14:02:45.999Z</time></trkpt><trkpt lat="49.20036977469458" lon="2.5851236884460493"><ele>53.0</ele><time>2026-04-28T14:02:47.999Z</time></trkpt><trkpt lat="49.200322315982966" lon="2.585200798809646"><ele>53.0</ele><time>2026-04-28T14:02:49.999Z</time></trkpt><trkpt lat="49.20027957056344" lon="2.5852984086669077"><ele>53.0</ele><time>2026-04-28T14:02:51.999Z</time></trkpt><trkpt lat="49.20024361007349" lon="2.5853871712947187"><ele>53.0</ele><time>2026-04-28T14:02:53.999Z</time></trkpt><trkpt lat="49.20020181146877" lon="2.5854813554805216"><ele>53.0</ele><time>2026-04-28T14:02:55.999Z</time></trkpt><trkpt lat="49.200169486225306" lon="2.5855822126356607"><ele>53.0</ele><time>2026-04-28T14:02:57.999Z</time></trkpt><trkpt lat="49.20012567754953" lon="2.585666577491728"><ele>53.0</ele><time>2026-04-28T14:02:59.999Z</time></trkpt><trkpt lat="49.200078033128186" lon="2.5857551124416718"><ele>53.0</ele><time>2026-04-28T14:03:01.999Z</time></trkpt><trkpt lat="49.200037953731446" lon="2.585853697191097"><ele>53.0</ele><time>2026-04-28T14:03:03.999Z</time></trkpt><trkpt lat="49.200001887574494" lon="2.585953133621897"><ele>53.0</ele><time>2026-04-28T14:03:05.999Z</time></trkpt><trkpt lat="49.19994702117898" lon="2.5860327271699366"><ele>53.0</ele><time>2026-04-28T14:03:07.999Z</time></trkpt><trkpt lat="49.19990660832051" lon="2.586123449238305"><ele>53.0</ele><time>2026-04-28T14:03:09.998Z</time></trkpt><trkpt lat="49.19987930999891" lon="2.586229134481153"><ele>53.0</ele><time>2026-04-28T14:03:11.998Z</time></trkpt><trkpt lat="49.19983647488097" lon="2.586320002973236"><ele>53.0</ele><time>2026-04-28T14:03:13.998Z</time></trkpt><trkpt lat="49.1997957488832" lon="2.5864133487152414"><ele>53.0</ele><time>2026-04-28T14:03:15.998Z</time></trkpt><trkpt lat="49.199752145046496" lon="2.5865098272165405"><ele>53.0</ele><time>2026-04-28T14:03:17.998Z</time></trkpt><trkpt lat="49.19970715136054" lon="2.5866114175209125"><ele>53.0</ele><time>2026-04-28T14:03:19.998Z</time></trkpt><trkpt lat="49.19966270508791" lon="2.5867129626564003"><ele>53.2</ele><time>2026-04-28T14:03:21.998Z</time></trkpt><trkpt lat="49.19960791178285" lon="2.5868025916003328"><ele>53.4</ele><time>2026-04-28T14:03:23.998Z</time></trkpt><trkpt lat="49.19956181954059" lon="2.5869003944809053"><ele>53.60000000000001</ele><time>2026-04-28T14:03:25.998Z</time></trkpt><trkpt lat="49.19951254758129" lon="2.586983706315041"><ele>53.800000000000004</ele><time>2026-04-28T14:03:27.998Z</time></trkpt><trkpt lat="49.199461681217706" lon="2.587059727536189"><ele>54.0</ele><time>2026-04-28T14:03:29.998Z</time></trkpt><trkpt lat="49.19951638417661" lon="2.5872812924443145"><ele>54.0</ele><time>2026-04-28T14:03:32.998Z</time></trkpt><trkpt lat="49.19954411323711" lon="2.5874129361533518"><ele>54.0</ele><time>2026-04-28T14:03:34.998Z</time></trkpt><trkpt lat="49.199572303708166" lon="2.587540793861958"><ele>54.0</ele><time>2026-04-28T14:03:36.998Z</time></trkpt><trkpt lat="49.199600172003024" lon="2.5876748890947896"><ele>54.0</ele><time>2026-04-28T14:03:38.998Z</time></trkpt><trkpt lat="49.199634899718504" lon="2.5878017481213695"><ele>54.0</ele><time>2026-04-28T14:03:40.998Z</time></trkpt><trkpt lat="49.199665058246204" lon="2.5879299347872586"><ele>54.0</ele><time>2026-04-28T14:03:42.998Z</time></trkpt><trkpt lat="49.19968181991774" lon="2.588064540489151"><ele>54.0</ele><time>2026-04-28T14:03:44.997Z</time></trkpt><trkpt lat="49.19971350152159" lon="2.5881974196747928"><ele>54.00000000000001</ele><time>2026-04-28T14:03:46.997Z</time></trkpt><trkpt lat="49.19973414611479" lon="2.5883275663623064"><ele>54.00000000000001</ele><time>2026-04-28T14:03:48.997Z</time></trkpt><trkpt lat="49.19975513877254" lon="2.588455253426112"><ele>54.0</ele><time>2026-04-28T14:03:50.997Z</time></trkpt><trkpt lat="49.19978141155753" lon="2.588588470624569"><ele>54.0</ele><time>2026-04-28T14:03:52.997Z</time></trkpt><trkpt lat="49.19980900612192" lon="2.5887268908915053"><ele>53.6</ele><time>2026-04-28T14:03:54.997Z</time></trkpt><trkpt lat="49.19983689263055" lon="2.5888682097023747"><ele>53.2</ele><time>2026-04-28T14:03:56.997Z</time></trkpt><trkpt lat="49.19986267765538" lon="2.5890061957842705"><ele>52.800000000000004</ele><time>2026-04-28T14:03:58.997Z</time></trkpt><trkpt lat="49.199878378501516" lon="2.589150967645994"><ele>52.400000000000006</ele><time>2026-04-28T14:04:00.997Z</time></trkpt><trkpt lat="49.19986823966336" lon="2.5892925690066355"><ele>52.0</ele><time>2026-04-28T14:04:02.997Z</time></trkpt><trkpt lat="49.199860634973604" lon="2.5894387839934465"><ele>52.2</ele><time>2026-04-28T14:04:04.997Z</time></trkpt><trkpt lat="49.19985388607207" lon="2.5895821233271294"><ele>52.400000000000006</ele><time>2026-04-28T14:04:06.997Z</time></trkpt><trkpt lat="49.199857939476956" lon="2.5897327979244777"><ele>52.599999999999994</ele><time>2026-04-28T14:04:08.997Z</time></trkpt><trkpt lat="49.199850813388544" lon="2.5898808489827165"><ele>52.8</ele><time>2026-04-28T14:04:10.997Z</time></trkpt><trkpt lat="49.199840857497634" lon="2.590035391698086"><ele>53.0</ele><time>2026-04-28T14:04:13Z</time></trkpt><trkpt lat="49.19983038775207" lon="2.590180028540064"><ele>53.4</ele><time>2026-04-28T14:04:15Z</time></trkpt><trkpt lat="49.199821791516584" lon="2.5903255917835213"><ele>53.8</ele><time>2026-04-28T14:04:17Z</time></trkpt><trkpt lat="49.1998152872888" lon="2.59048324049685"><ele>54.2</ele><time>2026-04-28T14:04:19Z</time></trkpt><trkpt lat="49.19979263972895" lon="2.590641986860589"><ele>54.6</ele><time>2026-04-28T14:04:21Z</time></trkpt><trkpt lat="49.19979635055563" lon="2.5908065522870447"><ele>55.0</ele><time>2026-04-28T14:04:23Z</time></trkpt><trkpt lat="49.19978787099396" lon="2.590963853903199"><ele>55.4</ele><time>2026-04-28T14:04:25Z</time></trkpt><trkpt lat="49.199779299690036" lon="2.5911185269837413"><ele>55.8</ele><time>2026-04-28T14:04:27Z</time></trkpt><trkpt lat="49.19976891189025" lon="2.59127651539693"><ele>56.2</ele><time>2026-04-28T14:04:29Z</time></trkpt><trkpt lat="49.199747342390744" lon="2.5914238964993874"><ele>56.6</ele><time>2026-04-28T14:04:31Z</time></trkpt><trkpt lat="49.19973709416456" lon="2.5915738838992417"><ele>57.0</ele><time>2026-04-28T14:04:33Z</time></trkpt><trkpt lat="49.19972648725895" lon="2.5917291206252746"><ele>57.0</ele><time>2026-04-28T14:04:35Z</time></trkpt><trkpt lat="49.199731716740494" lon="2.5918734722170282"><ele>57.0</ele><time>2026-04-28T14:04:37Z</time></trkpt><trkpt lat="49.199720059674924" lon="2.592020286044738"><ele>57.0</ele><time>2026-04-28T14:04:39Z</time></trkpt><trkpt lat="49.19970099449928" lon="2.5921573075862945"><ele>57.0</ele><time>2026-04-28T14:04:41Z</time></trkpt><trkpt lat="49.19982982273974" lon="2.5921969954773583"><ele>57.0</ele><time>2026-04-28T14:04:42.999Z</time></trkpt><trkpt lat="49.19992500006591" lon="2.5921164161871095"><ele>56.400000000000006</ele><time>2026-04-28T14:04:44.999Z</time></trkpt><trkpt lat="49.2000247987851" lon="2.5920849366350565"><ele>55.800000000000004</ele><time>2026-04-28T14:04:46.999Z</time></trkpt><trkpt lat="49.200123572237075" lon="2.5920315879169356"><ele>55.2</ele><time>2026-04-28T14:04:48.999Z</time></trkpt><trkpt lat="49.20022604369176" lon="2.5919784498192935"><ele>54.6</ele><time>2026-04-28T14:04:50.999Z</time></trkpt><trkpt lat="49.20032701313228" lon="2.5919193459010725"><ele>54.0</ele><time>2026-04-28T14:04:52.999Z</time></trkpt><trkpt lat="49.20042849048411" lon="2.591876476916709"><ele>54.0</ele><time>2026-04-28T14:04:54.999Z</time></trkpt><trkpt lat="49.20053153939869" lon="2.5918213792289726"><ele>54.00000000000001</ele><time>2026-04-28T14:04:56.999Z</time></trkpt><trkpt lat="49.2006365417276" lon="2.591776541000402"><ele>54.00000000000001</ele><time>2026-04-28T14:04:58.999Z</time></trkpt><trkpt lat="49.20074513010765" lon="2.591735184336004"><ele>54.0</ele><time>2026-04-28T14:05:00.999Z</time></trkpt><trkpt lat="49.20083989791524" lon="2.5916550800761775"><ele>54.0</ele><time>2026-04-28T14:05:02.999Z</time></trkpt><trkpt lat="49.20094599846194" lon="2.5915974380960933"><ele>53.6</ele><time>2026-04-28T14:05:04.999Z</time></trkpt><trkpt lat="49.20104428345612" lon="2.5915522516269456"><ele>53.2</ele><time>2026-04-28T14:05:06.999Z</time></trkpt><trkpt lat="49.20113261063487" lon="2.5914566101714382"><ele>52.800000000000004</ele><time>2026-04-28T14:05:08.999Z</time></trkpt><trkpt lat="49.201235118018886" lon="2.5913860399426727"><ele>52.400000000000006</ele><time>2026-04-28T14:05:10.999Z</time></trkpt><trkpt lat="49.20134621505921" lon="2.5914433798906127"><ele>52.0</ele><time>2026-04-28T14:05:12.999Z</time></trkpt><trkpt lat="49.201415832623496" lon="2.5915947441809584"><ele>52.0</ele><time>2026-04-28T14:05:14.999Z</time></trkpt><trkpt lat="49.20143851672517" lon="2.591784329337887"><ele>52.0</ele><time>2026-04-28T14:05:16.998Z</time></trkpt><trkpt lat="49.20145022904173" lon="2.5918808556413078"><ele>52.0</ele><time>2026-04-28T14:05:17.998Z</time></trkpt><trkpt lat="49.201473533233404" lon="2.5919710033232533"><ele>52.0</ele><time>2026-04-28T14:05:18.998Z</time></trkpt><trkpt lat="49.201506894997394" lon="2.5920536182295337"><ele>52.0</ele><time>2026-04-28T14:05:19.998Z</time></trkpt><trkpt lat="49.20154999810049" lon="2.5921250464739267"><ele>52.0</ele><time>2026-04-28T14:05:20.998Z</time></trkpt><trkpt lat="49.20160436496597" lon="2.592178345897647"><ele>52.0</ele><time>2026-04-28T14:05:21.998Z</time></trkpt><trkpt lat="49.20166624529061" lon="2.592208518430282"><ele>52.25</ele><time>2026-04-28T14:05:22.998Z</time></trkpt><trkpt lat="49.201785071176296" lon="2.5922395942807293"><ele>52.5</ele><time>2026-04-28T14:05:24.998Z</time></trkpt><trkpt lat="49.201906581070695" lon="2.592245854988774"><ele>52.75</ele><time>2026-04-28T14:05:26.998Z</time></trkpt><trkpt lat="49.20202017224242" lon="2.5922581426822187"><ele>53.0</ele><time>2026-04-28T14:05:28.998Z</time></trkpt><trkpt lat="49.202122284532265" lon="2.592258802033454"><ele>53.00000000000001</ele><time>2026-04-28T14:05:30.998Z</time></trkpt><trkpt lat="49.20220161376497" lon="2.592287497465048"><ele>53.0</ele><time>2026-04-28T14:05:32.998Z</time></trkpt><trkpt lat="49.20227191999876" lon="2.5922912521292027"><ele>53.0</ele><time>2026-04-28T14:05:41.998Z</time></trkpt><trkpt lat="49.20234856165976" lon="2.5922955402709165"><ele>53.0</ele><time>2026-04-28T14:05:57.997Z</time></trkpt><trkpt lat="49.20241692534164" lon="2.59229477586542"><ele>53.00000000000001</ele><time>2026-04-28T14:05:59.997Z</time></trkpt><trkpt lat="49.20249360354707" lon="2.592265995546701"><ele>53.0</ele><time>2026-04-28T14:06:01.997Z</time></trkpt><trkpt lat="49.20257783766616" lon="2.5922638137907175"><ele>53.66666666666667</ele><time>2026-04-28T14:06:03.997Z</time></trkpt><trkpt lat="49.20265873487325" lon="2.592232509981572"><ele>54.333333333333336</ele><time>2026-04-28T14:06:05.997Z</time></trkpt><trkpt lat="49.20272599526968" lon="2.5921853816751863"><ele>55.0</ele><time>2026-04-28T14:06:07.997Z</time></trkpt><trkpt lat="49.20278474757554" lon="2.59212229037814"><ele>55.66666666666667</ele><time>2026-04-28T14:06:09.997Z</time></trkpt><trkpt lat="49.2028559731903" lon="2.592082680689045"><ele>56.333333333333336</ele><time>2026-04-28T14:06:11.997Z</time></trkpt><trkpt lat="49.2029128857996" lon="2.592005828483805"><ele>57.0</ele><time>2026-04-28T14:06:13.997Z</time></trkpt><trkpt lat="49.20297601820584" lon="2.5919511919639295"><ele>57.14285714285714</ele><time>2026-04-28T14:06:15.997Z</time></trkpt><trkpt lat="49.20304148664794" lon="2.5918985842301643"><ele>57.28571428571428</ele><time>2026-04-28T14:06:18Z</time></trkpt><trkpt lat="49.20310828681987" lon="2.591856595774225"><ele>57.42857142857143</ele><time>2026-04-28T14:06:20Z</time></trkpt><trkpt lat="49.20317752315232" lon="2.591832065295485"><ele>57.57142857142857</ele><time>2026-04-28T14:06:22Z</time></trkpt><trkpt lat="49.20324144253667" lon="2.591791760109708"><ele>57.714285714285715</ele><time>2026-04-28T14:06:24Z</time></trkpt><trkpt lat="49.20330266350291" lon="2.591756057461268"><ele>57.85714285714286</ele><time>2026-04-28T14:06:26Z</time></trkpt><trkpt lat="49.20336293447852" lon="2.5917228135692287"><ele>58.00000000000001</ele><time>2026-04-28T14:06:28Z</time></trkpt><trkpt lat="49.20342477923651" lon="2.591691165677226"><ele>58.14285714285715</ele><time>2026-04-28T14:06:30Z</time></trkpt><trkpt lat="49.203485113841225" lon="2.591661356481789"><ele>58.28571428571429</ele><time>2026-04-28T14:06:32Z</time></trkpt><trkpt lat="49.20354955291604" lon="2.591606973055782"><ele>58.42857142857143</ele><time>2026-04-28T14:06:34Z</time></trkpt><trkpt lat="49.20361619012491" lon="2.5916077987569235"><ele>58.57142857142858</ele><time>2026-04-28T14:06:36Z</time></trkpt><trkpt lat="49.203680987739425" lon="2.591585476254357"><ele>58.71428571428572</ele><time>2026-04-28T14:06:38Z</time></trkpt><trkpt lat="49.20374802454575" lon="2.5915642842768327"><ele>58.857142857142854</ele><time>2026-04-28T14:06:40Z</time></trkpt><trkpt lat="49.20381421108849" lon="2.591543361120572"><ele>59.0</ele><time>2026-04-28T14:06:42Z</time></trkpt><trkpt lat="49.203875696636615" lon="2.59150113588396"><ele>59.0</ele><time>2026-04-28T14:06:44Z</time></trkpt><trkpt lat="49.20394429255295" lon="2.5915054575698524"><ele>59.0</ele><time>2026-04-28T14:06:46Z</time></trkpt><trkpt lat="49.2040116998712" lon="2.591500568457708"><ele>59.0</ele><time>2026-04-28T14:06:48Z</time></trkpt><trkpt lat="49.20408508972671" lon="2.5914828829231"><ele>59.0</ele><time>2026-04-28T14:06:50Z</time></trkpt><trkpt lat="49.204155508505565" lon="2.591488325267275"><ele>59.0</ele><time>2026-04-28T14:06:51.999Z</time></trkpt><trkpt lat="49.20423081111932" lon="2.591495909479093"><ele>59.0</ele><time>2026-04-28T14:06:53.999Z</time></trkpt><trkpt lat="49.20430506943392" lon="2.591494156574332"><ele>59.0</ele><time>2026-04-28T14:06:55.999Z</time></trkpt><trkpt lat="49.20437919470163" lon="2.5915225022153425"><ele>59.50000000000001</ele><time>2026-04-28T14:06:57.999Z</time></trkpt><trkpt lat="49.20445481928691" lon="2.591525032081821"><ele>60.0</ele><time>2026-04-28T14:06:59.999Z</time></trkpt><trkpt lat="49.204529494907774" lon="2.5915024788061696"><ele>60.5</ele><time>2026-04-28T14:07:01.999Z</time></trkpt><trkpt lat="49.204598132506604" lon="2.5915078734318775"><ele>61.0</ele><time>2026-04-28T14:07:03.999Z</time></trkpt><trkpt lat="49.20466970442858" lon="2.591514820474549"><ele>61.50000000000001</ele><time>2026-04-28T14:07:05.999Z</time></trkpt><trkpt lat="49.20472912123719" lon="2.5915758833012754"><ele>62.0</ele><time>2026-04-28T14:07:07.999Z</time></trkpt><trkpt lat="49.204732523510835" lon="2.591714341892335"><ele>62.00000000000001</ele><time>2026-04-28T14:07:09.999Z</time></trkpt><trkpt lat="49.20470605222625" lon="2.5918350151194964"><ele>62.0</ele><time>2026-04-28T14:07:11.999Z</time></trkpt><trkpt lat="49.20467044807627" lon="2.5919576632696746"><ele>62.0</ele><time>2026-04-28T14:07:14.999Z</time></trkpt><trkpt lat="49.20474093068948" lon="2.592034625396037"><ele>62.0</ele><time>2026-04-28T14:07:17.999Z</time></trkpt><trkpt lat="49.20470977440444" lon="2.5921265360965355"><ele>62.00000000000001</ele><time>2026-04-28T14:07:19.999Z</time></trkpt><trkpt lat="49.20470335834849" lon="2.5922232587049066"><ele>62.0</ele><time>2026-04-28T14:07:21.999Z</time></trkpt><trkpt lat="49.204776791509445" lon="2.5922959220347277"><ele>62.714285714285715</ele><time>2026-04-28T14:07:23.999Z</time></trkpt><trkpt lat="49.20486342616563" lon="2.592297633781443"><ele>63.42857142857143</ele><time>2026-04-28T14:07:25.998Z</time></trkpt><trkpt lat="49.20493768436993" lon="2.592286229964101"><ele>64.14285714285714</ele><time>2026-04-28T14:07:27.998Z</time></trkpt><trkpt lat="49.20500252005959" lon="2.592283435317235"><ele>64.85714285714286</ele><time>2026-04-28T14:07:29.998Z</time></trkpt><trkpt lat="49.20507433417482" lon="2.592286870655156"><ele>65.57142857142857</ele><time>2026-04-28T14:07:31.998Z</time></trkpt><trkpt lat="49.20513938387601" lon="2.5922798991900646"><ele>66.28571428571429</ele><time>2026-04-28T14:07:33.998Z</time></trkpt><trkpt lat="49.20520497302504" lon="2.592272440264123"><ele>67.0</ele><time>2026-04-28T14:07:35.998Z</time></trkpt><trkpt lat="49.205271146952995" lon="2.592272268595107"><ele>67.0</ele><time>2026-04-28T14:07:37.998Z</time></trkpt><trkpt lat="49.20534142350373" lon="2.592268361419055"><ele>67.0</ele><time>2026-04-28T14:07:39.998Z</time></trkpt><trkpt lat="49.20540977996836" lon="2.592258407653885"><ele>67.0</ele><time>2026-04-28T14:07:41.998Z</time></trkpt><trkpt lat="49.205474850851054" lon="2.5922500514645415"><ele>67.0</ele><time>2026-04-28T14:07:43.998Z</time></trkpt><trkpt lat="49.205539522164074" lon="2.5922417431635987"><ele>67.0</ele><time>2026-04-28T14:07:45.998Z</time></trkpt><trkpt lat="49.20562848845879" lon="2.5922439205645875"><ele>67.0</ele><time>2026-04-28T14:07:48.998Z</time></trkpt><trkpt lat="49.205694534865636" lon="2.592243981799537"><ele>67.0</ele><time>2026-04-28T14:07:50.998Z</time></trkpt><trkpt lat="49.205761222218946" lon="2.592232965370746"><ele>67.28571428571429</ele><time>2026-04-28T14:07:52.998Z</time></trkpt><trkpt lat="49.2058216612305" lon="2.5921904233996385"><ele>67.57142857142857</ele><time>2026-04-28T14:07:54.998Z</time></trkpt><trkpt lat="49.20585866311278" lon="2.59209387614951"><ele>67.85714285714286</ele><time>2026-04-28T14:07:56.998Z</time></trkpt><trkpt lat="49.205900919885465" lon="2.5919967928195424"><ele>68.14285714285714</ele><time>2026-04-28T14:07:58.997Z</time></trkpt><trkpt lat="49.20594631824143" lon="2.5919224753114434"><ele>68.42857142857143</ele><time>2026-04-28T14:08:00.997Z</time></trkpt><trkpt lat="49.20600225658345" lon="2.5918312479521983"><ele>68.71428571428572</ele><time>2026-04-28T14:08:02.997Z</time></trkpt><trkpt lat="49.20605121730801" lon="2.591746786675093"><ele>69.0</ele><time>2026-04-28T14:08:04.997Z</time></trkpt><trkpt lat="49.20611356825506" lon="2.5916395648895243"><ele>69.14285714285714</ele><time>2026-04-28T14:08:07.997Z</time></trkpt><trkpt lat="49.206145739400654" lon="2.5915448896706286"><ele>69.28571428571429</ele><time>2026-04-28T14:08:09.997Z</time></trkpt><trkpt lat="49.206138414022114" lon="2.5914300459413724"><ele>69.42857142857143</ele><time>2026-04-28T14:08:11.997Z</time></trkpt><trkpt lat="49.20613604219884" lon="2.5913184493837034"><ele>69.57142857142857</ele><time>2026-04-28T14:08:13.997Z</time></trkpt><trkpt lat="49.206140779691005" lon="2.5912013663034914"><ele>69.71428571428572</ele><time>2026-04-28T14:08:15.997Z</time></trkpt><trkpt lat="49.206136247188674" lon="2.591103786681596"><ele>69.85714285714286</ele><time>2026-04-28T14:08:17.997Z</time></trkpt><trkpt lat="49.20614376777475" lon="2.590992796920968"><ele>70.0</ele><time>2026-04-28T14:08:19.997Z</time></trkpt><trkpt lat="49.206227963504205" lon="2.590869257653416"><ele>70.0</ele><time>2026-04-28T14:08:21.997Z</time></trkpt><trkpt lat="49.20622461305525" lon="2.5907574159295206"><ele>70.0</ele><time>2026-04-28T14:08:24Z</time></trkpt><trkpt lat="49.206221036868" lon="2.5906380388429353"><ele>70.0</ele><time>2026-04-28T14:08:27Z</time></trkpt><trkpt lat="49.2062050729501" lon="2.5905181642030404"><ele>70.0</ele><time>2026-04-28T14:08:30Z</time></trkpt><trkpt lat="49.20659962046812" lon="2.59008135607148"><ele>70.75</ele><time>2026-04-28T14:08:43Z</time></trkpt><trkpt lat="49.206660826173" lon="2.5900174391458926"><ele>71.5</ele><time>2026-04-28T14:08:45Z</time></trkpt><trkpt lat="49.20684954354965" lon="2.5900081379810618"><ele>72.25</ele><time>2026-04-28T14:08:49Z</time></trkpt><trkpt lat="49.206892785283564" lon="2.5899364337591178"><ele>73.0</ele><time>2026-04-28T14:08:54Z</time></trkpt><trkpt lat="49.20700752658117" lon="2.5900079199941244"><ele>73.0</ele><time>2026-04-28T14:08:57.999Z</time></trkpt><trkpt lat="49.20710090686791" lon="2.5900450645985287"><ele>73.0</ele><time>2026-04-28T14:09:00.999Z</time></trkpt><trkpt lat="49.207185949850086" lon="2.590114469231991"><ele>73.0</ele><time>2026-04-28T14:09:03.999Z</time></trkpt><trkpt lat="49.20727480244864" lon="2.5901230268113267"><ele>73.0</ele><time>2026-04-28T14:09:06.999Z</time></trkpt><trkpt lat="49.20733838939232" lon="2.590130346886305"><ele>73.0</ele><time>2026-04-28T14:09:08.999Z</time></trkpt><trkpt lat="49.20736122133012" lon="2.5900098826539013"><ele>73.0</ele><time>2026-04-28T14:09:10.999Z</time></trkpt><trkpt lat="49.20723432557781" lon="2.5899732238120525"><ele>73.0</ele><time>2026-04-28T14:09:14.999Z</time></trkpt><trkpt lat="49.20725957239498" lon="2.589883245710327"><ele>73.0</ele><time>2026-04-28T14:09:37.998Z</time></trkpt><trkpt lat="49.20730153950441" lon="2.589799163985982"><ele>73.0</ele><time>2026-04-28T14:09:52.998Z</time></trkpt><trkpt lat="49.20746519434786" lon="2.589851844251535"><ele>73.0</ele><time>2026-04-28T14:09:56.998Z</time></trkpt><trkpt lat="49.20731158411632" lon="2.5897821212581715"><ele>73.0</ele><time>2026-04-28T14:10:03.997Z</time></trkpt><trkpt lat="49.20743159574792" lon="2.589675284458831"><ele>73.0</ele><time>2026-04-28T14:10:09.997Z</time></trkpt><trkpt lat="49.207370592690175" lon="2.5897805497521693"><ele>73.0</ele><time>2026-04-28T14:10:10.997Z</time></trkpt><trkpt lat="49.207282781280206" lon="2.589935827338864"><ele>73.0</ele><time>2026-04-28T14:10:12.997Z</time></trkpt><trkpt lat="49.2072208267678" lon="2.590033434859347"><ele>73.0</ele><time>2026-04-28T14:10:13.997Z</time></trkpt><trkpt lat="49.20717147218553" lon="2.590162881948301"><ele>73.0</ele><time>2026-04-28T14:10:14.997Z</time></trkpt><trkpt lat="49.2072038098409" lon="2.590008020039374"><ele>73.0</ele><time>2026-04-28T14:10:18.997Z</time></trkpt><trkpt lat="49.207154927529785" lon="2.589946736594279"><ele>73.0</ele><time>2026-04-28T14:21:24Z</time></trkpt><trkpt lat="49.207098773840144" lon="2.58986595700031"><ele>73.0</ele><time>2026-04-28T14:21:30Z</time></trkpt><trkpt lat="49.2070627171769" lon="2.5897811196887197"><ele>73.0</ele><time>2026-04-28T14:21:33Z</time></trkpt><trkpt lat="49.20698832478084" lon="2.58981017835706"><ele>73.0</ele><time>2026-04-28T14:21:36Z</time></trkpt><trkpt lat="49.20691051822875" lon="2.589783286667579"><ele>73.0</ele><time>2026-04-28T14:21:39Z</time></trkpt><trkpt lat="49.20685888617145" lon="2.589724675813332"><ele>73.0</ele><time>2026-04-28T14:21:41Z</time></trkpt><trkpt lat="49.206796184350075" lon="2.5896740274634706"><ele>73.0</ele><time>2026-04-28T14:21:43Z</time></trkpt><trkpt lat="49.20671241988469" lon="2.589621501259246"><ele>73.0</ele><time>2026-04-28T14:21:44.999Z</time></trkpt><trkpt lat="49.20662597109772" lon="2.5895585445461893"><ele>73.0</ele><time>2026-04-28T14:21:46.999Z</time></trkpt><trkpt lat="49.206576797560665" lon="2.5894902537063125"><ele>73.0</ele><time>2026-04-28T14:21:48.999Z</time></trkpt><trkpt lat="49.20652601668105" lon="2.5893761880785946"><ele>73.0</ele><time>2026-04-28T14:21:50.999Z</time></trkpt><trkpt lat="49.206473476924764" lon="2.5892435401947567"><ele>73.0</ele><time>2026-04-28T14:21:52.999Z</time></trkpt><trkpt lat="49.20640654449723" lon="2.5891111230961337"><ele>73.0</ele><time>2026-04-28T14:21:54.999Z</time></trkpt><trkpt lat="49.20635863840402" lon="2.5889710931511805"><ele>73.0</ele><time>2026-04-28T14:21:56.999Z</time></trkpt><trkpt lat="49.20630068041576" lon="2.588836073246086"><ele>72.6</ele><time>2026-04-28T14:21:58.999Z</time></trkpt><trkpt lat="49.20625451072288" lon="2.5887108882085053"><ele>72.19999999999999</ele><time>2026-04-28T14:22:00.999Z</time></trkpt><trkpt lat="49.206203653014455" lon="2.5885873092401837"><ele>71.8</ele><time>2026-04-28T14:22:02.999Z</time></trkpt><trkpt lat="49.206182652821724" lon="2.5884508669812303"><ele>71.39999999999999</ele><time>2026-04-28T14:22:04.999Z</time></trkpt><trkpt lat="49.20617933443967" lon="2.5883114706321"><ele>71.0</ele><time>2026-04-28T14:22:06.999Z</time></trkpt><trkpt lat="49.2061859167299" lon="2.588174559956567"><ele>71.0</ele><time>2026-04-28T14:22:08.999Z</time></trkpt><trkpt lat="49.20619377137118" lon="2.588031241820782"><ele>71.0</ele><time>2026-04-28T14:22:10.999Z</time></trkpt><trkpt lat="49.20618187461813" lon="2.587893753910391"><ele>71.0</ele><time>2026-04-28T14:22:12.999Z</time></trkpt><trkpt lat="49.2062109383926" lon="2.587774186264566"><ele>71.0</ele><time>2026-04-28T14:22:14.999Z</time></trkpt><trkpt lat="49.206229282540484" lon="2.5876643346685655"><ele>71.0</ele><time>2026-04-28T14:22:16.999Z</time></trkpt><trkpt lat="49.20615003423823" lon="2.587514469879893"><ele>71.16666666666667</ele><time>2026-04-28T14:22:19.998Z</time></trkpt><trkpt lat="49.206090709055836" lon="2.5874382637184166"><ele>71.33333333333334</ele><time>2026-04-28T14:22:21.998Z</time></trkpt><trkpt lat="49.20604755836633" lon="2.5873644809427936"><ele>71.5</ele><time>2026-04-28T14:22:23.998Z</time></trkpt><trkpt lat="49.20599331504484" lon="2.5872557688834954"><ele>71.66666666666667</ele><time>2026-04-28T14:22:25.998Z</time></trkpt><trkpt lat="49.20598827786238" lon="2.5871050454105102"><ele>71.83333333333333</ele><time>2026-04-28T14:22:27.998Z</time></trkpt><trkpt lat="49.20604822623312" lon="2.587019385872848"><ele>72.0</ele><time>2026-04-28T14:22:29.998Z</time></trkpt><trkpt lat="49.20604395367409" lon="2.5869160815888277"><ele>72.5</ele><time>2026-04-28T14:22:32.998Z</time></trkpt><trkpt lat="49.205917612689774" lon="2.586819929805334"><ele>73.0</ele><time>2026-04-28T14:22:38.998Z</time></trkpt><trkpt lat="49.20586413094725" lon="2.5867559128740307"><ele>73.5</ele><time>2026-04-28T14:22:40.998Z</time></trkpt><trkpt lat="49.20580557831925" lon="2.5867161965334553"><ele>74.0</ele><time>2026-04-28T14:22:42.998Z</time></trkpt><trkpt lat="49.20573181679408" lon="2.586654375169792"><ele>74.5</ele><time>2026-04-28T14:22:45.998Z</time></trkpt><trkpt lat="49.205664038588694" lon="2.58660214666671"><ele>75.0</ele><time>2026-04-28T14:22:48.998Z</time></trkpt><trkpt lat="49.205608697712435" lon="2.586552938155068"><ele>74.0</ele><time>2026-04-28T14:22:51.998Z</time></trkpt><trkpt lat="49.205546663750646" lon="2.586499584947325"><ele>73.0</ele><time>2026-04-28T14:22:54.997Z</time></trkpt><trkpt lat="49.20547412300998" lon="2.586445574947795"><ele>72.0</ele><time>2026-04-28T14:22:58.997Z</time></trkpt><trkpt lat="49.205414695755096" lon="2.5863833657693203"><ele>71.0</ele><time>2026-04-28T14:23:02.997Z</time></trkpt><trkpt lat="49.20534488475698" lon="2.586321702319647"><ele>70.0</ele><time>2026-04-28T14:23:06.997Z</time></trkpt><trkpt lat="49.20541972641933" lon="2.5863831546953673"><ele>69.0</ele><time>2026-04-28T14:23:14.997Z</time></trkpt><trkpt lat="49.20549539465153" lon="2.5864492507873207"><ele>69.0</ele><time>2026-04-28T14:23:17.997Z</time></trkpt><trkpt lat="49.20555791868913" lon="2.5865036276302176"><ele>69.0</ele><time>2026-04-28T14:23:21Z</time></trkpt><trkpt lat="49.20562692421415" lon="2.5865596089508487"><ele>69.0</ele><time>2026-04-28T14:23:25Z</time></trkpt><trkpt lat="49.20569122846144" lon="2.586610262471269"><ele>69.0</ele><time>2026-04-28T14:23:29Z</time></trkpt><trkpt lat="49.20575061960631" lon="2.5866583214487586"><ele>69.0</ele><time>2026-04-28T14:23:32Z</time></trkpt><trkpt lat="49.20580879619292" lon="2.586707689167217"><ele>69.0</ele><time>2026-04-28T14:23:36Z</time></trkpt><trkpt lat="49.20564482427387" lon="2.5873280308801"><ele>69.0</ele><time>2026-04-28T14:23:43Z</time></trkpt><trkpt lat="49.20560338406639" lon="2.5872545952332184"><ele>69.0</ele><time>2026-04-28T14:23:47Z</time></trkpt><trkpt lat="49.2055658753785" lon="2.5871535668912125"><ele>69.0</ele><time>2026-04-28T14:23:50.999Z</time></trkpt><trkpt lat="49.20554183418455" lon="2.587059226225428"><ele>69.0</ele><time>2026-04-28T14:23:54.999Z</time></trkpt><trkpt lat="49.205521986627254" lon="2.5869642022391535"><ele>69.0</ele><time>2026-04-28T14:23:59.999Z</time></trkpt><trkpt lat="49.20548605658919" lon="2.5868695733009552"><ele>69.0</ele><time>2026-04-28T14:24:03.999Z</time></trkpt><trkpt lat="49.20543987974545" lon="2.586791250448123"><ele>69.0</ele><time>2026-04-28T14:24:07.999Z</time></trkpt><trkpt lat="49.20539761294926" lon="2.5867030196680134"><ele>69.0</ele><time>2026-04-28T14:24:10.999Z</time></trkpt><trkpt lat="49.20542861466051" lon="2.586391171898004"><ele>69.0</ele><time>2026-04-28T14:24:13.999Z</time></trkpt><trkpt lat="49.20534333925573" lon="2.5863261985990347"><ele>69.0</ele><time>2026-04-28T14:24:16.999Z</time></trkpt><trkpt lat="49.20527258713009" lon="2.586294260028173"><ele>69.0</ele><time>2026-04-28T14:24:18.999Z</time></trkpt><trkpt lat="49.20520778054316" lon="2.5862604135633105"><ele>69.0</ele><time>2026-04-28T14:24:21.999Z</time></trkpt><trkpt lat="49.20519924397408" lon="2.586111119138594"><ele>69.16666666666667</ele><time>2026-04-28T14:24:24.998Z</time></trkpt><trkpt lat="49.20513554070689" lon="2.5860262703722463"><ele>69.33333333333333</ele><time>2026-04-28T14:24:27.998Z</time></trkpt><trkpt lat="49.205095309720946" lon="2.585938109514971"><ele>69.5</ele><time>2026-04-28T14:24:30.998Z</time></trkpt><trkpt lat="49.205067812332146" lon="2.5858425472184288"><ele>69.66666666666666</ele><time>2026-04-28T14:24:37.998Z</time></trkpt><trkpt lat="49.20504646389672" lon="2.5857131206874344"><ele>69.83333333333333</ele><time>2026-04-28T14:24:40.998Z</time></trkpt><trkpt lat="49.20504482295109" lon="2.5856152602931686"><ele>70.0</ele><time>2026-04-28T14:24:43.998Z</time></trkpt><trkpt lat="49.20503815696805" lon="2.5854900493135258"><ele>70.33333333333333</ele><time>2026-04-28T14:24:46.998Z</time></trkpt><trkpt lat="49.205028400740915" lon="2.5853421769172495"><ele>70.66666666666666</ele><time>2026-04-28T14:24:49.998Z</time></trkpt><trkpt lat="49.20502430586428" lon="2.585228650537994"><ele>71.0</ele><time>2026-04-28T14:24:51.998Z</time></trkpt><trkpt lat="49.20502504660359" lon="2.5850767369525864"><ele>71.33333333333333</ele><time>2026-04-28T14:24:54.998Z</time></trkpt><trkpt lat="49.205034666509356" lon="2.5849739233906672"><ele>71.66666666666667</ele><time>2026-04-28T14:24:56.997Z</time></trkpt><trkpt lat="49.205042643691364" lon="2.584865764058167"><ele>72.0</ele><time>2026-04-28T14:24:58.997Z</time></trkpt><trkpt lat="49.205042688128174" lon="2.5847185677306084"><ele>72.00000000000001</ele><time>2026-04-28T14:25:01.997Z</time></trkpt><trkpt lat="49.20503342069529" lon="2.584618322211113"><ele>72.0</ele><time>2026-04-28T14:25:03.997Z</time></trkpt><trkpt lat="49.20504945787839" lon="2.5845121782956273"><ele>72.0</ele><time>2026-04-28T14:25:05.997Z</time></trkpt><trkpt lat="49.20508131132075" lon="2.584415186263926"><ele>72.0</ele><time>2026-04-28T14:25:07.997Z</time></trkpt><trkpt lat="49.20511357669919" lon="2.5843263824465637"><ele>72.0</ele><time>2026-04-28T14:25:09.997Z</time></trkpt><trkpt lat="49.205126924092006" lon="2.5842238151641337"><ele>72.00000000000001</ele><time>2026-04-28T14:25:11.997Z</time></trkpt><trkpt lat="49.205153907887805" lon="2.5841286295822403"><ele>72.0</ele><time>2026-04-28T14:25:13.997Z</time></trkpt><trkpt lat="49.205177660128534" lon="2.584038413889758"><ele>72.14285714285715</ele><time>2026-04-28T14:25:15.997Z</time></trkpt><trkpt lat="49.20519924768431" lon="2.583941313276896"><ele>72.28571428571429</ele><time>2026-04-28T14:25:17.997Z</time></trkpt><trkpt lat="49.20521769890929" lon="2.583844012527605"><ele>72.42857142857143</ele><time>2026-04-28T14:25:19.997Z</time></trkpt><trkpt lat="49.205226243335694" lon="2.5837472103559356"><ele>72.57142857142858</ele><time>2026-04-28T14:25:21.997Z</time></trkpt><trkpt lat="49.20525485646993" lon="2.583623040664545"><ele>72.71428571428572</ele><time>2026-04-28T14:25:24.997Z</time></trkpt><trkpt lat="49.20530024252039" lon="2.5835540560890076"><ele>72.85714285714286</ele><time>2026-04-28T14:25:27Z</time></trkpt><trkpt lat="49.20533343777439" lon="2.5834271505615476"><ele>73.0</ele><time>2026-04-28T14:25:30Z</time></trkpt><trkpt lat="49.20535919613201" lon="2.583322532043639"><ele>72.71428571428571</ele><time>2026-04-28T14:25:32Z</time></trkpt><trkpt lat="49.20539485031472" lon="2.5832178804207406"><ele>72.42857142857143</ele><time>2026-04-28T14:25:35Z</time></trkpt><trkpt lat="49.20546000639758" lon="2.583149571191024"><ele>72.14285714285714</ele><time>2026-04-28T14:25:38Z</time></trkpt><trkpt lat="49.20551298907432" lon="2.5830480647295"><ele>71.85714285714286</ele><time>2026-04-28T14:25:41Z</time></trkpt><trkpt lat="49.205548619891985" lon="2.5829464480081534"><ele>71.57142857142857</ele><time>2026-04-28T14:25:45Z</time></trkpt><trkpt lat="49.205590431716075" lon="2.5828720432375345"><ele>71.28571428571428</ele><time>2026-04-28T14:25:48Z</time></trkpt><trkpt lat="49.205630603766615" lon="2.582786525569799"><ele>71.0</ele><time>2026-04-28T14:25:51Z</time></trkpt><trkpt lat="49.20568895991443" lon="2.582708640775587"><ele>72.33333333333334</ele><time>2026-04-28T14:25:54Z</time></trkpt><trkpt lat="49.205732265634985" lon="2.5826196825850816"><ele>73.66666666666667</ele><time>2026-04-28T14:25:56.999Z</time></trkpt><trkpt lat="49.205779493879696" lon="2.582526765271451"><ele>75.0</ele><time>2026-04-28T14:26:00.999Z</time></trkpt><trkpt lat="49.204685534938996" lon="2.5833380751242725"><ele>72.4</ele><time>2026-04-28T14:29:15.125Z</time></trkpt><trkpt lat="49.20457034015186" lon="2.5833493134067886"><ele>69.8</ele><time>2026-04-28T14:29:17.125Z</time></trkpt><trkpt lat="49.20448335115197" lon="2.583296592309372"><ele>67.2</ele><time>2026-04-28T14:29:19.124Z</time></trkpt><trkpt lat="49.20440489946117" lon="2.5832287615372613"><ele>64.6</ele><time>2026-04-28T14:29:21Z</time></trkpt><trkpt lat="49.20430645436498" lon="2.5831614949858164"><ele>62.0</ele><time>2026-04-28T14:29:23Z</time></trkpt><trkpt lat="49.20418377789184" lon="2.5830784663558983"><ele>62.00000000000001</ele><time>2026-04-28T14:29:25Z</time></trkpt><trkpt lat="49.204124727125226" lon="2.583041056290912"><ele>62.0</ele><time>2026-04-28T14:29:26Z</time></trkpt><trkpt lat="49.204067957302456" lon="2.5829324492009325"><ele>62.0</ele><time>2026-04-28T14:29:27Z</time></trkpt><trkpt lat="49.203993339003816" lon="2.5828759334387312"><ele>62.0</ele><time>2026-04-28T14:29:28Z</time></trkpt><trkpt lat="49.203915993737674" lon="2.582817352235866"><ele>62.00000000000001</ele><time>2026-04-28T14:29:29Z</time></trkpt><trkpt lat="49.203835443169474" lon="2.5827597599326446"><ele>62.0</ele><time>2026-04-28T14:29:30Z</time></trkpt><trkpt lat="49.20374662321631" lon="2.5826971304590027"><ele>60.5</ele><time>2026-04-28T14:29:31Z</time></trkpt><trkpt lat="49.203628530546695" lon="2.582616661256852"><ele>59.0</ele><time>2026-04-28T14:29:32Z</time></trkpt><trkpt lat="49.20351405607612" lon="2.5825617422101588"><ele>57.5</ele><time>2026-04-28T14:29:33Z</time></trkpt><trkpt lat="49.20341095999703" lon="2.582466665002744"><ele>56.0</ele><time>2026-04-28T14:29:34Z</time></trkpt><trkpt lat="49.20331658885521" lon="2.5823923844479206"><ele>56.0</ele><time>2026-04-28T14:29:35Z</time></trkpt><trkpt lat="49.203223741824765" lon="2.5823270269639207"><ele>55.99999999999999</ele><time>2026-04-28T14:29:36Z</time></trkpt><trkpt lat="49.203133876857635" lon="2.5822300097992033"><ele>55.99999999999999</ele><time>2026-04-28T14:29:37Z</time></trkpt><trkpt lat="49.203034478978495" lon="2.582163627098156"><ele>56.0</ele><time>2026-04-28T14:29:38Z</time></trkpt><trkpt lat="49.202940121969824" lon="2.582099306439548"><ele>56.0</ele><time>2026-04-28T14:29:39Z</time></trkpt><trkpt lat="49.20286505167714" lon="2.582042574456678"><ele>55.25</ele><time>2026-04-28T14:29:40Z</time></trkpt><trkpt lat="49.2027528701583" lon="2.5819939842467194"><ele>54.5</ele><time>2026-04-28T14:29:42Z</time></trkpt><trkpt lat="49.202643405489056" lon="2.58190330951669"><ele>53.75</ele><time>2026-04-28T14:29:44Z</time></trkpt><trkpt lat="49.20252826886559" lon="2.5818600974256776"><ele>53.0</ele><time>2026-04-28T14:29:46Z</time></trkpt><trkpt lat="49.202414737785574" lon="2.581779489543544"><ele>53.0</ele><time>2026-04-28T14:29:48Z</time></trkpt><trkpt lat="49.202377027532776" lon="2.581670340389204"><ele>53.0</ele><time>2026-04-28T14:29:49Z</time></trkpt><trkpt lat="49.202320928589984" lon="2.5816264864992604"><ele>53.0</ele><time>2026-04-28T14:29:50Z</time></trkpt><trkpt lat="49.202215449855" lon="2.581544031232336"><ele>53.0</ele><time>2026-04-28T14:29:52Z</time></trkpt><trkpt lat="49.202102211916625" lon="2.5814636023870126"><ele>53.0</ele><time>2026-04-28T14:29:54Z</time></trkpt><trkpt lat="49.20198430994662" lon="2.581440925166986"><ele>53.4</ele><time>2026-04-28T14:29:55.999Z</time></trkpt><trkpt lat="49.201879653754304" lon="2.581379642643593"><ele>53.8</ele><time>2026-04-28T14:29:57.999Z</time></trkpt><trkpt lat="49.201774852096634" lon="2.581323351515746"><ele>54.2</ele><time>2026-04-28T14:29:59.999Z</time></trkpt><trkpt lat="49.20168002873608" lon="2.5812606245893157"><ele>54.6</ele><time>2026-04-28T14:30:01.999Z</time></trkpt><trkpt lat="49.20159006432038" lon="2.581208996916531"><ele>55.0</ele><time>2026-04-28T14:30:03.999Z</time></trkpt><trkpt lat="49.20150164221999" lon="2.5811633494366184"><ele>55.83333333333333</ele><time>2026-04-28T14:30:05.999Z</time></trkpt><trkpt lat="49.20142006726428" lon="2.5811132747104777"><ele>56.666666666666664</ele><time>2026-04-28T14:30:07.999Z</time></trkpt><trkpt lat="49.20134088265525" lon="2.581060289760037"><ele>57.5</ele><time>2026-04-28T14:30:09.999Z</time></trkpt><trkpt lat="49.2012686213661" lon="2.5810102804686075"><ele>58.33333333333333</ele><time>2026-04-28T14:30:11.999Z</time></trkpt><trkpt lat="49.20119908896621" lon="2.580949670881523"><ele>59.166666666666664</ele><time>2026-04-28T14:30:13.999Z</time></trkpt><trkpt lat="49.20112115994704" lon="2.580908434665617"><ele>60.0</ele><time>2026-04-28T14:30:15.999Z</time></trkpt><trkpt lat="49.201047241319934" lon="2.58085268776589"><ele>60.0</ele><time>2026-04-28T14:30:17.999Z</time></trkpt><trkpt lat="49.200964932240836" lon="2.5808139231761786"><ele>60.0</ele><time>2026-04-28T14:30:19.999Z</time></trkpt><trkpt lat="49.20088765901882" lon="2.5807676219775657"><ele>60.0</ele><time>2026-04-28T14:30:21.999Z</time></trkpt><trkpt lat="49.20080840934239" lon="2.5807140700411586"><ele>60.0</ele><time>2026-04-28T14:30:23.999Z</time></trkpt><trkpt lat="49.20073468526178" lon="2.5806569502193675"><ele>60.0</ele><time>2026-04-28T14:30:25.999Z</time></trkpt><trkpt lat="49.20065953955176" lon="2.580590720499865"><ele>60.0</ele><time>2026-04-28T14:30:27.998Z</time></trkpt><trkpt lat="49.20058756253609" lon="2.580513874539653"><ele>60.0</ele><time>2026-04-28T14:30:29.998Z</time></trkpt><trkpt lat="49.20050761137482" lon="2.5804563973610293"><ele>60.0</ele><time>2026-04-28T14:30:31.998Z</time></trkpt><trkpt lat="49.2004298618877" lon="2.5803981498132957"><ele>60.0</ele><time>2026-04-28T14:30:33.998Z</time></trkpt><trkpt lat="49.20034876463701" lon="2.5803414981630124"><ele>60.0</ele><time>2026-04-28T14:30:35.998Z</time></trkpt><trkpt lat="49.200267367507145" lon="2.580282859738347"><ele>60.0</ele><time>2026-04-28T14:30:37.998Z</time></trkpt><trkpt lat="49.20018725507354" lon="2.580224638973358"><ele>60.0</ele><time>2026-04-28T14:30:39.998Z</time></trkpt><trkpt lat="49.200107317191495" lon="2.5801611610865383"><ele>60.0</ele><time>2026-04-28T14:30:41.998Z</time></trkpt><trkpt lat="49.20002276200535" lon="2.5801031610355825"><ele>60.0</ele><time>2026-04-28T14:30:43.998Z</time></trkpt><trkpt lat="49.199937711263615" lon="2.580043438003474"><ele>60.0</ele><time>2026-04-28T14:30:45.998Z</time></trkpt><trkpt lat="49.199848197415946" lon="2.5799824076040276"><ele>60.0</ele><time>2026-04-28T14:30:47.998Z</time></trkpt><trkpt lat="49.199765755443075" lon="2.5799159866944112"><ele>60.0</ele><time>2026-04-28T14:30:49.998Z</time></trkpt><trkpt lat="49.199680050087956" lon="2.579849364848229"><ele>60.2</ele><time>2026-04-28T14:30:51.998Z</time></trkpt><trkpt lat="49.199595089044195" lon="2.5797834306459437"><ele>60.4</ele><time>2026-04-28T14:30:53.998Z</time></trkpt><trkpt lat="49.19950987158736" lon="2.57972200172753"><ele>60.599999999999994</ele><time>2026-04-28T14:30:55.998Z</time></trkpt><trkpt lat="49.199422378707915" lon="2.579668872344614"><ele>60.8</ele><time>2026-04-28T14:30:57.998Z</time></trkpt><trkpt lat="49.19933536070636" lon="2.579626516261317"><ele>61.0</ele><time>2026-04-28T14:30:59.998Z</time></trkpt><trkpt lat="49.199249287314274" lon="2.579570039768771"><ele>60.83333333333333</ele><time>2026-04-28T14:31:01.997Z</time></trkpt><trkpt lat="49.19917089434641" lon="2.579476038699099"><ele>60.666666666666664</ele><time>2026-04-28T14:31:03.997Z</time></trkpt><trkpt lat="49.19908307582214" lon="2.5794221237907737"><ele>60.5</ele><time>2026-04-28T14:31:05.997Z</time></trkpt><trkpt lat="49.19902136734097" lon="2.5793666724396864"><ele>60.33333333333333</ele><time>2026-04-28T14:31:07.997Z</time></trkpt><trkpt lat="49.19900318260939" lon="2.579262778011527"><ele>60.166666666666664</ele><time>2026-04-28T14:31:09.997Z</time></trkpt><trkpt lat="49.19902733648822" lon="2.579147681546265"><ele>60.0</ele><time>2026-04-28T14:31:11.997Z</time></trkpt><trkpt lat="49.1990343409124" lon="2.5790420359392394"><ele>59.6</ele><time>2026-04-28T14:31:13.997Z</time></trkpt><trkpt lat="49.19899072408588" lon="2.5791230679979047"><ele>59.2</ele><time>2026-04-28T14:31:16.997Z</time></trkpt><trkpt lat="49.19897062616487" lon="2.5792498548070824"><ele>58.8</ele><time>2026-04-28T14:31:19.997Z</time></trkpt><trkpt lat="49.19888629141075" lon="2.5792812714426328"><ele>58.4</ele><time>2026-04-28T14:31:21.997Z</time></trkpt><trkpt lat="49.19879537177072" lon="2.579192463185579"><ele>58.0</ele><time>2026-04-28T14:31:23.997Z</time></trkpt><trkpt lat="49.198701565816485" lon="2.5791312150593613"><ele>58.0</ele><time>2026-04-28T14:31:26Z</time></trkpt><trkpt lat="49.19860427238812" lon="2.5790663313445346"><ele>58.0</ele><time>2026-04-28T14:31:28Z</time></trkpt><trkpt lat="49.19850353274787" lon="2.5789978832935048"><ele>58.0</ele><time>2026-04-28T14:31:30Z</time></trkpt><trkpt lat="49.1984007918077" lon="2.5789313534241014"><ele>58.0</ele><time>2026-04-28T14:31:32Z</time></trkpt><trkpt lat="49.19829499490602" lon="2.5788646809023565"><ele>58.0</ele><time>2026-04-28T14:31:34Z</time></trkpt><trkpt lat="49.19818244455147" lon="2.5787952423760006"><ele>57.99999999999999</ele><time>2026-04-28T14:31:36Z</time></trkpt><trkpt lat="49.198064046393704" lon="2.5787227050289863"><ele>58.0</ele><time>2026-04-28T14:31:38Z</time></trkpt><trkpt lat="49.19800624036149" lon="2.5786787619780394"><ele>58.0</ele><time>2026-04-28T14:31:39Z</time></trkpt><trkpt lat="49.19794370069375" lon="2.578641080468058"><ele>58.0</ele><time>2026-04-28T14:31:40Z</time></trkpt><trkpt lat="49.197882194787475" lon="2.578595815855508"><ele>57.99999999999999</ele><time>2026-04-28T14:31:41Z</time></trkpt><trkpt lat="49.19781874428696" lon="2.5785525222833225"><ele>58.0</ele><time>2026-04-28T14:31:42Z</time></trkpt><trkpt lat="49.19775369408705" lon="2.578508632963009"><ele>57.71428571428572</ele><time>2026-04-28T14:31:43Z</time></trkpt><trkpt lat="49.19768839676662" lon="2.578465825000588"><ele>57.42857142857143</ele><time>2026-04-28T14:31:44Z</time></trkpt><trkpt lat="49.19762164515168" lon="2.5784227038813547"><ele>57.142857142857146</ele><time>2026-04-28T14:31:45Z</time></trkpt><trkpt lat="49.197558562570215" lon="2.578379149599535"><ele>56.85714285714286</ele><time>2026-04-28T14:31:46Z</time></trkpt><trkpt lat="49.19749100205383" lon="2.5783354979615822"><ele>56.57142857142857</ele><time>2026-04-28T14:31:47Z</time></trkpt><trkpt lat="49.19742332944225" lon="2.5782941263265693"><ele>56.285714285714285</ele><time>2026-04-28T14:31:48Z</time></trkpt><trkpt lat="49.197356361474206" lon="2.5782511143112234"><ele>56.0</ele><time>2026-04-28T14:31:49Z</time></trkpt><trkpt lat="49.19728925879094" lon="2.5782081388369193"><ele>55.857142857142854</ele><time>2026-04-28T14:31:50Z</time></trkpt><trkpt lat="49.197222839376145" lon="2.5781658024811573"><ele>55.714285714285715</ele><time>2026-04-28T14:31:51Z</time></trkpt><trkpt lat="49.19715512722167" lon="2.578121594319765"><ele>55.57142857142857</ele><time>2026-04-28T14:31:52Z</time></trkpt><trkpt lat="49.19708871893175" lon="2.578078009325844"><ele>55.42857142857143</ele><time>2026-04-28T14:31:53Z</time></trkpt><trkpt lat="49.19702230180762" lon="2.5780341212153637"><ele>55.285714285714285</ele><time>2026-04-28T14:31:54Z</time></trkpt><trkpt lat="49.19695573346718" lon="2.5779924221931334"><ele>55.14285714285714</ele><time>2026-04-28T14:31:55Z</time></trkpt><trkpt lat="49.196888450442" lon="2.577945448793134"><ele>55.0</ele><time>2026-04-28T14:31:56Z</time></trkpt><trkpt lat="49.19681780731487" lon="2.5778986758412983"><ele>54.99999999999999</ele><time>2026-04-28T14:31:57Z</time></trkpt><trkpt lat="49.19674689616059" lon="2.577852646092615"><ele>55.0</ele><time>2026-04-28T14:31:57.999Z</time></trkpt><trkpt lat="49.19667354450356" lon="2.5778029856531854"><ele>55.0</ele><time>2026-04-28T14:31:58.999Z</time></trkpt><trkpt lat="49.19660272828417" lon="2.577755407520196"><ele>55.0</ele><time>2026-04-28T14:31:59.999Z</time></trkpt><trkpt lat="49.19652813258716" lon="2.577707783066653"><ele>54.99999999999999</ele><time>2026-04-28T14:32:00.999Z</time></trkpt><trkpt lat="49.196454847933175" lon="2.5776623033282005"><ele>55.0</ele><time>2026-04-28T14:32:01.999Z</time></trkpt><trkpt lat="49.19638318353403" lon="2.577616840746236"><ele>54.99999999999999</ele><time>2026-04-28T14:32:02.999Z</time></trkpt><trkpt lat="49.1963102479432" lon="2.577574478195851"><ele>55.0</ele><time>2026-04-28T14:32:03.999Z</time></trkpt><trkpt lat="49.19623674256674" lon="2.5775278292179253"><ele>55.0</ele><time>2026-04-28T14:32:04.999Z</time></trkpt><trkpt lat="49.196164212107256" lon="2.577485561517104"><ele>55.0</ele><time>2026-04-28T14:32:05.999Z</time></trkpt><trkpt lat="49.19608870296067" lon="2.5774409111218053"><ele>54.99999999999999</ele><time>2026-04-28T14:32:06.999Z</time></trkpt><trkpt lat="49.19601419965385" lon="2.5773950379949686"><ele>55.0</ele><time>2026-04-28T14:32:07.999Z</time></trkpt><trkpt lat="49.195940179018486" lon="2.577347246268884"><ele>54.99999999999999</ele><time>2026-04-28T14:32:08.999Z</time></trkpt><trkpt lat="49.195869096924916" lon="2.577301805696732"><ele>55.0</ele><time>2026-04-28T14:32:09.999Z</time></trkpt><trkpt lat="49.195802494503845" lon="2.5772419388650705"><ele>55.0</ele><time>2026-04-28T14:32:10.999Z</time></trkpt><trkpt lat="49.19573516991457" lon="2.5772014225551443"><ele>55.0</ele><time>2026-04-28T14:32:11.999Z</time></trkpt><trkpt lat="49.19566937858947" lon="2.577185875310567"><ele>54.99999999999999</ele><time>2026-04-28T14:32:12.999Z</time></trkpt><trkpt lat="49.19558409361598" lon="2.5770608122835608"><ele>55.0</ele><time>2026-04-28T14:32:14.999Z</time></trkpt><trkpt lat="49.195514205991515" lon="2.576956373859634"><ele>55.0</ele><time>2026-04-28T14:32:16.999Z</time></trkpt><trkpt lat="49.19541198152552" lon="2.576866328038767"><ele>55.0</ele><time>2026-04-28T14:32:18.999Z</time></trkpt><trkpt lat="49.19529456176983" lon="2.57686159245723"><ele>55.0</ele><time>2026-04-28T14:32:20.999Z</time></trkpt><trkpt lat="49.195179745067776" lon="2.576779598441756"><ele>55.0</ele><time>2026-04-28T14:32:22.999Z</time></trkpt><trkpt lat="49.19506278048718" lon="2.576715884804736"><ele>54.99999999999999</ele><time>2026-04-28T14:32:24.999Z</time></trkpt><trkpt lat="49.19494669427714" lon="2.5766338972080454"><ele>55.0</ele><time>2026-04-28T14:32:26.999Z</time></trkpt><trkpt lat="49.19488784584617" lon="2.5765938347973902"><ele>55.0</ele><time>2026-04-28T14:32:27.999Z</time></trkpt><trkpt lat="49.19482944009909" lon="2.576552111909122"><ele>55.0</ele><time>2026-04-28T14:32:28.999Z</time></trkpt><trkpt lat="49.19477096710023" lon="2.5765095886648415"><ele>54.99999999999999</ele><time>2026-04-28T14:32:29.999Z</time></trkpt><trkpt lat="49.19470964448849" lon="2.576469449079364"><ele>55.0</ele><time>2026-04-28T14:32:30.999Z</time></trkpt><trkpt lat="49.19464859755192" lon="2.576429781415162"><ele>54.99999999999999</ele><time>2026-04-28T14:32:31.998Z</time></trkpt><trkpt lat="49.194589702376916" lon="2.5763884259301344"><ele>55.0</ele><time>2026-04-28T14:32:32.998Z</time></trkpt><trkpt lat="49.19452915942647" lon="2.576346547232494"><ele>55.0</ele><time>2026-04-28T14:32:33.998Z</time></trkpt><trkpt lat="49.194471234840385" lon="2.576300414943378"><ele>55.0</ele><time>2026-04-28T14:32:34.998Z</time></trkpt><trkpt lat="49.19435482438963" lon="2.5762231934470297"><ele>54.99999999999999</ele><time>2026-04-28T14:32:36.998Z</time></trkpt><trkpt lat="49.19424556146713" lon="2.576147246627872"><ele>55.0</ele><time>2026-04-28T14:32:38.998Z</time></trkpt><trkpt lat="49.194134607554425" lon="2.5760712952488145"><ele>55.5</ele><time>2026-04-28T14:32:40.998Z</time></trkpt><trkpt lat="49.194025884218945" lon="2.5759926527213315"><ele>56.0</ele><time>2026-04-28T14:32:42.998Z</time></trkpt><trkpt lat="49.19391926411994" lon="2.575920593587195"><ele>56.5</ele><time>2026-04-28T14:32:44.998Z</time></trkpt><trkpt lat="49.193819096393575" lon="2.5758477648311615"><ele>57.0</ele><time>2026-04-28T14:32:46.998Z</time></trkpt><trkpt lat="49.193722388286965" lon="2.5757742387398257"><ele>57.0</ele><time>2026-04-28T14:32:48.998Z</time></trkpt><trkpt lat="49.193631023721174" lon="2.5757135292620674"><ele>57.0</ele><time>2026-04-28T14:32:50.998Z</time></trkpt><trkpt lat="49.193532659737315" lon="2.5756395602609454"><ele>57.0</ele><time>2026-04-28T14:32:52.998Z</time></trkpt><trkpt lat="49.193438134133395" lon="2.5755774609032485"><ele>57.0</ele><time>2026-04-28T14:32:54.998Z</time></trkpt><trkpt lat="49.19334983886633" lon="2.5755099437899758"><ele>57.0</ele><time>2026-04-28T14:32:56.998Z</time></trkpt><trkpt lat="49.19325537773055" lon="2.5754485704518553"><ele>57.2</ele><time>2026-04-28T14:32:58.998Z</time></trkpt><trkpt lat="49.19316640893402" lon="2.575384812663657"><ele>57.400000000000006</ele><time>2026-04-28T14:33:00.998Z</time></trkpt><trkpt lat="49.19308063002479" lon="2.5753229442374264"><ele>57.599999999999994</ele><time>2026-04-28T14:33:02.998Z</time></trkpt><trkpt lat="49.19299117729029" lon="2.575265882471468"><ele>57.8</ele><time>2026-04-28T14:33:04.998Z</time></trkpt><trkpt lat="49.192906043983776" lon="2.5752056402592878"><ele>58.0</ele><time>2026-04-28T14:33:06.997Z</time></trkpt><trkpt lat="49.192822895887446" lon="2.575141401122376"><ele>58.2</ele><time>2026-04-28T14:33:08.997Z</time></trkpt><trkpt lat="49.19273666487549" lon="2.575078728849343"><ele>58.4</ele><time>2026-04-28T14:33:10.997Z</time></trkpt><trkpt lat="49.192651497284906" lon="2.575019299285123"><ele>58.60000000000001</ele><time>2026-04-28T14:33:12.997Z</time></trkpt><trkpt lat="49.19256710368089" lon="2.574961986501769"><ele>58.800000000000004</ele><time>2026-04-28T14:33:14.997Z</time></trkpt><trkpt lat="49.192483007748834" lon="2.574900226869927"><ele>59.0</ele><time>2026-04-28T14:33:16.997Z</time></trkpt><trkpt lat="49.19239626592084" lon="2.5748391917848297"><ele>59.2</ele><time>2026-04-28T14:33:18.997Z</time></trkpt><trkpt lat="49.19230918057114" lon="2.574778585657881"><ele>59.400000000000006</ele><time>2026-04-28T14:33:20.997Z</time></trkpt><trkpt lat="49.1922197924107" lon="2.5747108063989668"><ele>59.6</ele><time>2026-04-28T14:33:22.997Z</time></trkpt><trkpt lat="49.19212712076114" lon="2.574647479647448"><ele>59.8</ele><time>2026-04-28T14:33:24.997Z</time></trkpt><trkpt lat="49.192038058691274" lon="2.574576087352676"><ele>60.0</ele><time>2026-04-28T14:33:26.997Z</time></trkpt><trkpt lat="49.191947070821264" lon="2.574503041809188"><ele>60.2</ele><time>2026-04-28T14:33:28.997Z</time></trkpt><trkpt lat="49.19185440369737" lon="2.574431845783132"><ele>60.4</ele><time>2026-04-28T14:33:31Z</time></trkpt><trkpt lat="49.191767362594085" lon="2.5743576934015557"><ele>60.599999999999994</ele><time>2026-04-28T14:33:33Z</time></trkpt><trkpt lat="49.19167411260237" lon="2.574269208918204"><ele>60.8</ele><time>2026-04-28T14:33:35Z</time></trkpt><trkpt lat="49.19161212791777" lon="2.5741261315180437"><ele>61.0</ele><time>2026-04-28T14:33:37Z</time></trkpt><trkpt lat="49.191577712743374" lon="2.57404455381244"><ele>61.4</ele><time>2026-04-28T14:33:38Z</time></trkpt><trkpt lat="49.191500660819294" lon="2.5739018355139085"><ele>61.8</ele><time>2026-04-28T14:33:40Z</time></trkpt><trkpt lat="49.19137904237094" lon="2.5738384380386568"><ele>62.199999999999996</ele><time>2026-04-28T14:33:42Z</time></trkpt><trkpt lat="49.1913145937805" lon="2.5738422130384504"><ele>62.599999999999994</ele><time>2026-04-28T14:33:43Z</time></trkpt><trkpt lat="49.1912013479303" lon="2.5738982775098496"><ele>63.0</ele><time>2026-04-28T14:33:45Z</time></trkpt><trkpt lat="49.191121409054865" lon="2.5740247451104414"><ele>63.0</ele><time>2026-04-28T14:33:47Z</time></trkpt><trkpt lat="49.19107759906372" lon="2.574178625661538"><ele>63.0</ele><time>2026-04-28T14:33:49Z</time></trkpt><trkpt lat="49.19107239213749" lon="2.5743398148320478"><ele>63.0</ele><time>2026-04-28T14:33:51Z</time></trkpt><trkpt lat="49.19107003840827" lon="2.574460808749619"><ele>63.0</ele><time>2026-04-28T14:33:53Z</time></trkpt><trkpt lat="49.19101061501552" lon="2.574504647890116"><ele>63.0</ele><time>2026-04-28T14:33:56Z</time></trkpt><trkpt lat="49.19093818653746" lon="2.5745095756795466"><ele>63.0</ele><time>2026-04-28T14:33:58Z</time></trkpt><trkpt lat="49.19086778038232" lon="2.5744974417136883"><ele>63.0</ele><time>2026-04-28T14:34:00Z</time></trkpt><trkpt lat="49.19079887141517" lon="2.5744825817755537"><ele>63.0</ele><time>2026-04-28T14:34:02Z</time></trkpt><trkpt lat="49.19071366298721" lon="2.5744862464299247"><ele>63.0</ele><time>2026-04-28T14:34:05Z</time></trkpt><trkpt lat="49.19062063438788" lon="2.5745026634999175"><ele>63.0</ele><time>2026-04-28T14:34:07.999Z</time></trkpt><trkpt lat="49.19054604753277" lon="2.5744967749737864"><ele>63.0</ele><time>2026-04-28T14:34:09.999Z</time></trkpt><trkpt lat="49.19047763819223" lon="2.5744744767766288"><ele>63.0</ele><time>2026-04-28T14:34:11.999Z</time></trkpt><trkpt lat="49.19040439281076" lon="2.57447813293601"><ele>63.666666666666664</ele><time>2026-04-28T14:34:13.999Z</time></trkpt><trkpt lat="49.1903356393227" lon="2.5744817896839853"><ele>64.33333333333333</ele><time>2026-04-28T14:34:15.999Z</time></trkpt><trkpt lat="49.19026939251878" lon="2.574488338410805"><ele>65.0</ele><time>2026-04-28T14:34:17.999Z</time></trkpt><trkpt lat="49.19018542387548" lon="2.574485546060099"><ele>65.66666666666666</ele><time>2026-04-28T14:34:19.999Z</time></trkpt><trkpt lat="49.190095044115736" lon="2.5744787846562094"><ele>66.33333333333333</ele><time>2026-04-28T14:34:21.999Z</time></trkpt><trkpt lat="49.190007011459684" lon="2.574483272950539"><ele>67.0</ele><time>2026-04-28T14:34:23.999Z</time></trkpt><trkpt lat="49.189918964935615" lon="2.574487147646819"><ele>67.66666666666666</ele><time>2026-04-28T14:34:25.999Z</time></trkpt><trkpt lat="49.189823716531535" lon="2.5744706537735214"><ele>68.33333333333333</ele><time>2026-04-28T14:34:27.999Z</time></trkpt><trkpt lat="49.18973756356621" lon="2.5744707406769716"><ele>69.0</ele><time>2026-04-28T14:34:29.999Z</time></trkpt><trkpt lat="49.189652093440465" lon="2.5744693716496294"><ele>69.66666666666667</ele><time>2026-04-28T14:34:31.999Z</time></trkpt><trkpt lat="49.18956325157504" lon="2.574474848118563"><ele>70.33333333333334</ele><time>2026-04-28T14:34:33.999Z</time></trkpt><trkpt lat="49.18947557044225" lon="2.5744720758553368"><ele>71.0</ele><time>2026-04-28T14:34:35.999Z</time></trkpt><trkpt lat="49.18939053096137" lon="2.57449019197796"><ele>71.0</ele><time>2026-04-28T14:34:37.999Z</time></trkpt><trkpt lat="49.18929151086517" lon="2.574487540870964"><ele>71.0</ele><time>2026-04-28T14:34:39.998Z</time></trkpt><trkpt lat="49.18919443654818" lon="2.5744728199746842"><ele>71.0</ele><time>2026-04-28T14:34:41.998Z</time></trkpt><trkpt lat="49.189105154514415" lon="2.574471293996751"><ele>71.0</ele><time>2026-04-28T14:34:43.998Z</time></trkpt><trkpt lat="49.18901715685145" lon="2.5744697804283723"><ele>71.0</ele><time>2026-04-28T14:34:45.998Z</time></trkpt><trkpt lat="49.18893799822852" lon="2.574473210897284"><ele>71.2</ele><time>2026-04-28T14:34:47.998Z</time></trkpt><trkpt lat="49.188851300560145" lon="2.574495346955596"><ele>71.39999999999999</ele><time>2026-04-28T14:34:49.998Z</time></trkpt><trkpt lat="49.188762578120226" lon="2.57448126707236"><ele>71.6</ele><time>2026-04-28T14:34:51.998Z</time></trkpt><trkpt lat="49.18866601268008" lon="2.5745045269223628"><ele>71.8</ele><time>2026-04-28T14:34:53.998Z</time></trkpt><trkpt lat="49.188572227307525" lon="2.574512487727893"><ele>72.0</ele><time>2026-04-28T14:34:55.998Z</time></trkpt><trkpt lat="49.18848828198055" lon="2.5745051724362957"><ele>72.0</ele><time>2026-04-28T14:34:57.998Z</time></trkpt><trkpt lat="49.18841200597069" lon="2.574473508893408"><ele>72.0</ele><time>2026-04-28T14:34:59.998Z</time></trkpt><trkpt lat="49.1883305039032" lon="2.5744597505640123"><ele>72.0</ele><time>2026-04-28T14:35:01.998Z</time></trkpt><trkpt lat="49.18825189242506" lon="2.574497280224331"><ele>72.0</ele><time>2026-04-28T14:35:03.998Z</time></trkpt><trkpt lat="49.188176138840824" lon="2.5744753439976216"><ele>72.0</ele><time>2026-04-28T14:35:05.998Z</time></trkpt><trkpt lat="49.18808351128685" lon="2.574464408731024"><ele>72.0</ele><time>2026-04-28T14:35:07.998Z</time></trkpt><trkpt lat="49.18798966395199" lon="2.574460786186326"><ele>71.33333333333333</ele><time>2026-04-28T14:35:09.998Z</time></trkpt><trkpt lat="49.18789973980731" lon="2.574457885652785"><ele>70.66666666666667</ele><time>2026-04-28T14:35:11.997Z</time></trkpt><trkpt lat="49.18781184854137" lon="2.5744478525650165"><ele>70.0</ele><time>2026-04-28T14:35:13.997Z</time></trkpt><trkpt lat="49.18772239028864" lon="2.574458621079723"><ele>69.33333333333334</ele><time>2026-04-28T14:35:15.997Z</time></trkpt><trkpt lat="49.18764237457113" lon="2.5744686746050345"><ele>68.66666666666667</ele><time>2026-04-28T14:35:17.997Z</time></trkpt><trkpt lat="49.18756805112451" lon="2.5744475593269187"><ele>68.0</ele><time>2026-04-28T14:35:19.997Z</time></trkpt><trkpt lat="49.187481111764825" lon="2.5744580878975922"><ele>68.0</ele><time>2026-04-28T14:35:21.997Z</time></trkpt><trkpt lat="49.18739817868217" lon="2.5744446110203882"><ele>68.0</ele><time>2026-04-28T14:35:23.997Z</time></trkpt><trkpt lat="49.18731694249088" lon="2.5744471208866995"><ele>68.0</ele><time>2026-04-28T14:35:25.997Z</time></trkpt><trkpt lat="49.18722734242532" lon="2.5744376865751564"><ele>68.0</ele><time>2026-04-28T14:35:27.997Z</time></trkpt><trkpt lat="49.187150327433784" lon="2.5744311930919186"><ele>68.0</ele><time>2026-04-28T14:35:29.997Z</time></trkpt><trkpt lat="49.187069376064784" lon="2.574433068755029"><ele>68.0</ele><time>2026-04-28T14:35:31.997Z</time></trkpt><trkpt lat="49.18699014553986" lon="2.5744375030845617"><ele>67.66666666666667</ele><time>2026-04-28T14:35:33.997Z</time></trkpt><trkpt lat="49.186910454925226" lon="2.574430848561872"><ele>67.33333333333334</ele><time>2026-04-28T14:35:35.997Z</time></trkpt><trkpt lat="49.186825435776825" lon="2.5744144441817913"><ele>67.0</ele><time>2026-04-28T14:35:38Z</time></trkpt><trkpt lat="49.18673676566997" lon="2.5743848934713496"><ele>66.66666666666667</ele><time>2026-04-28T14:35:40Z</time></trkpt><trkpt lat="49.18665702679511" lon="2.5743444146185084"><ele>66.33333333333333</ele><time>2026-04-28T14:35:42Z</time></trkpt><trkpt lat="49.18658341770024" lon="2.574256536181309"><ele>66.0</ele><time>2026-04-28T14:35:44Z</time></trkpt><trkpt lat="49.18653367900211" lon="2.5741570002702168"><ele>65.8</ele><time>2026-04-28T14:35:46Z</time></trkpt><trkpt lat="49.186459217316745" lon="2.5741137472213405"><ele>65.6</ele><time>2026-04-28T14:35:48Z</time></trkpt><trkpt lat="49.18638797651817" lon="2.574078334339069"><ele>65.4</ele><time>2026-04-28T14:35:51Z</time></trkpt><trkpt lat="49.18633669322178" lon="2.5743152433754535"><ele>65.2</ele><time>2026-04-28T14:35:52Z</time></trkpt><trkpt lat="49.186257691854024" lon="2.5742948062448865"><ele>65.0</ele><time>2026-04-28T14:35:54Z</time></trkpt><trkpt lat="49.186188825877444" lon="2.574271587440482"><ele>65.0</ele><time>2026-04-28T14:35:56Z</time></trkpt><trkpt lat="49.18611779202758" lon="2.574247637830936"><ele>65.0</ele><time>2026-04-28T14:35:58Z</time></trkpt><trkpt lat="49.18604618395551" lon="2.574223494753521"><ele>65.0</ele><time>2026-04-28T14:36:00Z</time></trkpt><trkpt lat="49.18597286033448" lon="2.574198773266057"><ele>65.0</ele><time>2026-04-28T14:36:02Z</time></trkpt><trkpt lat="49.18593796811687" lon="2.57385302501307"><ele>65.0</ele><time>2026-04-28T14:36:04Z</time></trkpt><trkpt lat="49.18585189327583" lon="2.5738307235392854"><ele>65.0</ele><time>2026-04-28T14:36:06Z</time></trkpt><trkpt lat="49.185764045634684" lon="2.5737930400889577"><ele>65.0</ele><time>2026-04-28T14:36:08Z</time></trkpt><trkpt lat="49.185687264492266" lon="2.5737656235850257"><ele>65.0</ele><time>2026-04-28T14:36:10Z</time></trkpt><trkpt lat="49.18561354160209" lon="2.5737597488119994"><ele>65.0</ele><time>2026-04-28T14:36:11.999Z</time></trkpt><trkpt lat="49.18553056106731" lon="2.573777245996454"><ele>65.0</ele><time>2026-04-28T14:36:13.999Z</time></trkpt><trkpt lat="49.18546227071026" lon="2.5737863532103167"><ele>64.66666666666667</ele><time>2026-04-28T14:36:15.999Z</time></trkpt><trkpt lat="49.185384313008726" lon="2.5738217604807447"><ele>64.33333333333334</ele><time>2026-04-28T14:36:17.999Z</time></trkpt><trkpt lat="49.185288959824554" lon="2.573843840204245"><ele>64.0</ele><time>2026-04-28T14:36:19.999Z</time></trkpt><trkpt lat="49.18519533794415" lon="2.5738781040957592"><ele>63.66666666666667</ele><time>2026-04-28T14:36:21.999Z</time></trkpt><trkpt lat="49.185120627547356" lon="2.57389938332001"><ele>63.333333333333336</ele><time>2026-04-28T14:36:23.999Z</time></trkpt><trkpt lat="49.18502926521887" lon="2.5739567380674657"><ele>63.0</ele><time>2026-04-28T14:36:25.999Z</time></trkpt><trkpt lat="49.184933936301114" lon="2.5740307058497938"><ele>63.0</ele><time>2026-04-28T14:36:27.999Z</time></trkpt><trkpt lat="49.18485242569037" lon="2.574100306301719"><ele>63.0</ele><time>2026-04-28T14:36:29.999Z</time></trkpt><trkpt lat="49.18477108182875" lon="2.574164288796029"><ele>63.0</ele><time>2026-04-28T14:36:31.999Z</time></trkpt><trkpt lat="49.18467672019188" lon="2.5742363542550355"><ele>63.0</ele><time>2026-04-28T14:36:33.999Z</time></trkpt><trkpt lat="49.184589974112384" lon="2.5742945644031114"><ele>63.0</ele><time>2026-04-28T14:36:35.999Z</time></trkpt><trkpt lat="49.18450416248737" lon="2.574356836546808"><ele>63.0</ele><time>2026-04-28T14:36:37.999Z</time></trkpt><trkpt lat="49.18441385829142" lon="2.5744294904706044"><ele>63.0</ele><time>2026-04-28T14:36:39.999Z</time></trkpt><trkpt lat="49.18431192029474" lon="2.5744810274440604"><ele>63.0</ele><time>2026-04-28T14:36:41.999Z</time></trkpt><trkpt lat="49.18420944858762" lon="2.574537116757319"><ele>63.0</ele><time>2026-04-28T14:36:43.999Z</time></trkpt><trkpt lat="49.18410917758375" lon="2.574580697242172"><ele>63.0</ele><time>2026-04-28T14:36:45.998Z</time></trkpt><trkpt lat="49.1840115723817" lon="2.574602373953723"><ele>63.2</ele><time>2026-04-28T14:36:47.998Z</time></trkpt><trkpt lat="49.18391203486586" lon="2.5746523304590965"><ele>63.4</ele><time>2026-04-28T14:36:49.998Z</time></trkpt><trkpt lat="49.183814864222725" lon="2.5746933328799395"><ele>63.60000000000001</ele><time>2026-04-28T14:36:51.998Z</time></trkpt><trkpt lat="49.18372152892113" lon="2.5747253136530306"><ele>63.800000000000004</ele><time>2026-04-28T14:36:53.998Z</time></trkpt><trkpt lat="49.18362858659676" lon="2.5747565061387645"><ele>64.0</ele><time>2026-04-28T14:36:55.998Z</time></trkpt><trkpt lat="49.18352559667152" lon="2.57482310367486"><ele>64.0</ele><time>2026-04-28T14:36:57.998Z</time></trkpt><trkpt lat="49.183425430013266" lon="2.5748848442737615"><ele>64.0</ele><time>2026-04-28T14:36:59.998Z</time></trkpt><trkpt lat="49.183322887370196" lon="2.574919013293272"><ele>64.0</ele><time>2026-04-28T14:37:01.998Z</time></trkpt><trkpt lat="49.183230535880874" lon="2.5749226076518523"><ele>64.0</ele><time>2026-04-28T14:37:03.998Z</time></trkpt><trkpt lat="49.18316870677595" lon="2.5748841942662857"><ele>64.0</ele><time>2026-04-28T14:37:04.998Z</time></trkpt><trkpt lat="49.18306557007006" lon="2.5748177782194372"><ele>64.2</ele><time>2026-04-28T14:37:06.998Z</time></trkpt><trkpt lat="49.18296322077418" lon="2.574761839400517"><ele>64.4</ele><time>2026-04-28T14:37:08.998Z</time></trkpt><trkpt lat="49.18285606582632" lon="2.5747413459670745"><ele>64.6</ele><time>2026-04-28T14:37:10.998Z</time></trkpt><trkpt lat="49.18274949592671" lon="2.574733729353649"><ele>64.8</ele><time>2026-04-28T14:37:12.998Z</time></trkpt><trkpt lat="49.18263897898655" lon="2.5747146606555282"><ele>65.0</ele><time>2026-04-28T14:37:14.998Z</time></trkpt><trkpt lat="49.18252148197668" lon="2.5747430462082743"><ele>65.0</ele><time>2026-04-28T14:37:16.998Z</time></trkpt><trkpt lat="49.18242348884031" lon="2.5747574254362333"><ele>65.0</ele><time>2026-04-28T14:37:18.997Z</time></trkpt><trkpt lat="49.18232266266152" lon="2.574712800820833"><ele>65.0</ele><time>2026-04-28T14:37:20.997Z</time></trkpt><trkpt lat="49.18223717155763" lon="2.5746426174880197"><ele>65.0</ele><time>2026-04-28T14:37:22.997Z</time></trkpt><trkpt lat="49.18214683430612" lon="2.5745737465447625"><ele>65.0</ele><time>2026-04-28T14:37:24.997Z</time></trkpt><trkpt lat="49.18205072694435" lon="2.574507332962927"><ele>64.6</ele><time>2026-04-28T14:37:26.997Z</time></trkpt><trkpt lat="49.18195974570089" lon="2.574447705638752"><ele>64.2</ele><time>2026-04-28T14:37:28.997Z</time></trkpt><trkpt lat="49.181880802579684" lon="2.574397099255108"><ele>63.8</ele><time>2026-04-28T14:37:30.997Z</time></trkpt><trkpt lat="49.18178822813688" lon="2.574340589816567"><ele>63.4</ele><time>2026-04-28T14:37:32.997Z</time></trkpt><trkpt lat="49.18169509360709" lon="2.5742745515677834"><ele>63.0</ele><time>2026-04-28T14:37:34.997Z</time></trkpt><trkpt lat="49.18160485187629" lon="2.574219004520939"><ele>63.0</ele><time>2026-04-28T14:37:36.997Z</time></trkpt><trkpt lat="49.181527344159704" lon="2.5741384687958084"><ele>63.0</ele><time>2026-04-28T14:37:38.997Z</time></trkpt><trkpt lat="49.18142896318928" lon="2.5740795738366433"><ele>63.0</ele><time>2026-04-28T14:37:40.997Z</time></trkpt><trkpt lat="49.181335615104686" lon="2.5740323803428713"><ele>63.0</ele><time>2026-04-28T14:37:43Z</time></trkpt><trkpt lat="49.18123836615788" lon="2.57395959819664"><ele>63.0</ele><time>2026-04-28T14:37:45Z</time></trkpt><trkpt lat="49.18114052912538" lon="2.5738961116234282"><ele>63.0</ele><time>2026-04-28T14:37:47Z</time></trkpt><trkpt lat="49.18104467112367" lon="2.5738310620155023"><ele>63.0</ele><time>2026-04-28T14:37:49Z</time></trkpt><trkpt lat="49.18094546798741" lon="2.57376521430618"><ele>63.0</ele><time>2026-04-28T14:37:51Z</time></trkpt><trkpt lat="49.18084749069414" lon="2.573691342552981"><ele>63.0</ele><time>2026-04-28T14:37:53Z</time></trkpt><trkpt lat="49.180753854744964" lon="2.57362530105422"><ele>63.0</ele><time>2026-04-28T14:37:55Z</time></trkpt><trkpt lat="49.18066471392635" lon="2.573583345212061"><ele>63.0</ele><time>2026-04-28T14:37:57Z</time></trkpt><trkpt lat="49.18057653156711" lon="2.5735379303090706"><ele>63.0</ele><time>2026-04-28T14:37:59Z</time></trkpt><trkpt lat="49.18048603337974" lon="2.5734983616401714"><ele>63.0</ele><time>2026-04-28T14:38:01Z</time></trkpt><trkpt lat="49.18040657750102" lon="2.5734250526757916"><ele>63.0</ele><time>2026-04-28T14:38:03Z</time></trkpt><trkpt lat="49.18034396603757" lon="2.5733622154184173"><ele>63.0</ele><time>2026-04-28T14:38:05Z</time></trkpt><trkpt lat="49.18028004267536" lon="2.5733016551312553"><ele>63.0</ele><time>2026-04-28T14:38:07Z</time></trkpt><trkpt lat="49.18021623672826" lon="2.573247279653393"><ele>63.0</ele><time>2026-04-28T14:38:09Z</time></trkpt><trkpt lat="49.1801413214218" lon="2.5732133148814937"><ele>63.0</ele><time>2026-04-28T14:38:10Z</time></trkpt><trkpt lat="49.1800636083013" lon="2.5731352693426994"><ele>63.0</ele><time>2026-04-28T14:38:12Z</time></trkpt><trkpt lat="49.17998754159089" lon="2.5730494213675144"><ele>63.0</ele><time>2026-04-28T14:38:14Z</time></trkpt><trkpt lat="49.17989035101969" lon="2.573006933349795"><ele>63.0</ele><time>2026-04-28T14:38:15.999Z</time></trkpt><trkpt lat="49.179793645197634" lon="2.5729459582798095"><ele>63.0</ele><time>2026-04-28T14:38:17.999Z</time></trkpt><trkpt lat="49.17970003498207" lon="2.5728793774640177"><ele>63.0</ele><time>2026-04-28T14:38:19.999Z</time></trkpt><trkpt lat="49.179595179318504" lon="2.5728112531009213"><ele>63.0</ele><time>2026-04-28T14:38:21.999Z</time></trkpt><trkpt lat="49.179505957939455" lon="2.5727423450519686"><ele>63.0</ele><time>2026-04-28T14:38:23.999Z</time></trkpt><trkpt lat="49.17941472907872" lon="2.5726840038926073"><ele>63.0</ele><time>2026-04-28T14:38:25.999Z</time></trkpt><trkpt lat="49.179341869874555" lon="2.5726270389965387"><ele>63.0</ele><time>2026-04-28T14:38:27.999Z</time></trkpt><trkpt lat="49.17925863991742" lon="2.5725777913309877"><ele>63.0</ele><time>2026-04-28T14:38:29.999Z</time></trkpt><trkpt lat="49.17917422258699" lon="2.572516575245108"><ele>63.0</ele><time>2026-04-28T14:38:31.999Z</time></trkpt><trkpt lat="49.17910591893637" lon="2.5724561605493315"><ele>63.0</ele><time>2026-04-28T14:38:33.999Z</time></trkpt><trkpt lat="49.17902142539233" lon="2.57239299053226"><ele>63.0</ele><time>2026-04-28T14:38:35.999Z</time></trkpt><trkpt lat="49.17893511762848" lon="2.5723403130402875"><ele>63.0</ele><time>2026-04-28T14:38:37.999Z</time></trkpt><trkpt lat="49.178835175238305" lon="2.5722677697045744"><ele>63.0</ele><time>2026-04-28T14:38:39.999Z</time></trkpt><trkpt lat="49.17876336779819" lon="2.572207912522551"><ele>63.0</ele><time>2026-04-28T14:38:41.999Z</time></trkpt><trkpt lat="49.1787051753969" lon="2.5721668214437483"><ele>63.0</ele><time>2026-04-28T14:38:42.999Z</time></trkpt><trkpt lat="49.178602426051256" lon="2.5721108399900396"><ele>63.0</ele><time>2026-04-28T14:38:44.999Z</time></trkpt><trkpt lat="49.178520239314174" lon="2.5720681574623616"><ele>63.0</ele><time>2026-04-28T14:38:46.998Z</time></trkpt><trkpt lat="49.17844032881476" lon="2.57199233184778"><ele>63.0</ele><time>2026-04-28T14:38:48.998Z</time></trkpt><trkpt lat="49.17835885502562" lon="2.571952439880596"><ele>63.166666666666664</ele><time>2026-04-28T14:38:50.998Z</time></trkpt><trkpt lat="49.178290331763" lon="2.5718992881016383"><ele>63.33333333333333</ele><time>2026-04-28T14:38:52.998Z</time></trkpt><trkpt lat="49.178222726710864" lon="2.5718631489600483"><ele>63.5</ele><time>2026-04-28T14:38:54.998Z</time></trkpt><trkpt lat="49.17815728283149" lon="2.57181960164196"><ele>63.666666666666664</ele><time>2026-04-28T14:38:56.998Z</time></trkpt><trkpt lat="49.17808548432085" lon="2.5717682270667113"><ele>63.83333333333333</ele><time>2026-04-28T14:38:58.998Z</time></trkpt><trkpt lat="49.17800684474217" lon="2.571711678265076"><ele>64.0</ele><time>2026-04-28T14:39:00.998Z</time></trkpt><trkpt lat="49.17792261237882" lon="2.571656670984352"><ele>63.2</ele><time>2026-04-28T14:39:02.998Z</time></trkpt><trkpt lat="49.177858642921386" lon="2.57161897079336"><ele>62.400000000000006</ele><time>2026-04-28T14:39:04.998Z</time></trkpt><trkpt lat="49.17776669643521" lon="2.5715426060749826"><ele>61.6</ele><time>2026-04-28T14:39:06.998Z</time></trkpt><trkpt lat="49.177684336430126" lon="2.57146261833335"><ele>60.8</ele><time>2026-04-28T14:39:08.998Z</time></trkpt><trkpt lat="49.177591161907074" lon="2.571416860518636"><ele>60.0</ele><time>2026-04-28T14:39:10.998Z</time></trkpt><trkpt lat="49.17749913027408" lon="2.5713495433516624"><ele>60.0</ele><time>2026-04-28T14:39:12.998Z</time></trkpt><trkpt lat="49.17742267255639" lon="2.571296257447483"><ele>60.0</ele><time>2026-04-28T14:39:14.998Z</time></trkpt><trkpt lat="49.17733600342799" lon="2.5712206724560027"><ele>60.0</ele><time>2026-04-28T14:39:16.998Z</time></trkpt><trkpt lat="49.177245374691495" lon="2.5711629835368934"><ele>60.0</ele><time>2026-04-28T14:39:18.998Z</time></trkpt><trkpt lat="49.17716365449821" lon="2.5711121671799764"><ele>60.0</ele><time>2026-04-28T14:39:20.997Z</time></trkpt><trkpt lat="49.17707673865321" lon="2.571039954199992"><ele>60.0</ele><time>2026-04-28T14:39:22.997Z</time></trkpt><trkpt lat="49.176994717690484" lon="2.5709892781590273"><ele>60.0</ele><time>2026-04-28T14:39:24.997Z</time></trkpt><trkpt lat="49.17690499766172" lon="2.570921462336275"><ele>60.0</ele><time>2026-04-28T14:39:26.997Z</time></trkpt><trkpt lat="49.1768235615025" lon="2.570857749625172"><ele>60.0</ele><time>2026-04-28T14:39:28.997Z</time></trkpt><trkpt lat="49.1767458173963" lon="2.5708162833094197"><ele>60.0</ele><time>2026-04-28T14:39:30.997Z</time></trkpt><trkpt lat="49.17666666691383" lon="2.5707551521809826"><ele>60.0</ele><time>2026-04-28T14:39:32.997Z</time></trkpt><trkpt lat="49.176584406575834" lon="2.5706894362182147"><ele>60.0</ele><time>2026-04-28T14:39:34.997Z</time></trkpt><trkpt lat="49.17651050235816" lon="2.5706498812554472"><ele>60.0</ele><time>2026-04-28T14:39:36.997Z</time></trkpt><trkpt lat="49.17642732328933" lon="2.5705920677454266"><ele>60.0</ele><time>2026-04-28T14:39:38.997Z</time></trkpt><trkpt lat="49.17635111157024" lon="2.5705391307495065"><ele>60.0</ele><time>2026-04-28T14:39:40.997Z</time></trkpt><trkpt lat="49.17627217472006" lon="2.5704813366223553"><ele>60.0</ele><time>2026-04-28T14:39:42.997Z</time></trkpt><trkpt lat="49.17618792577266" lon="2.570414360994035"><ele>60.6</ele><time>2026-04-28T14:39:44.997Z</time></trkpt><trkpt lat="49.176118559412444" lon="2.570382357809019"><ele>61.2</ele><time>2026-04-28T14:39:47Z</time></trkpt><trkpt lat="49.176030968887886" lon="2.5702970469129096"><ele>61.8</ele><time>2026-04-28T14:39:49Z</time></trkpt><trkpt lat="49.17597201464064" lon="2.5701949812314013"><ele>62.4</ele><time>2026-04-28T14:39:51Z</time></trkpt><trkpt lat="49.17587916401614" lon="2.570164994145049"><ele>63.0</ele><time>2026-04-28T14:39:53Z</time></trkpt><trkpt lat="49.1757902959399" lon="2.5701217933833234"><ele>63.0</ele><time>2026-04-28T14:39:55Z</time></trkpt><trkpt lat="49.17571114510382" lon="2.5700344768373324"><ele>63.0</ele><time>2026-04-28T14:39:57Z</time></trkpt><trkpt lat="49.17562603007684" lon="2.5699979460232676"><ele>63.0</ele><time>2026-04-28T14:39:59Z</time></trkpt><trkpt lat="49.17555193771448" lon="2.5699512348927462"><ele>63.0</ele><time>2026-04-28T14:40:01Z</time></trkpt><trkpt lat="49.17546524638872" lon="2.5698839998648277"><ele>63.0</ele><time>2026-04-28T14:40:03Z</time></trkpt><trkpt lat="49.175379896028424" lon="2.569825923146199"><ele>63.8</ele><time>2026-04-28T14:40:05Z</time></trkpt><trkpt lat="49.175301805568736" lon="2.5697685354182225"><ele>64.6</ele><time>2026-04-28T14:40:07Z</time></trkpt><trkpt lat="49.1752091149778" lon="2.569705970557398"><ele>65.4</ele><time>2026-04-28T14:40:09Z</time></trkpt><trkpt lat="49.175117312777296" lon="2.5696536321079133"><ele>66.2</ele><time>2026-04-28T14:40:11Z</time></trkpt><trkpt lat="49.17503026374325" lon="2.56959689761842"><ele>67.0</ele><time>2026-04-28T14:40:13Z</time></trkpt><trkpt lat="49.17496620813457" lon="2.5695343644735336"><ele>66.8</ele><time>2026-04-28T14:40:15Z</time></trkpt><trkpt lat="49.17488298958202" lon="2.5694885042915834"><ele>66.6</ele><time>2026-04-28T14:40:17Z</time></trkpt><trkpt lat="49.174810449788595" lon="2.5694222237835573"><ele>66.39999999999999</ele><time>2026-04-28T14:40:19Z</time></trkpt><trkpt lat="49.17472133423973" lon="2.5693761246041573"><ele>66.2</ele><time>2026-04-28T14:40:21Z</time></trkpt><trkpt lat="49.17463071561771" lon="2.569316666729315"><ele>66.0</ele><time>2026-04-28T14:40:22.999Z</time></trkpt><trkpt lat="49.17452784502453" lon="2.5692579126740442"><ele>66.39999999999999</ele><time>2026-04-28T14:40:24.999Z</time></trkpt><trkpt lat="49.174436614646226" lon="2.5691883846639127"><ele>66.8</ele><time>2026-04-28T14:40:26.999Z</time></trkpt><trkpt lat="49.174337989955625" lon="2.5691250549165683"><ele>67.19999999999999</ele><time>2026-04-28T14:40:28.999Z</time></trkpt><trkpt lat="49.174257580095684" lon="2.5690686944009604"><ele>67.6</ele><time>2026-04-28T14:40:30.999Z</time></trkpt><trkpt lat="49.17417343855384" lon="2.569012386053096"><ele>68.0</ele><time>2026-04-28T14:40:32.999Z</time></trkpt><trkpt lat="49.17409043283411" lon="2.56894940418943"><ele>67.99999999999999</ele><time>2026-04-28T14:40:34.999Z</time></trkpt><trkpt lat="49.17401427350578" lon="2.5689000117689633"><ele>68.0</ele><time>2026-04-28T14:40:36.999Z</time></trkpt><trkpt lat="49.17394782110752" lon="2.568853897799948"><ele>68.0</ele><time>2026-04-28T14:40:38.999Z</time></trkpt><trkpt lat="49.173881175150875" lon="2.5688255083029397"><ele>68.0</ele><time>2026-04-28T14:40:40.999Z</time></trkpt><trkpt lat="49.173807770179614" lon="2.568761609250256"><ele>68.0</ele><time>2026-04-28T14:40:43.999Z</time></trkpt><trkpt lat="49.17375021956321" lon="2.5687102872029155"><ele>67.99999999999999</ele><time>2026-04-28T14:40:45.999Z</time></trkpt><trkpt lat="49.173684701709206" lon="2.5686692572057526"><ele>68.0</ele><time>2026-04-28T14:40:47.999Z</time></trkpt><trkpt lat="49.173605472770866" lon="2.5685926995906914"><ele>68.0</ele><time>2026-04-28T14:40:49.999Z</time></trkpt><trkpt lat="49.17354020960445" lon="2.5685283724283576"><ele>68.0</ele><time>2026-04-28T14:40:51.999Z</time></trkpt><trkpt lat="49.173462944124616" lon="2.568481168938676"><ele>68.0</ele><time>2026-04-28T14:40:53.999Z</time></trkpt><trkpt lat="49.1733819172057" lon="2.5684324286647886"><ele>68.0</ele><time>2026-04-28T14:40:55.998Z</time></trkpt><trkpt lat="49.17329742538665" lon="2.5683634257741623"><ele>68.0</ele><time>2026-04-28T14:40:57.998Z</time></trkpt><trkpt lat="49.173231637615366" lon="2.5683339861228816"><ele>68.0</ele><time>2026-04-28T14:40:59.998Z</time></trkpt><trkpt lat="49.1731607441116" lon="2.5682832019591135"><ele>68.0</ele><time>2026-04-28T14:41:01.998Z</time></trkpt><trkpt lat="49.173097485515925" lon="2.5682389401030985"><ele>68.0</ele><time>2026-04-28T14:41:03.998Z</time></trkpt><trkpt lat="49.17302643673571" lon="2.568194278295518"><ele>68.0</ele><time>2026-04-28T14:41:05.998Z</time></trkpt><trkpt lat="49.17294867322565" lon="2.5681377927293374"><ele>68.0</ele><time>2026-04-28T14:41:07.998Z</time></trkpt><trkpt lat="49.1728660159444" lon="2.5680841523527427"><ele>68.0</ele><time>2026-04-28T14:41:09.998Z</time></trkpt><trkpt lat="49.17278543945755" lon="2.568029658486042"><ele>68.0</ele><time>2026-04-28T14:41:11.998Z</time></trkpt><trkpt lat="49.172720540552625" lon="2.5679778709227676"><ele>68.0</ele><time>2026-04-28T14:41:13.998Z</time></trkpt><trkpt lat="49.1726501124297" lon="2.567930565561546"><ele>68.0</ele><time>2026-04-28T14:41:15.998Z</time></trkpt><trkpt lat="49.17257862280549" lon="2.5678723010509397"><ele>68.0</ele><time>2026-04-28T14:41:17.998Z</time></trkpt><trkpt lat="49.172508295907384" lon="2.567816681573415"><ele>68.0</ele><time>2026-04-28T14:41:19.998Z</time></trkpt><trkpt lat="49.17243918984625" lon="2.567762515608201"><ele>68.0</ele><time>2026-04-28T14:41:21.998Z</time></trkpt><trkpt lat="49.17236618965306" lon="2.567712659148823"><ele>68.0</ele><time>2026-04-28T14:41:23.998Z</time></trkpt><trkpt lat="49.17230529686698" lon="2.5676645200835817"><ele>68.33333333333334</ele><time>2026-04-28T14:41:25.998Z</time></trkpt><trkpt lat="49.172239961829156" lon="2.5676289760485096"><ele>68.66666666666667</ele><time>2026-04-28T14:41:27.998Z</time></trkpt><trkpt lat="49.17218038459748" lon="2.567585866609272"><ele>69.0</ele><time>2026-04-28T14:41:29.997Z</time></trkpt><trkpt lat="49.17209805941424" lon="2.56753001635458"><ele>69.33333333333333</ele><time>2026-04-28T14:41:32.997Z</time></trkpt><trkpt lat="49.17202102551392" lon="2.56746941236796"><ele>69.66666666666666</ele><time>2026-04-28T14:41:35.997Z</time></trkpt><trkpt lat="49.1719387901694" lon="2.5674068747634853"><ele>70.0</ele><time>2026-04-28T14:41:38.997Z</time></trkpt><trkpt lat="49.17187325242392" lon="2.567350971172807"><ele>70.0</ele><time>2026-04-28T14:41:41.997Z</time></trkpt><trkpt lat="49.17179524216187" lon="2.5672953098437534"><ele>70.0</ele><time>2026-04-28T14:41:44.997Z</time></trkpt><trkpt lat="49.17173578443566" lon="2.5672494754947293"><ele>70.0</ele><time>2026-04-28T14:41:46.997Z</time></trkpt><trkpt lat="49.1716688920368" lon="2.567202578745892"><ele>70.0</ele><time>2026-04-28T14:41:48.997Z</time></trkpt><trkpt lat="49.17160836778022" lon="2.5671581123981193"><ele>70.0</ele><time>2026-04-28T14:41:50.997Z</time></trkpt><trkpt lat="49.17154808639583" lon="2.5671199381787977"><ele>70.0</ele><time>2026-04-28T14:41:53Z</time></trkpt><trkpt lat="49.171481415823635" lon="2.5670672226389866"><ele>70.0</ele><time>2026-04-28T14:41:55Z</time></trkpt><trkpt lat="49.17141500733977" lon="2.567030251291854"><ele>70.33333333333333</ele><time>2026-04-28T14:41:57Z</time></trkpt><trkpt lat="49.17133504390697" lon="2.5669729505865213"><ele>70.66666666666666</ele><time>2026-04-28T14:42:00Z</time></trkpt><trkpt lat="49.171270862430326" lon="2.5669256930922737"><ele>71.0</ele><time>2026-04-28T14:42:02Z</time></trkpt><trkpt lat="49.171185798793324" lon="2.566863576600709"><ele>71.33333333333333</ele><time>2026-04-28T14:42:05Z</time></trkpt><trkpt lat="49.171126067483684" lon="2.5668092880456945"><ele>71.66666666666667</ele><time>2026-04-28T14:42:07Z</time></trkpt><trkpt lat="49.171028673086894" lon="2.566763728650847"><ele>72.0</ele><time>2026-04-28T14:42:10Z</time></trkpt><trkpt lat="49.170973622729186" lon="2.5666961602616194"><ele>72.0</ele><time>2026-04-28T14:42:12Z</time></trkpt><trkpt lat="49.170902903745265" lon="2.566648116482632"><ele>72.0</ele><time>2026-04-28T14:42:15Z</time></trkpt><trkpt lat="49.170830546211015" lon="2.566602578667467"><ele>72.0</ele><time>2026-04-28T14:42:17Z</time></trkpt><trkpt lat="49.170753477157334" lon="2.5665551313107495"><ele>72.0</ele><time>2026-04-28T14:42:20Z</time></trkpt><trkpt lat="49.170687390222895" lon="2.5665079797780823"><ele>72.0</ele><time>2026-04-28T14:42:22Z</time></trkpt><trkpt lat="49.17062573035018" lon="2.5664769446358764"><ele>72.0</ele><time>2026-04-28T14:42:24Z</time></trkpt><trkpt lat="49.17055654563606" lon="2.5664277853950734"><ele>72.0</ele><time>2026-04-28T14:42:27Z</time></trkpt><trkpt lat="49.17047842016555" lon="2.5663751656904967"><ele>72.0</ele><time>2026-04-28T14:42:28.999Z</time></trkpt><trkpt lat="49.17040999246835" lon="2.566330781286793"><ele>72.0</ele><time>2026-04-28T14:42:30.999Z</time></trkpt><trkpt lat="49.17032714916414" lon="2.5662733922447027"><ele>72.0</ele><time>2026-04-28T14:42:32.999Z</time></trkpt><trkpt lat="49.17026044851575" lon="2.566233489448033"><ele>72.0</ele><time>2026-04-28T14:42:34.999Z</time></trkpt><trkpt lat="49.170194621495106" lon="2.566184652752686"><ele>72.0</ele><time>2026-04-28T14:42:36.999Z</time></trkpt><trkpt lat="49.170129724617205" lon="2.566160588680019"><ele>72.0</ele><time>2026-04-28T14:42:38.999Z</time></trkpt><trkpt lat="49.17006005309729" lon="2.566075658794161"><ele>72.0</ele><time>2026-04-28T14:42:41.999Z</time></trkpt><trkpt lat="49.16998150896672" lon="2.5660270112541252"><ele>72.0</ele><time>2026-04-28T14:42:44.999Z</time></trkpt><trkpt lat="49.16992044977121" lon="2.565971646805386"><ele>72.0</ele><time>2026-04-28T14:42:47.999Z</time></trkpt><trkpt lat="49.169857669342285" lon="2.5659244294456482"><ele>72.0</ele><time>2026-04-28T14:42:49.999Z</time></trkpt><trkpt lat="49.16977814636787" lon="2.565859052765493"><ele>72.0</ele><time>2026-04-28T14:42:52.999Z</time></trkpt><trkpt lat="49.16971089313347" lon="2.5658149664394636"><ele>71.71428571428572</ele><time>2026-04-28T14:42:55.999Z</time></trkpt><trkpt lat="49.16965673193876" lon="2.5657617944463222"><ele>71.42857142857143</ele><time>2026-04-28T14:43:36.997Z</time></trkpt><trkpt lat="49.16960362396986" lon="2.5657064931520783"><ele>71.14285714285714</ele><time>2026-04-28T14:43:40.997Z</time></trkpt><trkpt lat="49.16953611136328" lon="2.5656573123799014"><ele>70.85714285714286</ele><time>2026-04-28T14:43:43.997Z</time></trkpt><trkpt lat="49.16946756871559" lon="2.5656106903983757"><ele>70.57142857142857</ele><time>2026-04-28T14:43:46.997Z</time></trkpt><trkpt lat="49.1694010419984" lon="2.5655616563820534"><ele>70.28571428571429</ele><time>2026-04-28T14:43:49.997Z</time></trkpt><trkpt lat="49.16932112965401" lon="2.5655083673046493"><ele>70.0</ele><time>2026-04-28T14:43:52.997Z</time></trkpt><trkpt lat="49.169259342195325" lon="2.5654614288879136"><ele>70.0</ele><time>2026-04-28T14:43:54.997Z</time></trkpt><trkpt lat="49.16919871025849" lon="2.5654174677738046"><ele>70.0</ele><time>2026-04-28T14:43:56.997Z</time></trkpt><trkpt lat="49.16913254729621" lon="2.565379946504491"><ele>70.0</ele><time>2026-04-28T14:43:59Z</time></trkpt><trkpt lat="49.169067312122586" lon="2.5653315551734255"><ele>70.0</ele><time>2026-04-28T14:44:01Z</time></trkpt><trkpt lat="49.169000838592375" lon="2.565285601183648"><ele>70.0</ele><time>2026-04-28T14:44:03Z</time></trkpt><trkpt lat="49.168934485704185" lon="2.5652388417185623"><ele>70.0</ele><time>2026-04-28T14:44:05Z</time></trkpt><trkpt lat="49.168865494711014" lon="2.565193586928388"><ele>70.0</ele><time>2026-04-28T14:44:07Z</time></trkpt><trkpt lat="49.168798691693794" lon="2.565142597477015"><ele>70.5</ele><time>2026-04-28T14:44:09Z</time></trkpt><trkpt lat="49.168726316465246" lon="2.565100885436001"><ele>71.0</ele><time>2026-04-28T14:44:11Z</time></trkpt><trkpt lat="49.16866064985825" lon="2.5650443954228144"><ele>71.5</ele><time>2026-04-28T14:44:13Z</time></trkpt><trkpt lat="49.168596423008694" lon="2.5649953578306"><ele>72.0</ele><time>2026-04-28T14:44:15Z</time></trkpt><trkpt lat="49.168527691753724" lon="2.5649435476615765"><ele>72.5</ele><time>2026-04-28T14:44:17Z</time></trkpt><trkpt lat="49.168459535337895" lon="2.5648919480590724"><ele>73.0</ele><time>2026-04-28T14:44:19Z</time></trkpt><trkpt lat="49.16838301882293" lon="2.564846371952593"><ele>73.0</ele><time>2026-04-28T14:44:21Z</time></trkpt><trkpt lat="49.16831927161443" lon="2.5647893841947007"><ele>73.0</ele><time>2026-04-28T14:44:23Z</time></trkpt><trkpt lat="49.16824720012287" lon="2.564743541236547"><ele>73.0</ele><time>2026-04-28T14:44:25Z</time></trkpt><trkpt lat="49.16817385607789" lon="2.5646967248914927"><ele>73.0</ele><time>2026-04-28T14:44:27Z</time></trkpt><trkpt lat="49.16809961137815" lon="2.5646416933802367"><ele>73.0</ele><time>2026-04-28T14:44:29Z</time></trkpt><trkpt lat="49.168018694645724" lon="2.5645908974938014"><ele>73.0</ele><time>2026-04-28T14:44:30.999Z</time></trkpt><trkpt lat="49.16794026826295" lon="2.564533419809747"><ele>72.66666666666666</ele><time>2026-04-28T14:44:32.999Z</time></trkpt><trkpt lat="49.16786684866138" lon="2.564468425444942"><ele>72.33333333333333</ele><time>2026-04-28T14:44:34.999Z</time></trkpt><trkpt lat="49.16778810793954" lon="2.5644300599007126"><ele>72.0</ele><time>2026-04-28T14:44:36.999Z</time></trkpt><trkpt lat="49.16771499525327" lon="2.5643632801135388"><ele>71.66666666666667</ele><time>2026-04-28T14:44:38.999Z</time></trkpt><trkpt lat="49.16763449551383" lon="2.564318208199468"><ele>71.33333333333334</ele><time>2026-04-28T14:44:40.999Z</time></trkpt><trkpt lat="49.16755504207052" lon="2.5642523042523693"><ele>71.0</ele><time>2026-04-28T14:44:42.999Z</time></trkpt><trkpt lat="49.16747092569617" lon="2.564194631279615"><ele>71.0</ele><time>2026-04-28T14:44:44.999Z</time></trkpt><trkpt lat="49.167384882083965" lon="2.564133813993115"><ele>71.0</ele><time>2026-04-28T14:44:46.999Z</time></trkpt><trkpt lat="49.167309051412424" lon="2.5640714443287194"><ele>71.0</ele><time>2026-04-28T14:44:48.999Z</time></trkpt><trkpt lat="49.16722099917337" lon="2.5640131484867714"><ele>71.0</ele><time>2026-04-28T14:44:50.999Z</time></trkpt><trkpt lat="49.16714997340651" lon="2.56395612239318"><ele>71.0</ele><time>2026-04-28T14:44:52.999Z</time></trkpt><trkpt lat="49.167057475199286" lon="2.5638916544319157"><ele>71.0</ele><time>2026-04-28T14:44:54.999Z</time></trkpt><trkpt lat="49.16697655548877" lon="2.563825974426896"><ele>71.0</ele><time>2026-04-28T14:44:56.999Z</time></trkpt><trkpt lat="49.1669000021513" lon="2.563762535555407"><ele>71.0</ele><time>2026-04-28T14:44:58.999Z</time></trkpt><trkpt lat="49.16679749297347" lon="2.5637080348791668"><ele>71.0</ele><time>2026-04-28T14:45:00.999Z</time></trkpt><trkpt lat="49.166703842725305" lon="2.5636350584622325"><ele>71.0</ele><time>2026-04-28T14:45:02.998Z</time></trkpt><trkpt lat="49.1666129726726" lon="2.563564089404357"><ele>71.2</ele><time>2026-04-28T14:45:04.998Z</time></trkpt><trkpt lat="49.1665211929501" lon="2.5635079089854385"><ele>71.39999999999999</ele><time>2026-04-28T14:45:06.998Z</time></trkpt><trkpt lat="49.1664312768822" lon="2.563442458915848"><ele>71.6</ele><time>2026-04-28T14:45:08.998Z</time></trkpt><trkpt lat="49.16634560139348" lon="2.5633738715989236"><ele>71.8</ele><time>2026-04-28T14:45:10.998Z</time></trkpt><trkpt lat="49.16625073297667" lon="2.5633046347062174"><ele>72.0</ele><time>2026-04-28T14:45:12.998Z</time></trkpt><trkpt lat="49.16614763979472" lon="2.563229142538569"><ele>72.0</ele><time>2026-04-28T14:45:14.998Z</time></trkpt><trkpt lat="49.166051079923974" lon="2.5631558800534244"><ele>72.0</ele><time>2026-04-28T14:45:16.998Z</time></trkpt><trkpt lat="49.165951053147054" lon="2.5630924342498203"><ele>72.0</ele><time>2026-04-28T14:45:18.998Z</time></trkpt><trkpt lat="49.16585773261017" lon="2.5630232014491803"><ele>72.0</ele><time>2026-04-28T14:45:20.998Z</time></trkpt><trkpt lat="49.165769233079494" lon="2.56295108314173"><ele>72.0</ele><time>2026-04-28T14:45:22.998Z</time></trkpt><trkpt lat="49.165677826079346" lon="2.562889746963292"><ele>71.8</ele><time>2026-04-28T14:45:24.998Z</time></trkpt><trkpt lat="49.1655847235234" lon="2.562827615895355"><ele>71.6</ele><time>2026-04-28T14:45:26.998Z</time></trkpt><trkpt lat="49.16549402027469" lon="2.5627641165796047"><ele>71.39999999999999</ele><time>2026-04-28T14:45:28.998Z</time></trkpt><trkpt lat="49.16541258308592" lon="2.562698706595753"><ele>71.2</ele><time>2026-04-28T14:45:30.998Z</time></trkpt><trkpt lat="49.16532960949305" lon="2.5626399930312957"><ele>71.0</ele><time>2026-04-28T14:45:32.998Z</time></trkpt><trkpt lat="49.1652460659856" lon="2.562583167427151"><ele>71.0</ele><time>2026-04-28T14:45:34.997Z</time></trkpt><trkpt lat="49.16516921122295" lon="2.5625274135371208"><ele>71.0</ele><time>2026-04-28T14:45:36.997Z</time></trkpt><trkpt lat="49.165079463620394" lon="2.562457951529631"><ele>71.0</ele><time>2026-04-28T14:45:38.997Z</time></trkpt><trkpt lat="49.16497948156097" lon="2.5623891843996143"><ele>71.0</ele><time>2026-04-28T14:45:40.997Z</time></trkpt><trkpt lat="49.164879316922146" lon="2.562321838968083"><ele>71.0</ele><time>2026-04-28T14:45:42.997Z</time></trkpt><trkpt lat="49.164774528320144" lon="2.5622445024079403"><ele>71.2</ele><time>2026-04-28T14:45:44.997Z</time></trkpt><trkpt lat="49.16466641673842" lon="2.562174365421558"><ele>71.39999999999999</ele><time>2026-04-28T14:45:46.997Z</time></trkpt><trkpt lat="49.16456048197752" lon="2.562103037196604"><ele>71.6</ele><time>2026-04-28T14:45:48.997Z</time></trkpt><trkpt lat="49.1644657532672" lon="2.5620224696805103"><ele>71.8</ele><time>2026-04-28T14:45:50.997Z</time></trkpt><trkpt lat="49.1643762975321" lon="2.561949508874298"><ele>72.0</ele><time>2026-04-28T14:45:52.997Z</time></trkpt><trkpt lat="49.16430935597345" lon="2.561894260976502"><ele>71.6</ele><time>2026-04-28T14:45:54.997Z</time></trkpt><trkpt lat="49.164219000201506" lon="2.5618238647677245"><ele>71.2</ele><time>2026-04-28T14:45:56.997Z</time></trkpt><trkpt lat="49.16413359923309" lon="2.5617779874425155"><ele>70.8</ele><time>2026-04-28T14:45:58.997Z</time></trkpt><trkpt lat="49.164062916015595" lon="2.5616775677962584"><ele>70.4</ele><time>2026-04-28T14:46:00.997Z</time></trkpt><trkpt lat="49.16402985486727" lon="2.561516398043416"><ele>70.0</ele><time>2026-04-28T14:46:03Z</time></trkpt><trkpt lat="49.16403366478718" lon="2.5613691573715966"><ele>70.0</ele><time>2026-04-28T14:46:05Z</time></trkpt><trkpt lat="49.16401962713711" lon="2.56125231349499"><ele>70.0</ele><time>2026-04-28T14:46:07Z</time></trkpt><trkpt lat="49.163970062180425" lon="2.561136653469889"><ele>70.0</ele><time>2026-04-28T14:46:09Z</time></trkpt><trkpt lat="49.163862977108785" lon="2.5610741015714305"><ele>70.0</ele><time>2026-04-28T14:46:11Z</time></trkpt><trkpt lat="49.16380155294854" lon="2.561047233453024"><ele>70.0</ele><time>2026-04-28T14:46:12Z</time></trkpt><trkpt lat="49.163703819411765" lon="2.561020256447688"><ele>70.0</ele><time>2026-04-28T14:46:14Z</time></trkpt><trkpt lat="49.16358176103827" lon="2.561032344403595"><ele>70.0</ele><time>2026-04-28T14:46:16Z</time></trkpt><trkpt lat="49.1634744876539" lon="2.5610734989752615"><ele>70.0</ele><time>2026-04-28T14:46:18Z</time></trkpt><trkpt lat="49.1633868342476" lon="2.561097018314525"><ele>70.0</ele><time>2026-04-28T14:46:20Z</time></trkpt><trkpt lat="49.163292653227785" lon="2.5610961032782433"><ele>70.0</ele><time>2026-04-28T14:46:22Z</time></trkpt><trkpt lat="49.16321220841365" lon="2.5610757578418966"><ele>70.0</ele><time>2026-04-28T14:46:24Z</time></trkpt><trkpt lat="49.163125850319915" lon="2.5610385749189115"><ele>69.4</ele><time>2026-04-28T14:46:26Z</time></trkpt><trkpt lat="49.16304953619737" lon="2.560985847375782"><ele>68.8</ele><time>2026-04-28T14:46:28Z</time></trkpt><trkpt lat="49.16294935347596" lon="2.5609192100344202"><ele>68.2</ele><time>2026-04-28T14:46:30Z</time></trkpt><trkpt lat="49.16286158670887" lon="2.560855173447865"><ele>67.6</ele><time>2026-04-28T14:46:32Z</time></trkpt><trkpt lat="49.16277238274739" lon="2.5607960778288095"><ele>67.0</ele><time>2026-04-28T14:46:34Z</time></trkpt><trkpt lat="49.16267838624591" lon="2.5607447016933307"><ele>67.0</ele><time>2026-04-28T14:46:35.999Z</time></trkpt><trkpt lat="49.162592611152306" lon="2.5606584226069815"><ele>67.0</ele><time>2026-04-28T14:46:37.999Z</time></trkpt><trkpt lat="49.162483484104186" lon="2.5606065271201386"><ele>67.0</ele><time>2026-04-28T14:46:39.999Z</time></trkpt><trkpt lat="49.162405568208676" lon="2.560535864974168"><ele>67.0</ele><time>2026-04-28T14:46:41.999Z</time></trkpt><trkpt lat="49.162308729051645" lon="2.560461755318089"><ele>67.0</ele><time>2026-04-28T14:46:43.999Z</time></trkpt><trkpt lat="49.16222749253229" lon="2.560393284708475"><ele>66.8</ele><time>2026-04-28T14:46:45.999Z</time></trkpt><trkpt lat="49.16213889378461" lon="2.5603086789018845"><ele>66.6</ele><time>2026-04-28T14:46:47.999Z</time></trkpt><trkpt lat="49.16204788032986" lon="2.5602620976526005"><ele>66.39999999999999</ele><time>2026-04-28T14:46:49.999Z</time></trkpt><trkpt lat="49.16194120066321" lon="2.560207176350454"><ele>66.2</ele><time>2026-04-28T14:46:51.999Z</time></trkpt><trkpt lat="49.16188255335055" lon="2.5601590648313044"><ele>66.0</ele><time>2026-04-28T14:46:52.999Z</time></trkpt><trkpt lat="49.16178866357117" lon="2.5600882770038"><ele>66.0</ele><time>2026-04-28T14:46:54.999Z</time></trkpt><trkpt lat="49.16168761271488" lon="2.560025803400612"><ele>66.0</ele><time>2026-04-28T14:46:56.999Z</time></trkpt><trkpt lat="49.16158308148266" lon="2.5599735923353935"><ele>66.0</ele><time>2026-04-28T14:46:58.999Z</time></trkpt><trkpt lat="49.16149426786674" lon="2.559871224946238"><ele>66.0</ele><time>2026-04-28T14:47:00.999Z</time></trkpt><trkpt lat="49.161400395584714" lon="2.559794794975773"><ele>66.0</ele><time>2026-04-28T14:47:02.999Z</time></trkpt><trkpt lat="49.16130948366676" lon="2.5597363601920025"><ele>65.8</ele><time>2026-04-28T14:47:04.999Z</time></trkpt><trkpt lat="49.16123062015797" lon="2.5596937640307775"><ele>65.6</ele><time>2026-04-28T14:47:06.999Z</time></trkpt><trkpt lat="49.161119860707565" lon="2.559622873731289"><ele>65.4</ele><time>2026-04-28T14:47:08.998Z</time></trkpt><trkpt lat="49.16101768610871" lon="2.5595477080953977"><ele>65.2</ele><time>2026-04-28T14:47:10.998Z</time></trkpt><trkpt lat="49.160915968159635" lon="2.5594785317480984"><ele>65.0</ele><time>2026-04-28T14:47:12.998Z</time></trkpt><trkpt lat="49.16082304704807" lon="2.559414009821373"><ele>65.6</ele><time>2026-04-28T14:47:14.998Z</time></trkpt><trkpt lat="49.16073053377617" lon="2.5593444057375243"><ele>66.2</ele><time>2026-04-28T14:47:16.998Z</time></trkpt><trkpt lat="49.160633514871634" lon="2.559277821340781"><ele>66.8</ele><time>2026-04-28T14:47:18.998Z</time></trkpt><trkpt lat="49.160545844034516" lon="2.559189770251221"><ele>67.4</ele><time>2026-04-28T14:47:20.998Z</time></trkpt><trkpt lat="49.16044968309762" lon="2.559106532382678"><ele>68.0</ele><time>2026-04-28T14:47:22.998Z</time></trkpt><trkpt lat="49.16036757979322" lon="2.5590342380796094"><ele>68.4</ele><time>2026-04-28T14:47:24.998Z</time></trkpt><trkpt lat="49.16029170160018" lon="2.5589570355095344"><ele>68.8</ele><time>2026-04-28T14:47:26.998Z</time></trkpt><trkpt lat="49.16017667603709" lon="2.558960543893765"><ele>69.2</ele><time>2026-04-28T14:47:28.998Z</time></trkpt><trkpt lat="49.16011761426268" lon="2.5588638097068777"><ele>69.6</ele><time>2026-04-28T14:47:30.998Z</time></trkpt><trkpt lat="49.16006154426552" lon="2.558728509779024"><ele>70.0</ele><time>2026-04-28T14:47:32.998Z</time></trkpt><trkpt lat="49.16005295167544" lon="2.558587886547453"><ele>70.2</ele><time>2026-04-28T14:47:34.998Z</time></trkpt><trkpt lat="49.16001639357788" lon="2.5584417888427975"><ele>70.4</ele><time>2026-04-28T14:47:36.998Z</time></trkpt><trkpt lat="49.1599338448006" lon="2.558361514622292"><ele>70.6</ele><time>2026-04-28T14:47:38.998Z</time></trkpt><trkpt lat="49.159934279780714" lon="2.558217560480837"><ele>70.8</ele><time>2026-04-28T14:47:39.997Z</time></trkpt><trkpt lat="49.159873760038366" lon="2.5581116919011184"><ele>71.0</ele><time>2026-04-28T14:47:41.997Z</time></trkpt><trkpt lat="49.1598338929516" lon="2.557948434558401"><ele>71.0</ele><time>2026-04-28T14:47:43.997Z</time></trkpt><trkpt lat="49.159795693144" lon="2.557801644133728"><ele>71.0</ele><time>2026-04-28T14:47:45.997Z</time></trkpt><trkpt lat="49.15975502943807" lon="2.5576337283930406"><ele>71.0</ele><time>2026-04-28T14:47:47.997Z</time></trkpt><trkpt lat="49.15974994504412" lon="2.5574752715213913"><ele>71.0</ele><time>2026-04-28T14:47:49.997Z</time></trkpt><trkpt lat="49.15973121079706" lon="2.5573317015205537"><ele>71.0</ele><time>2026-04-28T14:47:51.997Z</time></trkpt><trkpt lat="49.1597037258452" lon="2.5572015017737093"><ele>71.0</ele><time>2026-04-28T14:47:53.997Z</time></trkpt><trkpt lat="49.15968807261972" lon="2.5570637045809326"><ele>71.0</ele><time>2026-04-28T14:47:55.997Z</time></trkpt><trkpt lat="49.15964353088968" lon="2.5569320111036724"><ele>71.0</ele><time>2026-04-28T14:47:57.997Z</time></trkpt><trkpt lat="49.15959608136768" lon="2.556794959385387"><ele>71.0</ele><time>2026-04-28T14:47:59.997Z</time></trkpt><trkpt lat="49.15957016632568" lon="2.556639679171563"><ele>71.0</ele><time>2026-04-28T14:48:01.997Z</time></trkpt><trkpt lat="49.15956147448868" lon="2.556517151088464"><ele>70.6</ele><time>2026-04-28T14:48:03.997Z</time></trkpt><trkpt lat="49.15955370879584" lon="2.5563603939883186"><ele>70.19999999999999</ele><time>2026-04-28T14:48:05.997Z</time></trkpt><trkpt lat="49.159557151563554" lon="2.556212142776193"><ele>69.80000000000001</ele><time>2026-04-28T14:48:08Z</time></trkpt><trkpt lat="49.1595456400382" lon="2.5560856623630617"><ele>69.4</ele><time>2026-04-28T14:48:10Z</time></trkpt><trkpt lat="49.15953601811525" lon="2.555955269829814"><ele>69.0</ele><time>2026-04-28T14:48:12Z</time></trkpt><trkpt lat="49.15952407157461" lon="2.5558125663597826"><ele>69.0</ele><time>2026-04-28T14:48:14Z</time></trkpt><trkpt lat="49.15948152542959" lon="2.555688604225872"><ele>69.0</ele><time>2026-04-28T14:48:16Z</time></trkpt><trkpt lat="49.159443217173774" lon="2.555546511684031"><ele>69.0</ele><time>2026-04-28T14:48:18Z</time></trkpt><trkpt lat="49.15938428252643" lon="2.555410122584743"><ele>69.0</ele><time>2026-04-28T14:48:20Z</time></trkpt><trkpt lat="49.15933855092282" lon="2.555255081512319"><ele>69.0</ele><time>2026-04-28T14:48:22Z</time></trkpt><trkpt lat="49.15931167191264" lon="2.555104123837618"><ele>69.2</ele><time>2026-04-28T14:48:24Z</time></trkpt><trkpt lat="49.15926417479656" lon="2.5549618565671737"><ele>69.4</ele><time>2026-04-28T14:48:26Z</time></trkpt><trkpt lat="49.15923009473299" lon="2.5548336499065254"><ele>69.6</ele><time>2026-04-28T14:48:28Z</time></trkpt><trkpt lat="49.159161796660094" lon="2.554727228485393"><ele>69.8</ele><time>2026-04-28T14:48:30Z</time></trkpt><trkpt lat="49.159079811382384" lon="2.554604710433312"><ele>70.0</ele><time>2026-04-28T14:48:32Z</time></trkpt><trkpt lat="49.15900722469947" lon="2.5544943371573425"><ele>69.5</ele><time>2026-04-28T14:48:34Z</time></trkpt><trkpt lat="49.158930762819345" lon="2.5543805138968003"><ele>69.0</ele><time>2026-04-28T14:48:36Z</time></trkpt><trkpt lat="49.15886290083584" lon="2.5542795170036867"><ele>68.5</ele><time>2026-04-28T14:48:38Z</time></trkpt><trkpt lat="49.158822583178406" lon="2.554204605462498"><ele>68.0</ele><time>2026-04-28T14:48:39Z</time></trkpt><trkpt lat="49.158788155743956" lon="2.554123463948103"><ele>67.5</ele><time>2026-04-28T14:48:40Z</time></trkpt><trkpt lat="49.158722992746235" lon="2.554024537933281"><ele>67.0</ele><time>2026-04-28T14:48:41.999Z</time></trkpt><trkpt lat="49.15865222958036" lon="2.553891190164356"><ele>67.0</ele><time>2026-04-28T14:48:43.999Z</time></trkpt><trkpt lat="49.158580836404816" lon="2.5537624233743377"><ele>67.0</ele><time>2026-04-28T14:48:45.999Z</time></trkpt><trkpt lat="49.15852259614806" lon="2.553633530943718"><ele>67.0</ele><time>2026-04-28T14:48:47.999Z</time></trkpt><trkpt lat="49.15845642294662" lon="2.5534960858330646"><ele>67.0</ele><time>2026-04-28T14:48:49.999Z</time></trkpt><trkpt lat="49.15840490425507" lon="2.553362430467299"><ele>67.0</ele><time>2026-04-28T14:48:51.999Z</time></trkpt><trkpt lat="49.1583754716032" lon="2.5532738577624525"><ele>67.0</ele><time>2026-04-28T14:48:52.999Z</time></trkpt><trkpt lat="49.15834262268063" lon="2.553079670093716"><ele>67.0</ele><time>2026-04-28T14:48:54.999Z</time></trkpt><trkpt lat="49.15828274358798" lon="2.5529544615298585"><ele>67.0</ele><time>2026-04-28T14:48:56.999Z</time></trkpt><trkpt lat="49.158234026846586" lon="2.5528199967840033"><ele>67.0</ele><time>2026-04-28T14:48:58.999Z</time></trkpt><trkpt lat="49.15818519287386" lon="2.5527448111530657"><ele>67.0</ele><time>2026-04-28T14:48:59.999Z</time></trkpt><trkpt lat="49.158092674688945" lon="2.5526347420454747"><ele>66.4</ele><time>2026-04-28T14:49:01.999Z</time></trkpt><trkpt lat="49.15802166713181" lon="2.5525822475394677"><ele>65.80000000000001</ele><time>2026-04-28T14:49:03.999Z</time></trkpt><trkpt lat="49.15791710863595" lon="2.552495460269792"><ele>65.2</ele><time>2026-04-28T14:49:05.999Z</time></trkpt><trkpt lat="49.15782612458745" lon="2.55239943923485"><ele>64.60000000000001</ele><time>2026-04-28T14:49:07.999Z</time></trkpt><trkpt lat="49.157741267602795" lon="2.552326294378949"><ele>64.0</ele><time>2026-04-28T14:49:09.999Z</time></trkpt><trkpt lat="49.15765200725901" lon="2.5522382835116835"><ele>64.0</ele><time>2026-04-28T14:49:11.999Z</time></trkpt><trkpt lat="49.15757537257309" lon="2.5521426235043103"><ele>64.0</ele><time>2026-04-28T14:49:13.998Z</time></trkpt><trkpt lat="49.157494023207725" lon="2.552041684949488"><ele>64.0</ele><time>2026-04-28T14:49:15.998Z</time></trkpt><trkpt lat="49.157396672479585" lon="2.5519717200405414"><ele>64.0</ele><time>2026-04-28T14:49:17.998Z</time></trkpt><trkpt lat="49.15729110475991" lon="2.5519103774229825"><ele>64.0</ele><time>2026-04-28T14:49:19.998Z</time></trkpt><trkpt lat="49.15720084725009" lon="2.551836389814825"><ele>62.83333333333333</ele><time>2026-04-28T14:49:21.998Z</time></trkpt><trkpt lat="49.15715092814791" lon="2.551750124509975"><ele>61.666666666666664</ele><time>2026-04-28T14:49:23.998Z</time></trkpt><trkpt lat="49.15718797367903" lon="2.551668562860676"><ele>60.5</ele><time>2026-04-28T14:49:25.998Z</time></trkpt><trkpt lat="49.15719379635743" lon="2.5515673949509954"><ele>59.33333333333333</ele><time>2026-04-28T14:49:27.998Z</time></trkpt><trkpt lat="49.157151858010415" lon="2.551459034545875"><ele>58.166666666666664</ele><time>2026-04-28T14:49:29.998Z</time></trkpt><trkpt lat="49.15708498545122" lon="2.5513687800063085"><ele>57.0</ele><time>2026-04-28T14:49:31.998Z</time></trkpt><trkpt lat="49.15700823534987" lon="2.5512855278599913"><ele>57.0</ele><time>2026-04-28T14:49:33.998Z</time></trkpt><trkpt lat="49.15691112632115" lon="2.551226470962153"><ele>57.0</ele><time>2026-04-28T14:49:35.998Z</time></trkpt><trkpt lat="49.15680224032395" lon="2.551198214701412"><ele>57.0</ele><time>2026-04-28T14:49:37.998Z</time></trkpt><trkpt lat="49.15669088280537" lon="2.5511583460820164"><ele>57.0</ele><time>2026-04-28T14:49:39.998Z</time></trkpt><trkpt lat="49.15657836255186" lon="2.551101875056167"><ele>57.0</ele><time>2026-04-28T14:49:41.998Z</time></trkpt><trkpt lat="49.15653254714958" lon="2.5510318636512666"><ele>57.166666666666664</ele><time>2026-04-28T14:49:42.998Z</time></trkpt><trkpt lat="49.156539288101875" lon="2.550931220997063"><ele>57.33333333333333</ele><time>2026-04-28T14:49:43.998Z</time></trkpt><trkpt lat="49.156527508079336" lon="2.550835080236832"><ele>57.5</ele><time>2026-04-28T14:49:44.998Z</time></trkpt><trkpt lat="49.156483921827075" lon="2.5506588036837"><ele>57.666666666666664</ele><time>2026-04-28T14:49:46.997Z</time></trkpt><trkpt lat="49.156449269222975" lon="2.5504841399210423"><ele>57.83333333333333</ele><time>2026-04-28T14:49:48.997Z</time></trkpt><trkpt lat="49.15643431696517" lon="2.5503875483505447"><ele>58.0</ele><time>2026-04-28T14:49:49.997Z</time></trkpt><trkpt lat="49.156399259954995" lon="2.5502126148154907"><ele>58.0</ele><time>2026-04-28T14:49:51.997Z</time></trkpt><trkpt lat="49.15636683495927" lon="2.550033369543166"><ele>58.0</ele><time>2026-04-28T14:49:53.997Z</time></trkpt><trkpt lat="49.15634085913863" lon="2.549852304791332"><ele>58.0</ele><time>2026-04-28T14:49:55.997Z</time></trkpt><trkpt lat="49.15631268090839" lon="2.5496731481088357"><ele>58.0</ele><time>2026-04-28T14:49:57.997Z</time></trkpt><trkpt lat="49.156281771638156" lon="2.5494955495898513"><ele>57.75</ele><time>2026-04-28T14:49:59.997Z</time></trkpt><trkpt lat="49.15624633096619" lon="2.549320689725005"><ele>57.5</ele><time>2026-04-28T14:50:01.997Z</time></trkpt><trkpt lat="49.15621969075164" lon="2.5491454830514364"><ele>57.25</ele><time>2026-04-28T14:50:03.997Z</time></trkpt><trkpt lat="49.156187426407236" lon="2.5489743845025106"><ele>57.0</ele><time>2026-04-28T14:50:05.997Z</time></trkpt><trkpt lat="49.15616500102503" lon="2.548800118602634"><ele>56.6</ele><time>2026-04-28T14:50:07.997Z</time></trkpt><trkpt lat="49.156132433121165" lon="2.5486329762602944"><ele>56.2</ele><time>2026-04-28T14:50:09.997Z</time></trkpt><trkpt lat="49.1560993734869" lon="2.5484763037281843"><ele>55.8</ele><time>2026-04-28T14:50:11.997Z</time></trkpt><trkpt lat="49.156061591726974" lon="2.548329561741187"><ele>55.4</ele><time>2026-04-28T14:50:14Z</time></trkpt><trkpt lat="49.156016921171314" lon="2.548173867608503"><ele>55.0</ele><time>2026-04-28T14:50:16Z</time></trkpt><trkpt lat="49.15596480877977" lon="2.5480235478967845"><ele>55.0</ele><time>2026-04-28T14:50:18Z</time></trkpt><trkpt lat="49.15590413368616" lon="2.547888224285971"><ele>55.0</ele><time>2026-04-28T14:50:20Z</time></trkpt><trkpt lat="49.15582428118839" lon="2.547736090591124"><ele>55.0</ele><time>2026-04-28T14:50:22Z</time></trkpt><trkpt lat="49.15573911870259" lon="2.547659045131154"><ele>55.0</ele><time>2026-04-28T14:50:24Z</time></trkpt><trkpt lat="49.1556585310584" lon="2.547549480774815"><ele>55.0</ele><time>2026-04-28T14:50:26Z</time></trkpt><trkpt lat="49.15559550806385" lon="2.547416735387438"><ele>55.0</ele><time>2026-04-28T14:50:28Z</time></trkpt><trkpt lat="49.15554914211192" lon="2.5472783313239074"><ele>55.0</ele><time>2026-04-28T14:50:30Z</time></trkpt><trkpt lat="49.15548882381414" lon="2.54715633228217"><ele>55.0</ele><time>2026-04-28T14:50:32Z</time></trkpt><trkpt lat="49.15544931994707" lon="2.5470168179331445"><ele>55.0</ele><time>2026-04-28T14:50:34Z</time></trkpt><trkpt lat="49.15541534578783" lon="2.546890791743467"><ele>55.0</ele><time>2026-04-28T14:50:36Z</time></trkpt><trkpt lat="49.155383000716704" lon="2.5467758285830713"><ele>54.99999999999999</ele><time>2026-04-28T14:50:38Z</time></trkpt><trkpt lat="49.155355198314375" lon="2.546650142260472"><ele>55.0</ele><time>2026-04-28T14:50:40Z</time></trkpt><trkpt lat="49.15532246737372" lon="2.5465308905877224"><ele>55.0</ele><time>2026-04-28T14:50:42Z</time></trkpt><trkpt lat="49.155296917544156" lon="2.546401144608325"><ele>55.0</ele><time>2026-04-28T14:50:44Z</time></trkpt><trkpt lat="49.155281293129434" lon="2.5462780761462596"><ele>54.99999999999999</ele><time>2026-04-28T14:50:46Z</time></trkpt><trkpt lat="49.15525816359247" lon="2.5461504215485085"><ele>55.0</ele><time>2026-04-28T14:50:47.999Z</time></trkpt><trkpt lat="49.15524382472248" lon="2.5460105630620817"><ele>55.49999999999999</ele><time>2026-04-28T14:50:49.999Z</time></trkpt><trkpt lat="49.15523988354566" lon="2.545872475173034"><ele>56.0</ele><time>2026-04-28T14:50:51.999Z</time></trkpt><trkpt lat="49.15523641490963" lon="2.5457369545586985"><ele>56.5</ele><time>2026-04-28T14:50:53.999Z</time></trkpt><trkpt lat="49.15523113284119" lon="2.545602523782112"><ele>57.0</ele><time>2026-04-28T14:50:55.999Z</time></trkpt><trkpt lat="49.15522844375347" lon="2.545477415333287"><ele>57.49999999999999</ele><time>2026-04-28T14:50:57.999Z</time></trkpt><trkpt lat="49.15522379274853" lon="2.5453508200408113"><ele>58.0</ele><time>2026-04-28T14:50:59.999Z</time></trkpt><trkpt lat="49.15521520257205" lon="2.545214238522653"><ele>58.2</ele><time>2026-04-28T14:51:01.999Z</time></trkpt><trkpt lat="49.15521314555906" lon="2.5450874773085252"><ele>58.4</ele><time>2026-04-28T14:51:03.999Z</time></trkpt><trkpt lat="49.15522773190131" lon="2.5449471949599527"><ele>58.60000000000001</ele><time>2026-04-28T14:51:05.999Z</time></trkpt><trkpt lat="49.15521294469751" lon="2.544825638442211"><ele>58.800000000000004</ele><time>2026-04-28T14:51:07.999Z</time></trkpt><trkpt lat="49.15521251204209" lon="2.5446730290579067"><ele>59.0</ele><time>2026-04-28T14:51:09.999Z</time></trkpt><trkpt lat="49.155210537784015" lon="2.544524627847815"><ele>58.6</ele><time>2026-04-28T14:51:11.999Z</time></trkpt><trkpt lat="49.15521266832479" lon="2.5443724388611897"><ele>58.2</ele><time>2026-04-28T14:51:13.999Z</time></trkpt><trkpt lat="49.1552203726222" lon="2.544226257603988"><ele>57.800000000000004</ele><time>2026-04-28T14:51:15.999Z</time></trkpt><trkpt lat="49.155223489241884" lon="2.5440792216352794"><ele>57.400000000000006</ele><time>2026-04-28T14:51:17.999Z</time></trkpt><trkpt lat="49.15522663209103" lon="2.543940247151193"><ele>57.0</ele><time>2026-04-28T14:51:19.998Z</time></trkpt><trkpt lat="49.15523522086387" lon="2.543804324772571"><ele>57.166666666666664</ele><time>2026-04-28T14:51:21.998Z</time></trkpt><trkpt lat="49.15522084368756" lon="2.5436807493359264"><ele>57.33333333333333</ele><time>2026-04-28T14:51:23.998Z</time></trkpt><trkpt lat="49.15521318345384" lon="2.543541315753537"><ele>57.5</ele><time>2026-04-28T14:51:25.998Z</time></trkpt><trkpt lat="49.15519772568285" lon="2.5434013264614164"><ele>57.666666666666664</ele><time>2026-04-28T14:51:27.998Z</time></trkpt><trkpt lat="49.15517750412878" lon="2.543249888542987"><ele>57.83333333333333</ele><time>2026-04-28T14:51:29.998Z</time></trkpt><trkpt lat="49.15517122129181" lon="2.5431503068022985"><ele>58.0</ele><time>2026-04-28T14:51:31.998Z</time></trkpt><trkpt lat="49.15514929478518" lon="2.542987888738856"><ele>58.2</ele><time>2026-04-28T14:51:33.998Z</time></trkpt><trkpt lat="49.15514757681081" lon="2.5428367476767506"><ele>58.4</ele><time>2026-04-28T14:51:35.998Z</time></trkpt><trkpt lat="49.155123664780355" lon="2.5426897560781114"><ele>58.60000000000001</ele><time>2026-04-28T14:51:37.998Z</time></trkpt><trkpt lat="49.15510699374368" lon="2.5425327340894857"><ele>58.800000000000004</ele><time>2026-04-28T14:51:39.998Z</time></trkpt><trkpt lat="49.15509640067019" lon="2.5423933080342573"><ele>59.0</ele><time>2026-04-28T14:51:41.998Z</time></trkpt><trkpt lat="49.1550753484797" lon="2.542251071043759"><ele>59.0</ele><time>2026-04-28T14:51:43.998Z</time></trkpt><trkpt lat="49.155075066176" lon="2.5421068503145343"><ele>59.00000000000001</ele><time>2026-04-28T14:51:45.998Z</time></trkpt><trkpt lat="49.155068216198785" lon="2.5419528856179165"><ele>59.00000000000001</ele><time>2026-04-28T14:51:47.998Z</time></trkpt><trkpt lat="49.15506420574555" lon="2.5417921146081532"><ele>59.0</ele><time>2026-04-28T14:51:49.998Z</time></trkpt><trkpt lat="49.15506353110627" lon="2.5416333922655547"><ele>59.0</ele><time>2026-04-28T14:51:51.997Z</time></trkpt><trkpt lat="49.15506384744149" lon="2.5414712145557976"><ele>59.0</ele><time>2026-04-28T14:51:53.997Z</time></trkpt><trkpt lat="49.15506292903035" lon="2.5413161680714396"><ele>59.00000000000001</ele><time>2026-04-28T14:51:55.997Z</time></trkpt><trkpt lat="49.15506524304318" lon="2.5411372451834664"><ele>59.00000000000001</ele><time>2026-04-28T14:51:57.997Z</time></trkpt><trkpt lat="49.155067500280595" lon="2.5409686919178878"><ele>59.0</ele><time>2026-04-28T14:51:59.997Z</time></trkpt><trkpt lat="49.15506904625646" lon="2.540796920933791"><ele>59.0</ele><time>2026-04-28T14:52:01.997Z</time></trkpt><trkpt lat="49.155080047946534" lon="2.540624546464996"><ele>59.0</ele><time>2026-04-28T14:52:03.997Z</time></trkpt><trkpt lat="49.15509155051969" lon="2.5404502721725715"><ele>59.00000000000001</ele><time>2026-04-28T14:52:05.997Z</time></trkpt><trkpt lat="49.15510353759969" lon="2.5402832605690304"><ele>59.00000000000001</ele><time>2026-04-28T14:52:07.997Z</time></trkpt><trkpt lat="49.15511878705907" lon="2.5401176602291073"><ele>59.0</ele><time>2026-04-28T14:52:09.997Z</time></trkpt><trkpt lat="49.15513030166134" lon="2.539953696614633"><ele>59.0</ele><time>2026-04-28T14:52:11.997Z</time></trkpt><trkpt lat="49.15513985161094" lon="2.539787574743273"><ele>58.6</ele><time>2026-04-28T14:52:13.997Z</time></trkpt><trkpt lat="49.15516247400895" lon="2.5396383412082693"><ele>58.2</ele><time>2026-04-28T14:52:15.997Z</time></trkpt><trkpt lat="49.15516779982564" lon="2.539478634157726"><ele>57.800000000000004</ele><time>2026-04-28T14:52:17.997Z</time></trkpt><trkpt lat="49.15515675542826" lon="2.539328208532957"><ele>57.400000000000006</ele><time>2026-04-28T14:52:20Z</time></trkpt><trkpt lat="49.1551659812185" lon="2.539175404913228"><ele>57.0</ele><time>2026-04-28T14:52:22Z</time></trkpt><trkpt lat="49.15516294445401" lon="2.539025792405616"><ele>57.0</ele><time>2026-04-28T14:52:24Z</time></trkpt><trkpt lat="49.155164535242335" lon="2.5388634625725595"><ele>57.0</ele><time>2026-04-28T14:52:26Z</time></trkpt><trkpt lat="49.15515585852231" lon="2.5387335808811673"><ele>57.0</ele><time>2026-04-28T14:52:28Z</time></trkpt><trkpt lat="49.15514415212332" lon="2.5385718219648834"><ele>57.0</ele><time>2026-04-28T14:52:30Z</time></trkpt><trkpt lat="49.15516121948679" lon="2.5384021894294815"><ele>57.0</ele><time>2026-04-28T14:52:32Z</time></trkpt><trkpt lat="49.155145105578505" lon="2.5382413788128906"><ele>57.8</ele><time>2026-04-28T14:52:34Z</time></trkpt><trkpt lat="49.155162699098426" lon="2.538088921830306"><ele>58.6</ele><time>2026-04-28T14:52:36Z</time></trkpt><trkpt lat="49.155165552987285" lon="2.5379171117163084"><ele>59.39999999999999</ele><time>2026-04-28T14:52:38Z</time></trkpt><trkpt lat="49.15517051542799" lon="2.537738668459916"><ele>60.199999999999996</ele><time>2026-04-28T14:52:40Z</time></trkpt><trkpt lat="49.15518071488592" lon="2.53757973416862"><ele>61.0</ele><time>2026-04-28T14:52:42Z</time></trkpt><trkpt lat="49.15518392427726" lon="2.5374325781962543"><ele>61.599999999999994</ele><time>2026-04-28T14:52:44Z</time></trkpt><trkpt lat="49.155220859173134" lon="2.537269263091459"><ele>62.199999999999996</ele><time>2026-04-28T14:52:46Z</time></trkpt><trkpt lat="49.155274133494125" lon="2.5371751866716967"><ele>62.800000000000004</ele><time>2026-04-28T14:52:48Z</time></trkpt><trkpt lat="49.155322380639255" lon="2.5370556652719536"><ele>63.400000000000006</ele><time>2026-04-28T14:52:50Z</time></trkpt><trkpt lat="49.1553767467347" lon="2.5369275054352514"><ele>64.0</ele><time>2026-04-28T14:52:52.999Z</time></trkpt><trkpt lat="49.15540897227537" lon="2.5368317056140595"><ele>64.16666666666666</ele><time>2026-04-28T14:52:54.999Z</time></trkpt><trkpt lat="49.15543251219858" lon="2.5367402396601713"><ele>64.33333333333333</ele><time>2026-04-28T14:52:56.999Z</time></trkpt><trkpt lat="49.15545114184228" lon="2.5366332883878266"><ele>64.5</ele><time>2026-04-28T14:52:58.999Z</time></trkpt><trkpt lat="49.15548848271644" lon="2.53652656051948"><ele>64.66666666666667</ele><time>2026-04-28T14:53:01.999Z</time></trkpt><trkpt lat="49.15550541351061" lon="2.5363963300882846"><ele>64.83333333333334</ele><time>2026-04-28T14:53:04.999Z</time></trkpt><trkpt lat="49.155544492337704" lon="2.5362876661537204"><ele>65.0</ele><time>2026-04-28T14:53:07.999Z</time></trkpt><trkpt lat="49.15556692083972" lon="2.536144738705549"><ele>65.33333333333334</ele><time>2026-04-28T14:53:10.999Z</time></trkpt><trkpt lat="49.155589957455874" lon="2.5360371638386754"><ele>65.66666666666667</ele><time>2026-04-28T14:53:12.999Z</time></trkpt><trkpt lat="49.15562210694159" lon="2.535906999248012"><ele>66.0</ele><time>2026-04-28T14:53:15.999Z</time></trkpt><trkpt lat="49.1556413004145" lon="2.5357849404202506"><ele>66.33333333333333</ele><time>2026-04-28T14:53:18.999Z</time></trkpt><trkpt lat="49.15566105146198" lon="2.535680761467527"><ele>66.66666666666666</ele><time>2026-04-28T14:53:20.999Z</time></trkpt><trkpt lat="49.15567785867416" lon="2.535578254313377"><ele>67.0</ele><time>2026-04-28T14:53:22.999Z</time></trkpt><trkpt lat="49.15570441532417" lon="2.535480657526185"><ele>66.83333333333333</ele><time>2026-04-28T14:53:24.998Z</time></trkpt><trkpt lat="49.15573432858934" lon="2.5353523138287852"><ele>66.66666666666666</ele><time>2026-04-28T14:53:27.998Z</time></trkpt><trkpt lat="49.155758705868585" lon="2.5352590571296156"><ele>66.5</ele><time>2026-04-28T14:53:29.998Z</time></trkpt><trkpt lat="49.15577491599841" lon="2.53515132278459"><ele>66.33333333333333</ele><time>2026-04-28T14:53:31.998Z</time></trkpt><trkpt lat="49.155778865782814" lon="2.535049531592887"><ele>66.16666666666667</ele><time>2026-04-28T14:53:33.998Z</time></trkpt><trkpt lat="49.15579683049449" lon="2.5349088446250154"><ele>66.0</ele><time>2026-04-28T14:53:36.998Z</time></trkpt><trkpt lat="49.155800546825915" lon="2.5348064646286255"><ele>66.0</ele><time>2026-04-28T14:53:38.998Z</time></trkpt><trkpt lat="49.155815085843365" lon="2.5347068362767127"><ele>66.0</ele><time>2026-04-28T14:53:40.998Z</time></trkpt><trkpt lat="49.15582770220913" lon="2.5343794354924927"><ele>66.0</ele><time>2026-04-28T14:53:43.998Z</time></trkpt><trkpt lat="49.15582922910137" lon="2.5342555815396746"><ele>66.0</ele><time>2026-04-28T14:53:45.998Z</time></trkpt><trkpt lat="49.155830384938824" lon="2.5341290165265646"><ele>66.0</ele><time>2026-04-28T14:53:47.998Z</time></trkpt><trkpt lat="49.15582859727412" lon="2.5340035368154163"><ele>65.83333333333333</ele><time>2026-04-28T14:53:49.998Z</time></trkpt><trkpt lat="49.1558251429873" lon="2.533861839551203"><ele>65.66666666666667</ele><time>2026-04-28T14:53:51.998Z</time></trkpt><trkpt lat="49.15582055961839" lon="2.5337288473816986"><ele>65.5</ele><time>2026-04-28T14:53:53.998Z</time></trkpt><trkpt lat="49.155814910034245" lon="2.533604718116948"><ele>65.33333333333334</ele><time>2026-04-28T14:53:55.998Z</time></trkpt><trkpt lat="49.15579165043969" lon="2.5334848024228545"><ele>65.16666666666667</ele><time>2026-04-28T14:53:57.997Z</time></trkpt><trkpt lat="49.15578414799529" lon="2.533351258967687"><ele>65.0</ele><time>2026-04-28T14:53:59.997Z</time></trkpt><trkpt lat="49.15578195875067" lon="2.533247861446506"><ele>64.4</ele><time>2026-04-28T14:54:01.997Z</time></trkpt><trkpt lat="49.155771722990366" lon="2.533124655496758"><ele>63.8</ele><time>2026-04-28T14:54:03.997Z</time></trkpt><trkpt lat="49.15574000788935" lon="2.532978186033455"><ele>63.2</ele><time>2026-04-28T14:54:06.997Z</time></trkpt><trkpt lat="49.15573413433318" lon="2.5328547540077375"><ele>62.6</ele><time>2026-04-28T14:54:08.997Z</time></trkpt><trkpt lat="49.155703314662034" lon="2.5326985882231647"><ele>62.0</ele><time>2026-04-28T14:54:10.997Z</time></trkpt><trkpt lat="49.15567718642128" lon="2.532570775713748"><ele>61.6</ele><time>2026-04-28T14:54:12.997Z</time></trkpt><trkpt lat="49.15563113330984" lon="2.532432216795274"><ele>61.2</ele><time>2026-04-28T14:54:14.997Z</time></trkpt><trkpt lat="49.155614191430935" lon="2.5322939593457723"><ele>60.8</ele><time>2026-04-28T14:54:16.997Z</time></trkpt><trkpt lat="49.15559685960245" lon="2.532154805363992"><ele>60.4</ele><time>2026-04-28T14:54:18.997Z</time></trkpt><trkpt lat="49.15558910191229" lon="2.532021702250112"><ele>60.0</ele><time>2026-04-28T14:54:20.997Z</time></trkpt><trkpt lat="49.15557977969006" lon="2.531879026985798"><ele>59.6</ele><time>2026-04-28T14:54:22.997Z</time></trkpt><trkpt lat="49.15557262639046" lon="2.53175110645866"><ele>59.2</ele><time>2026-04-28T14:54:24.997Z</time></trkpt><trkpt lat="49.15553835970271" lon="2.531596389253032"><ele>58.8</ele><time>2026-04-28T14:54:27Z</time></trkpt><trkpt lat="49.15554334198556" lon="2.5314545798940404"><ele>58.4</ele><time>2026-04-28T14:54:29Z</time></trkpt><trkpt lat="49.15554767848523" lon="2.531303123421717"><ele>58.0</ele><time>2026-04-28T14:54:31Z</time></trkpt><trkpt lat="49.155549153577624" lon="2.5311513191580532"><ele>58.0</ele><time>2026-04-28T14:54:33Z</time></trkpt><trkpt lat="49.15555453661016" lon="2.531014855444007"><ele>58.0</ele><time>2026-04-28T14:54:35Z</time></trkpt><trkpt lat="49.15556055131851" lon="2.530876441297176"><ele>58.0</ele><time>2026-04-28T14:54:37Z</time></trkpt><trkpt lat="49.155565879861484" lon="2.530732495564496"><ele>58.0</ele><time>2026-04-28T14:54:39Z</time></trkpt><trkpt lat="49.15556134056627" lon="2.530572803433214"><ele>58.0</ele><time>2026-04-28T14:54:41Z</time></trkpt><trkpt lat="49.155580455004284" lon="2.530421443885921"><ele>57.8</ele><time>2026-04-28T14:54:43Z</time></trkpt><trkpt lat="49.15558618318571" lon="2.530316577293351"><ele>57.599999999999994</ele><time>2026-04-28T14:54:44Z</time></trkpt><trkpt lat="49.1555601666598" lon="2.530147223469428"><ele>57.400000000000006</ele><time>2026-04-28T14:54:46Z</time></trkpt><trkpt lat="49.15551662682319" lon="2.529982044791096"><ele>57.2</ele><time>2026-04-28T14:54:48Z</time></trkpt><trkpt lat="49.15547476974004" lon="2.5298245459590727"><ele>57.0</ele><time>2026-04-28T14:54:50Z</time></trkpt><trkpt lat="49.155439162766655" lon="2.5296531350021914"><ele>56.6</ele><time>2026-04-28T14:54:52Z</time></trkpt><trkpt lat="49.15540891770037" lon="2.5294949095262345"><ele>56.2</ele><time>2026-04-28T14:54:54Z</time></trkpt><trkpt lat="49.15536820591514" lon="2.529333019777805"><ele>55.8</ele><time>2026-04-28T14:54:56Z</time></trkpt><trkpt lat="49.15533582574335" lon="2.5291630077240392"><ele>55.4</ele><time>2026-04-28T14:54:57.999Z</time></trkpt><trkpt lat="49.15532058652315" lon="2.529026755417426"><ele>55.0</ele><time>2026-04-28T14:54:59.999Z</time></trkpt><trkpt lat="49.15527780842766" lon="2.5288820172392303"><ele>54.2</ele><time>2026-04-28T14:55:01.999Z</time></trkpt><trkpt lat="49.15524999340084" lon="2.528722673408176"><ele>53.4</ele><time>2026-04-28T14:55:03.999Z</time></trkpt><trkpt lat="49.155230918140646" lon="2.5285756921590146"><ele>52.599999999999994</ele><time>2026-04-28T14:55:05.999Z</time></trkpt><trkpt lat="49.15522910394708" lon="2.528461013914949"><ele>51.8</ele><time>2026-04-28T14:55:07.999Z</time></trkpt><trkpt lat="49.15521123195183" lon="2.5282891544309773"><ele>51.0</ele><time>2026-04-28T14:55:09.999Z</time></trkpt><trkpt lat="49.155197957350836" lon="2.528136297608023"><ele>51.0</ele><time>2026-04-28T14:55:11.999Z</time></trkpt><trkpt lat="49.155189888645744" lon="2.5280097068486436"><ele>51.0</ele><time>2026-04-28T14:55:13.999Z</time></trkpt><trkpt lat="49.155180391449825" lon="2.527888385112502"><ele>51.0</ele><time>2026-04-28T14:55:15.999Z</time></trkpt><trkpt lat="49.155168586507756" lon="2.527722816447284"><ele>51.0</ele><time>2026-04-28T14:55:17.999Z</time></trkpt><trkpt lat="49.15516090244913" lon="2.527606863808675"><ele>51.0</ele><time>2026-04-28T14:55:19.999Z</time></trkpt><trkpt lat="49.155154671524585" lon="2.5274919182159716"><ele>51.0</ele><time>2026-04-28T14:55:21.999Z</time></trkpt><trkpt lat="49.15514517946136" lon="2.5273376170707045"><ele>51.0</ele><time>2026-04-28T14:55:23.999Z</time></trkpt><trkpt lat="49.15514260825996" lon="2.5271864439764857"><ele>51.0</ele><time>2026-04-28T14:55:25.999Z</time></trkpt><trkpt lat="49.1551386030869" lon="2.5270672608230336"><ele>51.0</ele><time>2026-04-28T14:55:27.999Z</time></trkpt><trkpt lat="49.15513568140912" lon="2.526915536609587"><ele>51.0</ele><time>2026-04-28T14:55:29.998Z</time></trkpt><trkpt lat="49.1551312133631" lon="2.526762893564783"><ele>51.0</ele><time>2026-04-28T14:55:31.998Z</time></trkpt><trkpt lat="49.155131005334496" lon="2.526621848254738"><ele>51.0</ele><time>2026-04-28T14:55:33.998Z</time></trkpt><trkpt lat="49.155132119291785" lon="2.5265117918564273"><ele>51.0</ele><time>2026-04-28T14:55:35.998Z</time></trkpt><trkpt lat="49.15513083342419" lon="2.526325745518171"><ele>51.0</ele><time>2026-04-28T14:55:38.998Z</time></trkpt><trkpt lat="49.15513042324829" lon="2.526219337160123"><ele>51.0</ele><time>2026-04-28T14:55:39.998Z</time></trkpt><trkpt lat="49.15512844708661" lon="2.5260817016425205"><ele>51.0</ele><time>2026-04-28T14:55:41.998Z</time></trkpt><trkpt lat="49.15513093921321" lon="2.5259607683517014"><ele>51.0</ele><time>2026-04-28T14:55:43.998Z</time></trkpt><trkpt lat="49.15512810668937" lon="2.5258031593279697"><ele>51.166666666666664</ele><time>2026-04-28T14:55:45.998Z</time></trkpt><trkpt lat="49.15513769897092" lon="2.5256701246664166"><ele>51.33333333333333</ele><time>2026-04-28T14:55:47.998Z</time></trkpt><trkpt lat="49.15512864861066" lon="2.5255447233860804"><ele>51.5</ele><time>2026-04-28T14:55:49.998Z</time></trkpt><trkpt lat="49.155131639346166" lon="2.5254127789767495"><ele>51.666666666666664</ele><time>2026-04-28T14:55:51.998Z</time></trkpt><trkpt lat="49.15512873607343" lon="2.5252667338776136"><ele>51.83333333333333</ele><time>2026-04-28T14:55:53.998Z</time></trkpt><trkpt lat="49.15513361047053" lon="2.525130324333846"><ele>52.0</ele><time>2026-04-28T14:55:55.998Z</time></trkpt><trkpt lat="49.155140021206755" lon="2.525016277635538"><ele>52.33333333333333</ele><time>2026-04-28T14:55:57.998Z</time></trkpt><trkpt lat="49.15516244122506" lon="2.5249011380114537"><ele>52.666666666666664</ele><time>2026-04-28T14:55:59.998Z</time></trkpt><trkpt lat="49.15517669260866" lon="2.5247606679339394"><ele>53.0</ele><time>2026-04-28T14:56:02.997Z</time></trkpt><trkpt lat="49.155178574032355" lon="2.5246435931652496"><ele>53.33333333333333</ele><time>2026-04-28T14:56:04.997Z</time></trkpt><trkpt lat="49.15517230679447" lon="2.52449659117478"><ele>53.666666666666664</ele><time>2026-04-28T14:56:06.997Z</time></trkpt><trkpt lat="49.1551324188269" lon="2.524377043624608"><ele>54.0</ele><time>2026-04-28T14:56:08.997Z</time></trkpt><trkpt lat="49.15511052543595" lon="2.524235973576024"><ele>54.14285714285714</ele><time>2026-04-28T14:56:10.997Z</time></trkpt><trkpt lat="49.15513258018196" lon="2.5241273984496977"><ele>54.285714285714285</ele><time>2026-04-28T14:56:12.997Z</time></trkpt><trkpt lat="49.15512541902135" lon="2.524018004249239"><ele>54.42857142857143</ele><time>2026-04-28T14:56:15.997Z</time></trkpt><trkpt lat="49.155101304462924" lon="2.5238957530478805"><ele>54.57142857142857</ele><time>2026-04-28T14:56:17.997Z</time></trkpt><trkpt lat="49.155103971174945" lon="2.523778843843782"><ele>54.714285714285715</ele><time>2026-04-28T14:56:19.997Z</time></trkpt><trkpt lat="49.155091317306365" lon="2.523674185782428"><ele>54.857142857142854</ele><time>2026-04-28T14:56:21.997Z</time></trkpt><trkpt lat="49.15508263312971" lon="2.523563373273279"><ele>55.0</ele><time>2026-04-28T14:56:23.997Z</time></trkpt><trkpt lat="49.15508486816151" lon="2.52346214990403"><ele>54.99999999999999</ele><time>2026-04-28T14:56:25.997Z</time></trkpt><trkpt lat="49.15506822596588" lon="2.5233578293140195"><ele>55.0</ele><time>2026-04-28T14:56:27.997Z</time></trkpt><trkpt lat="49.15505954910261" lon="2.523250485644509"><ele>55.0</ele><time>2026-04-28T14:56:29.997Z</time></trkpt><trkpt lat="49.15505761384184" lon="2.523151271008143"><ele>55.0</ele><time>2026-04-28T14:56:32Z</time></trkpt><trkpt lat="49.15506515356623" lon="2.52300836684214"><ele>54.99999999999999</ele><time>2026-04-28T14:56:35Z</time></trkpt><trkpt lat="49.155072063045424" lon="2.522903060658522"><ele>55.0</ele><time>2026-04-28T14:56:37Z</time></trkpt><trkpt lat="49.15508047278891" lon="2.522763904927058"><ele>55.33333333333333</ele><time>2026-04-28T14:56:40Z</time></trkpt><trkpt lat="49.15510115671983" lon="2.522656392509879"><ele>55.666666666666664</ele><time>2026-04-28T14:56:44Z</time></trkpt><trkpt lat="49.1550987343711" lon="2.522527022280711"><ele>56.0</ele><time>2026-04-28T14:56:45Z</time></trkpt><trkpt lat="49.155116193516015" lon="2.522380536929414"><ele>56.33333333333333</ele><time>2026-04-28T14:56:48Z</time></trkpt><trkpt lat="49.15512621595676" lon="2.522237419462938"><ele>56.666666666666664</ele><time>2026-04-28T14:56:51Z</time></trkpt><trkpt lat="49.15513328090589" lon="2.522122734986903"><ele>57.0</ele><time>2026-04-28T14:56:53Z</time></trkpt><trkpt lat="49.155137043875285" lon="2.5220248151109104"><ele>57.285714285714285</ele><time>2026-04-28T14:56:55Z</time></trkpt><trkpt lat="49.155145912677604" lon="2.5219112589040082"><ele>57.57142857142857</ele><time>2026-04-28T14:56:57Z</time></trkpt><trkpt lat="49.15516128038727" lon="2.521810740209565"><ele>57.857142857142854</ele><time>2026-04-28T14:56:59Z</time></trkpt><trkpt lat="49.15515463715574" lon="2.521703892891272"><ele>58.14285714285714</ele><time>2026-04-28T14:57:01Z</time></trkpt><trkpt lat="49.155154684863845" lon="2.5215950503097484"><ele>58.42857142857143</ele><time>2026-04-28T14:57:02.999Z</time></trkpt><trkpt lat="49.15516134498656" lon="2.5214811992690778"><ele>58.71428571428571</ele><time>2026-04-28T14:57:04.999Z</time></trkpt><trkpt lat="49.15515874664538" lon="2.521353523081322"><ele>59.0</ele><time>2026-04-28T14:57:06.999Z</time></trkpt><trkpt lat="49.155139641562414" lon="2.5212372956797315"><ele>59.00000000000001</ele><time>2026-04-28T14:57:08.999Z</time></trkpt><trkpt lat="49.155103541957864" lon="2.52107556195162"><ele>59.0</ele><time>2026-04-28T14:57:10.999Z</time></trkpt><trkpt lat="49.155079542730725" lon="2.5209283002803624"><ele>59.0</ele><time>2026-04-28T14:57:12.999Z</time></trkpt><trkpt lat="49.15506954459063" lon="2.5208293853364623"><ele>59.0</ele><time>2026-04-28T14:57:16.999Z</time></trkpt><trkpt lat="49.1550771973414" lon="2.520719106601703"><ele>59.00000000000001</ele><time>2026-04-28T14:57:18.999Z</time></trkpt><trkpt lat="49.15508433205536" lon="2.5206062618175444"><ele>59.0</ele><time>2026-04-28T14:57:20.999Z</time></trkpt><trkpt lat="49.15508213821257" lon="2.5204922796141163"><ele>58.833333333333336</ele><time>2026-04-28T14:57:22.999Z</time></trkpt><trkpt lat="49.15508940680989" lon="2.520376898400305"><ele>58.66666666666667</ele><time>2026-04-28T14:57:24.999Z</time></trkpt><trkpt lat="49.155091336761934" lon="2.5202623746362764"><ele>58.5</ele><time>2026-04-28T14:57:26.999Z</time></trkpt><trkpt lat="49.15509314421637" lon="2.5201449602646817"><ele>58.33333333333333</ele><time>2026-04-28T14:57:28.999Z</time></trkpt><trkpt lat="49.15509753211415" lon="2.5200310662035452"><ele>58.166666666666664</ele><time>2026-04-28T14:57:30.999Z</time></trkpt><trkpt lat="49.15509351734548" lon="2.519908422088482"><ele>58.0</ele><time>2026-04-28T14:57:32.999Z</time></trkpt><trkpt lat="49.15509888547467" lon="2.5197930346187576"><ele>57.99999999999999</ele><time>2026-04-28T14:57:34.998Z</time></trkpt><trkpt lat="49.155103429200175" lon="2.5196705990719104"><ele>58.0</ele><time>2026-04-28T14:57:36.998Z</time></trkpt><trkpt lat="49.155106806438326" lon="2.5195453983724097"><ele>58.0</ele><time>2026-04-28T14:57:38.998Z</time></trkpt><trkpt lat="49.15511346343687" lon="2.5194112878107586"><ele>58.0</ele><time>2026-04-28T14:57:40.998Z</time></trkpt><trkpt lat="49.15511293169973" lon="2.519268125686447"><ele>57.99999999999999</ele><time>2026-04-28T14:57:42.998Z</time></trkpt><trkpt lat="49.15511452457113" lon="2.519125935067531"><ele>58.0</ele><time>2026-04-28T14:57:44.998Z</time></trkpt><trkpt lat="49.15511521221366" lon="2.5189846393861974"><ele>58.0</ele><time>2026-04-28T14:57:46.998Z</time></trkpt><trkpt lat="49.15512617563968" lon="2.51884458980203"><ele>58.0</ele><time>2026-04-28T14:57:48.998Z</time></trkpt><trkpt lat="49.15512129710768" lon="2.5187152065678866"><ele>58.0</ele><time>2026-04-28T14:57:50.998Z</time></trkpt><trkpt lat="49.155116222238334" lon="2.518597480018951"><ele>58.0</ele><time>2026-04-28T14:57:52.998Z</time></trkpt><trkpt lat="49.15500985544723" lon="2.518523253700682"><ele>58.0</ele><time>2026-04-28T14:57:54.998Z</time></trkpt><trkpt lat="49.15493833695959" lon="2.5184371861054062"><ele>57.2</ele><time>2026-04-28T14:57:56.998Z</time></trkpt><trkpt lat="49.154853445461086" lon="2.5183621883120124"><ele>56.4</ele><time>2026-04-28T14:57:58.998Z</time></trkpt><trkpt lat="49.154768762392415" lon="2.518286869928601"><ele>55.60000000000001</ele><time>2026-04-28T14:58:00.998Z</time></trkpt><trkpt lat="49.15467901208902" lon="2.51822770218833"><ele>54.800000000000004</ele><time>2026-04-28T14:58:02.998Z</time></trkpt><trkpt lat="49.15459313002145" lon="2.5181676566892426"><ele>54.0</ele><time>2026-04-28T14:58:04.998Z</time></trkpt><trkpt lat="49.15450634987864" lon="2.5181158056164006"><ele>54.0</ele><time>2026-04-28T14:58:06.997Z</time></trkpt><trkpt lat="49.15442158335602" lon="2.518064755329269"><ele>54.00000000000001</ele><time>2026-04-28T14:58:08.997Z</time></trkpt><trkpt lat="49.15435347290462" lon="2.517997115255807"><ele>54.00000000000001</ele><time>2026-04-28T14:58:10.997Z</time></trkpt><trkpt lat="49.15425164201594" lon="2.5179574277650882"><ele>54.0</ele><time>2026-04-28T14:58:12.997Z</time></trkpt><trkpt lat="49.15415723571426" lon="2.5178931904879605"><ele>54.0</ele><time>2026-04-28T14:58:14.997Z</time></trkpt><trkpt lat="49.154062768287375" lon="2.5178462735374474"><ele>54.400000000000006</ele><time>2026-04-28T14:58:16.997Z</time></trkpt><trkpt lat="49.153966186551294" lon="2.5177533838308395"><ele>54.800000000000004</ele><time>2026-04-28T14:58:18.997Z</time></trkpt><trkpt lat="49.153869898205954" lon="2.5176846056652105"><ele>55.199999999999996</ele><time>2026-04-28T14:58:20.997Z</time></trkpt><trkpt lat="49.15378155715263" lon="2.517621209691277"><ele>55.599999999999994</ele><time>2026-04-28T14:58:22.997Z</time></trkpt><trkpt lat="49.15369445043426" lon="2.5175850232124155"><ele>56.0</ele><time>2026-04-28T14:58:24.997Z</time></trkpt><trkpt lat="49.153606310174986" lon="2.51751426203868"><ele>56.0</ele><time>2026-04-28T14:58:26.997Z</time></trkpt><trkpt lat="49.153503874462714" lon="2.5174489159925364"><ele>55.99999999999999</ele><time>2026-04-28T14:58:28.997Z</time></trkpt><trkpt lat="49.15340947343465" lon="2.5173830866737115"><ele>55.99999999999999</ele><time>2026-04-28T14:58:30.997Z</time></trkpt><trkpt lat="49.15331050030938" lon="2.517333523421153"><ele>56.0</ele><time>2026-04-28T14:58:32.997Z</time></trkpt><trkpt lat="49.153221068952305" lon="2.5172669261540155"><ele>56.0</ele><time>2026-04-28T14:58:34.997Z</time></trkpt><trkpt lat="49.15312598771561" lon="2.5172614269092373"><ele>56.0</ele><time>2026-04-28T14:58:36.997Z</time></trkpt><trkpt lat="49.15303494523544" lon="2.517237572251933"><ele>55.99999999999999</ele><time>2026-04-28T14:58:39Z</time></trkpt><trkpt lat="49.152939230047394" lon="2.5172169812829206"><ele>55.99999999999999</ele><time>2026-04-28T14:58:41Z</time></trkpt><trkpt lat="49.152826001117454" lon="2.5171995145970856"><ele>56.0</ele><time>2026-04-28T14:58:43Z</time></trkpt><trkpt lat="49.15270774922997" lon="2.5171770643981035"><ele>56.0</ele><time>2026-04-28T14:58:45Z</time></trkpt><trkpt lat="49.15259826043292" lon="2.5171987044323507"><ele>56.0</ele><time>2026-04-28T14:58:47Z</time></trkpt><trkpt lat="49.15252665638688" lon="2.517192261139999"><ele>56.0</ele><time>2026-04-28T14:58:48Z</time></trkpt><trkpt lat="49.152456631583796" lon="2.517187201757141"><ele>56.0</ele><time>2026-04-28T14:58:49Z</time></trkpt><trkpt lat="49.152392248179616" lon="2.517181143620233"><ele>56.0</ele><time>2026-04-28T14:58:50Z</time></trkpt><trkpt lat="49.15232792152628" lon="2.5171871121786005"><ele>56.0</ele><time>2026-04-28T14:58:51Z</time></trkpt><trkpt lat="49.15226122488865" lon="2.5171858363872897"><ele>56.0</ele><time>2026-04-28T14:58:52Z</time></trkpt><trkpt lat="49.15218046823262" lon="2.5171994206150967"><ele>56.0</ele><time>2026-04-28T14:58:53Z</time></trkpt><trkpt lat="49.15210441428201" lon="2.5172058260425776"><ele>55.333333333333336</ele><time>2026-04-28T14:58:54Z</time></trkpt><trkpt lat="49.152024149312595" lon="2.5172028037509433"><ele>54.66666666666667</ele><time>2026-04-28T14:58:55Z</time></trkpt><trkpt lat="49.15194310996824" lon="2.5171973971311363"><ele>54.0</ele><time>2026-04-28T14:58:56Z</time></trkpt><trkpt lat="49.15186063794839" lon="2.517175788337452"><ele>53.33333333333333</ele><time>2026-04-28T14:58:57Z</time></trkpt><trkpt lat="49.15178255436668" lon="2.517135313522591"><ele>52.666666666666664</ele><time>2026-04-28T14:58:58Z</time></trkpt><trkpt lat="49.15171154569593" lon="2.5170747594804226"><ele>52.0</ele><time>2026-04-28T14:58:59Z</time></trkpt><trkpt lat="49.151652670482655" lon="2.5169861426426094"><ele>51.99999999999999</ele><time>2026-04-28T14:59:00Z</time></trkpt><trkpt lat="49.15161194250778" lon="2.516875027264705"><ele>52.0</ele><time>2026-04-28T14:59:01Z</time></trkpt><trkpt lat="49.15158819073632" lon="2.516751540824334"><ele>52.0</ele><time>2026-04-28T14:59:02Z</time></trkpt><trkpt lat="49.15155497280835" lon="2.516635727853027"><ele>52.0</ele><time>2026-04-28T14:59:03Z</time></trkpt><trkpt lat="49.15151300332667" lon="2.5165438155775757"><ele>51.99999999999999</ele><time>2026-04-28T14:59:04Z</time></trkpt><trkpt lat="49.15145573186931" lon="2.5164536668611985"><ele>52.0</ele><time>2026-04-28T14:59:05Z</time></trkpt><trkpt lat="49.15139354692488" lon="2.516381240332035"><ele>51.57142857142857</ele><time>2026-04-28T14:59:05.999Z</time></trkpt><trkpt lat="49.1513320419859" lon="2.516312346173727"><ele>51.142857142857146</ele><time>2026-04-28T14:59:06.999Z</time></trkpt><trkpt lat="49.15127193407242" lon="2.516246637814431"><ele>50.714285714285715</ele><time>2026-04-28T14:59:07.999Z</time></trkpt><trkpt lat="49.15121396058764" lon="2.516175364471642"><ele>50.285714285714285</ele><time>2026-04-28T14:59:08.999Z</time></trkpt><trkpt lat="49.15115441861466" lon="2.5161152793693042"><ele>49.85714285714286</ele><time>2026-04-28T14:59:09.999Z</time></trkpt><trkpt lat="49.15109741782315" lon="2.5160530926726823"><ele>49.42857142857143</ele><time>2026-04-28T14:59:10.999Z</time></trkpt><trkpt lat="49.15104027719998" lon="2.5159860496757496"><ele>49.0</ele><time>2026-04-28T14:59:11.999Z</time></trkpt><trkpt lat="49.150984833334846" lon="2.515933449837122"><ele>49.0</ele><time>2026-04-28T14:59:12.999Z</time></trkpt><trkpt lat="49.150921587318166" lon="2.515880313388338"><ele>49.0</ele><time>2026-04-28T14:59:13.999Z</time></trkpt><trkpt lat="49.150862669827696" lon="2.515825762300443"><ele>49.0</ele><time>2026-04-28T14:59:14.999Z</time></trkpt><trkpt lat="49.15080661219967" lon="2.515771961591062"><ele>49.0</ele><time>2026-04-28T14:59:15.999Z</time></trkpt><trkpt lat="49.15073717646876" lon="2.5157352034441622"><ele>49.0</ele><time>2026-04-28T14:59:16.999Z</time></trkpt><trkpt lat="49.1506679345935" lon="2.515741069167554"><ele>49.0</ele><time>2026-04-28T14:59:17.999Z</time></trkpt><trkpt lat="49.15059584068663" lon="2.515746214805911"><ele>49.0</ele><time>2026-04-28T14:59:18.999Z</time></trkpt><trkpt lat="49.15053087921498" lon="2.515754459713119"><ele>49.25</ele><time>2026-04-28T14:59:19.999Z</time></trkpt><trkpt lat="49.15041814507312" lon="2.515759368973838"><ele>49.5</ele><time>2026-04-28T14:59:21.999Z</time></trkpt><trkpt lat="49.15029911406383" lon="2.515779422381674"><ele>49.75</ele><time>2026-04-28T14:59:23.999Z</time></trkpt><trkpt lat="49.15018921491416" lon="2.5157991129564814"><ele>50.0</ele><time>2026-04-28T14:59:25.999Z</time></trkpt><trkpt lat="49.15008166884084" lon="2.515826323016335"><ele>50.0</ele><time>2026-04-28T14:59:27.999Z</time></trkpt><trkpt lat="49.14997618437379" lon="2.5158627450695543"><ele>50.0</ele><time>2026-04-28T14:59:29.999Z</time></trkpt><trkpt lat="49.149869197581936" lon="2.5158886508475073"><ele>50.0</ele><time>2026-04-28T14:59:31.999Z</time></trkpt><trkpt lat="49.149769072019524" lon="2.5159167509731986"><ele>50.0</ele><time>2026-04-28T14:59:33.999Z</time></trkpt><trkpt lat="49.14966592207135" lon="2.5159448206137083"><ele>50.0</ele><time>2026-04-28T14:59:35.999Z</time></trkpt><trkpt lat="49.14956019412562" lon="2.5159719547958743"><ele>50.0</ele><time>2026-04-28T14:59:37.998Z</time></trkpt><trkpt lat="49.149454123003515" lon="2.516001919564811"><ele>50.0</ele><time>2026-04-28T14:59:39.998Z</time></trkpt><trkpt lat="49.14934566707128" lon="2.5160308620196634"><ele>50.0</ele><time>2026-04-28T14:59:41.998Z</time></trkpt><trkpt lat="49.14923613921863" lon="2.5160568813556257"><ele>50.0</ele><time>2026-04-28T14:59:43.998Z</time></trkpt><trkpt lat="49.149124069676716" lon="2.51607868057571"><ele>50.0</ele><time>2026-04-28T14:59:45.998Z</time></trkpt><trkpt lat="49.149010548060566" lon="2.5160969486416946"><ele>49.75</ele><time>2026-04-28T14:59:47.998Z</time></trkpt><trkpt lat="49.14889983156265" lon="2.5161079949208585"><ele>49.5</ele><time>2026-04-28T14:59:49.998Z</time></trkpt><trkpt lat="49.148784892583436" lon="2.516109936692848"><ele>49.25</ele><time>2026-04-28T14:59:51.998Z</time></trkpt><trkpt lat="49.148672176949155" lon="2.5161103118622345"><ele>49.0</ele><time>2026-04-28T14:59:53.998Z</time></trkpt><trkpt lat="49.14855872501789" lon="2.5161009134449706"><ele>49.0</ele><time>2026-04-28T14:59:55.998Z</time></trkpt><trkpt lat="49.148444883462744" lon="2.516094022080869"><ele>49.0</ele><time>2026-04-28T14:59:57.998Z</time></trkpt><trkpt lat="49.148330139346974" lon="2.516084725542301"><ele>49.0</ele><time>2026-04-28T14:59:59.998Z</time></trkpt><trkpt lat="49.14821637328768" lon="2.516068841539245"><ele>49.0</ele><time>2026-04-28T15:00:01.998Z</time></trkpt><trkpt lat="49.14810730065908" lon="2.5160535608931163"><ele>49.2</ele><time>2026-04-28T15:00:03.998Z</time></trkpt><trkpt lat="49.14799486805736" lon="2.5160384888901905"><ele>49.400000000000006</ele><time>2026-04-28T15:00:05.998Z</time></trkpt><trkpt lat="49.147884753622094" lon="2.51603058158442"><ele>49.6</ele><time>2026-04-28T15:00:07.998Z</time></trkpt><trkpt lat="49.14777339485086" lon="2.5160157528750156"><ele>49.8</ele><time>2026-04-28T15:00:09.998Z</time></trkpt><trkpt lat="49.14766088084861" lon="2.5160117836044007"><ele>50.0</ele><time>2026-04-28T15:00:11.997Z</time></trkpt><trkpt lat="49.14755432201283" lon="2.515993389190417"><ele>50.0</ele><time>2026-04-28T15:00:13.997Z</time></trkpt><trkpt lat="49.14744490570099" lon="2.5159838161502055"><ele>50.0</ele><time>2026-04-28T15:00:15.997Z</time></trkpt><trkpt lat="49.1473549869853" lon="2.5159618200096836"><ele>50.0</ele><time>2026-04-28T15:00:17.997Z</time></trkpt><trkpt lat="49.14726236306585" lon="2.515945946082872"><ele>50.0</ele><time>2026-04-28T15:00:19.997Z</time></trkpt><trkpt lat="49.147182602528325" lon="2.515934299237817"><ele>50.0</ele><time>2026-04-28T15:00:21.997Z</time></trkpt><trkpt lat="49.14709612557077" lon="2.515918094203759"><ele>50.0</ele><time>2026-04-28T15:00:23.997Z</time></trkpt><trkpt lat="49.14700481370163" lon="2.515887664388292"><ele>50.0</ele><time>2026-04-28T15:00:25.997Z</time></trkpt><trkpt lat="49.14691343498819" lon="2.5158558152617485"><ele>50.0</ele><time>2026-04-28T15:00:27.997Z</time></trkpt><trkpt lat="49.146819149429845" lon="2.515830557017238"><ele>50.0</ele><time>2026-04-28T15:00:29.997Z</time></trkpt><trkpt lat="49.14672124448419" lon="2.515823209116293"><ele>50.0</ele><time>2026-04-28T15:00:31.997Z</time></trkpt><trkpt lat="49.14662117818859" lon="2.515823631849483"><ele>50.0</ele><time>2026-04-28T15:00:33.997Z</time></trkpt><trkpt lat="49.1465224268938" lon="2.5158324362077207"><ele>50.0</ele><time>2026-04-28T15:00:35.997Z</time></trkpt><trkpt lat="49.14642122502101" lon="2.51584910257362"><ele>50.0</ele><time>2026-04-28T15:00:37.997Z</time></trkpt><trkpt lat="49.14632191134115" lon="2.5158621388954896"><ele>50.0</ele><time>2026-04-28T15:00:39.997Z</time></trkpt><trkpt lat="49.1462212396913" lon="2.515886717045775"><ele>50.0</ele><time>2026-04-28T15:00:41.997Z</time></trkpt><trkpt lat="49.14612493182621" lon="2.5159136470495103"><ele>50.0</ele><time>2026-04-28T15:00:44Z</time></trkpt><trkpt lat="49.146025919684554" lon="2.515954046724415"><ele>50.0</ele><time>2026-04-28T15:00:46Z</time></trkpt><trkpt lat="49.14592935309198" lon="2.515985858917433"><ele>50.0</ele><time>2026-04-28T15:00:48Z</time></trkpt><trkpt lat="49.145834835646625" lon="2.5160201701184555"><ele>50.0</ele><time>2026-04-28T15:00:50Z</time></trkpt><trkpt lat="49.14574330678221" lon="2.51605164742802"><ele>50.0</ele><time>2026-04-28T15:00:52Z</time></trkpt><trkpt lat="49.14565710532645" lon="2.5160889232930845"><ele>50.66666666666667</ele><time>2026-04-28T15:00:54Z</time></trkpt><trkpt lat="49.145585188346615" lon="2.516137942326738"><ele>51.333333333333336</ele><time>2026-04-28T15:00:56Z</time></trkpt><trkpt lat="49.14550584315458" lon="2.5161453408530146"><ele>52.0</ele><time>2026-04-28T15:00:58Z</time></trkpt><trkpt lat="49.145431655907934" lon="2.516179705071245"><ele>52.66666666666667</ele><time>2026-04-28T15:01:00Z</time></trkpt><trkpt lat="49.145360326727285" lon="2.51620874783373"><ele>53.333333333333336</ele><time>2026-04-28T15:01:02Z</time></trkpt><trkpt lat="49.145291075935894" lon="2.51623425220282"><ele>54.0</ele><time>2026-04-28T15:01:04Z</time></trkpt><trkpt lat="49.14522043084193" lon="2.5162621048708433"><ele>54.0</ele><time>2026-04-28T15:01:06Z</time></trkpt><trkpt lat="49.14514893197776" lon="2.516276474901597"><ele>54.0</ele><time>2026-04-28T15:01:08Z</time></trkpt><trkpt lat="49.145076764940896" lon="2.516288892289937"><ele>54.0</ele><time>2026-04-28T15:01:10Z</time></trkpt><trkpt lat="49.14500500620355" lon="2.516305656168242"><ele>54.0</ele><time>2026-04-28T15:01:11.999Z</time></trkpt><trkpt lat="49.14493441339143" lon="2.5163163729752016"><ele>54.0</ele><time>2026-04-28T15:01:13.999Z</time></trkpt><trkpt lat="49.144863148648966" lon="2.516321070230969"><ele>54.0</ele><time>2026-04-28T15:01:15.999Z</time></trkpt><trkpt lat="49.14479308905239" lon="2.516328452620851"><ele>54.0</ele><time>2026-04-28T15:01:17.999Z</time></trkpt><trkpt lat="49.144740228639556" lon="2.5162673897266963"><ele>54.333333333333336</ele><time>2026-04-28T15:01:19.999Z</time></trkpt><trkpt lat="49.14471288582771" lon="2.5161514397524853"><ele>54.66666666666667</ele><time>2026-04-28T15:01:22.999Z</time></trkpt><trkpt lat="49.144641260873954" lon="2.516077884237547"><ele>55.0</ele><time>2026-04-28T15:01:25.999Z</time></trkpt><trkpt lat="49.144593851744645" lon="2.5159917546823465"><ele>55.333333333333336</ele><time>2026-04-28T15:01:27.999Z</time></trkpt><trkpt lat="49.14456901031587" lon="2.515879884245435"><ele>55.66666666666667</ele><time>2026-04-28T15:01:29.999Z</time></trkpt><trkpt lat="49.14453305299138" lon="2.5157966458551506"><ele>56.0</ele><time>2026-04-28T15:01:31.999Z</time></trkpt><trkpt lat="49.14447619835018" lon="2.5157287806126787"><ele>56.0</ele><time>2026-04-28T15:01:33.999Z</time></trkpt><trkpt lat="49.144430455145724" lon="2.515652340578764"><ele>56.0</ele><time>2026-04-28T15:01:35.999Z</time></trkpt><trkpt lat="49.14438034720279" lon="2.5155821928174955"><ele>56.0</ele><time>2026-04-28T15:01:37.999Z</time></trkpt><trkpt lat="49.14433792637481" lon="2.5155035866058473"><ele>56.0</ele><time>2026-04-28T15:01:39.999Z</time></trkpt><trkpt lat="49.144304669737096" lon="2.5154197167890993"><ele>56.0</ele><time>2026-04-28T15:01:41.999Z</time></trkpt><trkpt lat="49.144252893998015" lon="2.515343684781171"><ele>56.0</ele><time>2026-04-28T15:01:55.998Z</time></trkpt><trkpt lat="49.14431754381351" lon="2.515438614495542"><ele>56.0</ele><time>2026-04-28T15:02:04.998Z</time></trkpt><trkpt lat="49.14441366092609" lon="2.5153079528269684"><ele>55.833333333333336</ele><time>2026-04-28T15:02:27.997Z</time></trkpt><trkpt lat="49.144302806781134" lon="2.515300688511155"><ele>55.66666666666667</ele><time>2026-04-28T15:06:19.997Z</time></trkpt><trkpt lat="49.144241441639295" lon="2.5153612255475015"><ele>55.5</ele><time>2026-04-28T15:06:56.996Z</time></trkpt><trkpt lat="49.14417167652848" lon="2.515300212629876"><ele>55.33333333333333</ele><time>2026-04-28T15:07:34.998Z</time></trkpt><trkpt lat="49.144128903288696" lon="2.5152189589190566"><ele>55.166666666666664</ele><time>2026-04-28T15:07:37.998Z</time></trkpt><trkpt lat="49.14407443566547" lon="2.5151372020203606"><ele>55.0</ele><time>2026-04-28T15:07:40.998Z</time></trkpt><trkpt lat="49.144011841519706" lon="2.515042046343907"><ele>55.28571428571428</ele><time>2026-04-28T15:07:43.998Z</time></trkpt><trkpt lat="49.14396361440226" lon="2.514969212718029"><ele>55.57142857142857</ele><time>2026-04-28T15:07:45.998Z</time></trkpt><trkpt lat="49.143914074139595" lon="2.514896415896278"><ele>55.857142857142854</ele><time>2026-04-28T15:07:47.998Z</time></trkpt><trkpt lat="49.143866475819486" lon="2.5148246960831027"><ele>56.14285714285714</ele><time>2026-04-28T15:07:49.998Z</time></trkpt><trkpt lat="49.14381934055457" lon="2.514754833180369"><ele>56.42857142857142</ele><time>2026-04-28T15:07:51.998Z</time></trkpt><trkpt lat="49.14376821856677" lon="2.5146769834255838"><ele>56.71428571428571</ele><time>2026-04-28T15:07:53.998Z</time></trkpt><trkpt lat="49.14371592678673" lon="2.514595071243434"><ele>57.0</ele><time>2026-04-28T15:07:55.998Z</time></trkpt><trkpt lat="49.143664253598146" lon="2.5145099279373793"><ele>57.0</ele><time>2026-04-28T15:07:57.998Z</time></trkpt><trkpt lat="49.143602942655754" lon="2.514419158393284"><ele>57.0</ele><time>2026-04-28T15:07:59.998Z</time></trkpt><trkpt lat="49.14352967307626" lon="2.5143130249312637"><ele>57.0</ele><time>2026-04-28T15:08:01.998Z</time></trkpt><trkpt lat="49.14345349810428" lon="2.5142023960980846"><ele>57.0</ele><time>2026-04-28T15:08:03.998Z</time></trkpt><trkpt lat="49.143374579700236" lon="2.5140901193178062"><ele>57.0</ele><time>2026-04-28T15:08:05.998Z</time></trkpt><trkpt lat="49.14329425397773" lon="2.5139658908897595"><ele>57.25</ele><time>2026-04-28T15:08:07.998Z</time></trkpt><trkpt lat="49.143211988268995" lon="2.513851036707719"><ele>57.5</ele><time>2026-04-28T15:08:09.998Z</time></trkpt><trkpt lat="49.14312718272973" lon="2.513729551176357"><ele>57.75</ele><time>2026-04-28T15:08:11.998Z</time></trkpt><trkpt lat="49.14304695609701" lon="2.513602323496092"><ele>58.0</ele><time>2026-04-28T15:08:13.998Z</time></trkpt><trkpt lat="49.14296723763526" lon="2.5134757900164124"><ele>58.0</ele><time>2026-04-28T15:08:15.998Z</time></trkpt><trkpt lat="49.14288581540719" lon="2.5133543529549436"><ele>58.0</ele><time>2026-04-28T15:08:17.998Z</time></trkpt><trkpt lat="49.142811856071525" lon="2.513241520146482"><ele>58.0</ele><time>2026-04-28T15:08:19.997Z</time></trkpt><trkpt lat="49.14273631851245" lon="2.513130155365901"><ele>58.0</ele><time>2026-04-28T15:08:21.997Z</time></trkpt><trkpt lat="49.14267287697699" lon="2.513033130937115"><ele>58.0</ele><time>2026-04-28T15:08:23.997Z</time></trkpt><trkpt lat="49.14261416091214" lon="2.5129482199471425"><ele>57.99999999999999</ele><time>2026-04-28T15:08:25.997Z</time></trkpt><trkpt lat="49.14255120834672" lon="2.5128561565570653"><ele>58.0</ele><time>2026-04-28T15:08:27.997Z</time></trkpt><trkpt lat="49.14249045270952" lon="2.5127682078834876"><ele>58.0</ele><time>2026-04-28T15:08:29.997Z</time></trkpt><trkpt lat="49.142426306253434" lon="2.5126707877506007"><ele>58.0</ele><time>2026-04-28T15:08:31.997Z</time></trkpt><trkpt lat="49.14236757012442" lon="2.5125782854044347"><ele>57.99999999999999</ele><time>2026-04-28T15:08:33.997Z</time></trkpt><trkpt lat="49.142303613376264" lon="2.5124863075620247"><ele>58.0</ele><time>2026-04-28T15:08:35.997Z</time></trkpt><trkpt lat="49.142239128770186" lon="2.5123931213990387"><ele>57.99999999999999</ele><time>2026-04-28T15:08:37.997Z</time></trkpt><trkpt lat="49.14217985163909" lon="2.5123117306077276"><ele>58.0</ele><time>2026-04-28T15:08:39.997Z</time></trkpt><trkpt lat="49.14210833889754" lon="2.5122217405768312"><ele>58.0</ele><time>2026-04-28T15:08:41.997Z</time></trkpt><trkpt lat="49.142043262801664" lon="2.5121490273226015"><ele>58.0</ele><time>2026-04-28T15:08:43.997Z</time></trkpt><trkpt lat="49.14198268930389" lon="2.512063790287551"><ele>57.99999999999999</ele><time>2026-04-28T15:08:45.997Z</time></trkpt><trkpt lat="49.14191986120501" lon="2.511981339300733"><ele>58.0</ele><time>2026-04-28T15:08:47.997Z</time></trkpt><trkpt lat="49.141856106220615" lon="2.511901466573549"><ele>57.99999999999999</ele><time>2026-04-28T15:08:49.997Z</time></trkpt><trkpt lat="49.141793007087685" lon="2.5118214963647105"><ele>58.0</ele><time>2026-04-28T15:08:51.997Z</time></trkpt><trkpt lat="49.1417293004415" lon="2.5117437856381497"><ele>58.0</ele><time>2026-04-28T15:08:53.997Z</time></trkpt><trkpt lat="49.14167283755974" lon="2.5116762572337556"><ele>58.0</ele><time>2026-04-28T15:08:55.997Z</time></trkpt><trkpt lat="49.141612368411664" lon="2.511602810924719"><ele>57.99999999999999</ele><time>2026-04-28T15:08:57.997Z</time></trkpt><trkpt lat="49.14154994404736" lon="2.511534994886306"><ele>58.0</ele><time>2026-04-28T15:08:59.997Z</time></trkpt><trkpt lat="49.14148633610232" lon="2.511467973820519"><ele>58.666666666666664</ele><time>2026-04-28T15:09:01.996Z</time></trkpt><trkpt lat="49.141420703848425" lon="2.511406964813808"><ele>59.33333333333333</ele><time>2026-04-28T15:09:03.996Z</time></trkpt><trkpt lat="49.14135853718271" lon="2.5113382439940333"><ele>60.0</ele><time>2026-04-28T15:09:05.996Z</time></trkpt><trkpt lat="49.14129641565744" lon="2.5112715712000586"><ele>60.66666666666667</ele><time>2026-04-28T15:09:07.999Z</time></trkpt><trkpt lat="49.141226059850574" lon="2.5112201128833043"><ele>61.333333333333336</ele><time>2026-04-28T15:09:09.999Z</time></trkpt><trkpt lat="49.14115940707644" lon="2.511147377399004"><ele>62.0</ele><time>2026-04-28T15:09:11.999Z</time></trkpt><trkpt lat="49.14109304149247" lon="2.511085128247601"><ele>62.00000000000001</ele><time>2026-04-28T15:09:13.999Z</time></trkpt><trkpt lat="49.14102797765814" lon="2.5110144982217935"><ele>62.0</ele><time>2026-04-28T15:09:15.999Z</time></trkpt><trkpt lat="49.14096266979973" lon="2.5109424099616904"><ele>62.0</ele><time>2026-04-28T15:09:17.999Z</time></trkpt><trkpt lat="49.1408960105722" lon="2.5108722271599575"><ele>62.0</ele><time>2026-04-28T15:09:19.999Z</time></trkpt><trkpt lat="49.14083063958643" lon="2.5108039097140917"><ele>62.00000000000001</ele><time>2026-04-28T15:09:21.999Z</time></trkpt><trkpt lat="49.140762398774825" lon="2.510728577572391"><ele>62.0</ele><time>2026-04-28T15:09:23.999Z</time></trkpt><trkpt lat="49.140691469714824" lon="2.510659149082361"><ele>62.00000000000001</ele><time>2026-04-28T15:09:25.999Z</time></trkpt><trkpt lat="49.140621869489" lon="2.510590007566042"><ele>62.0</ele><time>2026-04-28T15:09:27.999Z</time></trkpt><trkpt lat="49.14055234487737" lon="2.5105246810477833"><ele>62.0</ele><time>2026-04-28T15:09:29.999Z</time></trkpt><trkpt lat="49.1404866750862" lon="2.510455915232502"><ele>62.0</ele><time>2026-04-28T15:09:31.999Z</time></trkpt><trkpt lat="49.14042003777875" lon="2.5103943104622637"><ele>62.00000000000001</ele><time>2026-04-28T15:09:33.999Z</time></trkpt><trkpt lat="49.14035266986544" lon="2.51033252952077"><ele>62.0</ele><time>2026-04-28T15:09:35.999Z</time></trkpt><trkpt lat="49.14028336853693" lon="2.5102731285855238"><ele>62.00000000000001</ele><time>2026-04-28T15:09:37.999Z</time></trkpt><trkpt lat="49.140219451649045" lon="2.510212428568123"><ele>62.0</ele><time>2026-04-28T15:09:39.999Z</time></trkpt><trkpt lat="49.14015304029659" lon="2.5101482488078486"><ele>62.0</ele><time>2026-04-28T15:09:41.999Z</time></trkpt><trkpt lat="49.140086110616544" lon="2.5100883999594057"><ele>62.0</ele><time>2026-04-28T15:09:43.999Z</time></trkpt><trkpt lat="49.14001989159409" lon="2.5100282381674353"><ele>62.00000000000001</ele><time>2026-04-28T15:09:45.999Z</time></trkpt><trkpt lat="49.13995532920702" lon="2.5099687222392038"><ele>62.0</ele><time>2026-04-28T15:09:47.999Z</time></trkpt><trkpt lat="49.139890253023445" lon="2.5099091506665396"><ele>62.16666666666667</ele><time>2026-04-28T15:09:49.999Z</time></trkpt><trkpt lat="49.13982774291886" lon="2.5098507561917582"><ele>62.333333333333336</ele><time>2026-04-28T15:09:51.999Z</time></trkpt><trkpt lat="49.13976351822769" lon="2.509791440244135"><ele>62.5</ele><time>2026-04-28T15:09:53.999Z</time></trkpt><trkpt lat="49.13970004123586" lon="2.5097291956905163"><ele>62.66666666666667</ele><time>2026-04-28T15:09:55.999Z</time></trkpt><trkpt lat="49.139635507618756" lon="2.509669839221778"><ele>62.833333333333336</ele><time>2026-04-28T15:09:57.999Z</time></trkpt><trkpt lat="49.139569368139256" lon="2.5096040968988302"><ele>63.0</ele><time>2026-04-28T15:09:59.999Z</time></trkpt><trkpt lat="49.1395029286671" lon="2.509545845775994"><ele>63.285714285714285</ele><time>2026-04-28T15:10:01.999Z</time></trkpt><trkpt lat="49.139436657698674" lon="2.5094868042228624"><ele>63.57142857142857</ele><time>2026-04-28T15:10:03.999Z</time></trkpt><trkpt lat="49.13937294173423" lon="2.5094291744377157"><ele>63.85714285714286</ele><time>2026-04-28T15:10:05.999Z</time></trkpt><trkpt lat="49.139308521881105" lon="2.509375073942402"><ele>64.14285714285714</ele><time>2026-04-28T15:10:07.998Z</time></trkpt><trkpt lat="49.13924825226488" lon="2.509322387911986"><ele>64.42857142857143</ele><time>2026-04-28T15:10:09.998Z</time></trkpt><trkpt lat="49.13918478834078" lon="2.509273836880923"><ele>64.71428571428572</ele><time>2026-04-28T15:10:11.998Z</time></trkpt><trkpt lat="49.13912277455277" lon="2.509226160515361"><ele>65.0</ele><time>2026-04-28T15:10:13.998Z</time></trkpt><trkpt lat="49.13905994851662" lon="2.509173445406825"><ele>65.5</ele><time>2026-04-28T15:10:15.998Z</time></trkpt><trkpt lat="49.138992149154475" lon="2.5091248588061523"><ele>66.0</ele><time>2026-04-28T15:10:17.998Z</time></trkpt><trkpt lat="49.13892525489977" lon="2.509078780960765"><ele>66.5</ele><time>2026-04-28T15:10:19.998Z</time></trkpt><trkpt lat="49.13885671973063" lon="2.5090315933253087"><ele>67.0</ele><time>2026-04-28T15:10:21.998Z</time></trkpt><trkpt lat="49.13878751865038" lon="2.508992885287061"><ele>67.5</ele><time>2026-04-28T15:10:23.998Z</time></trkpt><trkpt lat="49.13871855504917" lon="2.508954320449525"><ele>68.0</ele><time>2026-04-28T15:10:25.998Z</time></trkpt><trkpt lat="49.13866872776535" lon="2.508824328714578"><ele>67.99999999999999</ele><time>2026-04-28T15:10:27.998Z</time></trkpt><trkpt lat="49.13859886375199" lon="2.508796082653303"><ele>68.0</ele><time>2026-04-28T15:10:29.998Z</time></trkpt><trkpt lat="49.13853659889202" lon="2.508770908921128"><ele>68.0</ele><time>2026-04-28T15:10:31.998Z</time></trkpt><trkpt lat="49.13847464294085" lon="2.5087410606690006"><ele>68.0</ele><time>2026-04-28T15:10:33.998Z</time></trkpt><trkpt lat="49.13841313849623" lon="2.5087024627232934"><ele>68.0</ele><time>2026-04-28T15:10:35.998Z</time></trkpt><trkpt lat="49.13834951801365" lon="2.5086624895277234"><ele>67.99999999999999</ele><time>2026-04-28T15:10:37.998Z</time></trkpt><trkpt lat="49.1382778178656" lon="2.5086202075808566"><ele>68.0</ele><time>2026-04-28T15:10:39.998Z</time></trkpt><trkpt lat="49.13819923850105" lon="2.5085738689247656"><ele>68.83333333333334</ele><time>2026-04-28T15:10:41.998Z</time></trkpt><trkpt lat="49.138130421015035" lon="2.508533033277874"><ele>69.66666666666667</ele><time>2026-04-28T15:10:43.998Z</time></trkpt><trkpt lat="49.13805534350291" lon="2.508487680547515"><ele>70.5</ele><time>2026-04-28T15:10:45.998Z</time></trkpt><trkpt lat="49.13797979005964" lon="2.508441154979002"><ele>71.33333333333333</ele><time>2026-04-28T15:10:47.998Z</time></trkpt><trkpt lat="49.13790357794528" lon="2.5083925499290527"><ele>72.16666666666666</ele><time>2026-04-28T15:10:49.998Z</time></trkpt><trkpt lat="49.13782853431584" lon="2.5083446900925543"><ele>73.0</ele><time>2026-04-28T15:10:51.997Z</time></trkpt><trkpt lat="49.13775351892666" lon="2.508297655918954"><ele>73.0</ele><time>2026-04-28T15:10:53.997Z</time></trkpt><trkpt lat="49.13767087181324" lon="2.508272689014749"><ele>73.0</ele><time>2026-04-28T15:10:55.997Z</time></trkpt><trkpt lat="49.137595586588695" lon="2.5082008617624045"><ele>73.0</ele><time>2026-04-28T15:10:57.997Z</time></trkpt><trkpt lat="49.137518941763624" lon="2.5081542785454545"><ele>73.0</ele><time>2026-04-28T15:10:59.997Z</time></trkpt><trkpt lat="49.1374379577886" lon="2.5081058438012005"><ele>73.0</ele><time>2026-04-28T15:11:01.997Z</time></trkpt><trkpt lat="49.13736289116198" lon="2.5080617048273224"><ele>73.0</ele><time>2026-04-28T15:11:03.997Z</time></trkpt><trkpt lat="49.137281988106935" lon="2.508015077129236"><ele>72.83333333333333</ele><time>2026-04-28T15:11:05.997Z</time></trkpt><trkpt lat="49.137201114346254" lon="2.507969254664955"><ele>72.66666666666666</ele><time>2026-04-28T15:11:07.997Z</time></trkpt><trkpt lat="49.13711971201293" lon="2.5079241594306283"><ele>72.5</ele><time>2026-04-28T15:11:09.997Z</time></trkpt><trkpt lat="49.1370338230069" lon="2.5079029357529454"><ele>72.33333333333333</ele><time>2026-04-28T15:11:11.997Z</time></trkpt><trkpt lat="49.13696007846819" lon="2.507854857816118"><ele>72.16666666666667</ele><time>2026-04-28T15:11:14Z</time></trkpt><trkpt lat="49.136879541379024" lon="2.507809007230877"><ele>72.0</ele><time>2026-04-28T15:11:16Z</time></trkpt><trkpt lat="49.136808954367694" lon="2.507769069827145"><ele>72.5</ele><time>2026-04-28T15:11:18Z</time></trkpt><trkpt lat="49.13673023847795" lon="2.507726971451572"><ele>73.0</ele><time>2026-04-28T15:11:20Z</time></trkpt><trkpt lat="49.136661515738055" lon="2.507686799224667"><ele>73.5</ele><time>2026-04-28T15:11:22Z</time></trkpt><trkpt lat="49.136584479035335" lon="2.5076452503457367"><ele>74.0</ele><time>2026-04-28T15:11:24Z</time></trkpt><trkpt lat="49.13651509498549" lon="2.5075969660044146"><ele>74.5</ele><time>2026-04-28T15:11:26Z</time></trkpt><trkpt lat="49.13644919962514" lon="2.507527923700533"><ele>75.0</ele><time>2026-04-28T15:11:28Z</time></trkpt><trkpt lat="49.13637406346892" lon="2.507483294488863"><ele>75.0</ele><time>2026-04-28T15:11:30Z</time></trkpt><trkpt lat="49.13629051514215" lon="2.507462832557311"><ele>75.0</ele><time>2026-04-28T15:11:32Z</time></trkpt><trkpt lat="49.13621735138135" lon="2.507415921833041"><ele>75.0</ele><time>2026-04-28T15:11:34Z</time></trkpt><trkpt lat="49.13614096032827" lon="2.5073781965569193"><ele>75.0</ele><time>2026-04-28T15:11:36Z</time></trkpt><trkpt lat="49.136077645887205" lon="2.507316758000611"><ele>75.0</ele><time>2026-04-28T15:11:38Z</time></trkpt><trkpt lat="49.13601149290187" lon="2.507276998312033"><ele>75.0</ele><time>2026-04-28T15:11:40Z</time></trkpt><trkpt lat="49.13594670700787" lon="2.5072277753031975"><ele>75.0</ele><time>2026-04-28T15:11:42Z</time></trkpt><trkpt lat="49.13587324710554" lon="2.5072025674735303"><ele>75.0</ele><time>2026-04-28T15:11:44Z</time></trkpt><trkpt lat="49.135793806779496" lon="2.507180773507899"><ele>75.0</ele><time>2026-04-28T15:11:46Z</time></trkpt><trkpt lat="49.13570338998406" lon="2.5071782664437254"><ele>75.0</ele><time>2026-04-28T15:11:48Z</time></trkpt><trkpt lat="49.135618809537746" lon="2.5071542594497997"><ele>75.0</ele><time>2026-04-28T15:11:50Z</time></trkpt><trkpt lat="49.13553348020254" lon="2.507137193768137"><ele>75.0</ele><time>2026-04-28T15:11:52Z</time></trkpt><trkpt lat="49.135449745198294" lon="2.5071201907231564"><ele>75.0</ele><time>2026-04-28T15:11:54Z</time></trkpt><trkpt lat="49.13536333214172" lon="2.507107470753621"><ele>75.0</ele><time>2026-04-28T15:11:55.999Z</time></trkpt><trkpt lat="49.135279717436866" lon="2.5070919806852174"><ele>75.0</ele><time>2026-04-28T15:11:57.999Z</time></trkpt><trkpt lat="49.13519484649549" lon="2.5070815909903557"><ele>75.0</ele><time>2026-04-28T15:11:59.999Z</time></trkpt><trkpt lat="49.135107607976565" lon="2.5070555534372345"><ele>75.0</ele><time>2026-04-28T15:12:01.999Z</time></trkpt><trkpt lat="49.13502040373046" lon="2.507037361903375"><ele>75.0</ele><time>2026-04-28T15:12:03.999Z</time></trkpt><trkpt lat="49.13493065332559" lon="2.50700860445582"><ele>76.0</ele><time>2026-04-28T15:12:05.999Z</time></trkpt><trkpt lat="49.13484006395804" lon="2.506982253793297"><ele>77.0</ele><time>2026-04-28T15:12:07.999Z</time></trkpt><trkpt lat="49.13474893271136" lon="2.5069582119382057"><ele>78.0</ele><time>2026-04-28T15:12:09.999Z</time></trkpt><trkpt lat="49.13465897157707" lon="2.506931257896006"><ele>79.0</ele><time>2026-04-28T15:12:11.999Z</time></trkpt><trkpt lat="49.13456985106558" lon="2.5068867695127386"><ele>80.0</ele><time>2026-04-28T15:12:13.999Z</time></trkpt><trkpt lat="49.134482819680294" lon="2.5068431131667457"><ele>80.0</ele><time>2026-04-28T15:12:15.999Z</time></trkpt><trkpt lat="49.134399786992674" lon="2.5068016312889254"><ele>80.0</ele><time>2026-04-28T15:12:17.999Z</time></trkpt><trkpt lat="49.13431544391349" lon="2.5067532432528647"><ele>80.0</ele><time>2026-04-28T15:12:19.999Z</time></trkpt><trkpt lat="49.13424575674988" lon="2.5066857102545668"><ele>80.0</ele><time>2026-04-28T15:12:21.999Z</time></trkpt><trkpt lat="49.13416447293135" lon="2.50689536854898"><ele>80.0</ele><time>2026-04-28T15:12:24.999Z</time></trkpt><trkpt lat="49.134103380731325" lon="2.5070287469413937"><ele>79.4</ele><time>2026-04-28T15:12:26.999Z</time></trkpt><trkpt lat="49.13405506988852" lon="2.507196872776793"><ele>78.8</ele><time>2026-04-28T15:12:28.999Z</time></trkpt><trkpt lat="49.1339845176166" lon="2.507358414193737"><ele>78.2</ele><time>2026-04-28T15:12:30.999Z</time></trkpt><trkpt lat="49.133910511425796" lon="2.50750695845939"><ele>77.6</ele><time>2026-04-28T15:12:32.999Z</time></trkpt><trkpt lat="49.13389263663031" lon="2.5075999615042193"><ele>77.0</ele><time>2026-04-28T15:12:33.999Z</time></trkpt><trkpt lat="49.133833776171315" lon="2.5077474123364047"><ele>77.0</ele><time>2026-04-28T15:12:35.999Z</time></trkpt><trkpt lat="49.1337679506319" lon="2.507872597717086"><ele>77.0</ele><time>2026-04-28T15:12:37.998Z</time></trkpt><trkpt lat="49.1337280812775" lon="2.5079965021860846"><ele>77.0</ele><time>2026-04-28T15:12:39.998Z</time></trkpt><trkpt lat="49.13366510066985" lon="2.508034553945207"><ele>77.0</ele><time>2026-04-28T15:15:14.998Z</time></trkpt><trkpt lat="49.13366781028395" lon="2.5081402544901334"><ele>77.0</ele><time>2026-04-28T15:17:23.998Z</time></trkpt><trkpt lat="49.13355190683665" lon="2.5079156913453042"><ele>77.0</ele><time>2026-04-28T15:19:52Z</time></trkpt><trkpt lat="49.13361177194669" lon="2.507964036902835"><ele>77.0</ele><time>2026-04-28T15:27:35.997Z</time></trkpt><trkpt lat="49.13366968599072" lon="2.508001884704939"><ele>77.0</ele><time>2026-04-28T15:27:59.999Z</time></trkpt><trkpt lat="49.133628129792385" lon="2.507926749900862"><ele>77.0</ele><time>2026-04-28T15:30:00.996Z</time></trkpt><trkpt lat="49.13363483315634" lon="2.50802598336296"><ele>77.0</ele><time>2026-04-28T15:30:11.999Z</time></trkpt><trkpt lat="49.13369468628577" lon="2.507973717816064"><ele>77.0</ele><time>2026-04-28T15:30:41.999Z</time></trkpt><trkpt lat="49.13375924348924" lon="2.5079293795252062"><ele>77.0</ele><time>2026-04-28T15:32:14.999Z</time></trkpt><trkpt lat="49.133804081732194" lon="2.5078403121483053"><ele>77.0</ele><time>2026-04-28T15:32:17.999Z</time></trkpt><trkpt lat="49.13383686952853" lon="2.507751471534319"><ele>77.0</ele><time>2026-04-28T15:32:19.999Z</time></trkpt><trkpt lat="49.13387425288179" lon="2.5076551594311822"><ele>77.0</ele><time>2026-04-28T15:32:21.999Z</time></trkpt><trkpt lat="49.1339104594698" lon="2.507555933679307"><ele>77.0</ele><time>2026-04-28T15:32:23.999Z</time></trkpt><trkpt lat="49.13395273469362" lon="2.5074642203043287"><ele>77.0</ele><time>2026-04-28T15:32:25.999Z</time></trkpt><trkpt lat="49.13399303341289" lon="2.507353214975819"><ele>77.0</ele><time>2026-04-28T15:32:27.999Z</time></trkpt><trkpt lat="49.13403953755236" lon="2.5072355807881506"><ele>76.5</ele><time>2026-04-28T15:32:29.999Z</time></trkpt><trkpt lat="49.13408772494361" lon="2.5071156308650897"><ele>76.0</ele><time>2026-04-28T15:32:31.999Z</time></trkpt><trkpt lat="49.13413141706137" lon="2.507005371622789"><ele>75.5</ele><time>2026-04-28T15:32:33.999Z</time></trkpt><trkpt lat="49.13417501532039" lon="2.5069004883594026"><ele>75.0</ele><time>2026-04-28T15:32:35.999Z</time></trkpt><trkpt lat="49.13421174528251" lon="2.5067844744092684"><ele>74.5</ele><time>2026-04-28T15:32:37.999Z</time></trkpt><trkpt lat="49.13426281890817" lon="2.5067200034689985"><ele>74.0</ele><time>2026-04-28T15:32:40.999Z</time></trkpt><trkpt lat="49.13434244355356" lon="2.5067283026449645"><ele>75.0</ele><time>2026-04-28T15:32:42.999Z</time></trkpt><trkpt lat="49.134403887402996" lon="2.5067762423515267"><ele>76.0</ele><time>2026-04-28T15:32:43.999Z</time></trkpt><trkpt lat="49.134480085860204" lon="2.5068306965593328"><ele>77.0</ele><time>2026-04-28T15:32:44.999Z</time></trkpt><trkpt lat="49.134563412723246" lon="2.5068744603559874"><ele>78.0</ele><time>2026-04-28T15:32:45.999Z</time></trkpt><trkpt lat="49.1346339451718" lon="2.5069567496088827"><ele>79.0</ele><time>2026-04-28T15:32:46.999Z</time></trkpt><trkpt lat="49.13472011477295" lon="2.506991316488479"><ele>80.0</ele><time>2026-04-28T15:32:47.999Z</time></trkpt><trkpt lat="49.134807480979845" lon="2.507021004766532"><ele>80.33333333333334</ele><time>2026-04-28T15:32:48.999Z</time></trkpt><trkpt lat="49.134896505909126" lon="2.507046263360021"><ele>80.66666666666667</ele><time>2026-04-28T15:32:49.999Z</time></trkpt><trkpt lat="49.13498692986009" lon="2.507072039911318"><ele>81.0</ele><time>2026-04-28T15:32:50.999Z</time></trkpt><trkpt lat="49.1350752785147" lon="2.507093640052869"><ele>81.33333333333333</ele><time>2026-04-28T15:32:51.999Z</time></trkpt><trkpt lat="49.135161461628556" lon="2.507113939173691"><ele>81.66666666666666</ele><time>2026-04-28T15:32:52.999Z</time></trkpt><trkpt lat="49.135245765968385" lon="2.5071322555016393"><ele>82.0</ele><time>2026-04-28T15:32:53.999Z</time></trkpt><trkpt lat="49.13533216660112" lon="2.507150741793651"><ele>80.83333333333333</ele><time>2026-04-28T15:32:54.999Z</time></trkpt><trkpt lat="49.13541907043999" lon="2.507169335748489"><ele>79.66666666666666</ele><time>2026-04-28T15:32:55.999Z</time></trkpt><trkpt lat="49.135508462080416" lon="2.507188461993983"><ele>78.5</ele><time>2026-04-28T15:32:56.999Z</time></trkpt><trkpt lat="49.13559581367959" lon="2.507207936537625"><ele>77.33333333333333</ele><time>2026-04-28T15:32:57.999Z</time></trkpt><trkpt lat="49.13567444907135" lon="2.5072256381444715"><ele>76.16666666666667</ele><time>2026-04-28T15:32:58.999Z</time></trkpt><trkpt lat="49.135738402670164" lon="2.5072400347431905"><ele>75.0</ele><time>2026-04-28T15:32:59.999Z</time></trkpt><trkpt lat="49.135842994569785" lon="2.5072631127503384"><ele>75.0</ele><time>2026-04-28T15:33:01.998Z</time></trkpt><trkpt lat="49.13595284367023" lon="2.5072870813723287"><ele>75.0</ele><time>2026-04-28T15:33:03.998Z</time></trkpt><trkpt lat="49.13607603613014" lon="2.5071128296698206"><ele>75.0</ele><time>2026-04-28T15:33:05.998Z</time></trkpt><trkpt lat="49.13614127042269" lon="2.507043400567361"><ele>75.0</ele><time>2026-04-28T15:33:06.998Z</time></trkpt><trkpt lat="49.13621180358073" lon="2.5069695195729014"><ele>75.0</ele><time>2026-04-28T15:33:07.998Z</time></trkpt><trkpt lat="49.13627926452575" lon="2.5068990683455104"><ele>76.0</ele><time>2026-04-28T15:33:08.998Z</time></trkpt><trkpt lat="49.13635092675009" lon="2.506822289910784"><ele>77.0</ele><time>2026-04-28T15:33:09.998Z</time></trkpt><trkpt lat="49.136429578085924" lon="2.506738077633861"><ele>78.0</ele><time>2026-04-28T15:33:10.998Z</time></trkpt><trkpt lat="49.13651164893019" lon="2.5066497079774472"><ele>79.0</ele><time>2026-04-28T15:33:11.998Z</time></trkpt><trkpt lat="49.13659667040914" lon="2.506555832560846"><ele>80.0</ele><time>2026-04-28T15:33:12.998Z</time></trkpt><trkpt lat="49.13668258352697" lon="2.5064504157322967"><ele>80.0</ele><time>2026-04-28T15:33:13.998Z</time></trkpt><trkpt lat="49.13676529139508" lon="2.506323763227841"><ele>80.0</ele><time>2026-04-28T15:33:14.998Z</time></trkpt><trkpt lat="49.136845331663864" lon="2.50618551295061"><ele>80.0</ele><time>2026-04-28T15:33:15.998Z</time></trkpt><trkpt lat="49.13693196305039" lon="2.5060410083635514"><ele>80.0</ele><time>2026-04-28T15:33:16.998Z</time></trkpt><trkpt lat="49.13702295763909" lon="2.505895577471587"><ele>80.25</ele><time>2026-04-28T15:33:17.998Z</time></trkpt><trkpt lat="49.137115293605824" lon="2.5057466292946353"><ele>80.5</ele><time>2026-04-28T15:33:18.998Z</time></trkpt><trkpt lat="49.13720984455328" lon="2.505597185448642"><ele>80.75</ele><time>2026-04-28T15:33:19.998Z</time></trkpt><trkpt lat="49.13730181399407" lon="2.5054424707239265"><ele>81.0</ele><time>2026-04-28T15:33:20.998Z</time></trkpt><trkpt lat="49.1373925064351" lon="2.505284919416742"><ele>80.0</ele><time>2026-04-28T15:33:21.998Z</time></trkpt><trkpt lat="49.13748199833797" lon="2.5051224922612487"><ele>79.0</ele><time>2026-04-28T15:33:22.998Z</time></trkpt><trkpt lat="49.137562737004025" lon="2.5049490679537456"><ele>78.0</ele><time>2026-04-28T15:33:23.998Z</time></trkpt><trkpt lat="49.13763077593568" lon="2.504763537045469"><ele>77.0</ele><time>2026-04-28T15:33:24.998Z</time></trkpt><trkpt lat="49.13768552968176" lon="2.5045660236827296"><ele>77.0</ele><time>2026-04-28T15:33:25.998Z</time></trkpt><trkpt lat="49.137730424579146" lon="2.5043603106207537"><ele>77.0</ele><time>2026-04-28T15:33:26.998Z</time></trkpt><trkpt lat="49.13777728601848" lon="2.5041568494348874"><ele>77.0</ele><time>2026-04-28T15:33:27.998Z</time></trkpt><trkpt lat="49.13782752846234" lon="2.5039555528393698"><ele>77.0</ele><time>2026-04-28T15:33:28.998Z</time></trkpt><trkpt lat="49.137877657993144" lon="2.5037563723981036"><ele>77.0</ele><time>2026-04-28T15:33:29.998Z</time></trkpt><trkpt lat="49.137934195709555" lon="2.503564427090775"><ele>77.0</ele><time>2026-04-28T15:33:30.998Z</time></trkpt><trkpt lat="49.13799492695481" lon="2.5033777391209946"><ele>77.0</ele><time>2026-04-28T15:33:31.998Z</time></trkpt><trkpt lat="49.13806094508957" lon="2.5031995293981675"><ele>77.0</ele><time>2026-04-28T15:33:32.998Z</time></trkpt><trkpt lat="49.13812706154195" lon="2.503023487009076"><ele>77.25</ele><time>2026-04-28T15:33:33.998Z</time></trkpt><trkpt lat="49.13819041683463" lon="2.5028487092220906"><ele>77.5</ele><time>2026-04-28T15:33:34.998Z</time></trkpt><trkpt lat="49.13825570849167" lon="2.502676082652366"><ele>77.75</ele><time>2026-04-28T15:33:35.998Z</time></trkpt><trkpt lat="49.138320710796464" lon="2.502503137347497"><ele>78.0</ele><time>2026-04-28T15:33:36.998Z</time></trkpt><trkpt lat="49.13838669042969" lon="2.5023299830445302"><ele>78.0</ele><time>2026-04-28T15:33:37.998Z</time></trkpt><trkpt lat="49.138452382746394" lon="2.5021563217985587"><ele>78.0</ele><time>2026-04-28T15:33:38.997Z</time></trkpt><trkpt lat="49.138518478950665" lon="2.501982986049738"><ele>78.0</ele><time>2026-04-28T15:33:39.997Z</time></trkpt><trkpt lat="49.13858199970676" lon="2.5018043056473895"><ele>78.0</ele><time>2026-04-28T15:33:40.997Z</time></trkpt><trkpt lat="49.13863599124412" lon="2.5016069880229908"><ele>79.33333333333333</ele><time>2026-04-28T15:33:41.997Z</time></trkpt><trkpt lat="49.138672344267405" lon="2.501387181146468"><ele>80.66666666666666</ele><time>2026-04-28T15:33:42.997Z</time></trkpt><trkpt lat="49.138690506388144" lon="2.5011526279313583"><ele>82.0</ele><time>2026-04-28T15:33:43.997Z</time></trkpt><trkpt lat="49.13869962247532" lon="2.500904104517019"><ele>82.66666666666666</ele><time>2026-04-28T15:33:44.997Z</time></trkpt><trkpt lat="49.13870667388379" lon="2.500652492234227"><ele>83.33333333333333</ele><time>2026-04-28T15:33:45.997Z</time></trkpt><trkpt lat="49.13871499748802" lon="2.5004053258363697"><ele>84.0</ele><time>2026-04-28T15:33:46.997Z</time></trkpt><trkpt lat="49.1387218358874" lon="2.5001521495973225"><ele>84.33333333333333</ele><time>2026-04-28T15:33:47.997Z</time></trkpt><trkpt lat="49.138728061541585" lon="2.499893660509663"><ele>84.66666666666666</ele><time>2026-04-28T15:33:48.997Z</time></trkpt><trkpt lat="49.13873467685244" lon="2.4996306373641235"><ele>85.0</ele><time>2026-04-28T15:33:49.997Z</time></trkpt><trkpt lat="49.13873839930578" lon="2.4993661999168943"><ele>86.0</ele><time>2026-04-28T15:33:50.997Z</time></trkpt><trkpt lat="49.13874367393211" lon="2.4990993321704877"><ele>87.0</ele><time>2026-04-28T15:33:51.997Z</time></trkpt><trkpt lat="49.138750664756344" lon="2.49883174498655"><ele>88.0</ele><time>2026-04-28T15:33:52.997Z</time></trkpt><trkpt lat="49.138757813617396" lon="2.498563250788532"><ele>88.0</ele><time>2026-04-28T15:33:53.997Z</time></trkpt><trkpt lat="49.138764141518415" lon="2.498297379258795"><ele>88.0</ele><time>2026-04-28T15:33:54.997Z</time></trkpt><trkpt lat="49.13877009220765" lon="2.498030336824208"><ele>88.0</ele><time>2026-04-28T15:33:55.997Z</time></trkpt><trkpt lat="49.13877570856936" lon="2.49776402425683"><ele>88.0</ele><time>2026-04-28T15:33:56.997Z</time></trkpt><trkpt lat="49.13878073011549" lon="2.497497947069737"><ele>88.0</ele><time>2026-04-28T15:33:57.997Z</time></trkpt><trkpt lat="49.13878563350366" lon="2.497230079703762"><ele>88.0</ele><time>2026-04-28T15:33:58.997Z</time></trkpt><trkpt lat="49.138791125183864" lon="2.496963177993243"><ele>88.0</ele><time>2026-04-28T15:33:59.997Z</time></trkpt><trkpt lat="49.13879873465471" lon="2.496697512357753"><ele>88.0</ele><time>2026-04-28T15:34:00.997Z</time></trkpt><trkpt lat="49.13880593511492" lon="2.4964326444830345"><ele>88.0</ele><time>2026-04-28T15:34:01.997Z</time></trkpt><trkpt lat="49.13881265014665" lon="2.4961686895903616"><ele>88.33333333333333</ele><time>2026-04-28T15:34:02.997Z</time></trkpt><trkpt lat="49.1388196718218" lon="2.4959053354449985"><ele>88.66666666666667</ele><time>2026-04-28T15:34:03.997Z</time></trkpt><trkpt lat="49.13882654953718" lon="2.4956465685534455"><ele>89.0</ele><time>2026-04-28T15:34:04.997Z</time></trkpt><trkpt lat="49.138833510318044" lon="2.495393676918666"><ele>89.33333333333334</ele><time>2026-04-28T15:34:05.997Z</time></trkpt><trkpt lat="49.13883998575806" lon="2.4951485293718814"><ele>89.66666666666667</ele><time>2026-04-28T15:34:06.997Z</time></trkpt><trkpt lat="49.13884553276997" lon="2.494908805497727"><ele>90.0</ele><time>2026-04-28T15:34:07.997Z</time></trkpt><trkpt lat="49.138851332304284" lon="2.4946763664159417"><ele>89.75</ele><time>2026-04-28T15:34:08.997Z</time></trkpt><trkpt lat="49.13885674822578" lon="2.4944486253117226"><ele>89.5</ele><time>2026-04-28T15:34:09.997Z</time></trkpt><trkpt lat="49.138862230217555" lon="2.4942208726691457"><ele>89.25</ele><time>2026-04-28T15:34:10.997Z</time></trkpt><trkpt lat="49.13886830002025" lon="2.4939923890726234"><ele>89.0</ele><time>2026-04-28T15:34:11.997Z</time></trkpt><trkpt lat="49.138873828695736" lon="2.4937639202246977"><ele>89.0</ele><time>2026-04-28T15:34:12.997Z</time></trkpt><trkpt lat="49.13887930811042" lon="2.4935365647525525"><ele>89.0</ele><time>2026-04-28T15:34:13.997Z</time></trkpt><trkpt lat="49.13888524665494" lon="2.493309322613416"><ele>89.0</ele><time>2026-04-28T15:34:14.997Z</time></trkpt><trkpt lat="49.138891053432985" lon="2.493082084669533"><ele>89.0</ele><time>2026-04-28T15:34:15.996Z</time></trkpt><trkpt lat="49.13889654601382" lon="2.492854943617463"><ele>89.75</ele><time>2026-04-28T15:34:16.999Z</time></trkpt><trkpt lat="49.1389064928182" lon="2.492628470854782"><ele>90.5</ele><time>2026-04-28T15:34:17.999Z</time></trkpt><trkpt lat="49.13892391278051" lon="2.492403499336131"><ele>91.25</ele><time>2026-04-28T15:34:18.999Z</time></trkpt><trkpt lat="49.13895086574526" lon="2.492179643525506"><ele>92.0</ele><time>2026-04-28T15:34:19.999Z</time></trkpt><trkpt lat="49.138994519509275" lon="2.491959865608322"><ele>90.66666666666667</ele><time>2026-04-28T15:34:20.999Z</time></trkpt><trkpt lat="49.13905845340091" lon="2.4917518079669625"><ele>89.33333333333333</ele><time>2026-04-28T15:34:21.999Z</time></trkpt><trkpt lat="49.13913988210785" lon="2.4915604134773965"><ele>88.0</ele><time>2026-04-28T15:34:22.999Z</time></trkpt><trkpt lat="49.13923608199308" lon="2.4913835561357045"><ele>87.5</ele><time>2026-04-28T15:34:23.999Z</time></trkpt><trkpt lat="49.13933270682708" lon="2.491208898319429"><ele>87.0</ele><time>2026-04-28T15:34:24.999Z</time></trkpt><trkpt lat="49.13942653109026" lon="2.4910337123652875"><ele>86.5</ele><time>2026-04-28T15:34:25.999Z</time></trkpt><trkpt lat="49.139516979589914" lon="2.4908611149389452"><ele>86.0</ele><time>2026-04-28T15:34:26.999Z</time></trkpt><trkpt lat="49.13960234149928" lon="2.490690509963164"><ele>86.0</ele><time>2026-04-28T15:34:27.999Z</time></trkpt><trkpt lat="49.1396737121532" lon="2.4905160708103904"><ele>86.0</ele><time>2026-04-28T15:34:28.999Z</time></trkpt><trkpt lat="49.13972501080656" lon="2.4903320792518713"><ele>86.0</ele><time>2026-04-28T15:34:29.999Z</time></trkpt><trkpt lat="49.139754299496616" lon="2.4901406779477817"><ele>86.0</ele><time>2026-04-28T15:34:30.999Z</time></trkpt><trkpt lat="49.13976749657545" lon="2.489943528722968"><ele>86.0</ele><time>2026-04-28T15:34:31.999Z</time></trkpt><trkpt lat="49.13976664583325" lon="2.4897406026103144"><ele>86.0</ele><time>2026-04-28T15:34:32.999Z</time></trkpt><trkpt lat="49.13974394884149" lon="2.4895381700281214"><ele>86.0</ele><time>2026-04-28T15:34:33.999Z</time></trkpt><trkpt lat="49.13969855448164" lon="2.4893410431034493"><ele>86.0</ele><time>2026-04-28T15:34:34.999Z</time></trkpt><trkpt lat="49.13963354850402" lon="2.4891549060750915"><ele>86.25</ele><time>2026-04-28T15:34:35.999Z</time></trkpt><trkpt lat="49.13956581447407" lon="2.488977208860086"><ele>86.5</ele><time>2026-04-28T15:34:36.999Z</time></trkpt><trkpt lat="49.13949711257657" lon="2.4887966318563044"><ele>86.75</ele><time>2026-04-28T15:34:37.999Z</time></trkpt><trkpt lat="49.13942802696355" lon="2.4886165239891573"><ele>87.0</ele><time>2026-04-28T15:34:38.999Z</time></trkpt><trkpt lat="49.13935935089872" lon="2.4884302689799984"><ele>88.0</ele><time>2026-04-28T15:34:39.999Z</time></trkpt><trkpt lat="49.139289018286924" lon="2.488249973357944"><ele>89.0</ele><time>2026-04-28T15:34:40.999Z</time></trkpt><trkpt lat="49.13922118896382" lon="2.4880745526897154"><ele>90.0</ele><time>2026-04-28T15:34:41.999Z</time></trkpt><trkpt lat="49.13915728488108" lon="2.487901376055343"><ele>91.0</ele><time>2026-04-28T15:34:42.999Z</time></trkpt><trkpt lat="49.139100594424434" lon="2.487723263228312"><ele>91.25</ele><time>2026-04-28T15:34:43.999Z</time></trkpt><trkpt lat="49.13905937681333" lon="2.48753695592615"><ele>91.5</ele><time>2026-04-28T15:34:44.999Z</time></trkpt><trkpt lat="49.13903478922579" lon="2.4873442367638336"><ele>91.75</ele><time>2026-04-28T15:34:45.999Z</time></trkpt><trkpt lat="49.13902457095614" lon="2.4871499270426156"><ele>92.0</ele><time>2026-04-28T15:34:46.999Z</time></trkpt><trkpt lat="49.13902696207424" lon="2.486956792527436"><ele>93.0</ele><time>2026-04-28T15:34:47.999Z</time></trkpt><trkpt lat="49.139034211217826" lon="2.486763627341083"><ele>94.0</ele><time>2026-04-28T15:34:48.999Z</time></trkpt><trkpt lat="49.13903993206001" lon="2.4865687989943552"><ele>95.0</ele><time>2026-04-28T15:34:49.999Z</time></trkpt><trkpt lat="49.139044473135925" lon="2.486373349023902"><ele>96.0</ele><time>2026-04-28T15:34:50.999Z</time></trkpt><trkpt lat="49.1390488746913" lon="2.486178685168035"><ele>95.25</ele><time>2026-04-28T15:34:51.999Z</time></trkpt><trkpt lat="49.139053634992386" lon="2.4859903779653245"><ele>94.5</ele><time>2026-04-28T15:34:52.999Z</time></trkpt><trkpt lat="49.13905755676998" lon="2.4858076413560166"><ele>93.75</ele><time>2026-04-28T15:34:53.999Z</time></trkpt><trkpt lat="49.139059567951996" lon="2.485628053223766"><ele>93.0</ele><time>2026-04-28T15:34:54.999Z</time></trkpt><trkpt lat="49.13906138152171" lon="2.485453548755264"><ele>93.0</ele><time>2026-04-28T15:34:55.999Z</time></trkpt><trkpt lat="49.13908127047832" lon="2.4852897435786163"><ele>93.0</ele><time>2026-04-28T15:34:56.999Z</time></trkpt><trkpt lat="49.139084246302936" lon="2.4851395768355458"><ele>93.0</ele><time>2026-04-28T15:34:57.999Z</time></trkpt><trkpt lat="49.139087567098045" lon="2.484995907933964"><ele>93.0</ele><time>2026-04-28T15:34:58.999Z</time></trkpt><trkpt lat="49.13907972632527" lon="2.4848539187944674"><ele>93.0</ele><time>2026-04-28T15:34:59.999Z</time></trkpt><trkpt lat="49.139057874073615" lon="2.4847188223935386"><ele>93.2</ele><time>2026-04-28T15:35:00.999Z</time></trkpt><trkpt lat="49.13900228541857" lon="2.4845927011745474"><ele>93.4</ele><time>2026-04-28T15:35:01.999Z</time></trkpt><trkpt lat="49.13891983511572" lon="2.4844951334903635"><ele>93.60000000000001</ele><time>2026-04-28T15:35:02.999Z</time></trkpt><trkpt lat="49.13885268335436" lon="2.4843886991543602"><ele>93.80000000000001</ele><time>2026-04-28T15:35:03.999Z</time></trkpt><trkpt lat="49.13878591210554" lon="2.4842791294791415"><ele>94.0</ele><time>2026-04-28T15:35:04.999Z</time></trkpt><trkpt lat="49.138728015726215" lon="2.484168938959473"><ele>94.0</ele><time>2026-04-28T15:35:05.999Z</time></trkpt><trkpt lat="49.138683465485734" lon="2.4840496871210953"><ele>94.0</ele><time>2026-04-28T15:35:06.999Z</time></trkpt><trkpt lat="49.1386676773381" lon="2.483909782568245"><ele>94.0</ele><time>2026-04-28T15:35:07.999Z</time></trkpt><trkpt lat="49.13863122429184" lon="2.4837792723733854"><ele>94.0</ele><time>2026-04-28T15:35:08.999Z</time></trkpt><trkpt lat="49.13862076522364" lon="2.483635735097497"><ele>94.0</ele><time>2026-04-28T15:35:09.999Z</time></trkpt><trkpt lat="49.138642389995766" lon="2.4834931069080852"><ele>92.80000000000001</ele><time>2026-04-28T15:35:10.999Z</time></trkpt><trkpt lat="49.13865624304917" lon="2.483348571691"><ele>91.60000000000001</ele><time>2026-04-28T15:35:11.998Z</time></trkpt><trkpt lat="49.138673660340494" lon="2.483198777253633"><ele>90.4</ele><time>2026-04-28T15:35:12.998Z</time></trkpt><trkpt lat="49.13869339660989" lon="2.4830412508199347"><ele>89.2</ele><time>2026-04-28T15:35:13.998Z</time></trkpt><trkpt lat="49.13871391731686" lon="2.4828884340682165"><ele>88.0</ele><time>2026-04-28T15:35:14.998Z</time></trkpt><trkpt lat="49.13873469050249" lon="2.4827385090062113"><ele>86.80000000000001</ele><time>2026-04-28T15:35:15.998Z</time></trkpt><trkpt lat="49.13875672754206" lon="2.482590359099348"><ele>85.6</ele><time>2026-04-28T15:35:16.998Z</time></trkpt><trkpt lat="49.13878139797591" lon="2.482438435759772"><ele>84.4</ele><time>2026-04-28T15:35:17.998Z</time></trkpt><trkpt lat="49.138808118921844" lon="2.4822819169463615"><ele>83.19999999999999</ele><time>2026-04-28T15:35:18.998Z</time></trkpt><trkpt lat="49.13883651552373" lon="2.482124641158076"><ele>82.0</ele><time>2026-04-28T15:35:19.998Z</time></trkpt><trkpt lat="49.13886860933745" lon="2.4819722071255734"><ele>81.8</ele><time>2026-04-28T15:35:20.998Z</time></trkpt><trkpt lat="49.138905323738534" lon="2.48182921737615"><ele>81.6</ele><time>2026-04-28T15:35:21.998Z</time></trkpt><trkpt lat="49.13894561526713" lon="2.4816944872305613"><ele>81.39999999999999</ele><time>2026-04-28T15:35:22.998Z</time></trkpt><trkpt lat="49.13899056346839" lon="2.481562236831939"><ele>81.19999999999999</ele><time>2026-04-28T15:35:23.998Z</time></trkpt><trkpt lat="49.13903588118518" lon="2.4814469946999305"><ele>81.0</ele><time>2026-04-28T15:35:24.998Z</time></trkpt><trkpt lat="49.13907804319417" lon="2.4813439062484104"><ele>79.16666666666667</ele><time>2026-04-28T15:35:25.998Z</time></trkpt><trkpt lat="49.13911845083082" lon="2.4812465510608264"><ele>77.33333333333333</ele><time>2026-04-28T15:35:26.998Z</time></trkpt><trkpt lat="49.13916079360112" lon="2.4811445335012423"><ele>75.5</ele><time>2026-04-28T15:35:27.998Z</time></trkpt><trkpt lat="49.139205609101815" lon="2.4810382653226815"><ele>73.66666666666666</ele><time>2026-04-28T15:35:28.998Z</time></trkpt><trkpt lat="49.139238322011174" lon="2.480915182896674"><ele>71.83333333333333</ele><time>2026-04-28T15:35:29.998Z</time></trkpt><trkpt lat="49.13929397739515" lon="2.480813572100533"><ele>70.0</ele><time>2026-04-28T15:35:30.998Z</time></trkpt><trkpt lat="49.13933808202639" lon="2.4806970705656237"><ele>70.0</ele><time>2026-04-28T15:35:31.998Z</time></trkpt><trkpt lat="49.13937836383143" lon="2.4805851080210246"><ele>70.0</ele><time>2026-04-28T15:35:32.998Z</time></trkpt><trkpt lat="49.139415985908244" lon="2.4804689417674504"><ele>70.0</ele><time>2026-04-28T15:35:33.998Z</time></trkpt><trkpt lat="49.139447462649734" lon="2.4803447393228053"><ele>70.0</ele><time>2026-04-28T15:35:34.998Z</time></trkpt><trkpt lat="49.139468241082376" lon="2.480209271792282"><ele>70.0</ele><time>2026-04-28T15:35:35.998Z</time></trkpt><trkpt lat="49.13948391433749" lon="2.48007187940377"><ele>70.0</ele><time>2026-04-28T15:35:36.998Z</time></trkpt><trkpt lat="49.13949952669774" lon="2.479932056429027"><ele>68.83333333333333</ele><time>2026-04-28T15:35:37.998Z</time></trkpt><trkpt lat="49.13951544967365" lon="2.4797974530982656"><ele>67.66666666666666</ele><time>2026-04-28T15:35:38.998Z</time></trkpt><trkpt lat="49.139530752295045" lon="2.479665667731685"><ele>66.5</ele><time>2026-04-28T15:35:39.998Z</time></trkpt><trkpt lat="49.1395452427044" lon="2.47953757804185"><ele>65.33333333333333</ele><time>2026-04-28T15:35:40.998Z</time></trkpt><trkpt lat="49.139561258239986" lon="2.479406933755603"><ele>64.16666666666667</ele><time>2026-04-28T15:35:41.998Z</time></trkpt><trkpt lat="49.13958344452041" lon="2.4792776251892175"><ele>63.0</ele><time>2026-04-28T15:35:42.998Z</time></trkpt><trkpt lat="49.139608532425626" lon="2.4791648531448143"><ele>62.42857142857143</ele><time>2026-04-28T15:35:43.998Z</time></trkpt><trkpt lat="49.1396381595773" lon="2.479067883830186"><ele>61.85714285714286</ele><time>2026-04-28T15:35:44.998Z</time></trkpt><trkpt lat="49.1396755149109" lon="2.4789709835465352"><ele>61.285714285714285</ele><time>2026-04-28T15:35:45.998Z</time></trkpt><trkpt lat="49.13971953700941" lon="2.4788777476933337"><ele>60.714285714285715</ele><time>2026-04-28T15:35:46.998Z</time></trkpt><trkpt lat="49.139768678577276" lon="2.478790136648715"><ele>60.142857142857146</ele><time>2026-04-28T15:35:47.998Z</time></trkpt><trkpt lat="49.1398195189208" lon="2.47870098711955"><ele>59.57142857142857</ele><time>2026-04-28T15:35:48.997Z</time></trkpt><trkpt lat="49.13986958293232" lon="2.478610106092277"><ele>59.0</ele><time>2026-04-28T15:35:49.997Z</time></trkpt><trkpt lat="49.139919431754144" lon="2.4785191209077726"><ele>59.00000000000001</ele><time>2026-04-28T15:35:50.997Z</time></trkpt><trkpt lat="49.13996738840488" lon="2.47842630235081"><ele>59.0</ele><time>2026-04-28T15:35:51.997Z</time></trkpt><trkpt lat="49.14001406219288" lon="2.478332600731421"><ele>59.0</ele><time>2026-04-28T15:35:52.997Z</time></trkpt><trkpt lat="49.14006227866055" lon="2.478244739212688"><ele>59.0</ele><time>2026-04-28T15:35:53.997Z</time></trkpt><trkpt lat="49.14011124443744" lon="2.478162912233037"><ele>59.00000000000001</ele><time>2026-04-28T15:35:54.997Z</time></trkpt><trkpt lat="49.140164350430105" lon="2.478072670885788"><ele>59.0</ele><time>2026-04-28T15:35:55.997Z</time></trkpt><trkpt lat="49.14021794056356" lon="2.4779780797854367"><ele>58.16666666666667</ele><time>2026-04-28T15:35:56.997Z</time></trkpt><trkpt lat="49.14027391426512" lon="2.4778827067236078"><ele>57.333333333333336</ele><time>2026-04-28T15:35:57.997Z</time></trkpt><trkpt lat="49.14033660203489" lon="2.4777869750500052"><ele>56.5</ele><time>2026-04-28T15:35:58.997Z</time></trkpt><trkpt lat="49.14039723147492" lon="2.4776833440227075"><ele>55.66666666666667</ele><time>2026-04-28T15:35:59.997Z</time></trkpt><trkpt lat="49.14045621843364" lon="2.477579977803027"><ele>54.833333333333336</ele><time>2026-04-28T15:36:00.997Z</time></trkpt><trkpt lat="49.14051596220705" lon="2.4774753840103902"><ele>54.0</ele><time>2026-04-28T15:36:01.997Z</time></trkpt><trkpt lat="49.140573846305756" lon="2.477369527165309"><ele>54.0</ele><time>2026-04-28T15:36:02.997Z</time></trkpt><trkpt lat="49.140632880473234" lon="2.4772629304288163"><ele>54.00000000000001</ele><time>2026-04-28T15:36:03.997Z</time></trkpt><trkpt lat="49.1406936841212" lon="2.4771566051393155"><ele>54.00000000000001</ele><time>2026-04-28T15:36:04.997Z</time></trkpt><trkpt lat="49.14075474358442" lon="2.4770504231924875"><ele>54.0</ele><time>2026-04-28T15:36:05.997Z</time></trkpt><trkpt lat="49.140814265225984" lon="2.476942097956862"><ele>54.0</ele><time>2026-04-28T15:36:06.997Z</time></trkpt><trkpt lat="49.14086890951933" lon="2.476831193958944"><ele>53.0</ele><time>2026-04-28T15:36:07.997Z</time></trkpt><trkpt lat="49.14091697035572" lon="2.4767241764938395"><ele>52.00000000000001</ele><time>2026-04-28T15:36:08.997Z</time></trkpt><trkpt lat="49.14095932527615" lon="2.476633905357908"><ele>51.0</ele><time>2026-04-28T15:36:09.997Z</time></trkpt><trkpt lat="49.140997477540374" lon="2.4765547487951927"><ele>50.0</ele><time>2026-04-28T15:36:10.997Z</time></trkpt><trkpt lat="49.141067874964484" lon="2.4764085399665716"><ele>49.0</ele><time>2026-04-28T15:36:12.997Z</time></trkpt><trkpt lat="49.14104131999101" lon="2.476218385159237"><ele>48.6</ele><time>2026-04-28T15:36:14.997Z</time></trkpt><trkpt lat="49.14099840670229" lon="2.4761133681118803"><ele>48.2</ele><time>2026-04-28T15:36:15.997Z</time></trkpt><trkpt lat="49.14096407042744" lon="2.4759902972889454"><ele>47.800000000000004</ele><time>2026-04-28T15:36:16.997Z</time></trkpt><trkpt lat="49.14092201742864" lon="2.47584642970065"><ele>47.400000000000006</ele><time>2026-04-28T15:36:17.997Z</time></trkpt><trkpt lat="49.14088133478541" lon="2.475699258395444"><ele>47.0</ele><time>2026-04-28T15:36:18.997Z</time></trkpt><trkpt lat="49.14084108828343" lon="2.4755575488163495"><ele>46.8</ele><time>2026-04-28T15:36:19.997Z</time></trkpt><trkpt lat="49.14080396548028" lon="2.475418743958837"><ele>46.6</ele><time>2026-04-28T15:36:20.997Z</time></trkpt><trkpt lat="49.14076632931314" lon="2.4752868063241813"><ele>46.4</ele><time>2026-04-28T15:36:21.997Z</time></trkpt><trkpt lat="49.14072680168294" lon="2.4751591626566363"><ele>46.199999999999996</ele><time>2026-04-28T15:36:22.999Z</time></trkpt><trkpt lat="49.1406894489776" lon="2.4750331644127104"><ele>46.0</ele><time>2026-04-28T15:36:23.999Z</time></trkpt><trkpt lat="49.140651822308705" lon="2.474904299942049"><ele>46.4</ele><time>2026-04-28T15:36:24.999Z</time></trkpt><trkpt lat="49.14061235079471" lon="2.4747683660018067"><ele>46.8</ele><time>2026-04-28T15:36:25.999Z</time></trkpt><trkpt lat="49.14057122117578" lon="2.474631013796725"><ele>47.199999999999996</ele><time>2026-04-28T15:36:26.999Z</time></trkpt><trkpt lat="49.14053030154167" lon="2.474487767549915"><ele>47.599999999999994</ele><time>2026-04-28T15:36:27.999Z</time></trkpt><trkpt lat="49.14048960077276" lon="2.4743470571234067"><ele>48.0</ele><time>2026-04-28T15:36:28.999Z</time></trkpt><trkpt lat="49.140449634590624" lon="2.474207490256261"><ele>48.0</ele><time>2026-04-28T15:36:29.999Z</time></trkpt><trkpt lat="49.14041062360669" lon="2.4740684736619527"><ele>48.0</ele><time>2026-04-28T15:36:30.999Z</time></trkpt><trkpt lat="49.14037175415867" lon="2.4739269707618785"><ele>48.0</ele><time>2026-04-28T15:36:31.999Z</time></trkpt><trkpt lat="49.140333133738906" lon="2.473785201756362"><ele>48.0</ele><time>2026-04-28T15:36:32.999Z</time></trkpt><trkpt lat="49.140295817764944" lon="2.4736472906974645"><ele>48.0</ele><time>2026-04-28T15:36:33.999Z</time></trkpt><trkpt lat="49.14025609657665" lon="2.473519606846635"><ele>47.666666666666664</ele><time>2026-04-28T15:36:34.999Z</time></trkpt><trkpt lat="49.14022082604392" lon="2.473401521877224"><ele>47.333333333333336</ele><time>2026-04-28T15:36:35.999Z</time></trkpt><trkpt lat="49.14019236972459" lon="2.47328686466524"><ele>47.0</ele><time>2026-04-28T15:36:36.999Z</time></trkpt><trkpt lat="49.14015770569176" lon="2.4731862811190903"><ele>46.66666666666667</ele><time>2026-04-28T15:36:37.999Z</time></trkpt><trkpt lat="49.140113015338194" lon="2.473026879289098"><ele>46.333333333333336</ele><time>2026-04-28T15:36:39.999Z</time></trkpt><trkpt lat="49.14008544625055" lon="2.472936490878276"><ele>46.0</ele><time>2026-04-28T15:36:40.999Z</time></trkpt><trkpt lat="49.140057794849945" lon="2.4728355835756206"><ele>46.0</ele><time>2026-04-28T15:36:41.999Z</time></trkpt><trkpt lat="49.14002646384168" lon="2.4727200307197266"><ele>46.0</ele><time>2026-04-28T15:36:42.999Z</time></trkpt><trkpt lat="49.13998889620256" lon="2.4725887615473057"><ele>46.0</ele><time>2026-04-28T15:36:43.999Z</time></trkpt><trkpt lat="49.139950357932484" lon="2.472455456115967"><ele>46.0</ele><time>2026-04-28T15:36:44.999Z</time></trkpt><trkpt lat="49.13991306216611" lon="2.4723231571211035"><ele>46.0</ele><time>2026-04-28T15:36:45.999Z</time></trkpt><trkpt lat="49.13987473500882" lon="2.472192948031827"><ele>46.833333333333336</ele><time>2026-04-28T15:36:46.999Z</time></trkpt><trkpt lat="49.139837455738366" lon="2.4720643204794626"><ele>47.66666666666667</ele><time>2026-04-28T15:36:47.999Z</time></trkpt><trkpt lat="49.13980173808985" lon="2.471937774497943"><ele>48.5</ele><time>2026-04-28T15:36:48.999Z</time></trkpt><trkpt lat="49.13978305552215" lon="2.471814131692394"><ele>49.333333333333336</ele><time>2026-04-28T15:36:49.999Z</time></trkpt><trkpt lat="49.13975459458663" lon="2.4717140051954654"><ele>50.166666666666664</ele><time>2026-04-28T15:36:50.999Z</time></trkpt><trkpt lat="49.139714680806286" lon="2.4715735871824136"><ele>51.0</ele><time>2026-04-28T15:36:52.999Z</time></trkpt><trkpt lat="49.13967197388307" lon="2.471423342310785"><ele>51.0</ele><time>2026-04-28T15:36:54.999Z</time></trkpt><trkpt lat="49.139643501690514" lon="2.4713200428386877"><ele>51.0</ele><time>2026-04-28T15:36:55.999Z</time></trkpt><trkpt lat="49.13961327101743" lon="2.4712116256536536"><ele>51.0</ele><time>2026-04-28T15:36:56.999Z</time></trkpt><trkpt lat="49.13958313126132" lon="2.471104887086218"><ele>51.0</ele><time>2026-04-28T15:36:57.999Z</time></trkpt><trkpt lat="49.13955348348106" lon="2.4710003146126445"><ele>51.0</ele><time>2026-04-28T15:36:58.999Z</time></trkpt><trkpt lat="49.139524771767" lon="2.4708990437909644"><ele>51.0</ele><time>2026-04-28T15:36:59.999Z</time></trkpt><trkpt lat="49.13949789388663" lon="2.470804241198524"><ele>51.0</ele><time>2026-04-28T15:37:00.999Z</time></trkpt><trkpt lat="49.13947172854582" lon="2.470711951837502"><ele>51.0</ele><time>2026-04-28T15:37:01.999Z</time></trkpt><trkpt lat="49.13944115370771" lon="2.470604109472082"><ele>51.0</ele><time>2026-04-28T15:37:02.999Z</time></trkpt><trkpt lat="49.13940891795684" lon="2.470490408804395"><ele>51.0</ele><time>2026-04-28T15:37:03.999Z</time></trkpt><trkpt lat="49.13937662718185" lon="2.4703765140617793"><ele>51.0</ele><time>2026-04-28T15:37:04.999Z</time></trkpt><trkpt lat="49.1393436389239" lon="2.4702618345331024"><ele>51.0</ele><time>2026-04-28T15:37:05.999Z</time></trkpt><trkpt lat="49.139312602859505" lon="2.470155059359608"><ele>51.0</ele><time>2026-04-28T15:37:06.999Z</time></trkpt><trkpt lat="49.13928399963164" lon="2.4700566539756985"><ele>51.0</ele><time>2026-04-28T15:37:07.999Z</time></trkpt><trkpt lat="49.13925768208155" lon="2.4699661121901975"><ele>51.0</ele><time>2026-04-28T15:37:08.999Z</time></trkpt><trkpt lat="49.13921885363917" lon="2.469827778032922"><ele>51.0</ele><time>2026-04-28T15:37:10.999Z</time></trkpt><trkpt lat="49.13918666181187" lon="2.4697028690537937"><ele>51.0</ele><time>2026-04-28T15:37:12.999Z</time></trkpt><trkpt lat="49.13917793663783" lon="2.4695590760886352"><ele>51.0</ele><time>2026-04-28T15:37:14.999Z</time></trkpt><trkpt lat="49.13915640883481" lon="2.469394436903161"><ele>50.8</ele><time>2026-04-28T15:37:16.999Z</time></trkpt><trkpt lat="49.139066194311134" lon="2.469291238365589"><ele>50.599999999999994</ele><time>2026-04-28T15:37:18.999Z</time></trkpt><trkpt lat="49.13898028369378" lon="2.469145546335653"><ele>50.4</ele><time>2026-04-28T15:37:20.999Z</time></trkpt><trkpt lat="49.13894700414004" lon="2.469043892360759"><ele>50.2</ele><time>2026-04-28T15:37:21.998Z</time></trkpt><trkpt lat="49.138913921395186" lon="2.468934694522944"><ele>50.0</ele><time>2026-04-28T15:37:22.998Z</time></trkpt><trkpt lat="49.138881977323635" lon="2.468823631486949"><ele>50.833333333333336</ele><time>2026-04-28T15:37:23.998Z</time></trkpt><trkpt lat="49.13885198609641" lon="2.4687117707440858"><ele>51.66666666666667</ele><time>2026-04-28T15:37:24.998Z</time></trkpt><trkpt lat="49.138822514936216" lon="2.468605518192416"><ele>52.5</ele><time>2026-04-28T15:37:25.998Z</time></trkpt><trkpt lat="49.138794295735494" lon="2.4685038660414858"><ele>53.33333333333333</ele><time>2026-04-28T15:37:26.998Z</time></trkpt><trkpt lat="49.138766892057525" lon="2.468407186194386"><ele>54.166666666666664</ele><time>2026-04-28T15:37:27.998Z</time></trkpt><trkpt lat="49.13873071937259" lon="2.4682448755348845"><ele>55.0</ele><time>2026-04-28T15:37:29.998Z</time></trkpt><trkpt lat="49.13870505792835" lon="2.4681334471707164"><ele>54.99999999999999</ele><time>2026-04-28T15:37:31.998Z</time></trkpt><trkpt lat="49.13866984895339" lon="2.467992173706878"><ele>55.0</ele><time>2026-04-28T15:37:33.998Z</time></trkpt><trkpt lat="49.13864415186267" lon="2.467898533803863"><ele>55.0</ele><time>2026-04-28T15:37:34.998Z</time></trkpt><trkpt lat="49.13863132282644" lon="2.46778684316783"><ele>55.0</ele><time>2026-04-28T15:37:35.998Z</time></trkpt><trkpt lat="49.138602002101806" lon="2.4676840770883017"><ele>55.0</ele><time>2026-04-28T15:37:36.998Z</time></trkpt><trkpt lat="49.13857354351303" lon="2.4675845360377267"><ele>54.99999999999999</ele><time>2026-04-28T15:37:37.998Z</time></trkpt><trkpt lat="49.13854803635548" lon="2.467495318342683"><ele>55.0</ele><time>2026-04-28T15:37:38.998Z</time></trkpt><trkpt lat="49.138510387131966" lon="2.4673605534249385"><ele>55.4</ele><time>2026-04-28T15:37:40.998Z</time></trkpt><trkpt lat="49.138464877155215" lon="2.4671974053687973"><ele>55.8</ele><time>2026-04-28T15:37:42.998Z</time></trkpt><trkpt lat="49.13843678860698" lon="2.4670967136037514"><ele>56.2</ele><time>2026-04-28T15:37:43.998Z</time></trkpt><trkpt lat="49.138410825064334" lon="2.4670029591966216"><ele>56.6</ele><time>2026-04-28T15:37:44.998Z</time></trkpt><trkpt lat="49.13837038458487" lon="2.4668569280576067"><ele>57.0</ele><time>2026-04-28T15:37:46.998Z</time></trkpt><trkpt lat="49.13832232179235" lon="2.4666825366919927"><ele>57.0</ele><time>2026-04-28T15:37:48.998Z</time></trkpt><trkpt lat="49.13828860052366" lon="2.4665660772872173"><ele>57.0</ele><time>2026-04-28T15:37:49.998Z</time></trkpt><trkpt lat="49.13825047581507" lon="2.4664344094078903"><ele>57.0</ele><time>2026-04-28T15:37:50.998Z</time></trkpt><trkpt lat="49.13819869089136" lon="2.466312729345564"><ele>57.0</ele><time>2026-04-28T15:37:51.998Z</time></trkpt><trkpt lat="49.1381616043992" lon="2.4661871020899864"><ele>57.0</ele><time>2026-04-28T15:37:52.998Z</time></trkpt><trkpt lat="49.13814378483562" lon="2.4660612143859715"><ele>57.0</ele><time>2026-04-28T15:37:53.998Z</time></trkpt><trkpt lat="49.13811423899644" lon="2.4659560367393536"><ele>56.833333333333336</ele><time>2026-04-28T15:37:54.998Z</time></trkpt><trkpt lat="49.138070002300076" lon="2.4657947055301475"><ele>56.66666666666667</ele><time>2026-04-28T15:37:56.998Z</time></trkpt><trkpt lat="49.13805997359114" lon="2.4656889767246346"><ele>56.5</ele><time>2026-04-28T15:37:58.998Z</time></trkpt><trkpt lat="49.138168444464384" lon="2.465660264574633"><ele>56.333333333333336</ele><time>2026-04-28T15:38:00.997Z</time></trkpt><trkpt lat="49.13823669972965" lon="2.4656605996290217"><ele>56.16666666666667</ele><time>2026-04-28T15:38:01.997Z</time></trkpt><trkpt lat="49.13831245111609" lon="2.4656609714810265"><ele>56.0</ele><time>2026-04-28T15:38:02.997Z</time></trkpt><trkpt lat="49.138392111344444" lon="2.4656614036599294"><ele>56.0</ele><time>2026-04-28T15:38:03.997Z</time></trkpt><trkpt lat="49.13848150691361" lon="2.4656637014145706"><ele>55.99999999999999</ele><time>2026-04-28T15:38:04.997Z</time></trkpt><trkpt lat="49.138577672355034" lon="2.465666173176475"><ele>55.99999999999999</ele><time>2026-04-28T15:38:05.997Z</time></trkpt><trkpt lat="49.13867003390995" lon="2.4656676238251967"><ele>56.0</ele><time>2026-04-28T15:38:06.997Z</time></trkpt><trkpt lat="49.13875920552504" lon="2.4656687993524304"><ele>56.0</ele><time>2026-04-28T15:38:07.997Z</time></trkpt><trkpt lat="49.138848692344936" lon="2.4656701945427715"><ele>56.00000000000001</ele><time>2026-04-28T15:38:08.997Z</time></trkpt><trkpt lat="49.138939392458326" lon="2.4656715239698985"><ele>56.0</ele><time>2026-04-28T15:38:09.997Z</time></trkpt><trkpt lat="49.13903198201587" lon="2.465672881091002"><ele>56.0</ele><time>2026-04-28T15:38:10.997Z</time></trkpt><trkpt lat="49.13912240095372" lon="2.465650966369893"><ele>56.0</ele><time>2026-04-28T15:38:11.997Z</time></trkpt><trkpt lat="49.13920924575106" lon="2.465659752086066"><ele>56.00000000000001</ele><time>2026-04-28T15:38:12.997Z</time></trkpt><trkpt lat="49.139295285985995" lon="2.4656609918933428"><ele>56.0</ele><time>2026-04-28T15:38:13.997Z</time></trkpt><trkpt lat="49.13937337321153" lon="2.4656605487913503"><ele>56.00000000000001</ele><time>2026-04-28T15:38:14.997Z</time></trkpt><trkpt lat="49.13944517181704" lon="2.4656460031151908"><ele>56.0</ele><time>2026-04-28T15:38:15.997Z</time></trkpt><trkpt lat="49.13951341538094" lon="2.4656040462452102"><ele>56.0</ele><time>2026-04-28T15:38:16.997Z</time></trkpt><trkpt lat="49.13958074568104" lon="2.4655679119014993"><ele>56.0</ele><time>2026-04-28T15:38:17.997Z</time></trkpt><trkpt lat="49.13964384041709" lon="2.4655371779146624"><ele>56.00000000000001</ele><time>2026-04-28T15:38:18.997Z</time></trkpt><trkpt lat="49.139699941131816" lon="2.4654912278112087"><ele>56.0</ele><time>2026-04-28T15:38:19.997Z</time></trkpt><trkpt lat="49.139746836676494" lon="2.465304635354284"><ele>56.00000000000001</ele><time>2026-04-28T15:38:21.997Z</time></trkpt><trkpt lat="49.13977031588186" lon="2.465190157828971"><ele>56.0</ele><time>2026-04-28T15:38:22.997Z</time></trkpt><trkpt lat="49.139786670560554" lon="2.465065363386286"><ele>56.0</ele><time>2026-04-28T15:38:23.997Z</time></trkpt><trkpt lat="49.13980365064246" lon="2.4649347237091264"><ele>56.0</ele><time>2026-04-28T15:38:24.997Z</time></trkpt><trkpt lat="49.13982248941698" lon="2.46480386234738"><ele>56.00000000000001</ele><time>2026-04-28T15:38:25.997Z</time></trkpt><trkpt lat="49.13982772692938" lon="2.4646679612322577"><ele>56.0</ele><time>2026-04-28T15:38:26.997Z</time></trkpt><trkpt lat="49.13985391243726" lon="2.464532950783045"><ele>56.199999999999996</ele><time>2026-04-28T15:38:28Z</time></trkpt><trkpt lat="49.13987631439484" lon="2.464394316592585"><ele>56.39999999999999</ele><time>2026-04-28T15:38:29Z</time></trkpt><trkpt lat="49.1399014061951" lon="2.4642509565841597"><ele>56.6</ele><time>2026-04-28T15:38:30Z</time></trkpt><trkpt lat="49.13992600158153" lon="2.4641050325785483"><ele>56.8</ele><time>2026-04-28T15:38:31Z</time></trkpt><trkpt lat="49.13995093280096" lon="2.463953601923232"><ele>57.0</ele><time>2026-04-28T15:38:32Z</time></trkpt><trkpt lat="49.1399754417949" lon="2.463797726631056"><ele>56.8</ele><time>2026-04-28T15:38:33Z</time></trkpt><trkpt lat="49.13999830468383" lon="2.463642214302113"><ele>56.6</ele><time>2026-04-28T15:38:34Z</time></trkpt><trkpt lat="49.14002160085841" lon="2.4634832254004193"><ele>56.39999999999999</ele><time>2026-04-28T15:38:35Z</time></trkpt><trkpt lat="49.14004527287218" lon="2.463322777984686"><ele>56.199999999999996</ele><time>2026-04-28T15:38:36Z</time></trkpt><trkpt lat="49.14006743334804" lon="2.4631625471722884"><ele>56.0</ele><time>2026-04-28T15:38:37Z</time></trkpt><trkpt lat="49.140108847140425" lon="2.4630080619382007"><ele>56.4</ele><time>2026-04-28T15:38:38Z</time></trkpt><trkpt lat="49.140122224294174" lon="2.4628432950990966"><ele>56.8</ele><time>2026-04-28T15:38:39Z</time></trkpt><trkpt lat="49.14015394162001" lon="2.462685601643129"><ele>57.199999999999996</ele><time>2026-04-28T15:38:40Z</time></trkpt><trkpt lat="49.14018248355279" lon="2.4625280520108017"><ele>57.599999999999994</ele><time>2026-04-28T15:38:41Z</time></trkpt><trkpt lat="49.14021262276168" lon="2.462375039122577"><ele>58.0</ele><time>2026-04-28T15:38:42Z</time></trkpt><trkpt lat="49.14024470860832" lon="2.4622285114900255"><ele>58.49999999999999</ele><time>2026-04-28T15:38:43Z</time></trkpt><trkpt lat="49.140274640374884" lon="2.462086337308365"><ele>59.0</ele><time>2026-04-28T15:38:44Z</time></trkpt><trkpt lat="49.14030069483293" lon="2.461946123883873"><ele>59.5</ele><time>2026-04-28T15:38:45Z</time></trkpt><trkpt lat="49.140325639963585" lon="2.4618109399530868"><ele>60.0</ele><time>2026-04-28T15:38:46Z</time></trkpt><trkpt lat="49.14034946414373" lon="2.461687987126214"><ele>60.49999999999999</ele><time>2026-04-28T15:38:47Z</time></trkpt><trkpt lat="49.140368729645154" lon="2.4615820385006946"><ele>61.0</ele><time>2026-04-28T15:38:48Z</time></trkpt><trkpt lat="49.14039653387985" lon="2.4614852942605467"><ele>60.99999999999999</ele><time>2026-04-28T15:38:49Z</time></trkpt><trkpt lat="49.14043896972782" lon="2.4613956972093995"><ele>61.0</ele><time>2026-04-28T15:38:50Z</time></trkpt><trkpt lat="49.140493463167964" lon="2.4613224091839263"><ele>60.99999999999999</ele><time>2026-04-28T15:38:50.999Z</time></trkpt><trkpt lat="49.140558559237206" lon="2.4612688248607792"><ele>60.99999999999999</ele><time>2026-04-28T15:38:51.999Z</time></trkpt><trkpt lat="49.140624469576245" lon="2.46124260636144"><ele>61.0</ele><time>2026-04-28T15:38:52.999Z</time></trkpt><trkpt lat="49.14071584714781" lon="2.4612424411968368"><ele>60.99999999999999</ele><time>2026-04-28T15:38:54.999Z</time></trkpt><trkpt lat="49.140780435844924" lon="2.4612586132710237"><ele>60.99999999999999</ele><time>2026-04-28T15:38:57.999Z</time></trkpt><trkpt lat="49.14087609408943" lon="2.4612784153229295"><ele>59.83333333333333</ele><time>2026-04-28T15:39:00.999Z</time></trkpt><trkpt lat="49.14098917239739" lon="2.4613026352461462"><ele>58.666666666666664</ele><time>2026-04-28T15:39:02.999Z</time></trkpt><trkpt lat="49.14106517704151" lon="2.4613142451815255"><ele>57.5</ele><time>2026-04-28T15:39:03.999Z</time></trkpt><trkpt lat="49.1411500591831" lon="2.4613280929446875"><ele>56.33333333333333</ele><time>2026-04-28T15:39:04.999Z</time></trkpt><trkpt lat="49.141235325723635" lon="2.4613422104036013"><ele>55.166666666666664</ele><time>2026-04-28T15:39:05.999Z</time></trkpt><trkpt lat="49.14131966631143" lon="2.461358722851406"><ele>54.0</ele><time>2026-04-28T15:39:06.999Z</time></trkpt><trkpt lat="49.141405448943836" lon="2.4613726040702586"><ele>54.0</ele><time>2026-04-28T15:39:07.999Z</time></trkpt><trkpt lat="49.14148611579216" lon="2.4613858922146625"><ele>54.0</ele><time>2026-04-28T15:39:08.999Z</time></trkpt><trkpt lat="49.14156660406494" lon="2.4613989166861017"><ele>54.0</ele><time>2026-04-28T15:39:09.999Z</time></trkpt><trkpt lat="49.14163757912797" lon="2.4614121991003053"><ele>54.0</ele><time>2026-04-28T15:39:10.999Z</time></trkpt><trkpt lat="49.14174481059259" lon="2.461443683224729"><ele>54.0</ele><time>2026-04-28T15:39:12.999Z</time></trkpt><trkpt lat="49.14182308235331" lon="2.46147486759604"><ele>54.0</ele><time>2026-04-28T15:39:14.999Z</time></trkpt><trkpt lat="49.14189259336221" lon="2.4614586911880547"><ele>53.166666666666664</ele><time>2026-04-28T15:39:16.999Z</time></trkpt><trkpt lat="49.14196321611402" lon="2.461463919789429"><ele>52.33333333333333</ele><time>2026-04-28T15:39:23.999Z</time></trkpt><trkpt lat="49.142024866676024" lon="2.4614905887947"><ele>51.5</ele><time>2026-04-28T15:39:25.999Z</time></trkpt><trkpt lat="49.142116655404344" lon="2.4615067673131708"><ele>50.666666666666664</ele><time>2026-04-28T15:39:27.999Z</time></trkpt><trkpt lat="49.14224446653086" lon="2.461529542730555"><ele>49.83333333333333</ele><time>2026-04-28T15:39:29.999Z</time></trkpt><trkpt lat="49.142313238066606" lon="2.461541815189447"><ele>49.0</ele><time>2026-04-28T15:39:30.998Z</time></trkpt><trkpt lat="49.14238084378115" lon="2.4615538796049465"><ele>47.99999999999999</ele><time>2026-04-28T15:39:31.998Z</time></trkpt><trkpt lat="49.14244515393437" lon="2.4615653559440673"><ele>47.0</ele><time>2026-04-28T15:39:32.998Z</time></trkpt><trkpt lat="49.14250797991409" lon="2.461576864213606"><ele>46.0</ele><time>2026-04-28T15:39:33.998Z</time></trkpt><trkpt lat="49.14257155053337" lon="2.461588442574576"><ele>45.0</ele><time>2026-04-28T15:39:34.998Z</time></trkpt><trkpt lat="49.14263550955692" lon="2.4615776406420644"><ele>44.0</ele><time>2026-04-28T15:39:35.998Z</time></trkpt><trkpt lat="49.14273920804483" lon="2.4616101343912202"><ele>43.0</ele><time>2026-04-28T15:39:37.998Z</time></trkpt><trkpt lat="49.14282546250814" lon="2.461632080973397"><ele>43.0</ele><time>2026-04-28T15:39:39.998Z</time></trkpt><trkpt lat="49.142912024733484" lon="2.461675091022593"><ele>43.0</ele><time>2026-04-28T15:39:41.998Z</time></trkpt><trkpt lat="49.142977431796396" lon="2.461726280781314"><ele>43.0</ele><time>2026-04-28T15:39:43.998Z</time></trkpt><trkpt lat="49.143061146210606" lon="2.461677112644572"><ele>43.0</ele><time>2026-04-28T15:39:46.998Z</time></trkpt><trkpt lat="49.143057154227265" lon="2.461559949553363"><ele>43.0</ele><time>2026-04-28T15:39:48.998Z</time></trkpt><trkpt lat="49.143032240447724" lon="2.461412459990802"><ele>43.0</ele><time>2026-04-28T15:39:50.998Z</time></trkpt><trkpt lat="49.143032483049915" lon="2.461306811069429"><ele>43.4</ele><time>2026-04-28T15:39:51.998Z</time></trkpt><trkpt lat="49.14303812351734" lon="2.4611810513867374"><ele>43.8</ele><time>2026-04-28T15:39:52.998Z</time></trkpt><trkpt lat="49.143042580358674" lon="2.4610488952487275"><ele>44.2</ele><time>2026-04-28T15:39:53.998Z</time></trkpt><trkpt lat="49.14304880289948" lon="2.4609039938534067"><ele>44.6</ele><time>2026-04-28T15:39:54.998Z</time></trkpt><trkpt lat="49.14305554847707" lon="2.460745344938896"><ele>45.0</ele><time>2026-04-28T15:39:55.998Z</time></trkpt><trkpt lat="49.14306326052525" lon="2.460571670186388"><ele>45.75</ele><time>2026-04-28T15:39:56.998Z</time></trkpt><trkpt lat="49.14306908284807" lon="2.4603820756080745"><ele>46.5</ele><time>2026-04-28T15:39:57.998Z</time></trkpt><trkpt lat="49.14307516885756" lon="2.4601773666501163"><ele>47.25</ele><time>2026-04-28T15:39:58.998Z</time></trkpt><trkpt lat="49.143082955360846" lon="2.4599615425783234"><ele>48.0</ele><time>2026-04-28T15:39:59.998Z</time></trkpt><trkpt lat="49.14308856284038" lon="2.459745163647125"><ele>48.25</ele><time>2026-04-28T15:40:00.998Z</time></trkpt><trkpt lat="49.14309584174885" lon="2.4595312897501356"><ele>48.5</ele><time>2026-04-28T15:40:01.998Z</time></trkpt><trkpt lat="49.14310427103965" lon="2.459306658664212"><ele>48.75</ele><time>2026-04-28T15:40:02.998Z</time></trkpt><trkpt lat="49.143110544042685" lon="2.4590796377435837"><ele>49.0</ele><time>2026-04-28T15:40:03.998Z</time></trkpt><trkpt lat="49.143118198115495" lon="2.4588529100668444"><ele>48.75</ele><time>2026-04-28T15:40:04.998Z</time></trkpt><trkpt lat="49.14312598812762" lon="2.458628525109643"><ele>48.5</ele><time>2026-04-28T15:40:05.998Z</time></trkpt><trkpt lat="49.14313700597317" lon="2.4584057258255347"><ele>48.25</ele><time>2026-04-28T15:40:06.998Z</time></trkpt><trkpt lat="49.14314451976281" lon="2.4581873995706682"><ele>48.0</ele><time>2026-04-28T15:40:07.998Z</time></trkpt><trkpt lat="49.143155654259694" lon="2.457973062642228"><ele>48.0</ele><time>2026-04-28T15:40:08.998Z</time></trkpt><trkpt lat="49.143163179061176" lon="2.457758835396426"><ele>48.0</ele><time>2026-04-28T15:40:09.998Z</time></trkpt><trkpt lat="49.14316939351854" lon="2.457540779938237"><ele>48.0</ele><time>2026-04-28T15:40:10.997Z</time></trkpt><trkpt lat="49.1431744883877" lon="2.4573205260276354"><ele>48.0</ele><time>2026-04-28T15:40:11.997Z</time></trkpt><trkpt lat="49.14318149284743" lon="2.4570978898939404"><ele>48.33333333333333</ele><time>2026-04-28T15:40:12.997Z</time></trkpt><trkpt lat="49.143191701394585" lon="2.45687113667366"><ele>48.666666666666664</ele><time>2026-04-28T15:40:13.997Z</time></trkpt><trkpt lat="49.143199819120646" lon="2.456641736531557"><ele>49.0</ele><time>2026-04-28T15:40:14.997Z</time></trkpt><trkpt lat="49.14320896941866" lon="2.456411359723935"><ele>48.0</ele><time>2026-04-28T15:40:15.997Z</time></trkpt><trkpt lat="49.14321814807023" lon="2.456178086882504"><ele>47.0</ele><time>2026-04-28T15:40:16.997Z</time></trkpt><trkpt lat="49.14322712465049" lon="2.4559418114996245"><ele>46.0</ele><time>2026-04-28T15:40:17.997Z</time></trkpt><trkpt lat="49.14323532088041" lon="2.4557053179808856"><ele>46.0</ele><time>2026-04-28T15:40:18.997Z</time></trkpt><trkpt lat="49.143243560825915" lon="2.4554643726778926"><ele>46.0</ele><time>2026-04-28T15:40:19.997Z</time></trkpt><trkpt lat="49.14325230690003" lon="2.455225713540545"><ele>46.0</ele><time>2026-04-28T15:40:20.997Z</time></trkpt><trkpt lat="49.143261912122476" lon="2.454982158547956"><ele>46.333333333333336</ele><time>2026-04-28T15:40:21.997Z</time></trkpt><trkpt lat="49.14327194426247" lon="2.454739385511833"><ele>46.666666666666664</ele><time>2026-04-28T15:40:22.997Z</time></trkpt><trkpt lat="49.14327987635829" lon="2.454496110600318"><ele>47.0</ele><time>2026-04-28T15:40:23.997Z</time></trkpt><trkpt lat="49.143287597443894" lon="2.454250610152506"><ele>47.0</ele><time>2026-04-28T15:40:24.997Z</time></trkpt><trkpt lat="49.143294861596786" lon="2.454003635857895"><ele>47.0</ele><time>2026-04-28T15:40:25.997Z</time></trkpt><trkpt lat="49.14330588727286" lon="2.4537576453501155"><ele>47.0</ele><time>2026-04-28T15:40:26.997Z</time></trkpt><trkpt lat="49.14331648235292" lon="2.453511282436053"><ele>46.0</ele><time>2026-04-28T15:40:27.997Z</time></trkpt><trkpt lat="49.14332522275101" lon="2.453262830902372"><ele>45.0</ele><time>2026-04-28T15:40:28.997Z</time></trkpt><trkpt lat="49.14333450995909" lon="2.453016145835371"><ele>44.0</ele><time>2026-04-28T15:40:29.997Z</time></trkpt><trkpt lat="49.14334480889539" lon="2.4527677407228166"><ele>44.0</ele><time>2026-04-28T15:40:30.997Z</time></trkpt><trkpt lat="49.143352177058446" lon="2.452519822999098"><ele>44.0</ele><time>2026-04-28T15:40:31.997Z</time></trkpt><trkpt lat="49.14336237228145" lon="2.452271831407659"><ele>44.0</ele><time>2026-04-28T15:40:32.997Z</time></trkpt><trkpt lat="49.143371859983354" lon="2.452021589590648"><ele>43.666666666666664</ele><time>2026-04-28T15:40:34Z</time></trkpt><trkpt lat="49.14338155383477" lon="2.4517718078799517"><ele>43.333333333333336</ele><time>2026-04-28T15:40:35Z</time></trkpt><trkpt lat="49.14339069994278" lon="2.4515251765972375"><ele>43.0</ele><time>2026-04-28T15:40:36Z</time></trkpt><trkpt lat="49.143400767741305" lon="2.4512813628187993"><ele>43.0</ele><time>2026-04-28T15:40:37Z</time></trkpt><trkpt lat="49.14341211421317" lon="2.4510408093085556"><ele>43.0</ele><time>2026-04-28T15:40:38Z</time></trkpt><trkpt lat="49.14342435018474" lon="2.450801617285185"><ele>43.0</ele><time>2026-04-28T15:40:39Z</time></trkpt><trkpt lat="49.14344339155524" lon="2.450562623756054"><ele>42.66666666666667</ele><time>2026-04-28T15:40:40Z</time></trkpt><trkpt lat="49.14347507209919" lon="2.4503288103400402"><ele>42.333333333333336</ele><time>2026-04-28T15:40:41Z</time></trkpt><trkpt lat="49.14351968529941" lon="2.450098342862404"><ele>42.0</ele><time>2026-04-28T15:40:42Z</time></trkpt><trkpt lat="49.14357015099565" lon="2.4498738025380344"><ele>42.0</ele><time>2026-04-28T15:40:43Z</time></trkpt><trkpt lat="49.14361879624057" lon="2.4496492280657174"><ele>42.0</ele><time>2026-04-28T15:40:44Z</time></trkpt><trkpt lat="49.143666195491946" lon="2.4494273506560065"><ele>42.0</ele><time>2026-04-28T15:40:45Z</time></trkpt><trkpt lat="49.143715557590134" lon="2.449210240576073"><ele>43.0</ele><time>2026-04-28T15:40:46Z</time></trkpt><trkpt lat="49.14376517599852" lon="2.4489953292339743"><ele>44.0</ele><time>2026-04-28T15:40:47Z</time></trkpt><trkpt lat="49.14381183102401" lon="2.448777574509054"><ele>45.0</ele><time>2026-04-28T15:40:48Z</time></trkpt><trkpt lat="49.14385981996826" lon="2.448562879835594"><ele>46.0</ele><time>2026-04-28T15:40:49Z</time></trkpt><trkpt lat="49.14390773576909" lon="2.448351042006404"><ele>46.5</ele><time>2026-04-28T15:40:50Z</time></trkpt><trkpt lat="49.143954275471465" lon="2.4481399820127243"><ele>47.0</ele><time>2026-04-28T15:40:51Z</time></trkpt><trkpt lat="49.14400039007168" lon="2.4479268084032855"><ele>47.5</ele><time>2026-04-28T15:40:52Z</time></trkpt><trkpt lat="49.14404580479041" lon="2.4477053238842585"><ele>48.0</ele><time>2026-04-28T15:40:53Z</time></trkpt><trkpt lat="49.144093665378605" lon="2.447490006799361"><ele>47.0</ele><time>2026-04-28T15:40:54Z</time></trkpt><trkpt lat="49.14414260060786" lon="2.4472715050444926"><ele>46.0</ele><time>2026-04-28T15:40:55Z</time></trkpt><trkpt lat="49.1441913699799" lon="2.4470503210031636"><ele>45.0</ele><time>2026-04-28T15:40:56Z</time></trkpt><trkpt lat="49.144240914824344" lon="2.4468286999137687"><ele>45.0</ele><time>2026-04-28T15:40:57Z</time></trkpt><trkpt lat="49.144291506962844" lon="2.446605506293171"><ele>45.0</ele><time>2026-04-28T15:40:58Z</time></trkpt><trkpt lat="49.14434131621678" lon="2.4463800216169864"><ele>45.0</ele><time>2026-04-28T15:40:59Z</time></trkpt><trkpt lat="49.14439313502395" lon="2.446153425516902"><ele>45.0</ele><time>2026-04-28T15:41:00Z</time></trkpt><trkpt lat="49.14444498546676" lon="2.445927233132522"><ele>45.0</ele><time>2026-04-28T15:41:01Z</time></trkpt><trkpt lat="49.144497033263974" lon="2.445699610918734"><ele>45.0</ele><time>2026-04-28T15:41:02Z</time></trkpt><trkpt lat="49.14454884811299" lon="2.4454707504988837"><ele>45.333333333333336</ele><time>2026-04-28T15:41:03Z</time></trkpt><trkpt lat="49.144599818600014" lon="2.445241934462782"><ele>45.66666666666667</ele><time>2026-04-28T15:41:03.999Z</time></trkpt><trkpt lat="49.14465130992945" lon="2.445012351930353"><ele>46.0</ele><time>2026-04-28T15:41:04.999Z</time></trkpt><trkpt lat="49.14470251473814" lon="2.444780980161535"><ele>46.66666666666667</ele><time>2026-04-28T15:41:05.999Z</time></trkpt><trkpt lat="49.1447540440313" lon="2.444550964055499"><ele>47.333333333333336</ele><time>2026-04-28T15:41:06.999Z</time></trkpt><trkpt lat="49.144807975281616" lon="2.4443227015353055"><ele>48.0</ele><time>2026-04-28T15:41:07.999Z</time></trkpt><trkpt lat="49.14485880171709" lon="2.4440964277361577"><ele>46.75</ele><time>2026-04-28T15:41:08.999Z</time></trkpt><trkpt lat="49.14490588501904" lon="2.4438815336631508"><ele>45.5</ele><time>2026-04-28T15:41:09.999Z</time></trkpt><trkpt lat="49.14494865950296" lon="2.4436869628944504"><ele>44.25</ele><time>2026-04-28T15:41:10.999Z</time></trkpt><trkpt lat="49.14498521287681" lon="2.443520242915072"><ele>43.0</ele><time>2026-04-28T15:41:11.999Z</time></trkpt><trkpt lat="49.14501481278564" lon="2.443382516711222"><ele>43.0</ele><time>2026-04-28T15:41:12.999Z</time></trkpt><trkpt lat="49.145038294861784" lon="2.443274876799104"><ele>43.0</ele><time>2026-04-28T15:41:13.999Z</time></trkpt><trkpt lat="49.14506981130129" lon="2.4431324975592537"><ele>43.0</ele><time>2026-04-28T15:41:15.999Z</time></trkpt><trkpt lat="49.14508989784727" lon="2.443036684475363"><ele>43.0</ele><time>2026-04-28T15:41:17.999Z</time></trkpt><trkpt lat="49.14511238576995" lon="2.442929294244314"><ele>43.0</ele><time>2026-04-28T15:41:21.999Z</time></trkpt><trkpt lat="49.145137964921695" lon="2.4428074033735454"><ele>43.0</ele><time>2026-04-28T15:41:23.999Z</time></trkpt><trkpt lat="49.145164468899075" lon="2.4426732972742946"><ele>43.0</ele><time>2026-04-28T15:41:25.999Z</time></trkpt><trkpt lat="49.14518381483841" lon="2.4425737655650064"><ele>43.0</ele><time>2026-04-28T15:41:27.999Z</time></trkpt><trkpt lat="49.1452065796655" lon="2.442481025805381"><ele>43.0</ele><time>2026-04-28T15:41:30.999Z</time></trkpt><trkpt lat="49.14522894989391" lon="2.4423743151124664"><ele>43.0</ele><time>2026-04-28T15:41:34.999Z</time></trkpt><trkpt lat="49.14525129937097" lon="2.442259628401113"><ele>43.0</ele><time>2026-04-28T15:41:37.999Z</time></trkpt><trkpt lat="49.1452781740517" lon="2.4421369015048326"><ele>43.0</ele><time>2026-04-28T15:41:39.999Z</time></trkpt><trkpt lat="49.14531082557225" lon="2.4419898339596013"><ele>42.833333333333336</ele><time>2026-04-28T15:41:41.998Z</time></trkpt><trkpt lat="49.14534015685258" lon="2.4418630913924817"><ele>42.66666666666667</ele><time>2026-04-28T15:41:43.998Z</time></trkpt><trkpt lat="49.145362673627794" lon="2.4417606141290356"><ele>42.5</ele><time>2026-04-28T15:41:45.998Z</time></trkpt><trkpt lat="49.14538560088528" lon="2.441660273443548"><ele>42.333333333333336</ele><time>2026-04-28T15:41:48.998Z</time></trkpt><trkpt lat="49.14540984929819" lon="2.4415505383799405"><ele>42.166666666666664</ele><time>2026-04-28T15:41:50.998Z</time></trkpt><trkpt lat="49.145440832902224" lon="2.4414197007481393"><ele>42.0</ele><time>2026-04-28T15:41:52.998Z</time></trkpt><trkpt lat="49.14546499851259" lon="2.4413115046201574"><ele>42.0</ele><time>2026-04-28T15:42:05.998Z</time></trkpt><trkpt lat="49.14549298558923" lon="2.441224752504177"><ele>42.0</ele><time>2026-04-28T15:42:08.998Z</time></trkpt><trkpt lat="49.145523445678684" lon="2.4411391062674053"><ele>42.0</ele><time>2026-04-28T15:42:14.998Z</time></trkpt><trkpt lat="49.14556057434074" lon="2.441057000236847"><ele>42.0</ele><time>2026-04-28T15:42:25.997Z</time></trkpt><trkpt lat="49.145631653902015" lon="2.4409233405263095"><ele>42.0</ele><time>2026-04-28T15:42:33.997Z</time></trkpt><trkpt lat="49.14568805773643" lon="2.4407690293201716"><ele>42.0</ele><time>2026-04-28T15:42:35.997Z</time></trkpt><trkpt lat="49.14569568986836" lon="2.440667998739108"><ele>42.0</ele><time>2026-04-28T15:42:36.997Z</time></trkpt><trkpt lat="49.145691414769715" lon="2.440571724070459"><ele>42.0</ele><time>2026-04-28T15:42:37.997Z</time></trkpt><trkpt lat="49.14570166403021" lon="2.4403934135019787"><ele>42.0</ele><time>2026-04-28T15:42:40Z</time></trkpt><trkpt lat="49.14577600046321" lon="2.440242982119341"><ele>42.0</ele><time>2026-04-28T15:42:42Z</time></trkpt><trkpt lat="49.14588458638223" lon="2.4401475986954333"><ele>42.0</ele><time>2026-04-28T15:42:44Z</time></trkpt><trkpt lat="49.14594851913876" lon="2.440120203322361"><ele>41.333333333333336</ele><time>2026-04-28T15:42:45Z</time></trkpt><trkpt lat="49.14601483863682" lon="2.4401109766007343"><ele>40.666666666666664</ele><time>2026-04-28T15:42:46Z</time></trkpt><trkpt lat="49.14608250000455" lon="2.4401194994054216"><ele>40.0</ele><time>2026-04-28T15:42:47Z</time></trkpt><trkpt lat="49.146148358759504" lon="2.440143541100397"><ele>39.33333333333333</ele><time>2026-04-28T15:42:48Z</time></trkpt><trkpt lat="49.146210783638836" lon="2.440178804161887"><ele>38.666666666666664</ele><time>2026-04-28T15:42:49Z</time></trkpt><trkpt lat="49.14627088133584" lon="2.4402160003197135"><ele>38.0</ele><time>2026-04-28T15:42:50Z</time></trkpt><trkpt lat="49.14638063708407" lon="2.4402814448560686"><ele>38.0</ele><time>2026-04-28T15:42:52Z</time></trkpt><trkpt lat="49.14646810550114" lon="2.440328606179369"><ele>38.0</ele><time>2026-04-28T15:42:54Z</time></trkpt><trkpt lat="49.146538826478896" lon="2.4403367719114244"><ele>38.0</ele><time>2026-04-28T15:42:58Z</time></trkpt><trkpt lat="49.14660789162259" lon="2.4403178696218455"><ele>38.0</ele><time>2026-04-28T15:43:01Z</time></trkpt><trkpt lat="49.14669544317305" lon="2.4402573479850656"><ele>38.0</ele><time>2026-04-28T15:43:03Z</time></trkpt><trkpt lat="49.146712937312635" lon="2.440139931063668"><ele>38.0</ele><time>2026-04-28T15:43:04Z</time></trkpt><trkpt lat="49.146738486694" lon="2.4400425912780084"><ele>37.166666666666664</ele><time>2026-04-28T15:43:05Z</time></trkpt><trkpt lat="49.146763469289866" lon="2.4399375144591553"><ele>36.33333333333333</ele><time>2026-04-28T15:43:06Z</time></trkpt><trkpt lat="49.14679010023353" lon="2.439830685155329"><ele>35.5</ele><time>2026-04-28T15:43:07Z</time></trkpt><trkpt lat="49.14682005988206" lon="2.4397068985346597"><ele>34.666666666666664</ele><time>2026-04-28T15:43:08Z</time></trkpt><trkpt lat="49.14684945289466" lon="2.439578290148321"><ele>33.833333333333336</ele><time>2026-04-28T15:43:09Z</time></trkpt><trkpt lat="49.14687776211671" lon="2.439453817740798"><ele>33.0</ele><time>2026-04-28T15:43:09.999Z</time></trkpt><trkpt lat="49.14690593681133" lon="2.4393289335785875"><ele>33.0</ele><time>2026-04-28T15:43:10.999Z</time></trkpt><trkpt lat="49.14693549339276" lon="2.439198686295665"><ele>33.0</ele><time>2026-04-28T15:43:11.999Z</time></trkpt><trkpt lat="49.14696622732082" lon="2.439065213503673"><ele>33.0</ele><time>2026-04-28T15:43:12.999Z</time></trkpt><trkpt lat="49.14699675131724" lon="2.4389300831714635"><ele>33.0</ele><time>2026-04-28T15:43:13.999Z</time></trkpt><trkpt lat="49.147029693425" lon="2.4387916162956396"><ele>33.0</ele><time>2026-04-28T15:43:14.999Z</time></trkpt><trkpt lat="49.14706240122518" lon="2.4386512722705795"><ele>33.0</ele><time>2026-04-28T15:43:15.999Z</time></trkpt><trkpt lat="49.14709491054208" lon="2.438511250346083"><ele>33.0</ele><time>2026-04-28T15:43:16.999Z</time></trkpt><trkpt lat="49.14712722885537" lon="2.4383717711582826"><ele>33.0</ele><time>2026-04-28T15:43:17.999Z</time></trkpt><trkpt lat="49.14715927453959" lon="2.4382346763238627"><ele>33.0</ele><time>2026-04-28T15:43:18.999Z</time></trkpt><trkpt lat="49.14719099245966" lon="2.438098192424067"><ele>33.0</ele><time>2026-04-28T15:43:19.999Z</time></trkpt><trkpt lat="49.14722143160157" lon="2.4379649740915736"><ele>32.833333333333336</ele><time>2026-04-28T15:43:20.999Z</time></trkpt><trkpt lat="49.147248295885795" lon="2.4378454707631287"><ele>32.666666666666664</ele><time>2026-04-28T15:43:21.999Z</time></trkpt><trkpt lat="49.147271369698814" lon="2.437743958093943"><ele>32.5</ele><time>2026-04-28T15:43:22.999Z</time></trkpt><trkpt lat="49.14730335982242" lon="2.4375987775243035"><ele>32.33333333333333</ele><time>2026-04-28T15:43:24.999Z</time></trkpt><trkpt lat="49.147331193813905" lon="2.437479641612602"><ele>32.166666666666664</ele><time>2026-04-28T15:43:26.999Z</time></trkpt><trkpt lat="49.14736295156644" lon="2.437348874083127"><ele>32.0</ele><time>2026-04-28T15:43:30.999Z</time></trkpt><trkpt lat="49.14739853865888" lon="2.437196756385922"><ele>32.166666666666664</ele><time>2026-04-28T15:43:32.999Z</time></trkpt><trkpt lat="49.14742544662089" lon="2.437095690781153"><ele>32.33333333333333</ele><time>2026-04-28T15:43:33.999Z</time></trkpt><trkpt lat="49.14745518321792" lon="2.4369711368033733"><ele>32.5</ele><time>2026-04-28T15:43:34.999Z</time></trkpt><trkpt lat="49.14748184508024" lon="2.436850476963731"><ele>32.666666666666664</ele><time>2026-04-28T15:43:35.999Z</time></trkpt><trkpt lat="49.14750893303479" lon="2.4367273817777644"><ele>32.833333333333336</ele><time>2026-04-28T15:43:36.999Z</time></trkpt><trkpt lat="49.14754081675585" lon="2.4365948303621425"><ele>33.0</ele><time>2026-04-28T15:43:37.999Z</time></trkpt><trkpt lat="49.147574221771336" lon="2.4364547562994843"><ele>33.0</ele><time>2026-04-28T15:43:38.999Z</time></trkpt><trkpt lat="49.147609034176504" lon="2.4363086479093345"><ele>33.0</ele><time>2026-04-28T15:43:39.999Z</time></trkpt><trkpt lat="49.147645260131746" lon="2.4361605505095802"><ele>33.0</ele><time>2026-04-28T15:43:40.999Z</time></trkpt><trkpt lat="49.147681021088744" lon="2.436015347863776"><ele>33.0</ele><time>2026-04-28T15:43:41.999Z</time></trkpt><trkpt lat="49.14771462748102" lon="2.4358696059448914"><ele>33.0</ele><time>2026-04-28T15:43:42.999Z</time></trkpt><trkpt lat="49.14774735235756" lon="2.435726275770823"><ele>33.199999999999996</ele><time>2026-04-28T15:43:43.999Z</time></trkpt><trkpt lat="49.14778088668209" lon="2.4355812480889805"><ele>33.4</ele><time>2026-04-28T15:43:44.999Z</time></trkpt><trkpt lat="49.14781622706534" lon="2.435433549599069"><ele>33.599999999999994</ele><time>2026-04-28T15:43:45.999Z</time></trkpt><trkpt lat="49.1478494897678" lon="2.435287395709837"><ele>33.8</ele><time>2026-04-28T15:43:46.998Z</time></trkpt><trkpt lat="49.14788451770201" lon="2.4351402205085426"><ele>34.0</ele><time>2026-04-28T15:43:47.998Z</time></trkpt><trkpt lat="49.1479192945922" lon="2.434991350283577"><ele>35.25</ele><time>2026-04-28T15:43:48.998Z</time></trkpt><trkpt lat="49.147957292016095" lon="2.434837539941122"><ele>36.5</ele><time>2026-04-28T15:43:49.998Z</time></trkpt><trkpt lat="49.14799587969932" lon="2.434677060428237"><ele>37.75</ele><time>2026-04-28T15:43:50.998Z</time></trkpt><trkpt lat="49.148037282884836" lon="2.434505332392324"><ele>39.0</ele><time>2026-04-28T15:43:51.998Z</time></trkpt><trkpt lat="49.14808065832751" lon="2.4343189359893525"><ele>40.25</ele><time>2026-04-28T15:43:52.998Z</time></trkpt><trkpt lat="49.1481240485901" lon="2.434131694935313"><ele>41.5</ele><time>2026-04-28T15:43:53.998Z</time></trkpt><trkpt lat="49.14816689868956" lon="2.4339501444359195"><ele>42.75</ele><time>2026-04-28T15:43:54.998Z</time></trkpt><trkpt lat="49.14820989331331" lon="2.4337679559823653"><ele>44.0</ele><time>2026-04-28T15:43:55.998Z</time></trkpt><trkpt lat="49.148251365158735" lon="2.433586161089317"><ele>42.0</ele><time>2026-04-28T15:43:56.998Z</time></trkpt><trkpt lat="49.14829199978946" lon="2.4334096972536448"><ele>40.0</ele><time>2026-04-28T15:43:57.998Z</time></trkpt><trkpt lat="49.14832967459961" lon="2.433244943106352"><ele>38.0</ele><time>2026-04-28T15:43:58.998Z</time></trkpt><trkpt lat="49.1483601579238" lon="2.433100142452844"><ele>36.0</ele><time>2026-04-28T15:43:59.998Z</time></trkpt><trkpt lat="49.1483860644837" lon="2.4329781668430264"><ele>34.0</ele><time>2026-04-28T15:44:00.998Z</time></trkpt><trkpt lat="49.1484049074726" lon="2.432884822497845"><ele>33.8</ele><time>2026-04-28T15:44:01.998Z</time></trkpt><trkpt lat="49.14843420294347" lon="2.432742941812544"><ele>33.599999999999994</ele><time>2026-04-28T15:44:03.998Z</time></trkpt><trkpt lat="49.148473823128164" lon="2.4325566918675396"><ele>33.4</ele><time>2026-04-28T15:44:05.998Z</time></trkpt><trkpt lat="49.14849974468387" lon="2.4324331205803635"><ele>33.199999999999996</ele><time>2026-04-28T15:44:06.998Z</time></trkpt><trkpt lat="49.14852474458404" lon="2.43231261631454"><ele>33.0</ele><time>2026-04-28T15:44:07.998Z</time></trkpt><trkpt lat="49.14855454709614" lon="2.43218108503336"><ele>33.6</ele><time>2026-04-28T15:44:08.998Z</time></trkpt><trkpt lat="49.14858846529257" lon="2.4320392419745387"><ele>34.199999999999996</ele><time>2026-04-28T15:44:09.998Z</time></trkpt><trkpt lat="49.14862339312591" lon="2.431891960457207"><ele>34.8</ele><time>2026-04-28T15:44:10.998Z</time></trkpt><trkpt lat="49.1486593629564" lon="2.4317411405274196"><ele>35.4</ele><time>2026-04-28T15:44:11.998Z</time></trkpt><trkpt lat="49.14869453317239" lon="2.431586632671409"><ele>36.0</ele><time>2026-04-28T15:44:12.998Z</time></trkpt><trkpt lat="49.14872955072545" lon="2.431431345613295"><ele>36.6</ele><time>2026-04-28T15:44:13.998Z</time></trkpt><trkpt lat="49.14876343011906" lon="2.4312760633116253"><ele>37.2</ele><time>2026-04-28T15:44:14.998Z</time></trkpt><trkpt lat="49.14879672288426" lon="2.4311204530419492"><ele>37.8</ele><time>2026-04-28T15:44:15.998Z</time></trkpt><trkpt lat="49.14882961367306" lon="2.4309672042508566"><ele>38.4</ele><time>2026-04-28T15:44:16.998Z</time></trkpt><trkpt lat="49.14886237666925" lon="2.4308188795583496"><ele>39.0</ele><time>2026-04-28T15:44:17.998Z</time></trkpt><trkpt lat="49.148894714714906" lon="2.4306751332609706"><ele>39.0</ele><time>2026-04-28T15:44:18.998Z</time></trkpt><trkpt lat="49.14892541352432" lon="2.4305355004799667"><ele>39.0</ele><time>2026-04-28T15:44:19.998Z</time></trkpt><trkpt lat="49.148955317662775" lon="2.430398805437102"><ele>39.0</ele><time>2026-04-28T15:44:20.998Z</time></trkpt><trkpt lat="49.14898267250543" lon="2.4302666430384883"><ele>39.0</ele><time>2026-04-28T15:44:21.998Z</time></trkpt><trkpt lat="49.14900942223977" lon="2.430136050862975"><ele>39.0</ele><time>2026-04-28T15:44:22.998Z</time></trkpt><trkpt lat="49.14903646363743" lon="2.4300051474378015"><ele>37.666666666666664</ele><time>2026-04-28T15:44:23.998Z</time></trkpt><trkpt lat="49.149065012686364" lon="2.429876834966943"><ele>36.333333333333336</ele><time>2026-04-28T15:44:24.998Z</time></trkpt><trkpt lat="49.149094922849656" lon="2.429748142943037"><ele>35.0</ele><time>2026-04-28T15:44:25.997Z</time></trkpt><trkpt lat="49.14912479642744" lon="2.429620030279987"><ele>33.66666666666667</ele><time>2026-04-28T15:44:26.997Z</time></trkpt><trkpt lat="49.14915229053539" lon="2.4294955279726143"><ele>32.333333333333336</ele><time>2026-04-28T15:44:27.997Z</time></trkpt><trkpt lat="49.14917701323812" lon="2.4293754180446956"><ele>31.0</ele><time>2026-04-28T15:44:28.997Z</time></trkpt><trkpt lat="49.149201057452814" lon="2.4292659118814846"><ele>30.833333333333336</ele><time>2026-04-28T15:44:29.997Z</time></trkpt><trkpt lat="49.1492269358483" lon="2.4291614107423114"><ele>30.666666666666668</ele><time>2026-04-28T15:44:30.997Z</time></trkpt><trkpt lat="49.14926213056919" lon="2.4290778873111414"><ele>30.5</ele><time>2026-04-28T15:44:31.997Z</time></trkpt><trkpt lat="49.14930725728137" lon="2.4290071785320175"><ele>30.333333333333336</ele><time>2026-04-28T15:44:33.997Z</time></trkpt><trkpt lat="49.14938725291185" lon="2.4289575318248104"><ele>30.166666666666668</ele><time>2026-04-28T15:44:36.997Z</time></trkpt><trkpt lat="49.149468470788484" lon="2.428851561598126"><ele>30.0</ele><time>2026-04-28T15:44:38.997Z</time></trkpt><trkpt lat="49.14951272746993" lon="2.4286909143866886"><ele>30.6</ele><time>2026-04-28T15:44:40.997Z</time></trkpt><trkpt lat="49.1495152287307" lon="2.4285184633900485"><ele>31.2</ele><time>2026-04-28T15:44:42.997Z</time></trkpt><trkpt lat="49.14954447521798" lon="2.428346991132631"><ele>31.799999999999997</ele><time>2026-04-28T15:44:45Z</time></trkpt><trkpt lat="49.14960114954324" lon="2.4281998689148576"><ele>32.4</ele><time>2026-04-28T15:44:47Z</time></trkpt><trkpt lat="49.14965693951166" lon="2.4280684756558992"><ele>33.0</ele><time>2026-04-28T15:44:49Z</time></trkpt><trkpt lat="49.14969491300954" lon="2.4279859533622647"><ele>33.333333333333336</ele><time>2026-04-28T15:44:55Z</time></trkpt><trkpt lat="49.14975207343976" lon="2.4278488492697368"><ele>33.666666666666664</ele><time>2026-04-28T15:44:59Z</time></trkpt><trkpt lat="49.14979772065986" lon="2.427728833897279"><ele>34.0</ele><time>2026-04-28T15:45:01Z</time></trkpt><trkpt lat="49.149847003052514" lon="2.4276243451492747"><ele>34.33333333333333</ele><time>2026-04-28T15:45:03Z</time></trkpt><trkpt lat="49.14981346201796" lon="2.427506137995157"><ele>34.666666666666664</ele><time>2026-04-28T15:45:05Z</time></trkpt><trkpt lat="49.14977150874011" lon="2.4274223691127443"><ele>35.0</ele><time>2026-04-28T15:45:07Z</time></trkpt><trkpt lat="49.14991667958764" lon="2.427467382964542"><ele>34.166666666666664</ele><time>2026-04-28T15:45:09Z</time></trkpt><trkpt lat="49.14996003297876" lon="2.427370448190063"><ele>33.33333333333333</ele><time>2026-04-28T15:45:11Z</time></trkpt><trkpt lat="49.150003427149386" lon="2.427270319299472"><ele>32.5</ele><time>2026-04-28T15:45:13Z</time></trkpt><trkpt lat="49.150051225805875" lon="2.427143334712171"><ele>31.666666666666664</ele><time>2026-04-28T15:45:15Z</time></trkpt><trkpt lat="49.150082054455694" lon="2.426985649420983"><ele>30.833333333333332</ele><time>2026-04-28T15:45:16.999Z</time></trkpt><trkpt lat="49.15009614670053" lon="2.426860759042727"><ele>30.0</ele><time>2026-04-28T15:45:18.999Z</time></trkpt><trkpt lat="49.1501076591665" lon="2.426729904519095"><ele>30.0</ele><time>2026-04-28T15:45:20.999Z</time></trkpt><trkpt lat="49.150106505286324" lon="2.426591561673065"><ele>30.0</ele><time>2026-04-28T15:45:22.999Z</time></trkpt><trkpt lat="49.1498592791978" lon="2.4264928119970746"><ele>30.0</ele><time>2026-04-28T15:45:24.999Z</time></trkpt><trkpt lat="49.149796261322976" lon="2.426493056050136"><ele>30.0</ele><time>2026-04-28T15:45:27.999Z</time></trkpt><trkpt lat="49.14977285327428" lon="2.4266272519144816"><ele>30.857142857142858</ele><time>2026-04-28T15:45:28.999Z</time></trkpt><trkpt lat="49.149748652506744" lon="2.426740153641383"><ele>31.714285714285715</ele><time>2026-04-28T15:45:30.999Z</time></trkpt><trkpt lat="49.14977098853607" lon="2.4268409827569295"><ele>32.57142857142857</ele><time>2026-04-28T15:45:33.999Z</time></trkpt><trkpt lat="49.14976863380204" lon="2.4269594332640123"><ele>33.42857142857143</ele><time>2026-04-28T15:46:23.998Z</time></trkpt><trkpt lat="49.14971933957389" lon="2.427032825876876"><ele>34.285714285714285</ele><time>2026-04-28T15:48:02.998Z</time></trkpt><trkpt lat="49.14977846189656" lon="2.4270767814632515"><ele>35.142857142857146</ele><time>2026-04-28T15:50:14.998Z</time></trkpt><trkpt lat="49.149723780404194" lon="2.4270103158614815"><ele>36.0</ele><time>2026-04-28T15:50:22.998Z</time></trkpt><trkpt lat="49.149750656954794" lon="2.4271103948787496"><ele>36.0</ele><time>2026-04-28T15:50:49.997Z</time></trkpt><trkpt lat="49.14974652175158" lon="2.4269854337478916"><ele>36.0</ele><time>2026-04-28T15:50:53.997Z</time></trkpt><trkpt lat="49.149749121040394" lon="2.4268138280591947"><ele>36.0</ele><time>2026-04-28T15:51:15.999Z</time></trkpt><trkpt lat="49.1496791509942" lon="2.426771631524324"><ele>36.0</ele><time>2026-04-28T15:51:26.999Z</time></trkpt><trkpt lat="49.149596924276025" lon="2.4267109923124397"><ele>36.0</ele><time>2026-04-28T15:51:30.999Z</time></trkpt><trkpt lat="49.1495377633612" lon="2.4266774449939676"><ele>36.0</ele><time>2026-04-28T15:51:50.999Z</time></trkpt><trkpt lat="49.14952754098201" lon="2.4265810029067225"><ele>36.0</ele><time>2026-04-28T15:52:02.998Z</time></trkpt><trkpt lat="49.14958527021802" lon="2.426639499603595"><ele>36.0</ele><time>2026-04-28T15:53:08.999Z</time></trkpt><trkpt lat="49.14961305770627" lon="2.4267486388444426"><ele>36.0</ele><time>2026-04-28T15:53:29.999Z</time></trkpt><trkpt lat="49.149603236109925" lon="2.42688598453209"><ele>36.0</ele><time>2026-04-28T15:53:33.999Z</time></trkpt><trkpt lat="49.149624052753424" lon="2.4269880713609866"><ele>36.0</ele><time>2026-04-28T15:53:41.999Z</time></trkpt><trkpt lat="49.14969849400642" lon="2.427029740970076"><ele>36.0</ele><time>2026-04-28T15:53:44.999Z</time></trkpt><trkpt lat="49.14991781858852" lon="2.4270095349630014"><ele>36.0</ele><time>2026-04-28T15:53:55.999Z</time></trkpt><trkpt lat="49.149851548570346" lon="2.427059210880308"><ele>36.0</ele><time>2026-04-28T15:54:02.057Z</time></trkpt><trkpt lat="49.14987881050313" lon="2.4271917230966"><ele>36.0</ele><time>2026-04-28T15:54:06.998Z</time></trkpt><trkpt lat="49.14980519127573" lon="2.4270949295407456"><ele>36.0</ele><time>2026-04-28T15:54:17.06Z</time></trkpt><trkpt lat="49.149712477710025" lon="2.4270720464001703"><ele>36.0</ele><time>2026-04-28T15:54:39.032Z</time></trkpt><trkpt lat="49.14962998997371" lon="2.426994092845811"><ele>36.0</ele><time>2026-04-28T15:54:52.936Z</time></trkpt><trkpt lat="49.149651174145426" lon="2.426835838341559"><ele>36.0</ele><time>2026-04-28T15:55:08.014Z</time></trkpt><trkpt lat="49.149582843075684" lon="2.426804633213858"><ele>36.0</ele><time>2026-04-28T15:55:11.019Z</time></trkpt><trkpt lat="49.149473450385734" lon="2.426754965192396"><ele>36.0</ele><time>2026-04-28T15:55:12.016Z</time></trkpt><trkpt lat="49.14933550050893" lon="2.426622220970842"><ele>36.0</ele><time>2026-04-28T15:55:13.014Z</time></trkpt><trkpt lat="49.14919731387194" lon="2.426425293435492"><ele>36.0</ele><time>2026-04-28T15:55:14.018Z</time></trkpt><trkpt lat="49.14955206537357" lon="2.4267751021930075"><ele>36.00000000000001</ele><time>2026-04-28T15:55:16.018Z</time></trkpt><trkpt lat="49.14961916225377" lon="2.4267654246776864"><ele>36.0</ele><time>2026-04-28T15:55:22.997Z</time></trkpt><trkpt lat="49.149573709346576" lon="2.4266652696465467"><ele>36.0</ele><time>2026-04-28T15:55:25.997Z</time></trkpt><trkpt lat="49.14953456084958" lon="2.4265712820708902"><ele>36.0</ele><time>2026-04-28T15:55:31.999Z</time></trkpt><trkpt lat="49.14954768157699" lon="2.426665795129495"><ele>36.0</ele><time>2026-04-28T15:56:07.999Z</time></trkpt><trkpt lat="49.14957875120348" lon="2.426770065523624"><ele>36.00000000000001</ele><time>2026-04-28T15:56:09.999Z</time></trkpt><trkpt lat="49.149642599374886" lon="2.426788169084514"><ele>36.0</ele><time>2026-04-28T15:56:14.999Z</time></trkpt><trkpt lat="49.14963989764666" lon="2.427009145527944"><ele>36.0</ele><time>2026-04-28T15:56:23.047Z</time></trkpt><trkpt lat="49.14966717364995" lon="2.427171808808705"><ele>36.0</ele><time>2026-04-28T15:57:52.018Z</time></trkpt><trkpt lat="49.14976916263271" lon="2.427196368032025"><ele>36.0</ele><time>2026-04-28T15:58:20.999Z</time></trkpt><trkpt lat="49.14978151602392" lon="2.427085252526686"><ele>36.0</ele><time>2026-04-28T15:58:26.999Z</time></trkpt><trkpt lat="49.14981866459123" lon="2.4269848074145672"><ele>36.0</ele><time>2026-04-28T15:58:38.999Z</time></trkpt><trkpt lat="49.14979934893138" lon="2.426889839826926"><ele>36.0</ele><time>2026-04-28T15:58:42.999Z</time></trkpt><trkpt lat="49.149758585694435" lon="2.426977958718806"><ele>36.0</ele><time>2026-04-28T15:59:35.998Z</time></trkpt><trkpt lat="49.149763075773166" lon="2.4268691282733337"><ele>36.0</ele><time>2026-04-28T15:59:59.997Z</time></trkpt><trkpt lat="49.14978096534863" lon="2.426769063436228"><ele>36.0</ele><time>2026-04-28T16:00:36.999Z</time></trkpt><trkpt lat="49.14984227057945" lon="2.426862187555765"><ele>36.0</ele><time>2026-04-28T16:00:40.999Z</time></trkpt><trkpt lat="49.14987049801633" lon="2.4269629283854255"><ele>36.0</ele><time>2026-04-28T16:00:43.999Z</time></trkpt><trkpt lat="49.14986937909323" lon="2.4270902001850647"><ele>36.0</ele><time>2026-04-28T16:00:47.999Z</time></trkpt><trkpt lat="49.14982092205449" lon="2.427184369527401"><ele>35.833333333333336</ele><time>2026-04-28T16:00:50.999Z</time></trkpt><trkpt lat="49.14976286436893" lon="2.427292550109636"><ele>35.666666666666664</ele><time>2026-04-28T16:00:53.999Z</time></trkpt><trkpt lat="49.14973369339904" lon="2.427422722481252"><ele>35.5</ele><time>2026-04-28T16:00:56.999Z</time></trkpt><trkpt lat="49.149770682724366" lon="2.4275338002955067"><ele>35.33333333333333</ele><time>2026-04-28T16:00:59.999Z</time></trkpt><trkpt lat="49.14981418426131" lon="2.4276196063217537"><ele>35.166666666666664</ele><time>2026-04-28T16:01:04.999Z</time></trkpt><trkpt lat="49.14978588333762" lon="2.427722844766609"><ele>35.0</ele><time>2026-04-28T16:01:06.999Z</time></trkpt><trkpt lat="49.149729297873954" lon="2.427836273528766"><ele>35.0</ele><time>2026-04-28T16:01:08.999Z</time></trkpt><trkpt lat="49.14966763080397" lon="2.42796643779433"><ele>35.0</ele><time>2026-04-28T16:01:10.998Z</time></trkpt><trkpt lat="49.14960521682969" lon="2.428105386115353"><ele>35.0</ele><time>2026-04-28T16:01:12.998Z</time></trkpt><trkpt lat="49.1495528399292" lon="2.428236696213512"><ele>35.0</ele><time>2026-04-28T16:01:14.998Z</time></trkpt><trkpt lat="49.149493592317285" lon="2.4283664909183194"><ele>35.0</ele><time>2026-04-28T16:01:16.998Z</time></trkpt><trkpt lat="49.149425899352266" lon="2.428474983575246"><ele>34.6</ele><time>2026-04-28T16:01:18.998Z</time></trkpt><trkpt lat="49.14935676299764" lon="2.4284845674950613"><ele>34.2</ele><time>2026-04-28T16:01:19.998Z</time></trkpt><trkpt lat="49.14926737440531" lon="2.428552268942468"><ele>33.8</ele><time>2026-04-28T16:01:21.998Z</time></trkpt><trkpt lat="49.149226219732974" lon="2.4286986108584867"><ele>33.4</ele><time>2026-04-28T16:01:23.998Z</time></trkpt><trkpt lat="49.14924064500418" lon="2.428886129525607"><ele>33.0</ele><time>2026-04-28T16:01:25.998Z</time></trkpt><trkpt lat="49.149238932045144" lon="2.4289874150086024"><ele>32.666666666666664</ele><time>2026-04-28T16:01:26.998Z</time></trkpt><trkpt lat="49.14922543090734" lon="2.4290929890849378"><ele>32.333333333333336</ele><time>2026-04-28T16:01:27.998Z</time></trkpt><trkpt lat="49.14919790984942" lon="2.42920527742715"><ele>32.0</ele><time>2026-04-28T16:01:28.998Z</time></trkpt><trkpt lat="49.14916967293172" lon="2.429327541831619"><ele>31.666666666666668</ele><time>2026-04-28T16:01:29.998Z</time></trkpt><trkpt lat="49.14913933583875" lon="2.4294566153061923"><ele>31.333333333333336</ele><time>2026-04-28T16:01:30.998Z</time></trkpt><trkpt lat="49.149111360585835" lon="2.429579664688774"><ele>31.0</ele><time>2026-04-28T16:01:31.998Z</time></trkpt><trkpt lat="49.14908206219918" lon="2.4297123717556564"><ele>31.0</ele><time>2026-04-28T16:01:32.998Z</time></trkpt><trkpt lat="49.14905092743422" lon="2.429852342800764"><ele>31.0</ele><time>2026-04-28T16:01:33.998Z</time></trkpt><trkpt lat="49.14901907910205" lon="2.4299963245609124"><ele>31.0</ele><time>2026-04-28T16:01:34.998Z</time></trkpt><trkpt lat="49.14898620743318" lon="2.4301407536602198"><ele>31.0</ele><time>2026-04-28T16:01:35.998Z</time></trkpt><trkpt lat="49.148953784593395" lon="2.4302861091274033"><ele>31.0</ele><time>2026-04-28T16:01:36.998Z</time></trkpt><trkpt lat="49.14892064407803" lon="2.430432089875337"><ele>32.6</ele><time>2026-04-28T16:01:37.998Z</time></trkpt><trkpt lat="49.14888836461035" lon="2.4305792441060166"><ele>34.2</ele><time>2026-04-28T16:01:38.998Z</time></trkpt><trkpt lat="49.148856018379206" lon="2.430726747331039"><ele>35.8</ele><time>2026-04-28T16:01:39.998Z</time></trkpt><trkpt lat="49.148823229904814" lon="2.4308741098761124"><ele>37.4</ele><time>2026-04-28T16:01:40.998Z</time></trkpt><trkpt lat="49.14879100901884" lon="2.431019932518633"><ele>39.0</ele><time>2026-04-28T16:01:41.998Z</time></trkpt><trkpt lat="49.148758478088176" lon="2.431164875455781"><ele>38.4</ele><time>2026-04-28T16:01:42.998Z</time></trkpt><trkpt lat="49.14872545236211" lon="2.431310546980815"><ele>37.8</ele><time>2026-04-28T16:01:43.998Z</time></trkpt><trkpt lat="49.1486913075582" lon="2.431457381648593"><ele>37.2</ele><time>2026-04-28T16:01:44.998Z</time></trkpt><trkpt lat="49.14865762527415" lon="2.431607235615784"><ele>36.6</ele><time>2026-04-28T16:01:45.998Z</time></trkpt><trkpt lat="49.148625128672045" lon="2.431755342918412"><ele>36.0</ele><time>2026-04-28T16:01:46.998Z</time></trkpt><trkpt lat="49.148592850278185" lon="2.4319022488174618"><ele>36.0</ele><time>2026-04-28T16:01:47.998Z</time></trkpt><trkpt lat="49.1485678034213" lon="2.432022175656405"><ele>36.0</ele><time>2026-04-28T16:01:48.998Z</time></trkpt><trkpt lat="49.14853461216883" lon="2.4321826780742204"><ele>36.0</ele><time>2026-04-28T16:01:50.998Z</time></trkpt><trkpt lat="49.148514286532865" lon="2.4322754195968646"><ele>36.0</ele><time>2026-04-28T16:01:51.998Z</time></trkpt><trkpt lat="49.14848816385139" lon="2.4323930078505125"><ele>36.0</ele><time>2026-04-28T16:01:52.998Z</time></trkpt><trkpt lat="49.14846263317067" lon="2.432508346689199"><ele>36.0</ele><time>2026-04-28T16:01:53.998Z</time></trkpt><trkpt lat="49.148438068756946" lon="2.4326148576259765"><ele>35.666666666666664</ele><time>2026-04-28T16:01:54.998Z</time></trkpt><trkpt lat="49.14840470746167" lon="2.4327564418931598"><ele>35.333333333333336</ele><time>2026-04-28T16:01:56.998Z</time></trkpt><trkpt lat="49.148375194707306" lon="2.432888855472529"><ele>35.0</ele><time>2026-04-28T16:01:58.997Z</time></trkpt><trkpt lat="49.14835332485384" lon="2.432983209541745"><ele>34.66666666666667</ele><time>2026-04-28T16:01:59.997Z</time></trkpt><trkpt lat="49.14832522944254" lon="2.4331018822440336"><ele>34.333333333333336</ele><time>2026-04-28T16:02:00.997Z</time></trkpt><trkpt lat="49.148298791407676" lon="2.4332285996466294"><ele>34.0</ele><time>2026-04-28T16:02:01.997Z</time></trkpt><trkpt lat="49.148270450777474" lon="2.4333568862599515"><ele>34.0</ele><time>2026-04-28T16:02:02.997Z</time></trkpt><trkpt lat="49.148237692450984" lon="2.4335020688394846"><ele>34.0</ele><time>2026-04-28T16:02:03.997Z</time></trkpt><trkpt lat="49.14820163867568" lon="2.433657200680168"><ele>34.0</ele><time>2026-04-28T16:02:04.997Z</time></trkpt><trkpt lat="49.148163066161175" lon="2.433816746391576"><ele>34.0</ele><time>2026-04-28T16:02:05.997Z</time></trkpt><trkpt lat="49.14812287843747" lon="2.433982371384"><ele>34.0</ele><time>2026-04-28T16:02:06.997Z</time></trkpt><trkpt lat="49.1480826462874" lon="2.434149507178159"><ele>35.25</ele><time>2026-04-28T16:02:07.997Z</time></trkpt><trkpt lat="49.14804298344188" lon="2.4343162513731564"><ele>36.5</ele><time>2026-04-28T16:02:08.997Z</time></trkpt><trkpt lat="49.14800455701545" lon="2.4344847648184826"><ele>37.75</ele><time>2026-04-28T16:02:09.997Z</time></trkpt><trkpt lat="49.14796577739095" lon="2.4346513624984656"><ele>39.0</ele><time>2026-04-28T16:02:10.997Z</time></trkpt><trkpt lat="49.14792854327975" lon="2.4348182108655596"><ele>39.0</ele><time>2026-04-28T16:02:11.997Z</time></trkpt><trkpt lat="49.14789161006478" lon="2.4349818222650184"><ele>39.0</ele><time>2026-04-28T16:02:12.997Z</time></trkpt><trkpt lat="49.14785478029497" lon="2.4351412475003817"><ele>39.0</ele><time>2026-04-28T16:02:13.997Z</time></trkpt><trkpt lat="49.14781655710751" lon="2.435295399832256"><ele>39.0</ele><time>2026-04-28T16:02:14.999Z</time></trkpt><trkpt lat="49.14777957192382" lon="2.435444974326914"><ele>39.0</ele><time>2026-04-28T16:02:15.999Z</time></trkpt><trkpt lat="49.147744091357055" lon="2.4355945029342423"><ele>38.0</ele><time>2026-04-28T16:02:16.999Z</time></trkpt><trkpt lat="49.147709225280714" lon="2.4357427736721866"><ele>37.0</ele><time>2026-04-28T16:02:17.999Z</time></trkpt><trkpt lat="49.147674282547534" lon="2.435889576022695"><ele>36.0</ele><time>2026-04-28T16:02:19Z</time></trkpt><trkpt lat="49.14764052493786" lon="2.436035651583694"><ele>35.0</ele><time>2026-04-28T16:02:19.999Z</time></trkpt><trkpt lat="49.14760854741254" lon="2.4361777433179763"><ele>34.0</ele><time>2026-04-28T16:02:21Z</time></trkpt><trkpt lat="49.147576112990365" lon="2.4363161705294734"><ele>33.833333333333336</ele><time>2026-04-28T16:02:22Z</time></trkpt><trkpt lat="49.14754551539667" lon="2.436450223712453"><ele>33.66666666666667</ele><time>2026-04-28T16:02:23Z</time></trkpt><trkpt lat="49.147516017143175" lon="2.4365789993551386"><ele>33.5</ele><time>2026-04-28T16:02:24Z</time></trkpt><trkpt lat="49.14748736110075" lon="2.436703605818304"><ele>33.333333333333336</ele><time>2026-04-28T16:02:25Z</time></trkpt><trkpt lat="49.14745981258356" lon="2.436822041863368"><ele>33.166666666666664</ele><time>2026-04-28T16:02:26Z</time></trkpt><trkpt lat="49.147434401106246" lon="2.436927966135224"><ele>33.0</ele><time>2026-04-28T16:02:27Z</time></trkpt><trkpt lat="49.14740318413875" lon="2.437068817128668"><ele>32.833333333333336</ele><time>2026-04-28T16:02:29Z</time></trkpt><trkpt lat="49.14737278252047" lon="2.437203863004621"><ele>32.666666666666664</ele><time>2026-04-28T16:02:32Z</time></trkpt><trkpt lat="49.147336703194675" lon="2.43732690015905"><ele>32.5</ele><time>2026-04-28T16:02:33.999Z</time></trkpt><trkpt lat="49.14741839027285" lon="2.437345536835444"><ele>32.33333333333333</ele><time>2026-04-28T16:02:34.999Z</time></trkpt><trkpt lat="49.14748365146499" lon="2.437364299418351"><ele>32.166666666666664</ele><time>2026-04-28T16:02:35.999Z</time></trkpt><trkpt lat="49.147548711067444" lon="2.4373870478878836"><ele>32.0</ele><time>2026-04-28T16:02:36.999Z</time></trkpt><trkpt lat="49.14761780866512" lon="2.437394089277414"><ele>32.0</ele><time>2026-04-28T16:02:37.999Z</time></trkpt><trkpt lat="49.1476909986927" lon="2.43741440223747"><ele>31.999999999999996</ele><time>2026-04-28T16:02:38.999Z</time></trkpt><trkpt lat="49.14776412845579" lon="2.437433572679122"><ele>32.0</ele><time>2026-04-28T16:02:39.999Z</time></trkpt><trkpt lat="49.14783762826318" lon="2.4374575895934214"><ele>32.0</ele><time>2026-04-28T16:02:40.999Z</time></trkpt><trkpt lat="49.14791029881938" lon="2.4374887987714406"><ele>31.999999999999996</ele><time>2026-04-28T16:02:41.999Z</time></trkpt><trkpt lat="49.147978456017185" lon="2.4375286986196776"><ele>32.0</ele><time>2026-04-28T16:02:42.999Z</time></trkpt><trkpt lat="49.14804604440667" lon="2.4375705557488985"><ele>32.0</ele><time>2026-04-28T16:02:43.999Z</time></trkpt><trkpt lat="49.148117178246096" lon="2.437609455514865"><ele>31.999999999999996</ele><time>2026-04-28T16:02:44.999Z</time></trkpt><trkpt lat="49.14818976329028" lon="2.437649417355359"><ele>32.0</ele><time>2026-04-28T16:02:45.999Z</time></trkpt><trkpt lat="49.14827114284559" lon="2.4376911406081825"><ele>32.0</ele><time>2026-04-28T16:02:46.999Z</time></trkpt><trkpt lat="49.14835262703325" lon="2.4377279172388415"><ele>32.0</ele><time>2026-04-28T16:02:47.999Z</time></trkpt><trkpt lat="49.1484347241148" lon="2.4377632803907114"><ele>31.999999999999996</ele><time>2026-04-28T16:02:48.999Z</time></trkpt><trkpt lat="49.148520795516745" lon="2.437800828197178"><ele>32.0</ele><time>2026-04-28T16:02:49.999Z</time></trkpt><trkpt lat="49.148607634640825" lon="2.4378382215458863"><ele>32.166666666666664</ele><time>2026-04-28T16:02:50.999Z</time></trkpt><trkpt lat="49.14869189729076" lon="2.437876288059087"><ele>32.33333333333333</ele><time>2026-04-28T16:02:51.999Z</time></trkpt><trkpt lat="49.148772053318496" lon="2.437914160194785"><ele>32.5</ele><time>2026-04-28T16:02:52.999Z</time></trkpt><trkpt lat="49.1488491016974" lon="2.43795102243114"><ele>32.666666666666664</ele><time>2026-04-28T16:02:53.999Z</time></trkpt><trkpt lat="49.14892188678292" lon="2.4379892542838433"><ele>32.833333333333336</ele><time>2026-04-28T16:02:54.999Z</time></trkpt><trkpt lat="49.14899316693887" lon="2.438022010498842"><ele>33.0</ele><time>2026-04-28T16:02:55.999Z</time></trkpt><trkpt lat="49.14906084893632" lon="2.4380547449194294"><ele>32.57142857142857</ele><time>2026-04-28T16:02:56.999Z</time></trkpt><trkpt lat="49.149125205805554" lon="2.438094270609211"><ele>32.142857142857146</ele><time>2026-04-28T16:02:57.999Z</time></trkpt><trkpt lat="49.14918157654651" lon="2.4381505360381217"><ele>31.714285714285715</ele><time>2026-04-28T16:02:58.999Z</time></trkpt><trkpt lat="49.14922653135063" lon="2.4382217225251566"><ele>31.285714285714285</ele><time>2026-04-28T16:02:59.999Z</time></trkpt><trkpt lat="49.14926081494566" lon="2.438307833823838"><ele>30.857142857142854</ele><time>2026-04-28T16:03:00.999Z</time></trkpt><trkpt lat="49.14928405614976" lon="2.4384096137427775"><ele>30.42857142857143</ele><time>2026-04-28T16:03:01.999Z</time></trkpt><trkpt lat="49.149293567628014" lon="2.438520068179949"><ele>30.0</ele><time>2026-04-28T16:03:02.999Z</time></trkpt><trkpt lat="49.14928415438874" lon="2.4386360480246703"><ele>30.0</ele><time>2026-04-28T16:03:03.999Z</time></trkpt><trkpt lat="49.14927491424522" lon="2.438748085704384"><ele>30.0</ele><time>2026-04-28T16:03:04.999Z</time></trkpt><trkpt lat="49.1492679877248" lon="2.43885455557736"><ele>30.0</ele><time>2026-04-28T16:03:05.999Z</time></trkpt><trkpt lat="49.14926343668852" lon="2.4389554733570336"><ele>30.0</ele><time>2026-04-28T16:03:06.999Z</time></trkpt><trkpt lat="49.149301884630916" lon="2.439089179609035"><ele>30.0</ele><time>2026-04-28T16:03:08.999Z</time></trkpt><trkpt lat="49.149382953098375" lon="2.4391210283811744"><ele>30.0</ele><time>2026-04-28T16:03:10.999Z</time></trkpt><trkpt lat="49.149450922497756" lon="2.4391485268080335"><ele>30.4</ele><time>2026-04-28T16:03:16.999Z</time></trkpt><trkpt lat="49.14953667771331" lon="2.439189247819921"><ele>30.8</ele><time>2026-04-28T16:03:18.999Z</time></trkpt><trkpt lat="49.14963745443475" lon="2.439236256113015"><ele>31.200000000000003</ele><time>2026-04-28T16:03:20.999Z</time></trkpt><trkpt lat="49.14975359616214" lon="2.439293459814987"><ele>31.6</ele><time>2026-04-28T16:03:22.998Z</time></trkpt><trkpt lat="49.14985787748526" lon="2.439344613287169"><ele>32.0</ele><time>2026-04-28T16:03:24.998Z</time></trkpt><trkpt lat="49.149941793665036" lon="2.439408693752765"><ele>32.0</ele><time>2026-04-28T16:03:26.998Z</time></trkpt><trkpt lat="49.1500157542841" lon="2.439456406334843"><ele>31.999999999999996</ele><time>2026-04-28T16:03:28.998Z</time></trkpt><trkpt lat="49.15009245042567" lon="2.4394792404241707"><ele>32.0</ele><time>2026-04-28T16:03:30.998Z</time></trkpt><trkpt lat="49.15016229305842" lon="2.4395137482419673"><ele>32.0</ele><time>2026-04-28T16:03:32.998Z</time></trkpt><trkpt lat="49.15022438867952" lon="2.439542533390005"><ele>31.999999999999996</ele><time>2026-04-28T16:03:34.998Z</time></trkpt><trkpt lat="49.15017075057148" lon="2.4394845377506313"><ele>32.0</ele><time>2026-04-28T16:04:00.998Z</time></trkpt><trkpt lat="49.15009246916884" lon="2.439466547365378"><ele>32.0</ele><time>2026-04-28T16:04:03.998Z</time></trkpt><trkpt lat="49.150023500453486" lon="2.4394368004989317"><ele>32.0</ele><time>2026-04-28T16:04:05.998Z</time></trkpt><trkpt lat="49.14994607750129" lon="2.4393887205223574"><ele>32.0</ele><time>2026-04-28T16:04:07.998Z</time></trkpt><trkpt lat="49.149849695284544" lon="2.439334108160397"><ele>32.0</ele><time>2026-04-28T16:04:09.998Z</time></trkpt><trkpt lat="49.14975643119099" lon="2.439284084645582"><ele>32.0</ele><time>2026-04-28T16:04:11.997Z</time></trkpt><trkpt lat="49.1496578662345" lon="2.4392431377495076"><ele>32.0</ele><time>2026-04-28T16:04:13.997Z</time></trkpt><trkpt lat="49.14955610337094" lon="2.4391988584006694"><ele>32.0</ele><time>2026-04-28T16:04:15.997Z</time></trkpt><trkpt lat="49.14947088676176" lon="2.4391577200249004"><ele>32.0</ele><time>2026-04-28T16:04:17.997Z</time></trkpt><trkpt lat="49.14939325136829" lon="2.439097781466446"><ele>32.0</ele><time>2026-04-28T16:04:19.997Z</time></trkpt><trkpt lat="49.14935182442625" lon="2.4389419581380225"><ele>32.0</ele><time>2026-04-28T16:04:22Z</time></trkpt><trkpt lat="49.149366630200845" lon="2.4387744897473667"><ele>32.0</ele><time>2026-04-28T16:04:24Z</time></trkpt><trkpt lat="49.14938250270285" lon="2.4385984211053273"><ele>31.6</ele><time>2026-04-28T16:04:26Z</time></trkpt><trkpt lat="49.14938591647764" lon="2.4384325034041323"><ele>31.200000000000003</ele><time>2026-04-28T16:04:28Z</time></trkpt><trkpt lat="49.14935343025092" lon="2.438288776059915"><ele>30.8</ele><time>2026-04-28T16:04:30Z</time></trkpt><trkpt lat="49.14927711351426" lon="2.4381869423846476"><ele>30.4</ele><time>2026-04-28T16:04:32Z</time></trkpt><trkpt lat="49.14917374333019" lon="2.4381061575947096"><ele>30.0</ele><time>2026-04-28T16:04:34Z</time></trkpt><trkpt lat="49.14906514617838" lon="2.4380213604617174"><ele>30.75</ele><time>2026-04-28T16:04:36Z</time></trkpt><trkpt lat="49.14894655891131" lon="2.437961534207852"><ele>31.5</ele><time>2026-04-28T16:04:38Z</time></trkpt><trkpt lat="49.14882894876631" lon="2.4379110200100764"><ele>32.25</ele><time>2026-04-28T16:04:40Z</time></trkpt><trkpt lat="49.14871455149305" lon="2.4378579741915516"><ele>33.0</ele><time>2026-04-28T16:04:42Z</time></trkpt><trkpt lat="49.14860142060212" lon="2.4378063641558665"><ele>33.0</ele><time>2026-04-28T16:04:44Z</time></trkpt><trkpt lat="49.14849204366108" lon="2.4377561123401854"><ele>33.0</ele><time>2026-04-28T16:04:46Z</time></trkpt><trkpt lat="49.14839390145799" lon="2.437706983966473"><ele>33.0</ele><time>2026-04-28T16:04:48Z</time></trkpt><trkpt lat="49.14828032752392" lon="2.4376618829225"><ele>33.0</ele><time>2026-04-28T16:04:50Z</time></trkpt><trkpt lat="49.148225965264025" lon="2.4376123606260123"><ele>33.0</ele><time>2026-04-28T16:04:51Z</time></trkpt><trkpt lat="49.1481119517212" lon="2.43754807836557"><ele>32.75</ele><time>2026-04-28T16:04:53Z</time></trkpt><trkpt lat="49.14800566867888" lon="2.4374896220357725"><ele>32.5</ele><time>2026-04-28T16:04:55Z</time></trkpt><trkpt lat="49.14789907679476" lon="2.4374582606526864"><ele>32.25</ele><time>2026-04-28T16:04:56.999Z</time></trkpt><trkpt lat="49.14778766755169" lon="2.4373992919794447"><ele>32.0</ele><time>2026-04-28T16:04:58.999Z</time></trkpt><trkpt lat="49.14767155670191" lon="2.437350969413555"><ele>32.0</ele><time>2026-04-28T16:05:00.999Z</time></trkpt><trkpt lat="49.14756348126792" lon="2.4373026795446835"><ele>32.0</ele><time>2026-04-28T16:05:02.999Z</time></trkpt><trkpt lat="49.14747239772721" lon="2.437263287830314"><ele>32.0</ele><time>2026-04-28T16:05:04.999Z</time></trkpt><trkpt lat="49.147393262911" lon="2.437235205131192"><ele>32.0</ele><time>2026-04-28T16:05:06.999Z</time></trkpt><trkpt lat="49.147434505195854" lon="2.43705919073206"><ele>32.0</ele><time>2026-04-28T16:05:08.999Z</time></trkpt><trkpt lat="49.14745885668824" lon="2.4369565214796283"><ele>32.166666666666664</ele><time>2026-04-28T16:05:09.999Z</time></trkpt><trkpt lat="49.14748728177747" lon="2.4368366773483854"><ele>32.33333333333333</ele><time>2026-04-28T16:05:10.999Z</time></trkpt><trkpt lat="49.14751498680784" lon="2.4367198690696847"><ele>32.5</ele><time>2026-04-28T16:05:11.999Z</time></trkpt><trkpt lat="49.147545177659865" lon="2.4365925802303185"><ele>32.666666666666664</ele><time>2026-04-28T16:05:12.999Z</time></trkpt><trkpt lat="49.147577456639" lon="2.4364564875696244"><ele>32.833333333333336</ele><time>2026-04-28T16:05:13.999Z</time></trkpt><trkpt lat="49.147610461661" lon="2.436316541085117"><ele>33.0</ele><time>2026-04-28T16:05:14.999Z</time></trkpt><trkpt lat="49.14764439781229" lon="2.4361715942939317"><ele>33.199999999999996</ele><time>2026-04-28T16:05:15.999Z</time></trkpt><trkpt lat="49.147678580376244" lon="2.436025595040849"><ele>33.4</ele><time>2026-04-28T16:05:16.999Z</time></trkpt><trkpt lat="49.14771227547329" lon="2.4358816778206065"><ele>33.599999999999994</ele><time>2026-04-28T16:05:17.999Z</time></trkpt><trkpt lat="49.14774583362466" lon="2.4357383455371067"><ele>33.8</ele><time>2026-04-28T16:05:18.999Z</time></trkpt><trkpt lat="49.14777884721627" lon="2.435597339149779"><ele>34.0</ele><time>2026-04-28T16:05:19.999Z</time></trkpt><trkpt lat="49.14781169314273" lon="2.4354570488895475"><ele>35.0</ele><time>2026-04-28T16:05:20.999Z</time></trkpt><trkpt lat="49.14784411445975" lon="2.435318572202759"><ele>36.0</ele><time>2026-04-28T16:05:21.999Z</time></trkpt><trkpt lat="49.147876016804155" lon="2.435182116638531"><ele>37.0</ele><time>2026-04-28T16:05:22.999Z</time></trkpt><trkpt lat="49.147908479843714" lon="2.4350447562409183"><ele>38.0</ele><time>2026-04-28T16:05:23.999Z</time></trkpt><trkpt lat="49.14794167575981" lon="2.434905387266277"><ele>39.0</ele><time>2026-04-28T16:05:24.999Z</time></trkpt><trkpt lat="49.14795956939989" lon="2.4347585185678455"><ele>40.0</ele><time>2026-04-28T16:05:25.999Z</time></trkpt><trkpt lat="49.14799425746754" lon="2.434616867207456"><ele>41.0</ele><time>2026-04-28T16:05:26.999Z</time></trkpt><trkpt lat="49.14802933624634" lon="2.434475273712862"><ele>42.0</ele><time>2026-04-28T16:05:27.999Z</time></trkpt><trkpt lat="49.14806445741085" lon="2.434331800248724"><ele>43.0</ele><time>2026-04-28T16:05:28.999Z</time></trkpt><trkpt lat="49.148097810317985" lon="2.4341895814478467"><ele>44.0</ele><time>2026-04-28T16:05:29.999Z</time></trkpt><trkpt lat="49.14813083555472" lon="2.434045806945184"><ele>44.0</ele><time>2026-04-28T16:05:30.999Z</time></trkpt><trkpt lat="49.14816327498668" lon="2.4339007805836976"><ele>44.0</ele><time>2026-04-28T16:05:31.999Z</time></trkpt><trkpt lat="49.14819511889122" lon="2.4337563199002346"><ele>44.0</ele><time>2026-04-28T16:05:32.999Z</time></trkpt><trkpt lat="49.1482275527257" lon="2.433610025758218"><ele>44.0</ele><time>2026-04-28T16:05:33.999Z</time></trkpt><trkpt lat="49.148260612232356" lon="2.4334660789088076"><ele>44.0</ele><time>2026-04-28T16:05:34.999Z</time></trkpt><trkpt lat="49.148293861301255" lon="2.433325749665489"><ele>42.0</ele><time>2026-04-28T16:05:35.999Z</time></trkpt><trkpt lat="49.14832448272701" lon="2.4331899239984973"><ele>40.0</ele><time>2026-04-28T16:05:36.999Z</time></trkpt><trkpt lat="49.14835356384328" lon="2.4330592846349077"><ele>38.0</ele><time>2026-04-28T16:05:37.999Z</time></trkpt><trkpt lat="49.14837830802045" lon="2.4329431527604704"><ele>36.0</ele><time>2026-04-28T16:05:38.999Z</time></trkpt><trkpt lat="49.14841442969434" lon="2.4327729409582273"><ele>34.0</ele><time>2026-04-28T16:05:40.998Z</time></trkpt><trkpt lat="49.14845527009287" lon="2.432585274471857"><ele>33.8</ele><time>2026-04-28T16:05:42.998Z</time></trkpt><trkpt lat="49.148482989204744" lon="2.432471535860075"><ele>33.599999999999994</ele><time>2026-04-28T16:05:43.998Z</time></trkpt><trkpt lat="49.148513292359205" lon="2.432340783803556"><ele>33.4</ele><time>2026-04-28T16:05:44.998Z</time></trkpt><trkpt lat="49.14855570483147" lon="2.4322027813497322"><ele>33.199999999999996</ele><time>2026-04-28T16:05:45.998Z</time></trkpt><trkpt lat="49.148588859241045" lon="2.4320518746223505"><ele>33.0</ele><time>2026-04-28T16:05:46.998Z</time></trkpt><trkpt lat="49.148623182700526" lon="2.4318959758252197"><ele>33.75</ele><time>2026-04-28T16:05:47.998Z</time></trkpt><trkpt lat="49.14865915111149" lon="2.4317333115382476"><ele>34.5</ele><time>2026-04-28T16:05:48.998Z</time></trkpt><trkpt lat="49.148695643145615" lon="2.4315661179767827"><ele>35.25</ele><time>2026-04-28T16:05:49.998Z</time></trkpt><trkpt lat="49.148732533426426" lon="2.4313974775952585"><ele>36.0</ele><time>2026-04-28T16:05:50.998Z</time></trkpt><trkpt lat="49.148769547690904" lon="2.431229100314991"><ele>36.6</ele><time>2026-04-28T16:05:51.998Z</time></trkpt><trkpt lat="49.14880663753123" lon="2.4310628517342083"><ele>37.2</ele><time>2026-04-28T16:05:52.998Z</time></trkpt><trkpt lat="49.14884269016257" lon="2.430901674664245"><ele>37.8</ele><time>2026-04-28T16:05:53.998Z</time></trkpt><trkpt lat="49.14887700329243" lon="2.4307440755919325"><ele>38.4</ele><time>2026-04-28T16:05:54.998Z</time></trkpt><trkpt lat="49.148910358387866" lon="2.4305915668593414"><ele>39.0</ele><time>2026-04-28T16:05:55.998Z</time></trkpt><trkpt lat="49.14894385689192" lon="2.4304431575003904"><ele>39.0</ele><time>2026-04-28T16:05:56.998Z</time></trkpt><trkpt lat="49.14897646931627" lon="2.4302992358059985"><ele>39.0</ele><time>2026-04-28T16:05:57.998Z</time></trkpt><trkpt lat="49.149007435838826" lon="2.430159478616808"><ele>39.0</ele><time>2026-04-28T16:05:58.998Z</time></trkpt><trkpt lat="49.149037412365885" lon="2.430023055022285"><ele>39.0</ele><time>2026-04-28T16:05:59.998Z</time></trkpt><trkpt lat="49.149066472843366" lon="2.429892176948053"><ele>39.0</ele><time>2026-04-28T16:06:00.998Z</time></trkpt><trkpt lat="49.149094908569175" lon="2.4297636890655365"><ele>37.5</ele><time>2026-04-28T16:06:01.998Z</time></trkpt><trkpt lat="49.14912248276137" lon="2.4296391719335984"><ele>36.0</ele><time>2026-04-28T16:06:02.998Z</time></trkpt><trkpt lat="49.14914905459085" lon="2.4295178745268324"><ele>34.5</ele><time>2026-04-28T16:06:03.998Z</time></trkpt><trkpt lat="49.14917461263177" lon="2.4294008744948377"><ele>33.0</ele><time>2026-04-28T16:06:04.998Z</time></trkpt><trkpt lat="49.14920002819252" lon="2.429286801364482"><ele>31.5</ele><time>2026-04-28T16:06:05.998Z</time></trkpt><trkpt lat="49.14922646794527" lon="2.4291791463049015"><ele>30.0</ele><time>2026-04-28T16:06:06.998Z</time></trkpt><trkpt lat="49.14926440781319" lon="2.4290873388096603"><ele>30.0</ele><time>2026-04-28T16:06:07.998Z</time></trkpt><trkpt lat="49.14931332649108" lon="2.4290082750027713"><ele>30.0</ele><time>2026-04-28T16:06:08.998Z</time></trkpt><trkpt lat="49.14938049095102" lon="2.4289500616481976"><ele>30.0</ele><time>2026-04-28T16:06:09.998Z</time></trkpt><trkpt lat="49.149463155331944" lon="2.428917476824897"><ele>30.0</ele><time>2026-04-28T16:06:10.998Z</time></trkpt><trkpt lat="49.149543775208194" lon="2.428883215342655"><ele>30.0</ele><time>2026-04-28T16:06:11.998Z</time></trkpt><trkpt lat="49.14964600490531" lon="2.4289299461463694"><ele>30.0</ele><time>2026-04-28T16:06:12.998Z</time></trkpt><trkpt lat="49.1497472101164" lon="2.428943659531832"><ele>30.0</ele><time>2026-04-28T16:06:13.998Z</time></trkpt><trkpt lat="49.149853653521156" lon="2.428950776586981"><ele>30.0</ele><time>2026-04-28T16:06:14.998Z</time></trkpt><trkpt lat="49.14996231335249" lon="2.428958032764524"><ele>30.0</ele><time>2026-04-28T16:06:15.998Z</time></trkpt><trkpt lat="49.15007370480728" lon="2.428968468829221"><ele>30.0</ele><time>2026-04-28T16:06:16.998Z</time></trkpt><trkpt lat="49.150185476931924" lon="2.4289787904552163"><ele>30.0</ele><time>2026-04-28T16:06:17.998Z</time></trkpt><trkpt lat="49.150298192652336" lon="2.4289905493116293"><ele>30.0</ele><time>2026-04-28T16:06:18.998Z</time></trkpt><trkpt lat="49.15041086984473" lon="2.429001754961416"><ele>30.0</ele><time>2026-04-28T16:06:19.998Z</time></trkpt><trkpt lat="49.15052264282383" lon="2.4290128548260315"><ele>30.0</ele><time>2026-04-28T16:06:20.998Z</time></trkpt><trkpt lat="49.150632548682935" lon="2.4290232266850134"><ele>30.0</ele><time>2026-04-28T16:06:21.998Z</time></trkpt><trkpt lat="49.150741019524084" lon="2.429031663656174"><ele>30.0</ele><time>2026-04-28T16:06:22.998Z</time></trkpt><trkpt lat="49.150853348036804" lon="2.4290422568114334"><ele>29.5</ele><time>2026-04-28T16:06:23.998Z</time></trkpt><trkpt lat="49.15096808805576" lon="2.429054376233893"><ele>29.0</ele><time>2026-04-28T16:06:24.998Z</time></trkpt><trkpt lat="49.151084234863795" lon="2.429064095313929"><ele>28.5</ele><time>2026-04-28T16:06:26Z</time></trkpt><trkpt lat="49.151199111115005" lon="2.429073587537261"><ele>28.0</ele><time>2026-04-28T16:06:27Z</time></trkpt><trkpt lat="49.151311448481195" lon="2.4290823164535467"><ele>28.0</ele><time>2026-04-28T16:06:28Z</time></trkpt><trkpt lat="49.151419265785115" lon="2.4290923261309403"><ele>27.999999999999996</ele><time>2026-04-28T16:06:29Z</time></trkpt><trkpt lat="49.15152410238544" lon="2.4291007525240826"><ele>27.999999999999996</ele><time>2026-04-28T16:06:30Z</time></trkpt><trkpt lat="49.1516265136903" lon="2.4291097454115533"><ele>28.0</ele><time>2026-04-28T16:06:31Z</time></trkpt><trkpt lat="49.15172870457736" lon="2.429118314927625"><ele>28.0</ele><time>2026-04-28T16:06:32Z</time></trkpt><trkpt lat="49.15182868090133" lon="2.429126422494094"><ele>28.166666666666668</ele><time>2026-04-28T16:06:33Z</time></trkpt><trkpt lat="49.15192467886397" lon="2.4291335581986777"><ele>28.333333333333336</ele><time>2026-04-28T16:06:34Z</time></trkpt><trkpt lat="49.152015031082364" lon="2.4291405061795817"><ele>28.5</ele><time>2026-04-28T16:06:35Z</time></trkpt><trkpt lat="49.152095917116384" lon="2.429146820150113"><ele>28.666666666666664</ele><time>2026-04-28T16:06:36Z</time></trkpt><trkpt lat="49.152169048142895" lon="2.4291517057517567"><ele>28.833333333333332</ele><time>2026-04-28T16:06:37Z</time></trkpt><trkpt lat="49.152234030723626" lon="2.429156848406773"><ele>29.0</ele><time>2026-04-28T16:06:38Z</time></trkpt><trkpt lat="49.152340409807934" lon="2.4291660032336657"><ele>29.333333333333332</ele><time>2026-04-28T16:06:40Z</time></trkpt><trkpt lat="49.15245443066721" lon="2.429173953633224"><ele>29.666666666666664</ele><time>2026-04-28T16:06:42Z</time></trkpt><trkpt lat="49.15252140671562" lon="2.4291799198618165"><ele>30.0</ele><time>2026-04-28T16:06:43Z</time></trkpt><trkpt lat="49.15259662655347" lon="2.4291860464111474"><ele>30.333333333333336</ele><time>2026-04-28T16:06:44Z</time></trkpt><trkpt lat="49.15268118309975" lon="2.4291934923461214"><ele>30.666666666666668</ele><time>2026-04-28T16:06:45Z</time></trkpt><trkpt lat="49.15276766295166" lon="2.4291997011200936"><ele>31.0</ele><time>2026-04-28T16:06:46Z</time></trkpt><trkpt lat="49.15285469500328" lon="2.4292051655373434"><ele>31.000000000000004</ele><time>2026-04-28T16:06:47Z</time></trkpt><trkpt lat="49.152935582656085" lon="2.4292109445642747"><ele>31.0</ele><time>2026-04-28T16:06:48Z</time></trkpt><trkpt lat="49.153009151285815" lon="2.429219057587887"><ele>31.0</ele><time>2026-04-28T16:06:49Z</time></trkpt><trkpt lat="49.15307475978683" lon="2.429236956969192"><ele>31.0</ele><time>2026-04-28T16:06:50Z</time></trkpt><trkpt lat="49.153171733703985" lon="2.4293252069754465"><ele>31.000000000000004</ele><time>2026-04-28T16:06:52Z</time></trkpt><trkpt lat="49.15321691511193" lon="2.429457936400684"><ele>31.0</ele><time>2026-04-28T16:06:54Z</time></trkpt><trkpt lat="49.15327998101551" lon="2.4296016690717797"><ele>31.25</ele><time>2026-04-28T16:06:56Z</time></trkpt><trkpt lat="49.15339166848899" lon="2.429653901114086"><ele>31.5</ele><time>2026-04-28T16:06:58Z</time></trkpt><trkpt lat="49.15349360267444" lon="2.4295589695012096"><ele>31.75</ele><time>2026-04-28T16:07:00Z</time></trkpt><trkpt lat="49.15355320411415" lon="2.4294009413394595"><ele>32.0</ele><time>2026-04-28T16:07:02Z</time></trkpt><trkpt lat="49.1536541696063" lon="2.4293001625829023"><ele>32.0</ele><time>2026-04-28T16:07:04Z</time></trkpt><trkpt lat="49.1537853812819" lon="2.4292906891386585"><ele>32.0</ele><time>2026-04-28T16:07:06Z</time></trkpt><trkpt lat="49.15386981716869" lon="2.4292975760443904"><ele>32.0</ele><time>2026-04-28T16:07:07Z</time></trkpt><trkpt lat="49.15395732457616" lon="2.429305508554543"><ele>32.0</ele><time>2026-04-28T16:07:07.999Z</time></trkpt><trkpt lat="49.154043297090915" lon="2.4293138035014157"><ele>32.0</ele><time>2026-04-28T16:07:08.999Z</time></trkpt><trkpt lat="49.154132239642486" lon="2.4293212830811948"><ele>32.666666666666664</ele><time>2026-04-28T16:07:09.999Z</time></trkpt><trkpt lat="49.15422351898697" lon="2.4293303851738344"><ele>33.33333333333333</ele><time>2026-04-28T16:07:10.999Z</time></trkpt><trkpt lat="49.15431392984462" lon="2.429332030482624"><ele>34.0</ele><time>2026-04-28T16:07:11.999Z</time></trkpt><trkpt lat="49.15440467799845" lon="2.4293381238160614"><ele>34.666666666666664</ele><time>2026-04-28T16:07:12.999Z</time></trkpt><trkpt lat="49.154489363912994" lon="2.429345308828839"><ele>35.333333333333336</ele><time>2026-04-28T16:07:13.999Z</time></trkpt><trkpt lat="49.15457095564838" lon="2.429352448445784"><ele>36.0</ele><time>2026-04-28T16:07:14.999Z</time></trkpt><trkpt lat="49.15464867201812" lon="2.429358472336247"><ele>36.00000000000001</ele><time>2026-04-28T16:07:15.999Z</time></trkpt><trkpt lat="49.15471766943606" lon="2.4293622048928736"><ele>36.0</ele><time>2026-04-28T16:07:16.999Z</time></trkpt><trkpt lat="49.154801451309616" lon="2.429367436775067"><ele>36.0</ele><time>2026-04-28T16:07:18.999Z</time></trkpt><trkpt lat="49.154875145727324" lon="2.429368558695172"><ele>36.0</ele><time>2026-04-28T16:07:22.999Z</time></trkpt><trkpt lat="49.15495135750003" lon="2.4293663822729856"><ele>36.0</ele><time>2026-04-28T16:07:42.999Z</time></trkpt><trkpt lat="49.155017996547734" lon="2.429371119410887"><ele>36.00000000000001</ele><time>2026-04-28T16:07:45.999Z</time></trkpt><trkpt lat="49.15508795310554" lon="2.4293769798394274"><ele>36.0</ele><time>2026-04-28T16:07:47.999Z</time></trkpt><trkpt lat="49.1551756634178" lon="2.429385897889815"><ele>35.666666666666664</ele><time>2026-04-28T16:07:49.999Z</time></trkpt><trkpt lat="49.155276651689185" lon="2.429395978979015"><ele>35.333333333333336</ele><time>2026-04-28T16:07:51.998Z</time></trkpt><trkpt lat="49.155366845486625" lon="2.429404434055411"><ele>35.0</ele><time>2026-04-28T16:07:53.998Z</time></trkpt><trkpt lat="49.15544147525821" lon="2.4294087036412515"><ele>34.66666666666667</ele><time>2026-04-28T16:07:56.998Z</time></trkpt><trkpt lat="49.15551059224464" lon="2.4294175699581464"><ele>34.333333333333336</ele><time>2026-04-28T16:08:47Z</time></trkpt><trkpt lat="49.15559831515267" lon="2.4294204709448657"><ele>34.0</ele><time>2026-04-28T16:08:49Z</time></trkpt><trkpt lat="49.15569289544628" lon="2.4294258832559894"><ele>34.16666666666667</ele><time>2026-04-28T16:08:51Z</time></trkpt><trkpt lat="49.15577581608441" lon="2.4294559794042394"><ele>34.333333333333336</ele><time>2026-04-28T16:08:53Z</time></trkpt><trkpt lat="49.15578376530149" lon="2.429558135928735"><ele>34.5</ele><time>2026-04-28T16:08:55Z</time></trkpt><trkpt lat="49.155783332139166" lon="2.429729300350107"><ele>34.666666666666664</ele><time>2026-04-28T16:08:57Z</time></trkpt><trkpt lat="49.15578299184053" lon="2.4298350931102353"><ele>34.83333333333333</ele><time>2026-04-28T16:08:58Z</time></trkpt><trkpt lat="49.155782618937586" lon="2.429951021920162"><ele>35.0</ele><time>2026-04-28T16:08:59Z</time></trkpt><trkpt lat="49.15578221052754" lon="2.4300779893197664"><ele>35.33333333333333</ele><time>2026-04-28T16:09:00Z</time></trkpt><trkpt lat="49.15578245411375" lon="2.4302049858958985"><ele>35.666666666666664</ele><time>2026-04-28T16:09:01Z</time></trkpt><trkpt lat="49.1557830415085" lon="2.430332277619087"><ele>36.0</ele><time>2026-04-28T16:09:02Z</time></trkpt><trkpt lat="49.15578354928017" lon="2.4304648957469315"><ele>36.333333333333336</ele><time>2026-04-28T16:09:03Z</time></trkpt><trkpt lat="49.15580015046944" lon="2.4305996758885913"><ele>36.66666666666667</ele><time>2026-04-28T16:09:04Z</time></trkpt><trkpt lat="49.15579827780906" lon="2.4307360680391823"><ele>37.0</ele><time>2026-04-28T16:09:05Z</time></trkpt><trkpt lat="49.15579727277663" lon="2.430875999188786"><ele>37.8</ele><time>2026-04-28T16:09:06Z</time></trkpt><trkpt lat="49.15579622217105" lon="2.43101575036304"><ele>38.6</ele><time>2026-04-28T16:09:07Z</time></trkpt><trkpt lat="49.15579518420729" lon="2.4311558963876263"><ele>39.4</ele><time>2026-04-28T16:09:08Z</time></trkpt><trkpt lat="49.15579406559461" lon="2.431298134342328"><ele>40.199999999999996</ele><time>2026-04-28T16:09:09Z</time></trkpt><trkpt lat="49.15579313621257" lon="2.431442558184714"><ele>41.0</ele><time>2026-04-28T16:09:10Z</time></trkpt><trkpt lat="49.1557929591979" lon="2.43158705559404"><ele>41.0</ele><time>2026-04-28T16:09:10.999Z</time></trkpt><trkpt lat="49.15578179280104" lon="2.431734863134231"><ele>41.0</ele><time>2026-04-28T16:09:11.999Z</time></trkpt><trkpt lat="49.15578074446732" lon="2.431879046988607"><ele>41.0</ele><time>2026-04-28T16:09:12.999Z</time></trkpt><trkpt lat="49.15577944771797" lon="2.43202106200747"><ele>41.0</ele><time>2026-04-28T16:09:13.999Z</time></trkpt><trkpt lat="49.155779415197514" lon="2.432161935244855"><ele>41.0</ele><time>2026-04-28T16:09:14.999Z</time></trkpt><trkpt lat="49.15577914914615" lon="2.4323009214812368"><ele>40.8</ele><time>2026-04-28T16:09:15.999Z</time></trkpt><trkpt lat="49.15578085771187" lon="2.432437027885125"><ele>40.599999999999994</ele><time>2026-04-28T16:09:16.999Z</time></trkpt><trkpt lat="49.15578256977745" lon="2.432574653356416"><ele>40.4</ele><time>2026-04-28T16:09:17.999Z</time></trkpt><trkpt lat="49.155782973697335" lon="2.4327154823118184"><ele>40.2</ele><time>2026-04-28T16:09:18.999Z</time></trkpt><trkpt lat="49.155783162326536" lon="2.4328584148134014"><ele>40.0</ele><time>2026-04-28T16:09:19.999Z</time></trkpt><trkpt lat="49.15578310785994" lon="2.4330025352085927"><ele>39.8</ele><time>2026-04-28T16:09:20.999Z</time></trkpt><trkpt lat="49.15578331618044" lon="2.4331481860114357"><ele>39.6</ele><time>2026-04-28T16:09:21.999Z</time></trkpt><trkpt lat="49.15578232799003" lon="2.4332945471845178"><ele>39.4</ele><time>2026-04-28T16:09:22.999Z</time></trkpt><trkpt lat="49.15578170998001" lon="2.43344104615079"><ele>39.2</ele><time>2026-04-28T16:09:23.999Z</time></trkpt><trkpt lat="49.155780346352664" lon="2.433587056418544"><ele>39.0</ele><time>2026-04-28T16:09:24.999Z</time></trkpt><trkpt lat="49.155779330598826" lon="2.433737664291135"><ele>38.8</ele><time>2026-04-28T16:09:25.999Z</time></trkpt><trkpt lat="49.15577742696158" lon="2.433886279093059"><ele>38.599999999999994</ele><time>2026-04-28T16:09:26.999Z</time></trkpt><trkpt lat="49.155776701634274" lon="2.4340387504623373"><ele>38.4</ele><time>2026-04-28T16:09:27.999Z</time></trkpt><trkpt lat="49.15577659529338" lon="2.434191515785564"><ele>38.199999999999996</ele><time>2026-04-28T16:09:28.999Z</time></trkpt><trkpt lat="49.155777482473745" lon="2.434346111850773"><ele>38.0</ele><time>2026-04-28T16:09:29.999Z</time></trkpt><trkpt lat="49.155777241840745" lon="2.434502846297894"><ele>38.0</ele><time>2026-04-28T16:09:30.999Z</time></trkpt><trkpt lat="49.15577797712786" lon="2.4346613999711173"><ele>38.0</ele><time>2026-04-28T16:09:31.999Z</time></trkpt><trkpt lat="49.15577666257798" lon="2.4348197940027507"><ele>38.0</ele><time>2026-04-28T16:09:32.999Z</time></trkpt><trkpt lat="49.155777195485975" lon="2.434981726217652"><ele>38.0</ele><time>2026-04-28T16:09:33.999Z</time></trkpt><trkpt lat="49.155776750764716" lon="2.4351438135539243"><ele>38.0</ele><time>2026-04-28T16:09:34.999Z</time></trkpt><trkpt lat="49.15577437916308" lon="2.435307240116574"><ele>38.0</ele><time>2026-04-28T16:09:35.999Z</time></trkpt><trkpt lat="49.15577048369658" lon="2.435470040303537"><ele>38.0</ele><time>2026-04-28T16:09:36.999Z</time></trkpt><trkpt lat="49.1557652202254" lon="2.4356304253519165"><ele>38.0</ele><time>2026-04-28T16:09:37.999Z</time></trkpt><trkpt lat="49.15576084589551" lon="2.4357888677049444"><ele>38.0</ele><time>2026-04-28T16:09:38.999Z</time></trkpt><trkpt lat="49.1557563140371" lon="2.4359428193645725"><ele>38.0</ele><time>2026-04-28T16:09:39.999Z</time></trkpt><trkpt lat="49.15574963049013" lon="2.4360925772465385"><ele>37.6</ele><time>2026-04-28T16:09:40.999Z</time></trkpt><trkpt lat="49.15574161227275" lon="2.4362367105059892"><ele>37.199999999999996</ele><time>2026-04-28T16:09:41.999Z</time></trkpt><trkpt lat="49.15573457635767" lon="2.4363791876895178"><ele>36.8</ele><time>2026-04-28T16:09:42.999Z</time></trkpt><trkpt lat="49.155726620149714" lon="2.4365172841846516"><ele>36.4</ele><time>2026-04-28T16:09:43.999Z</time></trkpt><trkpt lat="49.15571886547598" lon="2.436652569199967"><ele>36.0</ele><time>2026-04-28T16:09:44.999Z</time></trkpt><trkpt lat="49.155711485658976" lon="2.43677991540514"><ele>36.0</ele><time>2026-04-28T16:09:45.999Z</time></trkpt><trkpt lat="49.15570499931264" lon="2.4369093959709245"><ele>36.0</ele><time>2026-04-28T16:09:46.999Z</time></trkpt><trkpt lat="49.155698901972784" lon="2.4370368656860246"><ele>36.0</ele><time>2026-04-28T16:09:47.999Z</time></trkpt><trkpt lat="49.155691440226946" lon="2.4371633957080903"><ele>36.0</ele><time>2026-04-28T16:09:48.999Z</time></trkpt><trkpt lat="49.15568307177068" lon="2.437288844184282"><ele>36.0</ele><time>2026-04-28T16:09:49.999Z</time></trkpt><trkpt lat="49.15567317497492" lon="2.4374126365959823"><ele>36.0</ele><time>2026-04-28T16:09:50.999Z</time></trkpt><trkpt lat="49.15566239557315" lon="2.437533636766856"><ele>35.666666666666664</ele><time>2026-04-28T16:09:51.998Z</time></trkpt><trkpt lat="49.15565151997185" lon="2.437650298936881"><ele>35.333333333333336</ele><time>2026-04-28T16:09:52.998Z</time></trkpt><trkpt lat="49.155641861059806" lon="2.4377639195184098"><ele>35.0</ele><time>2026-04-28T16:09:53.998Z</time></trkpt><trkpt lat="49.15563383016477" lon="2.4378649388422877"><ele>34.66666666666667</ele><time>2026-04-28T16:09:54.998Z</time></trkpt><trkpt lat="49.15562170611197" lon="2.4380247312346954"><ele>34.333333333333336</ele><time>2026-04-28T16:09:56.998Z</time></trkpt><trkpt lat="49.155627751830906" lon="2.438198900520909"><ele>34.0</ele><time>2026-04-28T16:09:58.998Z</time></trkpt><trkpt lat="49.155654793529536" lon="2.438358378436333"><ele>33.8</ele><time>2026-04-28T16:10:00.998Z</time></trkpt><trkpt lat="49.15564604369335" lon="2.438509395552124"><ele>33.599999999999994</ele><time>2026-04-28T16:10:02.998Z</time></trkpt><trkpt lat="49.15562852698501" lon="2.4386718036421673"><ele>33.4</ele><time>2026-04-28T16:10:04.998Z</time></trkpt><trkpt lat="49.15557735058989" lon="2.438796782750616"><ele>33.199999999999996</ele><time>2026-04-28T16:10:06.998Z</time></trkpt><trkpt lat="49.15548779295058" lon="2.4388814870341253"><ele>33.0</ele><time>2026-04-28T16:10:08.998Z</time></trkpt><trkpt lat="49.155428390294425" lon="2.4389218462500497"><ele>33.0</ele><time>2026-04-28T16:10:09.998Z</time></trkpt><trkpt lat="49.15536106053393" lon="2.438969344988544"><ele>33.0</ele><time>2026-04-28T16:10:10.998Z</time></trkpt><trkpt lat="49.15529240300595" lon="2.4390156688476843"><ele>33.0</ele><time>2026-04-28T16:10:11.998Z</time></trkpt><trkpt lat="49.15522235153676" lon="2.439059796458519"><ele>33.0</ele><time>2026-04-28T16:10:12.998Z</time></trkpt><trkpt lat="49.15515527575708" lon="2.439103520453402"><ele>33.0</ele><time>2026-04-28T16:10:13.998Z</time></trkpt><trkpt lat="49.15509201604277" lon="2.43914149541663"><ele>33.0</ele><time>2026-04-28T16:10:14.998Z</time></trkpt><trkpt lat="49.15502795577248" lon="2.4391637089969067"><ele>33.0</ele><time>2026-04-28T16:10:15.998Z</time></trkpt><trkpt lat="49.15496265797757" lon="2.4391762631150833"><ele>33.0</ele><time>2026-04-28T16:10:16.998Z</time></trkpt><trkpt lat="49.15489850205165" lon="2.43918822862936"><ele>33.0</ele><time>2026-04-28T16:10:17.998Z</time></trkpt><trkpt lat="49.15483429728281" lon="2.4391981867476114"><ele>33.0</ele><time>2026-04-28T16:10:18.998Z</time></trkpt><trkpt lat="49.15471299502345" lon="2.4392083753155385"><ele>33.0</ele><time>2026-04-28T16:10:20.998Z</time></trkpt><trkpt lat="49.154604448712895" lon="2.4392356430055617"><ele>33.0</ele><time>2026-04-28T16:10:22.998Z</time></trkpt><trkpt lat="49.154520582878455" lon="2.4393376917546843"><ele>33.0</ele><time>2026-04-28T16:10:24.998Z</time></trkpt><trkpt lat="49.1544968765506" lon="2.4395197016622743"><ele>33.0</ele><time>2026-04-28T16:10:26.998Z</time></trkpt><trkpt lat="49.154488850251084" lon="2.4396218853548968"><ele>33.0</ele><time>2026-04-28T16:10:27.998Z</time></trkpt><trkpt lat="49.154478269419904" lon="2.439725860497767"><ele>33.0</ele><time>2026-04-28T16:10:28.998Z</time></trkpt><trkpt lat="49.15446836947053" lon="2.439829488424561"><ele>33.0</ele><time>2026-04-28T16:10:29.998Z</time></trkpt><trkpt lat="49.15445885505875" lon="2.4399311060326316"><ele>33.0</ele><time>2026-04-28T16:10:30.998Z</time></trkpt><trkpt lat="49.15445004459712" lon="2.440029786282204"><ele>33.199999999999996</ele><time>2026-04-28T16:10:31.998Z</time></trkpt><trkpt lat="49.154441360846945" lon="2.4401271346741478"><ele>33.4</ele><time>2026-04-28T16:10:32.998Z</time></trkpt><trkpt lat="49.154425636160816" lon="2.440316950938544"><ele>33.599999999999994</ele><time>2026-04-28T16:10:34.997Z</time></trkpt><trkpt lat="49.15440931357224" lon="2.440510189303906"><ele>33.8</ele><time>2026-04-28T16:10:36.997Z</time></trkpt><trkpt lat="49.15439890776348" lon="2.4406120608321973"><ele>34.0</ele><time>2026-04-28T16:10:38Z</time></trkpt><trkpt lat="49.15438818024744" lon="2.440711546520459"><ele>34.16666666666667</ele><time>2026-04-28T16:10:39Z</time></trkpt><trkpt lat="49.154376377025855" lon="2.4408093353667093"><ele>34.333333333333336</ele><time>2026-04-28T16:10:40Z</time></trkpt><trkpt lat="49.1543665477185" lon="2.440906636889305"><ele>34.5</ele><time>2026-04-28T16:10:41Z</time></trkpt><trkpt lat="49.1543573602357" lon="2.4410043678176336"><ele>34.666666666666664</ele><time>2026-04-28T16:10:42Z</time></trkpt><trkpt lat="49.15434889353837" lon="2.441100901305081"><ele>34.83333333333333</ele><time>2026-04-28T16:10:43Z</time></trkpt><trkpt lat="49.15433252292678" lon="2.4412910310285745"><ele>35.0</ele><time>2026-04-28T16:10:45Z</time></trkpt><trkpt lat="49.1543168286784" lon="2.4414815961798597"><ele>34.666666666666664</ele><time>2026-04-28T16:10:47Z</time></trkpt><trkpt lat="49.15430816010963" lon="2.4415800481255285"><ele>34.33333333333333</ele><time>2026-04-28T16:10:48Z</time></trkpt><trkpt lat="49.15429756096111" lon="2.441682692257196"><ele>34.0</ele><time>2026-04-28T16:10:49Z</time></trkpt><trkpt lat="49.154286592069276" lon="2.441790488196483"><ele>33.666666666666664</ele><time>2026-04-28T16:10:50Z</time></trkpt><trkpt lat="49.154276751586224" lon="2.4418942785641176"><ele>33.333333333333336</ele><time>2026-04-28T16:10:51Z</time></trkpt><trkpt lat="49.15426726292045" lon="2.44199595654329"><ele>33.0</ele><time>2026-04-28T16:10:52Z</time></trkpt><trkpt lat="49.154251036875216" lon="2.442180762107001"><ele>33.0</ele><time>2026-04-28T16:10:54Z</time></trkpt><trkpt lat="49.15423711127035" lon="2.4423284463523034"><ele>33.0</ele><time>2026-04-28T16:10:56Z</time></trkpt><trkpt lat="49.15420135661885" lon="2.4424292285733715"><ele>33.0</ele><time>2026-04-28T16:11:00Z</time></trkpt><trkpt lat="49.154248142648086" lon="2.442528439624652"><ele>33.0</ele><time>2026-04-28T16:11:03Z</time></trkpt><trkpt lat="49.15431815253859" lon="2.4425476289355794"><ele>33.0</ele><time>2026-04-28T16:11:05Z</time></trkpt><trkpt lat="49.15442455020535" lon="2.442575213991122"><ele>33.0</ele><time>2026-04-28T16:11:06.999Z</time></trkpt><trkpt lat="49.15453737693458" lon="2.4426085607147257"><ele>33.0</ele><time>2026-04-28T16:11:08.999Z</time></trkpt><trkpt lat="49.15465023065751" lon="2.4426173753843394"><ele>33.0</ele><time>2026-04-28T16:11:10.999Z</time></trkpt><trkpt lat="49.154751229936565" lon="2.442644167924722"><ele>33.0</ele><time>2026-04-28T16:11:12.999Z</time></trkpt><trkpt lat="49.154850723735194" lon="2.442650541033637"><ele>33.0</ele><time>2026-04-28T16:11:14.999Z</time></trkpt><trkpt lat="49.15496561344077" lon="2.44268162114081"><ele>33.0</ele><time>2026-04-28T16:11:16.999Z</time></trkpt><trkpt lat="49.15508305716283" lon="2.4427075977870945"><ele>33.4</ele><time>2026-04-28T16:11:18.999Z</time></trkpt><trkpt lat="49.15518646582462" lon="2.442726383559421"><ele>33.8</ele><time>2026-04-28T16:11:20.999Z</time></trkpt><trkpt lat="49.15525384000976" lon="2.4427542022852973"><ele>34.2</ele><time>2026-04-28T16:11:22.999Z</time></trkpt><trkpt lat="49.155282586503255" lon="2.442626521179065"><ele>34.6</ele><time>2026-04-28T16:11:24.999Z</time></trkpt><trkpt lat="49.15528239638026" lon="2.4424748282021"><ele>35.0</ele><time>2026-04-28T16:11:26.999Z</time></trkpt><trkpt lat="49.15527420811239" lon="2.4422873934741394"><ele>35.0</ele><time>2026-04-28T16:11:28.999Z</time></trkpt><trkpt lat="49.15527082320533" lon="2.4421910136647442"><ele>35.0</ele><time>2026-04-28T16:11:29.999Z</time></trkpt><trkpt lat="49.15527130799047" lon="2.4420937648238596"><ele>35.0</ele><time>2026-04-28T16:11:30.999Z</time></trkpt><trkpt lat="49.15527625136493" lon="2.441997118871007"><ele>35.0</ele><time>2026-04-28T16:11:31.999Z</time></trkpt><trkpt lat="49.15529454127738" lon="2.44181787856469"><ele>35.0</ele><time>2026-04-28T16:11:33.999Z</time></trkpt><trkpt lat="49.155311215605096" lon="2.441670254969759"><ele>35.0</ele><time>2026-04-28T16:11:35.999Z</time></trkpt><trkpt lat="49.15532525431651" lon="2.441549196135223"><ele>34.8</ele><time>2026-04-28T16:11:37.999Z</time></trkpt><trkpt lat="49.15533801299305" lon="2.4414125597157774"><ele>34.6</ele><time>2026-04-28T16:11:39.999Z</time></trkpt><trkpt lat="49.15535142267144" lon="2.4412619919294762"><ele>34.4</ele><time>2026-04-28T16:11:41.999Z</time></trkpt><trkpt lat="49.15537142485392" lon="2.441090619650084"><ele>34.2</ele><time>2026-04-28T16:11:43.999Z</time></trkpt><trkpt lat="49.15539008825849" lon="2.4409353618450402"><ele>34.0</ele><time>2026-04-28T16:11:45.999Z</time></trkpt><trkpt lat="49.15540453105917" lon="2.440801577795482"><ele>34.0</ele><time>2026-04-28T16:11:47.998Z</time></trkpt><trkpt lat="49.15541742545563" lon="2.4406723589155517"><ele>34.0</ele><time>2026-04-28T16:11:49.998Z</time></trkpt><trkpt lat="49.15543003921246" lon="2.440501458115107"><ele>34.0</ele><time>2026-04-28T16:11:51.998Z</time></trkpt><trkpt lat="49.155439800854296" lon="2.44040596184888"><ele>34.0</ele><time>2026-04-28T16:11:52.998Z</time></trkpt><trkpt lat="49.15544934336239" lon="2.4403058153067514"><ele>34.0</ele><time>2026-04-28T16:11:53.998Z</time></trkpt><trkpt lat="49.155458734227324" lon="2.4402062921945378"><ele>34.0</ele><time>2026-04-28T16:11:54.998Z</time></trkpt><trkpt lat="49.155468158413356" lon="2.4401062923845833"><ele>34.25</ele><time>2026-04-28T16:11:55.998Z</time></trkpt><trkpt lat="49.155478094098925" lon="2.4400109700917847"><ele>34.5</ele><time>2026-04-28T16:11:56.998Z</time></trkpt><trkpt lat="49.15549495519837" lon="2.439868262292595"><ele>34.75</ele><time>2026-04-28T16:11:58.998Z</time></trkpt><trkpt lat="49.155567546734964" lon="2.4396055025711747"><ele>35.0</ele><time>2026-04-28T16:12:00.998Z</time></trkpt><trkpt lat="49.15560851065911" lon="2.439841607772668"><ele>35.0</ele><time>2026-04-28T16:12:01.998Z</time></trkpt><trkpt lat="49.155701812979856" lon="2.4399735492716137"><ele>35.0</ele><time>2026-04-28T16:12:03.998Z</time></trkpt><trkpt lat="49.15575772104609" lon="2.440044206618821"><ele>35.0</ele><time>2026-04-28T16:12:04.998Z</time></trkpt><trkpt lat="49.15581217713319" lon="2.4401144786946785"><ele>35.0</ele><time>2026-04-28T16:12:05.998Z</time></trkpt><trkpt lat="49.15586670673787" lon="2.4401843016038502"><ele>35.0</ele><time>2026-04-28T16:12:06.998Z</time></trkpt><trkpt lat="49.15592071628793" lon="2.440250816311418"><ele>35.0</ele><time>2026-04-28T16:12:07.998Z</time></trkpt><trkpt lat="49.15597442865039" lon="2.4403167332700852"><ele>35.0</ele><time>2026-04-28T16:12:08.998Z</time></trkpt><trkpt lat="49.15602684308089" lon="2.440385594700572"><ele>35.0</ele><time>2026-04-28T16:12:09.998Z</time></trkpt><trkpt lat="49.15607995056395" lon="2.440452931891211"><ele>35.0</ele><time>2026-04-28T16:12:10.998Z</time></trkpt><trkpt lat="49.15613318256091" lon="2.4405203519635914"><ele>35.0</ele><time>2026-04-28T16:12:11.998Z</time></trkpt><trkpt lat="49.15618506584664" lon="2.440588934632481"><ele>35.0</ele><time>2026-04-28T16:12:12.998Z</time></trkpt><trkpt lat="49.15623695874648" lon="2.4406552566704156"><ele>35.0</ele><time>2026-04-28T16:12:13.998Z</time></trkpt><trkpt lat="49.15628579617084" lon="2.440719874789356"><ele>35.0</ele><time>2026-04-28T16:12:14.998Z</time></trkpt><trkpt lat="49.156373867951565" lon="2.440837310228206"><ele>35.0</ele><time>2026-04-28T16:12:16.998Z</time></trkpt><trkpt lat="49.15645555376407" lon="2.440945256761994"><ele>35.0</ele><time>2026-04-28T16:12:18.998Z</time></trkpt><trkpt lat="49.15653507850676" lon="2.441048355420347"><ele>35.0</ele><time>2026-04-28T16:12:20.998Z</time></trkpt><trkpt lat="49.156615140351" lon="2.4411535835731937"><ele>35.0</ele><time>2026-04-28T16:12:22.998Z</time></trkpt><trkpt lat="49.15669878280272" lon="2.4412631108861"><ele>35.0</ele><time>2026-04-28T16:12:24.998Z</time></trkpt><trkpt lat="49.15678967315397" lon="2.4413828988308857"><ele>35.166666666666664</ele><time>2026-04-28T16:12:26.998Z</time></trkpt><trkpt lat="49.156837549826854" lon="2.441446778880346"><ele>35.33333333333333</ele><time>2026-04-28T16:12:27.998Z</time></trkpt><trkpt lat="49.156886734150156" lon="2.441510221116412"><ele>35.5</ele><time>2026-04-28T16:12:28.997Z</time></trkpt><trkpt lat="49.156935063793576" lon="2.4415762546219444"><ele>35.666666666666664</ele><time>2026-04-28T16:12:29.997Z</time></trkpt><trkpt lat="49.15698185023765" lon="2.4416408383296404"><ele>35.833333333333336</ele><time>2026-04-28T16:12:30.997Z</time></trkpt><trkpt lat="49.15707145801733" lon="2.441762865024248"><ele>36.0</ele><time>2026-04-28T16:12:32.997Z</time></trkpt><trkpt lat="49.15716150683551" lon="2.441882388362671"><ele>36.0</ele><time>2026-04-28T16:12:34.997Z</time></trkpt><trkpt lat="49.15724992688314" lon="2.441997875780092"><ele>36.0</ele><time>2026-04-28T16:12:36.997Z</time></trkpt><trkpt lat="49.15734062910749" lon="2.442108089345108"><ele>36.0</ele><time>2026-04-28T16:12:38.997Z</time></trkpt><trkpt lat="49.15741552569005" lon="2.4422015455196457"><ele>36.0</ele><time>2026-04-28T16:12:40.997Z</time></trkpt><trkpt lat="49.15747653866189" lon="2.4422836616769446"><ele>36.0</ele><time>2026-04-28T16:12:42.997Z</time></trkpt><trkpt lat="49.157537199675886" lon="2.4423667855523887"><ele>36.166666666666664</ele><time>2026-04-28T16:12:45Z</time></trkpt><trkpt lat="49.15760557339504" lon="2.4424610131157043"><ele>36.333333333333336</ele><time>2026-04-28T16:12:47Z</time></trkpt><trkpt lat="49.15767479586762" lon="2.442554547067097"><ele>36.5</ele><time>2026-04-28T16:12:49Z</time></trkpt><trkpt lat="49.15773735956529" lon="2.4426347967957462"><ele>36.66666666666667</ele><time>2026-04-28T16:12:51Z</time></trkpt><trkpt lat="49.15778332358404" lon="2.442713543333719"><ele>36.833333333333336</ele><time>2026-04-28T16:12:53Z</time></trkpt><trkpt lat="49.157775545702115" lon="2.4428580774538458"><ele>37.0</ele><time>2026-04-28T16:12:56Z</time></trkpt><trkpt lat="49.15770187930779" lon="2.4429686939749686"><ele>37.4</ele><time>2026-04-28T16:12:58Z</time></trkpt><trkpt lat="49.15761759478535" lon="2.443116313144351"><ele>37.800000000000004</ele><time>2026-04-28T16:13:00Z</time></trkpt><trkpt lat="49.157575101535016" lon="2.443200165619196"><ele>38.2</ele><time>2026-04-28T16:13:01Z</time></trkpt><trkpt lat="49.15753045624731" lon="2.4432800025753956"><ele>38.6</ele><time>2026-04-28T16:13:02Z</time></trkpt><trkpt lat="49.157499017876276" lon="2.4433695223254936"><ele>39.0</ele><time>2026-04-28T16:13:03Z</time></trkpt><trkpt lat="49.15742569430563" lon="2.4435142790391993"><ele>38.8</ele><time>2026-04-28T16:13:05Z</time></trkpt><trkpt lat="49.15736774507614" lon="2.443643011249536"><ele>38.599999999999994</ele><time>2026-04-28T16:13:07Z</time></trkpt><trkpt lat="49.15733998908373" lon="2.4437407865638754"><ele>38.4</ele><time>2026-04-28T16:13:08.999Z</time></trkpt><trkpt lat="49.15726682745997" lon="2.443626922721248"><ele>38.199999999999996</ele><time>2026-04-28T16:13:14.999Z</time></trkpt><trkpt lat="49.157206738401776" lon="2.443560839527199"><ele>38.0</ele><time>2026-04-28T16:13:16.999Z</time></trkpt><trkpt lat="49.157103552616306" lon="2.443475747513419"><ele>38.0</ele><time>2026-04-28T16:13:18.999Z</time></trkpt><trkpt lat="49.15704613710631" lon="2.4434284000495508"><ele>38.0</ele><time>2026-04-28T16:13:19.999Z</time></trkpt><trkpt lat="49.156936276131816" lon="2.4435184996696417"><ele>38.0</ele><time>2026-04-28T16:13:20.999Z</time></trkpt><trkpt lat="49.15686454506684" lon="2.4434873916967175"><ele>38.0</ele><time>2026-04-28T16:13:21.999Z</time></trkpt><trkpt lat="49.1567862660942" lon="2.4434557917759525"><ele>38.0</ele><time>2026-04-28T16:13:22.999Z</time></trkpt><trkpt lat="49.156702360665186" lon="2.4434204744221435"><ele>38.0</ele><time>2026-04-28T16:13:23.999Z</time></trkpt><trkpt lat="49.156619450764616" lon="2.443385193904113"><ele>38.0</ele><time>2026-04-28T16:13:24.999Z</time></trkpt><trkpt lat="49.15654070347794" lon="2.443348210160837"><ele>38.0</ele><time>2026-04-28T16:13:25.999Z</time></trkpt><trkpt lat="49.15646546612085" lon="2.4433079427918467"><ele>38.0</ele><time>2026-04-28T16:13:26.999Z</time></trkpt><trkpt lat="49.15639610098929" lon="2.4432726552360364"><ele>38.0</ele><time>2026-04-28T16:13:27.999Z</time></trkpt><trkpt lat="49.156331677504525" lon="2.4432406689727952"><ele>38.0</ele><time>2026-04-28T16:13:28.999Z</time></trkpt><trkpt lat="49.156268986655704" lon="2.443211181799026"><ele>38.0</ele><time>2026-04-28T16:13:29.999Z</time></trkpt><trkpt lat="49.15620712451944" lon="2.443185020076238"><ele>38.0</ele><time>2026-04-28T16:13:30.999Z</time></trkpt><trkpt lat="49.15609531144376" lon="2.4431374045833762"><ele>37.8</ele><time>2026-04-28T16:13:32.999Z</time></trkpt><trkpt lat="49.156007607492946" lon="2.4431118416408326"><ele>37.599999999999994</ele><time>2026-04-28T16:13:34.999Z</time></trkpt><trkpt lat="49.155938495510746" lon="2.4432977628244106"><ele>37.400000000000006</ele><time>2026-04-28T16:13:38.999Z</time></trkpt><trkpt lat="49.15592284522545" lon="2.443456011913942"><ele>37.2</ele><time>2026-04-28T16:13:40.999Z</time></trkpt><trkpt lat="49.15590038718284" lon="2.4436268268137447"><ele>37.0</ele><time>2026-04-28T16:13:42.999Z</time></trkpt><trkpt lat="49.155882799708856" lon="2.4437993395926085"><ele>37.0</ele><time>2026-04-28T16:13:44.999Z</time></trkpt><trkpt lat="49.15586194871601" lon="2.4439554891984647"><ele>37.0</ele><time>2026-04-28T16:13:46.999Z</time></trkpt><trkpt lat="49.15584231672908" lon="2.4441128427857794"><ele>37.0</ele><time>2026-04-28T16:13:48.998Z</time></trkpt><trkpt lat="49.15582772181925" lon="2.444237830119617"><ele>37.0</ele><time>2026-04-28T16:13:50.998Z</time></trkpt><trkpt lat="49.15581363874324" lon="2.4443618168585624"><ele>37.0</ele><time>2026-04-28T16:13:54.998Z</time></trkpt><trkpt lat="49.15583855230808" lon="2.4444604308152553"><ele>37.0</ele><time>2026-04-28T16:13:58.998Z</time></trkpt><trkpt lat="49.155798367160884" lon="2.444563091092233"><ele>37.0</ele><time>2026-04-28T16:14:05.998Z</time></trkpt><trkpt lat="49.156019882304214" lon="2.4446679556348396"><ele>37.0</ele><time>2026-04-28T16:14:32.997Z</time></trkpt><trkpt lat="49.156082190343106" lon="2.4446400697888215"><ele>37.0</ele><time>2026-04-28T16:15:04Z</time></trkpt><trkpt lat="49.15611291393853" lon="2.44454518678438"><ele>37.0</ele><time>2026-04-28T16:15:12.999Z</time></trkpt><trkpt lat="49.15618498624585" lon="2.4445399718758467"><ele>37.0</ele><time>2026-04-28T16:15:19.999Z</time></trkpt><trkpt lat="49.15624968183135" lon="2.444528644115795"><ele>37.0</ele><time>2026-04-28T16:15:25.999Z</time></trkpt><trkpt lat="49.15631558585402" lon="2.444570531321057"><ele>37.0</ele><time>2026-04-28T16:15:35.999Z</time></trkpt><trkpt lat="49.15635474213811" lon="2.4444773395575656"><ele>37.0</ele><time>2026-04-28T16:15:51.998Z</time></trkpt><trkpt lat="49.1564202227083" lon="2.444469751734984"><ele>37.0</ele><time>2026-04-28T16:15:57.998Z</time></trkpt><trkpt lat="49.156413490927115" lon="2.4443162742093167"><ele>37.0</ele><time>2026-04-28T16:16:09.998Z</time></trkpt><trkpt lat="49.156486151601754" lon="2.4443408344208333"><ele>37.0</ele><time>2026-04-28T16:16:16.998Z</time></trkpt><trkpt lat="49.15653623870116" lon="2.4442440790425133"><ele>37.0</ele><time>2026-04-28T16:16:29.998Z</time></trkpt><trkpt lat="49.15663747542126" lon="2.4441799572660323"><ele>37.0</ele><time>2026-04-28T16:16:56.999Z</time></trkpt><trkpt lat="49.15650985440317" lon="2.444145034899185"><ele>37.0</ele><time>2026-04-28T16:18:52.861Z</time></trkpt><trkpt lat="49.15640784795623" lon="2.44413471613136"><ele>37.0</ele><time>2026-04-28T16:19:04.86Z</time></trkpt><trkpt lat="49.15642444506751" lon="2.444040036226773"><ele>37.0</ele><time>2026-04-28T16:21:58.036Z</time></trkpt><trkpt lat="49.156573564134185" lon="2.443729276068011"><ele>37.0</ele><time>2026-04-28T16:22:25.999Z</time></trkpt><trkpt lat="49.15665180516843" lon="2.443613748512516"><ele>37.0</ele><time>2026-04-28T16:26:34.056Z</time></trkpt><trkpt lat="49.15657327345476" lon="2.4435506806128213"><ele>37.0</ele><time>2026-04-28T16:26:37.999Z</time></trkpt><trkpt lat="49.15648386369396" lon="2.4435753745331965"><ele>37.0</ele><time>2026-04-28T16:26:38.999Z</time></trkpt><trkpt lat="49.15651997641686" lon="2.4436954443290038"><ele>37.0</ele><time>2026-04-28T16:26:48.999Z</time></trkpt><trkpt lat="49.15638354906422" lon="2.443878408837149"><ele>37.0</ele><time>2026-04-28T16:27:14.866Z</time></trkpt><trkpt lat="49.15638527697526" lon="2.4440378542624597"><ele>37.0</ele><time>2026-04-28T16:27:22.491Z</time></trkpt><trkpt lat="49.15630638154708" lon="2.444326413014749"><ele>37.0</ele><time>2026-04-28T16:29:15.962Z</time></trkpt><trkpt lat="49.15619656412754" lon="2.4445602012086423"><ele>37.0</ele><time>2026-04-28T16:29:16.996Z</time></trkpt><trkpt lat="49.156116572616256" lon="2.4443974572173675"><ele>37.0</ele><time>2026-04-28T16:29:22.998Z</time></trkpt><trkpt lat="49.15606580619647" lon="2.4444716970447375"><ele>37.0</ele><time>2026-04-28T16:30:18.998Z</time></trkpt><trkpt lat="49.15602342267222" lon="2.444550014425346"><ele>37.0</ele><time>2026-04-28T16:30:24.998Z</time></trkpt><trkpt lat="49.15597313761704" lon="2.4446437038756486"><ele>37.0</ele><time>2026-04-28T16:30:31.998Z</time></trkpt><trkpt lat="49.15596693751837" lon="2.4445033881335254"><ele>37.0</ele><time>2026-04-28T16:31:32.999Z</time></trkpt><trkpt lat="49.155908786840925" lon="2.4444523582632858"><ele>37.0</ele><time>2026-04-28T16:31:36.999Z</time></trkpt><trkpt lat="49.155844132050404" lon="2.4444626073648807"><ele>37.0</ele><time>2026-04-28T16:31:39.999Z</time></trkpt><trkpt lat="49.1557587471116" lon="2.444417301161108"><ele>37.0</ele><time>2026-04-28T16:31:42.999Z</time></trkpt><trkpt lat="49.1556909658345" lon="2.444463761696181"><ele>37.0</ele><time>2026-04-28T16:31:45.999Z</time></trkpt><trkpt lat="49.15567243199913" lon="2.4445903003830036"><ele>37.0</ele><time>2026-04-28T16:31:47.999Z</time></trkpt><trkpt lat="49.155661432810746" lon="2.444704176078648"><ele>37.0</ele><time>2026-04-28T16:31:49.999Z</time></trkpt><trkpt lat="49.15564770801584" lon="2.4448073138184654"><ele>36.85714285714286</ele><time>2026-04-28T16:31:51.999Z</time></trkpt><trkpt lat="49.15563530089394" lon="2.4449103156590763"><ele>36.714285714285715</ele><time>2026-04-28T16:31:53.999Z</time></trkpt><trkpt lat="49.15561750819106" lon="2.4450116797944266"><ele>36.57142857142857</ele><time>2026-04-28T16:31:55.999Z</time></trkpt><trkpt lat="49.155574790452896" lon="2.4450894319288228"><ele>36.42857142857143</ele><time>2026-04-28T16:31:57.999Z</time></trkpt><trkpt lat="49.15551870637656" lon="2.445142563107947"><ele>36.285714285714285</ele><time>2026-04-28T16:32:00.999Z</time></trkpt><trkpt lat="49.15544999936041" lon="2.445128830833816"><ele>36.142857142857146</ele><time>2026-04-28T16:32:02.999Z</time></trkpt><trkpt lat="49.155388369947794" lon="2.445094279081542"><ele>36.0</ele><time>2026-04-28T16:32:04.999Z</time></trkpt><trkpt lat="49.15532381922876" lon="2.445070396672759"><ele>36.0</ele><time>2026-04-28T16:32:08.999Z</time></trkpt><trkpt lat="49.155248148844365" lon="2.4450334383737378"><ele>36.0</ele><time>2026-04-28T16:32:49.998Z</time></trkpt><trkpt lat="49.15514790091868" lon="2.4449899213989528"><ele>36.0</ele><time>2026-04-28T16:32:51.998Z</time></trkpt><trkpt lat="49.15508078682855" lon="2.4449620108008268"><ele>36.0</ele><time>2026-04-28T16:32:52.998Z</time></trkpt><trkpt lat="49.15499417156819" lon="2.4449259483905097"><ele>36.0</ele><time>2026-04-28T16:32:53.998Z</time></trkpt><trkpt lat="49.15490035887296" lon="2.4448865112688005"><ele>36.0</ele><time>2026-04-28T16:32:54.998Z</time></trkpt><trkpt lat="49.15481094144767" lon="2.4448476085128563"><ele>36.6</ele><time>2026-04-28T16:32:55.998Z</time></trkpt><trkpt lat="49.154720656324244" lon="2.4448058094997376"><ele>37.2</ele><time>2026-04-28T16:32:56.998Z</time></trkpt><trkpt lat="49.154630872056195" lon="2.444764559417592"><ele>37.8</ele><time>2026-04-28T16:32:57.998Z</time></trkpt><trkpt lat="49.15454250925861" lon="2.444722639398448"><ele>38.4</ele><time>2026-04-28T16:32:58.998Z</time></trkpt><trkpt lat="49.15445606507899" lon="2.44468497653192"><ele>39.0</ele><time>2026-04-28T16:32:59.998Z</time></trkpt><trkpt lat="49.15437501219551" lon="2.4446488923156027"><ele>38.57142857142858</ele><time>2026-04-28T16:33:00.998Z</time></trkpt><trkpt lat="49.15430268157333" lon="2.4446175910974044"><ele>38.14285714285714</ele><time>2026-04-28T16:33:01.998Z</time></trkpt><trkpt lat="49.15423775128432" lon="2.444589167723649"><ele>37.714285714285715</ele><time>2026-04-28T16:33:02.998Z</time></trkpt><trkpt lat="49.15417272881897" lon="2.444560302261597"><ele>37.28571428571429</ele><time>2026-04-28T16:33:03.998Z</time></trkpt><trkpt lat="49.154105966468784" lon="2.444529877724841"><ele>36.85714285714286</ele><time>2026-04-28T16:33:04.998Z</time></trkpt><trkpt lat="49.15403511671265" lon="2.444497556076409"><ele>36.42857142857143</ele><time>2026-04-28T16:33:05.998Z</time></trkpt><trkpt lat="49.1539626481516" lon="2.444464172055815"><ele>36.0</ele><time>2026-04-28T16:33:06.998Z</time></trkpt><trkpt lat="49.153888966426" lon="2.4444302455114943"><ele>35.833333333333336</ele><time>2026-04-28T16:33:07.998Z</time></trkpt><trkpt lat="49.15381346053986" lon="2.444395239691622"><ele>35.666666666666664</ele><time>2026-04-28T16:33:08.998Z</time></trkpt><trkpt lat="49.15373502613553" lon="2.4443588249400885"><ele>35.5</ele><time>2026-04-28T16:33:09.998Z</time></trkpt><trkpt lat="49.15365547090352" lon="2.444323041630197"><ele>35.33333333333333</ele><time>2026-04-28T16:33:10.998Z</time></trkpt><trkpt lat="49.15357876059216" lon="2.4442884440788397"><ele>35.166666666666664</ele><time>2026-04-28T16:33:11.998Z</time></trkpt><trkpt lat="49.15350449913053" lon="2.444254649076148"><ele>35.0</ele><time>2026-04-28T16:33:12.998Z</time></trkpt><trkpt lat="49.153432211351145" lon="2.44422147138686"><ele>35.0</ele><time>2026-04-28T16:33:13.998Z</time></trkpt><trkpt lat="49.15336134380187" lon="2.444188052585305"><ele>35.0</ele><time>2026-04-28T16:33:14.998Z</time></trkpt><trkpt lat="49.15328572859436" lon="2.4441684218693043"><ele>35.0</ele><time>2026-04-28T16:33:15.998Z</time></trkpt><trkpt lat="49.15321023729472" lon="2.4441627086035496"><ele>35.0</ele><time>2026-04-28T16:33:16.998Z</time></trkpt><trkpt lat="49.15313781615202" lon="2.444142906912918"><ele>35.0</ele><time>2026-04-28T16:33:17.998Z</time></trkpt><trkpt lat="49.153068729960644" lon="2.444110439055594"><ele>35.0</ele><time>2026-04-28T16:33:18.998Z</time></trkpt><trkpt lat="49.15300064826776" lon="2.4440779284798086"><ele>35.0</ele><time>2026-04-28T16:33:19.998Z</time></trkpt><trkpt lat="49.15293497187359" lon="2.444046129540186"><ele>34.83333333333333</ele><time>2026-04-28T16:33:20.998Z</time></trkpt><trkpt lat="49.152873651543864" lon="2.444016031161599"><ele>34.666666666666664</ele><time>2026-04-28T16:33:21.998Z</time></trkpt><trkpt lat="49.152787132275236" lon="2.4439708085296523"><ele>34.5</ele><time>2026-04-28T16:33:23.998Z</time></trkpt><trkpt lat="49.15272141638333" lon="2.443935800679835"><ele>34.333333333333336</ele><time>2026-04-28T16:33:26.997Z</time></trkpt><trkpt lat="49.152648937592666" lon="2.443897664725279"><ele>34.16666666666667</ele><time>2026-04-28T16:33:29.997Z</time></trkpt><trkpt lat="49.15258756415355" lon="2.4438680223059293"><ele>34.0</ele><time>2026-04-28T16:33:34Z</time></trkpt><trkpt lat="49.15250283786332" lon="2.443821541700403"><ele>33.8</ele><time>2026-04-28T16:33:41Z</time></trkpt><trkpt lat="49.152433449467765" lon="2.443753079261794"><ele>33.599999999999994</ele><time>2026-04-28T16:33:48Z</time></trkpt><trkpt lat="49.152383540665234" lon="2.443656894582858"><ele>33.4</ele><time>2026-04-28T16:33:50Z</time></trkpt><trkpt lat="49.152345187180735" lon="2.443524910904286"><ele>33.199999999999996</ele><time>2026-04-28T16:33:52Z</time></trkpt><trkpt lat="49.15225586941947" lon="2.443436364341212"><ele>33.0</ele><time>2026-04-28T16:33:54Z</time></trkpt><trkpt lat="49.1521501377979" lon="2.443484194971854"><ele>33.4</ele><time>2026-04-28T16:33:56Z</time></trkpt><trkpt lat="49.152018289299086" lon="2.443543568092211"><ele>33.8</ele><time>2026-04-28T16:33:58Z</time></trkpt><trkpt lat="49.151942660748134" lon="2.443534663012733"><ele>34.2</ele><time>2026-04-28T16:33:59Z</time></trkpt><trkpt lat="49.15186233192926" lon="2.443516056119225"><ele>34.6</ele><time>2026-04-28T16:34:00Z</time></trkpt><trkpt lat="49.1517784425095" lon="2.443485320228726"><ele>35.0</ele><time>2026-04-28T16:34:01Z</time></trkpt><trkpt lat="49.15169223799311" lon="2.4434463249829492"><ele>35.0</ele><time>2026-04-28T16:34:02Z</time></trkpt><trkpt lat="49.15160522025738" lon="2.443406935686633"><ele>35.0</ele><time>2026-04-28T16:34:03Z</time></trkpt><trkpt lat="49.1515193355928" lon="2.443367506228179"><ele>35.0</ele><time>2026-04-28T16:34:04Z</time></trkpt><trkpt lat="49.1514343326821" lon="2.443329384811868"><ele>35.0</ele><time>2026-04-28T16:34:04.999Z</time></trkpt><trkpt lat="49.151351052811904" lon="2.4432923993842945"><ele>35.0</ele><time>2026-04-28T16:34:05.999Z</time></trkpt><trkpt lat="49.15126867301895" lon="2.443256605955461"><ele>35.0</ele><time>2026-04-28T16:34:06.999Z</time></trkpt><trkpt lat="49.151185609628236" lon="2.4432210806515595"><ele>34.666666666666664</ele><time>2026-04-28T16:34:07.999Z</time></trkpt><trkpt lat="49.15110337350378" lon="2.443185630844494"><ele>34.33333333333333</ele><time>2026-04-28T16:34:08.999Z</time></trkpt><trkpt lat="49.15102130856979" lon="2.443148632559867"><ele>34.0</ele><time>2026-04-28T16:34:09.999Z</time></trkpt><trkpt lat="49.15093929090059" lon="2.4431076380727816"><ele>33.666666666666664</ele><time>2026-04-28T16:34:10.999Z</time></trkpt><trkpt lat="49.150856741872374" lon="2.4430658221511607"><ele>33.333333333333336</ele><time>2026-04-28T16:34:11.999Z</time></trkpt><trkpt lat="49.15077265222183" lon="2.443027326549095"><ele>33.0</ele><time>2026-04-28T16:34:12.999Z</time></trkpt><trkpt lat="49.150687151781014" lon="2.442991546623254"><ele>32.8</ele><time>2026-04-28T16:34:13.999Z</time></trkpt><trkpt lat="49.150600435162254" lon="2.4429559627453905"><ele>32.599999999999994</ele><time>2026-04-28T16:34:14.999Z</time></trkpt><trkpt lat="49.150512607302865" lon="2.4429201632822064"><ele>32.400000000000006</ele><time>2026-04-28T16:34:15.999Z</time></trkpt><trkpt lat="49.15042502780822" lon="2.4428846964804434"><ele>32.2</ele><time>2026-04-28T16:34:16.999Z</time></trkpt><trkpt lat="49.15033801450594" lon="2.442846613060476"><ele>32.0</ele><time>2026-04-28T16:34:17.999Z</time></trkpt><trkpt lat="49.15025210048667" lon="2.442808974815732"><ele>31.999999999999996</ele><time>2026-04-28T16:34:18.999Z</time></trkpt><trkpt lat="49.15016679993923" lon="2.4427740033886534"><ele>32.0</ele><time>2026-04-28T16:34:19.999Z</time></trkpt><trkpt lat="49.150080942874865" lon="2.4427381780956012"><ele>32.0</ele><time>2026-04-28T16:34:20.999Z</time></trkpt><trkpt lat="49.14999437486586" lon="2.4427010374540488"><ele>32.0</ele><time>2026-04-28T16:34:21.999Z</time></trkpt><trkpt lat="49.149907775808806" lon="2.442660866877507"><ele>31.999999999999996</ele><time>2026-04-28T16:34:22.999Z</time></trkpt><trkpt lat="49.14982052887426" lon="2.4426206041915712"><ele>32.0</ele><time>2026-04-28T16:34:23.999Z</time></trkpt><trkpt lat="49.14973279551452" lon="2.442580415746393"><ele>32.0</ele><time>2026-04-28T16:34:24.999Z</time></trkpt><trkpt lat="49.14964453408889" lon="2.4425398051678364"><ele>32.0</ele><time>2026-04-28T16:34:25.999Z</time></trkpt><trkpt lat="49.14955464884028" lon="2.4424988165487242"><ele>32.0</ele><time>2026-04-28T16:34:26.999Z</time></trkpt><trkpt lat="49.14946376733138" lon="2.4424571240506014"><ele>32.0</ele><time>2026-04-28T16:34:27.999Z</time></trkpt><trkpt lat="49.14937205588224" lon="2.4424143373259897"><ele>32.0</ele><time>2026-04-28T16:34:28.999Z</time></trkpt><trkpt lat="49.14927930580744" lon="2.442371395117774"><ele>32.0</ele><time>2026-04-28T16:34:29.999Z</time></trkpt><trkpt lat="49.14918519042012" lon="2.442330360806733"><ele>32.0</ele><time>2026-04-28T16:34:30.999Z</time></trkpt><trkpt lat="49.1490880710734" lon="2.442287438448157"><ele>32.0</ele><time>2026-04-28T16:34:31.999Z</time></trkpt><trkpt lat="49.14898690349307" lon="2.442240721560799"><ele>32.0</ele><time>2026-04-28T16:34:32.999Z</time></trkpt><trkpt lat="49.14888616630796" lon="2.4421940737531056"><ele>32.0</ele><time>2026-04-28T16:34:33.999Z</time></trkpt><trkpt lat="49.14878595293127" lon="2.442148718811063"><ele>31.8</ele><time>2026-04-28T16:34:34.999Z</time></trkpt><trkpt lat="49.148686910153955" lon="2.4421047479321416"><ele>31.6</ele><time>2026-04-28T16:34:35.999Z</time></trkpt><trkpt lat="49.14858937705235" lon="2.4420607296178334"><ele>31.400000000000002</ele><time>2026-04-28T16:34:36.999Z</time></trkpt><trkpt lat="49.14849018536007" lon="2.44201660556213"><ele>31.200000000000003</ele><time>2026-04-28T16:34:37.999Z</time></trkpt><trkpt lat="49.148387629611214" lon="2.4419712785654357"><ele>31.0</ele><time>2026-04-28T16:34:38.999Z</time></trkpt><trkpt lat="49.148275659661394" lon="2.4419211751032583"><ele>30.75</ele><time>2026-04-28T16:34:39.999Z</time></trkpt><trkpt lat="49.1481647690926" lon="2.4418720569342676"><ele>30.5</ele><time>2026-04-28T16:34:40.999Z</time></trkpt><trkpt lat="49.14805561401303" lon="2.441822730748419"><ele>30.25</ele><time>2026-04-28T16:34:41.999Z</time></trkpt><trkpt lat="49.14794868435787" lon="2.4417738786165755"><ele>30.0</ele><time>2026-04-28T16:34:42.999Z</time></trkpt><trkpt lat="49.14784412305817" lon="2.4417263192874485"><ele>30.0</ele><time>2026-04-28T16:34:43.999Z</time></trkpt><trkpt lat="49.14774131152439" lon="2.4416792734392194"><ele>30.0</ele><time>2026-04-28T16:34:44.999Z</time></trkpt><trkpt lat="49.147640563021135" lon="2.441634972346576"><ele>30.0</ele><time>2026-04-28T16:34:45.999Z</time></trkpt><trkpt lat="49.14754206819097" lon="2.441590851017758"><ele>30.0</ele><time>2026-04-28T16:34:46.999Z</time></trkpt><trkpt lat="49.14744333264862" lon="2.4415454984773937"><ele>30.0</ele><time>2026-04-28T16:34:47.999Z</time></trkpt><trkpt lat="49.14734382925561" lon="2.4414990016679803"><ele>30.2</ele><time>2026-04-28T16:34:48.999Z</time></trkpt><trkpt lat="49.14724155688247" lon="2.441449158697436"><ele>30.4</ele><time>2026-04-28T16:34:49.999Z</time></trkpt><trkpt lat="49.14713808323336" lon="2.441399457620128"><ele>30.6</ele><time>2026-04-28T16:34:50.999Z</time></trkpt><trkpt lat="49.147034668865565" lon="2.441350958218055"><ele>30.8</ele><time>2026-04-28T16:34:51.999Z</time></trkpt><trkpt lat="49.146931251958776" lon="2.4413042083261964"><ele>31.0</ele><time>2026-04-28T16:34:52.999Z</time></trkpt><trkpt lat="49.14683045107747" lon="2.441256400808608"><ele>31.200000000000003</ele><time>2026-04-28T16:34:53.999Z</time></trkpt><trkpt lat="49.14673142687103" lon="2.441207584513924"><ele>31.400000000000002</ele><time>2026-04-28T16:34:54.999Z</time></trkpt><trkpt lat="49.14663338336691" lon="2.441156572202914"><ele>31.6</ele><time>2026-04-28T16:34:55.999Z</time></trkpt><trkpt lat="49.1465364038168" lon="2.4411063665869284"><ele>31.8</ele><time>2026-04-28T16:34:56.999Z</time></trkpt><trkpt lat="49.146439717801734" lon="2.44106052843871"><ele>32.0</ele><time>2026-04-28T16:34:57.999Z</time></trkpt><trkpt lat="49.146344065064774" lon="2.441023945594226"><ele>32.83333333333333</ele><time>2026-04-28T16:34:58.999Z</time></trkpt><trkpt lat="49.146248063840645" lon="2.440991460756496"><ele>33.666666666666664</ele><time>2026-04-28T16:34:59.999Z</time></trkpt><trkpt lat="49.146154998427924" lon="2.440955566863402"><ele>34.5</ele><time>2026-04-28T16:35:00.999Z</time></trkpt><trkpt lat="49.146067476585216" lon="2.4409203887324757"><ele>35.333333333333336</ele><time>2026-04-28T16:35:01.999Z</time></trkpt><trkpt lat="49.14598426500743" lon="2.440891749868867"><ele>36.16666666666667</ele><time>2026-04-28T16:35:02.998Z</time></trkpt><trkpt lat="49.14590677927033" lon="2.4408673738315327"><ele>37.0</ele><time>2026-04-28T16:35:03.998Z</time></trkpt><trkpt lat="49.1458348644798" lon="2.4408416701603555"><ele>37.0</ele><time>2026-04-28T16:35:04.998Z</time></trkpt><trkpt lat="49.14577330865977" lon="2.4407974401226666"><ele>37.0</ele><time>2026-04-28T16:35:05.998Z</time></trkpt><trkpt lat="49.14570548258703" lon="2.440717374688619"><ele>37.0</ele><time>2026-04-28T16:35:08.998Z</time></trkpt><trkpt lat="49.145653905850565" lon="2.4405963631790906"><ele>37.0</ele><time>2026-04-28T16:35:10.998Z</time></trkpt><trkpt lat="49.14557541245765" lon="2.4404889849642397"><ele>37.0</ele><time>2026-04-28T16:35:12.998Z</time></trkpt><trkpt lat="49.14546049483609" lon="2.440506416018056"><ele>38.0</ele><time>2026-04-28T16:35:14.998Z</time></trkpt><trkpt lat="49.14538080068133" lon="2.4406375390119157"><ele>39.0</ele><time>2026-04-28T16:35:16.998Z</time></trkpt><trkpt lat="49.14539189128956" lon="2.4408395115313986"><ele>40.0</ele><time>2026-04-28T16:35:18.998Z</time></trkpt><trkpt lat="49.14543014118128" lon="2.4409299101154995"><ele>41.0</ele><time>2026-04-28T16:35:19.998Z</time></trkpt><trkpt lat="49.14545181053686" lon="2.441031289781426"><ele>42.0</ele><time>2026-04-28T16:35:20.998Z</time></trkpt><trkpt lat="49.145453944114514" lon="2.441155746895048"><ele>42.0</ele><time>2026-04-28T16:35:21.998Z</time></trkpt><trkpt lat="49.145436950037414" lon="2.441300644990472"><ele>42.0</ele><time>2026-04-28T16:35:22.998Z</time></trkpt><trkpt lat="49.145409011002066" lon="2.4414403310764548"><ele>42.0</ele><time>2026-04-28T16:35:23.998Z</time></trkpt><trkpt lat="49.14537747339207" lon="2.4415960047963225"><ele>42.0</ele><time>2026-04-28T16:35:24.998Z</time></trkpt><trkpt lat="49.145339798064434" lon="2.441757640473962"><ele>42.0</ele><time>2026-04-28T16:35:25.998Z</time></trkpt><trkpt lat="49.14530226925621" lon="2.441926641218153"><ele>42.0</ele><time>2026-04-28T16:35:26.998Z</time></trkpt><trkpt lat="49.14526436492166" lon="2.4420960751652374"><ele>42.0</ele><time>2026-04-28T16:35:27.998Z</time></trkpt><trkpt lat="49.145228152462586" lon="2.4422667842627677"><ele>42.0</ele><time>2026-04-28T16:35:28.998Z</time></trkpt><trkpt lat="49.145190740172275" lon="2.4424410620156984"><ele>42.0</ele><time>2026-04-28T16:35:29.998Z</time></trkpt><trkpt lat="49.1451511965704" lon="2.442623045105011"><ele>42.25</ele><time>2026-04-28T16:35:30.998Z</time></trkpt><trkpt lat="49.14511176724779" lon="2.442798483166131"><ele>42.5</ele><time>2026-04-28T16:35:31.998Z</time></trkpt><trkpt lat="49.14507128851652" lon="2.442984243666573"><ele>42.75</ele><time>2026-04-28T16:35:32.998Z</time></trkpt><trkpt lat="49.145029823359685" lon="2.4431752916874943"><ele>43.0</ele><time>2026-04-28T16:35:33.998Z</time></trkpt><trkpt lat="49.144986204342736" lon="2.4433674227066815"><ele>43.0</ele><time>2026-04-28T16:35:34.998Z</time></trkpt><trkpt lat="49.144940559273834" lon="2.443561719954925"><ele>43.0</ele><time>2026-04-28T16:35:35.998Z</time></trkpt><trkpt lat="49.1448970436573" lon="2.4437617499746733"><ele>43.0</ele><time>2026-04-28T16:35:36.998Z</time></trkpt><trkpt lat="49.14485221620689" lon="2.443962293569769"><ele>43.0</ele><time>2026-04-28T16:35:38Z</time></trkpt><trkpt lat="49.144805654540875" lon="2.4441631644045394"><ele>43.75</ele><time>2026-04-28T16:35:39Z</time></trkpt><trkpt lat="49.14475957241722" lon="2.4443651663532755"><ele>44.5</ele><time>2026-04-28T16:35:40Z</time></trkpt><trkpt lat="49.14471391018848" lon="2.4445689357437366"><ele>45.25</ele><time>2026-04-28T16:35:41Z</time></trkpt><trkpt lat="49.144667493136026" lon="2.444774925425806"><ele>46.0</ele><time>2026-04-28T16:35:42Z</time></trkpt><trkpt lat="49.144621401660594" lon="2.4449822369990675"><ele>46.0</ele><time>2026-04-28T16:35:43Z</time></trkpt><trkpt lat="49.144576460285045" lon="2.4451908072008917"><ele>46.0</ele><time>2026-04-28T16:35:44Z</time></trkpt><trkpt lat="49.14453126242309" lon="2.4454004274195285"><ele>46.0</ele><time>2026-04-28T16:35:45Z</time></trkpt><trkpt lat="49.144485573911" lon="2.445610879765013"><ele>46.0</ele><time>2026-04-28T16:35:46Z</time></trkpt><trkpt lat="49.144438194374516" lon="2.4458217443900625"><ele>45.75</ele><time>2026-04-28T16:35:47Z</time></trkpt><trkpt lat="49.144388786901956" lon="2.4460361202491656"><ele>45.5</ele><time>2026-04-28T16:35:48Z</time></trkpt><trkpt lat="49.14434140185834" lon="2.4462527491488593"><ele>45.25</ele><time>2026-04-28T16:35:49Z</time></trkpt><trkpt lat="49.14429403207873" lon="2.446470746997667"><ele>45.0</ele><time>2026-04-28T16:35:50Z</time></trkpt><trkpt lat="49.14424784261138" lon="2.446686496099491"><ele>45.0</ele><time>2026-04-28T16:35:51Z</time></trkpt><trkpt lat="49.14419845782007" lon="2.44690214410302"><ele>45.0</ele><time>2026-04-28T16:35:52Z</time></trkpt><trkpt lat="49.144149112295096" lon="2.447117795807118"><ele>45.0</ele><time>2026-04-28T16:35:53Z</time></trkpt><trkpt lat="49.144100010595714" lon="2.4473334664169086"><ele>45.0</ele><time>2026-04-28T16:35:54Z</time></trkpt><trkpt lat="49.14405374352627" lon="2.4475505283054604"><ele>46.0</ele><time>2026-04-28T16:35:55Z</time></trkpt><trkpt lat="49.14400544087139" lon="2.4477672949417157"><ele>47.0</ele><time>2026-04-28T16:35:56Z</time></trkpt><trkpt lat="49.14395603097546" lon="2.447984521891739"><ele>48.0</ele><time>2026-04-28T16:35:57Z</time></trkpt><trkpt lat="49.14390612348452" lon="2.4482006729711174"><ele>48.0</ele><time>2026-04-28T16:35:58Z</time></trkpt><trkpt lat="49.143858540372676" lon="2.4484183432228392"><ele>48.0</ele><time>2026-04-28T16:35:59Z</time></trkpt><trkpt lat="49.14381011708268" lon="2.448635328354626"><ele>48.0</ele><time>2026-04-28T16:36:00Z</time></trkpt><trkpt lat="49.14376154789811" lon="2.4488515444134147"><ele>47.5</ele><time>2026-04-28T16:36:01Z</time></trkpt><trkpt lat="49.14371269678942" lon="2.449064704511622"><ele>47.0</ele><time>2026-04-28T16:36:02Z</time></trkpt><trkpt lat="49.14366518543924" lon="2.4492764915883196"><ele>46.5</ele><time>2026-04-28T16:36:03Z</time></trkpt><trkpt lat="49.143621833067165" lon="2.449481772754753"><ele>46.0</ele><time>2026-04-28T16:36:04Z</time></trkpt><trkpt lat="49.14357861735625" lon="2.4496894150023656"><ele>45.25</ele><time>2026-04-28T16:36:05Z</time></trkpt><trkpt lat="49.143533936656276" lon="2.4498959189761553"><ele>44.5</ele><time>2026-04-28T16:36:06Z</time></trkpt><trkpt lat="49.143491015794616" lon="2.450101461980423"><ele>43.75</ele><time>2026-04-28T16:36:07Z</time></trkpt><trkpt lat="49.14345204700976" lon="2.450307246368804"><ele>43.0</ele><time>2026-04-28T16:36:08Z</time></trkpt><trkpt lat="49.14342124351249" lon="2.450514528000251"><ele>43.0</ele><time>2026-04-28T16:36:09Z</time></trkpt><trkpt lat="49.14340590415761" lon="2.450722981405953"><ele>43.0</ele><time>2026-04-28T16:36:10Z</time></trkpt><trkpt lat="49.14339191435295" lon="2.4509313175993728"><ele>43.0</ele><time>2026-04-28T16:36:11Z</time></trkpt><trkpt lat="49.143384202267434" lon="2.4511387181220807"><ele>43.0</ele><time>2026-04-28T16:36:12Z</time></trkpt><trkpt lat="49.14337760165466" lon="2.4513464750915173"><ele>43.0</ele><time>2026-04-28T16:36:13Z</time></trkpt><trkpt lat="49.143370379842935" lon="2.451555281555974"><ele>43.0</ele><time>2026-04-28T16:36:14Z</time></trkpt><trkpt lat="49.14336350326667" lon="2.451766277395589"><ele>43.0</ele><time>2026-04-28T16:36:15Z</time></trkpt><trkpt lat="49.143356244247265" lon="2.4519802807171227"><ele>43.0</ele><time>2026-04-28T16:36:16Z</time></trkpt><trkpt lat="49.14334815125228" lon="2.452195373051287"><ele>43.25</ele><time>2026-04-28T16:36:17Z</time></trkpt><trkpt lat="49.14333985456875" lon="2.4524119442467662"><ele>43.5</ele><time>2026-04-28T16:36:18Z</time></trkpt><trkpt lat="49.143332428413764" lon="2.4526245395465653"><ele>43.75</ele><time>2026-04-28T16:36:19Z</time></trkpt><trkpt lat="49.143325847595506" lon="2.452837801193314"><ele>44.0</ele><time>2026-04-28T16:36:20Z</time></trkpt><trkpt lat="49.143320826336485" lon="2.4530480408611135"><ele>44.0</ele><time>2026-04-28T16:36:21Z</time></trkpt><trkpt lat="49.14331404449206" lon="2.4532604773186026"><ele>44.0</ele><time>2026-04-28T16:36:21.999Z</time></trkpt><trkpt lat="49.14330469457537" lon="2.453476446659747"><ele>44.0</ele><time>2026-04-28T16:36:22.999Z</time></trkpt><trkpt lat="49.14329620211924" lon="2.4536953157335266"><ele>44.0</ele><time>2026-04-28T16:36:23.999Z</time></trkpt><trkpt lat="49.143289225258506" lon="2.453917114108743"><ele>44.75</ele><time>2026-04-28T16:36:24.999Z</time></trkpt><trkpt lat="49.14328112103261" lon="2.454141009478492"><ele>45.5</ele><time>2026-04-28T16:36:25.999Z</time></trkpt><trkpt lat="49.14327267804396" lon="2.4543686756749903"><ele>46.25</ele><time>2026-04-28T16:36:26.999Z</time></trkpt><trkpt lat="49.14326325622559" lon="2.4545960221006906"><ele>47.0</ele><time>2026-04-28T16:36:27.999Z</time></trkpt><trkpt lat="49.14325465900603" lon="2.454824640166038"><ele>47.0</ele><time>2026-04-28T16:36:28.999Z</time></trkpt><trkpt lat="49.14324473442704" lon="2.4550520144643504"><ele>47.0</ele><time>2026-04-28T16:36:29.999Z</time></trkpt><trkpt lat="49.14323494648846" lon="2.455280309793034"><ele>47.0</ele><time>2026-04-28T16:36:30.999Z</time></trkpt><trkpt lat="49.143225784378934" lon="2.455504726346453"><ele>47.0</ele><time>2026-04-28T16:36:31.999Z</time></trkpt><trkpt lat="49.14321812591768" lon="2.4557287838335284"><ele>47.5</ele><time>2026-04-28T16:36:32.999Z</time></trkpt><trkpt lat="49.14321181696714" lon="2.4559500738717186"><ele>48.0</ele><time>2026-04-28T16:36:33.999Z</time></trkpt><trkpt lat="49.143204666435494" lon="2.4561702255770053"><ele>48.5</ele><time>2026-04-28T16:36:34.999Z</time></trkpt><trkpt lat="49.14318819337631" lon="2.456387249529726"><ele>49.0</ele><time>2026-04-28T16:36:35.999Z</time></trkpt><trkpt lat="49.143172946706684" lon="2.4566025126982973"><ele>49.0</ele><time>2026-04-28T16:36:36.999Z</time></trkpt><trkpt lat="49.1431597105032" lon="2.456814009342076"><ele>49.0</ele><time>2026-04-28T16:36:37.999Z</time></trkpt><trkpt lat="49.143149767113464" lon="2.4570221366044716"><ele>49.0</ele><time>2026-04-28T16:36:38.999Z</time></trkpt><trkpt lat="49.14314040924327" lon="2.4572293149423183"><ele>49.0</ele><time>2026-04-28T16:36:39.999Z</time></trkpt><trkpt lat="49.14313219447975" lon="2.4574335748035683"><ele>48.75</ele><time>2026-04-28T16:36:40.999Z</time></trkpt><trkpt lat="49.143124076674134" lon="2.4576332853147904"><ele>48.5</ele><time>2026-04-28T16:36:41.999Z</time></trkpt><trkpt lat="49.143115334615395" lon="2.4578292079703123"><ele>48.25</ele><time>2026-04-28T16:36:42.999Z</time></trkpt><trkpt lat="49.14310800482462" lon="2.4580225618642317"><ele>48.0</ele><time>2026-04-28T16:36:43.999Z</time></trkpt><trkpt lat="49.14310324989592" lon="2.4582126335107866"><ele>48.0</ele><time>2026-04-28T16:36:44.999Z</time></trkpt><trkpt lat="49.1431012708347" lon="2.458401531396864"><ele>48.0</ele><time>2026-04-28T16:36:45.999Z</time></trkpt><trkpt lat="49.143098577778744" lon="2.458588151508154"><ele>48.0</ele><time>2026-04-28T16:36:46.999Z</time></trkpt><trkpt lat="49.14309996116907" lon="2.4587740810522276"><ele>48.0</ele><time>2026-04-28T16:36:47.999Z</time></trkpt><trkpt lat="49.14309899673212" lon="2.4589573796007755"><ele>48.0</ele><time>2026-04-28T16:36:48.999Z</time></trkpt><trkpt lat="49.143092085745835" lon="2.459140715328829"><ele>48.0</ele><time>2026-04-28T16:36:49.999Z</time></trkpt><trkpt lat="49.14308507239223" lon="2.4593242579558536"><ele>48.0</ele><time>2026-04-28T16:36:50.999Z</time></trkpt><trkpt lat="49.14307745894253" lon="2.4595024936877405"><ele>48.0</ele><time>2026-04-28T16:36:51.999Z</time></trkpt><trkpt lat="49.14306828860719" lon="2.4596802988599276"><ele>48.0</ele><time>2026-04-28T16:36:52.999Z</time></trkpt><trkpt lat="49.143062169667864" lon="2.4598631895090843"><ele>48.0</ele><time>2026-04-28T16:36:53.999Z</time></trkpt><trkpt lat="49.143054833786344" lon="2.4600395985772994"><ele>48.0</ele><time>2026-04-28T16:36:54.999Z</time></trkpt><trkpt lat="49.1430476750835" lon="2.460214072966834"><ele>48.0</ele><time>2026-04-28T16:36:55.999Z</time></trkpt><trkpt lat="49.14304103382528" lon="2.4603889674829102"><ele>47.4</ele><time>2026-04-28T16:36:56.999Z</time></trkpt><trkpt lat="49.143034211500826" lon="2.4605584741763056"><ele>46.8</ele><time>2026-04-28T16:36:57.999Z</time></trkpt><trkpt lat="49.143030802891154" lon="2.4607264554641683"><ele>46.2</ele><time>2026-04-28T16:36:58.999Z</time></trkpt><trkpt lat="49.14302862326657" lon="2.4608856337153577"><ele>45.6</ele><time>2026-04-28T16:36:59.999Z</time></trkpt><trkpt lat="49.14302433244581" lon="2.4610396113511057"><ele>45.0</ele><time>2026-04-28T16:37:00.999Z</time></trkpt><trkpt lat="49.143017340534676" lon="2.4611798346646196"><ele>44.666666666666664</ele><time>2026-04-28T16:37:01.999Z</time></trkpt><trkpt lat="49.14300739931053" lon="2.4612976982682735"><ele>44.333333333333336</ele><time>2026-04-28T16:37:02.999Z</time></trkpt><trkpt lat="49.142976098558684" lon="2.4614605312833713"><ele>44.0</ele><time>2026-04-28T16:37:04.999Z</time></trkpt><trkpt lat="49.14289644041489" lon="2.4615774277712266"><ele>43.66666666666667</ele><time>2026-04-28T16:37:06.999Z</time></trkpt><trkpt lat="49.14283440243256" lon="2.461609831581398"><ele>43.333333333333336</ele><time>2026-04-28T16:37:07.999Z</time></trkpt><trkpt lat="49.1427667473824" lon="2.4615721830999178"><ele>43.0</ele><time>2026-04-28T16:37:08.999Z</time></trkpt><trkpt lat="49.14269053281399" lon="2.461559043544392"><ele>43.0</ele><time>2026-04-28T16:37:09.999Z</time></trkpt><trkpt lat="49.1426038648908" lon="2.4615432583971897"><ele>43.0</ele><time>2026-04-28T16:37:10.999Z</time></trkpt><trkpt lat="49.1425236176358" lon="2.4615286426557335"><ele>43.0</ele><time>2026-04-28T16:37:11.999Z</time></trkpt><trkpt lat="49.1424397996587" lon="2.4615133765786856"><ele>43.0</ele><time>2026-04-28T16:37:12.999Z</time></trkpt><trkpt lat="49.142352355613276" lon="2.4614977405052776"><ele>43.0</ele><time>2026-04-28T16:37:13.999Z</time></trkpt><trkpt lat="49.14226488919531" lon="2.4614821318844435"><ele>43.0</ele><time>2026-04-28T16:37:14.999Z</time></trkpt><trkpt lat="49.14217785054869" lon="2.4614666056783925"><ele>44.0</ele><time>2026-04-28T16:37:15.998Z</time></trkpt><trkpt lat="49.14209187377739" lon="2.4614513030216196"><ele>45.0</ele><time>2026-04-28T16:37:16.998Z</time></trkpt><trkpt lat="49.14201175689264" lon="2.4614372807813694"><ele>46.0</ele><time>2026-04-28T16:37:17.998Z</time></trkpt><trkpt lat="49.14193953683703" lon="2.4614247632066144"><ele>47.0</ele><time>2026-04-28T16:37:18.998Z</time></trkpt><trkpt lat="49.14187277622116" lon="2.461412678354268"><ele>47.99999999999999</ele><time>2026-04-28T16:37:19.998Z</time></trkpt><trkpt lat="49.14176304932498" lon="2.461387208658136"><ele>49.0</ele><time>2026-04-28T16:37:21.998Z</time></trkpt><trkpt lat="49.14165206619561" lon="2.4613888845630343"><ele>48.99999999999999</ele><time>2026-04-28T16:37:23.998Z</time></trkpt><trkpt lat="49.141589593124934" lon="2.461358627878394"><ele>49.0</ele><time>2026-04-28T16:37:24.998Z</time></trkpt><trkpt lat="49.14152137118703" lon="2.4613469227058813"><ele>49.0</ele><time>2026-04-28T16:37:25.998Z</time></trkpt><trkpt lat="49.14144802429953" lon="2.4613586601990813"><ele>49.0</ele><time>2026-04-28T16:37:26.998Z</time></trkpt><trkpt lat="49.14137398301734" lon="2.461326936431981"><ele>48.99999999999999</ele><time>2026-04-28T16:37:27.998Z</time></trkpt><trkpt lat="49.14129373963272" lon="2.4613106090250305"><ele>49.0</ele><time>2026-04-28T16:37:28.998Z</time></trkpt><trkpt lat="49.1412098797546" lon="2.4612955094591724"><ele>49.666666666666664</ele><time>2026-04-28T16:37:29.998Z</time></trkpt><trkpt lat="49.14112429740263" lon="2.461281794881787"><ele>50.33333333333333</ele><time>2026-04-28T16:37:30.998Z</time></trkpt><trkpt lat="49.14104047074907" lon="2.4612643257276496"><ele>51.0</ele><time>2026-04-28T16:37:31.998Z</time></trkpt><trkpt lat="49.14095355070023" lon="2.4612449786343036"><ele>51.66666666666667</ele><time>2026-04-28T16:37:32.998Z</time></trkpt><trkpt lat="49.140867209467146" lon="2.461230782825806"><ele>52.333333333333336</ele><time>2026-04-28T16:37:33.998Z</time></trkpt><trkpt lat="49.1407839813984" lon="2.461215557576415"><ele>53.0</ele><time>2026-04-28T16:37:34.998Z</time></trkpt><trkpt lat="49.14070126168512" lon="2.461207713688509"><ele>54.333333333333336</ele><time>2026-04-28T16:37:35.998Z</time></trkpt><trkpt lat="49.14062136883153" lon="2.4612116942591578"><ele>55.66666666666667</ele><time>2026-04-28T16:37:36.998Z</time></trkpt><trkpt lat="49.1405432796907" lon="2.461239856920076"><ele>57.0</ele><time>2026-04-28T16:37:37.998Z</time></trkpt><trkpt lat="49.14047440807166" lon="2.4613002632464895"><ele>58.33333333333333</ele><time>2026-04-28T16:37:38.998Z</time></trkpt><trkpt lat="49.14041747121274" lon="2.4613829543933865"><ele>59.666666666666664</ele><time>2026-04-28T16:37:39.998Z</time></trkpt><trkpt lat="49.140375848579936" lon="2.461482602796121"><ele>61.0</ele><time>2026-04-28T16:37:40.998Z</time></trkpt><trkpt lat="49.14034832732216" lon="2.461595480441014"><ele>60.99999999999999</ele><time>2026-04-28T16:37:41.998Z</time></trkpt><trkpt lat="49.14032372187378" lon="2.4617181594569364"><ele>61.0</ele><time>2026-04-28T16:37:43.001Z</time></trkpt><trkpt lat="49.140296698424265" lon="2.461848297482213"><ele>61.0</ele><time>2026-04-28T16:37:44.001Z</time></trkpt><trkpt lat="49.140271445838245" lon="2.461980835761049"><ele>61.0</ele><time>2026-04-28T16:37:45.001Z</time></trkpt><trkpt lat="49.14024580403082" lon="2.4621134326299106"><ele>60.99999999999999</ele><time>2026-04-28T16:37:46.001Z</time></trkpt><trkpt lat="49.14022077718451" lon="2.462243967855562"><ele>61.0</ele><time>2026-04-28T16:37:47.001Z</time></trkpt><trkpt lat="49.140195750742166" lon="2.462375097058252"><ele>60.4</ele><time>2026-04-28T16:37:48.001Z</time></trkpt><trkpt lat="49.140170213666856" lon="2.462505987438206"><ele>59.8</ele><time>2026-04-28T16:37:49.001Z</time></trkpt><trkpt lat="49.14014376631878" lon="2.4626396857145862"><ele>59.199999999999996</ele><time>2026-04-28T16:37:50.001Z</time></trkpt><trkpt lat="49.140118261219975" lon="2.4627734257534044"><ele>58.599999999999994</ele><time>2026-04-28T16:37:51.001Z</time></trkpt><trkpt lat="49.14009311740147" lon="2.462910210505191"><ele>58.0</ele><time>2026-04-28T16:37:52.001Z</time></trkpt><trkpt lat="49.1400693449071" lon="2.46304712679933"><ele>57.599999999999994</ele><time>2026-04-28T16:37:53.001Z</time></trkpt><trkpt lat="49.14004846674164" lon="2.4631865634887284"><ele>57.199999999999996</ele><time>2026-04-28T16:37:54.001Z</time></trkpt><trkpt lat="49.140028593407905" lon="2.4633223210098847"><ele>56.8</ele><time>2026-04-28T16:37:55.001Z</time></trkpt><trkpt lat="49.14001068531361" lon="2.4634547704046645"><ele>56.4</ele><time>2026-04-28T16:37:56.001Z</time></trkpt><trkpt lat="49.139994714885205" lon="2.463587516861896"><ele>56.0</ele><time>2026-04-28T16:37:57Z</time></trkpt><trkpt lat="49.13997768503604" lon="2.463721220707914"><ele>56.16666666666667</ele><time>2026-04-28T16:37:58Z</time></trkpt><trkpt lat="49.13994101699534" lon="2.463847343424461"><ele>56.333333333333336</ele><time>2026-04-28T16:37:59Z</time></trkpt><trkpt lat="49.13992018780025" lon="2.4639781776622147"><ele>56.5</ele><time>2026-04-28T16:38:00Z</time></trkpt><trkpt lat="49.139912302773354" lon="2.464108580889894"><ele>56.66666666666667</ele><time>2026-04-28T16:38:01Z</time></trkpt><trkpt lat="49.13988712526007" lon="2.464229024627864"><ele>56.833333333333336</ele><time>2026-04-28T16:38:02Z</time></trkpt><trkpt lat="49.13986464336701" lon="2.4643480034010166"><ele>57.0</ele><time>2026-04-28T16:38:03Z</time></trkpt><trkpt lat="49.139844796665976" lon="2.464467265585052"><ele>57.0</ele><time>2026-04-28T16:38:04Z</time></trkpt><trkpt lat="49.139827611110434" lon="2.464583447477809"><ele>57.0</ele><time>2026-04-28T16:38:05Z</time></trkpt><trkpt lat="49.13981226417511" lon="2.464689417302358"><ele>57.0</ele><time>2026-04-28T16:38:06Z</time></trkpt><trkpt lat="49.13978723366132" lon="2.4648500557274917"><ele>57.0</ele><time>2026-04-28T16:38:08Z</time></trkpt><trkpt lat="49.13976725909155" lon="2.4649824953068977"><ele>57.0</ele><time>2026-04-28T16:38:10Z</time></trkpt><trkpt lat="49.13975108741304" lon="2.465099664223585"><ele>57.0</ele><time>2026-04-28T16:38:12Z</time></trkpt><trkpt lat="49.139738284634944" lon="2.4652148409888603"><ele>56.833333333333336</ele><time>2026-04-28T16:38:15Z</time></trkpt><trkpt lat="49.139726362286275" lon="2.465316673680276"><ele>56.66666666666667</ele><time>2026-04-28T16:38:19Z</time></trkpt><trkpt lat="49.1397156976257" lon="2.4654153724447414"><ele>56.5</ele><time>2026-04-28T16:38:27Z</time></trkpt><trkpt lat="49.13969772516079" lon="2.4655759126814973"><ele>56.333333333333336</ele><time>2026-04-28T16:38:30Z</time></trkpt><trkpt lat="49.139679493570654" lon="2.4657461564103174"><ele>56.16666666666667</ele><time>2026-04-28T16:38:31.999Z</time></trkpt><trkpt lat="49.13966780187727" lon="2.465848871119935"><ele>56.0</ele><time>2026-04-28T16:38:32.999Z</time></trkpt><trkpt lat="49.13965142240048" lon="2.4659609959296733"><ele>56.00000000000001</ele><time>2026-04-28T16:38:33.999Z</time></trkpt><trkpt lat="49.13963259187814" lon="2.4660835253301"><ele>56.0</ele><time>2026-04-28T16:38:34.999Z</time></trkpt><trkpt lat="49.13961469245841" lon="2.466200118277546"><ele>56.0</ele><time>2026-04-28T16:38:35.999Z</time></trkpt><trkpt lat="49.13959716034964" lon="2.466319461160582"><ele>56.0</ele><time>2026-04-28T16:38:36.999Z</time></trkpt><trkpt lat="49.139579368588066" lon="2.4664408985885387"><ele>56.00000000000001</ele><time>2026-04-28T16:38:37.999Z</time></trkpt><trkpt lat="49.139561574045864" lon="2.4665589801382786"><ele>56.0</ele><time>2026-04-28T16:38:38.999Z</time></trkpt><trkpt lat="49.139544654905855" lon="2.4666749766406104"><ele>56.0</ele><time>2026-04-28T16:38:39.999Z</time></trkpt><trkpt lat="49.139527166780425" lon="2.4667874005429327"><ele>56.0</ele><time>2026-04-28T16:38:40.999Z</time></trkpt><trkpt lat="49.13951114976445" lon="2.466897175526204"><ele>56.0</ele><time>2026-04-28T16:38:41.999Z</time></trkpt><trkpt lat="49.13949524897435" lon="2.467004064371631"><ele>56.0</ele><time>2026-04-28T16:38:42.999Z</time></trkpt><trkpt lat="49.139478839406834" lon="2.467107566400803"><ele>56.0</ele><time>2026-04-28T16:38:43.999Z</time></trkpt><trkpt lat="49.139462567095094" lon="2.4672069926063527"><ele>56.0</ele><time>2026-04-28T16:38:44.999Z</time></trkpt><trkpt lat="49.13944721512101" lon="2.467300336800301"><ele>56.0</ele><time>2026-04-28T16:38:45.999Z</time></trkpt><trkpt lat="49.139423790439515" lon="2.4674593194161045"><ele>55.599999999999994</ele><time>2026-04-28T16:38:47.999Z</time></trkpt><trkpt lat="49.13940690446757" lon="2.4675804870072118"><ele>55.199999999999996</ele><time>2026-04-28T16:38:49.999Z</time></trkpt><trkpt lat="49.139383357989324" lon="2.4677430341375843"><ele>54.800000000000004</ele><time>2026-04-28T16:38:51.999Z</time></trkpt><trkpt lat="49.139353173782546" lon="2.467934078607756"><ele>54.400000000000006</ele><time>2026-04-28T16:38:53.999Z</time></trkpt><trkpt lat="49.139336686777014" lon="2.4680350602631256"><ele>54.0</ele><time>2026-04-28T16:38:54.999Z</time></trkpt><trkpt lat="49.13931988874216" lon="2.4681381126374"><ele>53.666666666666664</ele><time>2026-04-28T16:38:55.999Z</time></trkpt><trkpt lat="49.13930400839488" lon="2.468240322641221"><ele>53.33333333333333</ele><time>2026-04-28T16:38:56.999Z</time></trkpt><trkpt lat="49.13928846376308" lon="2.4683440165192687"><ele>53.0</ele><time>2026-04-28T16:38:57.999Z</time></trkpt><trkpt lat="49.13927305420441" lon="2.468448952443382"><ele>52.666666666666664</ele><time>2026-04-28T16:38:58.999Z</time></trkpt><trkpt lat="49.13925769215826" lon="2.4685522979321353"><ele>52.33333333333333</ele><time>2026-04-28T16:38:59.999Z</time></trkpt><trkpt lat="49.139240690962936" lon="2.4686532778373875"><ele>52.0</ele><time>2026-04-28T16:39:00.999Z</time></trkpt><trkpt lat="49.139212319048866" lon="2.4688266812769752"><ele>51.666666666666664</ele><time>2026-04-28T16:39:02.999Z</time></trkpt><trkpt lat="49.139193498976816" lon="2.4689579741400602"><ele>51.33333333333333</ele><time>2026-04-28T16:39:04.999Z</time></trkpt><trkpt lat="49.13917669652467" lon="2.4690805328617693"><ele>51.0</ele><time>2026-04-28T16:39:07.999Z</time></trkpt><trkpt lat="49.13916035369151" lon="2.4691800938105644"><ele>50.66666666666667</ele><time>2026-04-28T16:39:10.999Z</time></trkpt><trkpt lat="49.13913139885082" lon="2.4692743610241923"><ele>50.333333333333336</ele><time>2026-04-28T16:39:17.999Z</time></trkpt><trkpt lat="49.139087081183995" lon="2.4693555777452034"><ele>50.0</ele><time>2026-04-28T16:39:20.998Z</time></trkpt><trkpt lat="49.13904694145173" lon="2.4694694637338435"><ele>50.16666666666667</ele><time>2026-04-28T16:39:22.998Z</time></trkpt><trkpt lat="49.1390386028724" lon="2.4696057540207823"><ele>50.333333333333336</ele><time>2026-04-28T16:39:24.998Z</time></trkpt><trkpt lat="49.139116949121394" lon="2.4696971874042126"><ele>50.5</ele><time>2026-04-28T16:39:26.998Z</time></trkpt><trkpt lat="49.139186835874696" lon="2.4698249206657756"><ele>50.66666666666667</ele><time>2026-04-28T16:39:28.998Z</time></trkpt><trkpt lat="49.13921121808155" lon="2.469922957116898"><ele>50.833333333333336</ele><time>2026-04-28T16:39:29.998Z</time></trkpt><trkpt lat="49.13924263620346" lon="2.4700326324413315"><ele>51.0</ele><time>2026-04-28T16:39:30.998Z</time></trkpt><trkpt lat="49.13927647370523" lon="2.4701440199271434"><ele>51.0</ele><time>2026-04-28T16:39:31.998Z</time></trkpt><trkpt lat="49.13931145662378" lon="2.4702603132467"><ele>51.0</ele><time>2026-04-28T16:39:32.998Z</time></trkpt><trkpt lat="49.1393478095641" lon="2.4703814741617998"><ele>51.0</ele><time>2026-04-28T16:39:33.998Z</time></trkpt><trkpt lat="49.13938439822866" lon="2.4705080101284174"><ele>51.0</ele><time>2026-04-28T16:39:34.998Z</time></trkpt><trkpt lat="49.13942194870432" lon="2.470633238136423"><ele>51.0</ele><time>2026-04-28T16:39:35.998Z</time></trkpt><trkpt lat="49.13946062464346" lon="2.470754717650644"><ele>51.0</ele><time>2026-04-28T16:39:36.998Z</time></trkpt><trkpt lat="49.139495993547825" lon="2.4708767315882825"><ele>51.0</ele><time>2026-04-28T16:39:37.998Z</time></trkpt><trkpt lat="49.13952790426572" lon="2.4709970628527644"><ele>51.0</ele><time>2026-04-28T16:39:38.998Z</time></trkpt><trkpt lat="49.13955799604104" lon="2.4711163404957417"><ele>51.0</ele><time>2026-04-28T16:39:39.998Z</time></trkpt><trkpt lat="49.13958964044643" lon="2.47123102934038"><ele>51.0</ele><time>2026-04-28T16:39:40.998Z</time></trkpt><trkpt lat="49.13961924978406" lon="2.4713398084659137"><ele>51.0</ele><time>2026-04-28T16:39:41.998Z</time></trkpt><trkpt lat="49.139646329832374" lon="2.471437832438875"><ele>51.0</ele><time>2026-04-28T16:39:42.998Z</time></trkpt><trkpt lat="49.139685160916514" lon="2.471576370380312"><ele>51.0</ele><time>2026-04-28T16:39:44.998Z</time></trkpt><trkpt lat="49.13971359705413" lon="2.47167081262937"><ele>51.0</ele><time>2026-04-28T16:39:46.998Z</time></trkpt><trkpt lat="49.139759204856524" lon="2.4718188456094228"><ele>51.0</ele><time>2026-04-28T16:39:49.001Z</time></trkpt><trkpt lat="49.13979243080212" lon="2.471927812992607"><ele>51.0</ele><time>2026-04-28T16:39:50.001Z</time></trkpt><trkpt lat="49.13982238732504" lon="2.4720341113052964"><ele>51.0</ele><time>2026-04-28T16:39:51.001Z</time></trkpt><trkpt lat="49.13985303492038" lon="2.4721460485260547"><ele>51.0</ele><time>2026-04-28T16:39:52.001Z</time></trkpt><trkpt lat="49.13988526885783" lon="2.472263691644064"><ele>50.166666666666664</ele><time>2026-04-28T16:39:53.001Z</time></trkpt><trkpt lat="49.13991766704943" lon="2.472380942221237"><ele>49.333333333333336</ele><time>2026-04-28T16:39:54.001Z</time></trkpt><trkpt lat="49.13995075751304" lon="2.4724962391483962"><ele>48.5</ele><time>2026-04-28T16:39:55.001Z</time></trkpt><trkpt lat="49.13998204652169" lon="2.4726057480510595"><ele>47.66666666666667</ele><time>2026-04-28T16:39:56.001Z</time></trkpt><trkpt lat="49.14001297703797" lon="2.472712527022425"><ele>46.833333333333336</ele><time>2026-04-28T16:39:57.001Z</time></trkpt><trkpt lat="49.140042181445736" lon="2.472814105346247"><ele>46.0</ele><time>2026-04-28T16:39:58.001Z</time></trkpt><trkpt lat="49.14007015846968" lon="2.4729119275506712"><ele>46.0</ele><time>2026-04-28T16:39:59.001Z</time></trkpt><trkpt lat="49.14010982044682" lon="2.4730536668705336"><ele>46.0</ele><time>2026-04-28T16:40:01.001Z</time></trkpt><trkpt lat="49.140136084460664" lon="2.47314196826418"><ele>46.0</ele><time>2026-04-28T16:40:03.001Z</time></trkpt><trkpt lat="49.14017484610103" lon="2.473272321534146"><ele>46.0</ele><time>2026-04-28T16:40:05Z</time></trkpt><trkpt lat="49.14020123178391" lon="2.473369456021997"><ele>46.0</ele><time>2026-04-28T16:40:06Z</time></trkpt><trkpt lat="49.14023322365245" lon="2.4734808544447984"><ele>46.0</ele><time>2026-04-28T16:40:07Z</time></trkpt><trkpt lat="49.14026298054742" lon="2.4735900375589503"><ele>46.0</ele><time>2026-04-28T16:40:08Z</time></trkpt><trkpt lat="49.14029351184048" lon="2.4737008073919835"><ele>46.0</ele><time>2026-04-28T16:40:09Z</time></trkpt><trkpt lat="49.140323845358466" lon="2.4738106918663765"><ele>46.0</ele><time>2026-04-28T16:40:10Z</time></trkpt><trkpt lat="49.140356784575665" lon="2.473924760322137"><ele>46.0</ele><time>2026-04-28T16:40:11Z</time></trkpt><trkpt lat="49.14039020972891" lon="2.4740448204002226"><ele>46.0</ele><time>2026-04-28T16:40:12Z</time></trkpt><trkpt lat="49.14042376738453" lon="2.474164264008071"><ele>46.0</ele><time>2026-04-28T16:40:13Z</time></trkpt><trkpt lat="49.14045870524088" lon="2.4742839728374144"><ele>46.333333333333336</ele><time>2026-04-28T16:40:14Z</time></trkpt><trkpt lat="49.14049349759088" lon="2.4744020477619806"><ele>46.66666666666667</ele><time>2026-04-28T16:40:15Z</time></trkpt><trkpt lat="49.140526166968506" lon="2.474520380832974"><ele>47.0</ele><time>2026-04-28T16:40:16Z</time></trkpt><trkpt lat="49.14055784364197" lon="2.474635912483503"><ele>47.333333333333336</ele><time>2026-04-28T16:40:17Z</time></trkpt><trkpt lat="49.14059231766747" lon="2.474750658138274"><ele>47.666666666666664</ele><time>2026-04-28T16:40:18Z</time></trkpt><trkpt lat="49.140626269035884" lon="2.474864995884048"><ele>48.0</ele><time>2026-04-28T16:40:19Z</time></trkpt><trkpt lat="49.14065862235235" lon="2.474978075028318"><ele>47.833333333333336</ele><time>2026-04-28T16:40:20Z</time></trkpt><trkpt lat="49.14068879519554" lon="2.4750901320792176"><ele>47.666666666666664</ele><time>2026-04-28T16:40:21Z</time></trkpt><trkpt lat="49.14072379601524" lon="2.4752049994981378"><ele>47.5</ele><time>2026-04-28T16:40:22Z</time></trkpt><trkpt lat="49.1407607972841" lon="2.475322525173862"><ele>47.33333333333333</ele><time>2026-04-28T16:40:23Z</time></trkpt><trkpt lat="49.14079618197282" lon="2.4754429016430954"><ele>47.166666666666664</ele><time>2026-04-28T16:40:24Z</time></trkpt><trkpt lat="49.14083094746052" lon="2.4755644385065114"><ele>47.0</ele><time>2026-04-28T16:40:25Z</time></trkpt><trkpt lat="49.140865650969715" lon="2.4756835469235368"><ele>47.0</ele><time>2026-04-28T16:40:26Z</time></trkpt><trkpt lat="49.140900730234726" lon="2.475799527028239"><ele>47.0</ele><time>2026-04-28T16:40:27Z</time></trkpt><trkpt lat="49.140934331762544" lon="2.4759105986515757"><ele>47.0</ele><time>2026-04-28T16:40:28Z</time></trkpt><trkpt lat="49.14096610285316" lon="2.476017566796171"><ele>47.0</ele><time>2026-04-28T16:40:29Z</time></trkpt><trkpt lat="49.14099590904864" lon="2.476118598374811"><ele>47.0</ele><time>2026-04-28T16:40:30Z</time></trkpt><trkpt lat="49.14102381322351" lon="2.476208170651473"><ele>47.0</ele><time>2026-04-28T16:40:31Z</time></trkpt><trkpt lat="49.141060568831655" lon="2.4763331594063973"><ele>47.33333333333333</ele><time>2026-04-28T16:40:33Z</time></trkpt><trkpt lat="49.14101622666204" lon="2.4764513530223367"><ele>47.666666666666664</ele><time>2026-04-28T16:40:35Z</time></trkpt><trkpt lat="49.14099057036337" lon="2.476542238817907"><ele>48.0</ele><time>2026-04-28T16:40:36Z</time></trkpt><trkpt lat="49.140946125896775" lon="2.476628142127975"><ele>48.33333333333333</ele><time>2026-04-28T16:40:37Z</time></trkpt><trkpt lat="49.140893559714094" lon="2.4767323122963387"><ele>48.666666666666664</ele><time>2026-04-28T16:40:37.999Z</time></trkpt><trkpt lat="49.14083712802876" lon="2.476843178624149"><ele>49.0</ele><time>2026-04-28T16:40:38.999Z</time></trkpt><trkpt lat="49.14078379067834" lon="2.4769494204943823"><ele>49.0</ele><time>2026-04-28T16:40:39.999Z</time></trkpt><trkpt lat="49.140723576115235" lon="2.4770602693255652"><ele>49.0</ele><time>2026-04-28T16:40:40.999Z</time></trkpt><trkpt lat="49.140657036995364" lon="2.477177054859804"><ele>49.0</ele><time>2026-04-28T16:40:41.999Z</time></trkpt><trkpt lat="49.14058874380575" lon="2.4772952902946863"><ele>49.0</ele><time>2026-04-28T16:40:42.999Z</time></trkpt><trkpt lat="49.14052199440519" lon="2.477414951445834"><ele>49.0</ele><time>2026-04-28T16:40:43.999Z</time></trkpt><trkpt lat="49.14045659759484" lon="2.477532055112094"><ele>49.83333333333333</ele><time>2026-04-28T16:40:44.999Z</time></trkpt><trkpt lat="49.14039314425862" lon="2.4776462829816923"><ele>50.666666666666664</ele><time>2026-04-28T16:40:45.999Z</time></trkpt><trkpt lat="49.1403332236237" lon="2.477753584676824"><ele>51.5</ele><time>2026-04-28T16:40:46.999Z</time></trkpt><trkpt lat="49.140277636942855" lon="2.477853904097553"><ele>52.33333333333333</ele><time>2026-04-28T16:40:47.999Z</time></trkpt><trkpt lat="49.140225202616136" lon="2.477946635722291"><ele>53.166666666666664</ele><time>2026-04-28T16:40:48.999Z</time></trkpt><trkpt lat="49.14017639186264" lon="2.478031303349845"><ele>54.0</ele><time>2026-04-28T16:40:49.999Z</time></trkpt><trkpt lat="49.1401276324113" lon="2.4781148180139847"><ele>54.42857142857143</ele><time>2026-04-28T16:40:50.999Z</time></trkpt><trkpt lat="49.14008041207712" lon="2.4781970382583123"><ele>54.857142857142854</ele><time>2026-04-28T16:40:51.999Z</time></trkpt><trkpt lat="49.140033283059964" lon="2.478280184921778"><ele>55.285714285714285</ele><time>2026-04-28T16:40:52.999Z</time></trkpt><trkpt lat="49.139987971239464" lon="2.4783603655612545"><ele>55.71428571428571</ele><time>2026-04-28T16:40:53.999Z</time></trkpt><trkpt lat="49.139942636464006" lon="2.478441205858781"><ele>56.14285714285714</ele><time>2026-04-28T16:40:54.999Z</time></trkpt><trkpt lat="49.13989767696001" lon="2.478521070089505"><ele>56.57142857142857</ele><time>2026-04-28T16:40:55.999Z</time></trkpt><trkpt lat="49.13984898621457" lon="2.478604943850308"><ele>57.0</ele><time>2026-04-28T16:40:56.999Z</time></trkpt><trkpt lat="49.139797043046954" lon="2.478695567487669"><ele>57.166666666666664</ele><time>2026-04-28T16:40:57.999Z</time></trkpt><trkpt lat="49.1397428142215" lon="2.478789872707884"><ele>57.33333333333333</ele><time>2026-04-28T16:40:58.999Z</time></trkpt><trkpt lat="49.1396893079978" lon="2.4788874980439966"><ele>57.5</ele><time>2026-04-28T16:40:59.999Z</time></trkpt><trkpt lat="49.13964006827408" lon="2.4789908206622333"><ele>57.666666666666664</ele><time>2026-04-28T16:41:00.999Z</time></trkpt><trkpt lat="49.13959851812373" lon="2.4790999553237247"><ele>57.83333333333333</ele><time>2026-04-28T16:41:01.999Z</time></trkpt><trkpt lat="49.139570078754524" lon="2.479214698195761"><ele>58.0</ele><time>2026-04-28T16:41:02.999Z</time></trkpt><trkpt lat="49.13954462305885" lon="2.4793279756775246"><ele>57.99999999999999</ele><time>2026-04-28T16:41:03.999Z</time></trkpt><trkpt lat="49.139521136797285" lon="2.4794424970244924"><ele>58.0</ele><time>2026-04-28T16:41:04.999Z</time></trkpt><trkpt lat="49.139500115365344" lon="2.4795581886202314"><ele>58.0</ele><time>2026-04-28T16:41:05.999Z</time></trkpt><trkpt lat="49.13948240726244" lon="2.479675453888868"><ele>58.0</ele><time>2026-04-28T16:41:06.999Z</time></trkpt><trkpt lat="49.139468548640004" lon="2.4797916545434613"><ele>57.99999999999999</ele><time>2026-04-28T16:41:07.999Z</time></trkpt><trkpt lat="49.13945815882259" lon="2.4799072158174305"><ele>58.0</ele><time>2026-04-28T16:41:08.999Z</time></trkpt><trkpt lat="49.139451943598914" lon="2.480020147015797"><ele>58.71428571428572</ele><time>2026-04-28T16:41:09.999Z</time></trkpt><trkpt lat="49.13944798499826" lon="2.480129085864553"><ele>59.42857142857143</ele><time>2026-04-28T16:41:10.999Z</time></trkpt><trkpt lat="49.13943886305098" lon="2.480238731913509"><ele>60.142857142857146</ele><time>2026-04-28T16:41:11.999Z</time></trkpt><trkpt lat="49.13941910139504" lon="2.4803445546528575"><ele>60.85714285714286</ele><time>2026-04-28T16:41:12.999Z</time></trkpt><trkpt lat="49.139396127284336" lon="2.4804479222460256"><ele>61.57142857142857</ele><time>2026-04-28T16:41:13.999Z</time></trkpt><trkpt lat="49.13936681536043" lon="2.4805501037191466"><ele>62.285714285714285</ele><time>2026-04-28T16:41:14.999Z</time></trkpt><trkpt lat="49.13933231354721" lon="2.480651263743121"><ele>63.0</ele><time>2026-04-28T16:41:15.999Z</time></trkpt><trkpt lat="49.13929480954276" lon="2.4807527418237827"><ele>64.16666666666667</ele><time>2026-04-28T16:41:16.999Z</time></trkpt><trkpt lat="49.139254700134494" lon="2.480854782082762"><ele>65.33333333333333</ele><time>2026-04-28T16:41:17.999Z</time></trkpt><trkpt lat="49.13921203143208" lon="2.480957524520959"><ele>66.5</ele><time>2026-04-28T16:41:18.999Z</time></trkpt><trkpt lat="49.13916950965172" lon="2.4810554634407516"><ele>67.66666666666666</ele><time>2026-04-28T16:41:19.999Z</time></trkpt><trkpt lat="49.13912883843524" lon="2.4811526302624425"><ele>68.83333333333333</ele><time>2026-04-28T16:41:20.999Z</time></trkpt><trkpt lat="49.13909034009743" lon="2.4812439911101736"><ele>70.0</ele><time>2026-04-28T16:41:21.999Z</time></trkpt><trkpt lat="49.139053395063065" lon="2.4813334083287977"><ele>70.57142857142857</ele><time>2026-04-28T16:41:22.998Z</time></trkpt><trkpt lat="49.13901573478781" lon="2.481426470103992"><ele>71.14285714285714</ele><time>2026-04-28T16:41:23.998Z</time></trkpt><trkpt lat="49.138978337950284" lon="2.4815235878003463"><ele>71.71428571428572</ele><time>2026-04-28T16:41:24.998Z</time></trkpt><trkpt lat="49.13894004693796" lon="2.481628475298126"><ele>72.28571428571428</ele><time>2026-04-28T16:41:25.998Z</time></trkpt><trkpt lat="49.13890631205009" lon="2.481730799804405"><ele>72.85714285714286</ele><time>2026-04-28T16:41:26.998Z</time></trkpt><trkpt lat="49.13887660409228" lon="2.481833578694821"><ele>73.42857142857143</ele><time>2026-04-28T16:41:27.998Z</time></trkpt><trkpt lat="49.138849123362554" lon="2.481942531107788"><ele>74.0</ele><time>2026-04-28T16:41:28.998Z</time></trkpt><trkpt lat="49.138823465970134" lon="2.4820571201704174"><ele>75.33333333333334</ele><time>2026-04-28T16:41:29.998Z</time></trkpt><trkpt lat="49.13879752105772" lon="2.4821828344041412"><ele>76.66666666666667</ele><time>2026-04-28T16:41:30.998Z</time></trkpt><trkpt lat="49.138774891601884" lon="2.4823137601198395"><ele>78.0</ele><time>2026-04-28T16:41:31.998Z</time></trkpt><trkpt lat="49.13875460938253" lon="2.4824377638895694"><ele>79.33333333333333</ele><time>2026-04-28T16:41:32.998Z</time></trkpt><trkpt lat="49.13873908971675" lon="2.482550603702636"><ele>80.66666666666666</ele><time>2026-04-28T16:41:33.998Z</time></trkpt><trkpt lat="49.138722392491644" lon="2.482660343772333"><ele>82.0</ele><time>2026-04-28T16:41:34.998Z</time></trkpt><trkpt lat="49.13870544246877" lon="2.4827741365775045"><ele>82.0</ele><time>2026-04-28T16:41:35.998Z</time></trkpt><trkpt lat="49.13868807856237" lon="2.482891240088048"><ele>82.0</ele><time>2026-04-28T16:41:36.998Z</time></trkpt><trkpt lat="49.138673041022585" lon="2.4830018858844047"><ele>82.0</ele><time>2026-04-28T16:41:37.998Z</time></trkpt><trkpt lat="49.138658816406135" lon="2.483105529455421"><ele>82.0</ele><time>2026-04-28T16:41:38.998Z</time></trkpt><trkpt lat="49.13864665746861" lon="2.4832039205255367"><ele>82.0</ele><time>2026-04-28T16:41:39.998Z</time></trkpt><trkpt lat="49.13862583365422" lon="2.4833902672756967"><ele>82.0</ele><time>2026-04-28T16:41:41.998Z</time></trkpt><trkpt lat="49.13861025419973" lon="2.483579814700166"><ele>83.0</ele><time>2026-04-28T16:41:43.998Z</time></trkpt><trkpt lat="49.138609545287785" lon="2.483677505524595"><ele>84.0</ele><time>2026-04-28T16:41:44.998Z</time></trkpt><trkpt lat="49.13862138293612" lon="2.4837747523039972"><ele>85.0</ele><time>2026-04-28T16:41:45.998Z</time></trkpt><trkpt lat="49.138635009135925" lon="2.483869694602401"><ele>86.0</ele><time>2026-04-28T16:41:46.998Z</time></trkpt><trkpt lat="49.138672639656534" lon="2.484037931732414"><ele>87.0</ele><time>2026-04-28T16:41:48.998Z</time></trkpt><trkpt lat="49.13873094747998" lon="2.484199007454549"><ele>88.0</ele><time>2026-04-28T16:41:50.998Z</time></trkpt><trkpt lat="49.138769468696104" lon="2.4842797301175787"><ele>88.71428571428572</ele><time>2026-04-28T16:41:51.998Z</time></trkpt><trkpt lat="49.138816905931016" lon="2.4843587665847484"><ele>89.42857142857143</ele><time>2026-04-28T16:41:52.998Z</time></trkpt><trkpt lat="49.138868424429155" lon="2.4844378619294067"><ele>90.14285714285714</ele><time>2026-04-28T16:41:53.998Z</time></trkpt><trkpt lat="49.13892110180722" lon="2.4845182301041775"><ele>90.85714285714286</ele><time>2026-04-28T16:41:55.001Z</time></trkpt><trkpt lat="49.13897079799704" lon="2.4846067289942013"><ele>91.57142857142857</ele><time>2026-04-28T16:41:56.001Z</time></trkpt><trkpt lat="49.13901096097031" lon="2.4847060905192935"><ele>92.28571428571429</ele><time>2026-04-28T16:41:57.001Z</time></trkpt><trkpt lat="49.139040802763134" lon="2.484813165545247"><ele>93.0</ele><time>2026-04-28T16:41:58.001Z</time></trkpt><trkpt lat="49.139057165543946" lon="2.4849283343458772"><ele>93.0</ele><time>2026-04-28T16:41:59.001Z</time></trkpt><trkpt lat="49.13905975980835" lon="2.4850486790456463"><ele>93.0</ele><time>2026-04-28T16:42:00.001Z</time></trkpt><trkpt lat="49.13905752624545" lon="2.4851789247866023"><ele>93.0</ele><time>2026-04-28T16:42:01.001Z</time></trkpt><trkpt lat="49.139052917155055" lon="2.4853161322966697"><ele>93.0</ele><time>2026-04-28T16:42:02.001Z</time></trkpt><trkpt lat="49.1390485557513" lon="2.485460776687488"><ele>93.0</ele><time>2026-04-28T16:42:03.001Z</time></trkpt><trkpt lat="49.139044948918865" lon="2.4856117397134314"><ele>93.0</ele><time>2026-04-28T16:42:04.001Z</time></trkpt><trkpt lat="49.13904367194782" lon="2.485763154653061"><ele>93.60000000000001</ele><time>2026-04-28T16:42:05.001Z</time></trkpt><trkpt lat="49.13904149159534" lon="2.485921497328024"><ele>94.2</ele><time>2026-04-28T16:42:06.001Z</time></trkpt><trkpt lat="49.13903913427711" lon="2.486083274098464"><ele>94.8</ele><time>2026-04-28T16:42:07.001Z</time></trkpt><trkpt lat="49.1390381569173" lon="2.486245902092893"><ele>95.4</ele><time>2026-04-28T16:42:08.001Z</time></trkpt><trkpt lat="49.13903428869636" lon="2.4864132015828684"><ele>96.0</ele><time>2026-04-28T16:42:09Z</time></trkpt><trkpt lat="49.139029187558776" lon="2.486576668570238"><ele>96.19999999999999</ele><time>2026-04-28T16:42:10Z</time></trkpt><trkpt lat="49.13902398323074" lon="2.486745094575125"><ele>96.39999999999999</ele><time>2026-04-28T16:42:11Z</time></trkpt><trkpt lat="49.139020706644956" lon="2.4869098382845776"><ele>96.6</ele><time>2026-04-28T16:42:12Z</time></trkpt><trkpt lat="49.139018318922375" lon="2.4870713420727806"><ele>96.8</ele><time>2026-04-28T16:42:13Z</time></trkpt><trkpt lat="49.13902015791029" lon="2.4872304919816304"><ele>97.0</ele><time>2026-04-28T16:42:14Z</time></trkpt><trkpt lat="49.13903034811254" lon="2.487388739908784"><ele>95.75</ele><time>2026-04-28T16:42:15Z</time></trkpt><trkpt lat="49.139051243818315" lon="2.4875502340215445"><ele>94.5</ele><time>2026-04-28T16:42:16Z</time></trkpt><trkpt lat="49.13908524503487" lon="2.487709119784374"><ele>93.25</ele><time>2026-04-28T16:42:17Z</time></trkpt><trkpt lat="49.139134828389125" lon="2.4878717565426802"><ele>92.0</ele><time>2026-04-28T16:42:18Z</time></trkpt><trkpt lat="49.13920014280885" lon="2.4880464325720575"><ele>91.75</ele><time>2026-04-28T16:42:19Z</time></trkpt><trkpt lat="49.13926646303438" lon="2.4882189808228357"><ele>91.5</ele><time>2026-04-28T16:42:20Z</time></trkpt><trkpt lat="49.13933276436451" lon="2.48839474689171"><ele>91.25</ele><time>2026-04-28T16:42:21Z</time></trkpt><trkpt lat="49.13940096483113" lon="2.4885766724118157"><ele>91.0</ele><time>2026-04-28T16:42:22Z</time></trkpt><trkpt lat="49.13946919846427" lon="2.488762004899442"><ele>90.0</ele><time>2026-04-28T16:42:23Z</time></trkpt><trkpt lat="49.13954105404323" lon="2.4889457314829104"><ele>89.0</ele><time>2026-04-28T16:42:24Z</time></trkpt><trkpt lat="49.13961238993739" lon="2.4891260800663386"><ele>88.0</ele><time>2026-04-28T16:42:25Z</time></trkpt><trkpt lat="49.13967568640937" lon="2.489313091211914"><ele>87.0</ele><time>2026-04-28T16:42:26Z</time></trkpt><trkpt lat="49.139724577832624" lon="2.489509205527483"><ele>86.75</ele><time>2026-04-28T16:42:27Z</time></trkpt><trkpt lat="49.13975341245806" lon="2.4897121004422793"><ele>86.5</ele><time>2026-04-28T16:42:28Z</time></trkpt><trkpt lat="49.139762884443414" lon="2.4899138517224353"><ele>86.25</ele><time>2026-04-28T16:42:29Z</time></trkpt><trkpt lat="49.139751274600705" lon="2.4901139365982945"><ele>86.0</ele><time>2026-04-28T16:42:30Z</time></trkpt><trkpt lat="49.13971982862159" lon="2.490306113532796"><ele>86.0</ele><time>2026-04-28T16:42:31Z</time></trkpt><trkpt lat="49.13967080696882" lon="2.4904903512952528"><ele>86.0</ele><time>2026-04-28T16:42:32Z</time></trkpt><trkpt lat="49.13960488579163" lon="2.490659897521294"><ele>86.0</ele><time>2026-04-28T16:42:33Z</time></trkpt><trkpt lat="49.139527780238005" lon="2.4908163413889124"><ele>86.0</ele><time>2026-04-28T16:42:34Z</time></trkpt><trkpt lat="49.13944512743174" lon="2.490964840147963"><ele>86.0</ele><time>2026-04-28T16:42:35Z</time></trkpt><trkpt lat="49.139360908902226" lon="2.4911113846942805"><ele>86.0</ele><time>2026-04-28T16:42:36Z</time></trkpt><trkpt lat="49.13927737537872" lon="2.4912604219540655"><ele>86.0</ele><time>2026-04-28T16:42:37Z</time></trkpt><trkpt lat="49.13919487365567" lon="2.4914072044916753"><ele>86.0</ele><time>2026-04-28T16:42:37.999Z</time></trkpt><trkpt lat="49.139114668165504" lon="2.49155232822013"><ele>87.5</ele><time>2026-04-28T16:42:38.999Z</time></trkpt><trkpt lat="49.139037989879235" lon="2.4917025454238706"><ele>89.0</ele><time>2026-04-28T16:42:39.999Z</time></trkpt><trkpt lat="49.13897764494703" lon="2.491868037014859"><ele>90.5</ele><time>2026-04-28T16:42:40.999Z</time></trkpt><trkpt lat="49.13893664716743" lon="2.492046536414295"><ele>92.0</ele><time>2026-04-28T16:42:41.999Z</time></trkpt><trkpt lat="49.138910794798264" lon="2.49223222824757"><ele>92.0</ele><time>2026-04-28T16:42:42.999Z</time></trkpt><trkpt lat="49.13889643078278" lon="2.492428337635884"><ele>92.0</ele><time>2026-04-28T16:42:43.999Z</time></trkpt><trkpt lat="49.13888886452288" lon="2.4926352744869877"><ele>92.0</ele><time>2026-04-28T16:42:44.999Z</time></trkpt><trkpt lat="49.1388833007617" lon="2.492847855797798"><ele>92.0</ele><time>2026-04-28T16:42:45.999Z</time></trkpt><trkpt lat="49.138877845177866" lon="2.4930665811035495"><ele>91.25</ele><time>2026-04-28T16:42:46.999Z</time></trkpt><trkpt lat="49.13887127982844" lon="2.493291052618546"><ele>90.5</ele><time>2026-04-28T16:42:47.999Z</time></trkpt><trkpt lat="49.13886460938038" lon="2.4935196332311054"><ele>89.75</ele><time>2026-04-28T16:42:48.999Z</time></trkpt><trkpt lat="49.13885952935788" lon="2.493750515480091"><ele>89.0</ele><time>2026-04-28T16:42:49.999Z</time></trkpt><trkpt lat="49.138854809413" lon="2.4939796197850304"><ele>89.0</ele><time>2026-04-28T16:42:50.999Z</time></trkpt><trkpt lat="49.13884886158408" lon="2.4942054412194192"><ele>89.0</ele><time>2026-04-28T16:42:51.999Z</time></trkpt><trkpt lat="49.13884243419891" lon="2.494429716049094"><ele>89.0</ele><time>2026-04-28T16:42:52.999Z</time></trkpt><trkpt lat="49.13883644073712" lon="2.4946519132900504"><ele>89.0</ele><time>2026-04-28T16:42:53.999Z</time></trkpt><trkpt lat="49.13883079186262" lon="2.4948766388986066"><ele>89.0</ele><time>2026-04-28T16:42:54.999Z</time></trkpt><trkpt lat="49.13882683696616" lon="2.4950975163882223"><ele>89.0</ele><time>2026-04-28T16:42:55.999Z</time></trkpt><trkpt lat="49.138821879803075" lon="2.495314348584508"><ele>89.0</ele><time>2026-04-28T16:42:56.999Z</time></trkpt><trkpt lat="49.138815626953374" lon="2.495530368620462"><ele>89.0</ele><time>2026-04-28T16:42:57.999Z</time></trkpt><trkpt lat="49.13881065162193" lon="2.4957456291234994"><ele>89.0</ele><time>2026-04-28T16:42:58.999Z</time></trkpt><trkpt lat="49.13880614466571" lon="2.4959618477667243"><ele>89.0</ele><time>2026-04-28T16:42:59.999Z</time></trkpt><trkpt lat="49.13879996993807" lon="2.496178917761071"><ele>89.0</ele><time>2026-04-28T16:43:00.999Z</time></trkpt><trkpt lat="49.138793767927254" lon="2.49639883088509"><ele>89.0</ele><time>2026-04-28T16:43:01.999Z</time></trkpt><trkpt lat="49.138788305721675" lon="2.4966193617287358"><ele>88.75</ele><time>2026-04-28T16:43:02.999Z</time></trkpt><trkpt lat="49.13878260366354" lon="2.4968438750663173"><ele>88.5</ele><time>2026-04-28T16:43:03.999Z</time></trkpt><trkpt lat="49.13877655137389" lon="2.49707035614457"><ele>88.25</ele><time>2026-04-28T16:43:04.999Z</time></trkpt><trkpt lat="49.13877128608466" lon="2.4972995820681123"><ele>88.0</ele><time>2026-04-28T16:43:05.999Z</time></trkpt><trkpt lat="49.13876622439737" lon="2.4975312484126055"><ele>88.0</ele><time>2026-04-28T16:43:06.999Z</time></trkpt><trkpt lat="49.13876060377872" lon="2.4977650593311793"><ele>88.0</ele><time>2026-04-28T16:43:07.999Z</time></trkpt><trkpt lat="49.138754986916105" lon="2.498000440886446"><ele>88.0</ele><time>2026-04-28T16:43:08.999Z</time></trkpt><trkpt lat="49.13874949996136" lon="2.4982366554628586"><ele>88.0</ele><time>2026-04-28T16:43:09.999Z</time></trkpt><trkpt lat="49.13874365663256" lon="2.498472496142634"><ele>88.0</ele><time>2026-04-28T16:43:10.999Z</time></trkpt><trkpt lat="49.13873739973005" lon="2.498705853303432"><ele>88.0</ele><time>2026-04-28T16:43:11.999Z</time></trkpt><trkpt lat="49.13873153009744" lon="2.4989390500855717"><ele>88.0</ele><time>2026-04-28T16:43:12.999Z</time></trkpt><trkpt lat="49.13872572123368" lon="2.4991700612654446"><ele>88.0</ele><time>2026-04-28T16:43:13.999Z</time></trkpt><trkpt lat="49.138719728868445" lon="2.4993965412794754"><ele>88.0</ele><time>2026-04-28T16:43:14.999Z</time></trkpt><trkpt lat="49.13871373281901" lon="2.499619093625536"><ele>88.0</ele><time>2026-04-28T16:43:15.999Z</time></trkpt><trkpt lat="49.13870815248936" lon="2.499838291176323"><ele>87.25</ele><time>2026-04-28T16:43:16.999Z</time></trkpt><trkpt lat="49.13870419254331" lon="2.5000539133949"><ele>86.5</ele><time>2026-04-28T16:43:17.999Z</time></trkpt><trkpt lat="49.13870041112453" lon="2.500270935126637"><ele>85.75</ele><time>2026-04-28T16:43:18.998Z</time></trkpt><trkpt lat="49.13869617520157" lon="2.500490394253291"><ele>85.0</ele><time>2026-04-28T16:43:19.998Z</time></trkpt><trkpt lat="49.138691220828115" lon="2.500710041487169"><ele>84.75</ele><time>2026-04-28T16:43:20.998Z</time></trkpt><trkpt lat="49.13868677394441" lon="2.500930615563129"><ele>84.5</ele><time>2026-04-28T16:43:21.998Z</time></trkpt><trkpt lat="49.138677436692554" lon="2.501152838638628"><ele>84.25</ele><time>2026-04-28T16:43:22.998Z</time></trkpt><trkpt lat="49.1386570722703" lon="2.5013733057222147"><ele>84.0</ele><time>2026-04-28T16:43:23.998Z</time></trkpt><trkpt lat="49.13862103050676" lon="2.501591133613364"><ele>83.5</ele><time>2026-04-28T16:43:24.998Z</time></trkpt><trkpt lat="49.138565476020055" lon="2.501801410666225"><ele>83.0</ele><time>2026-04-28T16:43:25.998Z</time></trkpt><trkpt lat="49.13849482930779" lon="2.5020014752215323"><ele>82.5</ele><time>2026-04-28T16:43:26.998Z</time></trkpt><trkpt lat="49.138416859513086" lon="2.502198275460813"><ele>82.0</ele><time>2026-04-28T16:43:27.998Z</time></trkpt><trkpt lat="49.13834023622725" lon="2.5023969931561845"><ele>81.25</ele><time>2026-04-28T16:43:28.998Z</time></trkpt><trkpt lat="49.138264998026656" lon="2.502595964514535"><ele>80.5</ele><time>2026-04-28T16:43:29.998Z</time></trkpt><trkpt lat="49.138191185058496" lon="2.50279417373358"><ele>79.75</ele><time>2026-04-28T16:43:30.998Z</time></trkpt><trkpt lat="49.13811731218377" lon="2.5029927705318786"><ele>79.0</ele><time>2026-04-28T16:43:31.998Z</time></trkpt><trkpt lat="49.13804430091855" lon="2.503191274281849"><ele>78.5</ele><time>2026-04-28T16:43:32.998Z</time></trkpt><trkpt lat="49.13797120362522" lon="2.5033896522188557"><ele>78.0</ele><time>2026-04-28T16:43:33.998Z</time></trkpt><trkpt lat="49.137903514086844" lon="2.503591252619532"><ele>77.5</ele><time>2026-04-28T16:43:34.998Z</time></trkpt><trkpt lat="49.13784526874215" lon="2.503798719506696"><ele>77.0</ele><time>2026-04-28T16:43:35.998Z</time></trkpt><trkpt lat="49.137795279306054" lon="2.5040100324289085"><ele>77.0</ele><time>2026-04-28T16:43:36.998Z</time></trkpt><trkpt lat="49.13774770136174" lon="2.5042259618857448"><ele>77.0</ele><time>2026-04-28T16:43:37.998Z</time></trkpt><trkpt lat="49.137700171557974" lon="2.504438702067834"><ele>77.0</ele><time>2026-04-28T16:43:38.998Z</time></trkpt><trkpt lat="49.137648612042504" lon="2.5046452505537107"><ele>77.0</ele><time>2026-04-28T16:43:39.998Z</time></trkpt><trkpt lat="49.137588985181154" lon="2.5048402094131603"><ele>77.0</ele><time>2026-04-28T16:43:40.998Z</time></trkpt><trkpt lat="49.13751522663777" lon="2.5050212533576097"><ele>77.0</ele><time>2026-04-28T16:43:41.998Z</time></trkpt><trkpt lat="49.13743043581588" lon="2.505184953851577"><ele>77.0</ele><time>2026-04-28T16:43:42.998Z</time></trkpt><trkpt lat="49.137339768123134" lon="2.50533813985236"><ele>77.0</ele><time>2026-04-28T16:43:43.998Z</time></trkpt><trkpt lat="49.13724890469206" lon="2.505486552165553"><ele>78.0</ele><time>2026-04-28T16:43:44.998Z</time></trkpt><trkpt lat="49.13715876875027" lon="2.505632901934591"><ele>79.0</ele><time>2026-04-28T16:43:45.998Z</time></trkpt><trkpt lat="49.13707041805833" lon="2.505777548799702"><ele>80.0</ele><time>2026-04-28T16:43:46.998Z</time></trkpt><trkpt lat="49.13698350573875" lon="2.5059205152917556"><ele>81.0</ele><time>2026-04-28T16:43:47.998Z</time></trkpt><trkpt lat="49.13689801366013" lon="2.506062017988792"><ele>81.0</ele><time>2026-04-28T16:43:48.998Z</time></trkpt><trkpt lat="49.136816680363616" lon="2.5062007161926063"><ele>81.0</ele><time>2026-04-28T16:43:49.998Z</time></trkpt><trkpt lat="49.13673599330015" lon="2.5063336874432665"><ele>81.0</ele><time>2026-04-28T16:43:50.998Z</time></trkpt><trkpt lat="49.13665443581021" lon="2.50645585283398"><ele>81.0</ele><time>2026-04-28T16:43:51.998Z</time></trkpt><trkpt lat="49.13656811935989" lon="2.5065636625604943"><ele>81.0</ele><time>2026-04-28T16:43:52.998Z</time></trkpt><trkpt lat="49.13647989575241" lon="2.506658725778787"><ele>81.0</ele><time>2026-04-28T16:43:53.998Z</time></trkpt><trkpt lat="49.136395499236045" lon="2.506746273727072"><ele>81.0</ele><time>2026-04-28T16:43:54.998Z</time></trkpt><trkpt lat="49.13632254236283" lon="2.5068212101306613"><ele>81.0</ele><time>2026-04-28T16:43:55.998Z</time></trkpt><trkpt lat="49.13626409150282" lon="2.5068804781817025"><ele>81.0</ele><time>2026-04-28T16:43:56.998Z</time></trkpt><trkpt lat="49.13621027318573" lon="2.506934676651853"><ele>81.0</ele><time>2026-04-28T16:43:57.998Z</time></trkpt><trkpt lat="49.136129962435405" lon="2.507016817639409"><ele>81.0</ele><time>2026-04-28T16:43:59.998Z</time></trkpt><trkpt lat="49.13607173428031" lon="2.5070731750150883"><ele>81.0</ele><time>2026-04-28T16:44:02Z</time></trkpt><trkpt lat="49.13600381787615" lon="2.5071401663040715"><ele>81.0</ele><time>2026-04-28T16:44:06Z</time></trkpt><trkpt lat="49.13594792956258" lon="2.5071988337307767"><ele>81.0</ele><time>2026-04-28T16:44:08Z</time></trkpt><trkpt lat="49.13586876350895" lon="2.507281931484442"><ele>81.0</ele><time>2026-04-28T16:44:10Z</time></trkpt><trkpt lat="49.13581200942631" lon="2.5073449901454095"><ele>81.0</ele><time>2026-04-28T16:44:11Z</time></trkpt><trkpt lat="49.13574735954248" lon="2.5074191690710395"><ele>80.0</ele><time>2026-04-28T16:44:12Z</time></trkpt><trkpt lat="49.13568465307808" lon="2.507495733240725"><ele>79.0</ele><time>2026-04-28T16:44:13Z</time></trkpt><trkpt lat="49.135620670420195" lon="2.507579291774288"><ele>78.0</ele><time>2026-04-28T16:44:14Z</time></trkpt><trkpt lat="49.13555758315853" lon="2.5076738627744217"><ele>77.0</ele><time>2026-04-28T16:44:15Z</time></trkpt><trkpt lat="49.13550159115379" lon="2.5077799568552464"><ele>76.0</ele><time>2026-04-28T16:44:16Z</time></trkpt><trkpt lat="49.13545391435918" lon="2.5078950354121843"><ele>75.0</ele><time>2026-04-28T16:44:17Z</time></trkpt><trkpt lat="49.13540855392934" lon="2.5080128507595485"><ele>74.57142857142857</ele><time>2026-04-28T16:44:18Z</time></trkpt><trkpt lat="49.13536402643387" lon="2.5081261502478585"><ele>74.14285714285714</ele><time>2026-04-28T16:44:19Z</time></trkpt><trkpt lat="49.1353244557016" lon="2.5082274028506952"><ele>73.71428571428572</ele><time>2026-04-28T16:44:20Z</time></trkpt><trkpt lat="49.13528643296278" lon="2.5083215616910772"><ele>73.28571428571428</ele><time>2026-04-28T16:44:21Z</time></trkpt><trkpt lat="49.13524900445422" lon="2.5084130836113445"><ele>72.85714285714286</ele><time>2026-04-28T16:44:22Z</time></trkpt><trkpt lat="49.13521196641139" lon="2.5085033839355395"><ele>72.42857142857143</ele><time>2026-04-28T16:44:23Z</time></trkpt><trkpt lat="49.135176136931655" lon="2.508592592763507"><ele>72.0</ele><time>2026-04-28T16:44:24Z</time></trkpt><trkpt lat="49.135142380020774" lon="2.5086782652055275"><ele>71.8</ele><time>2026-04-28T16:44:25Z</time></trkpt><trkpt lat="49.13510954755963" lon="2.50876047289505"><ele>71.6</ele><time>2026-04-28T16:44:26Z</time></trkpt><trkpt lat="49.13505005532517" lon="2.50891016795123"><ele>71.39999999999999</ele><time>2026-04-28T16:44:28Z</time></trkpt><trkpt lat="49.135001067790085" lon="2.509042594207944"><ele>71.2</ele><time>2026-04-28T16:44:30Z</time></trkpt><trkpt lat="49.13495094873388" lon="2.509171568987812"><ele>71.0</ele><time>2026-04-28T16:44:32Z</time></trkpt><trkpt lat="49.13488695011985" lon="2.50932707665053"><ele>71.5</ele><time>2026-04-28T16:44:34Z</time></trkpt><trkpt lat="49.13483345142244" lon="2.509451187928647"><ele>72.0</ele><time>2026-04-28T16:44:35.999Z</time></trkpt><trkpt lat="49.13477947357109" lon="2.5095504671643933"><ele>72.5</ele><time>2026-04-28T16:44:37.999Z</time></trkpt><trkpt lat="49.13468966851129" lon="2.5096793568315143"><ele>73.0</ele><time>2026-04-28T16:44:39.999Z</time></trkpt><trkpt lat="49.13464082630071" lon="2.5097484218710804"><ele>73.5</ele><time>2026-04-28T16:44:40.999Z</time></trkpt><trkpt lat="49.134590689879566" lon="2.50981527023311"><ele>74.0</ele><time>2026-04-28T16:44:41.999Z</time></trkpt><trkpt lat="49.13454123789807" lon="2.5098756963020845"><ele>74.0</ele><time>2026-04-28T16:44:42.999Z</time></trkpt><trkpt lat="49.134457791172395" lon="2.5099602981327642"><ele>74.0</ele><time>2026-04-28T16:44:44.999Z</time></trkpt><trkpt lat="49.13438585240876" lon="2.51002841370645"><ele>74.0</ele><time>2026-04-28T16:44:46.999Z</time></trkpt><trkpt lat="49.13430645216033" lon="2.5101037985015973"><ele>74.0</ele><time>2026-04-28T16:44:48.999Z</time></trkpt><trkpt lat="49.13422280365599" lon="2.5101882555624546"><ele>74.0</ele><time>2026-04-28T16:44:50.999Z</time></trkpt><trkpt lat="49.13414949567215" lon="2.5102617106212373"><ele>74.0</ele><time>2026-04-28T16:44:52.999Z</time></trkpt><trkpt lat="49.13408537415194" lon="2.510322761081557"><ele>74.0</ele><time>2026-04-28T16:44:55.999Z</time></trkpt><trkpt lat="49.13401935067025" lon="2.5103924832370765"><ele>74.0</ele><time>2026-04-28T16:45:04.999Z</time></trkpt><trkpt lat="49.13395443827825" lon="2.510461186089874"><ele>74.0</ele><time>2026-04-28T16:45:06.999Z</time></trkpt><trkpt lat="49.13388252008359" lon="2.510533279925367"><ele>74.0</ele><time>2026-04-28T16:45:08.999Z</time></trkpt><trkpt lat="49.13380039685803" lon="2.5106150303436148"><ele>74.0</ele><time>2026-04-28T16:45:10.999Z</time></trkpt><trkpt lat="49.13369880549489" lon="2.5107193703248156"><ele>74.14285714285714</ele><time>2026-04-28T16:45:12.998Z</time></trkpt><trkpt lat="49.13364815762497" lon="2.510783021834382"><ele>74.28571428571428</ele><time>2026-04-28T16:45:13.998Z</time></trkpt><trkpt lat="49.13359693263127" lon="2.510850888352342"><ele>74.42857142857142</ele><time>2026-04-28T16:45:14.998Z</time></trkpt><trkpt lat="49.133547233175285" lon="2.5109244966182156"><ele>74.57142857142857</ele><time>2026-04-28T16:45:15.998Z</time></trkpt><trkpt lat="49.133499694634594" lon="2.5110031466827984"><ele>74.71428571428571</ele><time>2026-04-28T16:45:16.998Z</time></trkpt><trkpt lat="49.133454077972914" lon="2.5110896575412642"><ele>74.85714285714285</ele><time>2026-04-28T16:45:17.998Z</time></trkpt><trkpt lat="49.133409790338696" lon="2.5111795709859916"><ele>75.0</ele><time>2026-04-28T16:45:18.998Z</time></trkpt><trkpt lat="49.133365702268314" lon="2.5112704710334253"><ele>74.99999999999999</ele><time>2026-04-28T16:45:19.998Z</time></trkpt><trkpt lat="49.133324533663" lon="2.51136340064691"><ele>75.0</ele><time>2026-04-28T16:45:20.998Z</time></trkpt><trkpt lat="49.133284323698305" lon="2.5114529907556875"><ele>75.0</ele><time>2026-04-28T16:45:21.998Z</time></trkpt><trkpt lat="49.13324316570212" lon="2.511540287043666"><ele>75.0</ele><time>2026-04-28T16:45:22.998Z</time></trkpt><trkpt lat="49.13320353260344" lon="2.511626359709982"><ele>75.0</ele><time>2026-04-28T16:45:23.998Z</time></trkpt><trkpt lat="49.133164861784046" lon="2.511710186745475"><ele>74.99999999999999</ele><time>2026-04-28T16:45:24.998Z</time></trkpt><trkpt lat="49.13312397797445" lon="2.511792756868858"><ele>75.0</ele><time>2026-04-28T16:45:25.998Z</time></trkpt><trkpt lat="49.13308270352287" lon="2.5118764683978605"><ele>75.14285714285714</ele><time>2026-04-28T16:45:26.998Z</time></trkpt><trkpt lat="49.13304340119264" lon="2.511963479603597"><ele>75.28571428571428</ele><time>2026-04-28T16:45:27.998Z</time></trkpt><trkpt lat="49.13300456183523" lon="2.5120518526067723"><ele>75.42857142857142</ele><time>2026-04-28T16:45:28.998Z</time></trkpt><trkpt lat="49.1329651161704" lon="2.5121381168071255"><ele>75.57142857142857</ele><time>2026-04-28T16:45:29.998Z</time></trkpt><trkpt lat="49.13292578571722" lon="2.5122273203329875"><ele>75.71428571428572</ele><time>2026-04-28T16:45:30.998Z</time></trkpt><trkpt lat="49.13288610188964" lon="2.512315472686973"><ele>75.85714285714285</ele><time>2026-04-28T16:45:31.998Z</time></trkpt><trkpt lat="49.132847537239286" lon="2.5124028197906494"><ele>76.0</ele><time>2026-04-28T16:45:32.998Z</time></trkpt><trkpt lat="49.13280945216486" lon="2.5124870807208746"><ele>76.0</ele><time>2026-04-28T16:45:33.998Z</time></trkpt><trkpt lat="49.13274092482874" lon="2.512641121062743"><ele>76.0</ele><time>2026-04-28T16:45:35.998Z</time></trkpt><trkpt lat="49.13267972104993" lon="2.512787811618911"><ele>76.0</ele><time>2026-04-28T16:45:37.998Z</time></trkpt><trkpt lat="49.13262191817702" lon="2.5129177339995037"><ele>76.0</ele><time>2026-04-28T16:45:39.998Z</time></trkpt><trkpt lat="49.13258203019831" lon="2.512997207052643"><ele>76.0</ele><time>2026-04-28T16:45:41.998Z</time></trkpt><trkpt lat="49.13265076668478" lon="2.51311545822692"><ele>75.8</ele><time>2026-04-28T16:45:48.998Z</time></trkpt><trkpt lat="49.132740716524204" lon="2.5131535821541346"><ele>75.6</ele><time>2026-04-28T16:45:50.998Z</time></trkpt><trkpt lat="49.1328491160465" lon="2.513203759342662"><ele>75.4</ele><time>2026-04-28T16:45:52.997Z</time></trkpt><trkpt lat="49.13295654578229" lon="2.5132481088873715"><ele>75.2</ele><time>2026-04-28T16:45:54.997Z</time></trkpt><trkpt lat="49.133058296272154" lon="2.5132914868868856"><ele>75.0</ele><time>2026-04-28T16:45:56.997Z</time></trkpt><trkpt lat="49.13315039123616" lon="2.513332613067997"><ele>74.6</ele><time>2026-04-28T16:45:58.997Z</time></trkpt><trkpt lat="49.13323465385446" lon="2.513369303312716"><ele>74.2</ele><time>2026-04-28T16:46:00.997Z</time></trkpt><trkpt lat="49.13332922873341" lon="2.513409624982129"><ele>73.8</ele><time>2026-04-28T16:46:02.997Z</time></trkpt><trkpt lat="49.133442432370835" lon="2.5134544721967274"><ele>73.4</ele><time>2026-04-28T16:46:04.997Z</time></trkpt><trkpt lat="49.133565109387845" lon="2.5135062976968747"><ele>73.0</ele><time>2026-04-28T16:46:07Z</time></trkpt><trkpt lat="49.13362724259703" lon="2.5135333889496905"><ele>73.0</ele><time>2026-04-28T16:46:08Z</time></trkpt><trkpt lat="49.13368787940654" lon="2.513560022735532"><ele>73.0</ele><time>2026-04-28T16:46:09Z</time></trkpt><trkpt lat="49.13380019783146" lon="2.513608429206128"><ele>73.0</ele><time>2026-04-28T16:46:11Z</time></trkpt><trkpt lat="49.13386841381162" lon="2.51363845168509"><ele>73.0</ele><time>2026-04-28T16:46:14Z</time></trkpt><trkpt lat="49.1339600463941" lon="2.5136640890938438"><ele>73.0</ele><time>2026-04-28T16:46:17Z</time></trkpt><trkpt lat="49.13404773864788" lon="2.513659710232371"><ele>73.0</ele><time>2026-04-28T16:46:19Z</time></trkpt><trkpt lat="49.13411359461513" lon="2.5136445110392827"><ele>72.33333333333333</ele><time>2026-04-28T16:46:20Z</time></trkpt><trkpt lat="49.13418841414568" lon="2.5136258715739013"><ele>71.66666666666666</ele><time>2026-04-28T16:46:21Z</time></trkpt><trkpt lat="49.13426447422351" lon="2.513606886043823"><ele>71.0</ele><time>2026-04-28T16:46:22Z</time></trkpt><trkpt lat="49.13434642757748" lon="2.5135854616535678"><ele>70.33333333333333</ele><time>2026-04-28T16:46:23Z</time></trkpt><trkpt lat="49.13443515127738" lon="2.5135618019936277"><ele>69.66666666666667</ele><time>2026-04-28T16:46:24Z</time></trkpt><trkpt lat="49.13452185381916" lon="2.513513976133532"><ele>69.0</ele><time>2026-04-28T16:46:25Z</time></trkpt><trkpt lat="49.134609272989685" lon="2.513491365690669"><ele>69.0</ele><time>2026-04-28T16:46:26Z</time></trkpt><trkpt lat="49.13469890710556" lon="2.5134944763725144"><ele>69.0</ele><time>2026-04-28T16:46:26.999Z</time></trkpt><trkpt lat="49.13478158577564" lon="2.5134484806023254"><ele>69.0</ele><time>2026-04-28T16:46:27.999Z</time></trkpt><trkpt lat="49.13486788801951" lon="2.513451986658748"><ele>69.0</ele><time>2026-04-28T16:46:28.999Z</time></trkpt><trkpt lat="49.13495460932375" lon="2.5134301808668478"><ele>69.0</ele><time>2026-04-28T16:46:29.999Z</time></trkpt><trkpt lat="49.135041408272" lon="2.513408355777717"><ele>69.0</ele><time>2026-04-28T16:46:30.999Z</time></trkpt><trkpt lat="49.135128885922974" lon="2.5133870847213897"><ele>68.60000000000001</ele><time>2026-04-28T16:46:31.999Z</time></trkpt><trkpt lat="49.13521883320103" lon="2.5133649825093376"><ele>68.2</ele><time>2026-04-28T16:46:32.999Z</time></trkpt><trkpt lat="49.13531015378568" lon="2.5133425428605514"><ele>67.80000000000001</ele><time>2026-04-28T16:46:33.999Z</time></trkpt><trkpt lat="49.13539994722828" lon="2.513320478466803"><ele>67.4</ele><time>2026-04-28T16:46:34.999Z</time></trkpt><trkpt lat="49.135488201027314" lon="2.5132745445864075"><ele>67.0</ele><time>2026-04-28T16:46:35.999Z</time></trkpt><trkpt lat="49.13557816616901" lon="2.513255065091419"><ele>67.0</ele><time>2026-04-28T16:46:36.999Z</time></trkpt><trkpt lat="49.13566584853967" lon="2.513234609516755"><ele>67.0</ele><time>2026-04-28T16:46:37.999Z</time></trkpt><trkpt lat="49.13575463439374" lon="2.5132156203599556"><ele>67.0</ele><time>2026-04-28T16:46:38.999Z</time></trkpt><trkpt lat="49.13584335229994" lon="2.513211707702155"><ele>67.0</ele><time>2026-04-28T16:46:39.999Z</time></trkpt><trkpt lat="49.13593484099361" lon="2.513226405382677"><ele>67.0</ele><time>2026-04-28T16:46:40.999Z</time></trkpt><trkpt lat="49.13602577739106" lon="2.5132478815981107"><ele>67.0</ele><time>2026-04-28T16:46:41.999Z</time></trkpt><trkpt lat="49.136120060647166" lon="2.5132724524485277"><ele>67.0</ele><time>2026-04-28T16:46:42.999Z</time></trkpt><trkpt lat="49.13621702825095" lon="2.5132948216669346"><ele>67.0</ele><time>2026-04-28T16:46:43.999Z</time></trkpt><trkpt lat="49.136315849996706" lon="2.5133181579777166"><ele>67.0</ele><time>2026-04-28T16:46:44.999Z</time></trkpt><trkpt lat="49.136415301854676" lon="2.5133425938702985"><ele>67.0</ele><time>2026-04-28T16:46:45.999Z</time></trkpt><trkpt lat="49.13651412027535" lon="2.5133644821584777"><ele>66.4</ele><time>2026-04-28T16:46:46.999Z</time></trkpt><trkpt lat="49.13661307863719" lon="2.513382832560981"><ele>65.80000000000001</ele><time>2026-04-28T16:46:47.999Z</time></trkpt><trkpt lat="49.13671377030207" lon="2.513403286322776"><ele>65.2</ele><time>2026-04-28T16:46:48.999Z</time></trkpt><trkpt lat="49.136816494321735" lon="2.5134301553624803"><ele>64.60000000000001</ele><time>2026-04-28T16:46:49.999Z</time></trkpt><trkpt lat="49.13691926729085" lon="2.5134581023294262"><ele>64.0</ele><time>2026-04-28T16:46:50.999Z</time></trkpt><trkpt lat="49.13702268561637" lon="2.5134840277556556"><ele>64.0</ele><time>2026-04-28T16:46:51.999Z</time></trkpt><trkpt lat="49.13712596271749" lon="2.5135092583221286"><ele>64.0</ele><time>2026-04-28T16:46:52.999Z</time></trkpt><trkpt lat="49.13722815488786" lon="2.5135336949239124"><ele>64.0</ele><time>2026-04-28T16:46:53.999Z</time></trkpt><trkpt lat="49.137329553033794" lon="2.513558016416908"><ele>64.0</ele><time>2026-04-28T16:46:54.999Z</time></trkpt><trkpt lat="49.137428098296255" lon="2.5135799101491085"><ele>64.0</ele><time>2026-04-28T16:46:55.999Z</time></trkpt><trkpt lat="49.13752260122599" lon="2.513602682221415"><ele>63.800000000000004</ele><time>2026-04-28T16:46:56.999Z</time></trkpt><trkpt lat="49.13761594157621" lon="2.5136258993042846"><ele>63.60000000000001</ele><time>2026-04-28T16:46:57.999Z</time></trkpt><trkpt lat="49.13770990621293" lon="2.5136502205374227"><ele>63.4</ele><time>2026-04-28T16:46:58.999Z</time></trkpt><trkpt lat="49.13780506661915" lon="2.51367519902695"><ele>63.2</ele><time>2026-04-28T16:46:59.999Z</time></trkpt><trkpt lat="49.13790243212981" lon="2.5136998138486097"><ele>63.0</ele><time>2026-04-28T16:47:00.999Z</time></trkpt><trkpt lat="49.13800152097292" lon="2.513724558530037"><ele>62.75</ele><time>2026-04-28T16:47:01.999Z</time></trkpt><trkpt lat="49.138106444924794" lon="2.513751714584105"><ele>62.5</ele><time>2026-04-28T16:47:02.999Z</time></trkpt><trkpt lat="49.13822146727413" lon="2.5137809112501226"><ele>62.25</ele><time>2026-04-28T16:47:03.999Z</time></trkpt><trkpt lat="49.138344778948436" lon="2.513815468693463"><ele>62.0</ele><time>2026-04-28T16:47:04.999Z</time></trkpt><trkpt lat="49.1384748748738" lon="2.5138487608896325"><ele>62.0</ele><time>2026-04-28T16:47:05.998Z</time></trkpt><trkpt lat="49.138609709956825" lon="2.513883817336613"><ele>62.0</ele><time>2026-04-28T16:47:06.998Z</time></trkpt><trkpt lat="49.13874173727821" lon="2.513918595223484"><ele>62.0</ele><time>2026-04-28T16:47:07.998Z</time></trkpt><trkpt lat="49.13887235149186" lon="2.5139538168682227"><ele>62.0</ele><time>2026-04-28T16:47:08.998Z</time></trkpt><trkpt lat="49.13900752491034" lon="2.5139903755601214"><ele>62.0</ele><time>2026-04-28T16:47:09.998Z</time></trkpt><trkpt lat="49.13914387341692" lon="2.5140266655949706"><ele>62.0</ele><time>2026-04-28T16:47:10.998Z</time></trkpt><trkpt lat="49.1392824970718" lon="2.5140678013160627"><ele>62.0</ele><time>2026-04-28T16:47:11.998Z</time></trkpt><trkpt lat="49.13942298999057" lon="2.514107503507645"><ele>62.0</ele><time>2026-04-28T16:47:12.998Z</time></trkpt><trkpt lat="49.139565114229555" lon="2.51414564978372"><ele>62.0</ele><time>2026-04-28T16:47:13.998Z</time></trkpt><trkpt lat="49.13970322794348" lon="2.51418495706694"><ele>62.0</ele><time>2026-04-28T16:47:14.998Z</time></trkpt><trkpt lat="49.13983628358207" lon="2.5142221641542415"><ele>62.0</ele><time>2026-04-28T16:47:15.998Z</time></trkpt><trkpt lat="49.13996798487351" lon="2.5142581023046904"><ele>62.0</ele><time>2026-04-28T16:47:16.998Z</time></trkpt><trkpt lat="49.14009430702215" lon="2.514292656725719"><ele>62.2</ele><time>2026-04-28T16:47:17.998Z</time></trkpt><trkpt lat="49.14020230552654" lon="2.5143218227204867"><ele>62.400000000000006</ele><time>2026-04-28T16:47:18.998Z</time></trkpt><trkpt lat="49.14028592430633" lon="2.514342661630178"><ele>62.599999999999994</ele><time>2026-04-28T16:47:19.998Z</time></trkpt><trkpt lat="49.14039656854775" lon="2.5143724389770292"><ele>62.8</ele><time>2026-04-28T16:47:21.998Z</time></trkpt><trkpt lat="49.140511781286634" lon="2.514434147429497"><ele>63.0</ele><time>2026-04-28T16:47:23.998Z</time></trkpt><trkpt lat="49.140597763642965" lon="2.514446281111804"><ele>63.0</ele><time>2026-04-28T16:47:24.998Z</time></trkpt><trkpt lat="49.140684337722355" lon="2.514491312033239"><ele>63.0</ele><time>2026-04-28T16:47:25.998Z</time></trkpt><trkpt lat="49.140771088058194" lon="2.5145325856360117"><ele>63.0</ele><time>2026-04-28T16:47:26.998Z</time></trkpt><trkpt lat="49.140864528745304" lon="2.5145775136531117"><ele>63.0</ele><time>2026-04-28T16:47:27.998Z</time></trkpt><trkpt lat="49.14096422766169" lon="2.5146265793249514"><ele>63.0</ele><time>2026-04-28T16:47:28.998Z</time></trkpt><trkpt lat="49.14106802164956" lon="2.5146788153786765"><ele>63.0</ele><time>2026-04-28T16:47:29.998Z</time></trkpt><trkpt lat="49.14117502783383" lon="2.514732575121444"><ele>63.0</ele><time>2026-04-28T16:47:30.998Z</time></trkpt><trkpt lat="49.141283997723406" lon="2.5147866315692045"><ele>63.0</ele><time>2026-04-28T16:47:31.998Z</time></trkpt><trkpt lat="49.1413936968879" lon="2.514843088936782"><ele>63.0</ele><time>2026-04-28T16:47:32.998Z</time></trkpt><trkpt lat="49.14150046936466" lon="2.5148980404233177"><ele>62.599999999999994</ele><time>2026-04-28T16:47:33.998Z</time></trkpt><trkpt lat="49.14159202294002" lon="2.514942178392704"><ele>62.199999999999996</ele><time>2026-04-28T16:47:34.998Z</time></trkpt><trkpt lat="49.14165850653417" lon="2.514972478393096"><ele>61.8</ele><time>2026-04-28T16:47:35.998Z</time></trkpt><trkpt lat="49.14175030939471" lon="2.5150145453455797"><ele>61.4</ele><time>2026-04-28T16:47:37.998Z</time></trkpt><trkpt lat="49.14187794353645" lon="2.5150786066731943"><ele>61.0</ele><time>2026-04-28T16:47:39.998Z</time></trkpt><trkpt lat="49.14196380982913" lon="2.515123302782348"><ele>61.0</ele><time>2026-04-28T16:47:40.998Z</time></trkpt><trkpt lat="49.14204785117011" lon="2.5151653223599855"><ele>60.99999999999999</ele><time>2026-04-28T16:47:41.998Z</time></trkpt><trkpt lat="49.14213687706061" lon="2.515211127343741"><ele>60.99999999999999</ele><time>2026-04-28T16:47:42.998Z</time></trkpt><trkpt lat="49.142231998277055" lon="2.5152579037354594"><ele>61.0</ele><time>2026-04-28T16:47:43.998Z</time></trkpt><trkpt lat="49.142332164549636" lon="2.515306796260097"><ele>61.0</ele><time>2026-04-28T16:47:44.998Z</time></trkpt><trkpt lat="49.14243614087543" lon="2.515358109025478"><ele>60.599999999999994</ele><time>2026-04-28T16:47:45.997Z</time></trkpt><trkpt lat="49.14254036660675" lon="2.515409700015999"><ele>60.199999999999996</ele><time>2026-04-28T16:47:46.997Z</time></trkpt><trkpt lat="49.14264416929014" lon="2.5154627705444335"><ele>59.800000000000004</ele><time>2026-04-28T16:47:47.997Z</time></trkpt><trkpt lat="49.142746843788046" lon="2.515514100408103"><ele>59.400000000000006</ele><time>2026-04-28T16:47:48.997Z</time></trkpt><trkpt lat="49.14284798572283" lon="2.5155616231328812"><ele>59.0</ele><time>2026-04-28T16:47:49.997Z</time></trkpt><trkpt lat="49.142948678156145" lon="2.5156085634770577"><ele>59.00000000000001</ele><time>2026-04-28T16:47:50.997Z</time></trkpt><trkpt lat="49.14303039165725" lon="2.5156472092964903"><ele>59.0</ele><time>2026-04-28T16:47:51.997Z</time></trkpt><trkpt lat="49.14309277396018" lon="2.5156760391532624"><ele>59.0</ele><time>2026-04-28T16:47:52.997Z</time></trkpt><trkpt lat="49.14315720640203" lon="2.5157098722161133"><ele>59.0</ele><time>2026-04-28T16:47:53.997Z</time></trkpt><trkpt lat="49.14323007089141" lon="2.515744546290621"><ele>59.00000000000001</ele><time>2026-04-28T16:47:54.997Z</time></trkpt><trkpt lat="49.14331437158267" lon="2.5157861362385603"><ele>59.0</ele><time>2026-04-28T16:47:55.997Z</time></trkpt><trkpt lat="49.14340786831199" lon="2.5158348580446286"><ele>58.800000000000004</ele><time>2026-04-28T16:47:56.997Z</time></trkpt><trkpt lat="49.14350866338394" lon="2.515883862456461"><ele>58.60000000000001</ele><time>2026-04-28T16:47:57.997Z</time></trkpt><trkpt lat="49.14361114459934" lon="2.515932866447446"><ele>58.4</ele><time>2026-04-28T16:47:58.997Z</time></trkpt><trkpt lat="49.1437120599742" lon="2.515982730998868"><ele>58.2</ele><time>2026-04-28T16:47:59.997Z</time></trkpt><trkpt lat="49.14380813940356" lon="2.5160313501613234"><ele>58.0</ele><time>2026-04-28T16:48:00.997Z</time></trkpt><trkpt lat="49.14389528428774" lon="2.5160759637017485"><ele>57.99999999999999</ele><time>2026-04-28T16:48:01.997Z</time></trkpt><trkpt lat="49.14398105571276" lon="2.51611865650844"><ele>58.0</ele><time>2026-04-28T16:48:02.997Z</time></trkpt><trkpt lat="49.14406466744548" lon="2.5161593852628967"><ele>58.0</ele><time>2026-04-28T16:48:03.997Z</time></trkpt><trkpt lat="49.144137838901536" lon="2.5161939003484814"><ele>58.0</ele><time>2026-04-28T16:48:04.997Z</time></trkpt><trkpt lat="49.14423033553343" lon="2.5162363111432917"><ele>57.99999999999999</ele><time>2026-04-28T16:48:06.997Z</time></trkpt><trkpt lat="49.14429588495291" lon="2.51626480446329"><ele>58.0</ele><time>2026-04-28T16:48:08.997Z</time></trkpt><trkpt lat="49.14436610080966" lon="2.5162873665795775"><ele>57.71428571428572</ele><time>2026-04-28T16:48:10.997Z</time></trkpt><trkpt lat="49.14442886356618" lon="2.5163326697859842"><ele>57.42857142857143</ele><time>2026-04-28T16:48:12.999Z</time></trkpt><trkpt lat="49.14446630992154" lon="2.516228552189221"><ele>57.142857142857146</ele><time>2026-04-28T16:48:13.999Z</time></trkpt><trkpt lat="49.14451000028828" lon="2.5161390521658156"><ele>56.85714285714286</ele><time>2026-04-28T16:48:15.999Z</time></trkpt><trkpt lat="49.144549777998726" lon="2.516050884993733"><ele>56.57142857142857</ele><time>2026-04-28T16:48:17.999Z</time></trkpt><trkpt lat="49.144594472552164" lon="2.515976837106342"><ele>56.285714285714285</ele><time>2026-04-28T16:48:19.999Z</time></trkpt><trkpt lat="49.144544825760796" lon="2.515917659097337"><ele>56.0</ele><time>2026-04-28T16:48:32.999Z</time></trkpt><trkpt lat="49.144478220840064" lon="2.5159399029332525"><ele>56.0</ele><time>2026-04-28T16:48:35.999Z</time></trkpt><trkpt lat="49.14441342752275" lon="2.515605949220571"><ele>56.0</ele><time>2026-04-28T16:48:41.999Z</time></trkpt><trkpt lat="49.144349391520734" lon="2.515516340412569"><ele>56.0</ele><time>2026-04-28T16:48:45.999Z</time></trkpt><trkpt lat="49.144304421390416" lon="2.5154258132622225"><ele>56.0</ele><time>2026-04-28T16:48:49.999Z</time></trkpt><trkpt lat="49.14426990973755" lon="2.5153449640705"><ele>55.857142857142854</ele><time>2026-04-28T16:49:19.998Z</time></trkpt><trkpt lat="49.14421105659684" lon="2.5152822556289878"><ele>55.714285714285715</ele><time>2026-04-28T16:49:51.997Z</time></trkpt><trkpt lat="49.14425586853214" lon="2.5153598928465866"><ele>55.57142857142857</ele><time>2026-04-28T16:50:15.997Z</time></trkpt><trkpt lat="49.14425317670362" lon="2.515249864286212"><ele>55.42857142857143</ele><time>2026-04-28T16:51:52.997Z</time></trkpt><trkpt lat="49.14429901669043" lon="2.5153197018523388"><ele>55.285714285714285</ele><time>2026-04-28T16:51:58.997Z</time></trkpt><trkpt lat="49.14436399031504" lon="2.5153017508717923"><ele>55.14285714285714</ele><time>2026-04-28T16:52:05.997Z</time></trkpt><trkpt lat="49.144299472110085" lon="2.5153213687913616"><ele>55.0</ele><time>2026-04-28T16:52:32.999Z</time></trkpt><trkpt lat="49.14435879823812" lon="2.515286382444735"><ele>54.99999999999999</ele><time>2026-04-28T16:58:34.997Z</time></trkpt><trkpt lat="49.14432558254743" lon="2.5153799965897234"><ele>55.0</ele><time>2026-04-28T16:59:06.999Z</time></trkpt><trkpt lat="49.14435215029618" lon="2.5152902681245473"><ele>55.0</ele><time>2026-04-28T16:59:41.999Z</time></trkpt><trkpt lat="49.14440973621114" lon="2.5153400868420914"><ele>55.0</ele><time>2026-04-28T16:59:50.998Z</time></trkpt><trkpt lat="49.14435796823973" lon="2.515279733833683"><ele>55.0</ele><time>2026-04-28T17:00:51.999Z</time></trkpt><trkpt lat="49.14432609186417" lon="2.51537012913948"><ele>54.99999999999999</ele><time>2026-04-28T17:01:01.999Z</time></trkpt><trkpt lat="49.14426756247528" lon="2.515323149586382"><ele>55.0</ele><time>2026-04-28T17:01:36.999Z</time></trkpt><trkpt lat="49.14429887500786" lon="2.515408439937251"><ele>55.166666666666664</ele><time>2026-04-28T17:02:42.997Z</time></trkpt><trkpt lat="49.1443408915132" lon="2.515498164188054"><ele>55.33333333333333</ele><time>2026-04-28T17:02:47.997Z</time></trkpt><trkpt lat="49.14439801553633" lon="2.5155765128693943"><ele>55.5</ele><time>2026-04-28T17:02:51.999Z</time></trkpt><trkpt lat="49.14444991086094" lon="2.515659603795962"><ele>55.66666666666667</ele><time>2026-04-28T17:02:55.999Z</time></trkpt><trkpt lat="49.144500707808206" lon="2.515745566945676"><ele>55.833333333333336</ele><time>2026-04-28T17:02:59.999Z</time></trkpt><trkpt lat="49.14455869010562" lon="2.5158214090461497"><ele>56.0</ele><time>2026-04-28T17:03:03.999Z</time></trkpt><trkpt lat="49.14459864669092" lon="2.515923040166138"><ele>56.00000000000001</ele><time>2026-04-28T17:03:07.999Z</time></trkpt><trkpt lat="49.144530783300304" lon="2.516051177562684"><ele>56.0</ele><time>2026-04-28T17:03:12.999Z</time></trkpt><trkpt lat="49.14448050304521" lon="2.516152815077444"><ele>56.0</ele><time>2026-04-28T17:03:16.999Z</time></trkpt><trkpt lat="49.144446577953765" lon="2.5162463296972017"><ele>56.0</ele><time>2026-04-28T17:03:19.999Z</time></trkpt><trkpt lat="49.14438095394229" lon="2.516300075694006"><ele>56.00000000000001</ele><time>2026-04-28T17:03:22.999Z</time></trkpt><trkpt lat="49.14430566437647" lon="2.516235252170327"><ele>56.0</ele><time>2026-04-28T17:03:24.999Z</time></trkpt><trkpt lat="49.144224982512085" lon="2.516223887800214"><ele>56.00000000000001</ele><time>2026-04-28T17:03:26.999Z</time></trkpt><trkpt lat="49.14413167908047" lon="2.5161817529727672"><ele>56.0</ele><time>2026-04-28T17:03:28.999Z</time></trkpt><trkpt lat="49.14401265093381" lon="2.5161223998402096"><ele>56.0</ele><time>2026-04-28T17:03:30.999Z</time></trkpt><trkpt lat="49.14394583799881" lon="2.5160908235757944"><ele>56.0</ele><time>2026-04-28T17:03:31.999Z</time></trkpt><trkpt lat="49.14387602025186" lon="2.51605313590123"><ele>56.00000000000001</ele><time>2026-04-28T17:03:32.999Z</time></trkpt><trkpt lat="49.14380433964647" lon="2.5160134517410264"><ele>56.0</ele><time>2026-04-28T17:03:33.999Z</time></trkpt><trkpt lat="49.14372971703029" lon="2.515979165663664"><ele>56.333333333333336</ele><time>2026-04-28T17:03:34.999Z</time></trkpt><trkpt lat="49.14365576509729" lon="2.5159426335712887"><ele>56.66666666666667</ele><time>2026-04-28T17:03:35.999Z</time></trkpt><trkpt lat="49.14358143727959" lon="2.515905072716776"><ele>57.0</ele><time>2026-04-28T17:03:36.999Z</time></trkpt><trkpt lat="49.14350685115032" lon="2.5158682882188206"><ele>57.33333333333333</ele><time>2026-04-28T17:03:37.999Z</time></trkpt><trkpt lat="49.14343330082631" lon="2.515832296547156"><ele>57.666666666666664</ele><time>2026-04-28T17:03:38.999Z</time></trkpt><trkpt lat="49.143361451325205" lon="2.5157975735840234"><ele>58.0</ele><time>2026-04-28T17:03:39.999Z</time></trkpt><trkpt lat="49.14329479249865" lon="2.515764706511256"><ele>57.99999999999999</ele><time>2026-04-28T17:03:40.999Z</time></trkpt><trkpt lat="49.14323295980351" lon="2.515734120355988"><ele>58.0</ele><time>2026-04-28T17:03:41.999Z</time></trkpt><trkpt lat="49.143128799630524" lon="2.5156804634249323"><ele>58.0</ele><time>2026-04-28T17:03:43.999Z</time></trkpt><trkpt lat="49.14305346254218" lon="2.5156424217870033"><ele>58.0</ele><time>2026-04-28T17:03:45.999Z</time></trkpt><trkpt lat="49.142963295416735" lon="2.5156000663498395"><ele>57.99999999999999</ele><time>2026-04-28T17:03:47.999Z</time></trkpt><trkpt lat="49.14290115643625" lon="2.5155701958897723"><ele>58.0</ele><time>2026-04-28T17:03:48.998Z</time></trkpt><trkpt lat="49.142829332040584" lon="2.5155351203349134"><ele>58.166666666666664</ele><time>2026-04-28T17:03:49.998Z</time></trkpt><trkpt lat="49.14275273789097" lon="2.5154966784215964"><ele>58.33333333333333</ele><time>2026-04-28T17:03:50.998Z</time></trkpt><trkpt lat="49.14267214946166" lon="2.5154563076243686"><ele>58.5</ele><time>2026-04-28T17:03:51.998Z</time></trkpt><trkpt lat="49.142585100570955" lon="2.515412152801585"><ele>58.66666666666667</ele><time>2026-04-28T17:03:52.998Z</time></trkpt><trkpt lat="49.142500993795075" lon="2.51536950226695"><ele>58.833333333333336</ele><time>2026-04-28T17:03:53.998Z</time></trkpt><trkpt lat="49.142415396786404" lon="2.515326423359697"><ele>59.0</ele><time>2026-04-28T17:03:54.998Z</time></trkpt><trkpt lat="49.1423266235051" lon="2.5152818167003343"><ele>59.333333333333336</ele><time>2026-04-28T17:03:55.998Z</time></trkpt><trkpt lat="49.142235920441884" lon="2.5152366521156804"><ele>59.66666666666667</ele><time>2026-04-28T17:03:56.998Z</time></trkpt><trkpt lat="49.14214457393324" lon="2.515192122735813"><ele>60.0</ele><time>2026-04-28T17:03:57.998Z</time></trkpt><trkpt lat="49.14205681301154" lon="2.515149449385485"><ele>60.33333333333333</ele><time>2026-04-28T17:03:58.998Z</time></trkpt><trkpt lat="49.141976242101265" lon="2.5151100812938036"><ele>60.666666666666664</ele><time>2026-04-28T17:03:59.998Z</time></trkpt><trkpt lat="49.141907803372604" lon="2.515075624431393"><ele>61.0</ele><time>2026-04-28T17:04:00.998Z</time></trkpt><trkpt lat="49.14180286464577" lon="2.51502258482124"><ele>60.99999999999999</ele><time>2026-04-28T17:04:02.998Z</time></trkpt><trkpt lat="49.14172254247822" lon="2.51498364928772"><ele>61.0</ele><time>2026-04-28T17:04:04.998Z</time></trkpt><trkpt lat="49.141645588361584" lon="2.5149487342270596"><ele>61.0</ele><time>2026-04-28T17:04:06.998Z</time></trkpt><trkpt lat="49.141531141457186" lon="2.5148925736899246"><ele>61.0</ele><time>2026-04-28T17:04:08.998Z</time></trkpt><trkpt lat="49.14145429764421" lon="2.514853115003796"><ele>60.99999999999999</ele><time>2026-04-28T17:04:09.998Z</time></trkpt><trkpt lat="49.1413760792537" lon="2.5148132334581543"><ele>61.0</ele><time>2026-04-28T17:04:10.998Z</time></trkpt><trkpt lat="49.1412977742914" lon="2.5147715982735868"><ele>61.4</ele><time>2026-04-28T17:04:11.998Z</time></trkpt><trkpt lat="49.14121180160706" lon="2.51472768949401"><ele>61.8</ele><time>2026-04-28T17:04:12.998Z</time></trkpt><trkpt lat="49.14112192993969" lon="2.5146839659660585"><ele>62.199999999999996</ele><time>2026-04-28T17:04:13.998Z</time></trkpt><trkpt lat="49.141030854848125" lon="2.5146395829069963"><ele>62.599999999999994</ele><time>2026-04-28T17:04:14.998Z</time></trkpt><trkpt lat="49.140939440211426" lon="2.51459523969823"><ele>63.0</ele><time>2026-04-28T17:04:15.998Z</time></trkpt><trkpt lat="49.140848510421556" lon="2.514548456040019"><ele>63.0</ele><time>2026-04-28T17:04:16.998Z</time></trkpt><trkpt lat="49.14075853408358" lon="2.514503536492029"><ele>63.0</ele><time>2026-04-28T17:04:17.998Z</time></trkpt><trkpt lat="49.140669947042305" lon="2.514461340741734"><ele>63.0</ele><time>2026-04-28T17:04:18.998Z</time></trkpt><trkpt lat="49.140584364347525" lon="2.5144264291774756"><ele>63.0</ele><time>2026-04-28T17:04:19.998Z</time></trkpt><trkpt lat="49.140503602771574" lon="2.514395392503726"><ele>63.0</ele><time>2026-04-28T17:04:20.998Z</time></trkpt><trkpt lat="49.140434810013026" lon="2.514370302277882"><ele>63.0</ele><time>2026-04-28T17:04:21.998Z</time></trkpt><trkpt lat="49.14035033470672" lon="2.5143419252368804"><ele>63.0</ele><time>2026-04-28T17:04:23.998Z</time></trkpt><trkpt lat="49.140276843212376" lon="2.5143212840249842"><ele>63.0</ele><time>2026-04-28T17:04:25.998Z</time></trkpt><trkpt lat="49.14016861791916" lon="2.5142935262032253"><ele>63.0</ele><time>2026-04-28T17:04:27.998Z</time></trkpt><trkpt lat="49.14010471219507" lon="2.514277254290497"><ele>63.0</ele><time>2026-04-28T17:04:28.998Z</time></trkpt><trkpt lat="49.1400372143525" lon="2.5142560150316497"><ele>63.0</ele><time>2026-04-28T17:04:29.998Z</time></trkpt><trkpt lat="49.13996418542832" lon="2.51423905687647"><ele>63.0</ele><time>2026-04-28T17:04:30.998Z</time></trkpt><trkpt lat="49.139882961124144" lon="2.514212302178969"><ele>62.833333333333336</ele><time>2026-04-28T17:04:31.998Z</time></trkpt><trkpt lat="49.1398017100731" lon="2.5141892024899035"><ele>62.66666666666667</ele><time>2026-04-28T17:04:32.998Z</time></trkpt><trkpt lat="49.13972198135929" lon="2.514165733204724"><ele>62.5</ele><time>2026-04-28T17:04:33.998Z</time></trkpt><trkpt lat="49.13963904966784" lon="2.5141414675689444"><ele>62.333333333333336</ele><time>2026-04-28T17:04:34.998Z</time></trkpt><trkpt lat="49.13955208188521" lon="2.514116875424696"><ele>62.16666666666667</ele><time>2026-04-28T17:04:35.998Z</time></trkpt><trkpt lat="49.13946391868033" lon="2.5140923307929963"><ele>62.0</ele><time>2026-04-28T17:04:36.998Z</time></trkpt><trkpt lat="49.139374541906186" lon="2.5140657360817933"><ele>62.0</ele><time>2026-04-28T17:04:37.998Z</time></trkpt><trkpt lat="49.13928476302931" lon="2.5140404310950952"><ele>62.0</ele><time>2026-04-28T17:04:38.998Z</time></trkpt><trkpt lat="49.13919332156938" lon="2.5140160441179966"><ele>62.0</ele><time>2026-04-28T17:04:39.998Z</time></trkpt><trkpt lat="49.13910176490462" lon="2.5139913845980963"><ele>62.0</ele><time>2026-04-28T17:04:40.998Z</time></trkpt><trkpt lat="49.1390095607433" lon="2.5139673410507695"><ele>62.0</ele><time>2026-04-28T17:04:41.998Z</time></trkpt><trkpt lat="49.13891620188911" lon="2.5139424988798997"><ele>62.0</ele><time>2026-04-28T17:04:42.997Z</time></trkpt><trkpt lat="49.13882417395505" lon="2.5139171783514453"><ele>62.0</ele><time>2026-04-28T17:04:43.997Z</time></trkpt><trkpt lat="49.138731929878766" lon="2.513889052403537"><ele>62.0</ele><time>2026-04-28T17:04:44.997Z</time></trkpt><trkpt lat="49.13864031284928" lon="2.5138630524501977"><ele>62.0</ele><time>2026-04-28T17:04:45.997Z</time></trkpt><trkpt lat="49.13854683374723" lon="2.5138409626880143"><ele>62.0</ele><time>2026-04-28T17:04:46.997Z</time></trkpt><trkpt lat="49.13845360465732" lon="2.5138170495933205"><ele>62.0</ele><time>2026-04-28T17:04:47.997Z</time></trkpt><trkpt lat="49.13835938323155" lon="2.513791653465193"><ele>62.0</ele><time>2026-04-28T17:04:48.997Z</time></trkpt><trkpt lat="49.138265035278955" lon="2.5137681516724064"><ele>62.0</ele><time>2026-04-28T17:04:49.997Z</time></trkpt><trkpt lat="49.138175259394416" lon="2.5137483661079023"><ele>62.0</ele><time>2026-04-28T17:04:50.997Z</time></trkpt><trkpt lat="49.13809081068026" lon="2.5137304210661218"><ele>62.0</ele><time>2026-04-28T17:04:51.997Z</time></trkpt><trkpt lat="49.13800806264114" lon="2.513708736938914"><ele>62.16666666666667</ele><time>2026-04-28T17:04:52.997Z</time></trkpt><trkpt lat="49.13792660173305" lon="2.513683843546636"><ele>62.333333333333336</ele><time>2026-04-28T17:04:53.997Z</time></trkpt><trkpt lat="49.13784520883858" lon="2.513659089962057"><ele>62.5</ele><time>2026-04-28T17:04:54.997Z</time></trkpt><trkpt lat="49.1377627071684" lon="2.513636838601044"><ele>62.66666666666667</ele><time>2026-04-28T17:04:55.997Z</time></trkpt><trkpt lat="49.137677503868616" lon="2.5136157354420887"><ele>62.833333333333336</ele><time>2026-04-28T17:04:56.997Z</time></trkpt><trkpt lat="49.13759076701607" lon="2.5135954230582573"><ele>63.0</ele><time>2026-04-28T17:04:57.999Z</time></trkpt><trkpt lat="49.13750637591335" lon="2.513576058285037"><ele>63.0</ele><time>2026-04-28T17:04:58.999Z</time></trkpt><trkpt lat="49.137424383634745" lon="2.513554005195791"><ele>63.0</ele><time>2026-04-28T17:04:59.999Z</time></trkpt><trkpt lat="49.137343033964044" lon="2.5135284925667336"><ele>63.0</ele><time>2026-04-28T17:05:00.999Z</time></trkpt><trkpt lat="49.13726326261347" lon="2.513502797629194"><ele>63.0</ele><time>2026-04-28T17:05:01.999Z</time></trkpt><trkpt lat="49.13718443668997" lon="2.5134841674677286"><ele>63.0</ele><time>2026-04-28T17:05:02.999Z</time></trkpt><trkpt lat="49.13710478574008" lon="2.5134699571269583"><ele>63.0</ele><time>2026-04-28T17:05:03.999Z</time></trkpt><trkpt lat="49.13702559469975" lon="2.513454186110812"><ele>63.166666666666664</ele><time>2026-04-28T17:05:04.999Z</time></trkpt><trkpt lat="49.13694689349695" lon="2.5134368228492736"><ele>63.33333333333333</ele><time>2026-04-28T17:05:05.999Z</time></trkpt><trkpt lat="49.136868871031076" lon="2.5134195654054965"><ele>63.5</ele><time>2026-04-28T17:05:06.999Z</time></trkpt><trkpt lat="49.13679022880379" lon="2.513403703338522"><ele>63.666666666666664</ele><time>2026-04-28T17:05:07.999Z</time></trkpt><trkpt lat="49.13671080639098" lon="2.513388484085928"><ele>63.83333333333333</ele><time>2026-04-28T17:05:08.999Z</time></trkpt><trkpt lat="49.13663334143438" lon="2.5133687908122417"><ele>64.0</ele><time>2026-04-28T17:05:09.999Z</time></trkpt><trkpt lat="49.13655698195791" lon="2.5133493179267097"><ele>64.42857142857143</ele><time>2026-04-28T17:05:10.999Z</time></trkpt><trkpt lat="49.13648090994396" lon="2.5133329558535977"><ele>64.85714285714285</ele><time>2026-04-28T17:05:11.999Z</time></trkpt><trkpt lat="49.13640747944101" lon="2.5133155323263705"><ele>65.28571428571428</ele><time>2026-04-28T17:05:12.999Z</time></trkpt><trkpt lat="49.13633333289115" lon="2.5132982007483506"><ele>65.71428571428571</ele><time>2026-04-28T17:05:13.999Z</time></trkpt><trkpt lat="49.13625967156641" lon="2.513279696467351"><ele>66.14285714285714</ele><time>2026-04-28T17:05:14.999Z</time></trkpt><trkpt lat="49.13618712492373" lon="2.5132622358003793"><ele>66.57142857142857</ele><time>2026-04-28T17:05:15.999Z</time></trkpt><trkpt lat="49.136116036836654" lon="2.5132484551709293"><ele>67.0</ele><time>2026-04-28T17:05:16.999Z</time></trkpt><trkpt lat="49.13605033863807" lon="2.513237467650034"><ele>67.0</ele><time>2026-04-28T17:05:17.999Z</time></trkpt><trkpt lat="49.135960854575224" lon="2.5132151914532797"><ele>67.0</ele><time>2026-04-28T17:05:19.999Z</time></trkpt><trkpt lat="49.13595230496949" lon="2.5130464354476865"><ele>67.0</ele><time>2026-04-28T17:05:22.999Z</time></trkpt><trkpt lat="49.13596402500748" lon="2.5128726954344365"><ele>67.0</ele><time>2026-04-28T17:05:24.999Z</time></trkpt><trkpt lat="49.13598043540699" lon="2.5126991844676705"><ele>67.0</ele><time>2026-04-28T17:05:26.999Z</time></trkpt><trkpt lat="49.13586185026036" lon="2.5125659687996205"><ele>67.0</ele><time>2026-04-28T17:05:28.999Z</time></trkpt><trkpt lat="49.13580693181632" lon="2.5125053333989653"><ele>67.0</ele><time>2026-04-28T17:05:29.999Z</time></trkpt><trkpt lat="49.13574629526382" lon="2.5124392374379347"><ele>67.0</ele><time>2026-04-28T17:05:30.999Z</time></trkpt><trkpt lat="49.13567652415956" lon="2.512362100396339"><ele>67.0</ele><time>2026-04-28T17:05:31.999Z</time></trkpt><trkpt lat="49.1356086700909" lon="2.51229133418192"><ele>67.0</ele><time>2026-04-28T17:05:32.999Z</time></trkpt><trkpt lat="49.13554413212781" lon="2.5122239616856277"><ele>67.0</ele><time>2026-04-28T17:05:33.999Z</time></trkpt><trkpt lat="49.1354768119822" lon="2.512155448232555"><ele>67.4</ele><time>2026-04-28T17:05:34.999Z</time></trkpt><trkpt lat="49.13540543644784" lon="2.512081593875317"><ele>67.80000000000001</ele><time>2026-04-28T17:05:35.999Z</time></trkpt><trkpt lat="49.135330619757696" lon="2.512003217487204"><ele>68.2</ele><time>2026-04-28T17:05:36.999Z</time></trkpt><trkpt lat="49.13525345621677" lon="2.5119226005699047"><ele>68.60000000000001</ele><time>2026-04-28T17:05:37.999Z</time></trkpt><trkpt lat="49.13517629147624" lon="2.5118415136592063"><ele>69.0</ele><time>2026-04-28T17:05:38.999Z</time></trkpt><trkpt lat="49.13509966330701" lon="2.5117609666062872"><ele>69.0</ele><time>2026-04-28T17:05:39.999Z</time></trkpt><trkpt lat="49.13502615708901" lon="2.511682098081713"><ele>69.0</ele><time>2026-04-28T17:05:40.999Z</time></trkpt><trkpt lat="49.13495501863251" lon="2.511604356826071"><ele>69.0</ele><time>2026-04-28T17:05:41.999Z</time></trkpt><trkpt lat="49.134888957537584" lon="2.5115328711737233"><ele>69.0</ele><time>2026-04-28T17:05:42.999Z</time></trkpt><trkpt lat="49.134830616830016" lon="2.51147068940981"><ele>69.0</ele><time>2026-04-28T17:05:43.999Z</time></trkpt><trkpt lat="49.13474003434231" lon="2.511377908706191"><ele>69.0</ele><time>2026-04-28T17:05:45.999Z</time></trkpt><trkpt lat="49.13467996721095" lon="2.5113148672966137"><ele>69.42857142857143</ele><time>2026-04-28T17:05:48.999Z</time></trkpt><trkpt lat="49.13462039786251" lon="2.511252544307359"><ele>69.85714285714286</ele><time>2026-04-28T17:05:50.999Z</time></trkpt><trkpt lat="49.13454288195734" lon="2.5111730728782375"><ele>70.28571428571429</ele><time>2026-04-28T17:05:52.999Z</time></trkpt><trkpt lat="49.134487816701785" lon="2.511116582510781"><ele>70.71428571428572</ele><time>2026-04-28T17:05:53.999Z</time></trkpt><trkpt lat="49.134431065021424" lon="2.511056286467334"><ele>71.14285714285714</ele><time>2026-04-28T17:05:54.999Z</time></trkpt><trkpt lat="49.134376512182754" lon="2.5109930132632066"><ele>71.57142857142858</ele><time>2026-04-28T17:05:55.999Z</time></trkpt><trkpt lat="49.13432362383954" lon="2.510930922255324"><ele>72.0</ele><time>2026-04-28T17:05:56.999Z</time></trkpt><trkpt lat="49.134272093540204" lon="2.5108755775471123"><ele>72.0</ele><time>2026-04-28T17:05:57.999Z</time></trkpt><trkpt lat="49.13418142113477" lon="2.510780283117289"><ele>72.0</ele><time>2026-04-28T17:05:59.999Z</time></trkpt><trkpt lat="49.13411192153961" lon="2.5107066718434714"><ele>72.0</ele><time>2026-04-28T17:06:01.999Z</time></trkpt><trkpt lat="49.134052908126506" lon="2.510644825701412"><ele>72.0</ele><time>2026-04-28T17:06:04.999Z</time></trkpt><trkpt lat="49.133980655246084" lon="2.5105720663874687"><ele>72.0</ele><time>2026-04-28T17:06:17.998Z</time></trkpt><trkpt lat="49.13395294628873" lon="2.5104772210126396"><ele>72.0</ele><time>2026-04-28T17:06:20.998Z</time></trkpt><trkpt lat="49.13403669970077" lon="2.510424388068119"><ele>72.33333333333333</ele><time>2026-04-28T17:06:21.998Z</time></trkpt><trkpt lat="49.134092140517346" lon="2.5103695745639807"><ele>72.66666666666667</ele><time>2026-04-28T17:06:22.998Z</time></trkpt><trkpt lat="49.134140124395" lon="2.5102923744353975"><ele>73.0</ele><time>2026-04-28T17:06:23.998Z</time></trkpt><trkpt lat="49.13419899117934" lon="2.510236957852353"><ele>73.33333333333334</ele><time>2026-04-28T17:06:24.998Z</time></trkpt><trkpt lat="49.13425842052004" lon="2.510182275472892"><ele>73.66666666666667</ele><time>2026-04-28T17:06:25.998Z</time></trkpt><trkpt lat="49.134355780086565" lon="2.5100868115617905"><ele>74.0</ele><time>2026-04-28T17:06:27.998Z</time></trkpt><trkpt lat="49.134426593312035" lon="2.510015928068766"><ele>74.0</ele><time>2026-04-28T17:06:29.998Z</time></trkpt><trkpt lat="49.13450244703641" lon="2.5099404538793206"><ele>74.0</ele><time>2026-04-28T17:06:31.998Z</time></trkpt><trkpt lat="49.13460518397742" lon="2.5098331145962685"><ele>74.0</ele><time>2026-04-28T17:06:33.998Z</time></trkpt><trkpt lat="49.13466186914439" lon="2.509764796416988"><ele>74.0</ele><time>2026-04-28T17:06:34.998Z</time></trkpt><trkpt lat="49.13471845511619" lon="2.5096848540436247"><ele>74.0</ele><time>2026-04-28T17:06:35.998Z</time></trkpt><trkpt lat="49.13477285664604" lon="2.5096020347728794"><ele>74.0</ele><time>2026-04-28T17:06:36.998Z</time></trkpt><trkpt lat="49.13482242515976" lon="2.5095202313892226"><ele>74.16666666666667</ele><time>2026-04-28T17:06:37.998Z</time></trkpt><trkpt lat="49.13486701192208" lon="2.5094358657275224"><ele>74.33333333333334</ele><time>2026-04-28T17:06:38.998Z</time></trkpt><trkpt lat="49.13490230566178" lon="2.5093455955121686"><ele>74.5</ele><time>2026-04-28T17:06:39.998Z</time></trkpt><trkpt lat="49.1349358636224" lon="2.509260572099694"><ele>74.66666666666667</ele><time>2026-04-28T17:06:40.998Z</time></trkpt><trkpt lat="49.134995377961204" lon="2.509107388142337"><ele>74.83333333333333</ele><time>2026-04-28T17:06:42.998Z</time></trkpt><trkpt lat="49.13505624279061" lon="2.508955166889812"><ele>75.0</ele><time>2026-04-28T17:06:44.998Z</time></trkpt><trkpt lat="49.13509235191468" lon="2.5088650537129076"><ele>74.5</ele><time>2026-04-28T17:06:45.998Z</time></trkpt><trkpt lat="49.135132613114926" lon="2.5087656068206208"><ele>74.0</ele><time>2026-04-28T17:06:46.998Z</time></trkpt><trkpt lat="49.13518001825278" lon="2.508648046970431"><ele>73.5</ele><time>2026-04-28T17:06:47.998Z</time></trkpt><trkpt lat="49.13522481956501" lon="2.5085370818514154"><ele>73.0</ele><time>2026-04-28T17:06:48.998Z</time></trkpt><trkpt lat="49.13527166503729" lon="2.5084219892831356"><ele>72.5</ele><time>2026-04-28T17:06:49.998Z</time></trkpt><trkpt lat="49.135319715389166" lon="2.5083014548271145"><ele>72.0</ele><time>2026-04-28T17:06:50.998Z</time></trkpt><trkpt lat="49.13536757289606" lon="2.508177770681257"><ele>72.0</ele><time>2026-04-28T17:06:51.998Z</time></trkpt><trkpt lat="49.13541680106832" lon="2.5080558083914672"><ele>72.0</ele><time>2026-04-28T17:06:52.998Z</time></trkpt><trkpt lat="49.13546580795642" lon="2.50793520543753"><ele>72.0</ele><time>2026-04-28T17:06:53.998Z</time></trkpt><trkpt lat="49.13551643225737" lon="2.507818210122415"><ele>72.0</ele><time>2026-04-28T17:06:54.998Z</time></trkpt><trkpt lat="49.13557148863979" lon="2.5077116598319646"><ele>72.0</ele><time>2026-04-28T17:06:55.998Z</time></trkpt><trkpt lat="49.135628361134884" lon="2.507611780056985"><ele>72.6</ele><time>2026-04-28T17:06:56.998Z</time></trkpt><trkpt lat="49.13569311834715" lon="2.507526706197527"><ele>73.2</ele><time>2026-04-28T17:06:57.998Z</time></trkpt><trkpt lat="49.13575626387736" lon="2.5074551752132317"><ele>73.8</ele><time>2026-04-28T17:06:58.998Z</time></trkpt><trkpt lat="49.13584014753774" lon="2.5073575721951777"><ele>74.4</ele><time>2026-04-28T17:07:00.997Z</time></trkpt><trkpt lat="49.13589363666721" lon="2.507296071581998"><ele>75.0</ele><time>2026-04-28T17:07:04Z</time></trkpt><trkpt lat="49.135775853994815" lon="2.5071891107611504"><ele>75.0</ele><time>2026-04-28T17:07:06Z</time></trkpt><trkpt lat="49.135655375981656" lon="2.507177513044996"><ele>75.0</ele><time>2026-04-28T17:07:08Z</time></trkpt><trkpt lat="49.135578812149944" lon="2.5071628644566917"><ele>75.0</ele><time>2026-04-28T17:07:09Z</time></trkpt><trkpt lat="49.13548996842096" lon="2.5071463597508825"><ele>75.0</ele><time>2026-04-28T17:07:10Z</time></trkpt><trkpt lat="49.135405653709306" lon="2.5071314311586215"><ele>75.0</ele><time>2026-04-28T17:07:11Z</time></trkpt><trkpt lat="49.13531943841761" lon="2.507112256856777"><ele>75.0</ele><time>2026-04-28T17:07:12Z</time></trkpt><trkpt lat="49.13522458966329" lon="2.5070907792952624"><ele>75.0</ele><time>2026-04-28T17:07:13Z</time></trkpt><trkpt lat="49.135127169653025" lon="2.5070683749922997"><ele>75.0</ele><time>2026-04-28T17:07:14Z</time></trkpt><trkpt lat="49.135028774947074" lon="2.507042173726025"><ele>75.0</ele><time>2026-04-28T17:07:15Z</time></trkpt><trkpt lat="49.134929927426924" lon="2.5070113822136975"><ele>75.0</ele><time>2026-04-28T17:07:16Z</time></trkpt><trkpt lat="49.134830564725625" lon="2.5069790045076004"><ele>76.0</ele><time>2026-04-28T17:07:17Z</time></trkpt><trkpt lat="49.134732421137535" lon="2.5069465945490377"><ele>77.0</ele><time>2026-04-28T17:07:18Z</time></trkpt><trkpt lat="49.13463816801601" lon="2.5069092586194284"><ele>78.0</ele><time>2026-04-28T17:07:19Z</time></trkpt><trkpt lat="49.13454680118392" lon="2.5068626750539282"><ele>79.0</ele><time>2026-04-28T17:07:20Z</time></trkpt><trkpt lat="49.134456461560845" lon="2.506816044795233"><ele>80.0</ele><time>2026-04-28T17:07:21Z</time></trkpt><trkpt lat="49.13437194121542" lon="2.5067621643679376"><ele>80.0</ele><time>2026-04-28T17:07:22Z</time></trkpt><trkpt lat="49.13429066818045" lon="2.5067101202961153"><ele>80.0</ele><time>2026-04-28T17:07:23Z</time></trkpt><trkpt lat="49.13421348393486" lon="2.5066607479642364"><ele>80.0</ele><time>2026-04-28T17:07:24Z</time></trkpt><trkpt lat="49.13413996523186" lon="2.506613936591669"><ele>80.0</ele><time>2026-04-28T17:07:25Z</time></trkpt><trkpt lat="49.134067324337735" lon="2.506567943131344"><ele>80.0</ele><time>2026-04-28T17:07:25.999Z</time></trkpt><trkpt lat="49.13399595170581" lon="2.5065202597549265"><ele>80.0</ele><time>2026-04-28T17:07:26.999Z</time></trkpt><trkpt lat="49.133926202487714" lon="2.5064766625177763"><ele>79.83333333333334</ele><time>2026-04-28T17:07:27.999Z</time></trkpt><trkpt lat="49.13385957992239" lon="2.506437195339217"><ele>79.66666666666667</ele><time>2026-04-28T17:07:28.999Z</time></trkpt><trkpt lat="49.13379468800386" lon="2.5063971504282136"><ele>79.5</ele><time>2026-04-28T17:07:29.999Z</time></trkpt><trkpt lat="49.13373248694173" lon="2.506358510778236"><ele>79.33333333333333</ele><time>2026-04-28T17:07:30.999Z</time></trkpt><trkpt lat="49.13367402320752" lon="2.5063212997717526"><ele>79.16666666666666</ele><time>2026-04-28T17:07:31.999Z</time></trkpt><trkpt lat="49.13358984318551" lon="2.506279945761818"><ele>79.0</ele><time>2026-04-28T17:07:33.999Z</time></trkpt><trkpt lat="49.13348155489787" lon="2.5064673559003428"><ele>79.00000000000001</ele><time>2026-04-28T17:07:37.999Z</time></trkpt><trkpt lat="49.13345008465205" lon="2.5065529596141634"><ele>79.0</ele><time>2026-04-28T17:07:38.999Z</time></trkpt><trkpt lat="49.13341715303842" lon="2.5066361740019065"><ele>79.0</ele><time>2026-04-28T17:07:39.999Z</time></trkpt><trkpt lat="49.13338387028494" lon="2.506721494159703"><ele>79.0</ele><time>2026-04-28T17:07:40.999Z</time></trkpt><trkpt lat="49.13334688267218" lon="2.5068044272112453"><ele>79.0</ele><time>2026-04-28T17:07:41.999Z</time></trkpt><trkpt lat="49.13331494579222" lon="2.506888759708985"><ele>79.00000000000001</ele><time>2026-04-28T17:07:42.999Z</time></trkpt><trkpt lat="49.133282464520164" lon="2.5069723083910196"><ele>79.0</ele><time>2026-04-28T17:07:43.999Z</time></trkpt><trkpt lat="49.13321667858342" lon="2.5071332869094456"><ele>79.75</ele><time>2026-04-28T17:07:45.999Z</time></trkpt><trkpt lat="49.13315488812678" lon="2.50729302068032"><ele>80.5</ele><time>2026-04-28T17:07:47.999Z</time></trkpt><trkpt lat="49.13308948181277" lon="2.507442986885337"><ele>81.25</ele><time>2026-04-28T17:07:49.999Z</time></trkpt><trkpt lat="49.13303323031456" lon="2.507585991926071"><ele>82.0</ele><time>2026-04-28T17:07:51.999Z</time></trkpt><trkpt lat="49.132978403393054" lon="2.507722294627593"><ele>82.0</ele><time>2026-04-28T17:07:53.999Z</time></trkpt><trkpt lat="49.132921588546864" lon="2.507861381033466"><ele>82.0</ele><time>2026-04-28T17:07:55.999Z</time></trkpt><trkpt lat="49.132861783556784" lon="2.5080065909484284"><ele>82.0</ele><time>2026-04-28T17:07:57.999Z</time></trkpt><trkpt lat="49.13280021919106" lon="2.508155044198545"><ele>82.0</ele><time>2026-04-28T17:07:59.999Z</time></trkpt><trkpt lat="49.13273826569846" lon="2.508294715627196"><ele>82.0</ele><time>2026-04-28T17:08:01.999Z</time></trkpt><trkpt lat="49.132687223759135" lon="2.5084106019015846"><ele>82.0</ele><time>2026-04-28T17:08:03.999Z</time></trkpt><trkpt lat="49.13264994246768" lon="2.508500483276842"><ele>82.0</ele><time>2026-04-28T17:08:05.999Z</time></trkpt><trkpt lat="49.132701900780184" lon="2.508640952680185"><ele>82.0</ele><time>2026-04-28T17:08:08.999Z</time></trkpt><trkpt lat="49.13276405314236" lon="2.508686323468367"><ele>82.0</ele><time>2026-04-28T17:08:09.999Z</time></trkpt><trkpt lat="49.13282388193314" lon="2.5087422093161567"><ele>82.0</ele><time>2026-04-28T17:08:10.999Z</time></trkpt><trkpt lat="49.13288151194359" lon="2.508808532332589"><ele>82.0</ele><time>2026-04-28T17:08:11.999Z</time></trkpt><trkpt lat="49.13294086065118" lon="2.5088672737155076"><ele>82.0</ele><time>2026-04-28T17:08:12.999Z</time></trkpt><trkpt lat="49.13299555343219" lon="2.5089220489353785"><ele>82.0</ele><time>2026-04-28T17:08:13.999Z</time></trkpt><trkpt lat="49.13309082592909" lon="2.509021544385976"><ele>82.0</ele><time>2026-04-28T17:08:15.999Z</time></trkpt><trkpt lat="49.13317282125755" lon="2.509108488630671"><ele>82.0</ele><time>2026-04-28T17:08:17.998Z</time></trkpt><trkpt lat="49.133239928443786" lon="2.5091713353863137"><ele>82.0</ele><time>2026-04-28T17:08:19.998Z</time></trkpt><trkpt lat="49.13330207064938" lon="2.5091117177266917"><ele>82.0</ele><time>2026-04-28T17:08:21.998Z</time></trkpt><trkpt lat="49.133358353701226" lon="2.5089547942769235"><ele>81.57142857142857</ele><time>2026-04-28T17:08:23.998Z</time></trkpt><trkpt lat="49.133405748176614" lon="2.508880214865801"><ele>81.14285714285714</ele><time>2026-04-28T17:08:24.998Z</time></trkpt><trkpt lat="49.13344157320411" lon="2.5087901365841456"><ele>80.71428571428572</ele><time>2026-04-28T17:08:25.998Z</time></trkpt><trkpt lat="49.133478029994976" lon="2.5086986244817004"><ele>80.28571428571428</ele><time>2026-04-28T17:08:26.998Z</time></trkpt><trkpt lat="49.133513152335475" lon="2.508610462342395"><ele>79.85714285714286</ele><time>2026-04-28T17:08:27.998Z</time></trkpt><trkpt lat="49.13353335251565" lon="2.5085120460049857"><ele>79.42857142857143</ele><time>2026-04-28T17:08:28.998Z</time></trkpt><trkpt lat="49.13356951443044" lon="2.5084318727842194"><ele>79.0</ele><time>2026-04-28T17:08:29.998Z</time></trkpt><trkpt lat="49.13362535385891" lon="2.508286922556893"><ele>78.83333333333333</ele><time>2026-04-28T17:08:31.998Z</time></trkpt><trkpt lat="49.13367351276986" lon="2.508169330600644"><ele>78.66666666666666</ele><time>2026-04-28T17:08:33.998Z</time></trkpt><trkpt lat="49.13371276160466" lon="2.508067754148775"><ele>78.5</ele><time>2026-04-28T17:08:35.998Z</time></trkpt><trkpt lat="49.13375610949821" lon="2.5079935681501118"><ele>78.33333333333333</ele><time>2026-04-28T17:08:40.998Z</time></trkpt><trkpt lat="49.13371791348392" lon="2.508090250864873"><ele>78.16666666666667</ele><time>2026-04-28T17:10:33.998Z</time></trkpt><trkpt lat="49.13360260419176" lon="2.5079971186042522"><ele>78.0</ele><time>2026-04-28T17:10:37.998Z</time></trkpt><trkpt lat="49.133518351483005" lon="2.508007392254647"><ele>78.0</ele><time>2026-04-28T17:10:42.998Z</time></trkpt><trkpt lat="49.13345436322877" lon="2.507998746516405"><ele>78.0</ele><time>2026-04-28T17:10:44.998Z</time></trkpt><trkpt lat="49.13365199317829" lon="2.507946085580848"><ele>78.0</ele><time>2026-04-28T17:10:54.998Z</time></trkpt><trkpt lat="49.13369878490165" lon="2.5080373405185803"><ele>78.0</ele><time>2026-04-28T17:11:01.998Z</time></trkpt><trkpt lat="49.13367988430054" lon="2.5079381708824853"><ele>78.0</ele><time>2026-04-28T17:11:19.999Z</time></trkpt><trkpt lat="49.13362318082014" lon="2.5079920697300224"><ele>78.0</ele><time>2026-04-28T17:11:53.999Z</time></trkpt><trkpt lat="49.13367559070646" lon="2.507931693439457"><ele>78.0</ele><time>2026-04-28T17:16:24Z</time></trkpt><trkpt lat="49.13369651753577" lon="2.5078077219695745"><ele>78.0</ele><time>2026-04-28T17:16:42.999Z</time></trkpt><trkpt lat="49.13360460483225" lon="2.5078623794245707"><ele>78.0</ele><time>2026-04-28T17:16:54.999Z</time></trkpt><trkpt lat="49.13353823495801" lon="2.5078759825214854"><ele>78.0</ele><time>2026-04-28T17:16:57.999Z</time></trkpt><trkpt lat="49.13349095805867" lon="2.5078030613790285"><ele>78.0</ele><time>2026-04-28T17:18:29.999Z</time></trkpt><trkpt lat="49.133531347363125" lon="2.5079185145637117"><ele>78.0</ele><time>2026-04-28T17:21:09.999Z</time></trkpt><trkpt lat="49.1336288084992" lon="2.5079161122513662"><ele>78.0</ele><time>2026-04-28T17:23:23.999Z</time></trkpt><trkpt lat="49.133532147192454" lon="2.508028784466537"><ele>78.0</ele><time>2026-04-28T17:23:58Z</time></trkpt><trkpt lat="49.13359938517072" lon="2.5079145420344804"><ele>78.0</ele><time>2026-04-28T17:23:59Z</time></trkpt><trkpt lat="49.133660119537325" lon="2.5078657793841828"><ele>78.0</ele><time>2026-04-28T17:25:16.999Z</time></trkpt><trkpt lat="49.13359969378735" lon="2.507917987121968"><ele>78.0</ele><time>2026-04-28T17:25:29.999Z</time></trkpt><trkpt lat="49.1335396129166" lon="2.5079592265230657"><ele>78.0</ele><time>2026-04-28T17:25:39.999Z</time></trkpt><trkpt lat="49.133486329851706" lon="2.5078936474822444"><ele>78.0</ele><time>2026-04-28T17:25:50.999Z</time></trkpt><trkpt lat="49.133462431822274" lon="2.5077988704151806"><ele>78.0</ele><time>2026-04-28T17:26:00Z</time></trkpt><trkpt lat="49.1334858042391" lon="2.5078913920769788"><ele>78.0</ele><time>2026-04-28T17:26:51.999Z</time></trkpt><trkpt lat="49.13353874642422" lon="2.5079469332270627"><ele>78.0</ele><time>2026-04-28T17:27:49.999Z</time></trkpt><trkpt lat="49.133608235158064" lon="2.507907764199428"><ele>78.0</ele><time>2026-04-28T17:27:57.999Z</time></trkpt><trkpt lat="49.13354259069723" lon="2.507958456600144"><ele>78.0</ele><time>2026-04-28T17:28:07Z</time></trkpt><trkpt lat="49.1335006501604" lon="2.507878988014975"><ele>78.0</ele><time>2026-04-28T17:33:49Z</time></trkpt><trkpt lat="49.13353195273099" lon="2.5079756754710627"><ele>78.0</ele><time>2026-04-28T17:34:05Z</time></trkpt><trkpt lat="49.133504492705214" lon="2.5078885170786265"><ele>78.0</ele><time>2026-04-28T17:34:24.002Z</time></trkpt><trkpt lat="49.13354232798651" lon="2.507975612910038"><ele>78.0</ele><time>2026-04-28T17:37:26Z</time></trkpt><trkpt lat="49.133526315923135" lon="2.507878093008349"><ele>78.0</ele><time>2026-04-28T17:40:32.998Z</time></trkpt><trkpt lat="49.13352919051284" lon="2.5079846243326696"><ele>78.0</ele><time>2026-04-28T17:44:33.998Z</time></trkpt><trkpt lat="49.13350657439717" lon="2.5078918840920075"><ele>78.0</ele><time>2026-04-28T17:48:55.998Z</time></trkpt><trkpt lat="49.133552829466836" lon="2.507962526925014"><ele>78.0</ele><time>2026-04-28T17:57:15.998Z</time></trkpt><trkpt lat="49.133647849842355" lon="2.5080326636555026"><ele>78.0</ele><time>2026-04-28T17:57:35.001Z</time></trkpt><trkpt lat="49.13363903225446" lon="2.5079352473360954"><ele>78.0</ele><time>2026-04-28T17:58:01Z</time></trkpt><trkpt lat="49.13369988614018" lon="2.507988894686154"><ele>78.0</ele><time>2026-04-28T17:58:03Z</time></trkpt><trkpt lat="49.13366074203269" lon="2.5080771764041305"><ele>78.0</ele><time>2026-04-28T17:58:18Z</time></trkpt><trkpt lat="49.133589506740485" lon="2.5079351291161998"><ele>78.0</ele><time>2026-04-28T17:58:39.999Z</time></trkpt><trkpt lat="49.13352455081056" lon="2.5079087670623172"><ele>78.0</ele><time>2026-04-28T17:58:46.999Z</time></trkpt><trkpt lat="49.13356291316142" lon="2.5079953167540907"><ele>78.0</ele><time>2026-04-28T17:59:57.999Z</time></trkpt><trkpt lat="49.13351264857768" lon="2.5079321845847335"><ele>78.0</ele><time>2026-04-28T18:03:22.998Z</time></trkpt><trkpt lat="49.13354044593045" lon="2.508020730840148"><ele>78.0</ele><time>2026-04-28T18:17:21.999Z</time></trkpt><trkpt lat="49.133512646694086" lon="2.5078907842068516"><ele>78.0</ele><time>2026-04-28T18:18:18.998Z</time></trkpt><trkpt lat="49.13346803939481" lon="2.507813160059144"><ele>78.0</ele><time>2026-04-28T18:18:33Z</time></trkpt><trkpt lat="49.133428345942754" lon="2.5077295545406684"><ele>78.0</ele><time>2026-04-28T18:19:24.999Z</time></trkpt><trkpt lat="49.133470855471316" lon="2.5078038689856377"><ele>78.0</ele><time>2026-04-28T18:20:02.998Z</time></trkpt><trkpt lat="49.13349810142516" lon="2.50789080278814"><ele>78.0</ele><time>2026-04-28T18:20:10.998Z</time></trkpt><trkpt lat="49.133551505849006" lon="2.5079428053163464"><ele>78.0</ele><time>2026-04-28T18:22:30.997Z</time></trkpt><trkpt lat="49.13361939242938" lon="2.507998550131087"><ele>78.0</ele><time>2026-04-28T18:22:45Z</time></trkpt><trkpt lat="49.133541722001766" lon="2.5079659271966297"><ele>78.0</ele><time>2026-04-28T18:23:33.999Z</time></trkpt><trkpt lat="49.133512629309365" lon="2.507874298211504"><ele>78.0</ele><time>2026-04-28T18:25:11.999Z</time></trkpt><trkpt lat="49.133542179055596" lon="2.507976300605733"><ele>78.0</ele><time>2026-04-28T18:26:05.998Z</time></trkpt><trkpt lat="49.1334617207207" lon="2.5079834029514085"><ele>78.0</ele><time>2026-04-28T18:26:15.998Z</time></trkpt><trkpt lat="49.133535468312104" lon="2.5079615326530518"><ele>78.0</ele><time>2026-04-28T18:26:27.998Z</time></trkpt><trkpt lat="49.13359902427171" lon="2.508019564239905"><ele>78.0</ele><time>2026-04-28T18:28:09.998Z</time></trkpt><trkpt lat="49.133535792874156" lon="2.508020821344447"><ele>78.0</ele><time>2026-04-28T18:28:43.997Z</time></trkpt><trkpt lat="49.13352787841525" lon="2.507917484275722"><ele>78.0</ele><time>2026-04-28T18:38:56.999Z</time></trkpt><trkpt lat="49.13365486681419" lon="2.5079451986895416"><ele>77.85714285714286</ele><time>2026-04-28T18:54:27Z</time></trkpt><trkpt lat="49.13359788667432" lon="2.507884850309729"><ele>77.71428571428571</ele><time>2026-04-28T18:55:05.999Z</time></trkpt><trkpt lat="49.13353137775663" lon="2.5078590150927833"><ele>77.57142857142857</ele><time>2026-04-28T18:55:08.998Z</time></trkpt><trkpt lat="49.13350129469261" lon="2.507755086840678"><ele>77.42857142857143</ele><time>2026-04-28T18:55:13.998Z</time></trkpt><trkpt lat="49.13356097160151" lon="2.507708702436129"><ele>77.28571428571428</ele><time>2026-04-28T18:55:19.998Z</time></trkpt><trkpt lat="49.133555109038376" lon="2.5078567079708143"><ele>77.14285714285714</ele><time>2026-04-28T18:55:24.998Z</time></trkpt><trkpt lat="49.133498587217346" lon="2.5078058293244063"><ele>77.0</ele><time>2026-04-28T18:55:36.998Z</time></trkpt><trkpt lat="49.1335250688629" lon="2.5079016772284204"><ele>77.0</ele><time>2026-04-28T18:55:52.997Z</time></trkpt><trkpt lat="49.133579310299915" lon="2.5079567961389144"><ele>77.0</ele><time>2026-04-28T18:56:11Z</time></trkpt><trkpt lat="49.133567108486" lon="2.507860435261627"><ele>77.0</ele><time>2026-04-28T18:56:39.999Z</time></trkpt><trkpt lat="49.133634698144704" lon="2.507923857353423"><ele>77.0</ele><time>2026-04-28T20:55:00.997Z</time></trkpt><trkpt lat="49.13365160756291" lon="2.508029611030708"><ele>77.0</ele><time>2026-04-28T20:55:24.997Z</time></trkpt><trkpt lat="49.13371835097979" lon="2.5079952288123706"><ele>77.0</ele><time>2026-04-28T20:55:43.999Z</time></trkpt><trkpt lat="49.133649410057345" lon="2.507959243582686"><ele>77.0</ele><time>2026-04-28T20:55:57.999Z</time></trkpt><trkpt lat="49.13358329969181" lon="2.507908798237295"><ele>77.0</ele><time>2026-04-28T20:56:01.999Z</time></trkpt><trkpt lat="49.13344366910125" lon="2.5079210807447163"><ele>77.0</ele><time>2026-04-28T20:56:23.998Z</time></trkpt><trkpt lat="49.13336037313443" lon="2.5079448686611165"><ele>77.0</ele><time>2026-04-28T20:56:28.998Z</time></trkpt><trkpt lat="49.13328076659933" lon="2.5078955479478866"><ele>77.0</ele><time>2026-04-28T20:56:31.998Z</time></trkpt><trkpt lat="49.133569767154526" lon="2.5078598716596443"><ele>77.0</ele><time>2026-04-28T20:56:57.998Z</time></trkpt><trkpt lat="49.13360295442457" lon="2.5079824664389814"><ele>78.0</ele><time>2026-04-28T20:59:08.997Z</time></trkpt><trkpt lat="49.133665258753155" lon="2.5079589520336527"><ele>78.0</ele><time>2026-04-28T20:59:32.997Z</time></trkpt><trkpt lat="49.133605561905355" lon="2.5079981949349506"><ele>78.0</ele><time>2026-04-28T21:02:03.999Z</time></trkpt><trkpt lat="49.133605561905355" lon="2.5079981949349506"><ele>78.0</ele><time>2026-04-28T21:02:03.999Z</time></trkpt></trkseg></trk></gpx>